<?xml version='1.0' encoding='UTF-8'?><gpx version="1.1" creator="JPX - https://github.com/jenetics/jpx" xmlns="http://www.topografix.com/GPX/1/1"><trk><trkseg><trkpt lat="42.834082502285476" lon="-1.6661043542103646"><ele>424.99999999999994</ele><time>2026-04-30T06:41:39Z</time></trkpt><trkpt lat="42.834004093967934" lon="-1.6660998635138686"><ele>425.0</ele><time>2026-04-30T06:41:42Z</time></trkpt><trkpt lat="42.83393338881315" lon="-1.6660463918219288"><ele>425.0</ele><time>2026-04-30T06:41:46Z</time></trkpt><trkpt lat="42.83387726904121" lon="-1.6661219470049982"><ele>425.0</ele><time>2026-04-30T06:41:48Z</time></trkpt><trkpt lat="42.833822073382485" lon="-1.666219914920021"><ele>424.99999999999994</ele><time>2026-04-30T06:41:50Z</time></trkpt><trkpt lat="42.83376858945827" lon="-1.6662930591159624"><ele>425.0</ele><time>2026-04-30T06:41:52Z</time></trkpt><trkpt lat="42.83369656338639" lon="-1.6663552921146931"><ele>425.3333333333333</ele><time>2026-04-30T06:41:55Z</time></trkpt><trkpt lat="42.83362693520372" lon="-1.6663221250768874"><ele>425.66666666666663</ele><time>2026-04-30T06:41:57Z</time></trkpt><trkpt lat="42.83355118572994" lon="-1.6662622129452451"><ele>426.0</ele><time>2026-04-30T06:41:59Z</time></trkpt><trkpt lat="42.833477359631935" lon="-1.6662315769603864"><ele>426.33333333333337</ele><time>2026-04-30T06:42:01Z</time></trkpt><trkpt lat="42.8334036632032" lon="-1.6662328744006543"><ele>426.6666666666667</ele><time>2026-04-30T06:42:03Z</time></trkpt><trkpt lat="42.83331443619474" lon="-1.6662514448727372"><ele>427.0</ele><time>2026-04-30T06:42:05Z</time></trkpt><trkpt lat="42.833218321527966" lon="-1.6663321288612005"><ele>427.0</ele><time>2026-04-30T06:42:07Z</time></trkpt><trkpt lat="42.83317322510704" lon="-1.666394235161338"><ele>427.0</ele><time>2026-04-30T06:42:08Z</time></trkpt><trkpt lat="42.83312778549671" lon="-1.6664603031422225"><ele>427.0</ele><time>2026-04-30T06:42:09Z</time></trkpt><trkpt lat="42.833082561367505" lon="-1.6665253508629942"><ele>427.0</ele><time>2026-04-30T06:42:10Z</time></trkpt><trkpt lat="42.8330331345232" lon="-1.6665953906358804"><ele>427.0</ele><time>2026-04-30T06:42:11Z</time></trkpt><trkpt lat="42.83298328625318" lon="-1.6666590392675436"><ele>427.0</ele><time>2026-04-30T06:42:12Z</time></trkpt><trkpt lat="42.8329388947166" lon="-1.6667231724891318"><ele>427.0</ele><time>2026-04-30T06:42:13Z</time></trkpt><trkpt lat="42.83286309904147" lon="-1.666829818977398"><ele>427.0</ele><time>2026-04-30T06:42:15Z</time></trkpt><trkpt lat="42.83280360163017" lon="-1.6669213461708245"><ele>427.00000000000006</ele><time>2026-04-30T06:42:17Z</time></trkpt><trkpt lat="42.832729731062464" lon="-1.6670230051486559"><ele>427.00000000000006</ele><time>2026-04-30T06:42:20Z</time></trkpt><trkpt lat="42.832653662702036" lon="-1.6671383168807128"><ele>427.0</ele><time>2026-04-30T06:42:22Z</time></trkpt><trkpt lat="42.83258853083949" lon="-1.667276154174698"><ele>427.0</ele><time>2026-04-30T06:42:24Z</time></trkpt><trkpt lat="42.832569631699606" lon="-1.6673583842943018"><ele>427.00000000000006</ele><time>2026-04-30T06:42:25Z</time></trkpt><trkpt lat="42.83255410655063" lon="-1.6674421346534187"><ele>427.0</ele><time>2026-04-30T06:42:26Z</time></trkpt><trkpt lat="42.83255203074826" lon="-1.667543485389088"><ele>427.0</ele><time>2026-04-30T06:42:27Z</time></trkpt><trkpt lat="42.83254502154411" lon="-1.6676298732812989"><ele>427.0</ele><time>2026-04-30T06:42:28Z</time></trkpt><trkpt lat="42.83264462316381" lon="-1.6678000798407497"><ele>427.00000000000006</ele><time>2026-04-30T06:42:30Z</time></trkpt><trkpt lat="42.832703092275445" lon="-1.6678678447487036"><ele>427.0</ele><time>2026-04-30T06:42:31Z</time></trkpt><trkpt lat="42.83275965906315" lon="-1.6679342614756347"><ele>427.33333333333337</ele><time>2026-04-30T06:42:32Z</time></trkpt><trkpt lat="42.83281478730182" lon="-1.6680069677092602"><ele>427.6666666666667</ele><time>2026-04-30T06:42:33Z</time></trkpt><trkpt lat="42.83287077400633" lon="-1.6680831108068224"><ele>428.0</ele><time>2026-04-30T06:42:34Z</time></trkpt><trkpt lat="42.83292793468793" lon="-1.668159731773523"><ele>428.33333333333337</ele><time>2026-04-30T06:42:35Z</time></trkpt><trkpt lat="42.832986666978634" lon="-1.6682341897230337"><ele>428.6666666666667</ele><time>2026-04-30T06:42:36Z</time></trkpt><trkpt lat="42.83304798787595" lon="-1.6683068549522195"><ele>429.0</ele><time>2026-04-30T06:42:37Z</time></trkpt><trkpt lat="42.833102367183734" lon="-1.6683851884465293"><ele>429.0</ele><time>2026-04-30T06:42:38Z</time></trkpt><trkpt lat="42.83316509798546" lon="-1.668460948510433"><ele>429.0</ele><time>2026-04-30T06:42:39Z</time></trkpt><trkpt lat="42.8332204063864" lon="-1.6685408853783825"><ele>429.0</ele><time>2026-04-30T06:42:40Z</time></trkpt><trkpt lat="42.83327602067935" lon="-1.668623731783628"><ele>429.0</ele><time>2026-04-30T06:42:41Z</time></trkpt><trkpt lat="42.833336236232256" lon="-1.6687009062004445"><ele>429.0</ele><time>2026-04-30T06:42:42Z</time></trkpt><trkpt lat="42.83339454025633" lon="-1.6687801772783972"><ele>429.0</ele><time>2026-04-30T06:42:43Z</time></trkpt><trkpt lat="42.83345393026656" lon="-1.6688607738663357"><ele>428.8333333333333</ele><time>2026-04-30T06:42:44Z</time></trkpt><trkpt lat="42.83351123520374" lon="-1.6689429680881303"><ele>428.66666666666663</ele><time>2026-04-30T06:42:45Z</time></trkpt><trkpt lat="42.83356565466125" lon="-1.6690265554611492"><ele>428.5</ele><time>2026-04-30T06:42:46Z</time></trkpt><trkpt lat="42.833622686493655" lon="-1.6691019115930288"><ele>428.3333333333333</ele><time>2026-04-30T06:42:47Z</time></trkpt><trkpt lat="42.83367281815687" lon="-1.6691735275584645"><ele>428.16666666666663</ele><time>2026-04-30T06:42:48Z</time></trkpt><trkpt lat="42.833719102380186" lon="-1.6692342937872358"><ele>428.0</ele><time>2026-04-30T06:42:49Z</time></trkpt><trkpt lat="42.83380063094338" lon="-1.66935511408624"><ele>427.99999999999994</ele><time>2026-04-30T06:42:51Z</time></trkpt><trkpt lat="42.833892197819345" lon="-1.6694762967437942"><ele>428.0</ele><time>2026-04-30T06:42:53Z</time></trkpt><trkpt lat="42.833938245370156" lon="-1.669538173811436"><ele>428.0</ele><time>2026-04-30T06:42:54Z</time></trkpt><trkpt lat="42.83398866605613" lon="-1.669607334519768"><ele>428.0</ele><time>2026-04-30T06:42:55Z</time></trkpt><trkpt lat="42.83403584147476" lon="-1.6696802189352298"><ele>427.99999999999994</ele><time>2026-04-30T06:42:56Z</time></trkpt><trkpt lat="42.83408544822744" lon="-1.6697571084766147"><ele>428.0</ele><time>2026-04-30T06:42:57Z</time></trkpt><trkpt lat="42.83413822206438" lon="-1.6698227787434214"><ele>427.99999999999994</ele><time>2026-04-30T06:42:58Z</time></trkpt><trkpt lat="42.83419378862978" lon="-1.6698997106959965"><ele>428.0</ele><time>2026-04-30T06:42:59Z</time></trkpt><trkpt lat="42.834245902608316" lon="-1.6699726087346278"><ele>428.0</ele><time>2026-04-30T06:43:00Z</time></trkpt><trkpt lat="42.83429598863289" lon="-1.6700413932178808"><ele>428.0</ele><time>2026-04-30T06:43:01Z</time></trkpt><trkpt lat="42.83434197238014" lon="-1.6701033462256993"><ele>427.99999999999994</ele><time>2026-04-30T06:43:02Z</time></trkpt><trkpt lat="42.834425839052344" lon="-1.6702105819509718"><ele>428.0</ele><time>2026-04-30T06:43:04Z</time></trkpt><trkpt lat="42.83449239724054" lon="-1.6703016148325935"><ele>427.99999999999994</ele><time>2026-04-30T06:43:06Z</time></trkpt><trkpt lat="42.834571074109625" lon="-1.6704025260396902"><ele>428.0</ele><time>2026-04-30T06:43:08Z</time></trkpt><trkpt lat="42.83467004436599" lon="-1.670514448861703"><ele>428.0</ele><time>2026-04-30T06:43:10Z</time></trkpt><trkpt lat="42.83471649089619" lon="-1.670575839789431"><ele>428.0</ele><time>2026-04-30T06:43:11Z</time></trkpt><trkpt lat="42.834767524831086" lon="-1.6706471988841574"><ele>427.99999999999994</ele><time>2026-04-30T06:43:12Z</time></trkpt><trkpt lat="42.8348152857256" lon="-1.6707223980224042"><ele>428.0</ele><time>2026-04-30T06:43:13Z</time></trkpt><trkpt lat="42.83487349791716" lon="-1.6707917042028888"><ele>428.00000000000006</ele><time>2026-04-30T06:43:14Z</time></trkpt><trkpt lat="42.834925367791655" lon="-1.6708645447323185"><ele>428.0</ele><time>2026-04-30T06:43:15Z</time></trkpt><trkpt lat="42.83497890013607" lon="-1.6709401374463506"><ele>428.0</ele><time>2026-04-30T06:43:16Z</time></trkpt><trkpt lat="42.835035407396276" lon="-1.6710110414357604"><ele>428.0</ele><time>2026-04-30T06:43:17Z</time></trkpt><trkpt lat="42.83509249064145" lon="-1.6710783853475275"><ele>428.0</ele><time>2026-04-30T06:43:18Z</time></trkpt><trkpt lat="42.83514108137201" lon="-1.671151902719152"><ele>428.00000000000006</ele><time>2026-04-30T06:43:19Z</time></trkpt><trkpt lat="42.83519320143354" lon="-1.6712195987151799"><ele>428.0</ele><time>2026-04-30T06:43:20Z</time></trkpt><trkpt lat="42.835244376170074" lon="-1.6712789909328112"><ele>428.16666666666663</ele><time>2026-04-30T06:43:21Z</time></trkpt><trkpt lat="42.83530206595345" lon="-1.6713486804220736"><ele>428.3333333333333</ele><time>2026-04-30T06:43:22Z</time></trkpt><trkpt lat="42.83535412648323" lon="-1.6714216963328143"><ele>428.5</ele><time>2026-04-30T06:43:23Z</time></trkpt><trkpt lat="42.8354117822987" lon="-1.6714939185852817"><ele>428.66666666666663</ele><time>2026-04-30T06:43:24Z</time></trkpt><trkpt lat="42.835480996192395" lon="-1.671589001453795"><ele>428.8333333333333</ele><time>2026-04-30T06:43:25Z</time></trkpt><trkpt lat="42.835528159512975" lon="-1.671646833904985"><ele>429.0</ele><time>2026-04-30T06:43:26Z</time></trkpt><trkpt lat="42.83558610007479" lon="-1.6717235381053484"><ele>429.0</ele><time>2026-04-30T06:43:27Z</time></trkpt><trkpt lat="42.83564458275377" lon="-1.671793800242784"><ele>429.0</ele><time>2026-04-30T06:43:28Z</time></trkpt><trkpt lat="42.8357127228033" lon="-1.671850915800712"><ele>429.0</ele><time>2026-04-30T06:43:29Z</time></trkpt><trkpt lat="42.835770303793964" lon="-1.6719334164144324"><ele>429.0</ele><time>2026-04-30T06:43:30Z</time></trkpt><trkpt lat="42.83581909319989" lon="-1.6720171935089037"><ele>429.0</ele><time>2026-04-30T06:43:31Z</time></trkpt><trkpt lat="42.83587268776369" lon="-1.672091271543576"><ele>429.0</ele><time>2026-04-30T06:43:32Z</time></trkpt><trkpt lat="42.835919904848645" lon="-1.6721727800605883"><ele>429.0</ele><time>2026-04-30T06:43:33Z</time></trkpt><trkpt lat="42.835968581892786" lon="-1.6722400962846367"><ele>429.0</ele><time>2026-04-30T06:43:34Z</time></trkpt><trkpt lat="42.836015941352805" lon="-1.672303069677187"><ele>429.0</ele><time>2026-04-30T06:43:35Z</time></trkpt><trkpt lat="42.836066534959166" lon="-1.672356526222034"><ele>429.0</ele><time>2026-04-30T06:43:36Z</time></trkpt><trkpt lat="42.83614273055119" lon="-1.6724682717536314"><ele>429.0</ele><time>2026-04-30T06:43:38Z</time></trkpt><trkpt lat="42.836223320779574" lon="-1.6725569781011376"><ele>429.0</ele><time>2026-04-30T06:43:40Z</time></trkpt><trkpt lat="42.83631678039072" lon="-1.672632022867281"><ele>429.1666666666667</ele><time>2026-04-30T06:43:42Z</time></trkpt><trkpt lat="42.83637307649837" lon="-1.6727623118680903"><ele>429.33333333333337</ele><time>2026-04-30T06:43:44Z</time></trkpt><trkpt lat="42.83645752386116" lon="-1.672881555255551"><ele>429.5</ele><time>2026-04-30T06:43:46Z</time></trkpt><trkpt lat="42.836502517430475" lon="-1.6729516757391913"><ele>429.6666666666667</ele><time>2026-04-30T06:43:47Z</time></trkpt><trkpt lat="42.8365485026619" lon="-1.6730150772820418"><ele>429.83333333333337</ele><time>2026-04-30T06:43:48Z</time></trkpt><trkpt lat="42.836602355533685" lon="-1.6730837742151792"><ele>430.0</ele><time>2026-04-30T06:43:49Z</time></trkpt><trkpt lat="42.83665599695252" lon="-1.673155341112545"><ele>430.1666666666667</ele><time>2026-04-30T06:43:50Z</time></trkpt><trkpt lat="42.83671146147893" lon="-1.6732278791721436"><ele>430.33333333333337</ele><time>2026-04-30T06:43:51Z</time></trkpt><trkpt lat="42.83676446987099" lon="-1.673297915896869"><ele>430.5</ele><time>2026-04-30T06:43:52Z</time></trkpt><trkpt lat="42.836822437477316" lon="-1.6733714561600903"><ele>430.66666666666663</ele><time>2026-04-30T06:43:53Z</time></trkpt><trkpt lat="42.83687743566464" lon="-1.673444758193181"><ele>430.8333333333333</ele><time>2026-04-30T06:43:54Z</time></trkpt><trkpt lat="42.8369339178736" lon="-1.6735174637151413"><ele>431.0</ele><time>2026-04-30T06:43:55Z</time></trkpt><trkpt lat="42.83698843603315" lon="-1.6735961089890072"><ele>430.8333333333333</ele><time>2026-04-30T06:43:56Z</time></trkpt><trkpt lat="42.83704443454417" lon="-1.6736718064818223"><ele>430.66666666666663</ele><time>2026-04-30T06:43:57Z</time></trkpt><trkpt lat="42.837097807614626" lon="-1.6737439505310143"><ele>430.5</ele><time>2026-04-30T06:43:58Z</time></trkpt><trkpt lat="42.83717517245769" lon="-1.6738554450587892"><ele>430.33333333333337</ele><time>2026-04-30T06:44:00Z</time></trkpt><trkpt lat="42.83723390223129" lon="-1.673935229317758"><ele>430.1666666666667</ele><time>2026-04-30T06:44:02Z</time></trkpt><trkpt lat="42.83724741775125" lon="-1.6740392715113677"><ele>430.0</ele><time>2026-04-30T06:44:41Z</time></trkpt><trkpt lat="42.83729798134987" lon="-1.6741058359111565"><ele>430.0</ele><time>2026-04-30T06:44:43Z</time></trkpt><trkpt lat="42.83737421539867" lon="-1.6742099003554982"><ele>430.0</ele><time>2026-04-30T06:44:45Z</time></trkpt><trkpt lat="42.83742250858848" lon="-1.6742682070246206"><ele>430.0</ele><time>2026-04-30T06:44:46Z</time></trkpt><trkpt lat="42.837473660509865" lon="-1.6743313060576743"><ele>430.0</ele><time>2026-04-30T06:44:47Z</time></trkpt><trkpt lat="42.83752351069195" lon="-1.6743951473129577"><ele>430.0</ele><time>2026-04-30T06:44:48Z</time></trkpt><trkpt lat="42.83757373734383" lon="-1.6744588989787472"><ele>430.0</ele><time>2026-04-30T06:44:49Z</time></trkpt><trkpt lat="42.83762282064393" lon="-1.6745244240494133"><ele>430.0</ele><time>2026-04-30T06:44:50Z</time></trkpt><trkpt lat="42.83766780062672" lon="-1.6745846404972675"><ele>429.8</ele><time>2026-04-30T06:44:51Z</time></trkpt><trkpt lat="42.83774366629988" lon="-1.6746920583372036"><ele>429.6</ele><time>2026-04-30T06:44:53Z</time></trkpt><trkpt lat="42.837811362607965" lon="-1.6747758007104436"><ele>429.4</ele><time>2026-04-30T06:44:55Z</time></trkpt><trkpt lat="42.83786367492967" lon="-1.6748418640903782"><ele>429.2</ele><time>2026-04-30T06:44:58Z</time></trkpt><trkpt lat="42.83791921156178" lon="-1.6749162235297474"><ele>429.0</ele><time>2026-04-30T06:45:01Z</time></trkpt><trkpt lat="42.83800466781538" lon="-1.6750149001523464"><ele>429.0</ele><time>2026-04-30T06:45:03Z</time></trkpt><trkpt lat="42.838057347507835" lon="-1.675076026474728"><ele>429.0</ele><time>2026-04-30T06:45:04Z</time></trkpt><trkpt lat="42.83811226119787" lon="-1.6751420418950662"><ele>429.0</ele><time>2026-04-30T06:45:05Z</time></trkpt><trkpt lat="42.838168315214716" lon="-1.675211657778726"><ele>429.0</ele><time>2026-04-30T06:45:06Z</time></trkpt><trkpt lat="42.83822719573417" lon="-1.6752837547107637"><ele>429.0</ele><time>2026-04-30T06:45:07Z</time></trkpt><trkpt lat="42.83828586401533" lon="-1.6753586505512046"><ele>429.0</ele><time>2026-04-30T06:45:08Z</time></trkpt><trkpt lat="42.83834394577391" lon="-1.6754366289962463"><ele>429.0</ele><time>2026-04-30T06:45:09Z</time></trkpt><trkpt lat="42.838401959237174" lon="-1.675513518237332"><ele>429.0</ele><time>2026-04-30T06:45:10Z</time></trkpt><trkpt lat="42.83846099706665" lon="-1.6755890178510853"><ele>429.0</ele><time>2026-04-30T06:45:11Z</time></trkpt><trkpt lat="42.838521086992756" lon="-1.675662363712575"><ele>429.0</ele><time>2026-04-30T06:45:12Z</time></trkpt><trkpt lat="42.838583191054646" lon="-1.675729385242602"><ele>429.0</ele><time>2026-04-30T06:45:13Z</time></trkpt><trkpt lat="42.83864065202478" lon="-1.6757999522181846"><ele>429.0</ele><time>2026-04-30T06:45:14Z</time></trkpt><trkpt lat="42.83869576512324" lon="-1.675875336735247"><ele>429.0</ele><time>2026-04-30T06:45:15Z</time></trkpt><trkpt lat="42.838778114510724" lon="-1.6759176831065445"><ele>429.0</ele><time>2026-04-30T06:45:16Z</time></trkpt><trkpt lat="42.83883699492622" lon="-1.675996283184541"><ele>429.0</ele><time>2026-04-30T06:45:17Z</time></trkpt><trkpt lat="42.838873164114325" lon="-1.6761052621245514"><ele>429.0</ele><time>2026-04-30T06:45:18Z</time></trkpt><trkpt lat="42.83893377515438" lon="-1.6761835387705775"><ele>429.0</ele><time>2026-04-30T06:45:19Z</time></trkpt><trkpt lat="42.83899422059109" lon="-1.6762579087159895"><ele>429.0</ele><time>2026-04-30T06:45:20Z</time></trkpt><trkpt lat="42.83905510906198" lon="-1.6763344260560455"><ele>429.0</ele><time>2026-04-30T06:45:21Z</time></trkpt><trkpt lat="42.83911357059627" lon="-1.676414536540141"><ele>429.0</ele><time>2026-04-30T06:45:22Z</time></trkpt><trkpt lat="42.83919085911806" lon="-1.6764661572900004"><ele>429.0</ele><time>2026-04-30T06:45:23Z</time></trkpt><trkpt lat="42.83924943910882" lon="-1.676543699361794"><ele>429.0</ele><time>2026-04-30T06:45:24Z</time></trkpt><trkpt lat="42.83929649802132" lon="-1.6766370334391385"><ele>429.0</ele><time>2026-04-30T06:45:25Z</time></trkpt><trkpt lat="42.839359169979495" lon="-1.6767113218915075"><ele>429.0</ele><time>2026-04-30T06:45:26Z</time></trkpt><trkpt lat="42.839422341964635" lon="-1.6767845618178145"><ele>429.0</ele><time>2026-04-30T06:45:27Z</time></trkpt><trkpt lat="42.83948088993791" lon="-1.676861107269414"><ele>429.0</ele><time>2026-04-30T06:45:28Z</time></trkpt><trkpt lat="42.83954108935635" lon="-1.6769368056634155"><ele>429.0</ele><time>2026-04-30T06:45:29Z</time></trkpt><trkpt lat="42.839601133240876" lon="-1.677018671576737"><ele>429.0</ele><time>2026-04-30T06:45:30Z</time></trkpt><trkpt lat="42.839660724317646" lon="-1.6770993831547911"><ele>429.0</ele><time>2026-04-30T06:45:31Z</time></trkpt><trkpt lat="42.839721632484654" lon="-1.6771787123068496"><ele>429.0</ele><time>2026-04-30T06:45:32Z</time></trkpt><trkpt lat="42.839782231775665" lon="-1.6772516296317441"><ele>428.8571428571429</ele><time>2026-04-30T06:45:33Z</time></trkpt><trkpt lat="42.83983297282726" lon="-1.6773266252690218"><ele>428.7142857142857</ele><time>2026-04-30T06:45:34Z</time></trkpt><trkpt lat="42.83988298659221" lon="-1.677386367374015"><ele>428.57142857142856</ele><time>2026-04-30T06:45:35Z</time></trkpt><trkpt lat="42.83993016488665" lon="-1.6774449959616955"><ele>428.42857142857144</ele><time>2026-04-30T06:45:36Z</time></trkpt><trkpt lat="42.839987670954415" lon="-1.6774846671407282"><ele>428.2857142857143</ele><time>2026-04-30T06:45:37Z</time></trkpt><trkpt lat="42.840055463764756" lon="-1.6774974419670543"><ele>428.14285714285717</ele><time>2026-04-30T06:45:38Z</time></trkpt><trkpt lat="42.84011918219734" lon="-1.6775124496047686"><ele>428.0</ele><time>2026-04-30T06:45:39Z</time></trkpt><trkpt lat="42.840187451012355" lon="-1.6775359825559186"><ele>427.7142857142857</ele><time>2026-04-30T06:45:40Z</time></trkpt><trkpt lat="42.84025312544157" lon="-1.677566465234948"><ele>427.42857142857144</ele><time>2026-04-30T06:45:41Z</time></trkpt><trkpt lat="42.840311048976034" lon="-1.6776196395290583"><ele>427.1428571428571</ele><time>2026-04-30T06:45:42Z</time></trkpt><trkpt lat="42.840368113752916" lon="-1.677667959302971"><ele>426.8571428571429</ele><time>2026-04-30T06:45:43Z</time></trkpt><trkpt lat="42.84038579115937" lon="-1.6777720221905053"><ele>426.57142857142856</ele><time>2026-04-30T06:45:44Z</time></trkpt><trkpt lat="42.84040055439721" lon="-1.6778612017342767"><ele>426.2857142857143</ele><time>2026-04-30T06:45:45Z</time></trkpt><trkpt lat="42.840410956062364" lon="-1.677947505698955"><ele>426.0</ele><time>2026-04-30T06:45:46Z</time></trkpt><trkpt lat="42.84044950725787" lon="-1.6781078440582748"><ele>425.99999999999994</ele><time>2026-04-30T06:45:48Z</time></trkpt><trkpt lat="42.840489455161034" lon="-1.6781843712673825"><ele>426.0</ele><time>2026-04-30T06:45:49Z</time></trkpt><trkpt lat="42.84053407084912" lon="-1.6782527249533308"><ele>426.0</ele><time>2026-04-30T06:45:50Z</time></trkpt><trkpt lat="42.840581166327475" lon="-1.6783168755733275"><ele>426.0</ele><time>2026-04-30T06:45:51Z</time></trkpt><trkpt lat="42.84062785244578" lon="-1.6783787087709907"><ele>426.0</ele><time>2026-04-30T06:45:52Z</time></trkpt><trkpt lat="42.84067579623936" lon="-1.6784403097235217"><ele>425.99999999999994</ele><time>2026-04-30T06:45:53Z</time></trkpt><trkpt lat="42.840725710310565" lon="-1.6785031896130205"><ele>426.0</ele><time>2026-04-30T06:45:54Z</time></trkpt><trkpt lat="42.84077429264259" lon="-1.678569357626691"><ele>426.1666666666667</ele><time>2026-04-30T06:45:55Z</time></trkpt><trkpt lat="42.84082853133519" lon="-1.6786364032995864"><ele>426.33333333333337</ele><time>2026-04-30T06:45:56Z</time></trkpt><trkpt lat="42.84088492582822" lon="-1.6787033601845613"><ele>426.5</ele><time>2026-04-30T06:45:57Z</time></trkpt><trkpt lat="42.840939189393815" lon="-1.6787774131683677"><ele>426.6666666666667</ele><time>2026-04-30T06:45:58Z</time></trkpt><trkpt lat="42.840994339340156" lon="-1.6788536046516567"><ele>426.83333333333337</ele><time>2026-04-30T06:45:59Z</time></trkpt><trkpt lat="42.841051572196754" lon="-1.6789280880173842"><ele>427.0</ele><time>2026-04-30T06:46:00Z</time></trkpt><trkpt lat="42.84111219192262" lon="-1.6790056846865882"><ele>427.00000000000006</ele><time>2026-04-30T06:46:01Z</time></trkpt><trkpt lat="42.84117175183208" lon="-1.6790782969883586"><ele>427.0</ele><time>2026-04-30T06:46:02Z</time></trkpt><trkpt lat="42.84123276641474" lon="-1.6791536422518651"><ele>427.0</ele><time>2026-04-30T06:46:03Z</time></trkpt><trkpt lat="42.84129518537564" lon="-1.6792338727690712"><ele>427.0</ele><time>2026-04-30T06:46:04Z</time></trkpt><trkpt lat="42.841355718922834" lon="-1.6793151226602165"><ele>427.00000000000006</ele><time>2026-04-30T06:46:05Z</time></trkpt><trkpt lat="42.84141636983084" lon="-1.6793960286566927"><ele>427.0</ele><time>2026-04-30T06:46:06Z</time></trkpt><trkpt lat="42.84148040341607" lon="-1.6794769708247548"><ele>427.00000000000006</ele><time>2026-04-30T06:46:07Z</time></trkpt><trkpt lat="42.84154229067888" lon="-1.6795619765290486"><ele>427.0</ele><time>2026-04-30T06:46:08Z</time></trkpt><trkpt lat="42.8416079195774" lon="-1.6796461704821792"><ele>427.0</ele><time>2026-04-30T06:46:09Z</time></trkpt><trkpt lat="42.841674016142356" lon="-1.679730603688725"><ele>427.0</ele><time>2026-04-30T06:46:10Z</time></trkpt><trkpt lat="42.84173698584087" lon="-1.6798139735505453"><ele>427.00000000000006</ele><time>2026-04-30T06:46:11Z</time></trkpt><trkpt lat="42.8417960317237" lon="-1.6798923431101591"><ele>427.0</ele><time>2026-04-30T06:46:12Z</time></trkpt><trkpt lat="42.84185502082452" lon="-1.67997040477761"><ele>426.6666666666667</ele><time>2026-04-30T06:46:13Z</time></trkpt><trkpt lat="42.841912592338225" lon="-1.6800463827305823"><ele>426.33333333333337</ele><time>2026-04-30T06:46:14Z</time></trkpt><trkpt lat="42.84196739449927" lon="-1.680115963669939"><ele>426.0</ele><time>2026-04-30T06:46:15Z</time></trkpt><trkpt lat="42.84201677424144" lon="-1.6801856198462743"><ele>425.66666666666663</ele><time>2026-04-30T06:46:16Z</time></trkpt><trkpt lat="42.842061128305794" lon="-1.6802485271908731"><ele>425.3333333333333</ele><time>2026-04-30T06:46:17Z</time></trkpt><trkpt lat="42.842142680070474" lon="-1.6803622698583118"><ele>425.0</ele><time>2026-04-30T06:46:19Z</time></trkpt><trkpt lat="42.84223768803586" lon="-1.680479657899877"><ele>424.99999999999994</ele><time>2026-04-30T06:46:21Z</time></trkpt><trkpt lat="42.84229531378941" lon="-1.6805459581633948"><ele>425.0</ele><time>2026-04-30T06:46:22Z</time></trkpt><trkpt lat="42.84235576708953" lon="-1.6806206593976436"><ele>425.0</ele><time>2026-04-30T06:46:23Z</time></trkpt><trkpt lat="42.84241353400516" lon="-1.680705403341692"><ele>425.0</ele><time>2026-04-30T06:46:24Z</time></trkpt><trkpt lat="42.84247553438506" lon="-1.6807938170305743"><ele>424.99999999999994</ele><time>2026-04-30T06:46:25Z</time></trkpt><trkpt lat="42.84254592190002" lon="-1.680876855899384"><ele>425.0</ele><time>2026-04-30T06:46:26Z</time></trkpt><trkpt lat="42.84262007347371" lon="-1.6809579833036152"><ele>425.2</ele><time>2026-04-30T06:46:27Z</time></trkpt><trkpt lat="42.84269691598524" lon="-1.6810504382687457"><ele>425.4</ele><time>2026-04-30T06:46:28Z</time></trkpt><trkpt lat="42.842774700354695" lon="-1.6811307244711955"><ele>425.6</ele><time>2026-04-30T06:46:29Z</time></trkpt><trkpt lat="42.84284472199203" lon="-1.681217879170582"><ele>425.8</ele><time>2026-04-30T06:46:30.001Z</time></trkpt><trkpt lat="42.84291590602122" lon="-1.681306357525232"><ele>426.0</ele><time>2026-04-30T06:46:31.001Z</time></trkpt><trkpt lat="42.84298119227967" lon="-1.6813932166471182"><ele>426.20000000000005</ele><time>2026-04-30T06:46:32.001Z</time></trkpt><trkpt lat="42.84304865595829" lon="-1.681484278472936"><ele>426.40000000000003</ele><time>2026-04-30T06:46:33.001Z</time></trkpt><trkpt lat="42.843112775356765" lon="-1.681573232610902"><ele>426.6</ele><time>2026-04-30T06:46:34.001Z</time></trkpt><trkpt lat="42.8431782200995" lon="-1.6816606257605597"><ele>426.8</ele><time>2026-04-30T06:46:35.001Z</time></trkpt><trkpt lat="42.84324346898834" lon="-1.681743860988619"><ele>427.0</ele><time>2026-04-30T06:46:36.001Z</time></trkpt><trkpt lat="42.84331022792729" lon="-1.6818260899415514"><ele>427.00000000000006</ele><time>2026-04-30T06:46:37.001Z</time></trkpt><trkpt lat="42.84337719075932" lon="-1.6819125873453722"><ele>427.0</ele><time>2026-04-30T06:46:38.001Z</time></trkpt><trkpt lat="42.84344315497309" lon="-1.6819965239177697"><ele>427.0</ele><time>2026-04-30T06:46:39.001Z</time></trkpt><trkpt lat="42.84350560826539" lon="-1.6820807202823527"><ele>427.0</ele><time>2026-04-30T06:46:40Z</time></trkpt><trkpt lat="42.84356670118591" lon="-1.6821617900160635"><ele>427.00000000000006</ele><time>2026-04-30T06:46:41Z</time></trkpt><trkpt lat="42.843620120836974" lon="-1.6822303648345927"><ele>427.0</ele><time>2026-04-30T06:46:42Z</time></trkpt><trkpt lat="42.84369727406229" lon="-1.6822576230953528"><ele>426.83333333333337</ele><time>2026-04-30T06:46:44Z</time></trkpt><trkpt lat="42.84370803145418" lon="-1.6821715316908283"><ele>426.6666666666667</ele><time>2026-04-30T06:46:47Z</time></trkpt><trkpt lat="42.84365461613881" lon="-1.6820996320233705"><ele>426.5</ele><time>2026-04-30T06:46:50Z</time></trkpt><trkpt lat="42.84370384811875" lon="-1.6822122504682386"><ele>426.33333333333337</ele><time>2026-04-30T06:51:07Z</time></trkpt><trkpt lat="42.843748593568115" lon="-1.6822919440550315"><ele>426.1666666666667</ele><time>2026-04-30T06:51:10Z</time></trkpt><trkpt lat="42.84374152095649" lon="-1.682389429827504"><ele>426.0</ele><time>2026-04-30T06:51:23Z</time></trkpt><trkpt lat="42.843821259709536" lon="-1.6824809821800932"><ele>426.0</ele><time>2026-04-30T06:51:25Z</time></trkpt><trkpt lat="42.84391145955019" lon="-1.6826061699846055"><ele>426.0</ele><time>2026-04-30T06:51:27Z</time></trkpt><trkpt lat="42.843963664795524" lon="-1.682673617425027"><ele>426.0</ele><time>2026-04-30T06:51:28Z</time></trkpt><trkpt lat="42.84401604884275" lon="-1.6827443842930332"><ele>426.0</ele><time>2026-04-30T06:51:29Z</time></trkpt><trkpt lat="42.84407084286999" lon="-1.682812100889191"><ele>426.0</ele><time>2026-04-30T06:51:30Z</time></trkpt><trkpt lat="42.84412771959924" lon="-1.6828840552326978"><ele>426.0</ele><time>2026-04-30T06:51:31Z</time></trkpt><trkpt lat="42.84417682270663" lon="-1.682952456746453"><ele>426.1428571428571</ele><time>2026-04-30T06:51:32Z</time></trkpt><trkpt lat="42.84422886367168" lon="-1.6830136638489952"><ele>426.2857142857143</ele><time>2026-04-30T06:51:33Z</time></trkpt><trkpt lat="42.84428527036489" lon="-1.6830518190891264"><ele>426.42857142857144</ele><time>2026-04-30T06:51:34Z</time></trkpt><trkpt lat="42.844355560167166" lon="-1.6830621982926055"><ele>426.57142857142856</ele><time>2026-04-30T06:51:35Z</time></trkpt><trkpt lat="42.844428196545465" lon="-1.6830558871578585"><ele>426.7142857142857</ele><time>2026-04-30T06:51:36Z</time></trkpt><trkpt lat="42.84448884000494" lon="-1.6830848341082685"><ele>426.85714285714283</ele><time>2026-04-30T06:51:37Z</time></trkpt><trkpt lat="42.844552216615426" lon="-1.6831293129886158"><ele>427.0</ele><time>2026-04-30T06:51:38Z</time></trkpt><trkpt lat="42.8445964180679" lon="-1.6831936890909753"><ele>427.0</ele><time>2026-04-30T06:51:39Z</time></trkpt><trkpt lat="42.84462484841857" lon="-1.6832754996065185"><ele>427.0</ele><time>2026-04-30T06:51:40Z</time></trkpt><trkpt lat="42.8446354251398" lon="-1.6833640834284038"><ele>427.0</ele><time>2026-04-30T06:51:41Z</time></trkpt><trkpt lat="42.84463719821567" lon="-1.6834503730272585"><ele>427.0</ele><time>2026-04-30T06:51:42Z</time></trkpt><trkpt lat="42.844646746717416" lon="-1.6835368722040251"><ele>427.0</ele><time>2026-04-30T06:51:43Z</time></trkpt><trkpt lat="42.844667091576675" lon="-1.6836252170064656"><ele>427.0</ele><time>2026-04-30T06:51:44Z</time></trkpt><trkpt lat="42.84470665514104" lon="-1.6836984514146434"><ele>427.0</ele><time>2026-04-30T06:51:45Z</time></trkpt><trkpt lat="42.84475753599187" lon="-1.6837663550732438"><ele>427.0</ele><time>2026-04-30T06:51:46Z</time></trkpt><trkpt lat="42.84480722174918" lon="-1.6838280557501395"><ele>427.0</ele><time>2026-04-30T06:51:47.001Z</time></trkpt><trkpt lat="42.84485910497048" lon="-1.6838971703966799"><ele>427.0</ele><time>2026-04-30T06:51:48.001Z</time></trkpt><trkpt lat="42.844912688519635" lon="-1.6839632944309175"><ele>427.0</ele><time>2026-04-30T06:51:49.001Z</time></trkpt><trkpt lat="42.84496412264935" lon="-1.6840309394161452"><ele>427.0</ele><time>2026-04-30T06:51:50.001Z</time></trkpt><trkpt lat="42.845018259316475" lon="-1.684100923037578"><ele>427.0</ele><time>2026-04-30T06:51:51.001Z</time></trkpt><trkpt lat="42.84506949103444" lon="-1.684171147775629"><ele>427.0</ele><time>2026-04-30T06:51:52.001Z</time></trkpt><trkpt lat="42.84512388769801" lon="-1.6842435767508468"><ele>427.33333333333337</ele><time>2026-04-30T06:51:53.001Z</time></trkpt><trkpt lat="42.84517792939309" lon="-1.6843064439515125"><ele>427.6666666666667</ele><time>2026-04-30T06:51:54.001Z</time></trkpt><trkpt lat="42.84523233497802" lon="-1.6843708671940685"><ele>428.0</ele><time>2026-04-30T06:51:55.001Z</time></trkpt><trkpt lat="42.845274108018174" lon="-1.6844394868302668"><ele>428.33333333333337</ele><time>2026-04-30T06:51:56.001Z</time></trkpt><trkpt lat="42.845319097875475" lon="-1.6844995725864247"><ele>428.6666666666667</ele><time>2026-04-30T06:51:57.001Z</time></trkpt><trkpt lat="42.845430590606625" lon="-1.6845503104534585"><ele>429.0</ele><time>2026-04-30T06:51:59.001Z</time></trkpt><trkpt lat="42.845496161923165" lon="-1.684542842935469"><ele>429.2857142857143</ele><time>2026-04-30T06:52:00.001Z</time></trkpt><trkpt lat="42.84556124880597" lon="-1.6845467010916855"><ele>429.57142857142856</ele><time>2026-04-30T06:52:01.001Z</time></trkpt><trkpt lat="42.845625517057286" lon="-1.684574592395087"><ele>429.8571428571429</ele><time>2026-04-30T06:52:02.001Z</time></trkpt><trkpt lat="42.8456692364058" lon="-1.6846384876016762"><ele>430.1428571428571</ele><time>2026-04-30T06:52:03.001Z</time></trkpt><trkpt lat="42.84570833951816" lon="-1.6847218405531301"><ele>430.4285714285714</ele><time>2026-04-30T06:52:04.001Z</time></trkpt><trkpt lat="42.845739838553584" lon="-1.6848111190242034"><ele>430.7142857142857</ele><time>2026-04-30T06:52:05.001Z</time></trkpt><trkpt lat="42.84576286388829" lon="-1.6849105939647189"><ele>431.0</ele><time>2026-04-30T06:52:06.001Z</time></trkpt><trkpt lat="42.84579355932982" lon="-1.6850077465357483"><ele>430.99999999999994</ele><time>2026-04-30T06:52:07.001Z</time></trkpt><trkpt lat="42.8458349659741" lon="-1.6850971727812267"><ele>431.0</ele><time>2026-04-30T06:52:08.001Z</time></trkpt><trkpt lat="42.84589121580908" lon="-1.6851794694228055"><ele>431.0</ele><time>2026-04-30T06:52:09.001Z</time></trkpt><trkpt lat="42.8459550076423" lon="-1.6852522625809592"><ele>431.0</ele><time>2026-04-30T06:52:10.001Z</time></trkpt><trkpt lat="42.84601580496118" lon="-1.6853281890006802"><ele>430.99999999999994</ele><time>2026-04-30T06:52:11.001Z</time></trkpt><trkpt lat="42.84607471030274" lon="-1.6854074748084862"><ele>431.0</ele><time>2026-04-30T06:52:12.001Z</time></trkpt><trkpt lat="42.846134509601306" lon="-1.6854875207280833"><ele>430.8333333333333</ele><time>2026-04-30T06:52:13.001Z</time></trkpt><trkpt lat="42.846198273635416" lon="-1.6855717622031923"><ele>430.66666666666663</ele><time>2026-04-30T06:52:14.001Z</time></trkpt><trkpt lat="42.84626113862217" lon="-1.6856531413668294"><ele>430.5</ele><time>2026-04-30T06:52:15.001Z</time></trkpt><trkpt lat="42.84632776148732" lon="-1.6857359745914087"><ele>430.33333333333337</ele><time>2026-04-30T06:52:16.001Z</time></trkpt><trkpt lat="42.846388097253104" lon="-1.6858200454966437"><ele>430.1666666666667</ele><time>2026-04-30T06:52:17.001Z</time></trkpt><trkpt lat="42.84645276698305" lon="-1.6859047187277174"><ele>430.0</ele><time>2026-04-30T06:52:18.001Z</time></trkpt><trkpt lat="42.84651784819166" lon="-1.6859846281245843"><ele>430.0</ele><time>2026-04-30T06:52:19.001Z</time></trkpt><trkpt lat="42.846584164002444" lon="-1.686073055788472"><ele>430.0</ele><time>2026-04-30T06:52:20.001Z</time></trkpt><trkpt lat="42.846651201606974" lon="-1.686160106290292"><ele>430.0</ele><time>2026-04-30T06:52:21.001Z</time></trkpt><trkpt lat="42.84671519138466" lon="-1.6862467765899112"><ele>430.0</ele><time>2026-04-30T06:52:22.001Z</time></trkpt><trkpt lat="42.84678353442088" lon="-1.6863342082651223"><ele>430.0</ele><time>2026-04-30T06:52:23.001Z</time></trkpt><trkpt lat="42.84684710701652" lon="-1.686419837344575"><ele>430.6</ele><time>2026-04-30T06:52:24.001Z</time></trkpt><trkpt lat="42.84691674006166" lon="-1.6865043970495128"><ele>431.2</ele><time>2026-04-30T06:52:25.001Z</time></trkpt><trkpt lat="42.84697830574306" lon="-1.686592416073439"><ele>431.79999999999995</ele><time>2026-04-30T06:52:26.001Z</time></trkpt><trkpt lat="42.84704588790822" lon="-1.686679815947382"><ele>432.4</ele><time>2026-04-30T06:52:27.001Z</time></trkpt><trkpt lat="42.84710941453731" lon="-1.6867680290481992"><ele>433.0</ele><time>2026-04-30T06:52:28.001Z</time></trkpt><trkpt lat="42.847177736440706" lon="-1.6868568556470813"><ele>433.2</ele><time>2026-04-30T06:52:29.001Z</time></trkpt><trkpt lat="42.84724286262384" lon="-1.6869468265322094"><ele>433.4</ele><time>2026-04-30T06:52:30.001Z</time></trkpt><trkpt lat="42.84731141769649" lon="-1.6870339126330263"><ele>433.59999999999997</ele><time>2026-04-30T06:52:31.001Z</time></trkpt><trkpt lat="42.847381211279526" lon="-1.6871231212817797"><ele>433.79999999999995</ele><time>2026-04-30T06:52:32.001Z</time></trkpt><trkpt lat="42.84744778615729" lon="-1.6872133381303358"><ele>434.0</ele><time>2026-04-30T06:52:33.001Z</time></trkpt><trkpt lat="42.84751189622351" lon="-1.687303612857313"><ele>434.0</ele><time>2026-04-30T06:52:34.001Z</time></trkpt><trkpt lat="42.84757698457671" lon="-1.6873930403755264"><ele>434.0</ele><time>2026-04-30T06:52:35.001Z</time></trkpt><trkpt lat="42.84764094082952" lon="-1.6874861283039428"><ele>434.0</ele><time>2026-04-30T06:52:36.001Z</time></trkpt><trkpt lat="42.8477046455585" lon="-1.6875785998847415"><ele>434.0</ele><time>2026-04-30T06:52:37.001Z</time></trkpt><trkpt lat="42.84776610236922" lon="-1.687669739774139"><ele>434.0</ele><time>2026-04-30T06:52:38.001Z</time></trkpt><trkpt lat="42.847829678693756" lon="-1.6877582508515412"><ele>433.79999999999995</ele><time>2026-04-30T06:52:39.001Z</time></trkpt><trkpt lat="42.84790164565438" lon="-1.68784438567461"><ele>433.59999999999997</ele><time>2026-04-30T06:52:40.001Z</time></trkpt><trkpt lat="42.847964775601355" lon="-1.6879315303580391"><ele>433.4</ele><time>2026-04-30T06:52:41.001Z</time></trkpt><trkpt lat="42.84803163321902" lon="-1.688019353540726"><ele>433.2</ele><time>2026-04-30T06:52:42.001Z</time></trkpt><trkpt lat="42.84809210944898" lon="-1.688106945151402"><ele>433.0</ele><time>2026-04-30T06:52:43.001Z</time></trkpt><trkpt lat="42.84816023696726" lon="-1.6881841832083824"><ele>433.0</ele><time>2026-04-30T06:52:44.001Z</time></trkpt><trkpt lat="42.84823325557772" lon="-1.6882549274837149"><ele>432.99999999999994</ele><time>2026-04-30T06:52:45.001Z</time></trkpt><trkpt lat="42.84830167958123" lon="-1.6883358530835264"><ele>432.99999999999994</ele><time>2026-04-30T06:52:46.001Z</time></trkpt><trkpt lat="42.84839474408499" lon="-1.6883717868969152"><ele>433.0</ele><time>2026-04-30T06:52:47.001Z</time></trkpt><trkpt lat="42.848470939919615" lon="-1.688438432752115"><ele>433.0</ele><time>2026-04-30T06:52:48.001Z</time></trkpt><trkpt lat="42.8485394907678" lon="-1.6885205138564503"><ele>432.2</ele><time>2026-04-30T06:52:49.001Z</time></trkpt><trkpt lat="42.84859528446448" lon="-1.6886121163605916"><ele>431.4</ele><time>2026-04-30T06:52:50.001Z</time></trkpt><trkpt lat="42.84864387296218" lon="-1.6887184117681875"><ele>430.59999999999997</ele><time>2026-04-30T06:52:51.001Z</time></trkpt><trkpt lat="42.84868603333547" lon="-1.6888329712695416"><ele>429.79999999999995</ele><time>2026-04-30T06:52:52.001Z</time></trkpt><trkpt lat="42.84869485665659" lon="-1.688958778223231"><ele>429.0</ele><time>2026-04-30T06:52:53.001Z</time></trkpt><trkpt lat="42.84877984420645" lon="-1.6890480813801307"><ele>429.0</ele><time>2026-04-30T06:52:54.001Z</time></trkpt><trkpt lat="42.84884630623" lon="-1.689139274802923"><ele>429.0</ele><time>2026-04-30T06:52:55.001Z</time></trkpt><trkpt lat="42.84891745111844" lon="-1.6892259989678824"><ele>429.0</ele><time>2026-04-30T06:52:56.001Z</time></trkpt><trkpt lat="42.84898822090746" lon="-1.689310726375168"><ele>429.0</ele><time>2026-04-30T06:52:57.001Z</time></trkpt><trkpt lat="42.8490528204562" lon="-1.6893993593348555"><ele>429.0</ele><time>2026-04-30T06:52:57.999Z</time></trkpt><trkpt lat="42.84912039947842" lon="-1.689488860207422"><ele>428.79999999999995</ele><time>2026-04-30T06:52:58.999Z</time></trkpt><trkpt lat="42.84918962492896" lon="-1.6895807346171965"><ele>428.59999999999997</ele><time>2026-04-30T06:52:59.999Z</time></trkpt><trkpt lat="42.84925810995653" lon="-1.689674121605284"><ele>428.4</ele><time>2026-04-30T06:53:00.999Z</time></trkpt><trkpt lat="42.849327699326366" lon="-1.6897689421973556"><ele>428.2</ele><time>2026-04-30T06:53:01.999Z</time></trkpt><trkpt lat="42.84939764290844" lon="-1.689864936620899"><ele>428.0</ele><time>2026-04-30T06:53:02.999Z</time></trkpt><trkpt lat="42.84947061266022" lon="-1.6899606166087564"><ele>428.4</ele><time>2026-04-30T06:53:03.999Z</time></trkpt><trkpt lat="42.84954147199096" lon="-1.6900571484191529"><ele>428.79999999999995</ele><time>2026-04-30T06:53:04.999Z</time></trkpt><trkpt lat="42.84961281709361" lon="-1.690156266908275"><ele>429.2</ele><time>2026-04-30T06:53:05.999Z</time></trkpt><trkpt lat="42.849687150499406" lon="-1.6902548133257282"><ele>429.6</ele><time>2026-04-30T06:53:06.999Z</time></trkpt><trkpt lat="42.84976093737842" lon="-1.6903504692433182"><ele>430.0</ele><time>2026-04-30T06:53:07.999Z</time></trkpt><trkpt lat="42.849836387217884" lon="-1.6904421294161487"><ele>430.2</ele><time>2026-04-30T06:53:08.999Z</time></trkpt><trkpt lat="42.84991048206716" lon="-1.6905385680299256"><ele>430.4</ele><time>2026-04-30T06:53:09.999Z</time></trkpt><trkpt lat="42.84998299730423" lon="-1.6906329056900937"><ele>430.6</ele><time>2026-04-30T06:53:10.999Z</time></trkpt><trkpt lat="42.850056394032876" lon="-1.6907280097211925"><ele>430.8</ele><time>2026-04-30T06:53:11.999Z</time></trkpt><trkpt lat="42.850129270966335" lon="-1.6908214157235961"><ele>431.0</ele><time>2026-04-30T06:53:12.999Z</time></trkpt><trkpt lat="42.850201621447155" lon="-1.6909170341360462"><ele>432.0</ele><time>2026-04-30T06:53:13.999Z</time></trkpt><trkpt lat="42.85027347607203" lon="-1.6910139956446157"><ele>433.0</ele><time>2026-04-30T06:53:14.999Z</time></trkpt><trkpt lat="42.8503446284919" lon="-1.691108988239988"><ele>434.0</ele><time>2026-04-30T06:53:15.999Z</time></trkpt><trkpt lat="42.850415987143315" lon="-1.6912048318442294"><ele>435.0</ele><time>2026-04-30T06:53:16.999Z</time></trkpt><trkpt lat="42.85048770749277" lon="-1.6912957748086102"><ele>436.0</ele><time>2026-04-30T06:53:17.999Z</time></trkpt><trkpt lat="42.8505584051337" lon="-1.6913886350836052"><ele>436.0</ele><time>2026-04-30T06:53:18.999Z</time></trkpt><trkpt lat="42.85062924985962" lon="-1.6914827701156516"><ele>436.0</ele><time>2026-04-30T06:53:19.999Z</time></trkpt><trkpt lat="42.850698241593136" lon="-1.6915737469991885"><ele>436.0</ele><time>2026-04-30T06:53:20.999Z</time></trkpt><trkpt lat="42.85076540819681" lon="-1.6916646071302965"><ele>436.0</ele><time>2026-04-30T06:53:21.999Z</time></trkpt><trkpt lat="42.85083407441647" lon="-1.6917568127107878"><ele>436.0</ele><time>2026-04-30T06:53:22.999Z</time></trkpt><trkpt lat="42.85090161622963" lon="-1.6918474708100244"><ele>437.6</ele><time>2026-04-30T06:53:23.999Z</time></trkpt><trkpt lat="42.85096779503492" lon="-1.6919395183139303"><ele>439.20000000000005</ele><time>2026-04-30T06:53:24.999Z</time></trkpt><trkpt lat="42.851033867333754" lon="-1.6920309529683357"><ele>440.79999999999995</ele><time>2026-04-30T06:53:25.999Z</time></trkpt><trkpt lat="42.85109650941424" lon="-1.692123869353025"><ele>442.4</ele><time>2026-04-30T06:53:27Z</time></trkpt><trkpt lat="42.85115758110163" lon="-1.692218560001419"><ele>444.0</ele><time>2026-04-30T06:53:28Z</time></trkpt><trkpt lat="42.85121798354542" lon="-1.692311856592751"><ele>444.0</ele><time>2026-04-30T06:53:29Z</time></trkpt><trkpt lat="42.851276847137036" lon="-1.6924060676059138"><ele>444.0</ele><time>2026-04-30T06:53:30Z</time></trkpt><trkpt lat="42.85133239340035" lon="-1.6925012721370816"><ele>444.0</ele><time>2026-04-30T06:53:31Z</time></trkpt><trkpt lat="42.85138774231317" lon="-1.6925985803764605"><ele>444.0</ele><time>2026-04-30T06:53:32Z</time></trkpt><trkpt lat="42.85144025229438" lon="-1.6926967773958173"><ele>444.0</ele><time>2026-04-30T06:53:33Z</time></trkpt><trkpt lat="42.851492241750265" lon="-1.6927974486725967"><ele>444.4</ele><time>2026-04-30T06:53:34Z</time></trkpt><trkpt lat="42.85154393525276" lon="-1.6929000293562977"><ele>444.79999999999995</ele><time>2026-04-30T06:53:35Z</time></trkpt><trkpt lat="42.85159690465722" lon="-1.6930031973458313"><ele>445.20000000000005</ele><time>2026-04-30T06:53:36Z</time></trkpt><trkpt lat="42.85164942651935" lon="-1.6931082967205626"><ele>445.6</ele><time>2026-04-30T06:53:37Z</time></trkpt><trkpt lat="42.85170253976185" lon="-1.6932149608255662"><ele>446.0</ele><time>2026-04-30T06:53:38Z</time></trkpt><trkpt lat="42.85175719322461" lon="-1.6933229824830147"><ele>445.8</ele><time>2026-04-30T06:53:39Z</time></trkpt><trkpt lat="42.851812678989475" lon="-1.6934320000288785"><ele>445.6</ele><time>2026-04-30T06:53:40Z</time></trkpt><trkpt lat="42.85186545919037" lon="-1.6935424754393509"><ele>445.4</ele><time>2026-04-30T06:53:41Z</time></trkpt><trkpt lat="42.85191832153388" lon="-1.6936556437827384"><ele>445.2</ele><time>2026-04-30T06:53:42Z</time></trkpt><trkpt lat="42.85197432316779" lon="-1.693766357327876"><ele>445.0</ele><time>2026-04-30T06:53:43Z</time></trkpt><trkpt lat="42.85203181410665" lon="-1.6938801001502524"><ele>445.0</ele><time>2026-04-30T06:53:44Z</time></trkpt><trkpt lat="42.85209040916905" lon="-1.6939939941962552"><ele>445.0</ele><time>2026-04-30T06:53:45Z</time></trkpt><trkpt lat="42.85214508421262" lon="-1.694110448817162"><ele>445.0</ele><time>2026-04-30T06:53:46Z</time></trkpt><trkpt lat="42.852200314579804" lon="-1.6942267332418084"><ele>445.0</ele><time>2026-04-30T06:53:47Z</time></trkpt><trkpt lat="42.852257601886905" lon="-1.6943460562992871"><ele>445.0</ele><time>2026-04-30T06:53:48Z</time></trkpt><trkpt lat="42.852315661723935" lon="-1.6944625342172588"><ele>443.4</ele><time>2026-04-30T06:53:49Z</time></trkpt><trkpt lat="42.85237565256934" lon="-1.694583670365532"><ele>441.8</ele><time>2026-04-30T06:53:50Z</time></trkpt><trkpt lat="42.85243493850655" lon="-1.6947049089616246"><ele>440.20000000000005</ele><time>2026-04-30T06:53:51Z</time></trkpt><trkpt lat="42.85249304805665" lon="-1.694826177509544"><ele>438.6</ele><time>2026-04-30T06:53:52Z</time></trkpt><trkpt lat="42.85255227882882" lon="-1.694946759309495"><ele>437.0</ele><time>2026-04-30T06:53:53Z</time></trkpt><trkpt lat="42.852611712397575" lon="-1.6950692855150915"><ele>437.0</ele><time>2026-04-30T06:53:54Z</time></trkpt><trkpt lat="42.852671963030964" lon="-1.6951934006328244"><ele>437.00000000000006</ele><time>2026-04-30T06:53:55Z</time></trkpt><trkpt lat="42.85273562778764" lon="-1.6953206538737744"><ele>437.00000000000006</ele><time>2026-04-30T06:53:56Z</time></trkpt><trkpt lat="42.85279985185085" lon="-1.6954455974768512"><ele>437.0</ele><time>2026-04-30T06:53:57Z</time></trkpt><trkpt lat="42.85286331826531" lon="-1.695570272682079"><ele>437.0</ele><time>2026-04-30T06:53:58Z</time></trkpt><trkpt lat="42.85292715315921" lon="-1.6956981118131527"><ele>436.25</ele><time>2026-04-30T06:53:59Z</time></trkpt><trkpt lat="42.852990542994924" lon="-1.6958272693244143"><ele>435.5</ele><time>2026-04-30T06:54:00Z</time></trkpt><trkpt lat="42.85305471270264" lon="-1.6959566379584654"><ele>434.75</ele><time>2026-04-30T06:54:01Z</time></trkpt><trkpt lat="42.853118036828434" lon="-1.696084408317899"><ele>434.0</ele><time>2026-04-30T06:54:02Z</time></trkpt><trkpt lat="42.85318069367747" lon="-1.6962117589841559"><ele>434.0</ele><time>2026-04-30T06:54:03Z</time></trkpt><trkpt lat="42.8532455673494" lon="-1.6963407173549145"><ele>434.0</ele><time>2026-04-30T06:54:04Z</time></trkpt><trkpt lat="42.853307643442534" lon="-1.6964628182682058"><ele>434.0</ele><time>2026-04-30T06:54:05Z</time></trkpt><trkpt lat="42.85336812620713" lon="-1.6965886510092325"><ele>434.0</ele><time>2026-04-30T06:54:06Z</time></trkpt><trkpt lat="42.85342751483986" lon="-1.696713783435173"><ele>434.0</ele><time>2026-04-30T06:54:07Z</time></trkpt><trkpt lat="42.85348713013105" lon="-1.6968397252801355"><ele>434.79999999999995</ele><time>2026-04-30T06:54:08Z</time></trkpt><trkpt lat="42.853548400128766" lon="-1.6969624880558196"><ele>435.59999999999997</ele><time>2026-04-30T06:54:09Z</time></trkpt><trkpt lat="42.853610162221706" lon="-1.6970854323213382"><ele>436.4</ele><time>2026-04-30T06:54:10Z</time></trkpt><trkpt lat="42.853670481913305" lon="-1.6972078663513885"><ele>437.2</ele><time>2026-04-30T06:54:11Z</time></trkpt><trkpt lat="42.853731781623544" lon="-1.6973317646933206"><ele>438.0</ele><time>2026-04-30T06:54:12Z</time></trkpt><trkpt lat="42.853791860247775" lon="-1.6974543236051258"><ele>438.0</ele><time>2026-04-30T06:54:13Z</time></trkpt><trkpt lat="42.85385117211552" lon="-1.6975764472059154"><ele>437.99999999999994</ele><time>2026-04-30T06:54:14Z</time></trkpt><trkpt lat="42.85391133690184" lon="-1.6976945039766282"><ele>437.99999999999994</ele><time>2026-04-30T06:54:15Z</time></trkpt><trkpt lat="42.85397005990547" lon="-1.6978095690109556"><ele>438.0</ele><time>2026-04-30T06:54:16Z</time></trkpt><trkpt lat="42.85402949268733" lon="-1.6979247570835956"><ele>438.0</ele><time>2026-04-30T06:54:17Z</time></trkpt><trkpt lat="42.85408822185904" lon="-1.6980391045804435"><ele>438.2</ele><time>2026-04-30T06:54:18Z</time></trkpt><trkpt lat="42.85414568158745" lon="-1.698154479222016"><ele>438.4</ele><time>2026-04-30T06:54:19Z</time></trkpt><trkpt lat="42.85420154499606" lon="-1.6982690939779725"><ele>438.59999999999997</ele><time>2026-04-30T06:54:20Z</time></trkpt><trkpt lat="42.85425707528764" lon="-1.698381082420595"><ele>438.79999999999995</ele><time>2026-04-30T06:54:21Z</time></trkpt><trkpt lat="42.854314023074444" lon="-1.6984941044721222"><ele>439.0</ele><time>2026-04-30T06:54:22Z</time></trkpt><trkpt lat="42.85437133295911" lon="-1.698609654348972"><ele>439.4</ele><time>2026-04-30T06:54:23Z</time></trkpt><trkpt lat="42.854425767838336" lon="-1.6987215354209935"><ele>439.79999999999995</ele><time>2026-04-30T06:54:24Z</time></trkpt><trkpt lat="42.85447968361324" lon="-1.6988327287165659"><ele>440.20000000000005</ele><time>2026-04-30T06:54:25Z</time></trkpt><trkpt lat="42.854535265988076" lon="-1.6989405870898633"><ele>440.6</ele><time>2026-04-30T06:54:26Z</time></trkpt><trkpt lat="42.85459035325263" lon="-1.6990497360279184"><ele>441.0</ele><time>2026-04-30T06:54:27Z</time></trkpt><trkpt lat="42.85464447941267" lon="-1.6991582231718259"><ele>441.0</ele><time>2026-04-30T06:54:28Z</time></trkpt><trkpt lat="42.85469764518869" lon="-1.6992666691571827"><ele>441.0</ele><time>2026-04-30T06:54:29.001Z</time></trkpt><trkpt lat="42.8547511222836" lon="-1.6993756038545513"><ele>441.0</ele><time>2026-04-30T06:54:30.001Z</time></trkpt><trkpt lat="42.854802591764134" lon="-1.699482908886027"><ele>441.0</ele><time>2026-04-30T06:54:31.001Z</time></trkpt><trkpt lat="42.854854358680356" lon="-1.6995904787137723"><ele>441.0</ele><time>2026-04-30T06:54:32.001Z</time></trkpt><trkpt lat="42.85490701201545" lon="-1.6996979537876842"><ele>441.4</ele><time>2026-04-30T06:54:33.001Z</time></trkpt><trkpt lat="42.854958891086035" lon="-1.699805982522742"><ele>441.8</ele><time>2026-04-30T06:54:34.001Z</time></trkpt><trkpt lat="42.855011946762126" lon="-1.699912331787116"><ele>442.19999999999993</ele><time>2026-04-30T06:54:35.001Z</time></trkpt><trkpt lat="42.85506592572173" lon="-1.7000190154220762"><ele>442.59999999999997</ele><time>2026-04-30T06:54:36.001Z</time></trkpt><trkpt lat="42.85511996562337" lon="-1.7001259859841433"><ele>443.0</ele><time>2026-04-30T06:54:37.001Z</time></trkpt><trkpt lat="42.8551724513167" lon="-1.7002322610683316"><ele>444.2</ele><time>2026-04-30T06:54:38.001Z</time></trkpt><trkpt lat="42.855221573372134" lon="-1.7003381415909455"><ele>445.4</ele><time>2026-04-30T06:54:39.001Z</time></trkpt><trkpt lat="42.855273399986245" lon="-1.7004431678619558"><ele>446.59999999999997</ele><time>2026-04-30T06:54:40.001Z</time></trkpt><trkpt lat="42.85532696935319" lon="-1.700549236709977"><ele>447.79999999999995</ele><time>2026-04-30T06:54:41.001Z</time></trkpt><trkpt lat="42.85538120298793" lon="-1.7006538208762216"><ele>449.0</ele><time>2026-04-30T06:54:42.001Z</time></trkpt><trkpt lat="42.855434941266594" lon="-1.7007605095350138"><ele>449.0</ele><time>2026-04-30T06:54:43.001Z</time></trkpt><trkpt lat="42.85549080111494" lon="-1.700869785609004"><ele>449.0</ele><time>2026-04-30T06:54:44.001Z</time></trkpt><trkpt lat="42.85554103089554" lon="-1.7009788200262728"><ele>449.0</ele><time>2026-04-30T06:54:45.001Z</time></trkpt><trkpt lat="42.85559572941133" lon="-1.7010895953668488"><ele>449.0</ele><time>2026-04-30T06:54:46.001Z</time></trkpt><trkpt lat="42.855650763132616" lon="-1.701202925737192"><ele>449.0</ele><time>2026-04-30T06:54:47.001Z</time></trkpt><trkpt lat="42.85570629768361" lon="-1.7013157772771208"><ele>449.2</ele><time>2026-04-30T06:54:48.001Z</time></trkpt><trkpt lat="42.85576517173983" lon="-1.7014277599674261"><ele>449.4</ele><time>2026-04-30T06:54:49.001Z</time></trkpt><trkpt lat="42.85582474363747" lon="-1.7015420802714685"><ele>449.6</ele><time>2026-04-30T06:54:50.001Z</time></trkpt><trkpt lat="42.855884607534136" lon="-1.701659992642916"><ele>449.8</ele><time>2026-04-30T06:54:51.001Z</time></trkpt><trkpt lat="42.855943896920046" lon="-1.7017797524447882"><ele>450.0</ele><time>2026-04-30T06:54:52.001Z</time></trkpt><trkpt lat="42.85600427981764" lon="-1.7018994104577272"><ele>449.6</ele><time>2026-04-30T06:54:53.001Z</time></trkpt><trkpt lat="42.856063192855856" lon="-1.7020205346804913"><ele>449.2</ele><time>2026-04-30T06:54:54.001Z</time></trkpt><trkpt lat="42.856125946431455" lon="-1.7021402403255212"><ele>448.79999999999995</ele><time>2026-04-30T06:54:55.001Z</time></trkpt><trkpt lat="42.85618589411386" lon="-1.7022628168398577"><ele>448.4</ele><time>2026-04-30T06:54:56.001Z</time></trkpt><trkpt lat="42.856245497200874" lon="-1.7023836643893004"><ele>448.0</ele><time>2026-04-30T06:54:57.001Z</time></trkpt><trkpt lat="42.85630306561891" lon="-1.7025024069363253"><ele>448.0</ele><time>2026-04-30T06:54:58.001Z</time></trkpt><trkpt lat="42.856364299693126" lon="-1.702618749108279"><ele>447.99999999999994</ele><time>2026-04-30T06:54:59.001Z</time></trkpt><trkpt lat="42.85642254634687" lon="-1.7027362586404422"><ele>447.99999999999994</ele><time>2026-04-30T06:55:00.001Z</time></trkpt><trkpt lat="42.85648223758286" lon="-1.7028534793640855"><ele>448.0</ele><time>2026-04-30T06:55:01.001Z</time></trkpt><trkpt lat="42.856540158693925" lon="-1.7029685079042185"><ele>448.0</ele><time>2026-04-30T06:55:02.001Z</time></trkpt><trkpt lat="42.85659722021471" lon="-1.7030818048910499"><ele>448.0</ele><time>2026-04-30T06:55:03.001Z</time></trkpt><trkpt lat="42.85665370412531" lon="-1.7031975899762997"><ele>447.99999999999994</ele><time>2026-04-30T06:55:04Z</time></trkpt><trkpt lat="42.856708169809394" lon="-1.7033120106005657"><ele>447.99999999999994</ele><time>2026-04-30T06:55:05Z</time></trkpt><trkpt lat="42.856764911746424" lon="-1.7034262707605998"><ele>448.0</ele><time>2026-04-30T06:55:06Z</time></trkpt><trkpt lat="42.856823203322044" lon="-1.7035416037358022"><ele>448.0</ele><time>2026-04-30T06:55:07Z</time></trkpt><trkpt lat="42.85688180380523" lon="-1.703657526886855"><ele>447.59999999999997</ele><time>2026-04-30T06:55:08Z</time></trkpt><trkpt lat="42.856940232779046" lon="-1.7037752467641036"><ele>447.19999999999993</ele><time>2026-04-30T06:55:09Z</time></trkpt><trkpt lat="42.856999341230654" lon="-1.7038942274683662"><ele>446.8</ele><time>2026-04-30T06:55:10Z</time></trkpt><trkpt lat="42.85705793495859" lon="-1.704014452444681"><ele>446.4</ele><time>2026-04-30T06:55:11Z</time></trkpt><trkpt lat="42.85711843519488" lon="-1.7041328045029713"><ele>446.0</ele><time>2026-04-30T06:55:12Z</time></trkpt><trkpt lat="42.85717872930794" lon="-1.7042547157700734"><ele>446.0</ele><time>2026-04-30T06:55:13Z</time></trkpt><trkpt lat="42.857238198300045" lon="-1.7043761104575947"><ele>446.0</ele><time>2026-04-30T06:55:14Z</time></trkpt><trkpt lat="42.857297604645886" lon="-1.7044977729333046"><ele>446.0</ele><time>2026-04-30T06:55:15Z</time></trkpt><trkpt lat="42.85735891661628" lon="-1.7046199872414145"><ele>446.0</ele><time>2026-04-30T06:55:16Z</time></trkpt><trkpt lat="42.85741998503588" lon="-1.7047443368210027"><ele>446.0</ele><time>2026-04-30T06:55:17Z</time></trkpt><trkpt lat="42.85748265767055" lon="-1.7048674216213422"><ele>445.0</ele><time>2026-04-30T06:55:18Z</time></trkpt><trkpt lat="42.857544264244105" lon="-1.7049940713202054"><ele>444.0</ele><time>2026-04-30T06:55:19Z</time></trkpt><trkpt lat="42.85760643474992" lon="-1.70512091890124"><ele>443.0</ele><time>2026-04-30T06:55:20Z</time></trkpt><trkpt lat="42.85767050336206" lon="-1.7052500743563952"><ele>442.0</ele><time>2026-04-30T06:55:21Z</time></trkpt><trkpt lat="42.85773568979797" lon="-1.7053795863937813"><ele>441.0</ele><time>2026-04-30T06:55:22Z</time></trkpt><trkpt lat="42.85780043295962" lon="-1.7055111047963905"><ele>440.0</ele><time>2026-04-30T06:55:23Z</time></trkpt><trkpt lat="42.857869503682615" lon="-1.7056405100066436"><ele>439.0</ele><time>2026-04-30T06:55:24Z</time></trkpt><trkpt lat="42.85793452046437" lon="-1.7057720974315085"><ele>438.0</ele><time>2026-04-30T06:55:25Z</time></trkpt><trkpt lat="42.85800055032572" lon="-1.7059018893318085"><ele>438.0</ele><time>2026-04-30T06:55:26Z</time></trkpt><trkpt lat="42.858064160450354" lon="-1.7060343322941582"><ele>438.0</ele><time>2026-04-30T06:55:27Z</time></trkpt><trkpt lat="42.85812978615209" lon="-1.7061631624684133"><ele>438.0</ele><time>2026-04-30T06:55:28Z</time></trkpt><trkpt lat="42.85819274578246" lon="-1.7062911333746398"><ele>438.0</ele><time>2026-04-30T06:55:29Z</time></trkpt><trkpt lat="42.85825302569512" lon="-1.706427438680452"><ele>438.0</ele><time>2026-04-30T06:55:30Z</time></trkpt><trkpt lat="42.85831818865484" lon="-1.7065576616918643"><ele>438.0</ele><time>2026-04-30T06:55:31Z</time></trkpt><trkpt lat="42.858380335982865" lon="-1.706687702229077"><ele>438.0</ele><time>2026-04-30T06:55:32Z</time></trkpt><trkpt lat="42.85844279923229" lon="-1.7068133857142538"><ele>438.0</ele><time>2026-04-30T06:55:33Z</time></trkpt><trkpt lat="42.85850491715372" lon="-1.706938995770146"><ele>438.2</ele><time>2026-04-30T06:55:34Z</time></trkpt><trkpt lat="42.85856725104824" lon="-1.7070626394660404"><ele>438.4</ele><time>2026-04-30T06:55:35Z</time></trkpt><trkpt lat="42.858630289496844" lon="-1.707185769314756"><ele>438.59999999999997</ele><time>2026-04-30T06:55:36Z</time></trkpt><trkpt lat="42.85868885399455" lon="-1.7073080784995924"><ele>438.79999999999995</ele><time>2026-04-30T06:55:37Z</time></trkpt><trkpt lat="42.858749753163664" lon="-1.707429835968313"><ele>439.0</ele><time>2026-04-30T06:55:38Z</time></trkpt><trkpt lat="42.85880823507624" lon="-1.7075490386089442"><ele>439.0</ele><time>2026-04-30T06:55:39Z</time></trkpt><trkpt lat="42.858867805907316" lon="-1.707668008421805"><ele>439.0</ele><time>2026-04-30T06:55:40Z</time></trkpt><trkpt lat="42.85892595676672" lon="-1.7077867200360681"><ele>439.0</ele><time>2026-04-30T06:55:41Z</time></trkpt><trkpt lat="42.85898289307851" lon="-1.7079041071899985"><ele>439.0</ele><time>2026-04-30T06:55:42Z</time></trkpt><trkpt lat="42.85903867792902" lon="-1.7080196711847155"><ele>439.0</ele><time>2026-04-30T06:55:43Z</time></trkpt><trkpt lat="42.85909356573208" lon="-1.7081349167111928"><ele>439.4</ele><time>2026-04-30T06:55:44Z</time></trkpt><trkpt lat="42.85914891823223" lon="-1.7082510901307741"><ele>439.79999999999995</ele><time>2026-04-30T06:55:45Z</time></trkpt><trkpt lat="42.859203326706705" lon="-1.7083652588772278"><ele>440.20000000000005</ele><time>2026-04-30T06:55:46Z</time></trkpt><trkpt lat="42.859257745137946" lon="-1.7084769398046935"><ele>440.6</ele><time>2026-04-30T06:55:47Z</time></trkpt><trkpt lat="42.859313596534896" lon="-1.7085902407449791"><ele>441.0</ele><time>2026-04-30T06:55:48Z</time></trkpt><trkpt lat="42.859369474133764" lon="-1.7087033336795292"><ele>442.20000000000005</ele><time>2026-04-30T06:55:49Z</time></trkpt><trkpt lat="42.85942517128" lon="-1.7088154485003253"><ele>443.40000000000003</ele><time>2026-04-30T06:55:50Z</time></trkpt><trkpt lat="42.85947974151311" lon="-1.7089284872528112"><ele>444.6</ele><time>2026-04-30T06:55:51Z</time></trkpt><trkpt lat="42.85953567030547" lon="-1.7090390476965198"><ele>445.8</ele><time>2026-04-30T06:55:52Z</time></trkpt><trkpt lat="42.85959095468162" lon="-1.7091495338780474"><ele>447.0</ele><time>2026-04-30T06:55:53Z</time></trkpt><trkpt lat="42.8596486113438" lon="-1.7092612625753987"><ele>447.0</ele><time>2026-04-30T06:55:54Z</time></trkpt><trkpt lat="42.859704707280386" lon="-1.7093721319147903"><ele>447.00000000000006</ele><time>2026-04-30T06:55:55Z</time></trkpt><trkpt lat="42.85976072563321" lon="-1.7094835976541463"><ele>447.00000000000006</ele><time>2026-04-30T06:55:56Z</time></trkpt><trkpt lat="42.85981543612117" lon="-1.7095932210869302"><ele>447.0</ele><time>2026-04-30T06:55:57Z</time></trkpt><trkpt lat="42.859871721087075" lon="-1.7097041285498915"><ele>447.0</ele><time>2026-04-30T06:55:58Z</time></trkpt><trkpt lat="42.85992708630035" lon="-1.7098143907026593"><ele>446.6</ele><time>2026-04-30T06:55:59Z</time></trkpt><trkpt lat="42.859982139249354" lon="-1.709924150603204"><ele>446.20000000000005</ele><time>2026-04-30T06:56:00Z</time></trkpt><trkpt lat="42.860033952285434" lon="-1.710032027871805"><ele>445.8</ele><time>2026-04-30T06:56:01.001Z</time></trkpt><trkpt lat="42.8600887148606" lon="-1.7101414972153999"><ele>445.4</ele><time>2026-04-30T06:56:02.001Z</time></trkpt><trkpt lat="42.860141196121646" lon="-1.71025114001354"><ele>445.0</ele><time>2026-04-30T06:56:03.001Z</time></trkpt><trkpt lat="42.86019568967752" lon="-1.710358947450067"><ele>447.6</ele><time>2026-04-30T06:56:04.001Z</time></trkpt><trkpt lat="42.86024683976137" lon="-1.7104652776111664"><ele>450.2</ele><time>2026-04-30T06:56:05.001Z</time></trkpt><trkpt lat="42.86030095328895" lon="-1.7105722378095989"><ele>452.79999999999995</ele><time>2026-04-30T06:56:06.001Z</time></trkpt><trkpt lat="42.86035606546274" lon="-1.7106796812258644"><ele>455.4</ele><time>2026-04-30T06:56:07.001Z</time></trkpt><trkpt lat="42.86041064673761" lon="-1.7107879826573857"><ele>458.0</ele><time>2026-04-30T06:56:08.001Z</time></trkpt><trkpt lat="42.860461468901306" lon="-1.710892871199901"><ele>458.0</ele><time>2026-04-30T06:56:09.001Z</time></trkpt><trkpt lat="42.860513335428706" lon="-1.7109972580462602"><ele>457.99999999999994</ele><time>2026-04-30T06:56:10.001Z</time></trkpt><trkpt lat="42.86056606820504" lon="-1.7111028087863225"><ele>457.99999999999994</ele><time>2026-04-30T06:56:11.001Z</time></trkpt><trkpt lat="42.86061880965312" lon="-1.711206706134928"><ele>458.0</ele><time>2026-04-30T06:56:12.001Z</time></trkpt><trkpt lat="42.86067216144177" lon="-1.7113094403840736"><ele>458.0</ele><time>2026-04-30T06:56:13.001Z</time></trkpt><trkpt lat="42.86072563786522" lon="-1.7114127632564324"><ele>457.2</ele><time>2026-04-30T06:56:14.001Z</time></trkpt><trkpt lat="42.86077677186021" lon="-1.7115145707271768"><ele>456.4</ele><time>2026-04-30T06:56:15.001Z</time></trkpt><trkpt lat="42.8608278920359" lon="-1.711615584608084"><ele>455.59999999999997</ele><time>2026-04-30T06:56:16.001Z</time></trkpt><trkpt lat="42.86087968049153" lon="-1.7117164368590858"><ele>454.79999999999995</ele><time>2026-04-30T06:56:17.001Z</time></trkpt><trkpt lat="42.8609308139943" lon="-1.7118173189356969"><ele>454.0</ele><time>2026-04-30T06:56:18.001Z</time></trkpt><trkpt lat="42.86098049307314" lon="-1.711918182319544"><ele>457.0</ele><time>2026-04-30T06:56:19.001Z</time></trkpt><trkpt lat="42.86103222476226" lon="-1.7120191822797486"><ele>460.0</ele><time>2026-04-30T06:56:20.001Z</time></trkpt><trkpt lat="42.86108086300735" lon="-1.7121223301110162"><ele>463.0</ele><time>2026-04-30T06:56:21.001Z</time></trkpt><trkpt lat="42.86113068938552" lon="-1.7122267938261089"><ele>466.0</ele><time>2026-04-30T06:56:22.001Z</time></trkpt><trkpt lat="42.861181896349464" lon="-1.712331866358587"><ele>469.0</ele><time>2026-04-30T06:56:23.001Z</time></trkpt><trkpt lat="42.861234533109894" lon="-1.7124374740074852"><ele>469.0</ele><time>2026-04-30T06:56:24.001Z</time></trkpt><trkpt lat="42.86129410390226" lon="-1.712546369208233"><ele>469.0</ele><time>2026-04-30T06:56:25.001Z</time></trkpt><trkpt lat="42.86135048215848" lon="-1.7126558821445153"><ele>469.0</ele><time>2026-04-30T06:56:26.001Z</time></trkpt><trkpt lat="42.86139925183531" lon="-1.7127648522163064"><ele>469.0</ele><time>2026-04-30T06:56:27.001Z</time></trkpt><trkpt lat="42.8614516037109" lon="-1.7128734348101915"><ele>469.0</ele><time>2026-04-30T06:56:28.001Z</time></trkpt><trkpt lat="42.86150686049302" lon="-1.712982347598387"><ele>468.6</ele><time>2026-04-30T06:56:29.001Z</time></trkpt><trkpt lat="42.86156341368811" lon="-1.7130955076698313"><ele>468.2</ele><time>2026-04-30T06:56:30.001Z</time></trkpt><trkpt lat="42.86161991358789" lon="-1.7132088499649416"><ele>467.80000000000007</ele><time>2026-04-30T06:56:31.001Z</time></trkpt><trkpt lat="42.86167565073927" lon="-1.7133224730082965"><ele>467.40000000000003</ele><time>2026-04-30T06:56:32.001Z</time></trkpt><trkpt lat="42.86173517460774" lon="-1.7134392218232752"><ele>467.0</ele><time>2026-04-30T06:56:33.001Z</time></trkpt><trkpt lat="42.86179409713013" lon="-1.7135575773302902"><ele>464.40000000000003</ele><time>2026-04-30T06:56:34.001Z</time></trkpt><trkpt lat="42.861851592212076" lon="-1.7136758421205547"><ele>461.80000000000007</ele><time>2026-04-30T06:56:35.001Z</time></trkpt><trkpt lat="42.861911170305085" lon="-1.7137956197350437"><ele>459.2</ele><time>2026-04-30T06:56:36.001Z</time></trkpt><trkpt lat="42.86197377823134" lon="-1.7139161776377845"><ele>456.6</ele><time>2026-04-30T06:56:37.001Z</time></trkpt><trkpt lat="42.862036237483956" lon="-1.714039226903879"><ele>454.0</ele><time>2026-04-30T06:56:38.001Z</time></trkpt><trkpt lat="42.86209736596917" lon="-1.714163947676572"><ele>454.0</ele><time>2026-04-30T06:56:39.001Z</time></trkpt><trkpt lat="42.86215683929774" lon="-1.714286671893679"><ele>454.0</ele><time>2026-04-30T06:56:40.001Z</time></trkpt><trkpt lat="42.8622143977853" lon="-1.7144093314068316"><ele>454.0</ele><time>2026-04-30T06:56:41.001Z</time></trkpt><trkpt lat="42.862273947218846" lon="-1.7145331768011032"><ele>454.0</ele><time>2026-04-30T06:56:42.001Z</time></trkpt><trkpt lat="42.862336015859796" lon="-1.714660017013183"><ele>454.0</ele><time>2026-04-30T06:56:43.001Z</time></trkpt><trkpt lat="42.8623997076132" lon="-1.7147869584969202"><ele>453.6</ele><time>2026-04-30T06:56:44.001Z</time></trkpt><trkpt lat="42.86246197943117" lon="-1.7149147983095028"><ele>453.2</ele><time>2026-04-30T06:56:45.001Z</time></trkpt><trkpt lat="42.86252405900404" lon="-1.7150398618661349"><ele>452.80000000000007</ele><time>2026-04-30T06:56:46.001Z</time></trkpt><trkpt lat="42.862587872229035" lon="-1.7151658545191748"><ele>452.40000000000003</ele><time>2026-04-30T06:56:47.001Z</time></trkpt><trkpt lat="42.86265001620378" lon="-1.7152907898470469"><ele>452.0</ele><time>2026-04-30T06:56:48.001Z</time></trkpt><trkpt lat="42.86271093138585" lon="-1.7154154614080612"><ele>451.8</ele><time>2026-04-30T06:56:49.001Z</time></trkpt><trkpt lat="42.86277216615404" lon="-1.7155393903463496"><ele>451.6</ele><time>2026-04-30T06:56:50.001Z</time></trkpt><trkpt lat="42.86283209623862" lon="-1.71566684918287"><ele>451.40000000000003</ele><time>2026-04-30T06:56:51.001Z</time></trkpt><trkpt lat="42.862890117264676" lon="-1.7157927278182838"><ele>451.20000000000005</ele><time>2026-04-30T06:56:52.001Z</time></trkpt><trkpt lat="42.86294817694814" lon="-1.7159152461973837"><ele>451.0</ele><time>2026-04-30T06:56:53.001Z</time></trkpt><trkpt lat="42.86300884120145" lon="-1.7160421359265308"><ele>450.8</ele><time>2026-04-30T06:56:54.001Z</time></trkpt><trkpt lat="42.863071920645325" lon="-1.7161679173467832"><ele>450.6</ele><time>2026-04-30T06:56:55.001Z</time></trkpt><trkpt lat="42.8631329917554" lon="-1.7162920455372463"><ele>450.4</ele><time>2026-04-30T06:56:56.001Z</time></trkpt><trkpt lat="42.86319356142615" lon="-1.7164167242893134"><ele>450.2</ele><time>2026-04-30T06:56:57.001Z</time></trkpt><trkpt lat="42.86325429180174" lon="-1.7165392944931699"><ele>450.0</ele><time>2026-04-30T06:56:58.001Z</time></trkpt><trkpt lat="42.86331371570754" lon="-1.7166610183472475"><ele>450.0</ele><time>2026-04-30T06:56:59.001Z</time></trkpt><trkpt lat="42.863375388949024" lon="-1.7167834209681656"><ele>450.0</ele><time>2026-04-30T06:57:00.001Z</time></trkpt><trkpt lat="42.86343738546035" lon="-1.7169058876513343"><ele>450.0</ele><time>2026-04-30T06:57:01.001Z</time></trkpt><trkpt lat="42.86349948227139" lon="-1.7170279951274112"><ele>450.0</ele><time>2026-04-30T06:57:02.001Z</time></trkpt><trkpt lat="42.86355952829641" lon="-1.7171496224091312"><ele>450.0</ele><time>2026-04-30T06:57:03.001Z</time></trkpt><trkpt lat="42.86362024463916" lon="-1.7172696840745205"><ele>450.0</ele><time>2026-04-30T06:57:04.001Z</time></trkpt><trkpt lat="42.86368139150342" lon="-1.717389809799221"><ele>450.0</ele><time>2026-04-30T06:57:05.001Z</time></trkpt><trkpt lat="42.863743277945034" lon="-1.7175104135297592"><ele>450.0</ele><time>2026-04-30T06:57:06.001Z</time></trkpt><trkpt lat="42.86380246167111" lon="-1.717630662420833"><ele>450.0</ele><time>2026-04-30T06:57:07.001Z</time></trkpt><trkpt lat="42.86386329411337" lon="-1.7177523583036902"><ele>450.0</ele><time>2026-04-30T06:57:08.001Z</time></trkpt><trkpt lat="42.863921751562934" lon="-1.7178742926966453"><ele>450.2</ele><time>2026-04-30T06:57:09.001Z</time></trkpt><trkpt lat="42.863981636878506" lon="-1.7179967178446076"><ele>450.4</ele><time>2026-04-30T06:57:10.001Z</time></trkpt><trkpt lat="42.86404122099959" lon="-1.7181186719223922"><ele>450.6</ele><time>2026-04-30T06:57:11.001Z</time></trkpt><trkpt lat="42.86410039383153" lon="-1.7182396810759586"><ele>450.8</ele><time>2026-04-30T06:57:12.001Z</time></trkpt><trkpt lat="42.86415909213245" lon="-1.7183631605971719"><ele>451.0</ele><time>2026-04-30T06:57:13.001Z</time></trkpt><trkpt lat="42.86421894174395" lon="-1.718485740661464"><ele>451.20000000000005</ele><time>2026-04-30T06:57:14.001Z</time></trkpt><trkpt lat="42.8642770899368" lon="-1.7186083514035533"><ele>451.40000000000003</ele><time>2026-04-30T06:57:15.001Z</time></trkpt><trkpt lat="42.86433630985046" lon="-1.7187302267168116"><ele>451.6</ele><time>2026-04-30T06:57:16.001Z</time></trkpt><trkpt lat="42.86439987677659" lon="-1.718850763423837"><ele>451.8</ele><time>2026-04-30T06:57:17.001Z</time></trkpt><trkpt lat="42.86446084622801" lon="-1.7189709749728683"><ele>452.0</ele><time>2026-04-30T06:57:18.001Z</time></trkpt><trkpt lat="42.864522459251944" lon="-1.7190923906807123"><ele>452.0</ele><time>2026-04-30T06:57:19.001Z</time></trkpt><trkpt lat="42.864583489392956" lon="-1.7192119606548517"><ele>452.00000000000006</ele><time>2026-04-30T06:57:20.001Z</time></trkpt><trkpt lat="42.86464245476263" lon="-1.7193307653921934"><ele>452.00000000000006</ele><time>2026-04-30T06:57:21.001Z</time></trkpt><trkpt lat="42.864702684024046" lon="-1.7194499161098205"><ele>452.0</ele><time>2026-04-30T06:57:22.001Z</time></trkpt><trkpt lat="42.86475907909184" lon="-1.7195697652972826"><ele>452.0</ele><time>2026-04-30T06:57:23.001Z</time></trkpt><trkpt lat="42.864818815949974" lon="-1.719687856480556"><ele>452.0</ele><time>2026-04-30T06:57:24.001Z</time></trkpt><trkpt lat="42.864873872334954" lon="-1.71980824967352"><ele>452.00000000000006</ele><time>2026-04-30T06:57:25.001Z</time></trkpt><trkpt lat="42.86492964609152" lon="-1.7199305822106583"><ele>452.00000000000006</ele><time>2026-04-30T06:57:26.001Z</time></trkpt><trkpt lat="42.86498682581982" lon="-1.7200493899783666"><ele>452.0</ele><time>2026-04-30T06:57:27.001Z</time></trkpt><trkpt lat="42.86504468935606" lon="-1.7201662772069812"><ele>452.0</ele><time>2026-04-30T06:57:28.001Z</time></trkpt><trkpt lat="42.865105448335235" lon="-1.720284878112857"><ele>452.6</ele><time>2026-04-30T06:57:29.001Z</time></trkpt><trkpt lat="42.86516346322308" lon="-1.7204020641426112"><ele>453.20000000000005</ele><time>2026-04-30T06:57:30.001Z</time></trkpt><trkpt lat="42.86522372387982" lon="-1.7205179195802112"><ele>453.8</ele><time>2026-04-30T06:57:31.001Z</time></trkpt><trkpt lat="42.86528606985485" lon="-1.7206324051795656"><ele>454.4</ele><time>2026-04-30T06:57:32.001Z</time></trkpt><trkpt lat="42.86534808586508" lon="-1.7207477312206219"><ele>455.0</ele><time>2026-04-30T06:57:33.001Z</time></trkpt><trkpt lat="42.865404060800486" lon="-1.7208607533992324"><ele>455.0</ele><time>2026-04-30T06:57:34.001Z</time></trkpt><trkpt lat="42.865463355799285" lon="-1.7209758553946406"><ele>455.0</ele><time>2026-04-30T06:57:35.001Z</time></trkpt><trkpt lat="42.86551593874487" lon="-1.7210899460191074"><ele>455.0</ele><time>2026-04-30T06:57:36.001Z</time></trkpt><trkpt lat="42.86557381274308" lon="-1.7212017733564406"><ele>455.0</ele><time>2026-04-30T06:57:37.001Z</time></trkpt><trkpt lat="42.865632781802155" lon="-1.7213136226626478"><ele>455.0</ele><time>2026-04-30T06:57:38.001Z</time></trkpt><trkpt lat="42.86569147934308" lon="-1.7214281205013522"><ele>454.6</ele><time>2026-04-30T06:57:39.001Z</time></trkpt><trkpt lat="42.86574586515942" lon="-1.7215411386320634"><ele>454.2</ele><time>2026-04-30T06:57:40.001Z</time></trkpt><trkpt lat="42.865801442838325" lon="-1.7216551548135626"><ele>453.79999999999995</ele><time>2026-04-30T06:57:41.001Z</time></trkpt><trkpt lat="42.86585352964379" lon="-1.721768404486301"><ele>453.4</ele><time>2026-04-30T06:57:42.001Z</time></trkpt><trkpt lat="42.865908249494915" lon="-1.7218800715555798"><ele>453.0</ele><time>2026-04-30T06:57:43.001Z</time></trkpt><trkpt lat="42.86596180072847" lon="-1.7219934883945835"><ele>453.79999999999995</ele><time>2026-04-30T06:57:44.001Z</time></trkpt><trkpt lat="42.86601359181457" lon="-1.7221112426855048"><ele>454.59999999999997</ele><time>2026-04-30T06:57:45.001Z</time></trkpt><trkpt lat="42.86606946304997" lon="-1.7222235526109528"><ele>455.40000000000003</ele><time>2026-04-30T06:57:46.001Z</time></trkpt><trkpt lat="42.86612479978909" lon="-1.722336145165731"><ele>456.20000000000005</ele><time>2026-04-30T06:57:47.001Z</time></trkpt><trkpt lat="42.866180937313544" lon="-1.722447706933844"><ele>457.0</ele><time>2026-04-30T06:57:48.001Z</time></trkpt><trkpt lat="42.866235248161225" lon="-1.722558370926671"><ele>457.0</ele><time>2026-04-30T06:57:49.001Z</time></trkpt><trkpt lat="42.86629091263296" lon="-1.7226674209546409"><ele>457.00000000000006</ele><time>2026-04-30T06:57:50.001Z</time></trkpt><trkpt lat="42.866344416097505" lon="-1.7227783265604306"><ele>457.00000000000006</ele><time>2026-04-30T06:57:51.001Z</time></trkpt><trkpt lat="42.86640137486572" lon="-1.7228863645534052"><ele>457.0</ele><time>2026-04-30T06:57:52.001Z</time></trkpt><trkpt lat="42.866455764724506" lon="-1.7229947279356084"><ele>457.0</ele><time>2026-04-30T06:57:53.001Z</time></trkpt><trkpt lat="42.86650928398832" lon="-1.723105491432319"><ele>457.6</ele><time>2026-04-30T06:57:54.001Z</time></trkpt><trkpt lat="42.86656097269131" lon="-1.7232149454221102"><ele>458.20000000000005</ele><time>2026-04-30T06:57:55.001Z</time></trkpt><trkpt lat="42.866613313406276" lon="-1.7233214586987602"><ele>458.8</ele><time>2026-04-30T06:57:56.001Z</time></trkpt><trkpt lat="42.86666576624737" lon="-1.723427749177946"><ele>459.4</ele><time>2026-04-30T06:57:57.001Z</time></trkpt><trkpt lat="42.86671616955667" lon="-1.7235336840921682"><ele>460.0</ele><time>2026-04-30T06:57:58.001Z</time></trkpt><trkpt lat="42.86676909628158" lon="-1.7236385133695848"><ele>461.0</ele><time>2026-04-30T06:57:59.001Z</time></trkpt><trkpt lat="42.86682852453117" lon="-1.72374457897896"><ele>462.0</ele><time>2026-04-30T06:58:00.001Z</time></trkpt><trkpt lat="42.866884235804186" lon="-1.7238500227724909"><ele>463.0</ele><time>2026-04-30T06:58:01.001Z</time></trkpt><trkpt lat="42.86693702707204" lon="-1.7239568300899044"><ele>464.0</ele><time>2026-04-30T06:58:02.001Z</time></trkpt><trkpt lat="42.86699059960537" lon="-1.7240623770997412"><ele>465.0</ele><time>2026-04-30T06:58:03.001Z</time></trkpt><trkpt lat="42.86704124785993" lon="-1.7241723137418776"><ele>465.0</ele><time>2026-04-30T06:58:04.001Z</time></trkpt><trkpt lat="42.867093795168735" lon="-1.724281350523026"><ele>465.0</ele><time>2026-04-30T06:58:05.001Z</time></trkpt><trkpt lat="42.86714656574916" lon="-1.7243896884603709"><ele>465.0</ele><time>2026-04-30T06:58:06.001Z</time></trkpt><trkpt lat="42.86719814394479" lon="-1.7244970249355533"><ele>465.0</ele><time>2026-04-30T06:58:07.001Z</time></trkpt><trkpt lat="42.867250624357894" lon="-1.7246044228573048"><ele>465.0</ele><time>2026-04-30T06:58:08.001Z</time></trkpt><trkpt lat="42.86730366299348" lon="-1.7247121406414259"><ele>465.6</ele><time>2026-04-30T06:58:09.001Z</time></trkpt><trkpt lat="42.867361142378684" lon="-1.7248192073036703"><ele>466.2</ele><time>2026-04-30T06:58:10.001Z</time></trkpt><trkpt lat="42.86741669864875" lon="-1.7249256323997189"><ele>466.79999999999995</ele><time>2026-04-30T06:58:11.001Z</time></trkpt><trkpt lat="42.86747095705351" lon="-1.7250337928455726"><ele>467.4</ele><time>2026-04-30T06:58:12.001Z</time></trkpt><trkpt lat="42.86752388778317" lon="-1.725140683906802"><ele>468.0</ele><time>2026-04-30T06:58:13.001Z</time></trkpt><trkpt lat="42.867574882596166" lon="-1.7252472290365948"><ele>469.2</ele><time>2026-04-30T06:58:14.001Z</time></trkpt><trkpt lat="42.86762700508177" lon="-1.7253530017414374"><ele>470.4</ele><time>2026-04-30T06:58:15.001Z</time></trkpt><trkpt lat="42.86767962687755" lon="-1.725458754849117"><ele>471.59999999999997</ele><time>2026-04-30T06:58:16.001Z</time></trkpt><trkpt lat="42.86773339114478" lon="-1.7255645919523295"><ele>472.79999999999995</ele><time>2026-04-30T06:58:17.001Z</time></trkpt><trkpt lat="42.86778743840591" lon="-1.7256712132016956"><ele>474.0</ele><time>2026-04-30T06:58:18.001Z</time></trkpt><trkpt lat="42.86784461410458" lon="-1.7257777484157002"><ele>474.0</ele><time>2026-04-30T06:58:19.001Z</time></trkpt><trkpt lat="42.86789900208868" lon="-1.7258841668336233"><ele>474.0</ele><time>2026-04-30T06:58:20.001Z</time></trkpt><trkpt lat="42.867946503362326" lon="-1.7259905481578444"><ele>474.0</ele><time>2026-04-30T06:58:21.001Z</time></trkpt><trkpt lat="42.86799668019531" lon="-1.726094831778249"><ele>474.0</ele><time>2026-04-30T06:58:22.001Z</time></trkpt><trkpt lat="42.86804849798975" lon="-1.7261987496975497"><ele>474.0</ele><time>2026-04-30T06:58:23.001Z</time></trkpt><trkpt lat="42.86810073776833" lon="-1.726302248821944"><ele>474.6</ele><time>2026-04-30T06:58:24.001Z</time></trkpt><trkpt lat="42.86815438976291" lon="-1.7264041013277234"><ele>475.2</ele><time>2026-04-30T06:58:25.001Z</time></trkpt><trkpt lat="42.86820899558335" lon="-1.7265029505389946"><ele>475.80000000000007</ele><time>2026-04-30T06:58:26.001Z</time></trkpt><trkpt lat="42.86826427083351" lon="-1.7266046478723716"><ele>476.40000000000003</ele><time>2026-04-30T06:58:27.001Z</time></trkpt><trkpt lat="42.86831564479069" lon="-1.7267075547474844"><ele>477.0</ele><time>2026-04-30T06:58:28.001Z</time></trkpt><trkpt lat="42.8683625945751" lon="-1.726807572120644"><ele>477.8333333333333</ele><time>2026-04-30T06:58:29.001Z</time></trkpt><trkpt lat="42.86840994623079" lon="-1.7269071256606257"><ele>478.66666666666663</ele><time>2026-04-30T06:58:30.001Z</time></trkpt><trkpt lat="42.86845515550907" lon="-1.7270063936683084"><ele>479.5</ele><time>2026-04-30T06:58:31.001Z</time></trkpt><trkpt lat="42.86850179386471" lon="-1.7271051634631012"><ele>480.3333333333333</ele><time>2026-04-30T06:58:32.001Z</time></trkpt><trkpt lat="42.86855242843822" lon="-1.727203302856263"><ele>481.16666666666663</ele><time>2026-04-30T06:58:33.001Z</time></trkpt><trkpt lat="42.86859925709389" lon="-1.72729988250452"><ele>482.0</ele><time>2026-04-30T06:58:34.001Z</time></trkpt><trkpt lat="42.868650134372864" lon="-1.727397071291813"><ele>481.99999999999994</ele><time>2026-04-30T06:58:35.001Z</time></trkpt><trkpt lat="42.86869889840982" lon="-1.7274934111222806"><ele>482.0</ele><time>2026-04-30T06:58:36.001Z</time></trkpt><trkpt lat="42.868748970709305" lon="-1.7275894350553025"><ele>482.0</ele><time>2026-04-30T06:58:37.001Z</time></trkpt><trkpt lat="42.868798190026375" lon="-1.7276849270735182"><ele>482.0</ele><time>2026-04-30T06:58:38.001Z</time></trkpt><trkpt lat="42.86884511234287" lon="-1.7277778425179726"><ele>481.99999999999994</ele><time>2026-04-30T06:58:39.001Z</time></trkpt><trkpt lat="42.86889151875056" lon="-1.7278724370428475"><ele>482.0</ele><time>2026-04-30T06:58:40.001Z</time></trkpt><trkpt lat="42.86893772324836" lon="-1.7279665213353088"><ele>482.49999999999994</ele><time>2026-04-30T06:58:41.001Z</time></trkpt><trkpt lat="42.86898385055198" lon="-1.7280589660287378"><ele>483.0</ele><time>2026-04-30T06:58:42.001Z</time></trkpt><trkpt lat="42.86902883478278" lon="-1.7281502168544178"><ele>483.5</ele><time>2026-04-30T06:58:43.001Z</time></trkpt><trkpt lat="42.86907508346888" lon="-1.728240319120277"><ele>484.0</ele><time>2026-04-30T06:58:44.001Z</time></trkpt><trkpt lat="42.869121325119984" lon="-1.7283318478632639"><ele>484.49999999999994</ele><time>2026-04-30T06:58:45.001Z</time></trkpt><trkpt lat="42.86916808943859" lon="-1.7284221512367541"><ele>485.0</ele><time>2026-04-30T06:58:46.001Z</time></trkpt><trkpt lat="42.86921118306332" lon="-1.7285108004651022"><ele>486.49999999999994</ele><time>2026-04-30T06:58:47.001Z</time></trkpt><trkpt lat="42.869255967309" lon="-1.7285998341162425"><ele>488.0</ele><time>2026-04-30T06:58:48.001Z</time></trkpt><trkpt lat="42.86929639821334" lon="-1.7286867621723323"><ele>489.5</ele><time>2026-04-30T06:58:49.001Z</time></trkpt><trkpt lat="42.86934019449597" lon="-1.7287727507594892"><ele>491.0</ele><time>2026-04-30T06:58:50.001Z</time></trkpt><trkpt lat="42.869384215217536" lon="-1.7288586745013663"><ele>492.49999999999994</ele><time>2026-04-30T06:58:51.001Z</time></trkpt><trkpt lat="42.869428673316236" lon="-1.7289432686015156"><ele>494.0</ele><time>2026-04-30T06:58:52.001Z</time></trkpt><trkpt lat="42.869473118994065" lon="-1.7290272323711018"><ele>494.3333333333333</ele><time>2026-04-30T06:58:53.001Z</time></trkpt><trkpt lat="42.86951703741699" lon="-1.7291128812398513"><ele>494.66666666666663</ele><time>2026-04-30T06:58:54.001Z</time></trkpt><trkpt lat="42.86956113922371" lon="-1.7291974034016033"><ele>495.0</ele><time>2026-04-30T06:58:55.001Z</time></trkpt><trkpt lat="42.86960563090852" lon="-1.7292830252235283"><ele>495.33333333333337</ele><time>2026-04-30T06:58:56.001Z</time></trkpt><trkpt lat="42.86964790130347" lon="-1.7293675716054608"><ele>495.6666666666667</ele><time>2026-04-30T06:58:57.001Z</time></trkpt><trkpt lat="42.8696900319605" lon="-1.7294536325948324"><ele>496.0</ele><time>2026-04-30T06:58:58.001Z</time></trkpt><trkpt lat="42.86972702774498" lon="-1.7295404782076471"><ele>497.33333333333337</ele><time>2026-04-30T06:58:59.001Z</time></trkpt><trkpt lat="42.86976876489808" lon="-1.7296255104039033"><ele>498.6666666666667</ele><time>2026-04-30T06:59:00.001Z</time></trkpt><trkpt lat="42.869812409033074" lon="-1.7297150277978002"><ele>500.0</ele><time>2026-04-30T06:59:01.001Z</time></trkpt><trkpt lat="42.86985593865432" lon="-1.7298008024360767"><ele>501.33333333333337</ele><time>2026-04-30T06:59:02.001Z</time></trkpt><trkpt lat="42.86989518786274" lon="-1.7298871960826034"><ele>502.6666666666667</ele><time>2026-04-30T06:59:03.001Z</time></trkpt><trkpt lat="42.86993821658349" lon="-1.7299715897500438"><ele>504.0</ele><time>2026-04-30T06:59:04.001Z</time></trkpt><trkpt lat="42.86998097655153" lon="-1.7300564283462727"><ele>504.0</ele><time>2026-04-30T06:59:05.002Z</time></trkpt><trkpt lat="42.87002354732054" lon="-1.7301388120934298"><ele>504.0</ele><time>2026-04-30T06:59:06.002Z</time></trkpt><trkpt lat="42.87006842880869" lon="-1.7302224562321307"><ele>504.0</ele><time>2026-04-30T06:59:07.002Z</time></trkpt><trkpt lat="42.870109402401944" lon="-1.7303076065259897"><ele>504.0</ele><time>2026-04-30T06:59:08.002Z</time></trkpt><trkpt lat="42.87015028005905" lon="-1.73039098516389"><ele>504.0</ele><time>2026-04-30T06:59:09.002Z</time></trkpt><trkpt lat="42.87019287368915" lon="-1.730474569671318"><ele>504.0</ele><time>2026-04-30T06:59:10.002Z</time></trkpt><trkpt lat="42.870233988977894" lon="-1.7305588184653713"><ele>504.0</ele><time>2026-04-30T06:59:11.002Z</time></trkpt><trkpt lat="42.870275574721525" lon="-1.7306418868273532"><ele>505.0</ele><time>2026-04-30T06:59:12.002Z</time></trkpt><trkpt lat="42.870318770700415" lon="-1.7307233701864582"><ele>506.0</ele><time>2026-04-30T06:59:13.002Z</time></trkpt><trkpt lat="42.870362098893864" lon="-1.7308059554191004"><ele>507.0</ele><time>2026-04-30T06:59:14.002Z</time></trkpt><trkpt lat="42.87040194952839" lon="-1.7308911301691496"><ele>508.0</ele><time>2026-04-30T06:59:15.002Z</time></trkpt><trkpt lat="42.87043981255475" lon="-1.7309808625821428"><ele>509.0</ele><time>2026-04-30T06:59:16.001Z</time></trkpt><trkpt lat="42.87047332016938" lon="-1.7310707077771335"><ele>510.0</ele><time>2026-04-30T06:59:17.001Z</time></trkpt><trkpt lat="42.87050949613253" lon="-1.7311581298083656"><ele>511.0</ele><time>2026-04-30T06:59:18.001Z</time></trkpt><trkpt lat="42.8705402733646" lon="-1.7312445526612432"><ele>512.0</ele><time>2026-04-30T06:59:19.001Z</time></trkpt><trkpt lat="42.8705773290299" lon="-1.7313299701082354"><ele>513.0</ele><time>2026-04-30T06:59:20.001Z</time></trkpt><trkpt lat="42.87062215327524" lon="-1.7314175001737142"><ele>514.0</ele><time>2026-04-30T06:59:21.001Z</time></trkpt><trkpt lat="42.87066312672532" lon="-1.731509332457845"><ele>515.0</ele><time>2026-04-30T06:59:22.001Z</time></trkpt><trkpt lat="42.87070284026482" lon="-1.7316013709477633"><ele>516.0</ele><time>2026-04-30T06:59:23.001Z</time></trkpt><trkpt lat="42.870740985976084" lon="-1.7316954739231996"><ele>517.0</ele><time>2026-04-30T06:59:24.001Z</time></trkpt><trkpt lat="42.87077780484714" lon="-1.7317927805818942"><ele>517.8333333333334</ele><time>2026-04-30T06:59:25.001Z</time></trkpt><trkpt lat="42.87081475699083" lon="-1.7318925890940204"><ele>518.6666666666667</ele><time>2026-04-30T06:59:26.001Z</time></trkpt><trkpt lat="42.870852401275314" lon="-1.731994429536755"><ele>519.5</ele><time>2026-04-30T06:59:27.001Z</time></trkpt><trkpt lat="42.87089085600326" lon="-1.7320983806695358"><ele>520.3333333333334</ele><time>2026-04-30T06:59:28.001Z</time></trkpt><trkpt lat="42.870928331193255" lon="-1.7322079741824514"><ele>521.1666666666666</ele><time>2026-04-30T06:59:29.001Z</time></trkpt><trkpt lat="42.8709662413101" lon="-1.732318931128088"><ele>522.0</ele><time>2026-04-30T06:59:30.001Z</time></trkpt><trkpt lat="42.871006860398516" lon="-1.7324355219873933"><ele>522.0</ele><time>2026-04-30T06:59:31.001Z</time></trkpt><trkpt lat="42.871045246816294" lon="-1.732552585707197"><ele>522.0</ele><time>2026-04-30T06:59:32.001Z</time></trkpt><trkpt lat="42.8710865474122" lon="-1.7326728406196912"><ele>522.0</ele><time>2026-04-30T06:59:33.001Z</time></trkpt><trkpt lat="42.87112675505841" lon="-1.7327966129132617"><ele>522.0</ele><time>2026-04-30T06:59:34.001Z</time></trkpt><trkpt lat="42.871169466982536" lon="-1.732919848710226"><ele>522.0</ele><time>2026-04-30T06:59:35.001Z</time></trkpt><trkpt lat="42.87121295948486" lon="-1.733047079728258"><ele>520.25</ele><time>2026-04-30T06:59:36.001Z</time></trkpt><trkpt lat="42.87124323561952" lon="-1.7331656795577806"><ele>518.5</ele><time>2026-04-30T06:59:37.001Z</time></trkpt><trkpt lat="42.871243559425366" lon="-1.7332648270154163"><ele>516.75</ele><time>2026-04-30T06:59:38.001Z</time></trkpt><trkpt lat="42.871291453964595" lon="-1.7333562612838278"><ele>515.0</ele><time>2026-04-30T06:59:40.001Z</time></trkpt><trkpt lat="42.871533124904055" lon="-1.7340204147302312"><ele>513.25</ele><time>2026-04-30T06:59:43.001Z</time></trkpt><trkpt lat="42.87158638296187" lon="-1.734169934203821"><ele>511.5</ele><time>2026-04-30T06:59:44.001Z</time></trkpt><trkpt lat="42.871634449684954" lon="-1.7343221042714114"><ele>509.75</ele><time>2026-04-30T06:59:45.001Z</time></trkpt><trkpt lat="42.87168352700813" lon="-1.7344710735601727"><ele>508.0</ele><time>2026-04-30T06:59:46.001Z</time></trkpt><trkpt lat="42.871734698735125" lon="-1.7346191157145663"><ele>507.5</ele><time>2026-04-30T06:59:47.001Z</time></trkpt><trkpt lat="42.87178570494826" lon="-1.7347691060258728"><ele>507.0</ele><time>2026-04-30T06:59:48.001Z</time></trkpt><trkpt lat="42.871838545290615" lon="-1.7349156352174968"><ele>506.5</ele><time>2026-04-30T06:59:49.001Z</time></trkpt><trkpt lat="42.87188934975734" lon="-1.735062010594911"><ele>506.0</ele><time>2026-04-30T06:59:50.001Z</time></trkpt><trkpt lat="42.87193778633981" lon="-1.7352051226892553"><ele>506.25</ele><time>2026-04-30T06:59:51.001Z</time></trkpt><trkpt lat="42.87198680212007" lon="-1.7353454687195788"><ele>506.5</ele><time>2026-04-30T06:59:52.001Z</time></trkpt><trkpt lat="42.872033998706996" lon="-1.7354845848092613"><ele>506.75</ele><time>2026-04-30T06:59:53.001Z</time></trkpt><trkpt lat="42.872082069666014" lon="-1.7356233325354686"><ele>507.0</ele><time>2026-04-30T06:59:54.001Z</time></trkpt><trkpt lat="42.87212937106288" lon="-1.7357605918968493"><ele>507.0</ele><time>2026-04-30T06:59:55.001Z</time></trkpt><trkpt lat="42.872179284389624" lon="-1.7358980741073367"><ele>507.00000000000006</ele><time>2026-04-30T06:59:56.001Z</time></trkpt><trkpt lat="42.87223068232802" lon="-1.7360318361419442"><ele>507.00000000000006</ele><time>2026-04-30T06:59:57.001Z</time></trkpt><trkpt lat="42.872278110024546" lon="-1.7361603211857557"><ele>507.0</ele><time>2026-04-30T06:59:58.001Z</time></trkpt><trkpt lat="42.872322978140524" lon="-1.7362893464743052"><ele>507.0</ele><time>2026-04-30T06:59:59.001Z</time></trkpt><trkpt lat="42.872366223587456" lon="-1.736416027739662"><ele>507.40000000000003</ele><time>2026-04-30T07:00:00.001Z</time></trkpt><trkpt lat="42.87241081331393" lon="-1.7365426697848456"><ele>507.80000000000007</ele><time>2026-04-30T07:00:01.001Z</time></trkpt><trkpt lat="42.87245424732073" lon="-1.7366644905114854"><ele>508.2</ele><time>2026-04-30T07:00:02.001Z</time></trkpt><trkpt lat="42.87249599213036" lon="-1.7367872272066605"><ele>508.6</ele><time>2026-04-30T07:00:03.001Z</time></trkpt><trkpt lat="42.87253697840726" lon="-1.73690763957547"><ele>509.0</ele><time>2026-04-30T07:00:04.001Z</time></trkpt><trkpt lat="42.87257771648978" lon="-1.7370337280702106"><ele>510.4</ele><time>2026-04-30T07:00:05.001Z</time></trkpt><trkpt lat="42.872617229166934" lon="-1.7371574115033164"><ele>511.79999999999995</ele><time>2026-04-30T07:00:06.001Z</time></trkpt><trkpt lat="42.872657101565125" lon="-1.737282401594038"><ele>513.2</ele><time>2026-04-30T07:00:07.001Z</time></trkpt><trkpt lat="42.87270161213246" lon="-1.7374032714195788"><ele>514.6</ele><time>2026-04-30T07:00:08.001Z</time></trkpt><trkpt lat="42.87274080065816" lon="-1.7375312929288416"><ele>516.0</ele><time>2026-04-30T07:00:09.001Z</time></trkpt><trkpt lat="42.87277959126975" lon="-1.7376607310886762"><ele>515.4</ele><time>2026-04-30T07:00:10.001Z</time></trkpt><trkpt lat="42.872826558677055" lon="-1.737784422910109"><ele>514.8</ele><time>2026-04-30T07:00:11.001Z</time></trkpt><trkpt lat="42.87286853551715" lon="-1.7379133132457352"><ele>514.1999999999999</ele><time>2026-04-30T07:00:12.001Z</time></trkpt><trkpt lat="42.87291204570277" lon="-1.7380405195697382"><ele>513.6</ele><time>2026-04-30T07:00:13.001Z</time></trkpt><trkpt lat="42.872958028185465" lon="-1.738170958336744"><ele>513.0</ele><time>2026-04-30T07:00:14.001Z</time></trkpt><trkpt lat="42.87300799497169" lon="-1.7382974296245037"><ele>513.0</ele><time>2026-04-30T07:00:15.001Z</time></trkpt><trkpt lat="42.87305543096467" lon="-1.7384249109434464"><ele>513.0</ele><time>2026-04-30T07:00:16.001Z</time></trkpt><trkpt lat="42.8731004340397" lon="-1.7385610338564572"><ele>513.0</ele><time>2026-04-30T07:00:17.001Z</time></trkpt><trkpt lat="42.87314594782283" lon="-1.7386935531830816"><ele>513.0</ele><time>2026-04-30T07:00:18.001Z</time></trkpt><trkpt lat="42.873192104134034" lon="-1.7388247841881346"><ele>513.0</ele><time>2026-04-30T07:00:19.001Z</time></trkpt><trkpt lat="42.87323910567945" lon="-1.7389622590960925"><ele>512.0</ele><time>2026-04-30T07:00:20.001Z</time></trkpt><trkpt lat="42.87328708951518" lon="-1.7391037407277452"><ele>511.0</ele><time>2026-04-30T07:00:21.001Z</time></trkpt><trkpt lat="42.87333632414693" lon="-1.739244824030873"><ele>510.0</ele><time>2026-04-30T07:00:22.001Z</time></trkpt><trkpt lat="42.87338609365904" lon="-1.7393873141200429"><ele>509.0</ele><time>2026-04-30T07:00:23.001Z</time></trkpt><trkpt lat="42.873436062669434" lon="-1.7395324732290425"><ele>509.0</ele><time>2026-04-30T07:00:24.001Z</time></trkpt><trkpt lat="42.87348864483078" lon="-1.7396729485699614"><ele>509.0</ele><time>2026-04-30T07:00:25.001Z</time></trkpt><trkpt lat="42.87353538337528" lon="-1.7398171266558695"><ele>509.0</ele><time>2026-04-30T07:00:26.001Z</time></trkpt><trkpt lat="42.873582130389494" lon="-1.7399610178109022"><ele>509.0</ele><time>2026-04-30T07:00:27.001Z</time></trkpt><trkpt lat="42.87363417929908" lon="-1.7401031070979742"><ele>508.25</ele><time>2026-04-30T07:00:28.001Z</time></trkpt><trkpt lat="42.87368221907952" lon="-1.7402425931906564"><ele>507.5</ele><time>2026-04-30T07:00:29.001Z</time></trkpt><trkpt lat="42.87373152952111" lon="-1.7403838544366186"><ele>506.75</ele><time>2026-04-30T07:00:30.001Z</time></trkpt><trkpt lat="42.87377886285916" lon="-1.7405213584372479"><ele>506.0</ele><time>2026-04-30T07:00:31.001Z</time></trkpt><trkpt lat="42.87382609190521" lon="-1.7406582072890409"><ele>506.0</ele><time>2026-04-30T07:00:32.001Z</time></trkpt><trkpt lat="42.87387383325789" lon="-1.7407966085804298"><ele>506.0</ele><time>2026-04-30T07:00:33.001Z</time></trkpt><trkpt lat="42.87392027578446" lon="-1.7409283520433354"><ele>506.0</ele><time>2026-04-30T07:00:34.001Z</time></trkpt><trkpt lat="42.87396622887928" lon="-1.7410619271352454"><ele>506.0</ele><time>2026-04-30T07:00:35.001Z</time></trkpt><trkpt lat="42.874011473511345" lon="-1.7411981307944215"><ele>506.0</ele><time>2026-04-30T07:00:36.001Z</time></trkpt><trkpt lat="42.87405396754739" lon="-1.741328239050957"><ele>506.0</ele><time>2026-04-30T07:00:37.001Z</time></trkpt><trkpt lat="42.8740959839185" lon="-1.7414584834770428"><ele>506.0</ele><time>2026-04-30T07:00:38.001Z</time></trkpt><trkpt lat="42.874138792977845" lon="-1.7415862923757695"><ele>506.0</ele><time>2026-04-30T07:00:39.001Z</time></trkpt><trkpt lat="42.87418017487803" lon="-1.7417116748151387"><ele>506.0</ele><time>2026-04-30T07:00:40.001Z</time></trkpt><trkpt lat="42.874221244194956" lon="-1.741841497058339"><ele>506.0</ele><time>2026-04-30T07:00:41.001Z</time></trkpt><trkpt lat="42.87426427791661" lon="-1.7419688173003345"><ele>507.4</ele><time>2026-04-30T07:00:42.001Z</time></trkpt><trkpt lat="42.87430768379328" lon="-1.742097822093473"><ele>508.8</ele><time>2026-04-30T07:00:43.001Z</time></trkpt><trkpt lat="42.874348617335464" lon="-1.742226435335631"><ele>510.19999999999993</ele><time>2026-04-30T07:00:44.001Z</time></trkpt><trkpt lat="42.87439086001044" lon="-1.742348455030564"><ele>511.59999999999997</ele><time>2026-04-30T07:00:45.001Z</time></trkpt><trkpt lat="42.87443266756426" lon="-1.7424759592495396"><ele>513.0</ele><time>2026-04-30T07:00:46.001Z</time></trkpt><trkpt lat="42.87447366611828" lon="-1.7426054766183825"><ele>512.8</ele><time>2026-04-30T07:00:47.001Z</time></trkpt><trkpt lat="42.87451700719327" lon="-1.74273056687546"><ele>512.5999999999999</ele><time>2026-04-30T07:00:48.001Z</time></trkpt><trkpt lat="42.874562391165846" lon="-1.7428576083220393"><ele>512.4000000000001</ele><time>2026-04-30T07:00:49.001Z</time></trkpt><trkpt lat="42.87460384112924" lon="-1.7429824404520942"><ele>512.2</ele><time>2026-04-30T07:00:50.001Z</time></trkpt><trkpt lat="42.874646873014775" lon="-1.7431112380662233"><ele>512.0</ele><time>2026-04-30T07:00:51.001Z</time></trkpt><trkpt lat="42.87469276122335" lon="-1.7432331445610572"><ele>512.0</ele><time>2026-04-30T07:00:52.001Z</time></trkpt><trkpt lat="42.8747375735442" lon="-1.7433597885848462"><ele>512.0</ele><time>2026-04-30T07:00:53.001Z</time></trkpt><trkpt lat="42.874780203764736" lon="-1.743479150758166"><ele>512.0</ele><time>2026-04-30T07:00:54.001Z</time></trkpt><trkpt lat="42.87482527389129" lon="-1.7436040850954506"><ele>512.0</ele><time>2026-04-30T07:00:55.001Z</time></trkpt><trkpt lat="42.87486866023927" lon="-1.743728440674336"><ele>512.0</ele><time>2026-04-30T07:00:56.001Z</time></trkpt><trkpt lat="42.874910318702234" lon="-1.7438502938733018"><ele>511.8</ele><time>2026-04-30T07:00:57.001Z</time></trkpt><trkpt lat="42.87495487891709" lon="-1.7439720348685366"><ele>511.6</ele><time>2026-04-30T07:00:58.001Z</time></trkpt><trkpt lat="42.874999302964675" lon="-1.7440963788764985"><ele>511.40000000000003</ele><time>2026-04-30T07:00:59.001Z</time></trkpt><trkpt lat="42.875041965567206" lon="-1.744221056794609"><ele>511.20000000000005</ele><time>2026-04-30T07:01:00.001Z</time></trkpt><trkpt lat="42.875083757937745" lon="-1.7443479394402948"><ele>511.0</ele><time>2026-04-30T07:01:01.001Z</time></trkpt><trkpt lat="42.87512729791204" lon="-1.7444743490729315"><ele>513.0</ele><time>2026-04-30T07:01:02.001Z</time></trkpt><trkpt lat="42.87517038072608" lon="-1.7445991051463858"><ele>515.0</ele><time>2026-04-30T07:01:03.001Z</time></trkpt><trkpt lat="42.87521249771954" lon="-1.7447265273119452"><ele>517.0</ele><time>2026-04-30T07:01:04.001Z</time></trkpt><trkpt lat="42.875256391712924" lon="-1.7448529302207252"><ele>519.0</ele><time>2026-04-30T07:01:05.001Z</time></trkpt><trkpt lat="42.87529978493086" lon="-1.7449698961985427"><ele>521.0</ele><time>2026-04-30T07:01:06.001Z</time></trkpt><trkpt lat="42.8753392151176" lon="-1.7451008744931273"><ele>520.6</ele><time>2026-04-30T07:01:07.001Z</time></trkpt><trkpt lat="42.875379963804654" lon="-1.7452229930342043"><ele>520.2</ele><time>2026-04-30T07:01:08.001Z</time></trkpt><trkpt lat="42.87542419892829" lon="-1.7453454918592244"><ele>519.8</ele><time>2026-04-30T07:01:09.001Z</time></trkpt><trkpt lat="42.87546453330637" lon="-1.7454651381559179"><ele>519.4</ele><time>2026-04-30T07:01:10.001Z</time></trkpt><trkpt lat="42.87550600933143" lon="-1.7455900988094342"><ele>519.0</ele><time>2026-04-30T07:01:11.001Z</time></trkpt><trkpt lat="42.875549969598985" lon="-1.7457069652517028"><ele>519.0</ele><time>2026-04-30T07:01:12.001Z</time></trkpt><trkpt lat="42.875592417903206" lon="-1.7458277433817235"><ele>519.0</ele><time>2026-04-30T07:01:13.001Z</time></trkpt><trkpt lat="42.87563614265345" lon="-1.7459511237525698"><ele>519.0</ele><time>2026-04-30T07:01:14.001Z</time></trkpt><trkpt lat="42.87567834039157" lon="-1.7460710008461096"><ele>519.0</ele><time>2026-04-30T07:01:15.001Z</time></trkpt><trkpt lat="42.87571974292021" lon="-1.7461934163116095"><ele>519.0</ele><time>2026-04-30T07:01:16.001Z</time></trkpt><trkpt lat="42.875762408568015" lon="-1.746313124463809"><ele>518.6</ele><time>2026-04-30T07:01:17.001Z</time></trkpt><trkpt lat="42.87580256784639" lon="-1.7464375966502417"><ele>518.2</ele><time>2026-04-30T07:01:18.001Z</time></trkpt><trkpt lat="42.87584640114147" lon="-1.7465586124929329"><ele>517.8000000000001</ele><time>2026-04-30T07:01:19.001Z</time></trkpt><trkpt lat="42.87588913560143" lon="-1.7466799159322342"><ele>517.4</ele><time>2026-04-30T07:01:20.001Z</time></trkpt><trkpt lat="42.87593018832705" lon="-1.7468027692094927"><ele>517.0</ele><time>2026-04-30T07:01:21.001Z</time></trkpt><trkpt lat="42.87597252399436" lon="-1.74692641728834"><ele>519.2</ele><time>2026-04-30T07:01:22.001Z</time></trkpt><trkpt lat="42.87601378817097" lon="-1.7470543191106596"><ele>521.4000000000001</ele><time>2026-04-30T07:01:23.001Z</time></trkpt><trkpt lat="42.87605698441181" lon="-1.7471795431843657"><ele>523.5999999999999</ele><time>2026-04-30T07:01:24.001Z</time></trkpt><trkpt lat="42.876100809435016" lon="-1.7473064467534658"><ele>525.8</ele><time>2026-04-30T07:01:25.001Z</time></trkpt><trkpt lat="42.8761453647715" lon="-1.7474343865464832"><ele>528.0</ele><time>2026-04-30T07:01:26.001Z</time></trkpt><trkpt lat="42.87618835177747" lon="-1.747563244782529"><ele>528.0</ele><time>2026-04-30T07:01:27.001Z</time></trkpt><trkpt lat="42.876231063172405" lon="-1.7476947905989155"><ele>528.0</ele><time>2026-04-30T07:01:28.001Z</time></trkpt><trkpt lat="42.87627356004337" lon="-1.74782750636504"><ele>528.0</ele><time>2026-04-30T07:01:29.001Z</time></trkpt><trkpt lat="42.87631769401136" lon="-1.7479596426419435"><ele>528.0</ele><time>2026-04-30T07:01:30.001Z</time></trkpt><trkpt lat="42.8763657460944" lon="-1.7480885458910498"><ele>528.0</ele><time>2026-04-30T07:01:31.001Z</time></trkpt><trkpt lat="42.87641231978384" lon="-1.748225496920446"><ele>526.4</ele><time>2026-04-30T07:01:32.001Z</time></trkpt><trkpt lat="42.876455557565606" lon="-1.7483617278108954"><ele>524.8</ele><time>2026-04-30T07:01:33.001Z</time></trkpt><trkpt lat="42.87650023381629" lon="-1.7484943730275768"><ele>523.2</ele><time>2026-04-30T07:01:34.001Z</time></trkpt><trkpt lat="42.87654786746286" lon="-1.7486316445145966"><ele>521.6</ele><time>2026-04-30T07:01:35.001Z</time></trkpt><trkpt lat="42.87659388765433" lon="-1.7487631025845474"><ele>520.0</ele><time>2026-04-30T07:01:36.001Z</time></trkpt><trkpt lat="42.87664100232405" lon="-1.7489005475812476"><ele>520.0</ele><time>2026-04-30T07:01:37.001Z</time></trkpt><trkpt lat="42.87668892250412" lon="-1.7490371813007577"><ele>520.0</ele><time>2026-04-30T07:01:38.001Z</time></trkpt><trkpt lat="42.876735935873626" lon="-1.7491722500363271"><ele>520.0</ele><time>2026-04-30T07:01:39.001Z</time></trkpt><trkpt lat="42.87678024778741" lon="-1.749316148086899"><ele>520.0</ele><time>2026-04-30T07:01:40.001Z</time></trkpt><trkpt lat="42.87683045706827" lon="-1.7494495522218712"><ele>520.0</ele><time>2026-04-30T07:01:41.001Z</time></trkpt><trkpt lat="42.87687760869291" lon="-1.7495858129221553"><ele>520.0</ele><time>2026-04-30T07:01:42.001Z</time></trkpt><trkpt lat="42.876922337774666" lon="-1.7497232390031352"><ele>520.0</ele><time>2026-04-30T07:01:43.001Z</time></trkpt><trkpt lat="42.87697048458772" lon="-1.7498672493940217"><ele>520.0</ele><time>2026-04-30T07:01:44.001Z</time></trkpt><trkpt lat="42.87701588482437" lon="-1.7499979187193"><ele>520.0</ele><time>2026-04-30T07:01:45.001Z</time></trkpt><trkpt lat="42.87706461304344" lon="-1.7501402684008993"><ele>520.0</ele><time>2026-04-30T07:01:46.001Z</time></trkpt><trkpt lat="42.877111480624116" lon="-1.7502775448854218"><ele>518.8</ele><time>2026-04-30T07:01:47.001Z</time></trkpt><trkpt lat="42.87715993074929" lon="-1.7504163006862188"><ele>517.6</ele><time>2026-04-30T07:01:48.001Z</time></trkpt><trkpt lat="42.87720804845739" lon="-1.7505553858093403"><ele>516.4</ele><time>2026-04-30T07:01:49.001Z</time></trkpt><trkpt lat="42.87725640631324" lon="-1.7506905773393"><ele>515.2</ele><time>2026-04-30T07:01:50.001Z</time></trkpt><trkpt lat="42.8773025090186" lon="-1.750828099132806"><ele>514.0</ele><time>2026-04-30T07:01:51.001Z</time></trkpt><trkpt lat="42.877351340147015" lon="-1.7509627963531695"><ele>513.6</ele><time>2026-04-30T07:01:52.001Z</time></trkpt><trkpt lat="42.877400005065645" lon="-1.7510972606724517"><ele>513.2</ele><time>2026-04-30T07:01:53.001Z</time></trkpt><trkpt lat="42.877449378709464" lon="-1.7512298235008315"><ele>512.8000000000001</ele><time>2026-04-30T07:01:54.001Z</time></trkpt><trkpt lat="42.87749482236707" lon="-1.7513671805271311"><ele>512.4</ele><time>2026-04-30T07:01:55.001Z</time></trkpt><trkpt lat="42.87753927833794" lon="-1.7514993160523253"><ele>512.0</ele><time>2026-04-30T07:01:56.001Z</time></trkpt><trkpt lat="42.87758536172035" lon="-1.7516323209744133"><ele>513.4</ele><time>2026-04-30T07:01:57.001Z</time></trkpt><trkpt lat="42.87762886594318" lon="-1.7517648316167205"><ele>514.8000000000001</ele><time>2026-04-30T07:01:58.001Z</time></trkpt><trkpt lat="42.87767561616719" lon="-1.7518970904948807"><ele>516.2</ele><time>2026-04-30T07:01:59.001Z</time></trkpt><trkpt lat="42.87771975417933" lon="-1.7520269872900187"><ele>517.6</ele><time>2026-04-30T07:02:00.001Z</time></trkpt><trkpt lat="42.87776682587723" lon="-1.75215794147421"><ele>519.0</ele><time>2026-04-30T07:02:01.001Z</time></trkpt><trkpt lat="42.87781371116053" lon="-1.752289694377966"><ele>519.0</ele><time>2026-04-30T07:02:02.001Z</time></trkpt><trkpt lat="42.877852552217604" lon="-1.7524261703335637"><ele>519.0</ele><time>2026-04-30T07:02:03.001Z</time></trkpt><trkpt lat="42.877898530570356" lon="-1.7525569985437748"><ele>519.0</ele><time>2026-04-30T07:02:04.001Z</time></trkpt><trkpt lat="42.877946643197035" lon="-1.7526965726891317"><ele>519.0</ele><time>2026-04-30T07:02:05.001Z</time></trkpt><trkpt lat="42.87799367667874" lon="-1.7528309092764522"><ele>519.0</ele><time>2026-04-30T07:02:06.001Z</time></trkpt><trkpt lat="42.8780431982543" lon="-1.7529729770033122"><ele>517.6</ele><time>2026-04-30T07:02:07.001Z</time></trkpt><trkpt lat="42.87809001079886" lon="-1.753109712398783"><ele>516.2</ele><time>2026-04-30T07:02:08.001Z</time></trkpt><trkpt lat="42.87814016653461" lon="-1.7532480915642745"><ele>514.8000000000001</ele><time>2026-04-30T07:02:09.001Z</time></trkpt><trkpt lat="42.87818749632684" lon="-1.7533879211278458"><ele>513.4</ele><time>2026-04-30T07:02:10.001Z</time></trkpt><trkpt lat="42.87823658124011" lon="-1.7535265867132215"><ele>512.0</ele><time>2026-04-30T07:02:11.001Z</time></trkpt><trkpt lat="42.878283815136825" lon="-1.753668566288288"><ele>511.0</ele><time>2026-04-30T07:02:12.001Z</time></trkpt><trkpt lat="42.878331459957835" lon="-1.7538073387198756"><ele>510.0</ele><time>2026-04-30T07:02:13.001Z</time></trkpt><trkpt lat="42.878377566834864" lon="-1.753944170908006"><ele>509.0</ele><time>2026-04-30T07:02:14.001Z</time></trkpt><trkpt lat="42.87842516116754" lon="-1.7540833730077057"><ele>508.0</ele><time>2026-04-30T07:02:15.001Z</time></trkpt><trkpt lat="42.87847185306897" lon="-1.7542281782883138"><ele>507.5</ele><time>2026-04-30T07:02:16.001Z</time></trkpt><trkpt lat="42.87852111311833" lon="-1.7543752629900238"><ele>507.0</ele><time>2026-04-30T07:02:17.001Z</time></trkpt><trkpt lat="42.878569719898664" lon="-1.754512740536221"><ele>506.5</ele><time>2026-04-30T07:02:18.001Z</time></trkpt><trkpt lat="42.8786182606433" lon="-1.7546625953864603"><ele>506.0</ele><time>2026-04-30T07:02:19.001Z</time></trkpt><trkpt lat="42.87866786797184" lon="-1.7548006317787623"><ele>506.0</ele><time>2026-04-30T07:02:20.001Z</time></trkpt><trkpt lat="42.87871474253915" lon="-1.7549409706864192"><ele>506.0</ele><time>2026-04-30T07:02:21.001Z</time></trkpt><trkpt lat="42.87876372290464" lon="-1.7550866066851047"><ele>506.0</ele><time>2026-04-30T07:02:22.001Z</time></trkpt><trkpt lat="42.878810804129834" lon="-1.7552269787281372"><ele>506.0</ele><time>2026-04-30T07:02:23.001Z</time></trkpt><trkpt lat="42.87885679222405" lon="-1.755366578956955"><ele>505.25</ele><time>2026-04-30T07:02:24.001Z</time></trkpt><trkpt lat="42.878904455459015" lon="-1.7555056760459657"><ele>504.5</ele><time>2026-04-30T07:02:25.001Z</time></trkpt><trkpt lat="42.878952929091916" lon="-1.7556441218083725"><ele>503.75</ele><time>2026-04-30T07:02:26.001Z</time></trkpt><trkpt lat="42.87900028945086" lon="-1.7557847000834463"><ele>503.0</ele><time>2026-04-30T07:02:27.001Z</time></trkpt><trkpt lat="42.879046931506934" lon="-1.7559238003461557"><ele>502.59999999999997</ele><time>2026-04-30T07:02:28.001Z</time></trkpt><trkpt lat="42.87909373745545" lon="-1.756065906485825"><ele>502.19999999999993</ele><time>2026-04-30T07:02:29.001Z</time></trkpt><trkpt lat="42.8791402443291" lon="-1.7562048614811177"><ele>501.8</ele><time>2026-04-30T07:02:30.001Z</time></trkpt><trkpt lat="42.879186980866386" lon="-1.7563451146217426"><ele>501.4</ele><time>2026-04-30T07:02:31.001Z</time></trkpt><trkpt lat="42.87923402855934" lon="-1.7564801422287446"><ele>501.0</ele><time>2026-04-30T07:02:32.001Z</time></trkpt><trkpt lat="42.87928238391208" lon="-1.7566208923987559"><ele>501.25</ele><time>2026-04-30T07:02:33.001Z</time></trkpt><trkpt lat="42.87933091384592" lon="-1.7567554975426785"><ele>501.5</ele><time>2026-04-30T07:02:34.001Z</time></trkpt><trkpt lat="42.87937627005513" lon="-1.7568954528737768"><ele>501.75</ele><time>2026-04-30T07:02:35.001Z</time></trkpt><trkpt lat="42.87942149311202" lon="-1.7570373663200032"><ele>502.0</ele><time>2026-04-30T07:02:36.001Z</time></trkpt><trkpt lat="42.87947074191457" lon="-1.757178159059376"><ele>502.0</ele><time>2026-04-30T07:02:37.001Z</time></trkpt><trkpt lat="42.87951887999492" lon="-1.7573182184954586"><ele>502.0</ele><time>2026-04-30T07:02:38.001Z</time></trkpt><trkpt lat="42.87956635714113" lon="-1.7574576560646236"><ele>502.0</ele><time>2026-04-30T07:02:39.001Z</time></trkpt><trkpt lat="42.8796134779037" lon="-1.7575975790433762"><ele>502.0</ele><time>2026-04-30T07:02:40.001Z</time></trkpt><trkpt lat="42.879660096295396" lon="-1.7577402136923863"><ele>501.25</ele><time>2026-04-30T07:02:41.001Z</time></trkpt><trkpt lat="42.8797129949662" lon="-1.7578783595708696"><ele>500.5</ele><time>2026-04-30T07:02:42.001Z</time></trkpt><trkpt lat="42.87976160983394" lon="-1.758020866186215"><ele>499.75</ele><time>2026-04-30T07:02:43.001Z</time></trkpt><trkpt lat="42.879809113894815" lon="-1.758161220058478"><ele>499.0</ele><time>2026-04-30T07:02:44.001Z</time></trkpt><trkpt lat="42.87985468955462" lon="-1.7583031164123732"><ele>499.0</ele><time>2026-04-30T07:02:45.001Z</time></trkpt><trkpt lat="42.879901042723574" lon="-1.7584468356491612"><ele>499.0</ele><time>2026-04-30T07:02:46.001Z</time></trkpt><trkpt lat="42.87994720848878" lon="-1.7585863551743948"><ele>499.0</ele><time>2026-04-30T07:02:47.001Z</time></trkpt><trkpt lat="42.87999156762707" lon="-1.7587272722052705"><ele>499.0</ele><time>2026-04-30T07:02:48.001Z</time></trkpt><trkpt lat="42.88003458829805" lon="-1.7588666909721486"><ele>498.79999999999995</ele><time>2026-04-30T07:02:49.001Z</time></trkpt><trkpt lat="42.88007489290093" lon="-1.7590099650403868"><ele>498.59999999999997</ele><time>2026-04-30T07:02:50.001Z</time></trkpt><trkpt lat="42.88011054793037" lon="-1.7591507100153616"><ele>498.4</ele><time>2026-04-30T07:02:51.001Z</time></trkpt><trkpt lat="42.880144259561874" lon="-1.7592967889123343"><ele>498.2</ele><time>2026-04-30T07:02:52.001Z</time></trkpt><trkpt lat="42.88017673552329" lon="-1.759440398833842"><ele>498.0</ele><time>2026-04-30T07:02:53.001Z</time></trkpt><trkpt lat="42.88020359783512" lon="-1.7595870542732726"><ele>498.0</ele><time>2026-04-30T07:02:54.001Z</time></trkpt><trkpt lat="42.88022566555927" lon="-1.759735577293649"><ele>497.99999999999994</ele><time>2026-04-30T07:02:55.001Z</time></trkpt><trkpt lat="42.880243784041504" lon="-1.7598842244429787"><ele>497.99999999999994</ele><time>2026-04-30T07:02:56.001Z</time></trkpt><trkpt lat="42.88026040390278" lon="-1.7600318630909952"><ele>498.0</ele><time>2026-04-30T07:02:57.001Z</time></trkpt><trkpt lat="42.88027472612654" lon="-1.7601761656036112"><ele>498.0</ele><time>2026-04-30T07:02:58.001Z</time></trkpt><trkpt lat="42.88028279992874" lon="-1.76032266885965"><ele>497.59999999999997</ele><time>2026-04-30T07:02:59.001Z</time></trkpt><trkpt lat="42.88028719014296" lon="-1.7604712964306666"><ele>497.19999999999993</ele><time>2026-04-30T07:03:00.001Z</time></trkpt><trkpt lat="42.88028796378324" lon="-1.7606208200790414"><ele>496.8</ele><time>2026-04-30T07:03:01.001Z</time></trkpt><trkpt lat="42.88028408221782" lon="-1.760771110169447"><ele>496.4</ele><time>2026-04-30T07:03:02.001Z</time></trkpt><trkpt lat="42.880279177789475" lon="-1.760921115647359"><ele>496.0</ele><time>2026-04-30T07:03:03.001Z</time></trkpt><trkpt lat="42.88026867028741" lon="-1.7610739272396336"><ele>495.8</ele><time>2026-04-30T07:03:04.001Z</time></trkpt><trkpt lat="42.88026134858328" lon="-1.761225941793927"><ele>495.6</ele><time>2026-04-30T07:03:05.001Z</time></trkpt><trkpt lat="42.880251004111585" lon="-1.7613769035473152"><ele>495.4</ele><time>2026-04-30T07:03:06.001Z</time></trkpt><trkpt lat="42.88024252633812" lon="-1.7615269042698865"><ele>495.2</ele><time>2026-04-30T07:03:07.001Z</time></trkpt><trkpt lat="42.88023184034277" lon="-1.7616749609019142"><ele>495.0</ele><time>2026-04-30T07:03:08.001Z</time></trkpt><trkpt lat="42.88022341937665" lon="-1.7618268062451456"><ele>493.75</ele><time>2026-04-30T07:03:09.001Z</time></trkpt><trkpt lat="42.88021599275511" lon="-1.7619765567073107"><ele>492.5</ele><time>2026-04-30T07:03:10.001Z</time></trkpt><trkpt lat="42.88020695626685" lon="-1.7621289590007982"><ele>491.25</ele><time>2026-04-30T07:03:11.001Z</time></trkpt><trkpt lat="42.88019789529072" lon="-1.7622833445250796"><ele>490.0</ele><time>2026-04-30T07:03:12.001Z</time></trkpt><trkpt lat="42.88019048833129" lon="-1.7624407686949868"><ele>490.0</ele><time>2026-04-30T07:03:13.001Z</time></trkpt><trkpt lat="42.88018979299478" lon="-1.7625961180445782"><ele>490.0</ele><time>2026-04-30T07:03:14.001Z</time></trkpt><trkpt lat="42.88018865059602" lon="-1.7627485005962824"><ele>490.0</ele><time>2026-04-30T07:03:15.001Z</time></trkpt><trkpt lat="42.880191455064164" lon="-1.76290058038621"><ele>490.0</ele><time>2026-04-30T07:03:16.001Z</time></trkpt><trkpt lat="42.88020166525151" lon="-1.7630548485574704"><ele>489.0</ele><time>2026-04-30T07:03:17.001Z</time></trkpt><trkpt lat="42.88021551710435" lon="-1.7632088772383303"><ele>488.0</ele><time>2026-04-30T07:03:18.001Z</time></trkpt><trkpt lat="42.88023574259604" lon="-1.7633629664302"><ele>487.0</ele><time>2026-04-30T07:03:19.001Z</time></trkpt><trkpt lat="42.8802597233465" lon="-1.7635141035180248"><ele>486.0</ele><time>2026-04-30T07:03:20.001Z</time></trkpt><trkpt lat="42.88028890242246" lon="-1.763664669564243"><ele>485.0</ele><time>2026-04-30T07:03:21.001Z</time></trkpt><trkpt lat="42.8803232684958" lon="-1.7638116576228384"><ele>484.0</ele><time>2026-04-30T07:03:22.001Z</time></trkpt><trkpt lat="42.88036503492968" lon="-1.7639542788542142"><ele>483.0</ele><time>2026-04-30T07:03:23.001Z</time></trkpt><trkpt lat="42.880411628055896" lon="-1.764090472222115"><ele>482.0</ele><time>2026-04-30T07:03:24.001Z</time></trkpt><trkpt lat="42.880459961155374" lon="-1.764227790563967"><ele>481.0</ele><time>2026-04-30T07:03:25.001Z</time></trkpt><trkpt lat="42.880518400612196" lon="-1.7643611610869692"><ele>481.25</ele><time>2026-04-30T07:03:26.001Z</time></trkpt><trkpt lat="42.880581020997305" lon="-1.7644946196863807"><ele>481.5</ele><time>2026-04-30T07:03:27.001Z</time></trkpt><trkpt lat="42.88064581073821" lon="-1.7646230584828273"><ele>481.75</ele><time>2026-04-30T07:03:28.001Z</time></trkpt><trkpt lat="42.88071639132474" lon="-1.7647439008108021"><ele>482.0</ele><time>2026-04-30T07:03:29.001Z</time></trkpt><trkpt lat="42.88078952435691" lon="-1.7648604715300855"><ele>482.0</ele><time>2026-04-30T07:03:30.001Z</time></trkpt><trkpt lat="42.880864969860134" lon="-1.7649686080921483"><ele>482.00000000000006</ele><time>2026-04-30T07:03:31.001Z</time></trkpt><trkpt lat="42.88094390071784" lon="-1.7650735671558209"><ele>482.00000000000006</ele><time>2026-04-30T07:03:32.001Z</time></trkpt><trkpt lat="42.88102855793091" lon="-1.7651737804397845"><ele>482.0</ele><time>2026-04-30T07:03:33.001Z</time></trkpt><trkpt lat="42.88111753371064" lon="-1.765265828021941"><ele>482.0</ele><time>2026-04-30T07:03:34.001Z</time></trkpt><trkpt lat="42.88120789801337" lon="-1.7653512645406038"><ele>482.40000000000003</ele><time>2026-04-30T07:03:35.001Z</time></trkpt><trkpt lat="42.88130257276409" lon="-1.765433529064107"><ele>482.80000000000007</ele><time>2026-04-30T07:03:36.001Z</time></trkpt><trkpt lat="42.88140064448255" lon="-1.7655061510654488"><ele>483.2</ele><time>2026-04-30T07:03:37.001Z</time></trkpt><trkpt lat="42.881496122263776" lon="-1.7655767061105772"><ele>483.6</ele><time>2026-04-30T07:03:38.001Z</time></trkpt><trkpt lat="42.881592998414206" lon="-1.7656398726694276"><ele>484.0</ele><time>2026-04-30T07:03:39.001Z</time></trkpt><trkpt lat="42.88168984425484" lon="-1.7657000974839334"><ele>485.2</ele><time>2026-04-30T07:03:40.001Z</time></trkpt><trkpt lat="42.881787194867464" lon="-1.7657531823999018"><ele>486.4</ele><time>2026-04-30T07:03:41Z</time></trkpt><trkpt lat="42.881883338550146" lon="-1.7658057869149597"><ele>487.6</ele><time>2026-04-30T07:03:42Z</time></trkpt><trkpt lat="42.88198031850693" lon="-1.7658539426169417"><ele>488.8</ele><time>2026-04-30T07:03:43Z</time></trkpt><trkpt lat="42.88207726156056" lon="-1.7659015769711854"><ele>490.0</ele><time>2026-04-30T07:03:44Z</time></trkpt><trkpt lat="42.882173831373144" lon="-1.7659501696805295"><ele>490.0</ele><time>2026-04-30T07:03:45Z</time></trkpt><trkpt lat="42.88227265935112" lon="-1.7659980602722753"><ele>490.0</ele><time>2026-04-30T07:03:46Z</time></trkpt><trkpt lat="42.882373848152476" lon="-1.7660433611110269"><ele>490.0</ele><time>2026-04-30T07:03:47Z</time></trkpt><trkpt lat="42.88247308255288" lon="-1.7660875859650187"><ele>490.0</ele><time>2026-04-30T07:03:48Z</time></trkpt><trkpt lat="42.88257365243335" lon="-1.766135353477346"><ele>490.0</ele><time>2026-04-30T07:03:49Z</time></trkpt><trkpt lat="42.88267365845249" lon="-1.7661864180261806"><ele>490.2</ele><time>2026-04-30T07:03:50Z</time></trkpt><trkpt lat="42.88277550408922" lon="-1.76623129222074"><ele>490.4</ele><time>2026-04-30T07:03:51Z</time></trkpt><trkpt lat="42.88287571622944" lon="-1.766277829122228"><ele>490.6</ele><time>2026-04-30T07:03:52Z</time></trkpt><trkpt lat="42.8829772964912" lon="-1.7663241351877021"><ele>490.8</ele><time>2026-04-30T07:03:53Z</time></trkpt><trkpt lat="42.88307978529137" lon="-1.7663710048883585"><ele>491.0</ele><time>2026-04-30T07:03:54Z</time></trkpt><trkpt lat="42.88318564403027" lon="-1.766417404386084"><ele>491.0</ele><time>2026-04-30T07:03:55Z</time></trkpt><trkpt lat="42.8832897418719" lon="-1.766467121449589"><ele>491.0</ele><time>2026-04-30T07:03:56Z</time></trkpt><trkpt lat="42.88339519127894" lon="-1.7665154633288513"><ele>491.0</ele><time>2026-04-30T07:03:57Z</time></trkpt><trkpt lat="42.88349911760282" lon="-1.7665639206834542"><ele>491.0</ele><time>2026-04-30T07:03:58Z</time></trkpt><trkpt lat="42.88360278973534" lon="-1.766610624561271"><ele>491.0</ele><time>2026-04-30T07:03:59Z</time></trkpt><trkpt lat="42.88370507537861" lon="-1.766663798313217"><ele>491.20000000000005</ele><time>2026-04-30T07:04:00Z</time></trkpt><trkpt lat="42.88380763912122" lon="-1.7667131527100255"><ele>491.40000000000003</ele><time>2026-04-30T07:04:01Z</time></trkpt><trkpt lat="42.88391031177037" lon="-1.7667653823693836"><ele>491.6</ele><time>2026-04-30T07:04:02Z</time></trkpt><trkpt lat="42.88401290387865" lon="-1.7668177871237607"><ele>491.8</ele><time>2026-04-30T07:04:03Z</time></trkpt><trkpt lat="42.88411539214671" lon="-1.7668688766415288"><ele>492.0</ele><time>2026-04-30T07:04:04Z</time></trkpt><trkpt lat="42.88421910801541" lon="-1.7669185552569833"><ele>493.20000000000005</ele><time>2026-04-30T07:04:05Z</time></trkpt><trkpt lat="42.88432233196819" lon="-1.7669660296344092"><ele>494.40000000000003</ele><time>2026-04-30T07:04:06Z</time></trkpt><trkpt lat="42.884428098948256" lon="-1.767015523881919"><ele>495.59999999999997</ele><time>2026-04-30T07:04:07Z</time></trkpt><trkpt lat="42.884532523667296" lon="-1.7670641134122396"><ele>496.79999999999995</ele><time>2026-04-30T07:04:08Z</time></trkpt><trkpt lat="42.88463675055659" lon="-1.7671136677618628"><ele>498.0</ele><time>2026-04-30T07:04:09Z</time></trkpt><trkpt lat="42.88474221343845" lon="-1.7671661845185933"><ele>498.0</ele><time>2026-04-30T07:04:10Z</time></trkpt><trkpt lat="42.884847863587105" lon="-1.7672159686727498"><ele>497.99999999999994</ele><time>2026-04-30T07:04:11Z</time></trkpt><trkpt lat="42.884949353506755" lon="-1.7672709124608426"><ele>497.99999999999994</ele><time>2026-04-30T07:04:12Z</time></trkpt><trkpt lat="42.88505113266789" lon="-1.767320150973434"><ele>498.0</ele><time>2026-04-30T07:04:13Z</time></trkpt><trkpt lat="42.88515366404008" lon="-1.7673681298167025"><ele>498.0</ele><time>2026-04-30T07:04:14Z</time></trkpt><trkpt lat="42.8852547115255" lon="-1.7674068214427858"><ele>498.79999999999995</ele><time>2026-04-30T07:04:15Z</time></trkpt><trkpt lat="42.88535290265876" lon="-1.76744900125138"><ele>499.59999999999997</ele><time>2026-04-30T07:04:16Z</time></trkpt><trkpt lat="42.885449284479506" lon="-1.7674909852936174"><ele>500.40000000000003</ele><time>2026-04-30T07:04:17Z</time></trkpt><trkpt lat="42.88554442290675" lon="-1.7675330752107143"><ele>501.20000000000005</ele><time>2026-04-30T07:04:18Z</time></trkpt><trkpt lat="42.885638500376324" lon="-1.7675724448681174"><ele>502.0</ele><time>2026-04-30T07:04:19Z</time></trkpt><trkpt lat="42.88573122699939" lon="-1.767615021280906"><ele>502.0</ele><time>2026-04-30T07:04:20Z</time></trkpt><trkpt lat="42.88582223414876" lon="-1.767658549802296"><ele>502.00000000000006</ele><time>2026-04-30T07:04:21Z</time></trkpt><trkpt lat="42.885912951216234" lon="-1.7677044016571863"><ele>502.00000000000006</ele><time>2026-04-30T07:04:22Z</time></trkpt><trkpt lat="42.88600438914304" lon="-1.767747196983649"><ele>502.0</ele><time>2026-04-30T07:04:23Z</time></trkpt><trkpt lat="42.886095149574615" lon="-1.7677876560941435"><ele>502.0</ele><time>2026-04-30T07:04:24Z</time></trkpt><trkpt lat="42.88618579481695" lon="-1.767832849196567"><ele>504.0</ele><time>2026-04-30T07:04:25Z</time></trkpt><trkpt lat="42.8862746966105" lon="-1.7678765938601053"><ele>506.00000000000006</ele><time>2026-04-30T07:04:26Z</time></trkpt><trkpt lat="42.886361175288016" lon="-1.7679202864304018"><ele>508.00000000000006</ele><time>2026-04-30T07:04:27Z</time></trkpt><trkpt lat="42.88644466936793" lon="-1.7679676811353362"><ele>510.0</ele><time>2026-04-30T07:04:28Z</time></trkpt><trkpt lat="42.88652817660584" lon="-1.7680156540411143"><ele>512.0</ele><time>2026-04-30T07:04:29Z</time></trkpt><trkpt lat="42.88661008932079" lon="-1.7680667333582774"><ele>511.99999999999994</ele><time>2026-04-30T07:04:30Z</time></trkpt><trkpt lat="42.8866920741433" lon="-1.7681175067458912"><ele>512.0</ele><time>2026-04-30T07:04:31Z</time></trkpt><trkpt lat="42.88677223234629" lon="-1.768169953037297"><ele>512.0</ele><time>2026-04-30T07:04:32Z</time></trkpt><trkpt lat="42.8868501387299" lon="-1.768226930827171"><ele>512.0</ele><time>2026-04-30T07:04:33Z</time></trkpt><trkpt lat="42.8869263392177" lon="-1.768285045261479"><ele>511.99999999999994</ele><time>2026-04-30T07:04:34Z</time></trkpt><trkpt lat="42.887002532928754" lon="-1.768342264176968"><ele>512.0</ele><time>2026-04-30T07:04:35Z</time></trkpt><trkpt lat="42.8870763911561" lon="-1.7684034931382837"><ele>511.8333333333333</ele><time>2026-04-30T07:04:36Z</time></trkpt><trkpt lat="42.88715071302889" lon="-1.7684637274325175"><ele>511.66666666666663</ele><time>2026-04-30T07:04:37Z</time></trkpt><trkpt lat="42.88722223482386" lon="-1.7685270845056709"><ele>511.5</ele><time>2026-04-30T07:04:38Z</time></trkpt><trkpt lat="42.88729195129209" lon="-1.768595625917667"><ele>511.33333333333337</ele><time>2026-04-30T07:04:39Z</time></trkpt><trkpt lat="42.88736091049935" lon="-1.768663715392636"><ele>511.1666666666667</ele><time>2026-04-30T07:04:40Z</time></trkpt><trkpt lat="42.88742918144477" lon="-1.7687341951899627"><ele>511.0</ele><time>2026-04-30T07:04:41Z</time></trkpt><trkpt lat="42.887495982362495" lon="-1.7688067248086308"><ele>511.50000000000006</ele><time>2026-04-30T07:04:42Z</time></trkpt><trkpt lat="42.887562112188064" lon="-1.7688821220822566"><ele>512.0</ele><time>2026-04-30T07:04:43Z</time></trkpt><trkpt lat="42.88762635918517" lon="-1.7689595476851174"><ele>512.5</ele><time>2026-04-30T07:04:44Z</time></trkpt><trkpt lat="42.88769173340646" lon="-1.769038909835183"><ele>513.0</ele><time>2026-04-30T07:04:45Z</time></trkpt><trkpt lat="42.88775580635004" lon="-1.769121850163798"><ele>513.5</ele><time>2026-04-30T07:04:46Z</time></trkpt><trkpt lat="42.88782175437396" lon="-1.7692007261188323"><ele>514.0</ele><time>2026-04-30T07:04:47Z</time></trkpt><trkpt lat="42.88788511702293" lon="-1.7692826365845664"><ele>514.5</ele><time>2026-04-30T07:04:48Z</time></trkpt><trkpt lat="42.88794803656758" lon="-1.7693678832951676"><ele>515.0</ele><time>2026-04-30T07:04:49Z</time></trkpt><trkpt lat="42.888008117060494" lon="-1.7694558380303351"><ele>515.5</ele><time>2026-04-30T07:04:50Z</time></trkpt><trkpt lat="42.88806732907591" lon="-1.7695453546801676"><ele>516.0</ele><time>2026-04-30T07:04:51Z</time></trkpt><trkpt lat="42.888125858473956" lon="-1.7696353577716322"><ele>516.5</ele><time>2026-04-30T07:04:52Z</time></trkpt><trkpt lat="42.88818327912764" lon="-1.7697273595753722"><ele>517.0</ele><time>2026-04-30T07:04:53Z</time></trkpt><trkpt lat="42.88823958828421" lon="-1.769819945649597"><ele>517.0</ele><time>2026-04-30T07:04:54Z</time></trkpt><trkpt lat="42.88829352048331" lon="-1.7699137235961448"><ele>517.0</ele><time>2026-04-30T07:04:55Z</time></trkpt><trkpt lat="42.88834671493648" lon="-1.770010429440458"><ele>517.0</ele><time>2026-04-30T07:04:56Z</time></trkpt><trkpt lat="42.88839772572554" lon="-1.7701089712756513"><ele>517.0</ele><time>2026-04-30T07:04:57.001Z</time></trkpt><trkpt lat="42.88844932097696" lon="-1.7702113962800585"><ele>517.0</ele><time>2026-04-30T07:04:58.001Z</time></trkpt><trkpt lat="42.888503943582215" lon="-1.7703125482247615"><ele>517.0</ele><time>2026-04-30T07:04:59.001Z</time></trkpt><trkpt lat="42.8885583910181" lon="-1.7704132760135194"><ele>517.4</ele><time>2026-04-30T07:05:00.001Z</time></trkpt><trkpt lat="42.88861188367208" lon="-1.7705148543914286"><ele>517.8000000000001</ele><time>2026-04-30T07:05:01.001Z</time></trkpt><trkpt lat="42.888663971710166" lon="-1.7706181150146405"><ele>518.2</ele><time>2026-04-30T07:05:02.001Z</time></trkpt><trkpt lat="42.88871566949842" lon="-1.7707215453350176"><ele>518.6</ele><time>2026-04-30T07:05:03.001Z</time></trkpt><trkpt lat="42.88876390861476" lon="-1.770827298840589"><ele>519.0</ele><time>2026-04-30T07:05:04.001Z</time></trkpt><trkpt lat="42.88881341648812" lon="-1.7709305167924319"><ele>519.4</ele><time>2026-04-30T07:05:05.001Z</time></trkpt><trkpt lat="42.88886087188262" lon="-1.7710362864957663"><ele>519.8</ele><time>2026-04-30T07:05:06.001Z</time></trkpt><trkpt lat="42.88890679612872" lon="-1.7711425033736865"><ele>520.2</ele><time>2026-04-30T07:05:07.001Z</time></trkpt><trkpt lat="42.88894868094054" lon="-1.7712506283810563"><ele>520.6</ele><time>2026-04-30T07:05:08.001Z</time></trkpt><trkpt lat="42.88898966794578" lon="-1.7713630971355159"><ele>521.0</ele><time>2026-04-30T07:05:09.001Z</time></trkpt><trkpt lat="42.889028723872144" lon="-1.7714773574097553"><ele>521.0</ele><time>2026-04-30T07:05:10.001Z</time></trkpt><trkpt lat="42.88906833655467" lon="-1.771590696737822"><ele>521.0</ele><time>2026-04-30T07:05:11.001Z</time></trkpt><trkpt lat="42.88910529618445" lon="-1.7717052964440383"><ele>521.0</ele><time>2026-04-30T07:05:12.001Z</time></trkpt><trkpt lat="42.889141103005464" lon="-1.7718214523729376"><ele>521.0</ele><time>2026-04-30T07:05:13.001Z</time></trkpt><trkpt lat="42.88917637893229" lon="-1.7719370639503726"><ele>521.0</ele><time>2026-04-30T07:05:14.001Z</time></trkpt><trkpt lat="42.88921218929904" lon="-1.772055388811444"><ele>521.8</ele><time>2026-04-30T07:05:15.001Z</time></trkpt><trkpt lat="42.88924845067386" lon="-1.7721736352534634"><ele>522.6</ele><time>2026-04-30T07:05:16.001Z</time></trkpt><trkpt lat="42.88928763317036" lon="-1.7722904115057085"><ele>523.4</ele><time>2026-04-30T07:05:17.001Z</time></trkpt><trkpt lat="42.889323102921175" lon="-1.7724065575048051"><ele>524.2</ele><time>2026-04-30T07:05:18.001Z</time></trkpt><trkpt lat="42.8893571947217" lon="-1.7725250032424493"><ele>525.0</ele><time>2026-04-30T07:05:19.001Z</time></trkpt><trkpt lat="42.88938965056184" lon="-1.7726442711074555"><ele>525.2</ele><time>2026-04-30T07:05:20.001Z</time></trkpt><trkpt lat="42.88942636707007" lon="-1.7727634425166865"><ele>525.4</ele><time>2026-04-30T07:05:21.001Z</time></trkpt><trkpt lat="42.88946353739659" lon="-1.7728834248587109"><ele>525.6</ele><time>2026-04-30T07:05:22.001Z</time></trkpt><trkpt lat="42.889499885709505" lon="-1.7730015963755141"><ele>525.8</ele><time>2026-04-30T07:05:23.001Z</time></trkpt><trkpt lat="42.88953231520436" lon="-1.7731251484390735"><ele>526.0</ele><time>2026-04-30T07:05:24.001Z</time></trkpt><trkpt lat="42.889566176490874" lon="-1.7732484434421698"><ele>526.0</ele><time>2026-04-30T07:05:25.001Z</time></trkpt><trkpt lat="42.88959958526613" lon="-1.7733717461964427"><ele>526.0</ele><time>2026-04-30T07:05:26.001Z</time></trkpt><trkpt lat="42.88963486163065" lon="-1.773496155261563"><ele>526.0</ele><time>2026-04-30T07:05:27.001Z</time></trkpt><trkpt lat="42.88967291341058" lon="-1.7736225473552603"><ele>526.0</ele><time>2026-04-30T07:05:28.001Z</time></trkpt><trkpt lat="42.88971078625288" lon="-1.7737486219718226"><ele>526.0</ele><time>2026-04-30T07:05:29.001Z</time></trkpt><trkpt lat="42.88974714704231" lon="-1.7738758709270344"><ele>526.2</ele><time>2026-04-30T07:05:30.001Z</time></trkpt><trkpt lat="42.88978341062585" lon="-1.7740073821537805"><ele>526.4000000000001</ele><time>2026-04-30T07:05:31.001Z</time></trkpt><trkpt lat="42.88982198137522" lon="-1.7741393767865024"><ele>526.6</ele><time>2026-04-30T07:05:32.001Z</time></trkpt><trkpt lat="42.88986275907952" lon="-1.7742713600463562"><ele>526.8000000000001</ele><time>2026-04-30T07:05:33.001Z</time></trkpt><trkpt lat="42.88990285652528" lon="-1.7744053399488784"><ele>527.0</ele><time>2026-04-30T07:05:34Z</time></trkpt><trkpt lat="42.8899455371461" lon="-1.7745440833977277"><ele>526.6</ele><time>2026-04-30T07:05:35Z</time></trkpt><trkpt lat="42.88998677357286" lon="-1.7746858289740204"><ele>526.2</ele><time>2026-04-30T07:05:36Z</time></trkpt><trkpt lat="42.89002727309653" lon="-1.7748287839497943"><ele>525.8</ele><time>2026-04-30T07:05:37Z</time></trkpt><trkpt lat="42.89006672737986" lon="-1.7749704764974297"><ele>525.4</ele><time>2026-04-30T07:05:38Z</time></trkpt><trkpt lat="42.890107806076976" lon="-1.7751104554406854"><ele>525.0</ele><time>2026-04-30T07:05:39Z</time></trkpt><trkpt lat="42.890148572519664" lon="-1.7752510519358664"><ele>524.4</ele><time>2026-04-30T07:05:40Z</time></trkpt><trkpt lat="42.89019440730608" lon="-1.775391674656581"><ele>523.8</ele><time>2026-04-30T07:05:41Z</time></trkpt><trkpt lat="42.890243730562005" lon="-1.7755246869422472"><ele>523.2</ele><time>2026-04-30T07:05:42Z</time></trkpt><trkpt lat="42.89029363909824" lon="-1.7756515318065285"><ele>522.6</ele><time>2026-04-30T07:05:43Z</time></trkpt><trkpt lat="42.890347931847806" lon="-1.775773667964732"><ele>522.0</ele><time>2026-04-30T07:05:44Z</time></trkpt><trkpt lat="42.890404058662114" lon="-1.7758885780628877"><ele>522.0</ele><time>2026-04-30T07:05:45Z</time></trkpt><trkpt lat="42.89046189574314" lon="-1.7759966154845401"><ele>522.0</ele><time>2026-04-30T07:05:46Z</time></trkpt><trkpt lat="42.8905208294036" lon="-1.77610061543144"><ele>522.0</ele><time>2026-04-30T07:05:47Z</time></trkpt><trkpt lat="42.89058094474272" lon="-1.7761953306298555"><ele>522.0</ele><time>2026-04-30T07:05:48Z</time></trkpt><trkpt lat="42.89064112582152" lon="-1.7762850802031485"><ele>522.0</ele><time>2026-04-30T07:05:49Z</time></trkpt><trkpt lat="42.89069916201458" lon="-1.7763652315547271"><ele>521.6666666666666</ele><time>2026-04-30T07:05:50Z</time></trkpt><trkpt lat="42.8907553175857" lon="-1.7764362843144275"><ele>521.3333333333334</ele><time>2026-04-30T07:05:51Z</time></trkpt><trkpt lat="42.890804720050134" lon="-1.776495329290096"><ele>521.0</ele><time>2026-04-30T07:05:52Z</time></trkpt><trkpt lat="42.890893936406385" lon="-1.7765913522689747"><ele>520.6666666666667</ele><time>2026-04-30T07:05:54Z</time></trkpt><trkpt lat="42.89094598304771" lon="-1.7766468659919834"><ele>520.3333333333334</ele><time>2026-04-30T07:05:56Z</time></trkpt><trkpt lat="42.89101394995182" lon="-1.7766736128785081"><ele>520.0</ele><time>2026-04-30T07:06:53Z</time></trkpt><trkpt lat="42.891044134480005" lon="-1.776765663276131"><ele>519.8333333333334</ele><time>2026-04-30T07:09:24Z</time></trkpt><trkpt lat="42.891098765189625" lon="-1.7768371992560303"><ele>519.6666666666667</ele><time>2026-04-30T07:09:26Z</time></trkpt><trkpt lat="42.89117424379332" lon="-1.776922339436942"><ele>519.5</ele><time>2026-04-30T07:09:28Z</time></trkpt><trkpt lat="42.891250431003066" lon="-1.7770065103897266"><ele>519.3333333333334</ele><time>2026-04-30T07:09:30Z</time></trkpt><trkpt lat="42.89131456882287" lon="-1.7770655337784387"><ele>519.1666666666666</ele><time>2026-04-30T07:09:31Z</time></trkpt><trkpt lat="42.89137845845625" lon="-1.7771198812553592"><ele>519.0</ele><time>2026-04-30T07:09:32Z</time></trkpt><trkpt lat="42.891436409489735" lon="-1.7771796782586269"><ele>518.6666666666666</ele><time>2026-04-30T07:09:33Z</time></trkpt><trkpt lat="42.89149533359921" lon="-1.7772462519936916"><ele>518.3333333333334</ele><time>2026-04-30T07:09:34Z</time></trkpt><trkpt lat="42.89155590375081" lon="-1.7773125271804233"><ele>518.0</ele><time>2026-04-30T07:09:35Z</time></trkpt><trkpt lat="42.89161816767706" lon="-1.7773811369911385"><ele>517.6666666666667</ele><time>2026-04-30T07:09:36Z</time></trkpt><trkpt lat="42.89168693408459" lon="-1.7774498119337707"><ele>517.3333333333334</ele><time>2026-04-30T07:09:37Z</time></trkpt><trkpt lat="42.89175420660182" lon="-1.777516424850291"><ele>517.0</ele><time>2026-04-30T07:09:38Z</time></trkpt><trkpt lat="42.8918209055319" lon="-1.777588310471616"><ele>517.0</ele><time>2026-04-30T07:09:39Z</time></trkpt><trkpt lat="42.89188837188563" lon="-1.7776609149147715"><ele>517.0</ele><time>2026-04-30T07:09:40Z</time></trkpt><trkpt lat="42.891960900939225" lon="-1.7777326373836098"><ele>517.0</ele><time>2026-04-30T07:09:41Z</time></trkpt><trkpt lat="42.89203079110789" lon="-1.777812090459378"><ele>517.0</ele><time>2026-04-30T07:09:42Z</time></trkpt><trkpt lat="42.892106430208564" lon="-1.777891132679344"><ele>517.0</ele><time>2026-04-30T07:09:43Z</time></trkpt><trkpt lat="42.892181145491136" lon="-1.7779682497367315"><ele>516.2</ele><time>2026-04-30T07:09:44Z</time></trkpt><trkpt lat="42.89225681229654" lon="-1.7780458510708257"><ele>515.4000000000001</ele><time>2026-04-30T07:09:45Z</time></trkpt><trkpt lat="42.89233091516045" lon="-1.778123086644269"><ele>514.5999999999999</ele><time>2026-04-30T07:09:46Z</time></trkpt><trkpt lat="42.89240147511798" lon="-1.7782026692971165"><ele>513.8</ele><time>2026-04-30T07:09:47Z</time></trkpt><trkpt lat="42.892474067375716" lon="-1.7782783183924484"><ele>513.0</ele><time>2026-04-30T07:09:48Z</time></trkpt><trkpt lat="42.89254831540544" lon="-1.778358860509186"><ele>513.0</ele><time>2026-04-30T07:09:49Z</time></trkpt><trkpt lat="42.89261877912082" lon="-1.7784419414316615"><ele>513.0</ele><time>2026-04-30T07:09:50Z</time></trkpt><trkpt lat="42.89268752417955" lon="-1.7785326442848834"><ele>513.0</ele><time>2026-04-30T07:09:51Z</time></trkpt><trkpt lat="42.892748181212184" lon="-1.7786327607973125"><ele>513.0</ele><time>2026-04-30T07:09:52Z</time></trkpt><trkpt lat="42.89280469517866" lon="-1.7787355463190966"><ele>513.0</ele><time>2026-04-30T07:09:53Z</time></trkpt><trkpt lat="42.89286472891064" lon="-1.7788435380362726"><ele>512.1999999999999</ele><time>2026-04-30T07:09:54Z</time></trkpt><trkpt lat="42.89292270100345" lon="-1.7789536630776543"><ele>511.4</ele><time>2026-04-30T07:09:55Z</time></trkpt><trkpt lat="42.89298031029484" lon="-1.7790638508766585"><ele>510.59999999999997</ele><time>2026-04-30T07:09:56Z</time></trkpt><trkpt lat="42.8930363870651" lon="-1.7791770215652953"><ele>509.79999999999995</ele><time>2026-04-30T07:09:57Z</time></trkpt><trkpt lat="42.89309803235084" lon="-1.7792937311141495"><ele>509.0</ele><time>2026-04-30T07:09:58Z</time></trkpt><trkpt lat="42.893160120494755" lon="-1.7794147480257936"><ele>509.0</ele><time>2026-04-30T07:09:59Z</time></trkpt><trkpt lat="42.89322599928694" lon="-1.779534495315624"><ele>509.0</ele><time>2026-04-30T07:10:00Z</time></trkpt><trkpt lat="42.8932904953978" lon="-1.7796515771317691"><ele>509.0</ele><time>2026-04-30T07:10:01Z</time></trkpt><trkpt lat="42.8933538673091" lon="-1.7797706993846851"><ele>509.0</ele><time>2026-04-30T07:10:02Z</time></trkpt><trkpt lat="42.89341611636417" lon="-1.7798895094971239"><ele>509.0</ele><time>2026-04-30T07:10:03Z</time></trkpt><trkpt lat="42.89347835798087" lon="-1.7800104596366644"><ele>508.0</ele><time>2026-04-30T07:10:04Z</time></trkpt><trkpt lat="42.89354013343715" lon="-1.780132011041697"><ele>507.0</ele><time>2026-04-30T07:10:05Z</time></trkpt><trkpt lat="42.89360153856372" lon="-1.7802531788247864"><ele>506.0</ele><time>2026-04-30T07:10:06Z</time></trkpt><trkpt lat="42.89366523348712" lon="-1.7803775211199298"><ele>505.0</ele><time>2026-04-30T07:10:07Z</time></trkpt><trkpt lat="42.893727387772785" lon="-1.7805020015683726"><ele>504.0</ele><time>2026-04-30T07:10:08Z</time></trkpt><trkpt lat="42.8937909085526" lon="-1.780626539499416"><ele>503.4</ele><time>2026-04-30T07:10:09Z</time></trkpt><trkpt lat="42.893856114782935" lon="-1.7807501410548405"><ele>502.79999999999995</ele><time>2026-04-30T07:10:10Z</time></trkpt><trkpt lat="42.893921523408025" lon="-1.78087432011553"><ele>502.20000000000005</ele><time>2026-04-30T07:10:11Z</time></trkpt><trkpt lat="42.89398710608916" lon="-1.7810063797862588"><ele>501.6</ele><time>2026-04-30T07:10:12Z</time></trkpt><trkpt lat="42.89404827538534" lon="-1.7811277688204123"><ele>501.0</ele><time>2026-04-30T07:10:13Z</time></trkpt><trkpt lat="42.894109361741336" lon="-1.7812478202226003"><ele>501.20000000000005</ele><time>2026-04-30T07:10:14Z</time></trkpt><trkpt lat="42.8941731999964" lon="-1.7813681501099172"><ele>501.40000000000003</ele><time>2026-04-30T07:10:15Z</time></trkpt><trkpt lat="42.89423294671344" lon="-1.7814882428549956"><ele>501.6</ele><time>2026-04-30T07:10:16Z</time></trkpt><trkpt lat="42.8942906173876" lon="-1.7816063896674765"><ele>501.8</ele><time>2026-04-30T07:10:17Z</time></trkpt><trkpt lat="42.89434871226777" lon="-1.7817227262505468"><ele>502.0</ele><time>2026-04-30T07:10:18Z</time></trkpt><trkpt lat="42.89441055266017" lon="-1.7818395159778238"><ele>501.0</ele><time>2026-04-30T07:10:19Z</time></trkpt><trkpt lat="42.89446976365256" lon="-1.78195635237532"><ele>500.00000000000006</ele><time>2026-04-30T07:10:20Z</time></trkpt><trkpt lat="42.89452991143769" lon="-1.782071345679238"><ele>499.00000000000006</ele><time>2026-04-30T07:10:21Z</time></trkpt><trkpt lat="42.89458818300797" lon="-1.7821915323482098"><ele>498.0</ele><time>2026-04-30T07:10:22Z</time></trkpt><trkpt lat="42.89464065070931" lon="-1.7823086013953935"><ele>497.0</ele><time>2026-04-30T07:10:23Z</time></trkpt><trkpt lat="42.894697449397945" lon="-1.7824210025697076"><ele>497.0</ele><time>2026-04-30T07:10:24Z</time></trkpt><trkpt lat="42.894754186390934" lon="-1.782534318199894"><ele>497.00000000000006</ele><time>2026-04-30T07:10:25Z</time></trkpt><trkpt lat="42.8948123180295" lon="-1.7826446525925936"><ele>497.00000000000006</ele><time>2026-04-30T07:10:26Z</time></trkpt><trkpt lat="42.894873777225946" lon="-1.7827514848913248"><ele>497.0</ele><time>2026-04-30T07:10:27Z</time></trkpt><trkpt lat="42.894937427170674" lon="-1.782859058395292"><ele>497.0</ele><time>2026-04-30T07:10:28Z</time></trkpt><trkpt lat="42.895000710242286" lon="-1.7829812437019938"><ele>496.0</ele><time>2026-04-30T07:10:29Z</time></trkpt><trkpt lat="42.89506319415475" lon="-1.7831045559679641"><ele>495.00000000000006</ele><time>2026-04-30T07:10:30Z</time></trkpt><trkpt lat="42.895126980697725" lon="-1.7832307822452576"><ele>494.00000000000006</ele><time>2026-04-30T07:10:31Z</time></trkpt><trkpt lat="42.8951919775358" lon="-1.7833541426272794"><ele>493.0</ele><time>2026-04-30T07:10:32Z</time></trkpt><trkpt lat="42.89525583744299" lon="-1.783476963894554"><ele>492.0</ele><time>2026-04-30T07:10:33Z</time></trkpt><trkpt lat="42.89531968811742" lon="-1.7835999914196854"><ele>491.20000000000005</ele><time>2026-04-30T07:10:34Z</time></trkpt><trkpt lat="42.89538482671231" lon="-1.7837220039072195"><ele>490.40000000000003</ele><time>2026-04-30T07:10:35Z</time></trkpt><trkpt lat="42.895449359655586" lon="-1.78384551322284"><ele>489.59999999999997</ele><time>2026-04-30T07:10:36Z</time></trkpt><trkpt lat="42.89550752664124" lon="-1.7839661456400393"><ele>488.79999999999995</ele><time>2026-04-30T07:10:37Z</time></trkpt><trkpt lat="42.89556900640786" lon="-1.784083698777131"><ele>488.0</ele><time>2026-04-30T07:10:38Z</time></trkpt><trkpt lat="42.895631809796214" lon="-1.7842069733262866"><ele>488.0</ele><time>2026-04-30T07:10:39Z</time></trkpt><trkpt lat="42.895690027790955" lon="-1.7843227251455787"><ele>487.99999999999994</ele><time>2026-04-30T07:10:40Z</time></trkpt><trkpt lat="42.89574752652376" lon="-1.7844399603398085"><ele>487.99999999999994</ele><time>2026-04-30T07:10:41Z</time></trkpt><trkpt lat="42.895806407792136" lon="-1.7845575439852979"><ele>488.0</ele><time>2026-04-30T07:10:42Z</time></trkpt><trkpt lat="42.895867052149626" lon="-1.7846737130677999"><ele>488.0</ele><time>2026-04-30T07:10:43Z</time></trkpt><trkpt lat="42.89592711011769" lon="-1.7847899054739342"><ele>487.79999999999995</ele><time>2026-04-30T07:10:44Z</time></trkpt><trkpt lat="42.8959872265306" lon="-1.7849053847901422"><ele>487.59999999999997</ele><time>2026-04-30T07:10:45Z</time></trkpt><trkpt lat="42.89604735231125" lon="-1.7850228431261448"><ele>487.40000000000003</ele><time>2026-04-30T07:10:46Z</time></trkpt><trkpt lat="42.896108655635125" lon="-1.7851411509507187"><ele>487.20000000000005</ele><time>2026-04-30T07:10:47Z</time></trkpt><trkpt lat="42.896168625186775" lon="-1.785261415512142"><ele>487.0</ele><time>2026-04-30T07:10:48Z</time></trkpt><trkpt lat="42.896226779935816" lon="-1.785381042513664"><ele>486.0</ele><time>2026-04-30T07:10:49Z</time></trkpt><trkpt lat="42.89628771326046" lon="-1.785502060345541"><ele>485.00000000000006</ele><time>2026-04-30T07:10:50Z</time></trkpt><trkpt lat="42.89634877422508" lon="-1.785621251975838"><ele>484.00000000000006</ele><time>2026-04-30T07:10:51Z</time></trkpt><trkpt lat="42.89640951875078" lon="-1.785739861674259"><ele>483.0</ele><time>2026-04-30T07:10:52Z</time></trkpt><trkpt lat="42.89647004194263" lon="-1.7858566522940258"><ele>482.0</ele><time>2026-04-30T07:10:53Z</time></trkpt><trkpt lat="42.8965294659972" lon="-1.7859755279631127"><ele>481.8</ele><time>2026-04-30T07:10:54Z</time></trkpt><trkpt lat="42.89658983913279" lon="-1.7860950875403727"><ele>481.6</ele><time>2026-04-30T07:10:55Z</time></trkpt><trkpt lat="42.89665080897204" lon="-1.7862143907922927"><ele>481.40000000000003</ele><time>2026-04-30T07:10:56Z</time></trkpt><trkpt lat="42.89671303089021" lon="-1.7863375416788325"><ele>481.20000000000005</ele><time>2026-04-30T07:10:57Z</time></trkpt><trkpt lat="42.896776788803635" lon="-1.7864620323149227"><ele>481.0</ele><time>2026-04-30T07:10:58Z</time></trkpt><trkpt lat="42.8968410638235" lon="-1.7865851167674787"><ele>480.6</ele><time>2026-04-30T07:10:59Z</time></trkpt><trkpt lat="42.896904051772445" lon="-1.7867066493631063"><ele>480.20000000000005</ele><time>2026-04-30T07:11:00Z</time></trkpt><trkpt lat="42.8969669305368" lon="-1.7868291857126954"><ele>479.79999999999995</ele><time>2026-04-30T07:11:01Z</time></trkpt><trkpt lat="42.897026920069294" lon="-1.7869482703688433"><ele>479.4</ele><time>2026-04-30T07:11:02Z</time></trkpt><trkpt lat="42.89708989424233" lon="-1.7870697248180853"><ele>479.0</ele><time>2026-04-30T07:11:03Z</time></trkpt><trkpt lat="42.89715320360676" lon="-1.7871886136392583"><ele>479.0</ele><time>2026-04-30T07:11:04Z</time></trkpt><trkpt lat="42.89721459172584" lon="-1.7873064941065204"><ele>479.0</ele><time>2026-04-30T07:11:05Z</time></trkpt><trkpt lat="42.897275757545486" lon="-1.7874254563789476"><ele>479.0</ele><time>2026-04-30T07:11:06Z</time></trkpt><trkpt lat="42.89733683780086" lon="-1.7875436221236372"><ele>479.0</ele><time>2026-04-30T07:11:07Z</time></trkpt><trkpt lat="42.89739697690543" lon="-1.7876600728720644"><ele>479.0</ele><time>2026-04-30T07:11:08Z</time></trkpt><trkpt lat="42.89745675732422" lon="-1.787776591459555"><ele>478.6</ele><time>2026-04-30T07:11:09Z</time></trkpt><trkpt lat="42.89751575133214" lon="-1.7878930540361777"><ele>478.2</ele><time>2026-04-30T07:11:10Z</time></trkpt><trkpt lat="42.89757424147628" lon="-1.788008030901944"><ele>477.80000000000007</ele><time>2026-04-30T07:11:11Z</time></trkpt><trkpt lat="42.8976332751753" lon="-1.7881237925492544"><ele>477.40000000000003</ele><time>2026-04-30T07:11:12Z</time></trkpt><trkpt lat="42.897692913172904" lon="-1.7882387725527846"><ele>477.0</ele><time>2026-04-30T07:11:13Z</time></trkpt><trkpt lat="42.89775253683889" lon="-1.788352533362537"><ele>477.0</ele><time>2026-04-30T07:11:14Z</time></trkpt><trkpt lat="42.89781248267969" lon="-1.7884647874081108"><ele>477.00000000000006</ele><time>2026-04-30T07:11:15Z</time></trkpt><trkpt lat="42.89787065334055" lon="-1.7885800540969565"><ele>477.00000000000006</ele><time>2026-04-30T07:11:16Z</time></trkpt><trkpt lat="42.89792849074556" lon="-1.7886946241841901"><ele>477.0</ele><time>2026-04-30T07:11:17Z</time></trkpt><trkpt lat="42.897986926041696" lon="-1.7888076992139477"><ele>477.0</ele><time>2026-04-30T07:11:18Z</time></trkpt><trkpt lat="42.89804583412038" lon="-1.7889226933743199"><ele>477.20000000000005</ele><time>2026-04-30T07:11:19Z</time></trkpt><trkpt lat="42.898105428135494" lon="-1.7890392731539484"><ele>477.40000000000003</ele><time>2026-04-30T07:11:20Z</time></trkpt><trkpt lat="42.89816476877226" lon="-1.789156528484107"><ele>477.59999999999997</ele><time>2026-04-30T07:11:21Z</time></trkpt><trkpt lat="42.89822622190355" lon="-1.789277182062573"><ele>477.79999999999995</ele><time>2026-04-30T07:11:22Z</time></trkpt><trkpt lat="42.89828916786161" lon="-1.7893977374231318"><ele>478.0</ele><time>2026-04-30T07:11:23Z</time></trkpt><trkpt lat="42.898351869520184" lon="-1.7895194210242649"><ele>478.2</ele><time>2026-04-30T07:11:24Z</time></trkpt><trkpt lat="42.898414593321206" lon="-1.7896457065513323"><ele>478.4</ele><time>2026-04-30T07:11:25Z</time></trkpt><trkpt lat="42.89847957040274" lon="-1.789772381435462"><ele>478.59999999999997</ele><time>2026-04-30T07:11:26Z</time></trkpt><trkpt lat="42.89854509642858" lon="-1.789896324634425"><ele>478.79999999999995</ele><time>2026-04-30T07:11:27Z</time></trkpt><trkpt lat="42.8986105291388" lon="-1.7900209564065892"><ele>479.0</ele><time>2026-04-30T07:11:28Z</time></trkpt><trkpt lat="42.89867670907446" lon="-1.790149082641902"><ele>477.25</ele><time>2026-04-30T07:11:29Z</time></trkpt><trkpt lat="42.898745798309186" lon="-1.7902801932978831"><ele>475.5</ele><time>2026-04-30T07:11:30Z</time></trkpt><trkpt lat="42.89881446723318" lon="-1.7904131185428451"><ele>473.75</ele><time>2026-04-30T07:11:31Z</time></trkpt><trkpt lat="42.89888166514841" lon="-1.7905451407977675"><ele>472.0</ele><time>2026-04-30T07:11:32Z</time></trkpt><trkpt lat="42.89894601579875" lon="-1.790671158467655"><ele>472.0</ele><time>2026-04-30T07:11:33Z</time></trkpt><trkpt lat="42.89901254663526" lon="-1.7907994551827509"><ele>472.0</ele><time>2026-04-30T07:11:34Z</time></trkpt><trkpt lat="42.8990774605043" lon="-1.790928258443855"><ele>472.0</ele><time>2026-04-30T07:11:35Z</time></trkpt><trkpt lat="42.89914085097219" lon="-1.7910568133909903"><ele>472.0</ele><time>2026-04-30T07:11:36Z</time></trkpt><trkpt lat="42.89920670480865" lon="-1.7911834233018384"><ele>473.0</ele><time>2026-04-30T07:11:37Z</time></trkpt><trkpt lat="42.89927174946506" lon="-1.7913100640447779"><ele>474.0</ele><time>2026-04-30T07:11:38Z</time></trkpt><trkpt lat="42.89933808028983" lon="-1.791437984138083"><ele>475.0</ele><time>2026-04-30T07:11:39Z</time></trkpt><trkpt lat="42.89940510743717" lon="-1.79156327451885"><ele>476.0</ele><time>2026-04-30T07:11:40Z</time></trkpt><trkpt lat="42.89947231682582" lon="-1.7916859808702374"><ele>476.0</ele><time>2026-04-30T07:11:41Z</time></trkpt><trkpt lat="42.899536600379626" lon="-1.7918082897453098"><ele>476.0</ele><time>2026-04-30T07:11:42Z</time></trkpt><trkpt lat="42.89960173592691" lon="-1.7919311880775162"><ele>476.0</ele><time>2026-04-30T07:11:43Z</time></trkpt><trkpt lat="42.89966631622896" lon="-1.792052868088085"><ele>476.0</ele><time>2026-04-30T07:11:44Z</time></trkpt><trkpt lat="42.899729062348285" lon="-1.7921780888128325"><ele>476.0</ele><time>2026-04-30T07:11:45Z</time></trkpt><trkpt lat="42.899788915696625" lon="-1.792306219643989"><ele>476.8</ele><time>2026-04-30T07:11:46Z</time></trkpt><trkpt lat="42.899853306192526" lon="-1.7924302969630481"><ele>477.6</ele><time>2026-04-30T07:11:47Z</time></trkpt><trkpt lat="42.89991627406023" lon="-1.7925549478441"><ele>478.4</ele><time>2026-04-30T07:11:48Z</time></trkpt><trkpt lat="42.899982541829274" lon="-1.7926781642778165"><ele>479.2</ele><time>2026-04-30T07:11:49Z</time></trkpt><trkpt lat="42.90004638366735" lon="-1.7928015487368258"><ele>480.0</ele><time>2026-04-30T07:11:50Z</time></trkpt><trkpt lat="42.900108927948004" lon="-1.7929245655691592"><ele>480.0</ele><time>2026-04-30T07:11:51Z</time></trkpt><trkpt lat="42.90017243984976" lon="-1.7930477112095484"><ele>480.0</ele><time>2026-04-30T07:11:52Z</time></trkpt><trkpt lat="42.90023691986312" lon="-1.7931655446467825"><ele>480.0</ele><time>2026-04-30T07:11:53Z</time></trkpt><trkpt lat="42.90030165328948" lon="-1.7932870644471075"><ele>480.0</ele><time>2026-04-30T07:11:54Z</time></trkpt><trkpt lat="42.900359285467296" lon="-1.793404736764995"><ele>480.0</ele><time>2026-04-30T07:11:55Z</time></trkpt><trkpt lat="42.90041987345164" lon="-1.7935239157985792"><ele>479.0</ele><time>2026-04-30T07:11:56Z</time></trkpt><trkpt lat="42.90048169942489" lon="-1.793642324503893"><ele>478.0</ele><time>2026-04-30T07:11:57Z</time></trkpt><trkpt lat="42.90054203411001" lon="-1.7937624372474315"><ele>477.0</ele><time>2026-04-30T07:11:58Z</time></trkpt><trkpt lat="42.90059933412335" lon="-1.793883190962584"><ele>476.0</ele><time>2026-04-30T07:11:59Z</time></trkpt><trkpt lat="42.900658058890045" lon="-1.7940019202695219"><ele>475.0</ele><time>2026-04-30T07:12:00Z</time></trkpt><trkpt lat="42.900717468766246" lon="-1.7941234042085619"><ele>475.0</ele><time>2026-04-30T07:12:01Z</time></trkpt><trkpt lat="42.90077752595747" lon="-1.7942400246793277"><ele>475.0</ele><time>2026-04-30T07:12:02Z</time></trkpt><trkpt lat="42.90083706897048" lon="-1.7943523455707049"><ele>475.0</ele><time>2026-04-30T07:12:03Z</time></trkpt><trkpt lat="42.9008989912806" lon="-1.7944615814538016"><ele>475.0</ele><time>2026-04-30T07:12:04Z</time></trkpt><trkpt lat="42.90096181464348" lon="-1.794567930643349"><ele>475.0</ele><time>2026-04-30T07:12:05Z</time></trkpt><trkpt lat="42.90103241188632" lon="-1.7946745717635053"><ele>472.8</ele><time>2026-04-30T07:12:06Z</time></trkpt><trkpt lat="42.901102081920634" lon="-1.7947775036760785"><ele>470.6</ele><time>2026-04-30T07:12:07Z</time></trkpt><trkpt lat="42.90117583737502" lon="-1.7948710796365595"><ele>468.4</ele><time>2026-04-30T07:12:08Z</time></trkpt><trkpt lat="42.90125266007346" lon="-1.7949600523104459"><ele>466.2</ele><time>2026-04-30T07:12:09Z</time></trkpt><trkpt lat="42.90133225383092" lon="-1.7950409814897248"><ele>464.0</ele><time>2026-04-30T07:12:10Z</time></trkpt><trkpt lat="42.90140761726713" lon="-1.7951224233298775"><ele>464.4</ele><time>2026-04-30T07:12:11Z</time></trkpt><trkpt lat="42.901487483714796" lon="-1.795209253794976"><ele>464.79999999999995</ele><time>2026-04-30T07:12:12Z</time></trkpt><trkpt lat="42.90156630885725" lon="-1.795293197529101"><ele>465.20000000000005</ele><time>2026-04-30T07:12:13Z</time></trkpt><trkpt lat="42.90164600810754" lon="-1.7953773369197432"><ele>465.6</ele><time>2026-04-30T07:12:14Z</time></trkpt><trkpt lat="42.901728422569875" lon="-1.7954641697976874"><ele>466.0</ele><time>2026-04-30T07:12:15Z</time></trkpt><trkpt lat="42.90181689902839" lon="-1.79555873407508"><ele>466.6</ele><time>2026-04-30T07:12:16Z</time></trkpt><trkpt lat="42.90190285324259" lon="-1.7956442217325466"><ele>467.20000000000005</ele><time>2026-04-30T07:12:17Z</time></trkpt><trkpt lat="42.90198338501568" lon="-1.7957312463469066"><ele>467.79999999999995</ele><time>2026-04-30T07:12:18Z</time></trkpt><trkpt lat="42.902072426900915" lon="-1.7958202760365916"><ele>468.4</ele><time>2026-04-30T07:12:19Z</time></trkpt><trkpt lat="42.902159757659525" lon="-1.7959068926576987"><ele>469.0</ele><time>2026-04-30T07:12:20Z</time></trkpt><trkpt lat="42.90223464196265" lon="-1.7959873810167308"><ele>470.0</ele><time>2026-04-30T07:12:21Z</time></trkpt><trkpt lat="42.90231343538401" lon="-1.7960696835086507"><ele>471.0</ele><time>2026-04-30T07:12:22Z</time></trkpt><trkpt lat="42.90238898472556" lon="-1.7961439494607343"><ele>472.0</ele><time>2026-04-30T07:12:23Z</time></trkpt><trkpt lat="42.90246138002386" lon="-1.7962191696815752"><ele>473.0</ele><time>2026-04-30T07:12:24Z</time></trkpt><trkpt lat="42.90253737876293" lon="-1.7962930825930812"><ele>474.0</ele><time>2026-04-30T07:12:25Z</time></trkpt><trkpt lat="42.90261400281362" lon="-1.7963627559648252"><ele>474.0</ele><time>2026-04-30T07:12:26Z</time></trkpt><trkpt lat="42.90268587830188" lon="-1.7964329080932384"><ele>474.0</ele><time>2026-04-30T07:12:27Z</time></trkpt><trkpt lat="42.9027491572867" lon="-1.7965118335261587"><ele>474.0</ele><time>2026-04-30T07:12:28Z</time></trkpt><trkpt lat="42.902819711370334" lon="-1.79658685278419"><ele>474.0</ele><time>2026-04-30T07:12:29Z</time></trkpt><trkpt lat="42.90288943420876" lon="-1.7966622572996764"><ele>474.0</ele><time>2026-04-30T07:12:30Z</time></trkpt><trkpt lat="42.90295661507495" lon="-1.7967359843116546"><ele>474.0</ele><time>2026-04-30T07:12:31Z</time></trkpt><trkpt lat="42.903025841620185" lon="-1.7968076500599708"><ele>474.3333333333333</ele><time>2026-04-30T07:12:32Z</time></trkpt><trkpt lat="42.90309529539932" lon="-1.7968814824740904"><ele>474.66666666666663</ele><time>2026-04-30T07:12:33Z</time></trkpt><trkpt lat="42.90316531565617" lon="-1.7969516257420444"><ele>475.0</ele><time>2026-04-30T07:12:34Z</time></trkpt><trkpt lat="42.903232404629435" lon="-1.7970244619359985"><ele>475.3333333333333</ele><time>2026-04-30T07:12:35Z</time></trkpt><trkpt lat="42.90330299391274" lon="-1.797101309900322"><ele>475.66666666666663</ele><time>2026-04-30T07:12:36Z</time></trkpt><trkpt lat="42.90337676376701" lon="-1.7971766633897734"><ele>476.0</ele><time>2026-04-30T07:12:37Z</time></trkpt><trkpt lat="42.903449326260166" lon="-1.7972516204118405"><ele>475.99999999999994</ele><time>2026-04-30T07:12:38Z</time></trkpt><trkpt lat="42.90351996628718" lon="-1.7973273318293381"><ele>476.0</ele><time>2026-04-30T07:12:39Z</time></trkpt><trkpt lat="42.903588959011245" lon="-1.797399245401072"><ele>476.0</ele><time>2026-04-30T07:12:40Z</time></trkpt><trkpt lat="42.90365987736933" lon="-1.797473438858115"><ele>476.0</ele><time>2026-04-30T07:12:41Z</time></trkpt><trkpt lat="42.90372943276521" lon="-1.7975453232507914"><ele>475.99999999999994</ele><time>2026-04-30T07:12:42Z</time></trkpt><trkpt lat="42.903796277149155" lon="-1.7976171793872984"><ele>476.0</ele><time>2026-04-30T07:12:43Z</time></trkpt><trkpt lat="42.903865779370385" lon="-1.7976859087093033"><ele>476.3333333333333</ele><time>2026-04-30T07:12:44Z</time></trkpt><trkpt lat="42.90393335690104" lon="-1.7977559768315376"><ele>476.66666666666663</ele><time>2026-04-30T07:12:45Z</time></trkpt><trkpt lat="42.90400276262814" lon="-1.7978271979616978"><ele>477.0</ele><time>2026-04-30T07:12:46Z</time></trkpt><trkpt lat="42.90407215192782" lon="-1.797902174150153"><ele>477.33333333333337</ele><time>2026-04-30T07:12:47Z</time></trkpt><trkpt lat="42.904142540809865" lon="-1.7979750380828072"><ele>477.6666666666667</ele><time>2026-04-30T07:12:48Z</time></trkpt><trkpt lat="42.90421206606191" lon="-1.7980493267645965"><ele>478.0</ele><time>2026-04-30T07:12:49Z</time></trkpt><trkpt lat="42.904281169230394" lon="-1.7981244658235391"><ele>478.0</ele><time>2026-04-30T07:12:50Z</time></trkpt><trkpt lat="42.904348545772734" lon="-1.798202735768923"><ele>477.99999999999994</ele><time>2026-04-30T07:12:51Z</time></trkpt><trkpt lat="42.90441451525035" lon="-1.7982837969339365"><ele>477.99999999999994</ele><time>2026-04-30T07:12:52Z</time></trkpt><trkpt lat="42.90448196389496" lon="-1.7983662127098963"><ele>478.0</ele><time>2026-04-30T07:12:53Z</time></trkpt><trkpt lat="42.90454817230572" lon="-1.7984527269538142"><ele>478.0</ele><time>2026-04-30T07:12:54Z</time></trkpt><trkpt lat="42.90461134834501" lon="-1.798544102761357"><ele>479.0</ele><time>2026-04-30T07:12:55Z</time></trkpt><trkpt lat="42.90467593927109" lon="-1.7986357886483955"><ele>479.99999999999994</ele><time>2026-04-30T07:12:56Z</time></trkpt><trkpt lat="42.90474179994511" lon="-1.7987345679531999"><ele>480.99999999999994</ele><time>2026-04-30T07:12:57Z</time></trkpt><trkpt lat="42.90481742935396" lon="-1.7988360521183282"><ele>482.0</ele><time>2026-04-30T07:12:58Z</time></trkpt><trkpt lat="42.90489010615665" lon="-1.7989401827803992"><ele>483.0</ele><time>2026-04-30T07:12:59Z</time></trkpt><trkpt lat="42.904961745713656" lon="-1.7990436827295784"><ele>483.0</ele><time>2026-04-30T07:13:00Z</time></trkpt><trkpt lat="42.905034481661296" lon="-1.799149943441896"><ele>482.99999999999994</ele><time>2026-04-30T07:13:01Z</time></trkpt><trkpt lat="42.90510865030046" lon="-1.7992553736852503"><ele>482.99999999999994</ele><time>2026-04-30T07:13:02Z</time></trkpt><trkpt lat="42.90518274203351" lon="-1.7993602285068029"><ele>483.0</ele><time>2026-04-30T07:13:03Z</time></trkpt><trkpt lat="42.905255006401376" lon="-1.7994644387337153"><ele>483.0</ele><time>2026-04-30T07:13:04Z</time></trkpt><trkpt lat="42.90532626558978" lon="-1.799569173958609"><ele>483.0</ele><time>2026-04-30T07:13:05Z</time></trkpt><trkpt lat="42.90539870538369" lon="-1.799672291138275"><ele>482.99999999999994</ele><time>2026-04-30T07:13:06Z</time></trkpt><trkpt lat="42.90547192163179" lon="-1.7997746787807238"><ele>482.99999999999994</ele><time>2026-04-30T07:13:07Z</time></trkpt><trkpt lat="42.90554492625748" lon="-1.7998773562057881"><ele>483.0</ele><time>2026-04-30T07:13:08Z</time></trkpt><trkpt lat="42.90561753835636" lon="-1.7999824362152927"><ele>483.0</ele><time>2026-04-30T07:13:09Z</time></trkpt><trkpt lat="42.90568929531682" lon="-1.8000842555287866"><ele>483.0</ele><time>2026-04-30T07:13:10Z</time></trkpt><trkpt lat="42.90576185247634" lon="-1.8001891628420803"><ele>482.99999999999994</ele><time>2026-04-30T07:13:11Z</time></trkpt><trkpt lat="42.90582866678383" lon="-1.8002949773437638"><ele>482.99999999999994</ele><time>2026-04-30T07:13:12Z</time></trkpt><trkpt lat="42.90589975904692" lon="-1.800396007010347"><ele>483.0</ele><time>2026-04-30T07:13:13Z</time></trkpt><trkpt lat="42.905973522881446" lon="-1.8004977156775646"><ele>483.0</ele><time>2026-04-30T07:13:14Z</time></trkpt><trkpt lat="42.90604641716703" lon="-1.8006003150382761"><ele>483.0</ele><time>2026-04-30T07:13:15Z</time></trkpt><trkpt lat="42.90611811108459" lon="-1.8007038221852678"><ele>482.99999999999994</ele><time>2026-04-30T07:13:16Z</time></trkpt><trkpt lat="42.906191959242136" lon="-1.8008044281655704"><ele>482.99999999999994</ele><time>2026-04-30T07:13:17Z</time></trkpt><trkpt lat="42.9062621999146" lon="-1.8009065441047172"><ele>483.0</ele><time>2026-04-30T07:13:18Z</time></trkpt><trkpt lat="42.906333422850764" lon="-1.8010084874007102"><ele>483.0</ele><time>2026-04-30T07:13:19Z</time></trkpt><trkpt lat="42.90640212390481" lon="-1.801110426388557"><ele>484.2</ele><time>2026-04-30T07:13:20Z</time></trkpt><trkpt lat="42.90646819539828" lon="-1.8012103330744342"><ele>485.4</ele><time>2026-04-30T07:13:21Z</time></trkpt><trkpt lat="42.90653682218895" lon="-1.8013075300642696"><ele>486.59999999999997</ele><time>2026-04-30T07:13:22Z</time></trkpt><trkpt lat="42.90660263641017" lon="-1.8014007510271202"><ele>487.79999999999995</ele><time>2026-04-30T07:13:23Z</time></trkpt><trkpt lat="42.90666863741441" lon="-1.801495700229021"><ele>489.0</ele><time>2026-04-30T07:13:24Z</time></trkpt><trkpt lat="42.906731375598696" lon="-1.8015916402737038"><ele>489.4</ele><time>2026-04-30T07:13:25Z</time></trkpt><trkpt lat="42.906794946939215" lon="-1.8016844653176853"><ele>489.79999999999995</ele><time>2026-04-30T07:13:26Z</time></trkpt><trkpt lat="42.906858423887755" lon="-1.8017749051219132"><ele>490.20000000000005</ele><time>2026-04-30T07:13:27Z</time></trkpt><trkpt lat="42.90692067044992" lon="-1.8018644848328764"><ele>490.6</ele><time>2026-04-30T07:13:28Z</time></trkpt><trkpt lat="42.90698196717396" lon="-1.8019541120468623"><ele>491.0</ele><time>2026-04-30T07:13:29Z</time></trkpt><trkpt lat="42.90704280150121" lon="-1.802041003768206"><ele>490.99999999999994</ele><time>2026-04-30T07:13:30Z</time></trkpt><trkpt lat="42.90710466457069" lon="-1.8021252139872388"><ele>491.0</ele><time>2026-04-30T07:13:31Z</time></trkpt><trkpt lat="42.907164264290834" lon="-1.8022121366162365"><ele>491.0</ele><time>2026-04-30T07:13:32Z</time></trkpt><trkpt lat="42.90722217617608" lon="-1.8022993186387086"><ele>491.0</ele><time>2026-04-30T07:13:33Z</time></trkpt><trkpt lat="42.907280548065195" lon="-1.802386317163562"><ele>490.99999999999994</ele><time>2026-04-30T07:13:34Z</time></trkpt><trkpt lat="42.90734103587623" lon="-1.8024720228397462"><ele>491.0</ele><time>2026-04-30T07:13:35Z</time></trkpt><trkpt lat="42.90740156461651" lon="-1.8025604357937712"><ele>491.0</ele><time>2026-04-30T07:13:36Z</time></trkpt><trkpt lat="42.90746502978119" lon="-1.8026504022969434"><ele>491.0</ele><time>2026-04-30T07:13:37Z</time></trkpt><trkpt lat="42.9075291172714" lon="-1.8027441370755806"><ele>491.0</ele><time>2026-04-30T07:13:38Z</time></trkpt><trkpt lat="42.90759690104833" lon="-1.8028385454326128"><ele>491.0</ele><time>2026-04-30T07:13:39Z</time></trkpt><trkpt lat="42.90766533655804" lon="-1.8029333279906943"><ele>491.0</ele><time>2026-04-30T07:13:40Z</time></trkpt><trkpt lat="42.90773178408853" lon="-1.8030330638581917"><ele>490.6</ele><time>2026-04-30T07:13:41Z</time></trkpt><trkpt lat="42.90780345870983" lon="-1.8031338103277097"><ele>490.20000000000005</ele><time>2026-04-30T07:13:42Z</time></trkpt><trkpt lat="42.90787296491904" lon="-1.8032338673880162"><ele>489.79999999999995</ele><time>2026-04-30T07:13:43Z</time></trkpt><trkpt lat="42.90794439099213" lon="-1.8033349085136205"><ele>489.4</ele><time>2026-04-30T07:13:44Z</time></trkpt><trkpt lat="42.90801460788118" lon="-1.8034374319371385"><ele>489.0</ele><time>2026-04-30T07:13:45Z</time></trkpt><trkpt lat="42.908085282683416" lon="-1.8035399988859078"><ele>489.6</ele><time>2026-04-30T07:13:46Z</time></trkpt><trkpt lat="42.90815520759269" lon="-1.8036435626395657"><ele>490.2</ele><time>2026-04-30T07:13:47Z</time></trkpt><trkpt lat="42.90822923036716" lon="-1.80374842692308"><ele>490.80000000000007</ele><time>2026-04-30T07:13:48Z</time></trkpt><trkpt lat="42.908300857678995" lon="-1.803851869493937"><ele>491.40000000000003</ele><time>2026-04-30T07:13:49Z</time></trkpt><trkpt lat="42.90837413941173" lon="-1.80395672319011"><ele>492.0</ele><time>2026-04-30T07:13:50Z</time></trkpt><trkpt lat="42.90844614622985" lon="-1.8040602235893364"><ele>492.0</ele><time>2026-04-30T07:13:51Z</time></trkpt><trkpt lat="42.90851678156428" lon="-1.8041582479358562"><ele>492.00000000000006</ele><time>2026-04-30T07:13:52Z</time></trkpt><trkpt lat="42.908582701669516" lon="-1.804253301755048"><ele>492.00000000000006</ele><time>2026-04-30T07:13:53Z</time></trkpt><trkpt lat="42.9086455108769" lon="-1.8043450922946085"><ele>492.0</ele><time>2026-04-30T07:13:54Z</time></trkpt><trkpt lat="42.90870740241192" lon="-1.804434025251117"><ele>492.0</ele><time>2026-04-30T07:13:55Z</time></trkpt><trkpt lat="42.90876890028905" lon="-1.8045213862300986"><ele>493.0</ele><time>2026-04-30T07:13:56Z</time></trkpt><trkpt lat="42.90882782581749" lon="-1.8046085246946846"><ele>494.0</ele><time>2026-04-30T07:13:57Z</time></trkpt><trkpt lat="42.908888659731396" lon="-1.8046941503275253"><ele>495.0</ele><time>2026-04-30T07:13:58Z</time></trkpt><trkpt lat="42.90894906803599" lon="-1.8047827908925704"><ele>496.0</ele><time>2026-04-30T07:13:59Z</time></trkpt><trkpt lat="42.90901022941159" lon="-1.8048706089308633"><ele>497.0</ele><time>2026-04-30T07:14:00Z</time></trkpt><trkpt lat="42.909071699237494" lon="-1.8049575057675153"><ele>498.0</ele><time>2026-04-30T07:14:01Z</time></trkpt><trkpt lat="42.90913432747856" lon="-1.8050476705614948"><ele>498.0</ele><time>2026-04-30T07:14:02Z</time></trkpt><trkpt lat="42.90919943503438" lon="-1.8051423839292327"><ele>497.99999999999994</ele><time>2026-04-30T07:14:03Z</time></trkpt><trkpt lat="42.90925772825246" lon="-1.805233940996789"><ele>497.99999999999994</ele><time>2026-04-30T07:14:04Z</time></trkpt><trkpt lat="42.90931796008941" lon="-1.8053294457663287"><ele>498.0</ele><time>2026-04-30T07:14:05Z</time></trkpt><trkpt lat="42.90937589886289" lon="-1.8054270208418701"><ele>498.0</ele><time>2026-04-30T07:14:06Z</time></trkpt><trkpt lat="42.909433045996195" lon="-1.8055283306267225"><ele>497.79999999999995</ele><time>2026-04-30T07:14:07Z</time></trkpt><trkpt lat="42.90948623548152" lon="-1.8056300526099356"><ele>497.59999999999997</ele><time>2026-04-30T07:14:08Z</time></trkpt><trkpt lat="42.909541236532334" lon="-1.8057383704913454"><ele>497.40000000000003</ele><time>2026-04-30T07:14:09Z</time></trkpt><trkpt lat="42.90959632533298" lon="-1.8058485697212514"><ele>497.20000000000005</ele><time>2026-04-30T07:14:10Z</time></trkpt><trkpt lat="42.909650339483996" lon="-1.8059668055923623"><ele>497.0</ele><time>2026-04-30T07:14:11Z</time></trkpt><trkpt lat="42.909710892816044" lon="-1.8060888793292467"><ele>497.6</ele><time>2026-04-30T07:14:12Z</time></trkpt><trkpt lat="42.90977124305188" lon="-1.80621169412521"><ele>498.20000000000005</ele><time>2026-04-30T07:14:13Z</time></trkpt><trkpt lat="42.90983154130005" lon="-1.8063366237295317"><ele>498.8</ele><time>2026-04-30T07:14:14Z</time></trkpt><trkpt lat="42.90989294897662" lon="-1.806461950521381"><ele>499.4</ele><time>2026-04-30T07:14:15Z</time></trkpt><trkpt lat="42.90995480923981" lon="-1.806586586580445"><ele>500.0</ele><time>2026-04-30T07:14:16Z</time></trkpt><trkpt lat="42.9100152821361" lon="-1.8067183885523168"><ele>500.4</ele><time>2026-04-30T07:14:17Z</time></trkpt><trkpt lat="42.910074872081566" lon="-1.8068455110466706"><ele>500.8</ele><time>2026-04-30T07:14:18Z</time></trkpt><trkpt lat="42.9101347394829" lon="-1.8069727019440458"><ele>501.20000000000005</ele><time>2026-04-30T07:14:19Z</time></trkpt><trkpt lat="42.910195425425414" lon="-1.8070982491567553"><ele>501.6</ele><time>2026-04-30T07:14:20Z</time></trkpt><trkpt lat="42.910254470354054" lon="-1.807220641891066"><ele>502.0</ele><time>2026-04-30T07:14:21Z</time></trkpt><trkpt lat="42.91031333430294" lon="-1.8073387038443645"><ele>502.0</ele><time>2026-04-30T07:14:22Z</time></trkpt><trkpt lat="42.91036757663554" lon="-1.8074567943379012"><ele>502.00000000000006</ele><time>2026-04-30T07:14:23Z</time></trkpt><trkpt lat="42.910421169608284" lon="-1.807570098134784"><ele>502.00000000000006</ele><time>2026-04-30T07:14:24Z</time></trkpt><trkpt lat="42.910474374159634" lon="-1.8076803776670598"><ele>502.0</ele><time>2026-04-30T07:14:25Z</time></trkpt><trkpt lat="42.910527728139726" lon="-1.8077875924960216"><ele>502.0</ele><time>2026-04-30T07:14:26Z</time></trkpt><trkpt lat="42.910579133959445" lon="-1.8078959095586256"><ele>503.0</ele><time>2026-04-30T07:14:27Z</time></trkpt><trkpt lat="42.910629922674765" lon="-1.8080012939207804"><ele>504.00000000000006</ele><time>2026-04-30T07:14:28Z</time></trkpt><trkpt lat="42.910679033783325" lon="-1.8081074188410526"><ele>505.00000000000006</ele><time>2026-04-30T07:14:29Z</time></trkpt><trkpt lat="42.9107283847134" lon="-1.8082128606857797"><ele>506.0</ele><time>2026-04-30T07:14:30Z</time></trkpt><trkpt lat="42.91077896477822" lon="-1.808312397894263"><ele>507.0</ele><time>2026-04-30T07:14:31Z</time></trkpt><trkpt lat="42.910825585695775" lon="-1.8084132618446964"><ele>508.0</ele><time>2026-04-30T07:14:32Z</time></trkpt><trkpt lat="42.91087258552999" lon="-1.8085142657235243"><ele>509.0</ele><time>2026-04-30T07:14:33Z</time></trkpt><trkpt lat="42.91092034277273" lon="-1.8086130885438567"><ele>510.0</ele><time>2026-04-30T07:14:34Z</time></trkpt><trkpt lat="42.91096790141696" lon="-1.8087091045847135"><ele>511.0</ele><time>2026-04-30T07:14:35Z</time></trkpt><trkpt lat="42.91101379666309" lon="-1.808806609948146"><ele>512.0</ele><time>2026-04-30T07:14:36Z</time></trkpt><trkpt lat="42.911059008874616" lon="-1.8089027842471144"><ele>513.0</ele><time>2026-04-30T07:14:37Z</time></trkpt><trkpt lat="42.91110648260172" lon="-1.8089999872681148"><ele>513.0</ele><time>2026-04-30T07:14:38Z</time></trkpt><trkpt lat="42.91115262245063" lon="-1.8090977189654323"><ele>513.0</ele><time>2026-04-30T07:14:39Z</time></trkpt><trkpt lat="42.91119917601167" lon="-1.8091946000028654"><ele>513.0</ele><time>2026-04-30T07:14:40Z</time></trkpt><trkpt lat="42.91124523893907" lon="-1.8092891173422843"><ele>513.0</ele><time>2026-04-30T07:14:41Z</time></trkpt><trkpt lat="42.91129281402684" lon="-1.8093787290887149"><ele>513.0</ele><time>2026-04-30T07:14:42Z</time></trkpt><trkpt lat="42.91133591464741" lon="-1.809472940111196"><ele>513.0</ele><time>2026-04-30T07:14:43Z</time></trkpt><trkpt lat="42.91138067455103" lon="-1.8095665364529767"><ele>513.8333333333334</ele><time>2026-04-30T07:14:44Z</time></trkpt><trkpt lat="42.91142462732974" lon="-1.8096602052211694"><ele>514.6666666666666</ele><time>2026-04-30T07:14:45Z</time></trkpt><trkpt lat="42.91146785349657" lon="-1.8097545183222294"><ele>515.5</ele><time>2026-04-30T07:14:46Z</time></trkpt><trkpt lat="42.911510103159785" lon="-1.8098514653859519"><ele>516.3333333333333</ele><time>2026-04-30T07:14:47Z</time></trkpt><trkpt lat="42.91155521364642" lon="-1.809943311719772"><ele>517.1666666666666</ele><time>2026-04-30T07:14:48Z</time></trkpt><trkpt lat="42.91159909464047" lon="-1.8100340007200557"><ele>518.0</ele><time>2026-04-30T07:14:49Z</time></trkpt><trkpt lat="42.911642880249524" lon="-1.810123077321372"><ele>519.3333333333333</ele><time>2026-04-30T07:14:50Z</time></trkpt><trkpt lat="42.91168503704293" lon="-1.8102120346901116"><ele>520.6666666666666</ele><time>2026-04-30T07:14:51Z</time></trkpt><trkpt lat="42.91172571150855" lon="-1.8103007658523762"><ele>522.0</ele><time>2026-04-30T07:14:52Z</time></trkpt><trkpt lat="42.91176800430374" lon="-1.8103857851104606"><ele>523.3333333333334</ele><time>2026-04-30T07:14:53Z</time></trkpt><trkpt lat="42.91180929844102" lon="-1.810473715529382"><ele>524.6666666666667</ele><time>2026-04-30T07:14:54Z</time></trkpt><trkpt lat="42.91185032174858" lon="-1.810562324517689"><ele>526.0</ele><time>2026-04-30T07:14:55Z</time></trkpt><trkpt lat="42.911889844948305" lon="-1.810651705167067"><ele>526.0</ele><time>2026-04-30T07:14:56Z</time></trkpt><trkpt lat="42.91192902380963" lon="-1.8107409182604421"><ele>526.0</ele><time>2026-04-30T07:14:57Z</time></trkpt><trkpt lat="42.91196575039325" lon="-1.8108322286459697"><ele>526.0</ele><time>2026-04-30T07:14:58Z</time></trkpt><trkpt lat="42.91200221307717" lon="-1.8109261219653663"><ele>526.0</ele><time>2026-04-30T07:14:59Z</time></trkpt><trkpt lat="42.91203603550259" lon="-1.811024157251332"><ele>526.0</ele><time>2026-04-30T07:15:00Z</time></trkpt><trkpt lat="42.912070119696665" lon="-1.8111242406273684"><ele>526.0</ele><time>2026-04-30T07:15:01Z</time></trkpt><trkpt lat="42.91210103682952" lon="-1.8112242130055927"><ele>527.0</ele><time>2026-04-30T07:15:02Z</time></trkpt><trkpt lat="42.91213321783369" lon="-1.8113235843098285"><ele>528.0</ele><time>2026-04-30T07:15:03Z</time></trkpt><trkpt lat="42.912167952219704" lon="-1.811421514385"><ele>529.0</ele><time>2026-04-30T07:15:04Z</time></trkpt><trkpt lat="42.912200978580195" lon="-1.8115177609853768"><ele>530.0</ele><time>2026-04-30T07:15:05Z</time></trkpt><trkpt lat="42.91223480138261" lon="-1.8116123249165121"><ele>531.0</ele><time>2026-04-30T07:15:06Z</time></trkpt><trkpt lat="42.91226481112038" lon="-1.8117095987346807"><ele>532.0</ele><time>2026-04-30T07:15:07Z</time></trkpt><trkpt lat="42.91229535743319" lon="-1.8118054909696186"><ele>532.8333333333334</ele><time>2026-04-30T07:15:08Z</time></trkpt><trkpt lat="42.91232796916277" lon="-1.811900031793399"><ele>533.6666666666667</ele><time>2026-04-30T07:15:09Z</time></trkpt><trkpt lat="42.91235977135908" lon="-1.8119928889091366"><ele>534.5</ele><time>2026-04-30T07:15:10Z</time></trkpt><trkpt lat="42.91239166529513" lon="-1.8120877794714527"><ele>535.3333333333334</ele><time>2026-04-30T07:15:11Z</time></trkpt><trkpt lat="42.91242376208056" lon="-1.8121831704898301"><ele>536.1666666666666</ele><time>2026-04-30T07:15:12Z</time></trkpt><trkpt lat="42.91245481539743" lon="-1.8122788221866952"><ele>537.0</ele><time>2026-04-30T07:15:13Z</time></trkpt><trkpt lat="42.912485511957186" lon="-1.8123778212884762"><ele>537.0</ele><time>2026-04-30T07:15:14Z</time></trkpt><trkpt lat="42.91251344848068" lon="-1.8124786978632608"><ele>537.0</ele><time>2026-04-30T07:15:15Z</time></trkpt><trkpt lat="42.912545349619286" lon="-1.8125768387176082"><ele>537.0</ele><time>2026-04-30T07:15:16Z</time></trkpt><trkpt lat="42.91257963069337" lon="-1.8126760573191338"><ele>537.0</ele><time>2026-04-30T07:15:17Z</time></trkpt><trkpt lat="42.91261402463113" lon="-1.8127787633931065"><ele>537.0</ele><time>2026-04-30T07:15:18Z</time></trkpt><trkpt lat="42.91265005430999" lon="-1.8128893893712028"><ele>537.0</ele><time>2026-04-30T07:15:19Z</time></trkpt><trkpt lat="42.9126876331742" lon="-1.8130036578487128"><ele>536.6</ele><time>2026-04-30T07:15:20Z</time></trkpt><trkpt lat="42.91272746169302" lon="-1.8131267391900097"><ele>536.2</ele><time>2026-04-30T07:15:21Z</time></trkpt><trkpt lat="42.91276762365645" lon="-1.8132555270397135"><ele>535.8</ele><time>2026-04-30T07:15:22Z</time></trkpt><trkpt lat="42.912809212755654" lon="-1.8133794723609855"><ele>535.4</ele><time>2026-04-30T07:15:23Z</time></trkpt><trkpt lat="42.91284963026569" lon="-1.8135090328909427"><ele>535.0</ele><time>2026-04-30T07:15:24Z</time></trkpt><trkpt lat="42.91289317997769" lon="-1.813641911037572"><ele>534.8</ele><time>2026-04-30T07:15:25Z</time></trkpt><trkpt lat="42.91293742188312" lon="-1.8137745642448748"><ele>534.6</ele><time>2026-04-30T07:15:26Z</time></trkpt><trkpt lat="42.91298118938061" lon="-1.8139110086239465"><ele>534.4</ele><time>2026-04-30T07:15:27Z</time></trkpt><trkpt lat="42.9130249716085" lon="-1.814048655282807"><ele>534.2</ele><time>2026-04-30T07:15:28Z</time></trkpt><trkpt lat="42.91307178742511" lon="-1.8141864727097636"><ele>534.0</ele><time>2026-04-30T07:15:29Z</time></trkpt><trkpt lat="42.91311932820389" lon="-1.8143236182678735"><ele>532.8</ele><time>2026-04-30T07:15:30Z</time></trkpt><trkpt lat="42.913164562948886" lon="-1.8144630319519952"><ele>531.5999999999999</ele><time>2026-04-30T07:15:31Z</time></trkpt><trkpt lat="42.91321072921963" lon="-1.814601415269219"><ele>530.4</ele><time>2026-04-30T07:15:32Z</time></trkpt><trkpt lat="42.913255497076925" lon="-1.8147378140373562"><ele>529.1999999999999</ele><time>2026-04-30T07:15:33Z</time></trkpt><trkpt lat="42.913298087502206" lon="-1.8148740455153591"><ele>528.0</ele><time>2026-04-30T07:15:34Z</time></trkpt><trkpt lat="42.913343693088365" lon="-1.8150092917351952"><ele>528.0</ele><time>2026-04-30T07:15:35Z</time></trkpt><trkpt lat="42.91338721958289" lon="-1.8151420690046882"><ele>528.0</ele><time>2026-04-30T07:15:36Z</time></trkpt><trkpt lat="42.91343254661468" lon="-1.8152724403175597"><ele>528.0</ele><time>2026-04-30T07:15:37Z</time></trkpt><trkpt lat="42.91347556919732" lon="-1.8154021800106013"><ele>528.0</ele><time>2026-04-30T07:15:38Z</time></trkpt><trkpt lat="42.91351605101143" lon="-1.8155287201381038"><ele>528.0</ele><time>2026-04-30T07:15:39Z</time></trkpt><trkpt lat="42.91355804436138" lon="-1.8156566487245451"><ele>529.0</ele><time>2026-04-30T07:15:40Z</time></trkpt><trkpt lat="42.91360076560478" lon="-1.8157836907420555"><ele>530.0</ele><time>2026-04-30T07:15:41Z</time></trkpt><trkpt lat="42.91364303356634" lon="-1.8159136511269363"><ele>531.0</ele><time>2026-04-30T07:15:42Z</time></trkpt><trkpt lat="42.91368716855676" lon="-1.8160448109448675"><ele>532.0</ele><time>2026-04-30T07:15:43Z</time></trkpt><trkpt lat="42.91373129636729" lon="-1.81617699214431"><ele>533.0</ele><time>2026-04-30T07:15:44Z</time></trkpt><trkpt lat="42.91377513415499" lon="-1.8163082876773717"><ele>530.1999999999999</ele><time>2026-04-30T07:15:45Z</time></trkpt><trkpt lat="42.91381992102034" lon="-1.8164400994862149"><ele>527.4</ele><time>2026-04-30T07:15:46Z</time></trkpt><trkpt lat="42.91386371333214" lon="-1.8165729201702603"><ele>524.5999999999999</ele><time>2026-04-30T07:15:47Z</time></trkpt><trkpt lat="42.91390773437336" lon="-1.8167059198456161"><ele>521.8</ele><time>2026-04-30T07:15:48Z</time></trkpt><trkpt lat="42.91395306501442" lon="-1.8168365447882715"><ele>519.0</ele><time>2026-04-30T07:15:49Z</time></trkpt><trkpt lat="42.91399603027704" lon="-1.8169698016056544"><ele>519.0</ele><time>2026-04-30T07:15:50Z</time></trkpt><trkpt lat="42.91404568798878" lon="-1.817102280154696"><ele>519.0</ele><time>2026-04-30T07:15:51Z</time></trkpt><trkpt lat="42.914097294391446" lon="-1.8172289887406898"><ele>519.0</ele><time>2026-04-30T07:15:52Z</time></trkpt><trkpt lat="42.91415467097199" lon="-1.817354531345878"><ele>519.0</ele><time>2026-04-30T07:15:53Z</time></trkpt><trkpt lat="42.91422050492236" lon="-1.8174696450893446"><ele>519.0</ele><time>2026-04-30T07:15:54Z</time></trkpt><trkpt lat="42.914292954863875" lon="-1.8175727664276218"><ele>515.6</ele><time>2026-04-30T07:15:55Z</time></trkpt><trkpt lat="42.91436937666469" lon="-1.8176724855494624"><ele>512.2</ele><time>2026-04-30T07:15:56Z</time></trkpt><trkpt lat="42.91445460418558" lon="-1.8177658356695445"><ele>508.80000000000007</ele><time>2026-04-30T07:15:57Z</time></trkpt><trkpt lat="42.914543201034945" lon="-1.8178598046521368"><ele>505.40000000000003</ele><time>2026-04-30T07:15:58Z</time></trkpt><trkpt lat="42.914633634583296" lon="-1.8179463223690724"><ele>502.0</ele><time>2026-04-30T07:15:59Z</time></trkpt><trkpt lat="42.914721004095476" lon="-1.8180415291447938"><ele>502.0</ele><time>2026-04-30T07:16:00Z</time></trkpt><trkpt lat="42.91481162109858" lon="-1.8181293507711753"><ele>502.00000000000006</ele><time>2026-04-30T07:16:01Z</time></trkpt><trkpt lat="42.91489856018649" lon="-1.8182210122204896"><ele>502.00000000000006</ele><time>2026-04-30T07:16:02Z</time></trkpt><trkpt lat="42.91498630424676" lon="-1.8183074449562988"><ele>502.0</ele><time>2026-04-30T07:16:03Z</time></trkpt><trkpt lat="42.91507350526078" lon="-1.8183944281908186"><ele>502.0</ele><time>2026-04-30T07:16:04Z</time></trkpt><trkpt lat="42.91516226593294" lon="-1.8184808896386162"><ele>501.6</ele><time>2026-04-30T07:16:05Z</time></trkpt><trkpt lat="42.915248022511506" lon="-1.818567843658763"><ele>501.20000000000005</ele><time>2026-04-30T07:16:06Z</time></trkpt><trkpt lat="42.91533340735235" lon="-1.818656681161722"><ele>500.8</ele><time>2026-04-30T07:16:07Z</time></trkpt><trkpt lat="42.91542133925231" lon="-1.8187432319649193"><ele>500.4</ele><time>2026-04-30T07:16:08Z</time></trkpt><trkpt lat="42.91550959441242" lon="-1.8188320202525743"><ele>500.0</ele><time>2026-04-30T07:16:09Z</time></trkpt><trkpt lat="42.91559475759449" lon="-1.8189172829395297"><ele>500.0</ele><time>2026-04-30T07:16:10Z</time></trkpt><trkpt lat="42.915679179642126" lon="-1.8190075353158464"><ele>500.0</ele><time>2026-04-30T07:16:11Z</time></trkpt><trkpt lat="42.91576222789624" lon="-1.819099230423536"><ele>500.0</ele><time>2026-04-30T07:16:12Z</time></trkpt><trkpt lat="42.91584260543424" lon="-1.819196448964331"><ele>500.0</ele><time>2026-04-30T07:16:13Z</time></trkpt><trkpt lat="42.91592129699628" lon="-1.8192965806738772"><ele>500.0</ele><time>2026-04-30T07:16:14Z</time></trkpt><trkpt lat="42.91599619289097" lon="-1.8194027645927948"><ele>500.4</ele><time>2026-04-30T07:16:15Z</time></trkpt><trkpt lat="42.916068123528504" lon="-1.8195154727248426"><ele>500.8</ele><time>2026-04-30T07:16:16Z</time></trkpt><trkpt lat="42.91613165190795" lon="-1.8196383806257972"><ele>501.20000000000005</ele><time>2026-04-30T07:16:17Z</time></trkpt><trkpt lat="42.916190872468995" lon="-1.8197702651253922"><ele>501.6</ele><time>2026-04-30T07:16:18Z</time></trkpt><trkpt lat="42.91624538824209" lon="-1.8199003707154964"><ele>502.0</ele><time>2026-04-30T07:16:19Z</time></trkpt><trkpt lat="42.91629994485408" lon="-1.8200281733899901"><ele>499.6</ele><time>2026-04-30T07:16:20Z</time></trkpt><trkpt lat="42.916354769850265" lon="-1.820160196029944"><ele>497.20000000000005</ele><time>2026-04-30T07:16:21Z</time></trkpt><trkpt lat="42.91640842428058" lon="-1.8202885827301472"><ele>494.8</ele><time>2026-04-30T07:16:22Z</time></trkpt><trkpt lat="42.91646348292524" lon="-1.8204155687495913"><ele>492.4</ele><time>2026-04-30T07:16:23Z</time></trkpt><trkpt lat="42.91652107035925" lon="-1.8205459133646489"><ele>490.0</ele><time>2026-04-30T07:16:24Z</time></trkpt><trkpt lat="42.916576863783604" lon="-1.820671725828869"><ele>490.0</ele><time>2026-04-30T07:16:25Z</time></trkpt><trkpt lat="42.91662844532718" lon="-1.820801129452134"><ele>490.0</ele><time>2026-04-30T07:16:26Z</time></trkpt><trkpt lat="42.91668097543152" lon="-1.820927758908744"><ele>490.0</ele><time>2026-04-30T07:16:27Z</time></trkpt><trkpt lat="42.916733560770226" lon="-1.8210518062449017"><ele>490.0</ele><time>2026-04-30T07:16:28Z</time></trkpt><trkpt lat="42.91678610237049" lon="-1.8211769352734004"><ele>490.0</ele><time>2026-04-30T07:16:29Z</time></trkpt><trkpt lat="42.91683709941783" lon="-1.821305355160122"><ele>490.2</ele><time>2026-04-30T07:16:30Z</time></trkpt><trkpt lat="42.91688912856799" lon="-1.8214319232264897"><ele>490.4</ele><time>2026-04-30T07:16:31Z</time></trkpt><trkpt lat="42.916940966914666" lon="-1.8215576535238802"><ele>490.6</ele><time>2026-04-30T07:16:32Z</time></trkpt><trkpt lat="42.91698878779122" lon="-1.8216878451788103"><ele>490.8</ele><time>2026-04-30T07:16:33Z</time></trkpt><trkpt lat="42.917035092578374" lon="-1.8218220436889112"><ele>491.0</ele><time>2026-04-30T07:16:34Z</time></trkpt><trkpt lat="42.917072549308486" lon="-1.8219633093454353"><ele>491.0</ele><time>2026-04-30T07:16:35Z</time></trkpt><trkpt lat="42.917102457490486" lon="-1.8221043320356192"><ele>491.0</ele><time>2026-04-30T07:16:36Z</time></trkpt><trkpt lat="42.9171264134216" lon="-1.822247213287507"><ele>491.0</ele><time>2026-04-30T07:16:37Z</time></trkpt><trkpt lat="42.917150278693406" lon="-1.8223900075965354"><ele>491.0</ele><time>2026-04-30T07:16:38Z</time></trkpt><trkpt lat="42.91717343251197" lon="-1.8225325442312788"><ele>491.0</ele><time>2026-04-30T07:16:39Z</time></trkpt><trkpt lat="42.91719336396823" lon="-1.8226730384538112"><ele>490.4</ele><time>2026-04-30T07:16:40Z</time></trkpt><trkpt lat="42.917209127618044" lon="-1.8228178226207283"><ele>489.8</ele><time>2026-04-30T07:16:41Z</time></trkpt><trkpt lat="42.91722763891473" lon="-1.8229583506929634"><ele>489.19999999999993</ele><time>2026-04-30T07:16:42Z</time></trkpt><trkpt lat="42.91724964600149" lon="-1.8231021350798224"><ele>488.59999999999997</ele><time>2026-04-30T07:16:43Z</time></trkpt><trkpt lat="42.9172702707075" lon="-1.823240176249246"><ele>488.0</ele><time>2026-04-30T07:16:44Z</time></trkpt><trkpt lat="42.917290531000845" lon="-1.8233772945155564"><ele>487.2</ele><time>2026-04-30T07:16:45Z</time></trkpt><trkpt lat="42.91730991340797" lon="-1.8235129650656814"><ele>486.4</ele><time>2026-04-30T07:16:46Z</time></trkpt><trkpt lat="42.917327024614664" lon="-1.823647771902279"><ele>485.59999999999997</ele><time>2026-04-30T07:16:47Z</time></trkpt><trkpt lat="42.917345926365435" lon="-1.82378402962869"><ele>484.79999999999995</ele><time>2026-04-30T07:16:48Z</time></trkpt><trkpt lat="42.91736332688904" lon="-1.8239168786936995"><ele>484.0</ele><time>2026-04-30T07:16:49Z</time></trkpt><trkpt lat="42.91738184106199" lon="-1.8240504560520712"><ele>484.0</ele><time>2026-04-30T07:16:50Z</time></trkpt><trkpt lat="42.91740217631151" lon="-1.8241818155354852"><ele>484.0</ele><time>2026-04-30T07:16:51Z</time></trkpt><trkpt lat="42.91742133293264" lon="-1.8243079162549063"><ele>484.0</ele><time>2026-04-30T07:16:52Z</time></trkpt><trkpt lat="42.917438963300654" lon="-1.8244321744753966"><ele>484.0</ele><time>2026-04-30T07:16:53Z</time></trkpt><trkpt lat="42.917456797618705" lon="-1.8245527187446198"><ele>484.0</ele><time>2026-04-30T07:16:54Z</time></trkpt><trkpt lat="42.91747735040971" lon="-1.824670495579193"><ele>484.6666666666667</ele><time>2026-04-30T07:16:55Z</time></trkpt><trkpt lat="42.91749823888895" lon="-1.8247882184960975"><ele>485.33333333333337</ele><time>2026-04-30T07:16:56Z</time></trkpt><trkpt lat="42.91752260267522" lon="-1.8249035160590665"><ele>486.0</ele><time>2026-04-30T07:16:57Z</time></trkpt><trkpt lat="42.91754801906196" lon="-1.8250177934781435"><ele>486.66666666666663</ele><time>2026-04-30T07:16:58Z</time></trkpt><trkpt lat="42.917580011580384" lon="-1.8251289295515987"><ele>487.3333333333333</ele><time>2026-04-30T07:16:59Z</time></trkpt><trkpt lat="42.9176163189565" lon="-1.8252342367624839"><ele>488.0</ele><time>2026-04-30T07:17:00Z</time></trkpt><trkpt lat="42.91765606079795" lon="-1.8253362168130582"><ele>486.3333333333333</ele><time>2026-04-30T07:17:01Z</time></trkpt><trkpt lat="42.917694963894654" lon="-1.8254396237603923"><ele>484.66666666666663</ele><time>2026-04-30T07:17:02Z</time></trkpt><trkpt lat="42.91773434089265" lon="-1.8255412987424082"><ele>483.0</ele><time>2026-04-30T07:17:03Z</time></trkpt><trkpt lat="42.9177751506842" lon="-1.8256347277390483"><ele>481.33333333333337</ele><time>2026-04-30T07:17:04Z</time></trkpt><trkpt lat="42.917819039329245" lon="-1.8257334767839912"><ele>479.6666666666667</ele><time>2026-04-30T07:17:05Z</time></trkpt><trkpt lat="42.91785855896821" lon="-1.8258308161504353"><ele>478.0</ele><time>2026-04-30T07:17:06Z</time></trkpt><trkpt lat="42.91790026539318" lon="-1.8259303467921657"><ele>477.33333333333337</ele><time>2026-04-30T07:17:07Z</time></trkpt><trkpt lat="42.91793076614801" lon="-1.8260271299305582"><ele>476.6666666666667</ele><time>2026-04-30T07:17:08Z</time></trkpt><trkpt lat="42.917979533887454" lon="-1.8261054190818025"><ele>476.0</ele><time>2026-04-30T07:17:09Z</time></trkpt><trkpt lat="42.91802123520493" lon="-1.8262061465489359"><ele>475.33333333333337</ele><time>2026-04-30T07:17:10Z</time></trkpt><trkpt lat="42.91806521274546" lon="-1.8263013193644844"><ele>474.6666666666667</ele><time>2026-04-30T07:17:11Z</time></trkpt><trkpt lat="42.918120135923054" lon="-1.8263980641542958"><ele>474.0</ele><time>2026-04-30T07:17:12Z</time></trkpt><trkpt lat="42.918169067724236" lon="-1.8264927106902673"><ele>474.0</ele><time>2026-04-30T07:17:13Z</time></trkpt><trkpt lat="42.91821539582717" lon="-1.826595180290559"><ele>474.0</ele><time>2026-04-30T07:17:14Z</time></trkpt><trkpt lat="42.91825939508117" lon="-1.826696665629927"><ele>474.0</ele><time>2026-04-30T07:17:15Z</time></trkpt><trkpt lat="42.91829480774357" lon="-1.8267877227607539"><ele>474.0</ele><time>2026-04-30T07:17:16Z</time></trkpt><trkpt lat="42.91833337747711" lon="-1.8268803753504859"><ele>474.0</ele><time>2026-04-30T07:17:17Z</time></trkpt><trkpt lat="42.91836805354767" lon="-1.8269770820858129"><ele>474.0</ele><time>2026-04-30T07:17:18Z</time></trkpt><trkpt lat="42.9184073476368" lon="-1.8270668333722695"><ele>474.0</ele><time>2026-04-30T07:17:19Z</time></trkpt><trkpt lat="42.91845318168267" lon="-1.8271614577838602"><ele>474.0</ele><time>2026-04-30T07:17:20Z</time></trkpt><trkpt lat="42.918491745390774" lon="-1.8272567236903121"><ele>474.0</ele><time>2026-04-30T07:17:21Z</time></trkpt><trkpt lat="42.918527513568044" lon="-1.8273505511836496"><ele>474.0</ele><time>2026-04-30T07:17:22Z</time></trkpt><trkpt lat="42.918559644598844" lon="-1.8274443673998708"><ele>474.0</ele><time>2026-04-30T07:17:23Z</time></trkpt><trkpt lat="42.91859945944226" lon="-1.8275409447097963"><ele>474.0</ele><time>2026-04-30T07:17:24Z</time></trkpt><trkpt lat="42.9186419496619" lon="-1.8276257526711168"><ele>473.5</ele><time>2026-04-30T07:17:25Z</time></trkpt><trkpt lat="42.91867956327927" lon="-1.8277209366947422"><ele>473.0</ele><time>2026-04-30T07:17:26Z</time></trkpt><trkpt lat="42.91871900818147" lon="-1.8278259752610797"><ele>472.5</ele><time>2026-04-30T07:17:27Z</time></trkpt><trkpt lat="42.91876047853224" lon="-1.8279140746951472"><ele>472.0</ele><time>2026-04-30T07:17:28Z</time></trkpt><trkpt lat="42.918796448831415" lon="-1.8280031751525891"><ele>471.5</ele><time>2026-04-30T07:17:29Z</time></trkpt><trkpt lat="42.918831405909515" lon="-1.8280937105382336"><ele>471.0</ele><time>2026-04-30T07:17:30Z</time></trkpt><trkpt lat="42.91886240400309" lon="-1.8281764320265583"><ele>471.0</ele><time>2026-04-30T07:17:31Z</time></trkpt><trkpt lat="42.91890247413434" lon="-1.8282537718983847"><ele>471.0</ele><time>2026-04-30T07:17:32Z</time></trkpt><trkpt lat="42.918944353965465" lon="-1.82833018082845"><ele>471.0</ele><time>2026-04-30T07:17:33Z</time></trkpt><trkpt lat="42.91898294796443" lon="-1.828424051681583"><ele>471.0</ele><time>2026-04-30T07:17:34Z</time></trkpt><trkpt lat="42.91901634032893" lon="-1.8285305927931412"><ele>471.0</ele><time>2026-04-30T07:17:35Z</time></trkpt><trkpt lat="42.919067430816014" lon="-1.8286232862254033"><ele>471.0</ele><time>2026-04-30T07:17:36Z</time></trkpt><trkpt lat="42.91910746729864" lon="-1.8287210870317916"><ele>469.4</ele><time>2026-04-30T07:17:37Z</time></trkpt><trkpt lat="42.9191650031362" lon="-1.8288128937156967"><ele>467.8</ele><time>2026-04-30T07:17:39Z</time></trkpt><trkpt lat="42.91921865655813" lon="-1.8289106201885086"><ele>466.19999999999993</ele><time>2026-04-30T07:17:41Z</time></trkpt><trkpt lat="42.91916110060166" lon="-1.8290811227539834"><ele>464.59999999999997</ele><time>2026-04-30T07:17:44Z</time></trkpt><trkpt lat="42.919102149277414" lon="-1.829189525628149"><ele>463.0</ele><time>2026-04-30T07:17:46Z</time></trkpt><trkpt lat="42.91906040626606" lon="-1.8293192016722692"><ele>462.4</ele><time>2026-04-30T07:17:48Z</time></trkpt><trkpt lat="42.91903580050817" lon="-1.829463208196868"><ele>461.79999999999995</ele><time>2026-04-30T07:17:50Z</time></trkpt><trkpt lat="42.91902405298557" lon="-1.8296153037241212"><ele>461.2</ele><time>2026-04-30T07:17:52Z</time></trkpt><trkpt lat="42.91901257204785" lon="-1.8297763442858754"><ele>460.6</ele><time>2026-04-30T07:17:54Z</time></trkpt><trkpt lat="42.919004844023874" lon="-1.8298673126602532"><ele>460.0</ele><time>2026-04-30T07:17:55Z</time></trkpt><trkpt lat="42.91900456221311" lon="-1.8299565469732852"><ele>460.00000000000006</ele><time>2026-04-30T07:17:56Z</time></trkpt><trkpt lat="42.9189936474752" lon="-1.8300535499109027"><ele>460.0</ele><time>2026-04-30T07:17:57Z</time></trkpt><trkpt lat="42.91899180482007" lon="-1.8302252574785316"><ele>460.0</ele><time>2026-04-30T07:17:59Z</time></trkpt><trkpt lat="42.9189950851245" lon="-1.830322715533579"><ele>460.0</ele><time>2026-04-30T07:18:00Z</time></trkpt><trkpt lat="42.919019519822" lon="-1.830410566995956"><ele>460.00000000000006</ele><time>2026-04-30T07:18:01Z</time></trkpt><trkpt lat="42.91905058489625" lon="-1.830500724851942"><ele>460.0</ele><time>2026-04-30T07:18:02Z</time></trkpt><trkpt lat="42.91905896876642" lon="-1.8305878604132382"><ele>457.83333333333337</ele><time>2026-04-30T07:18:03Z</time></trkpt><trkpt lat="42.919046705495006" lon="-1.83068394375423"><ele>455.6666666666667</ele><time>2026-04-30T07:18:04Z</time></trkpt><trkpt lat="42.91901474766095" lon="-1.830775012517613"><ele>453.5</ele><time>2026-04-30T07:18:05Z</time></trkpt><trkpt lat="42.91895860355737" lon="-1.830838621372911"><ele>451.33333333333337</ele><time>2026-04-30T07:18:06Z</time></trkpt><trkpt lat="42.91895657081958" lon="-1.8309629134417975"><ele>449.1666666666667</ele><time>2026-04-30T07:18:07Z</time></trkpt><trkpt lat="42.91893772975034" lon="-1.8310685593951581"><ele>447.0</ele><time>2026-04-30T07:18:08Z</time></trkpt><trkpt lat="42.918929237377206" lon="-1.8311740515587194"><ele>446.0</ele><time>2026-04-30T07:18:09Z</time></trkpt><trkpt lat="42.91892391003932" lon="-1.8312872067172694"><ele>445.0</ele><time>2026-04-30T07:18:10Z</time></trkpt><trkpt lat="42.9189178494756" lon="-1.8313957389063065"><ele>444.0</ele><time>2026-04-30T07:18:11Z</time></trkpt><trkpt lat="42.918910619339876" lon="-1.8315119906297532"><ele>443.0</ele><time>2026-04-30T07:18:12Z</time></trkpt><trkpt lat="42.91890686910139" lon="-1.8316273732833956"><ele>442.0</ele><time>2026-04-30T07:18:13Z</time></trkpt><trkpt lat="42.91889898179513" lon="-1.831744565463409"><ele>441.0</ele><time>2026-04-30T07:18:14Z</time></trkpt><trkpt lat="42.91889473296224" lon="-1.831865973115993"><ele>441.0</ele><time>2026-04-30T07:18:15Z</time></trkpt><trkpt lat="42.91888015813835" lon="-1.8319846037716743"><ele>441.0</ele><time>2026-04-30T07:18:16Z</time></trkpt><trkpt lat="42.918868827773714" lon="-1.8321036189021933"><ele>441.0</ele><time>2026-04-30T07:18:17Z</time></trkpt><trkpt lat="42.91885859260696" lon="-1.832227333980077"><ele>441.0</ele><time>2026-04-30T07:18:18Z</time></trkpt><trkpt lat="42.918853149546756" lon="-1.8323535954171464"><ele>441.0</ele><time>2026-04-30T07:18:19Z</time></trkpt><trkpt lat="42.918844244601615" lon="-1.8324743458265278"><ele>441.0</ele><time>2026-04-30T07:18:20Z</time></trkpt><trkpt lat="42.91883760158355" lon="-1.8325977340985615"><ele>440.4</ele><time>2026-04-30T07:18:21Z</time></trkpt><trkpt lat="42.918828737092" lon="-1.832725938191587"><ele>439.8</ele><time>2026-04-30T07:18:22Z</time></trkpt><trkpt lat="42.918817196799225" lon="-1.8328515260050513"><ele>439.19999999999993</ele><time>2026-04-30T07:18:23Z</time></trkpt><trkpt lat="42.91880813511181" lon="-1.8329745872540368"><ele>438.59999999999997</ele><time>2026-04-30T07:18:24Z</time></trkpt><trkpt lat="42.91879835390004" lon="-1.833104739034067"><ele>438.0</ele><time>2026-04-30T07:18:25Z</time></trkpt><trkpt lat="42.91879035812224" lon="-1.8332338337944212"><ele>438.0</ele><time>2026-04-30T07:18:26Z</time></trkpt><trkpt lat="42.918782832120314" lon="-1.8333608263131487"><ele>437.99999999999994</ele><time>2026-04-30T07:18:27Z</time></trkpt><trkpt lat="42.91877324534559" lon="-1.8334938855662801"><ele>437.99999999999994</ele><time>2026-04-30T07:18:28Z</time></trkpt><trkpt lat="42.918761561082505" lon="-1.8336247416594145"><ele>438.0</ele><time>2026-04-30T07:18:29Z</time></trkpt><trkpt lat="42.91874834632884" lon="-1.8337559780286856"><ele>438.0</ele><time>2026-04-30T07:18:30Z</time></trkpt><trkpt lat="42.91874217845333" lon="-1.833884343483574"><ele>437.3333333333333</ele><time>2026-04-30T07:18:31Z</time></trkpt><trkpt lat="42.918732792034184" lon="-1.8340120388390704"><ele>436.66666666666663</ele><time>2026-04-30T07:18:32Z</time></trkpt><trkpt lat="42.91872541376489" lon="-1.834127560918802"><ele>436.0</ele><time>2026-04-30T07:18:33Z</time></trkpt><trkpt lat="42.91871470147147" lon="-1.8342433200024983"><ele>435.3333333333333</ele><time>2026-04-30T07:18:34Z</time></trkpt><trkpt lat="42.91870578416729" lon="-1.834356021272966"><ele>434.66666666666663</ele><time>2026-04-30T07:18:35Z</time></trkpt><trkpt lat="42.918702451290805" lon="-1.8344593815240704"><ele>434.0</ele><time>2026-04-30T07:18:36Z</time></trkpt><trkpt lat="42.91870098665101" lon="-1.8345630142118716"><ele>433.79999999999995</ele><time>2026-04-30T07:18:37Z</time></trkpt><trkpt lat="42.91870677418653" lon="-1.8346580799803685"><ele>433.59999999999997</ele><time>2026-04-30T07:18:38Z</time></trkpt><trkpt lat="42.91872061950164" lon="-1.8347428950138096"><ele>433.4</ele><time>2026-04-30T07:18:39Z</time></trkpt><trkpt lat="42.91875708534671" lon="-1.834907600622064"><ele>433.2</ele><time>2026-04-30T07:18:41Z</time></trkpt><trkpt lat="42.91875181529798" lon="-1.8350063518132032"><ele>433.0</ele><time>2026-04-30T07:18:42Z</time></trkpt><trkpt lat="42.91870009454609" lon="-1.8351699102771808"><ele>432.71428571428567</ele><time>2026-04-30T07:18:44Z</time></trkpt><trkpt lat="42.91866253859444" lon="-1.835253339650664"><ele>432.42857142857144</ele><time>2026-04-30T07:18:45Z</time></trkpt><trkpt lat="42.91864310736857" lon="-1.835341017546085"><ele>432.1428571428571</ele><time>2026-04-30T07:18:46Z</time></trkpt><trkpt lat="42.918606612165334" lon="-1.8354244227667655"><ele>431.85714285714283</ele><time>2026-04-30T07:18:47Z</time></trkpt><trkpt lat="42.918617012623905" lon="-1.8355352956499058"><ele>431.57142857142856</ele><time>2026-04-30T07:18:48Z</time></trkpt><trkpt lat="42.918609159928835" lon="-1.8356343575161784"><ele>431.2857142857143</ele><time>2026-04-30T07:18:49Z</time></trkpt><trkpt lat="42.91861003417086" lon="-1.8357379848454933"><ele>431.0</ele><time>2026-04-30T07:18:50Z</time></trkpt><trkpt lat="42.91861125601679" lon="-1.83584975678581"><ele>430.99999999999994</ele><time>2026-04-30T07:18:51Z</time></trkpt><trkpt lat="42.91860965024716" lon="-1.835945194564117"><ele>431.0</ele><time>2026-04-30T07:18:52Z</time></trkpt><trkpt lat="42.91860544495151" lon="-1.8360494984804299"><ele>431.0</ele><time>2026-04-30T07:18:53Z</time></trkpt><trkpt lat="42.91860103424356" lon="-1.836151964376472"><ele>431.0</ele><time>2026-04-30T07:18:54Z</time></trkpt><trkpt lat="42.918602187799515" lon="-1.8362639278628408"><ele>430.99999999999994</ele><time>2026-04-30T07:18:55Z</time></trkpt><trkpt lat="42.91860097559217" lon="-1.8363663181808614"><ele>431.0</ele><time>2026-04-30T07:18:56Z</time></trkpt><trkpt lat="42.918596955905045" lon="-1.8364666983658045"><ele>431.2857142857143</ele><time>2026-04-30T07:18:57Z</time></trkpt><trkpt lat="42.91859682071824" lon="-1.8365667504570107"><ele>431.57142857142856</ele><time>2026-04-30T07:18:58Z</time></trkpt><trkpt lat="42.91859369700276" lon="-1.836664228106313"><ele>431.85714285714283</ele><time>2026-04-30T07:18:59Z</time></trkpt><trkpt lat="42.91858982620073" lon="-1.8367594689723632"><ele>432.1428571428571</ele><time>2026-04-30T07:19:00Z</time></trkpt><trkpt lat="42.91858630116788" lon="-1.8368550457192194"><ele>432.42857142857144</ele><time>2026-04-30T07:19:01Z</time></trkpt><trkpt lat="42.91858193469143" lon="-1.8369544176103891"><ele>432.71428571428567</ele><time>2026-04-30T07:19:02Z</time></trkpt><trkpt lat="42.91858053795349" lon="-1.8370530812639354"><ele>433.0</ele><time>2026-04-30T07:19:03Z</time></trkpt><trkpt lat="42.91859277046247" lon="-1.8371535025865398"><ele>433.85714285714283</ele><time>2026-04-30T07:19:04Z</time></trkpt><trkpt lat="42.918606970537176" lon="-1.8372539856788195"><ele>434.7142857142857</ele><time>2026-04-30T07:19:05Z</time></trkpt><trkpt lat="42.91862995854274" lon="-1.8373544610282078"><ele>435.57142857142856</ele><time>2026-04-30T07:19:06Z</time></trkpt><trkpt lat="42.918667709109535" lon="-1.8374457509768676"><ele>436.42857142857144</ele><time>2026-04-30T07:19:07Z</time></trkpt><trkpt lat="42.91871515825151" lon="-1.8375207190413354"><ele>437.2857142857143</ele><time>2026-04-30T07:19:08Z</time></trkpt><trkpt lat="42.91875926168163" lon="-1.8375966228885074"><ele>438.1428571428571</ele><time>2026-04-30T07:19:09Z</time></trkpt><trkpt lat="42.918802621647565" lon="-1.8376718503016514"><ele>439.0</ele><time>2026-04-30T07:19:10Z</time></trkpt><trkpt lat="42.91885203063816" lon="-1.8377446674295244"><ele>440.33333333333337</ele><time>2026-04-30T07:19:11Z</time></trkpt><trkpt lat="42.918899509234485" lon="-1.8378142703597455"><ele>441.6666666666667</ele><time>2026-04-30T07:19:12Z</time></trkpt><trkpt lat="42.918964241262785" lon="-1.837918004666107"><ele>443.0</ele><time>2026-04-30T07:19:13Z</time></trkpt><trkpt lat="42.91900845498403" lon="-1.83799705070161"><ele>444.33333333333337</ele><time>2026-04-30T07:19:14Z</time></trkpt><trkpt lat="42.919048741220294" lon="-1.8380907755560152"><ele>445.6666666666667</ele><time>2026-04-30T07:19:15Z</time></trkpt><trkpt lat="42.91908073101069" lon="-1.838189901423863"><ele>447.0</ele><time>2026-04-30T07:19:16Z</time></trkpt><trkpt lat="42.91910513283106" lon="-1.8382911424916515"><ele>446.99999999999994</ele><time>2026-04-30T07:19:17Z</time></trkpt><trkpt lat="42.919116338260466" lon="-1.8383910275415154"><ele>447.0</ele><time>2026-04-30T07:19:18Z</time></trkpt><trkpt lat="42.91911592693195" lon="-1.838489337676419"><ele>447.0</ele><time>2026-04-30T07:19:19Z</time></trkpt><trkpt lat="42.91910628338511" lon="-1.838587084338315"><ele>447.0</ele><time>2026-04-30T07:19:20Z</time></trkpt><trkpt lat="42.91909104752549" lon="-1.8386849757167159"><ele>447.0</ele><time>2026-04-30T07:19:21Z</time></trkpt><trkpt lat="42.91906819610735" lon="-1.8387767594863451"><ele>446.99999999999994</ele><time>2026-04-30T07:19:22Z</time></trkpt><trkpt lat="42.91903935579104" lon="-1.838863259250182"><ele>447.0</ele><time>2026-04-30T07:19:23Z</time></trkpt><trkpt lat="42.91900824434543" lon="-1.838952473325702"><ele>448.0</ele><time>2026-04-30T07:19:24Z</time></trkpt><trkpt lat="42.91897482556908" lon="-1.839040442925718"><ele>449.0</ele><time>2026-04-30T07:19:25Z</time></trkpt><trkpt lat="42.918942066399374" lon="-1.8391251013846646"><ele>450.0</ele><time>2026-04-30T07:19:26Z</time></trkpt><trkpt lat="42.918904571021486" lon="-1.8392085213431548"><ele>451.0</ele><time>2026-04-30T07:19:27Z</time></trkpt><trkpt lat="42.91887210702706" lon="-1.839293488394272"><ele>452.00000000000006</ele><time>2026-04-30T07:19:28Z</time></trkpt><trkpt lat="42.918835355187014" lon="-1.8393825959053516"><ele>453.0</ele><time>2026-04-30T07:19:29Z</time></trkpt><trkpt lat="42.918800902906405" lon="-1.8394722418356872"><ele>454.0</ele><time>2026-04-30T07:19:30Z</time></trkpt><trkpt lat="42.91876411795999" lon="-1.8395648258740218"><ele>454.00000000000006</ele><time>2026-04-30T07:19:31Z</time></trkpt><trkpt lat="42.91872913238748" lon="-1.8396612418424052"><ele>454.0</ele><time>2026-04-30T07:19:32Z</time></trkpt><trkpt lat="42.91869173769162" lon="-1.8397569143722443"><ele>454.0</ele><time>2026-04-30T07:19:33Z</time></trkpt><trkpt lat="42.91865415061124" lon="-1.83985656708918"><ele>454.0</ele><time>2026-04-30T07:19:34Z</time></trkpt><trkpt lat="42.91861474124088" lon="-1.8399557697423383"><ele>454.00000000000006</ele><time>2026-04-30T07:19:35Z</time></trkpt><trkpt lat="42.91857435645311" lon="-1.8400542805017188"><ele>454.0</ele><time>2026-04-30T07:19:36Z</time></trkpt><trkpt lat="42.91853352028096" lon="-1.8401539676074408"><ele>453.50000000000006</ele><time>2026-04-30T07:19:37Z</time></trkpt><trkpt lat="42.91849321132333" lon="-1.8402546314414165"><ele>453.0</ele><time>2026-04-30T07:19:38Z</time></trkpt><trkpt lat="42.91844898866977" lon="-1.8403620923452693"><ele>452.5</ele><time>2026-04-30T07:19:39Z</time></trkpt><trkpt lat="42.91840697343135" lon="-1.8404689331277702"><ele>452.0</ele><time>2026-04-30T07:19:40Z</time></trkpt><trkpt lat="42.91836507182772" lon="-1.8405745736007948"><ele>451.50000000000006</ele><time>2026-04-30T07:19:41Z</time></trkpt><trkpt lat="42.918322815188816" lon="-1.840679560827948"><ele>451.0</ele><time>2026-04-30T07:19:42Z</time></trkpt><trkpt lat="42.91827922224817" lon="-1.8407914071275493"><ele>450.8</ele><time>2026-04-30T07:19:43Z</time></trkpt><trkpt lat="42.91823500095501" lon="-1.8409071659424832"><ele>450.6</ele><time>2026-04-30T07:19:44Z</time></trkpt><trkpt lat="42.918190412450926" lon="-1.841022236875302"><ele>450.4</ele><time>2026-04-30T07:19:45Z</time></trkpt><trkpt lat="42.918145169179695" lon="-1.8411388672879996"><ele>450.2</ele><time>2026-04-30T07:19:46Z</time></trkpt><trkpt lat="42.91809913788224" lon="-1.8412581633982334"><ele>450.0</ele><time>2026-04-30T07:19:47Z</time></trkpt><trkpt lat="42.91805118764209" lon="-1.8413837548484981"><ele>450.8</ele><time>2026-04-30T07:19:48Z</time></trkpt><trkpt lat="42.91800533917847" lon="-1.8415088823172594"><ele>451.6</ele><time>2026-04-30T07:19:49Z</time></trkpt><trkpt lat="42.9179608162713" lon="-1.8416344963405555"><ele>452.4</ele><time>2026-04-30T07:19:50Z</time></trkpt><trkpt lat="42.91791584382238" lon="-1.8417632852179502"><ele>453.2</ele><time>2026-04-30T07:19:51Z</time></trkpt><trkpt lat="42.9178699187198" lon="-1.8418899948811707"><ele>454.0</ele><time>2026-04-30T07:19:52Z</time></trkpt><trkpt lat="42.9178212361974" lon="-1.8420141004337747"><ele>455.79999999999995</ele><time>2026-04-30T07:19:53Z</time></trkpt><trkpt lat="42.91777286324129" lon="-1.8421385253119238"><ele>457.59999999999997</ele><time>2026-04-30T07:19:54Z</time></trkpt><trkpt lat="42.91772523396353" lon="-1.8422642954646111"><ele>459.4</ele><time>2026-04-30T07:19:55Z</time></trkpt><trkpt lat="42.91767828104692" lon="-1.842390197304437"><ele>461.2</ele><time>2026-04-30T07:19:56Z</time></trkpt><trkpt lat="42.91762995163817" lon="-1.8425195890073662"><ele>463.0</ele><time>2026-04-30T07:19:57Z</time></trkpt><trkpt lat="42.91758486509099" lon="-1.842653630062561"><ele>460.79999999999995</ele><time>2026-04-30T07:19:58Z</time></trkpt><trkpt lat="42.917542861465996" lon="-1.842789137669827"><ele>458.59999999999997</ele><time>2026-04-30T07:19:59Z</time></trkpt><trkpt lat="42.91750424458351" lon="-1.8429258346452264"><ele>456.40000000000003</ele><time>2026-04-30T07:20:00Z</time></trkpt><trkpt lat="42.91746851193757" lon="-1.8430651643988918"><ele>454.20000000000005</ele><time>2026-04-30T07:20:01Z</time></trkpt><trkpt lat="42.917439157961596" lon="-1.8432083356479503"><ele>452.0</ele><time>2026-04-30T07:20:02Z</time></trkpt><trkpt lat="42.917409530153826" lon="-1.8433497114556863"><ele>451.6</ele><time>2026-04-30T07:20:03Z</time></trkpt><trkpt lat="42.91737825241523" lon="-1.8434967732812526"><ele>451.20000000000005</ele><time>2026-04-30T07:20:04Z</time></trkpt><trkpt lat="42.91735557674564" lon="-1.8436453857505655"><ele>450.8</ele><time>2026-04-30T07:20:05Z</time></trkpt><trkpt lat="42.91733463790654" lon="-1.8437876526239085"><ele>450.4</ele><time>2026-04-30T07:20:06Z</time></trkpt><trkpt lat="42.917318132608855" lon="-1.8439353231138311"><ele>450.0</ele><time>2026-04-30T07:20:07Z</time></trkpt><trkpt lat="42.91730705166286" lon="-1.8440829329839565"><ele>450.0</ele><time>2026-04-30T07:20:08Z</time></trkpt><trkpt lat="42.91729689514368" lon="-1.844229542024041"><ele>450.0</ele><time>2026-04-30T07:20:09Z</time></trkpt><trkpt lat="42.917283198130825" lon="-1.8443748681321477"><ele>450.0</ele><time>2026-04-30T07:20:10Z</time></trkpt><trkpt lat="42.91727476525238" lon="-1.844527562180366"><ele>450.0</ele><time>2026-04-30T07:20:11Z</time></trkpt><trkpt lat="42.91726378861802" lon="-1.8446818355637953"><ele>450.0</ele><time>2026-04-30T07:20:12Z</time></trkpt><trkpt lat="42.91725118723338" lon="-1.844833245944881"><ele>448.5</ele><time>2026-04-30T07:20:13Z</time></trkpt><trkpt lat="42.91723782393644" lon="-1.8449932813058365"><ele>447.0</ele><time>2026-04-30T07:20:14Z</time></trkpt><trkpt lat="42.91722312851509" lon="-1.8451420763330875"><ele>445.5</ele><time>2026-04-30T07:20:15Z</time></trkpt><trkpt lat="42.91720792732464" lon="-1.8452916417330316"><ele>444.0</ele><time>2026-04-30T07:20:16Z</time></trkpt><trkpt lat="42.91718863124037" lon="-1.845444074685698"><ele>443.6</ele><time>2026-04-30T07:20:17Z</time></trkpt><trkpt lat="42.91715845874442" lon="-1.8455897071045178"><ele>443.2</ele><time>2026-04-30T07:20:18Z</time></trkpt><trkpt lat="42.9171241298375" lon="-1.8457292252559832"><ele>442.80000000000007</ele><time>2026-04-30T07:20:19Z</time></trkpt><trkpt lat="42.91708840606684" lon="-1.8458763705053853"><ele>442.40000000000003</ele><time>2026-04-30T07:20:20Z</time></trkpt><trkpt lat="42.91705132441047" lon="-1.8460153923203846"><ele>442.0</ele><time>2026-04-30T07:20:21Z</time></trkpt><trkpt lat="42.917017719226436" lon="-1.8461549334481184"><ele>441.6</ele><time>2026-04-30T07:20:22Z</time></trkpt><trkpt lat="42.91697821862285" lon="-1.84628766730434"><ele>441.20000000000005</ele><time>2026-04-30T07:20:23Z</time></trkpt><trkpt lat="42.91693649587979" lon="-1.8464193590937787"><ele>440.8</ele><time>2026-04-30T07:20:24Z</time></trkpt><trkpt lat="42.91689783851629" lon="-1.8465527519953373"><ele>440.4</ele><time>2026-04-30T07:20:25Z</time></trkpt><trkpt lat="42.916855684422046" lon="-1.8466855735953893"><ele>440.0</ele><time>2026-04-30T07:20:26Z</time></trkpt><trkpt lat="42.9168173243239" lon="-1.8468165229856262"><ele>438.8</ele><time>2026-04-30T07:20:27Z</time></trkpt><trkpt lat="42.91678159032448" lon="-1.8469521102637456"><ele>437.6</ele><time>2026-04-30T07:20:28Z</time></trkpt><trkpt lat="42.91674758367672" lon="-1.8470938444221277"><ele>436.4</ele><time>2026-04-30T07:20:29Z</time></trkpt><trkpt lat="42.91671388624714" lon="-1.8472348140842203"><ele>435.2</ele><time>2026-04-30T07:20:30Z</time></trkpt><trkpt lat="42.91667846221672" lon="-1.8473746489780387"><ele>434.0</ele><time>2026-04-30T07:20:31Z</time></trkpt><trkpt lat="42.91664396869525" lon="-1.847504217542508"><ele>433.79999999999995</ele><time>2026-04-30T07:20:32Z</time></trkpt><trkpt lat="42.91660814238634" lon="-1.8476305131876452"><ele>433.59999999999997</ele><time>2026-04-30T07:20:33Z</time></trkpt><trkpt lat="42.916576448909076" lon="-1.8477702001160066"><ele>433.4</ele><time>2026-04-30T07:20:34Z</time></trkpt><trkpt lat="42.91654715213839" lon="-1.8479099123160179"><ele>433.2</ele><time>2026-04-30T07:20:35Z</time></trkpt><trkpt lat="42.916523069910426" lon="-1.848063477916698"><ele>433.0</ele><time>2026-04-30T07:20:36Z</time></trkpt><trkpt lat="42.916472760844" lon="-1.8482033555203867"><ele>433.0</ele><time>2026-04-30T07:20:37Z</time></trkpt><trkpt lat="42.916432924529246" lon="-1.848343033844621"><ele>432.99999999999994</ele><time>2026-04-30T07:20:38Z</time></trkpt><trkpt lat="42.916394584650945" lon="-1.8484774652869533"><ele>432.99999999999994</ele><time>2026-04-30T07:20:39Z</time></trkpt><trkpt lat="42.91635529403859" lon="-1.8486152301755887"><ele>433.0</ele><time>2026-04-30T07:20:40Z</time></trkpt><trkpt lat="42.91632969543744" lon="-1.848721234875971"><ele>433.0</ele><time>2026-04-30T07:20:41Z</time></trkpt><trkpt lat="42.91627983262877" lon="-1.8488348137435409"><ele>432.79999999999995</ele><time>2026-04-30T07:20:42Z</time></trkpt><trkpt lat="42.91623764322076" lon="-1.8489708744831668"><ele>432.59999999999997</ele><time>2026-04-30T07:20:43Z</time></trkpt><trkpt lat="42.91619580314892" lon="-1.8491058401896878"><ele>432.40000000000003</ele><time>2026-04-30T07:20:44Z</time></trkpt><trkpt lat="42.9161550315505" lon="-1.849243199204725"><ele>432.20000000000005</ele><time>2026-04-30T07:20:45Z</time></trkpt><trkpt lat="42.91611549164673" lon="-1.849381063220491"><ele>432.0</ele><time>2026-04-30T07:20:46Z</time></trkpt><trkpt lat="42.91607495871211" lon="-1.8495179810494267"><ele>432.0</ele><time>2026-04-30T07:20:47Z</time></trkpt><trkpt lat="42.91603521361518" lon="-1.8496548189528343"><ele>432.00000000000006</ele><time>2026-04-30T07:20:48Z</time></trkpt><trkpt lat="42.91599575620746" lon="-1.8497889788668458"><ele>432.00000000000006</ele><time>2026-04-30T07:20:49Z</time></trkpt><trkpt lat="42.91595692402679" lon="-1.8499252743905328"><ele>432.0</ele><time>2026-04-30T07:20:50Z</time></trkpt><trkpt lat="42.91591995433492" lon="-1.8500619364703783"><ele>432.0</ele><time>2026-04-30T07:20:51Z</time></trkpt><trkpt lat="42.91588437827646" lon="-1.8501998724355735"><ele>432.6</ele><time>2026-04-30T07:20:52Z</time></trkpt><trkpt lat="42.915848289878795" lon="-1.8503338507233675"><ele>433.20000000000005</ele><time>2026-04-30T07:20:53Z</time></trkpt><trkpt lat="42.91580924013395" lon="-1.850467860004248"><ele>433.8</ele><time>2026-04-30T07:20:54Z</time></trkpt><trkpt lat="42.91576961912948" lon="-1.8506010492103988"><ele>434.4</ele><time>2026-04-30T07:20:55Z</time></trkpt><trkpt lat="42.9157309707968" lon="-1.8507297638434852"><ele>435.0</ele><time>2026-04-30T07:20:56Z</time></trkpt><trkpt lat="42.91569277858901" lon="-1.8508602786180273"><ele>434.8</ele><time>2026-04-30T07:20:57Z</time></trkpt><trkpt lat="42.9156563866163" lon="-1.8509875269681493"><ele>434.6</ele><time>2026-04-30T07:20:58Z</time></trkpt><trkpt lat="42.915620511302905" lon="-1.8511133772899808"><ele>434.4</ele><time>2026-04-30T07:20:59Z</time></trkpt><trkpt lat="42.91558468543252" lon="-1.851238683911237"><ele>434.2</ele><time>2026-04-30T07:21:00Z</time></trkpt><trkpt lat="42.915549468609974" lon="-1.851363624177236"><ele>434.0</ele><time>2026-04-30T07:21:01Z</time></trkpt><trkpt lat="42.91551532271646" lon="-1.8514911082359318"><ele>434.0</ele><time>2026-04-30T07:21:02Z</time></trkpt><trkpt lat="42.91547783394954" lon="-1.8516083977053086"><ele>434.0</ele><time>2026-04-30T07:21:03Z</time></trkpt><trkpt lat="42.915441717191946" lon="-1.8517260931102784"><ele>434.0</ele><time>2026-04-30T07:21:04Z</time></trkpt><trkpt lat="42.91540563466101" lon="-1.851840082487652"><ele>434.0</ele><time>2026-04-30T07:21:05Z</time></trkpt><trkpt lat="42.91537203176716" lon="-1.85195826388597"><ele>434.0</ele><time>2026-04-30T07:21:06Z</time></trkpt><trkpt lat="42.915337634194756" lon="-1.8520703940360115"><ele>433.6</ele><time>2026-04-30T07:21:07Z</time></trkpt><trkpt lat="42.915301643495624" lon="-1.852169976719932"><ele>433.2</ele><time>2026-04-30T07:21:08Z</time></trkpt><trkpt lat="42.91526325463147" lon="-1.8522757967434604"><ele>432.80000000000007</ele><time>2026-04-30T07:21:09Z</time></trkpt><trkpt lat="42.915226622297965" lon="-1.8524045201770145"><ele>432.40000000000003</ele><time>2026-04-30T07:21:10Z</time></trkpt><trkpt lat="42.91519933494329" lon="-1.852563622289683"><ele>432.0</ele><time>2026-04-30T07:21:11Z</time></trkpt><trkpt lat="42.915164862061864" lon="-1.8526952333211342"><ele>431.8</ele><time>2026-04-30T07:21:12Z</time></trkpt><trkpt lat="42.91512943180531" lon="-1.852827023448656"><ele>431.6</ele><time>2026-04-30T07:21:13Z</time></trkpt><trkpt lat="42.915093253535126" lon="-1.8529576432160566"><ele>431.40000000000003</ele><time>2026-04-30T07:21:14Z</time></trkpt><trkpt lat="42.91505671030502" lon="-1.8530865832365206"><ele>431.20000000000005</ele><time>2026-04-30T07:21:15Z</time></trkpt><trkpt lat="42.91502009510917" lon="-1.8532175530286095"><ele>431.0</ele><time>2026-04-30T07:21:16Z</time></trkpt><trkpt lat="42.9149821722798" lon="-1.853352092663576"><ele>433.20000000000005</ele><time>2026-04-30T07:21:17Z</time></trkpt><trkpt lat="42.91494208492218" lon="-1.8534864151890158"><ele>435.40000000000003</ele><time>2026-04-30T07:21:18Z</time></trkpt><trkpt lat="42.91490379576585" lon="-1.8536184128748485"><ele>437.6</ele><time>2026-04-30T07:21:19Z</time></trkpt><trkpt lat="42.914866031566405" lon="-1.853755300778984"><ele>439.8</ele><time>2026-04-30T07:21:20Z</time></trkpt><trkpt lat="42.914826129029535" lon="-1.853891033815541"><ele>442.0</ele><time>2026-04-30T07:21:21Z</time></trkpt><trkpt lat="42.91478540912647" lon="-1.8540246728745988"><ele>442.0</ele><time>2026-04-30T07:21:22Z</time></trkpt><trkpt lat="42.91474544150205" lon="-1.854158945258443"><ele>442.00000000000006</ele><time>2026-04-30T07:21:23Z</time></trkpt><trkpt lat="42.91470571639729" lon="-1.8542935591085412"><ele>442.00000000000006</ele><time>2026-04-30T07:21:24Z</time></trkpt><trkpt lat="42.91466817685224" lon="-1.8544284292951885"><ele>442.0</ele><time>2026-04-30T07:21:25Z</time></trkpt><trkpt lat="42.914632194859635" lon="-1.8545623411192018"><ele>442.0</ele><time>2026-04-30T07:21:26Z</time></trkpt><trkpt lat="42.91459503941984" lon="-1.8546967622586397"><ele>442.40000000000003</ele><time>2026-04-30T07:21:27Z</time></trkpt><trkpt lat="42.914557227397474" lon="-1.8548270563637113"><ele>442.80000000000007</ele><time>2026-04-30T07:21:28Z</time></trkpt><trkpt lat="42.91452012191127" lon="-1.854956402445555"><ele>443.2</ele><time>2026-04-30T07:21:29Z</time></trkpt><trkpt lat="42.914486434479045" lon="-1.8550862115967863"><ele>443.6</ele><time>2026-04-30T07:21:30Z</time></trkpt><trkpt lat="42.914450940454486" lon="-1.8552175964585893"><ele>444.0</ele><time>2026-04-30T07:21:31Z</time></trkpt><trkpt lat="42.91441450703829" lon="-1.8553470312411986"><ele>444.2</ele><time>2026-04-30T07:21:32Z</time></trkpt><trkpt lat="42.91437876323712" lon="-1.8554744211347323"><ele>444.4</ele><time>2026-04-30T07:21:33Z</time></trkpt><trkpt lat="42.91434242035923" lon="-1.8555976704118815"><ele>444.6</ele><time>2026-04-30T07:21:34Z</time></trkpt><trkpt lat="42.91430868374047" lon="-1.855718571455478"><ele>444.8</ele><time>2026-04-30T07:21:35Z</time></trkpt><trkpt lat="42.91427726739022" lon="-1.8558373506709687"><ele>445.0</ele><time>2026-04-30T07:21:36Z</time></trkpt><trkpt lat="42.914244200993906" lon="-1.8559570594787316"><ele>447.00000000000006</ele><time>2026-04-30T07:21:37Z</time></trkpt><trkpt lat="42.914213778650456" lon="-1.8560756961445015"><ele>449.0</ele><time>2026-04-30T07:21:38Z</time></trkpt><trkpt lat="42.9141828442271" lon="-1.8561921222950761"><ele>451.0</ele><time>2026-04-30T07:21:39Z</time></trkpt><trkpt lat="42.9141514247603" lon="-1.8563003548735253"><ele>453.0</ele><time>2026-04-30T07:21:40Z</time></trkpt><trkpt lat="42.91412169738376" lon="-1.8564064643670624"><ele>455.00000000000006</ele><time>2026-04-30T07:21:41Z</time></trkpt><trkpt lat="42.91409142894556" lon="-1.8565122763710888"><ele>457.0</ele><time>2026-04-30T07:21:42Z</time></trkpt><trkpt lat="42.91406459721476" lon="-1.8566158004584552"><ele>457.00000000000006</ele><time>2026-04-30T07:21:43Z</time></trkpt><trkpt lat="42.91403618375623" lon="-1.856716431357385"><ele>457.0</ele><time>2026-04-30T07:21:44Z</time></trkpt><trkpt lat="42.91400691192149" lon="-1.8568182020496486"><ele>457.0</ele><time>2026-04-30T07:21:45Z</time></trkpt><trkpt lat="42.91397733532901" lon="-1.8569187739163688"><ele>457.0</ele><time>2026-04-30T07:21:46Z</time></trkpt><trkpt lat="42.91394851642411" lon="-1.8570147850010172"><ele>457.00000000000006</ele><time>2026-04-30T07:21:47Z</time></trkpt><trkpt lat="42.91391955554247" lon="-1.8571101266062369"><ele>457.0</ele><time>2026-04-30T07:21:48Z</time></trkpt><trkpt lat="42.91389060771166" lon="-1.8572018204792782"><ele>457.6666666666667</ele><time>2026-04-30T07:21:49Z</time></trkpt><trkpt lat="42.91386869676656" lon="-1.8572993912203521"><ele>458.33333333333337</ele><time>2026-04-30T07:21:50Z</time></trkpt><trkpt lat="42.91384815960312" lon="-1.8573975465421042"><ele>459.0</ele><time>2026-04-30T07:21:51Z</time></trkpt><trkpt lat="42.91381268561705" lon="-1.857580152028861"><ele>459.66666666666663</ele><time>2026-04-30T07:21:53Z</time></trkpt><trkpt lat="42.91379409719339" lon="-1.8576792260421555"><ele>460.3333333333333</ele><time>2026-04-30T07:21:54Z</time></trkpt><trkpt lat="42.91377500848192" lon="-1.857779407461285"><ele>461.0</ele><time>2026-04-30T07:21:55Z</time></trkpt><trkpt lat="42.913755947884084" lon="-1.8578857733374816"><ele>461.16666666666663</ele><time>2026-04-30T07:21:56Z</time></trkpt><trkpt lat="42.91373662905104" lon="-1.8579941739393402"><ele>461.3333333333333</ele><time>2026-04-30T07:21:57Z</time></trkpt><trkpt lat="42.91371707260105" lon="-1.8581059521559493"><ele>461.5</ele><time>2026-04-30T07:21:58Z</time></trkpt><trkpt lat="42.913693787501785" lon="-1.8582256659460097"><ele>461.66666666666663</ele><time>2026-04-30T07:21:59Z</time></trkpt><trkpt lat="42.91367175047965" lon="-1.8583462082760502"><ele>461.8333333333333</ele><time>2026-04-30T07:22:00Z</time></trkpt><trkpt lat="42.91364914726615" lon="-1.858463326278993"><ele>462.0</ele><time>2026-04-30T07:22:01Z</time></trkpt><trkpt lat="42.91362486521046" lon="-1.8585799935332619"><ele>462.0</ele><time>2026-04-30T07:22:02Z</time></trkpt><trkpt lat="42.913601403472654" lon="-1.8586989217150731"><ele>462.00000000000006</ele><time>2026-04-30T07:22:03Z</time></trkpt><trkpt lat="42.913576684593586" lon="-1.8588215822697116"><ele>462.00000000000006</ele><time>2026-04-30T07:22:04Z</time></trkpt><trkpt lat="42.91355370137505" lon="-1.858944784780591"><ele>462.0</ele><time>2026-04-30T07:22:05Z</time></trkpt><trkpt lat="42.913530632382" lon="-1.8590714270588047"><ele>462.0</ele><time>2026-04-30T07:22:06Z</time></trkpt><trkpt lat="42.9135066434615" lon="-1.8591976039838767"><ele>462.0</ele><time>2026-04-30T07:22:07Z</time></trkpt><trkpt lat="42.913481487263276" lon="-1.8593221327598248"><ele>462.00000000000006</ele><time>2026-04-30T07:22:08Z</time></trkpt><trkpt lat="42.91345989826752" lon="-1.8594499556203163"><ele>462.00000000000006</ele><time>2026-04-30T07:22:09Z</time></trkpt><trkpt lat="42.91343801348935" lon="-1.8595777825197803"><ele>462.0</ele><time>2026-04-30T07:22:10Z</time></trkpt><trkpt lat="42.91341498032709" lon="-1.8597039632307781"><ele>462.0</ele><time>2026-04-30T07:22:11Z</time></trkpt><trkpt lat="42.91339073522352" lon="-1.859831708078394"><ele>463.0</ele><time>2026-04-30T07:22:12Z</time></trkpt><trkpt lat="42.91336469921193" lon="-1.8599538190217662"><ele>464.00000000000006</ele><time>2026-04-30T07:22:13Z</time></trkpt><trkpt lat="42.91334015504788" lon="-1.8600813784479087"><ele>465.00000000000006</ele><time>2026-04-30T07:22:14Z</time></trkpt><trkpt lat="42.91331749789313" lon="-1.8602129251616535"><ele>466.0</ele><time>2026-04-30T07:22:15Z</time></trkpt><trkpt lat="42.91329123546464" lon="-1.8603369538755692"><ele>467.0</ele><time>2026-04-30T07:22:16Z</time></trkpt><trkpt lat="42.91326767820688" lon="-1.8604651280864368"><ele>467.40000000000003</ele><time>2026-04-30T07:22:17Z</time></trkpt><trkpt lat="42.91324405676137" lon="-1.8605913736611506"><ele>467.80000000000007</ele><time>2026-04-30T07:22:18Z</time></trkpt><trkpt lat="42.91321898524538" lon="-1.8607162887343611"><ele>468.2</ele><time>2026-04-30T07:22:19Z</time></trkpt><trkpt lat="42.91319562023887" lon="-1.8608443672566144"><ele>468.6</ele><time>2026-04-30T07:22:20Z</time></trkpt><trkpt lat="42.913171379234626" lon="-1.8609688960190776"><ele>469.0</ele><time>2026-04-30T07:22:21Z</time></trkpt><trkpt lat="42.913146623145266" lon="-1.8610939350642473"><ele>469.4</ele><time>2026-04-30T07:22:22Z</time></trkpt><trkpt lat="42.91312257585742" lon="-1.8612196029662635"><ele>469.79999999999995</ele><time>2026-04-30T07:22:23Z</time></trkpt><trkpt lat="42.91309670204621" lon="-1.8613434021796242"><ele>470.20000000000005</ele><time>2026-04-30T07:22:24Z</time></trkpt><trkpt lat="42.913071171963175" lon="-1.8614727415539776"><ele>470.6</ele><time>2026-04-30T07:22:25Z</time></trkpt><trkpt lat="42.91304738389435" lon="-1.8616038297301798"><ele>471.0</ele><time>2026-04-30T07:22:26Z</time></trkpt><trkpt lat="42.913023466985" lon="-1.8617302155902604"><ele>471.20000000000005</ele><time>2026-04-30T07:22:27Z</time></trkpt><trkpt lat="42.91299904901101" lon="-1.8618578178821301"><ele>471.40000000000003</ele><time>2026-04-30T07:22:28Z</time></trkpt><trkpt lat="42.91297334880281" lon="-1.8619833450353631"><ele>471.6</ele><time>2026-04-30T07:22:29Z</time></trkpt><trkpt lat="42.91294729289776" lon="-1.8621149436839683"><ele>471.8</ele><time>2026-04-30T07:22:30Z</time></trkpt><trkpt lat="42.91292123026553" lon="-1.8622472700332047"><ele>472.0</ele><time>2026-04-30T07:22:31Z</time></trkpt><trkpt lat="42.912895795592505" lon="-1.862381554070532"><ele>472.0</ele><time>2026-04-30T07:22:32Z</time></trkpt><trkpt lat="42.91287195060918" lon="-1.862516007543879"><ele>472.00000000000006</ele><time>2026-04-30T07:22:33Z</time></trkpt><trkpt lat="42.912846365062606" lon="-1.8626542839300484"><ele>472.00000000000006</ele><time>2026-04-30T07:22:34Z</time></trkpt><trkpt lat="42.91282203015096" lon="-1.862786624946428"><ele>472.0</ele><time>2026-04-30T07:22:35Z</time></trkpt><trkpt lat="42.91279732009758" lon="-1.862915397108913"><ele>472.0</ele><time>2026-04-30T07:22:36Z</time></trkpt><trkpt lat="42.91277146332186" lon="-1.8630435892401063"><ele>472.20000000000005</ele><time>2026-04-30T07:22:37Z</time></trkpt><trkpt lat="42.91275187415309" lon="-1.8631697271942445"><ele>472.40000000000003</ele><time>2026-04-30T07:22:38Z</time></trkpt><trkpt lat="42.91273191619979" lon="-1.863294032623813"><ele>472.59999999999997</ele><time>2026-04-30T07:22:39Z</time></trkpt><trkpt lat="42.91271184769566" lon="-1.8634204544626112"><ele>472.79999999999995</ele><time>2026-04-30T07:22:40Z</time></trkpt><trkpt lat="42.91269533964568" lon="-1.8635479334760483"><ele>473.0</ele><time>2026-04-30T07:22:41Z</time></trkpt><trkpt lat="42.912687126550246" lon="-1.863683076954181"><ele>471.4</ele><time>2026-04-30T07:22:42Z</time></trkpt><trkpt lat="42.91267976565073" lon="-1.8638153987684727"><ele>469.79999999999995</ele><time>2026-04-30T07:22:43Z</time></trkpt><trkpt lat="42.91267580163874" lon="-1.863938402150619"><ele>468.2</ele><time>2026-04-30T07:22:44Z</time></trkpt><trkpt lat="42.91268240199833" lon="-1.864077330010149"><ele>466.6</ele><time>2026-04-30T07:22:45Z</time></trkpt><trkpt lat="42.91269266406706" lon="-1.864216497439075"><ele>465.0</ele><time>2026-04-30T07:22:46Z</time></trkpt><trkpt lat="42.9126984130433" lon="-1.8643487086371182"><ele>463.1666666666667</ele><time>2026-04-30T07:22:47Z</time></trkpt><trkpt lat="42.912707303776465" lon="-1.8644798923216146"><ele>461.33333333333337</ele><time>2026-04-30T07:22:48Z</time></trkpt><trkpt lat="42.91271069117496" lon="-1.8646118898920063"><ele>459.5</ele><time>2026-04-30T07:22:49Z</time></trkpt><trkpt lat="42.91271402345897" lon="-1.8647328012645006"><ele>457.6666666666667</ele><time>2026-04-30T07:22:50Z</time></trkpt><trkpt lat="42.91271408319437" lon="-1.864843214271276"><ele>455.83333333333337</ele><time>2026-04-30T07:22:51Z</time></trkpt><trkpt lat="42.912704612750794" lon="-1.8649465550567887"><ele>454.0</ele><time>2026-04-30T07:22:52Z</time></trkpt><trkpt lat="42.91269189484661" lon="-1.865038258663791"><ele>453.5</ele><time>2026-04-30T07:22:53Z</time></trkpt><trkpt lat="42.91264049523152" lon="-1.8651891608976192"><ele>453.0</ele><time>2026-04-30T07:22:55Z</time></trkpt><trkpt lat="42.912521382824075" lon="-1.8653292690268137"><ele>452.5</ele><time>2026-04-30T07:22:58Z</time></trkpt><trkpt lat="42.912397291191844" lon="-1.8652336887669514"><ele>452.0</ele><time>2026-04-30T07:23:00Z</time></trkpt><trkpt lat="42.91226770976188" lon="-1.865207578116679"><ele>456.16666666666663</ele><time>2026-04-30T07:23:02Z</time></trkpt><trkpt lat="42.91219994213294" lon="-1.8652233690655433"><ele>460.3333333333333</ele><time>2026-04-30T07:23:03Z</time></trkpt><trkpt lat="42.91212388107235" lon="-1.8652387575007612"><ele>464.5</ele><time>2026-04-30T07:23:04Z</time></trkpt><trkpt lat="42.91204790718667" lon="-1.8652542640457517"><ele>468.66666666666663</ele><time>2026-04-30T07:23:05Z</time></trkpt><trkpt lat="42.91197548625118" lon="-1.8652694006333113"><ele>472.8333333333333</ele><time>2026-04-30T07:23:06Z</time></trkpt><trkpt lat="42.91189621572483" lon="-1.8652813018149428"><ele>477.0</ele><time>2026-04-30T07:23:07Z</time></trkpt><trkpt lat="42.911815061274886" lon="-1.8652957914002262"><ele>477.0</ele><time>2026-04-30T07:23:08Z</time></trkpt><trkpt lat="42.911743053405935" lon="-1.8653077470099642"><ele>477.0</ele><time>2026-04-30T07:23:09Z</time></trkpt><trkpt lat="42.91167658343886" lon="-1.8653231292929922"><ele>477.0</ele><time>2026-04-30T07:23:10Z</time></trkpt><trkpt lat="42.911617162683186" lon="-1.8653530537234855"><ele>477.0</ele><time>2026-04-30T07:23:11Z</time></trkpt><trkpt lat="42.91155648648972" lon="-1.8653883771677717"><ele>477.0</ele><time>2026-04-30T07:23:12Z</time></trkpt><trkpt lat="42.9114396961054" lon="-1.8654014945405413"><ele>477.0</ele><time>2026-04-30T07:23:14Z</time></trkpt><trkpt lat="42.91137182991324" lon="-1.8654144283597336"><ele>477.6666666666667</ele><time>2026-04-30T07:23:15Z</time></trkpt><trkpt lat="42.911305254060544" lon="-1.8654278933613742"><ele>478.33333333333337</ele><time>2026-04-30T07:23:16Z</time></trkpt><trkpt lat="42.91118433869587" lon="-1.865447246177275"><ele>479.0</ele><time>2026-04-30T07:23:18Z</time></trkpt><trkpt lat="42.91110855233837" lon="-1.8654241366282511"><ele>479.6666666666667</ele><time>2026-04-30T07:23:19Z</time></trkpt><trkpt lat="42.91103324059656" lon="-1.8654590894827523"><ele>480.33333333333337</ele><time>2026-04-30T07:23:20Z</time></trkpt><trkpt lat="42.91095517623801" lon="-1.8654746128963768"><ele>481.0</ele><time>2026-04-30T07:23:21Z</time></trkpt><trkpt lat="42.91087170594568" lon="-1.8654720272463168"><ele>481.83333333333337</ele><time>2026-04-30T07:23:22Z</time></trkpt><trkpt lat="42.91078990986576" lon="-1.865495107653303"><ele>482.6666666666667</ele><time>2026-04-30T07:23:23Z</time></trkpt><trkpt lat="42.91070807651215" lon="-1.8655142075220366"><ele>483.5</ele><time>2026-04-30T07:23:24Z</time></trkpt><trkpt lat="42.91062225520053" lon="-1.8655313811694583"><ele>484.33333333333337</ele><time>2026-04-30T07:23:25Z</time></trkpt><trkpt lat="42.91053686470304" lon="-1.8655472967191242"><ele>485.1666666666667</ele><time>2026-04-30T07:23:26Z</time></trkpt><trkpt lat="42.910451519833025" lon="-1.8655599853918394"><ele>486.0</ele><time>2026-04-30T07:23:27Z</time></trkpt><trkpt lat="42.910364025782876" lon="-1.8655767011588955"><ele>486.0</ele><time>2026-04-30T07:23:28Z</time></trkpt><trkpt lat="42.9102838041553" lon="-1.8655889955616771"><ele>486.0</ele><time>2026-04-30T07:23:29Z</time></trkpt><trkpt lat="42.91019954057021" lon="-1.8655865298429388"><ele>486.0</ele><time>2026-04-30T07:23:30Z</time></trkpt><trkpt lat="42.910114815629576" lon="-1.865574523091603"><ele>486.0</ele><time>2026-04-30T07:23:31Z</time></trkpt><trkpt lat="42.910033904111195" lon="-1.8655576217702003"><ele>486.0</ele><time>2026-04-30T07:23:32Z</time></trkpt><trkpt lat="42.909953912825586" lon="-1.8655342315563639"><ele>486.0</ele><time>2026-04-30T07:23:33Z</time></trkpt><trkpt lat="42.90987821002802" lon="-1.8654997775031887"><ele>486.5</ele><time>2026-04-30T07:23:34Z</time></trkpt><trkpt lat="42.90979924029365" lon="-1.8654587013516115"><ele>487.0</ele><time>2026-04-30T07:23:35Z</time></trkpt><trkpt lat="42.909720313700824" lon="-1.865423711904449"><ele>487.5</ele><time>2026-04-30T07:23:36Z</time></trkpt><trkpt lat="42.90963632026775" lon="-1.8654089420198499"><ele>488.0</ele><time>2026-04-30T07:23:37Z</time></trkpt><trkpt lat="42.90955308848021" lon="-1.8654344653284012"><ele>488.5</ele><time>2026-04-30T07:23:38Z</time></trkpt><trkpt lat="42.90946846394375" lon="-1.8654249114834422"><ele>489.0</ele><time>2026-04-30T07:23:39Z</time></trkpt><trkpt lat="42.90938656669398" lon="-1.865445009635224"><ele>489.0</ele><time>2026-04-30T07:23:40Z</time></trkpt><trkpt lat="42.909314063516085" lon="-1.8655038404506372"><ele>489.0</ele><time>2026-04-30T07:23:41Z</time></trkpt><trkpt lat="42.90923235683412" lon="-1.8655309948319485"><ele>489.0</ele><time>2026-04-30T07:23:42Z</time></trkpt><trkpt lat="42.909166927959724" lon="-1.8656033434674446"><ele>489.0</ele><time>2026-04-30T07:23:43Z</time></trkpt><trkpt lat="42.90910589649057" lon="-1.8656741856335277"><ele>489.0</ele><time>2026-04-30T07:23:44Z</time></trkpt><trkpt lat="42.909049062473535" lon="-1.8657553482118205"><ele>489.0</ele><time>2026-04-30T07:23:45Z</time></trkpt><trkpt lat="42.90899798745845" lon="-1.8658399148098552"><ele>490.0</ele><time>2026-04-30T07:23:46Z</time></trkpt><trkpt lat="42.90895642232028" lon="-1.8659327441774325"><ele>491.0</ele><time>2026-04-30T07:23:47Z</time></trkpt><trkpt lat="42.9089244972578" lon="-1.866028765699919"><ele>492.0</ele><time>2026-04-30T07:23:48Z</time></trkpt><trkpt lat="42.90890286889159" lon="-1.8661322338619803"><ele>493.0</ele><time>2026-04-30T07:23:49Z</time></trkpt><trkpt lat="42.90889379048201" lon="-1.8662431170200553"><ele>494.0</ele><time>2026-04-30T07:23:50Z</time></trkpt><trkpt lat="42.90888695126331" lon="-1.8663601103356027"><ele>495.0</ele><time>2026-04-30T07:23:51Z</time></trkpt><trkpt lat="42.90888875284026" lon="-1.8664756882241271"><ele>495.0</ele><time>2026-04-30T07:23:52Z</time></trkpt><trkpt lat="42.9088965992199" lon="-1.866595224362791"><ele>495.0</ele><time>2026-04-30T07:23:53Z</time></trkpt><trkpt lat="42.90890449100616" lon="-1.8667227069674772"><ele>495.0</ele><time>2026-04-30T07:23:54Z</time></trkpt><trkpt lat="42.90891135460407" lon="-1.866853112758761"><ele>495.0</ele><time>2026-04-30T07:23:55Z</time></trkpt><trkpt lat="42.90892179232878" lon="-1.8669907892146056"><ele>495.0</ele><time>2026-04-30T07:23:56Z</time></trkpt><trkpt lat="42.90892935695514" lon="-1.867131970587332"><ele>495.4</ele><time>2026-04-30T07:23:57Z</time></trkpt><trkpt lat="42.90893413346351" lon="-1.8672710671317412"><ele>495.8</ele><time>2026-04-30T07:23:58Z</time></trkpt><trkpt lat="42.90893702714868" lon="-1.8674156483789903"><ele>496.20000000000005</ele><time>2026-04-30T07:23:59Z</time></trkpt><trkpt lat="42.908943735118676" lon="-1.8675588706389663"><ele>496.6</ele><time>2026-04-30T07:24:00Z</time></trkpt><trkpt lat="42.9089493751214" lon="-1.8677050298718278"><ele>497.0</ele><time>2026-04-30T07:24:01Z</time></trkpt><trkpt lat="42.908957032452875" lon="-1.8678513439016207"><ele>497.0</ele><time>2026-04-30T07:24:02Z</time></trkpt><trkpt lat="42.90896757342298" lon="-1.8679979278172243"><ele>497.00000000000006</ele><time>2026-04-30T07:24:03Z</time></trkpt><trkpt lat="42.908975773222686" lon="-1.8681433262240799"><ele>497.00000000000006</ele><time>2026-04-30T07:24:04Z</time></trkpt><trkpt lat="42.90898307009542" lon="-1.8682837889782513"><ele>497.0</ele><time>2026-04-30T07:24:05Z</time></trkpt><trkpt lat="42.90899011852908" lon="-1.868429465966966"><ele>497.0</ele><time>2026-04-30T07:24:06Z</time></trkpt><trkpt lat="42.90899492332016" lon="-1.8685852885587029"><ele>497.20000000000005</ele><time>2026-04-30T07:24:07Z</time></trkpt><trkpt lat="42.909004005211585" lon="-1.868720208537869"><ele>497.40000000000003</ele><time>2026-04-30T07:24:08Z</time></trkpt><trkpt lat="42.909013281567" lon="-1.8688622669910224"><ele>497.59999999999997</ele><time>2026-04-30T07:24:09Z</time></trkpt><trkpt lat="42.90902187286825" lon="-1.8690017218426207"><ele>497.79999999999995</ele><time>2026-04-30T07:24:10Z</time></trkpt><trkpt lat="42.90903038288478" lon="-1.8691516364785432"><ele>498.0</ele><time>2026-04-30T07:24:11Z</time></trkpt><trkpt lat="42.909037834702765" lon="-1.8692934079181873"><ele>498.2</ele><time>2026-04-30T07:24:12Z</time></trkpt><trkpt lat="42.909044090154254" lon="-1.8694399060064988"><ele>498.4</ele><time>2026-04-30T07:24:13Z</time></trkpt><trkpt lat="42.9090506532941" lon="-1.8695810497368546"><ele>498.59999999999997</ele><time>2026-04-30T07:24:14Z</time></trkpt><trkpt lat="42.90905866780763" lon="-1.8697229803334776"><ele>498.79999999999995</ele><time>2026-04-30T07:24:15Z</time></trkpt><trkpt lat="42.909065242763674" lon="-1.869866456929184"><ele>499.0</ele><time>2026-04-30T07:24:16Z</time></trkpt><trkpt lat="42.90907393776891" lon="-1.8700061243500745"><ele>498.79999999999995</ele><time>2026-04-30T07:24:17Z</time></trkpt><trkpt lat="42.9090793559478" lon="-1.8701541898596146"><ele>498.59999999999997</ele><time>2026-04-30T07:24:18Z</time></trkpt><trkpt lat="42.909085265761014" lon="-1.8703010761799206"><ele>498.4</ele><time>2026-04-30T07:24:19Z</time></trkpt><trkpt lat="42.9090929702507" lon="-1.8704446562137276"><ele>498.2</ele><time>2026-04-30T07:24:20Z</time></trkpt><trkpt lat="42.9091010352941" lon="-1.8705820866648681"><ele>498.0</ele><time>2026-04-30T07:24:21.001Z</time></trkpt><trkpt lat="42.90910632045371" lon="-1.8707257833935034"><ele>498.0</ele><time>2026-04-30T07:24:22.001Z</time></trkpt><trkpt lat="42.90911618097259" lon="-1.8708680803529734"><ele>497.99999999999994</ele><time>2026-04-30T07:24:23.001Z</time></trkpt><trkpt lat="42.90912365046275" lon="-1.8710105779024582"><ele>497.99999999999994</ele><time>2026-04-30T07:24:24.001Z</time></trkpt><trkpt lat="42.909130948155436" lon="-1.8711546057427435"><ele>498.0</ele><time>2026-04-30T07:24:25.001Z</time></trkpt><trkpt lat="42.90913326287658" lon="-1.871292817862697"><ele>498.0</ele><time>2026-04-30T07:24:26.001Z</time></trkpt><trkpt lat="42.90913945690513" lon="-1.8714322408347848"><ele>498.0</ele><time>2026-04-30T07:24:27.001Z</time></trkpt><trkpt lat="42.909144757404306" lon="-1.8715782020083882"><ele>497.99999999999994</ele><time>2026-04-30T07:24:28Z</time></trkpt><trkpt lat="42.90914796195927" lon="-1.8717223267251122"><ele>497.99999999999994</ele><time>2026-04-30T07:24:29Z</time></trkpt><trkpt lat="42.909152135061866" lon="-1.8718633139337757"><ele>498.0</ele><time>2026-04-30T07:24:30Z</time></trkpt><trkpt lat="42.90915674383117" lon="-1.8720110033710364"><ele>498.0</ele><time>2026-04-30T07:24:31Z</time></trkpt><trkpt lat="42.90916269542234" lon="-1.8721491662041656"><ele>498.0</ele><time>2026-04-30T07:24:32Z</time></trkpt><trkpt lat="42.909164471699576" lon="-1.8723006448805506"><ele>497.99999999999994</ele><time>2026-04-30T07:24:33Z</time></trkpt><trkpt lat="42.90916454956682" lon="-1.8724445576251856"><ele>497.99999999999994</ele><time>2026-04-30T07:24:34Z</time></trkpt><trkpt lat="42.90916335352309" lon="-1.8725906300368125"><ele>498.0</ele><time>2026-04-30T07:24:35Z</time></trkpt><trkpt lat="42.909159481531674" lon="-1.872730520498501"><ele>498.0</ele><time>2026-04-30T07:24:36Z</time></trkpt><trkpt lat="42.90915053338781" lon="-1.87288172633264"><ele>497.2</ele><time>2026-04-30T07:24:37Z</time></trkpt><trkpt lat="42.909138527157005" lon="-1.8730401691262113"><ele>496.4</ele><time>2026-04-30T07:24:38Z</time></trkpt><trkpt lat="42.90913186271911" lon="-1.8731853088754353"><ele>495.59999999999997</ele><time>2026-04-30T07:24:39Z</time></trkpt><trkpt lat="42.909121002382115" lon="-1.8733288182618544"><ele>494.79999999999995</ele><time>2026-04-30T07:24:40Z</time></trkpt><trkpt lat="42.909110957801275" lon="-1.8734700918852905"><ele>494.0</ele><time>2026-04-30T07:24:41Z</time></trkpt><trkpt lat="42.90909803439522" lon="-1.8736222788431223"><ele>493.0</ele><time>2026-04-30T07:24:42Z</time></trkpt><trkpt lat="42.90908457260419" lon="-1.8737771522959523"><ele>492.0</ele><time>2026-04-30T07:24:43Z</time></trkpt><trkpt lat="42.90907057498417" lon="-1.873928013686301"><ele>491.0</ele><time>2026-04-30T07:24:44Z</time></trkpt><trkpt lat="42.909058681234676" lon="-1.874072935412459"><ele>490.0</ele><time>2026-04-30T07:24:45Z</time></trkpt><trkpt lat="42.90904385266562" lon="-1.8742270734178612"><ele>489.0</ele><time>2026-04-30T07:24:46Z</time></trkpt><trkpt lat="42.90903482329203" lon="-1.8743742380917354"><ele>487.75</ele><time>2026-04-30T07:24:47Z</time></trkpt><trkpt lat="42.909022385574325" lon="-1.8745267386184594"><ele>486.5</ele><time>2026-04-30T07:24:48Z</time></trkpt><trkpt lat="42.90900919726038" lon="-1.8746829430940464"><ele>485.25</ele><time>2026-04-30T07:24:49Z</time></trkpt><trkpt lat="42.90899498138358" lon="-1.8748380965114249"><ele>484.0</ele><time>2026-04-30T07:24:50Z</time></trkpt><trkpt lat="42.90898174601974" lon="-1.874994403647667"><ele>483.5</ele><time>2026-04-30T07:24:51Z</time></trkpt><trkpt lat="42.90897035484829" lon="-1.8751465601585047"><ele>483.0</ele><time>2026-04-30T07:24:52Z</time></trkpt><trkpt lat="42.90895766288235" lon="-1.8753002849649805"><ele>482.5</ele><time>2026-04-30T07:24:53Z</time></trkpt><trkpt lat="42.90894329275962" lon="-1.8754540203561076"><ele>482.0</ele><time>2026-04-30T07:24:54Z</time></trkpt><trkpt lat="42.90892955011403" lon="-1.875605120792103"><ele>482.0</ele><time>2026-04-30T07:24:55Z</time></trkpt><trkpt lat="42.90891971276333" lon="-1.8757510567593902"><ele>482.00000000000006</ele><time>2026-04-30T07:24:56Z</time></trkpt><trkpt lat="42.90890763571272" lon="-1.8759056922771402"><ele>482.00000000000006</ele><time>2026-04-30T07:24:57Z</time></trkpt><trkpt lat="42.90889958148557" lon="-1.8760561103915105"><ele>482.0</ele><time>2026-04-30T07:24:58Z</time></trkpt><trkpt lat="42.90888419525339" lon="-1.876211441780775"><ele>482.0</ele><time>2026-04-30T07:24:59Z</time></trkpt><trkpt lat="42.90887357838371" lon="-1.8763614441604548"><ele>481.8</ele><time>2026-04-30T07:25:00Z</time></trkpt><trkpt lat="42.90886248792913" lon="-1.8765071266544786"><ele>481.6</ele><time>2026-04-30T07:25:01Z</time></trkpt><trkpt lat="42.908851490263274" lon="-1.8766593834574992"><ele>481.40000000000003</ele><time>2026-04-30T07:25:02Z</time></trkpt><trkpt lat="42.908844024088694" lon="-1.8768074023121184"><ele>481.20000000000005</ele><time>2026-04-30T07:25:03Z</time></trkpt><trkpt lat="42.908839902501626" lon="-1.8769567462647592"><ele>481.0</ele><time>2026-04-30T07:25:04Z</time></trkpt><trkpt lat="42.90884054582861" lon="-1.8771003429455613"><ele>480.6</ele><time>2026-04-30T07:25:05Z</time></trkpt><trkpt lat="42.90884374573586" lon="-1.8772452005105125"><ele>480.20000000000005</ele><time>2026-04-30T07:25:06Z</time></trkpt><trkpt lat="42.90884760228642" lon="-1.8773934203375033"><ele>479.79999999999995</ele><time>2026-04-30T07:25:07Z</time></trkpt><trkpt lat="42.90885486437428" lon="-1.8775406789607494"><ele>479.4</ele><time>2026-04-30T07:25:08Z</time></trkpt><trkpt lat="42.90886454930477" lon="-1.8776896299581531"><ele>479.0</ele><time>2026-04-30T07:25:09Z</time></trkpt><trkpt lat="42.908878424875496" lon="-1.8778371453472902"><ele>479.0</ele><time>2026-04-30T07:25:10Z</time></trkpt><trkpt lat="42.90889348280588" lon="-1.8779890981601401"><ele>479.0</ele><time>2026-04-30T07:25:11Z</time></trkpt><trkpt lat="42.9089089217853" lon="-1.8781382988468542"><ele>479.0</ele><time>2026-04-30T07:25:12Z</time></trkpt><trkpt lat="42.90892492393864" lon="-1.8782872284445733"><ele>479.0</ele><time>2026-04-30T07:25:13Z</time></trkpt><trkpt lat="42.90894087715511" lon="-1.8784327518355608"><ele>479.0</ele><time>2026-04-30T07:25:14Z</time></trkpt><trkpt lat="42.90895796353858" lon="-1.8785806762142339"><ele>479.0</ele><time>2026-04-30T07:25:15Z</time></trkpt><trkpt lat="42.908975247235894" lon="-1.8787285440992805"><ele>479.0</ele><time>2026-04-30T07:25:16Z</time></trkpt><trkpt lat="42.908993198721156" lon="-1.8788818632060476"><ele>479.0</ele><time>2026-04-30T07:25:17Z</time></trkpt><trkpt lat="42.90901001745744" lon="-1.8790270234114412"><ele>479.0</ele><time>2026-04-30T07:25:18Z</time></trkpt><trkpt lat="42.90902707622987" lon="-1.879184054853863"><ele>479.0</ele><time>2026-04-30T07:25:19Z</time></trkpt><trkpt lat="42.90904312265784" lon="-1.8793304208755428"><ele>479.2</ele><time>2026-04-30T07:25:20Z</time></trkpt><trkpt lat="42.909059611191395" lon="-1.8794751513104682"><ele>479.4</ele><time>2026-04-30T07:25:21Z</time></trkpt><trkpt lat="42.90907749220461" lon="-1.8796268862371255"><ele>479.6</ele><time>2026-04-30T07:25:22Z</time></trkpt><trkpt lat="42.90909388017391" lon="-1.879771484726963"><ele>479.8</ele><time>2026-04-30T07:25:23Z</time></trkpt><trkpt lat="42.90911172012532" lon="-1.8799221224031297"><ele>480.0</ele><time>2026-04-30T07:25:24Z</time></trkpt><trkpt lat="42.90912705891246" lon="-1.880064492087188"><ele>480.4</ele><time>2026-04-30T07:25:25Z</time></trkpt><trkpt lat="42.90914415577378" lon="-1.880208230993817"><ele>480.8</ele><time>2026-04-30T07:25:26Z</time></trkpt><trkpt lat="42.909161005839465" lon="-1.8803490893249084"><ele>481.20000000000005</ele><time>2026-04-30T07:25:27Z</time></trkpt><trkpt lat="42.90917862797353" lon="-1.880490915761864"><ele>481.6</ele><time>2026-04-30T07:25:28Z</time></trkpt><trkpt lat="42.90919417162458" lon="-1.8806375137096896"><ele>482.0</ele><time>2026-04-30T07:25:29Z</time></trkpt><trkpt lat="42.90920928068796" lon="-1.8807779927057309"><ele>482.0</ele><time>2026-04-30T07:25:30Z</time></trkpt><trkpt lat="42.909226409701546" lon="-1.8809176157160798"><ele>482.00000000000006</ele><time>2026-04-30T07:25:31Z</time></trkpt><trkpt lat="42.90924403157878" lon="-1.881058709981154"><ele>482.00000000000006</ele><time>2026-04-30T07:25:32Z</time></trkpt><trkpt lat="42.90926169482339" lon="-1.8811987116063906"><ele>482.0</ele><time>2026-04-30T07:25:33Z</time></trkpt><trkpt lat="42.90927788478885" lon="-1.881340682016789"><ele>482.0</ele><time>2026-04-30T07:25:34Z</time></trkpt><trkpt lat="42.909292234972625" lon="-1.8814856333847099"><ele>482.20000000000005</ele><time>2026-04-30T07:25:35Z</time></trkpt><trkpt lat="42.909309226530866" lon="-1.8816219405388692"><ele>482.40000000000003</ele><time>2026-04-30T07:25:36Z</time></trkpt><trkpt lat="42.9093254853952" lon="-1.8817629251411938"><ele>482.59999999999997</ele><time>2026-04-30T07:25:37Z</time></trkpt><trkpt lat="42.9093407302054" lon="-1.8819058946151792"><ele>482.79999999999995</ele><time>2026-04-30T07:25:38Z</time></trkpt><trkpt lat="42.909355979279105" lon="-1.8820489301734504"><ele>483.0</ele><time>2026-04-30T07:25:39Z</time></trkpt><trkpt lat="42.90937355952778" lon="-1.8821883075535288"><ele>483.0</ele><time>2026-04-30T07:25:40Z</time></trkpt><trkpt lat="42.90938909678115" lon="-1.8823306782114717"><ele>482.99999999999994</ele><time>2026-04-30T07:25:41Z</time></trkpt><trkpt lat="42.90940510562251" lon="-1.8824764668216343"><ele>482.99999999999994</ele><time>2026-04-30T07:25:42Z</time></trkpt><trkpt lat="42.9094215698465" lon="-1.8826193224062864"><ele>483.0</ele><time>2026-04-30T07:25:43Z</time></trkpt><trkpt lat="42.90943842504175" lon="-1.8827623645602372"><ele>483.0</ele><time>2026-04-30T07:25:44Z</time></trkpt><trkpt lat="42.90945717714892" lon="-1.88290754271864"><ele>482.79999999999995</ele><time>2026-04-30T07:25:45Z</time></trkpt><trkpt lat="42.90947618926052" lon="-1.8830528849920534"><ele>482.59999999999997</ele><time>2026-04-30T07:25:46Z</time></trkpt><trkpt lat="42.909496698037536" lon="-1.8832042743939728"><ele>482.40000000000003</ele><time>2026-04-30T07:25:47Z</time></trkpt><trkpt lat="42.909522450473084" lon="-1.883349525375885"><ele>482.20000000000005</ele><time>2026-04-30T07:25:48Z</time></trkpt><trkpt lat="42.9095520765882" lon="-1.883497744564957"><ele>482.0</ele><time>2026-04-30T07:25:49Z</time></trkpt><trkpt lat="42.909584319515105" lon="-1.8836404297314056"><ele>480.8</ele><time>2026-04-30T07:25:50Z</time></trkpt><trkpt lat="42.90961740499049" lon="-1.883779952710988"><ele>479.6</ele><time>2026-04-30T07:25:51Z</time></trkpt><trkpt lat="42.9096529934499" lon="-1.8839185136466405"><ele>478.40000000000003</ele><time>2026-04-30T07:25:52Z</time></trkpt><trkpt lat="42.90968919118247" lon="-1.8840546321080702"><ele>477.20000000000005</ele><time>2026-04-30T07:25:53Z</time></trkpt><trkpt lat="42.90972820191017" lon="-1.8841891598050415"><ele>476.0</ele><time>2026-04-30T07:25:54Z</time></trkpt><trkpt lat="42.90978032575471" lon="-1.8843096557063432"><ele>475.4</ele><time>2026-04-30T07:25:55Z</time></trkpt><trkpt lat="42.90984884805674" lon="-1.8844184769543078"><ele>474.8</ele><time>2026-04-30T07:25:56Z</time></trkpt><trkpt lat="42.90992635022593" lon="-1.8845175955047997"><ele>474.19999999999993</ele><time>2026-04-30T07:25:57Z</time></trkpt><trkpt lat="42.910013752481795" lon="-1.8846036611456243"><ele>473.59999999999997</ele><time>2026-04-30T07:25:58Z</time></trkpt><trkpt lat="42.91011438268297" lon="-1.8846780411395216"><ele>473.0</ele><time>2026-04-30T07:25:59Z</time></trkpt><trkpt lat="42.910222408912524" lon="-1.8847146233615937"><ele>472.5</ele><time>2026-04-30T07:26:00Z</time></trkpt><trkpt lat="42.910334720273454" lon="-1.8847348086315356"><ele>472.0</ele><time>2026-04-30T07:26:01Z</time></trkpt><trkpt lat="42.91044480509321" lon="-1.884735716587427"><ele>471.5</ele><time>2026-04-30T07:26:02Z</time></trkpt><trkpt lat="42.91055637657322" lon="-1.8847208981396673"><ele>471.0</ele><time>2026-04-30T07:26:03Z</time></trkpt><trkpt lat="42.910677098250005" lon="-1.8847002101117591"><ele>471.0</ele><time>2026-04-30T07:26:04Z</time></trkpt><trkpt lat="42.91078421336297" lon="-1.8846854780174045"><ele>471.0</ele><time>2026-04-30T07:26:05Z</time></trkpt><trkpt lat="42.91089313937469" lon="-1.8846710613350859"><ele>471.0</ele><time>2026-04-30T07:26:06Z</time></trkpt><trkpt lat="42.9110055638714" lon="-1.8846566738239408"><ele>471.0</ele><time>2026-04-30T07:26:07Z</time></trkpt><trkpt lat="42.91111515792308" lon="-1.8846355278800206"><ele>471.0</ele><time>2026-04-30T07:26:08Z</time></trkpt><trkpt lat="42.91122031646728" lon="-1.8846207539838524"><ele>470.6</ele><time>2026-04-30T07:26:09Z</time></trkpt><trkpt lat="42.91132667345959" lon="-1.8846085141337479"><ele>470.20000000000005</ele><time>2026-04-30T07:26:10Z</time></trkpt><trkpt lat="42.911432042388455" lon="-1.8845917042866456"><ele>469.79999999999995</ele><time>2026-04-30T07:26:11Z</time></trkpt><trkpt lat="42.911540117732955" lon="-1.8845721260615704"><ele>469.4</ele><time>2026-04-30T07:26:12Z</time></trkpt><trkpt lat="42.91164849830617" lon="-1.8845552535648173"><ele>469.0</ele><time>2026-04-30T07:26:13.001Z</time></trkpt><trkpt lat="42.91175438750454" lon="-1.8845419919650712"><ele>468.6</ele><time>2026-04-30T07:26:14.001Z</time></trkpt><trkpt lat="42.911857572349035" lon="-1.8845273132617342"><ele>468.2</ele><time>2026-04-30T07:26:15.001Z</time></trkpt><trkpt lat="42.91195463328408" lon="-1.884513332160423"><ele>467.80000000000007</ele><time>2026-04-30T07:26:16.001Z</time></trkpt><trkpt lat="42.91205291595323" lon="-1.884504929617919"><ele>467.40000000000003</ele><time>2026-04-30T07:26:17.001Z</time></trkpt><trkpt lat="42.91215417273405" lon="-1.8845105620765505"><ele>467.0</ele><time>2026-04-30T07:26:18.001Z</time></trkpt><trkpt lat="42.91225775658967" lon="-1.8845337840287049"><ele>467.0</ele><time>2026-04-30T07:26:19.001Z</time></trkpt><trkpt lat="42.91235753299553" lon="-1.8845771420282955"><ele>467.00000000000006</ele><time>2026-04-30T07:26:20.001Z</time></trkpt><trkpt lat="42.91245350316906" lon="-1.884636072900889"><ele>467.00000000000006</ele><time>2026-04-30T07:26:21.001Z</time></trkpt><trkpt lat="42.91254308315446" lon="-1.8847135655593812"><ele>467.0</ele><time>2026-04-30T07:26:22.001Z</time></trkpt><trkpt lat="42.9126240475426" lon="-1.884807327183483"><ele>467.0</ele><time>2026-04-30T07:26:23.001Z</time></trkpt><trkpt lat="42.91270257429219" lon="-1.884907735729774"><ele>466.0</ele><time>2026-04-30T07:26:24.001Z</time></trkpt><trkpt lat="42.91278738826703" lon="-1.8850004450403717"><ele>465.00000000000006</ele><time>2026-04-30T07:26:25.001Z</time></trkpt><trkpt lat="42.91288146217583" lon="-1.885077472418869"><ele>464.00000000000006</ele><time>2026-04-30T07:26:26.001Z</time></trkpt><trkpt lat="42.91298059546539" lon="-1.8851339798493107"><ele>463.0</ele><time>2026-04-30T07:26:27.001Z</time></trkpt><trkpt lat="42.91308475894727" lon="-1.8851698697133967"><ele>462.0</ele><time>2026-04-30T07:26:28.001Z</time></trkpt><trkpt lat="42.91318984506315" lon="-1.8851829400726754"><ele>462.0</ele><time>2026-04-30T07:26:29.001Z</time></trkpt><trkpt lat="42.91329293069745" lon="-1.8851773665202147"><ele>462.00000000000006</ele><time>2026-04-30T07:26:30.001Z</time></trkpt><trkpt lat="42.913397726569855" lon="-1.8851628998645165"><ele>462.00000000000006</ele><time>2026-04-30T07:26:31.001Z</time></trkpt><trkpt lat="42.91349902987847" lon="-1.8851446002628764"><ele>462.0</ele><time>2026-04-30T07:26:32.001Z</time></trkpt><trkpt lat="42.913595885144645" lon="-1.8851228400610969"><ele>462.0</ele><time>2026-04-30T07:26:33.001Z</time></trkpt><trkpt lat="42.913699793721705" lon="-1.8851214848531086"><ele>461.0</ele><time>2026-04-30T07:26:34Z</time></trkpt><trkpt lat="42.91379879791079" lon="-1.8850945024415087"><ele>460.00000000000006</ele><time>2026-04-30T07:26:35Z</time></trkpt><trkpt lat="42.913899940502134" lon="-1.8850719861357312"><ele>459.00000000000006</ele><time>2026-04-30T07:26:36Z</time></trkpt><trkpt lat="42.91399983148421" lon="-1.885054336578051"><ele>458.0</ele><time>2026-04-30T07:26:37Z</time></trkpt><trkpt lat="42.91410083305325" lon="-1.8850373557334523"><ele>457.0</ele><time>2026-04-30T07:26:38Z</time></trkpt><trkpt lat="42.914195310623946" lon="-1.8850212451687853"><ele>455.8</ele><time>2026-04-30T07:26:39Z</time></trkpt><trkpt lat="42.91428599477547" lon="-1.8850070621231807"><ele>454.6</ele><time>2026-04-30T07:26:40Z</time></trkpt><trkpt lat="42.914365070324756" lon="-1.8849896222774412"><ele>453.40000000000003</ele><time>2026-04-30T07:26:41Z</time></trkpt><trkpt lat="42.91442931800007" lon="-1.8849773682708197"><ele>452.20000000000005</ele><time>2026-04-30T07:26:42Z</time></trkpt><trkpt lat="42.9145290551024" lon="-1.8849728775690193"><ele>451.0</ele><time>2026-04-30T07:26:44Z</time></trkpt><trkpt lat="42.914563137228946" lon="-1.8852393048263294"><ele>451.00000000000006</ele><time>2026-04-30T07:26:48Z</time></trkpt><trkpt lat="42.91455449620009" lon="-1.8853390561389571"><ele>451.0</ele><time>2026-04-30T07:26:49Z</time></trkpt><trkpt lat="42.91454757228831" lon="-1.885446756057544"><ele>451.0</ele><time>2026-04-30T07:26:50Z</time></trkpt><trkpt lat="42.914543441995576" lon="-1.8855583535041676"><ele>451.0</ele><time>2026-04-30T07:26:51Z</time></trkpt><trkpt lat="42.91453987378464" lon="-1.8856793437838806"><ele>451.00000000000006</ele><time>2026-04-30T07:26:52Z</time></trkpt><trkpt lat="42.914534781701086" lon="-1.8858048470155675"><ele>451.0</ele><time>2026-04-30T07:26:53Z</time></trkpt><trkpt lat="42.91453145832181" lon="-1.8859363794664925"><ele>450.8</ele><time>2026-04-30T07:26:54Z</time></trkpt><trkpt lat="42.91452591454255" lon="-1.8860757687455254"><ele>450.6</ele><time>2026-04-30T07:26:55Z</time></trkpt><trkpt lat="42.9145071771949" lon="-1.8862196226432595"><ele>450.4</ele><time>2026-04-30T07:26:56Z</time></trkpt><trkpt lat="42.91450232422379" lon="-1.8863620769270582"><ele>450.2</ele><time>2026-04-30T07:26:57Z</time></trkpt><trkpt lat="42.91450256466549" lon="-1.8864943504699776"><ele>450.0</ele><time>2026-04-30T07:26:58Z</time></trkpt><trkpt lat="42.91449784786157" lon="-1.8866371852134112"><ele>449.6</ele><time>2026-04-30T07:26:59Z</time></trkpt><trkpt lat="42.91449617713187" lon="-1.8867749686534478"><ele>449.2</ele><time>2026-04-30T07:27:00Z</time></trkpt><trkpt lat="42.91449095097624" lon="-1.8869178101448945"><ele>448.79999999999995</ele><time>2026-04-30T07:27:01Z</time></trkpt><trkpt lat="42.91448391462649" lon="-1.8870630175731815"><ele>448.4</ele><time>2026-04-30T07:27:02Z</time></trkpt><trkpt lat="42.91448074617127" lon="-1.8872106330891139"><ele>448.0</ele><time>2026-04-30T07:27:03Z</time></trkpt><trkpt lat="42.91446735544055" lon="-1.887348901265133"><ele>448.0</ele><time>2026-04-30T07:27:04Z</time></trkpt><trkpt lat="42.914452591752195" lon="-1.8875012039896035"><ele>447.99999999999994</ele><time>2026-04-30T07:27:05Z</time></trkpt><trkpt lat="42.914437974204674" lon="-1.8876465700516838"><ele>447.99999999999994</ele><time>2026-04-30T07:27:06Z</time></trkpt><trkpt lat="42.914427348592874" lon="-1.8877949826201013"><ele>448.0</ele><time>2026-04-30T07:27:07Z</time></trkpt><trkpt lat="42.9144165512142" lon="-1.887936283347095"><ele>448.0</ele><time>2026-04-30T07:27:08Z</time></trkpt><trkpt lat="42.9144037384758" lon="-1.888075752327753"><ele>447.2</ele><time>2026-04-30T07:27:09Z</time></trkpt><trkpt lat="42.91438995178003" lon="-1.8882271568950628"><ele>446.4</ele><time>2026-04-30T07:27:10Z</time></trkpt><trkpt lat="42.91437427791589" lon="-1.8883722912825305"><ele>445.59999999999997</ele><time>2026-04-30T07:27:11Z</time></trkpt><trkpt lat="42.91436732940488" lon="-1.8885200653976044"><ele>444.79999999999995</ele><time>2026-04-30T07:27:12Z</time></trkpt><trkpt lat="42.91436327558994" lon="-1.8886675544240952"><ele>444.0</ele><time>2026-04-30T07:27:13Z</time></trkpt><trkpt lat="42.914363908889975" lon="-1.8888169995436639"><ele>443.6</ele><time>2026-04-30T07:27:14Z</time></trkpt><trkpt lat="42.91436709850998" lon="-1.8889673445536352"><ele>443.2</ele><time>2026-04-30T07:27:15Z</time></trkpt><trkpt lat="42.914371227643116" lon="-1.889117655721359"><ele>442.80000000000007</ele><time>2026-04-30T07:27:16Z</time></trkpt><trkpt lat="42.914375629625745" lon="-1.8892688404085867"><ele>442.40000000000003</ele><time>2026-04-30T07:27:17Z</time></trkpt><trkpt lat="42.91437593647214" lon="-1.8894223606882412"><ele>442.0</ele><time>2026-04-30T07:27:18Z</time></trkpt><trkpt lat="42.914383607704224" lon="-1.8895669635696264"><ele>442.0</ele><time>2026-04-30T07:27:19Z</time></trkpt><trkpt lat="42.91439139563659" lon="-1.8897223801185328"><ele>442.00000000000006</ele><time>2026-04-30T07:27:20Z</time></trkpt><trkpt lat="42.91440209468522" lon="-1.8898661053317714"><ele>442.00000000000006</ele><time>2026-04-30T07:27:21Z</time></trkpt><trkpt lat="42.91440657882434" lon="-1.890013374514424"><ele>442.0</ele><time>2026-04-30T07:27:22Z</time></trkpt><trkpt lat="42.914406595442806" lon="-1.8901610605435732"><ele>442.0</ele><time>2026-04-30T07:27:23Z</time></trkpt><trkpt lat="42.91440471764141" lon="-1.8903114458579076"><ele>442.0</ele><time>2026-04-30T07:27:24Z</time></trkpt><trkpt lat="42.914408194484984" lon="-1.890453385382635"><ele>442.00000000000006</ele><time>2026-04-30T07:27:25Z</time></trkpt><trkpt lat="42.91441974748708" lon="-1.8905939853159706"><ele>442.00000000000006</ele><time>2026-04-30T07:27:26Z</time></trkpt><trkpt lat="42.91442802750498" lon="-1.8907383050045585"><ele>442.0</ele><time>2026-04-30T07:27:27Z</time></trkpt><trkpt lat="42.91443074529198" lon="-1.8908891074475178"><ele>442.0</ele><time>2026-04-30T07:27:28Z</time></trkpt><trkpt lat="42.914427587860594" lon="-1.8910338033833904"><ele>442.20000000000005</ele><time>2026-04-30T07:27:29Z</time></trkpt><trkpt lat="42.91442450227361" lon="-1.8911829566078757"><ele>442.40000000000003</ele><time>2026-04-30T07:27:30Z</time></trkpt><trkpt lat="42.914427857788695" lon="-1.8913282481866132"><ele>442.59999999999997</ele><time>2026-04-30T07:27:31Z</time></trkpt><trkpt lat="42.91443266109711" lon="-1.8914673491897809"><ele>442.79999999999995</ele><time>2026-04-30T07:27:32Z</time></trkpt><trkpt lat="42.91443807531871" lon="-1.8916071655628093"><ele>443.0</ele><time>2026-04-30T07:27:33Z</time></trkpt><trkpt lat="42.91444392390948" lon="-1.8917472143452145"><ele>442.8333333333333</ele><time>2026-04-30T07:27:34Z</time></trkpt><trkpt lat="42.914447468577585" lon="-1.8918643292816686"><ele>442.66666666666663</ele><time>2026-04-30T07:27:35Z</time></trkpt><trkpt lat="42.914449758764995" lon="-1.891973024484208"><ele>442.5</ele><time>2026-04-30T07:27:36Z</time></trkpt><trkpt lat="42.914452733700216" lon="-1.892080975453346"><ele>442.33333333333337</ele><time>2026-04-30T07:27:37Z</time></trkpt><trkpt lat="42.91445327047049" lon="-1.8922452213235852"><ele>442.1666666666667</ele><time>2026-04-30T07:27:39Z</time></trkpt><trkpt lat="42.91446999382679" lon="-1.8923429953662847"><ele>442.0</ele><time>2026-04-30T07:27:41Z</time></trkpt><trkpt lat="42.91447859337008" lon="-1.8924679245177103"><ele>442.0</ele><time>2026-04-30T07:27:47Z</time></trkpt><trkpt lat="42.91476866985603" lon="-1.8923546467822268"><ele>442.0</ele><time>2026-04-30T07:27:48Z</time></trkpt><trkpt lat="42.914830851485924" lon="-1.8924023048840208"><ele>442.0</ele><time>2026-04-30T07:27:49Z</time></trkpt><trkpt lat="42.914875016544514" lon="-1.8924680969867373"><ele>442.0</ele><time>2026-04-30T07:27:50Z</time></trkpt><trkpt lat="42.91490393355228" lon="-1.8925498771629823"><ele>442.5714285714286</ele><time>2026-04-30T07:27:51Z</time></trkpt><trkpt lat="42.9149041333686" lon="-1.8926530397410786"><ele>443.14285714285717</ele><time>2026-04-30T07:27:52Z</time></trkpt><trkpt lat="42.91489583975736" lon="-1.8927413630679477"><ele>443.7142857142857</ele><time>2026-04-30T07:27:53Z</time></trkpt><trkpt lat="42.914886523232035" lon="-1.8928302467195954"><ele>444.28571428571433</ele><time>2026-04-30T07:27:54Z</time></trkpt><trkpt lat="42.91487674558189" lon="-1.892920795367497"><ele>444.85714285714283</ele><time>2026-04-30T07:27:55Z</time></trkpt><trkpt lat="42.91487098972671" lon="-1.8930151779038467"><ele>445.42857142857144</ele><time>2026-04-30T07:27:56Z</time></trkpt><trkpt lat="42.914860812752885" lon="-1.8931069228730744"><ele>446.0</ele><time>2026-04-30T07:27:57Z</time></trkpt><trkpt lat="42.91485112196244" lon="-1.8932049285472399"><ele>446.0</ele><time>2026-04-30T07:27:58Z</time></trkpt><trkpt lat="42.91484133657163" lon="-1.8933037404086035"><ele>446.0</ele><time>2026-04-30T07:27:59Z</time></trkpt><trkpt lat="42.914840116424685" lon="-1.8934007195695275"><ele>446.0</ele><time>2026-04-30T07:28:00Z</time></trkpt><trkpt lat="42.91485432226601" lon="-1.8934970393126123"><ele>446.0</ele><time>2026-04-30T07:28:01Z</time></trkpt><trkpt lat="42.91488244394146" lon="-1.8935845681588224"><ele>446.0</ele><time>2026-04-30T07:28:02.001Z</time></trkpt><trkpt lat="42.914920472792325" lon="-1.8936654250279894"><ele>446.0</ele><time>2026-04-30T07:28:03.001Z</time></trkpt><trkpt lat="42.91496933283679" lon="-1.8937369843238556"><ele>446.0</ele><time>2026-04-30T07:28:04.001Z</time></trkpt><trkpt lat="42.91502553322112" lon="-1.8938052668035412"><ele>446.3333333333333</ele><time>2026-04-30T07:28:05.001Z</time></trkpt><trkpt lat="42.9150860451736" lon="-1.89386385738582"><ele>446.66666666666663</ele><time>2026-04-30T07:28:06.001Z</time></trkpt><trkpt lat="42.91515793093886" lon="-1.8939212581092224"><ele>447.0</ele><time>2026-04-30T07:28:07.001Z</time></trkpt><trkpt lat="42.91522133907158" lon="-1.893984603528436"><ele>447.33333333333337</ele><time>2026-04-30T07:28:08.001Z</time></trkpt><trkpt lat="42.915273262450036" lon="-1.894069280831717"><ele>447.6666666666667</ele><time>2026-04-30T07:28:09.001Z</time></trkpt><trkpt lat="42.91530237654542" lon="-1.8941666731107698"><ele>448.0</ele><time>2026-04-30T07:28:10.001Z</time></trkpt><trkpt lat="42.91533002218705" lon="-1.8942777666385162"><ele>448.1666666666667</ele><time>2026-04-30T07:28:11.001Z</time></trkpt><trkpt lat="42.91533709803213" lon="-1.89438724744451"><ele>448.33333333333337</ele><time>2026-04-30T07:28:12.001Z</time></trkpt><trkpt lat="42.91534592759299" lon="-1.894499684699603"><ele>448.5</ele><time>2026-04-30T07:28:13.001Z</time></trkpt><trkpt lat="42.915361453292114" lon="-1.8946107315110758"><ele>448.66666666666663</ele><time>2026-04-30T07:28:14.001Z</time></trkpt><trkpt lat="42.91537716047607" lon="-1.8947299227713124"><ele>448.8333333333333</ele><time>2026-04-30T07:28:15.001Z</time></trkpt><trkpt lat="42.91539372579766" lon="-1.894848891473044"><ele>449.0</ele><time>2026-04-30T07:28:16.001Z</time></trkpt><trkpt lat="42.91540812156186" lon="-1.8949714724197175"><ele>449.3333333333333</ele><time>2026-04-30T07:28:17.001Z</time></trkpt><trkpt lat="42.915426628436165" lon="-1.895087651685468"><ele>449.66666666666663</ele><time>2026-04-30T07:28:18.001Z</time></trkpt><trkpt lat="42.91543887587636" lon="-1.8952086161769268"><ele>450.0</ele><time>2026-04-30T07:28:19.001Z</time></trkpt><trkpt lat="42.915456423569395" lon="-1.8953281383679186"><ele>450.33333333333337</ele><time>2026-04-30T07:28:20.001Z</time></trkpt><trkpt lat="42.91546683544951" lon="-1.8954450711685826"><ele>450.6666666666667</ele><time>2026-04-30T07:28:21.001Z</time></trkpt><trkpt lat="42.915486400993174" lon="-1.8955619761030396"><ele>451.0</ele><time>2026-04-30T07:28:22.001Z</time></trkpt><trkpt lat="42.91550310429226" lon="-1.8956638987430734"><ele>451.0</ele><time>2026-04-30T07:28:23.001Z</time></trkpt><trkpt lat="42.91551547080694" lon="-1.895759278659317"><ele>451.0</ele><time>2026-04-30T07:28:24.001Z</time></trkpt><trkpt lat="42.915527523085565" lon="-1.895848148888298"><ele>451.0</ele><time>2026-04-30T07:28:25.001Z</time></trkpt><trkpt lat="42.91555151335843" lon="-1.8960051585205726"><ele>451.0</ele><time>2026-04-30T07:28:27.001Z</time></trkpt><trkpt lat="42.91557423424252" lon="-1.8961860298093467"><ele>451.0</ele><time>2026-04-30T07:28:29.001Z</time></trkpt><trkpt lat="42.915589514454865" lon="-1.8962904332342363"><ele>451.00000000000006</ele><time>2026-04-30T07:28:30.001Z</time></trkpt><trkpt lat="42.91560237059042" lon="-1.8963924955572202"><ele>451.0</ele><time>2026-04-30T07:28:31.001Z</time></trkpt><trkpt lat="42.91561702779964" lon="-1.896501508245806"><ele>451.0</ele><time>2026-04-30T07:28:32.001Z</time></trkpt><trkpt lat="42.91563550515751" lon="-1.8966123329899176"><ele>451.0</ele><time>2026-04-30T07:28:33.001Z</time></trkpt><trkpt lat="42.91565336683076" lon="-1.8967291179285581"><ele>451.00000000000006</ele><time>2026-04-30T07:28:34.001Z</time></trkpt><trkpt lat="42.91566854135575" lon="-1.8968454841297981"><ele>451.0</ele><time>2026-04-30T07:28:35.001Z</time></trkpt><trkpt lat="42.91568554801565" lon="-1.896961231607678"><ele>450.83333333333337</ele><time>2026-04-30T07:28:36.001Z</time></trkpt><trkpt lat="42.91570271225386" lon="-1.897077746827996"><ele>450.6666666666667</ele><time>2026-04-30T07:28:37.001Z</time></trkpt><trkpt lat="42.91571803897425" lon="-1.8971910528584508"><ele>450.5</ele><time>2026-04-30T07:28:38.001Z</time></trkpt><trkpt lat="42.9157351300795" lon="-1.8973108747407614"><ele>450.33333333333337</ele><time>2026-04-30T07:28:39.001Z</time></trkpt><trkpt lat="42.915751904964885" lon="-1.8974283092510889"><ele>450.1666666666667</ele><time>2026-04-30T07:28:40Z</time></trkpt><trkpt lat="42.91576534653087" lon="-1.8975485642973506"><ele>450.0</ele><time>2026-04-30T07:28:41Z</time></trkpt><trkpt lat="42.91577926772213" lon="-1.8976694589882477"><ele>450.0</ele><time>2026-04-30T07:28:42Z</time></trkpt><trkpt lat="42.91579520254507" lon="-1.8977857804031935"><ele>450.0</ele><time>2026-04-30T07:28:43Z</time></trkpt><trkpt lat="42.91581174102235" lon="-1.897909621001819"><ele>450.0</ele><time>2026-04-30T07:28:44Z</time></trkpt><trkpt lat="42.91582985026578" lon="-1.8980320907197281"><ele>450.0</ele><time>2026-04-30T07:28:45Z</time></trkpt><trkpt lat="42.91584343166926" lon="-1.8981573747003515"><ele>450.0</ele><time>2026-04-30T07:28:46Z</time></trkpt><trkpt lat="42.915857951243005" lon="-1.8982857980985852"><ele>450.0</ele><time>2026-04-30T07:28:47Z</time></trkpt><trkpt lat="42.91588099495205" lon="-1.8984175135408676"><ele>450.0</ele><time>2026-04-30T07:28:48Z</time></trkpt><trkpt lat="42.91590089032847" lon="-1.8985521052033387"><ele>450.0</ele><time>2026-04-30T07:28:49Z</time></trkpt><trkpt lat="42.91591887619698" lon="-1.898678614809564"><ele>450.0</ele><time>2026-04-30T07:28:50Z</time></trkpt><trkpt lat="42.91593700939986" lon="-1.8988122718284246"><ele>450.0</ele><time>2026-04-30T07:28:51Z</time></trkpt><trkpt lat="42.91595398280474" lon="-1.8989505987289819"><ele>449.8</ele><time>2026-04-30T07:28:52Z</time></trkpt><trkpt lat="42.91597008466278" lon="-1.899082405455956"><ele>449.6</ele><time>2026-04-30T07:28:53Z</time></trkpt><trkpt lat="42.91598720989825" lon="-1.899212941174795"><ele>449.4</ele><time>2026-04-30T07:28:54Z</time></trkpt><trkpt lat="42.9160060980613" lon="-1.8993531525278264"><ele>449.2</ele><time>2026-04-30T07:28:55Z</time></trkpt><trkpt lat="42.916027708754015" lon="-1.8994894195190593"><ele>449.0</ele><time>2026-04-30T07:28:56Z</time></trkpt><trkpt lat="42.91604556117205" lon="-1.8996297162347136"><ele>449.0</ele><time>2026-04-30T07:28:57Z</time></trkpt><trkpt lat="42.91606244987871" lon="-1.8997579826750757"><ele>449.0</ele><time>2026-04-30T07:28:58Z</time></trkpt><trkpt lat="42.91607873503506" lon="-1.8998946647550798"><ele>449.0</ele><time>2026-04-30T07:28:59Z</time></trkpt><trkpt lat="42.91609776718477" lon="-1.900034260375249"><ele>449.0</ele><time>2026-04-30T07:29:00Z</time></trkpt><trkpt lat="42.916117987577586" lon="-1.9001740858347012"><ele>449.0</ele><time>2026-04-30T07:29:01Z</time></trkpt><trkpt lat="42.91613798382815" lon="-1.9003072500727658"><ele>449.4</ele><time>2026-04-30T07:29:02Z</time></trkpt><trkpt lat="42.91615554467889" lon="-1.9004419045548135"><ele>449.79999999999995</ele><time>2026-04-30T07:29:03Z</time></trkpt><trkpt lat="42.916173473605724" lon="-1.9005779658569415"><ele>450.20000000000005</ele><time>2026-04-30T07:29:04Z</time></trkpt><trkpt lat="42.91619291020626" lon="-1.9007124902115178"><ele>450.6</ele><time>2026-04-30T07:29:05Z</time></trkpt><trkpt lat="42.91621190994863" lon="-1.900849094262178"><ele>451.0</ele><time>2026-04-30T07:29:06Z</time></trkpt><trkpt lat="42.91622873261301" lon="-1.9009837692424503"><ele>451.0</ele><time>2026-04-30T07:29:07Z</time></trkpt><trkpt lat="42.916249897259675" lon="-1.901119813875023"><ele>451.0</ele><time>2026-04-30T07:29:08Z</time></trkpt><trkpt lat="42.91626924160147" lon="-1.9012560270813053"><ele>451.0</ele><time>2026-04-30T07:29:09Z</time></trkpt><trkpt lat="42.916286357361585" lon="-1.9013877748198762"><ele>451.0</ele><time>2026-04-30T07:29:10Z</time></trkpt><trkpt lat="42.91630415524324" lon="-1.90152596099962"><ele>451.0</ele><time>2026-04-30T07:29:11Z</time></trkpt><trkpt lat="42.91632444868223" lon="-1.9016643118339163"><ele>450.8</ele><time>2026-04-30T07:29:12Z</time></trkpt><trkpt lat="42.91634598772106" lon="-1.90180063882219"><ele>450.6</ele><time>2026-04-30T07:29:13Z</time></trkpt><trkpt lat="42.9163639296283" lon="-1.9019369087604938"><ele>450.4</ele><time>2026-04-30T07:29:14Z</time></trkpt><trkpt lat="42.916383635686124" lon="-1.9020723251792884"><ele>450.2</ele><time>2026-04-30T07:29:15Z</time></trkpt><trkpt lat="42.91640275781333" lon="-1.902212137251417"><ele>450.0</ele><time>2026-04-30T07:29:16Z</time></trkpt><trkpt lat="42.91642130000631" lon="-1.9023560168508733"><ele>450.0</ele><time>2026-04-30T07:29:17Z</time></trkpt><trkpt lat="42.916440953631685" lon="-1.902497452887128"><ele>450.0</ele><time>2026-04-30T07:29:18Z</time></trkpt><trkpt lat="42.91646100452908" lon="-1.9026459982737902"><ele>450.0</ele><time>2026-04-30T07:29:19Z</time></trkpt><trkpt lat="42.916483657904884" lon="-1.9027829907983194"><ele>450.0</ele><time>2026-04-30T07:29:20Z</time></trkpt><trkpt lat="42.91650094911584" lon="-1.9029191115678443"><ele>450.0</ele><time>2026-04-30T07:29:21Z</time></trkpt><trkpt lat="42.91651846132709" lon="-1.903054339003049"><ele>450.2</ele><time>2026-04-30T07:29:22Z</time></trkpt><trkpt lat="42.916534290828615" lon="-1.9031843054061588"><ele>450.4</ele><time>2026-04-30T07:29:23Z</time></trkpt><trkpt lat="42.91655262034515" lon="-1.903319938317044"><ele>450.6</ele><time>2026-04-30T07:29:24Z</time></trkpt><trkpt lat="42.91656905687634" lon="-1.9034556530673075"><ele>450.8</ele><time>2026-04-30T07:29:25Z</time></trkpt><trkpt lat="42.91658644409976" lon="-1.903596616554714"><ele>451.0</ele><time>2026-04-30T07:29:26Z</time></trkpt><trkpt lat="42.91660762352854" lon="-1.9037467492459719"><ele>451.0</ele><time>2026-04-30T07:29:27Z</time></trkpt><trkpt lat="42.9166253635501" lon="-1.9038852170065925"><ele>451.0</ele><time>2026-04-30T07:29:28Z</time></trkpt><trkpt lat="42.91664258764329" lon="-1.9040210323653086"><ele>451.0</ele><time>2026-04-30T07:29:29Z</time></trkpt><trkpt lat="42.91666265714802" lon="-1.9041621773536754"><ele>451.0</ele><time>2026-04-30T07:29:30Z</time></trkpt><trkpt lat="42.916684529609576" lon="-1.9043046000471988"><ele>451.0</ele><time>2026-04-30T07:29:31Z</time></trkpt><trkpt lat="42.91670626150111" lon="-1.9044471907831235"><ele>451.0</ele><time>2026-04-30T07:29:32Z</time></trkpt><trkpt lat="42.916724931719365" lon="-1.9045892588509243"><ele>451.0</ele><time>2026-04-30T07:29:33Z</time></trkpt><trkpt lat="42.91673859037647" lon="-1.9047299575035748"><ele>451.0</ele><time>2026-04-30T07:29:34Z</time></trkpt><trkpt lat="42.916753659948434" lon="-1.90486637019828"><ele>451.0</ele><time>2026-04-30T07:29:35Z</time></trkpt><trkpt lat="42.91677889000287" lon="-1.90500860211685"><ele>451.0</ele><time>2026-04-30T07:29:36Z</time></trkpt><trkpt lat="42.91680143156176" lon="-1.9051501298974471"><ele>451.0</ele><time>2026-04-30T07:29:37Z</time></trkpt><trkpt lat="42.91682095663784" lon="-1.9052877014243623"><ele>451.0</ele><time>2026-04-30T07:29:38Z</time></trkpt><trkpt lat="42.916836548229114" lon="-1.9054257871239493"><ele>451.0</ele><time>2026-04-30T07:29:39Z</time></trkpt><trkpt lat="42.916856533895675" lon="-1.9055692231629986"><ele>451.0</ele><time>2026-04-30T07:29:40Z</time></trkpt><trkpt lat="42.91687537137313" lon="-1.9057048581733878"><ele>451.0</ele><time>2026-04-30T07:29:41Z</time></trkpt><trkpt lat="42.91689284386182" lon="-1.9058427285835695"><ele>451.20000000000005</ele><time>2026-04-30T07:29:42Z</time></trkpt><trkpt lat="42.91691271688277" lon="-1.9059872635902229"><ele>451.40000000000003</ele><time>2026-04-30T07:29:43Z</time></trkpt><trkpt lat="42.91693114468715" lon="-1.9061230449605462"><ele>451.6</ele><time>2026-04-30T07:29:44Z</time></trkpt><trkpt lat="42.9169487253988" lon="-1.906259341412475"><ele>451.8</ele><time>2026-04-30T07:29:45Z</time></trkpt><trkpt lat="42.91696677989032" lon="-1.9064006791529242"><ele>452.0</ele><time>2026-04-30T07:29:46Z</time></trkpt><trkpt lat="42.91698551108359" lon="-1.9065394171462198"><ele>452.0</ele><time>2026-04-30T07:29:47Z</time></trkpt><trkpt lat="42.917004924091" lon="-1.906680864380764"><ele>452.00000000000006</ele><time>2026-04-30T07:29:48Z</time></trkpt><trkpt lat="42.91702482935203" lon="-1.9068168110826471"><ele>452.00000000000006</ele><time>2026-04-30T07:29:49Z</time></trkpt><trkpt lat="42.91704523577235" lon="-1.9069537775381489"><ele>452.0</ele><time>2026-04-30T07:29:50Z</time></trkpt><trkpt lat="42.91706521448621" lon="-1.9070955422744533"><ele>452.0</ele><time>2026-04-30T07:29:51Z</time></trkpt><trkpt lat="42.91708550825655" lon="-1.9072378981989955"><ele>452.0</ele><time>2026-04-30T07:29:52Z</time></trkpt><trkpt lat="42.91710362458057" lon="-1.9073779868135627"><ele>452.00000000000006</ele><time>2026-04-30T07:29:53Z</time></trkpt><trkpt lat="42.91712400687933" lon="-1.9075155019416046"><ele>452.00000000000006</ele><time>2026-04-30T07:29:54Z</time></trkpt><trkpt lat="42.917145947412074" lon="-1.907651762647319"><ele>452.0</ele><time>2026-04-30T07:29:55Z</time></trkpt><trkpt lat="42.9171618682488" lon="-1.9077927227204114"><ele>452.0</ele><time>2026-04-30T07:29:56Z</time></trkpt><trkpt lat="42.91717938320308" lon="-1.9079291051530805"><ele>452.0</ele><time>2026-04-30T07:29:57Z</time></trkpt><trkpt lat="42.917199997998495" lon="-1.9080701497589245"><ele>452.00000000000006</ele><time>2026-04-30T07:29:58Z</time></trkpt><trkpt lat="42.91721790584226" lon="-1.9082069059840039"><ele>452.00000000000006</ele><time>2026-04-30T07:29:59Z</time></trkpt><trkpt lat="42.917234865876175" lon="-1.9083499502390444"><ele>452.0</ele><time>2026-04-30T07:30:00Z</time></trkpt><trkpt lat="42.917253913841854" lon="-1.9084929672600492"><ele>452.0</ele><time>2026-04-30T07:30:01Z</time></trkpt><trkpt lat="42.91727238189633" lon="-1.9086309035767453"><ele>452.0</ele><time>2026-04-30T07:30:02Z</time></trkpt><trkpt lat="42.91729065120061" lon="-1.908778614143854"><ele>452.00000000000006</ele><time>2026-04-30T07:30:03.001Z</time></trkpt><trkpt lat="42.91731095599573" lon="-1.908926987031314"><ele>452.00000000000006</ele><time>2026-04-30T07:30:04.001Z</time></trkpt><trkpt lat="42.91732365911631" lon="-1.9090588873810868"><ele>452.0</ele><time>2026-04-30T07:30:05.001Z</time></trkpt><trkpt lat="42.91734416289745" lon="-1.9091954879146453"><ele>452.0</ele><time>2026-04-30T07:30:06.001Z</time></trkpt><trkpt lat="42.91736188729848" lon="-1.9093447176955274"><ele>452.20000000000005</ele><time>2026-04-30T07:30:07.001Z</time></trkpt><trkpt lat="42.9173797041443" lon="-1.9094807854431417"><ele>452.40000000000003</ele><time>2026-04-30T07:30:08.001Z</time></trkpt><trkpt lat="42.91739894443652" lon="-1.9096193702463726"><ele>452.59999999999997</ele><time>2026-04-30T07:30:09.001Z</time></trkpt><trkpt lat="42.91741892548784" lon="-1.9097608900030871"><ele>452.79999999999995</ele><time>2026-04-30T07:30:10.001Z</time></trkpt><trkpt lat="42.91743872741633" lon="-1.9099039267577846"><ele>453.0</ele><time>2026-04-30T07:30:11.001Z</time></trkpt><trkpt lat="42.91745649164118" lon="-1.9100476529173647"><ele>453.2</ele><time>2026-04-30T07:30:12.001Z</time></trkpt><trkpt lat="42.91747628788956" lon="-1.9101886937010666"><ele>453.4</ele><time>2026-04-30T07:30:13.001Z</time></trkpt><trkpt lat="42.91749436366294" lon="-1.9103306949442806"><ele>453.59999999999997</ele><time>2026-04-30T07:30:14.001Z</time></trkpt><trkpt lat="42.91751460388734" lon="-1.9104711202836735"><ele>453.79999999999995</ele><time>2026-04-30T07:30:15.001Z</time></trkpt><trkpt lat="42.9175350641352" lon="-1.910609126180982"><ele>454.0</ele><time>2026-04-30T07:30:16.001Z</time></trkpt><trkpt lat="42.91755469758836" lon="-1.910751707334791"><ele>453.4</ele><time>2026-04-30T07:30:17.001Z</time></trkpt><trkpt lat="42.917576511584066" lon="-1.91088977792034"><ele>452.79999999999995</ele><time>2026-04-30T07:30:18.001Z</time></trkpt><trkpt lat="42.917597078760465" lon="-1.9110256423967076"><ele>452.20000000000005</ele><time>2026-04-30T07:30:19.001Z</time></trkpt><trkpt lat="42.91761789947443" lon="-1.9111653732463088"><ele>451.6</ele><time>2026-04-30T07:30:20.001Z</time></trkpt><trkpt lat="42.91763849075154" lon="-1.9113028362880433"><ele>451.0</ele><time>2026-04-30T07:30:21.001Z</time></trkpt><trkpt lat="42.91765599460715" lon="-1.911445685434854"><ele>451.0</ele><time>2026-04-30T07:30:22.001Z</time></trkpt><trkpt lat="42.917673848923975" lon="-1.9115869922360647"><ele>451.0</ele><time>2026-04-30T07:30:23.001Z</time></trkpt><trkpt lat="42.91769079337954" lon="-1.9117288031123985"><ele>451.0</ele><time>2026-04-30T07:30:24.001Z</time></trkpt><trkpt lat="42.917710793828185" lon="-1.9118673971824076"><ele>451.0</ele><time>2026-04-30T07:30:25.001Z</time></trkpt><trkpt lat="42.91773391893643" lon="-1.9120096586909148"><ele>451.0</ele><time>2026-04-30T07:30:26.001Z</time></trkpt><trkpt lat="42.917754063673854" lon="-1.9121494404146122"><ele>451.20000000000005</ele><time>2026-04-30T07:30:27.001Z</time></trkpt><trkpt lat="42.91777531347865" lon="-1.9122920302661934"><ele>451.40000000000003</ele><time>2026-04-30T07:30:28.001Z</time></trkpt><trkpt lat="42.91779447859671" lon="-1.9124314220718703"><ele>451.6</ele><time>2026-04-30T07:30:29.001Z</time></trkpt><trkpt lat="42.91781411863746" lon="-1.912577196845121"><ele>451.8</ele><time>2026-04-30T07:30:30.001Z</time></trkpt><trkpt lat="42.91783312147306" lon="-1.912721100687619"><ele>452.0</ele><time>2026-04-30T07:30:31.001Z</time></trkpt><trkpt lat="42.917850849535476" lon="-1.912864017693469"><ele>452.0</ele><time>2026-04-30T07:30:32.001Z</time></trkpt><trkpt lat="42.91787136254463" lon="-1.9130115521647817"><ele>452.00000000000006</ele><time>2026-04-30T07:30:33.001Z</time></trkpt><trkpt lat="42.917887193038375" lon="-1.9131530463293025"><ele>452.00000000000006</ele><time>2026-04-30T07:30:34.001Z</time></trkpt><trkpt lat="42.917905167392234" lon="-1.9132963593310766"><ele>452.0</ele><time>2026-04-30T07:30:35.001Z</time></trkpt><trkpt lat="42.91792501215952" lon="-1.9134422156156217"><ele>452.0</ele><time>2026-04-30T07:30:36.001Z</time></trkpt><trkpt lat="42.91794376072406" lon="-1.9135825518362888"><ele>452.40000000000003</ele><time>2026-04-30T07:30:37.001Z</time></trkpt><trkpt lat="42.91796348190467" lon="-1.9137338402674913"><ele>452.80000000000007</ele><time>2026-04-30T07:30:38.001Z</time></trkpt><trkpt lat="42.9179833874739" lon="-1.9138758514034642"><ele>453.2</ele><time>2026-04-30T07:30:39.001Z</time></trkpt><trkpt lat="42.91800263063989" lon="-1.9140239784619806"><ele>453.6</ele><time>2026-04-30T07:30:40.001Z</time></trkpt><trkpt lat="42.91802035706144" lon="-1.9141679396170674"><ele>454.0</ele><time>2026-04-30T07:30:41.001Z</time></trkpt><trkpt lat="42.918036751498455" lon="-1.9143128094650106"><ele>454.2</ele><time>2026-04-30T07:30:42.001Z</time></trkpt><trkpt lat="42.91805512724397" lon="-1.9144595249528327"><ele>454.4</ele><time>2026-04-30T07:30:43.001Z</time></trkpt><trkpt lat="42.91807542404059" lon="-1.9146012503437062"><ele>454.6</ele><time>2026-04-30T07:30:44.001Z</time></trkpt><trkpt lat="42.918095661320486" lon="-1.9147387176734212"><ele>454.8</ele><time>2026-04-30T07:30:45.001Z</time></trkpt><trkpt lat="42.91811398220696" lon="-1.9148867701684034"><ele>455.0</ele><time>2026-04-30T07:30:46Z</time></trkpt><trkpt lat="42.91813299126498" lon="-1.9150281648640852"><ele>455.0</ele><time>2026-04-30T07:30:47Z</time></trkpt><trkpt lat="42.918148746168626" lon="-1.9151641757675406"><ele>455.0</ele><time>2026-04-30T07:30:48Z</time></trkpt><trkpt lat="42.91816469343491" lon="-1.9152951721644933"><ele>455.0</ele><time>2026-04-30T07:30:49Z</time></trkpt><trkpt lat="42.91818247460666" lon="-1.9154345197043448"><ele>455.0</ele><time>2026-04-30T07:30:50Z</time></trkpt><trkpt lat="42.918201680552265" lon="-1.9155527499306777"><ele>455.0</ele><time>2026-04-30T07:30:51Z</time></trkpt><trkpt lat="42.91821848791169" lon="-1.9156736339042104"><ele>454.99999999999994</ele><time>2026-04-30T07:30:52Z</time></trkpt><trkpt lat="42.918236102579506" lon="-1.9157846184696803"><ele>455.0</ele><time>2026-04-30T07:30:53Z</time></trkpt><trkpt lat="42.918252662300745" lon="-1.9158886483081614"><ele>455.0</ele><time>2026-04-30T07:30:54Z</time></trkpt><trkpt lat="42.91826591506444" lon="-1.9159828895205633"><ele>455.0</ele><time>2026-04-30T07:30:55Z</time></trkpt><trkpt lat="42.91828507441696" lon="-1.9160758175691068"><ele>454.99999999999994</ele><time>2026-04-30T07:30:56Z</time></trkpt><trkpt lat="42.918296471899076" lon="-1.916233081013183"><ele>455.0</ele><time>2026-04-30T07:30:58Z</time></trkpt><trkpt lat="42.91832125651568" lon="-1.916411715847639"><ele>455.4</ele><time>2026-04-30T07:31:00Z</time></trkpt><trkpt lat="42.918333870007096" lon="-1.9165038200503082"><ele>455.8</ele><time>2026-04-30T07:31:01Z</time></trkpt><trkpt lat="42.91835895077206" lon="-1.9166639440323385"><ele>456.20000000000005</ele><time>2026-04-30T07:31:03Z</time></trkpt><trkpt lat="42.91838072955914" lon="-1.9168160540982118"><ele>456.6</ele><time>2026-04-30T07:31:05Z</time></trkpt><trkpt lat="42.918384947705675" lon="-1.9169811460506692"><ele>457.0</ele><time>2026-04-30T07:31:07Z</time></trkpt><trkpt lat="42.91839652138917" lon="-1.9171544684582535"><ele>457.0</ele><time>2026-04-30T07:31:09Z</time></trkpt><trkpt lat="42.9184123479267" lon="-1.9173141040612172"><ele>457.0</ele><time>2026-04-30T07:31:11Z</time></trkpt><trkpt lat="42.91842178761769" lon="-1.917470805554728"><ele>457.0</ele><time>2026-04-30T07:31:13Z</time></trkpt><trkpt lat="42.91842332484615" lon="-1.917620974356672"><ele>457.0</ele><time>2026-04-30T07:31:15Z</time></trkpt><trkpt lat="42.91844890933768" lon="-1.9177938816642455"><ele>457.00000000000006</ele><time>2026-04-30T07:31:17Z</time></trkpt><trkpt lat="42.91846437676586" lon="-1.9178829108668018"><ele>457.0</ele><time>2026-04-30T07:31:18Z</time></trkpt><trkpt lat="42.91848657077185" lon="-1.917971037199359"><ele>457.00000000000006</ele><time>2026-04-30T07:31:19Z</time></trkpt><trkpt lat="42.918511391206906" lon="-1.918053681255319"><ele>457.00000000000006</ele><time>2026-04-30T07:31:20Z</time></trkpt><trkpt lat="42.91853171588855" lon="-1.9181439930551778"><ele>457.0</ele><time>2026-04-30T07:31:21Z</time></trkpt><trkpt lat="42.91854686062886" lon="-1.9182448916454342"><ele>457.00000000000006</ele><time>2026-04-30T07:31:22Z</time></trkpt><trkpt lat="42.91855900987071" lon="-1.9183411572961284"><ele>457.00000000000006</ele><time>2026-04-30T07:31:23Z</time></trkpt><trkpt lat="42.91856680629966" lon="-1.9184370602651692"><ele>457.00000000000006</ele><time>2026-04-30T07:31:24Z</time></trkpt><trkpt lat="42.918574962879966" lon="-1.9185315520921769"><ele>457.0</ele><time>2026-04-30T07:31:25Z</time></trkpt><trkpt lat="42.918579704653744" lon="-1.9186221119659899"><ele>457.0</ele><time>2026-04-30T07:31:26Z</time></trkpt><trkpt lat="42.91858374233263" lon="-1.9187152911186567"><ele>457.0</ele><time>2026-04-30T07:31:27Z</time></trkpt><trkpt lat="42.91859060699565" lon="-1.9188847314355026"><ele>457.00000000000006</ele><time>2026-04-30T07:31:29Z</time></trkpt><trkpt lat="42.918589553979814" lon="-1.9189830953357125"><ele>457.0</ele><time>2026-04-30T07:31:30Z</time></trkpt><trkpt lat="42.91859264302232" lon="-1.9190790376809517"><ele>457.00000000000006</ele><time>2026-04-30T07:31:31Z</time></trkpt><trkpt lat="42.918592550451024" lon="-1.9191884577803517"><ele>457.0</ele><time>2026-04-30T07:31:32Z</time></trkpt><trkpt lat="42.91859883403178" lon="-1.9192990078299972"><ele>457.0</ele><time>2026-04-30T07:31:33Z</time></trkpt><trkpt lat="42.91860313890004" lon="-1.9194135066794256"><ele>457.0</ele><time>2026-04-30T07:31:34Z</time></trkpt><trkpt lat="42.918609596192155" lon="-1.9195246831632895"><ele>457.00000000000006</ele><time>2026-04-30T07:31:35Z</time></trkpt><trkpt lat="42.91861349585214" lon="-1.9196438030305383"><ele>457.0</ele><time>2026-04-30T07:31:36Z</time></trkpt><trkpt lat="42.9186178207585" lon="-1.9197646833988065"><ele>456.6</ele><time>2026-04-30T07:31:37Z</time></trkpt><trkpt lat="42.91862317244406" lon="-1.9198860861026252"><ele>456.20000000000005</ele><time>2026-04-30T07:31:38Z</time></trkpt><trkpt lat="42.918625264639694" lon="-1.9200089657941022"><ele>455.8</ele><time>2026-04-30T07:31:39Z</time></trkpt><trkpt lat="42.918629683518795" lon="-1.920138984302545"><ele>455.4</ele><time>2026-04-30T07:31:40Z</time></trkpt><trkpt lat="42.91863689681753" lon="-1.9202578435074311"><ele>455.0</ele><time>2026-04-30T07:31:41Z</time></trkpt><trkpt lat="42.918639516572654" lon="-1.9203902929470826"><ele>455.0</ele><time>2026-04-30T07:31:42Z</time></trkpt><trkpt lat="42.91864270381021" lon="-1.9205164030392767"><ele>455.0</ele><time>2026-04-30T07:31:43Z</time></trkpt><trkpt lat="42.91864957419802" lon="-1.920639289751824"><ele>455.0</ele><time>2026-04-30T07:31:44Z</time></trkpt><trkpt lat="42.918658727501395" lon="-1.9207654155674994"><ele>455.0</ele><time>2026-04-30T07:31:45Z</time></trkpt><trkpt lat="42.918658372026144" lon="-1.9209057270668146"><ele>455.0</ele><time>2026-04-30T07:31:46Z</time></trkpt><trkpt lat="42.91866548566626" lon="-1.921035881010794"><ele>455.0</ele><time>2026-04-30T07:31:47Z</time></trkpt><trkpt lat="42.91866763249982" lon="-1.9211735577305076"><ele>455.0</ele><time>2026-04-30T07:31:48Z</time></trkpt><trkpt lat="42.91866886665144" lon="-1.9212989614678069"><ele>455.0</ele><time>2026-04-30T07:31:49Z</time></trkpt><trkpt lat="42.91867713646006" lon="-1.9214088146870945"><ele>455.0</ele><time>2026-04-30T07:31:50Z</time></trkpt><trkpt lat="42.91867947610917" lon="-1.9215335731345815"><ele>455.0</ele><time>2026-04-30T07:31:51Z</time></trkpt><trkpt lat="42.918682089236775" lon="-1.9216594551406072"><ele>455.0</ele><time>2026-04-30T07:31:52Z</time></trkpt><trkpt lat="42.91868702467459" lon="-1.921785679571019"><ele>455.0</ele><time>2026-04-30T07:31:53Z</time></trkpt><trkpt lat="42.918698080110815" lon="-1.9219209263291914"><ele>455.0</ele><time>2026-04-30T07:31:54Z</time></trkpt><trkpt lat="42.91870782482854" lon="-1.9220552700288271"><ele>455.0</ele><time>2026-04-30T07:31:55Z</time></trkpt><trkpt lat="42.91870823505628" lon="-1.922187020463724"><ele>455.0</ele><time>2026-04-30T07:31:56Z</time></trkpt><trkpt lat="42.91871058042016" lon="-1.9223130637396577"><ele>455.0</ele><time>2026-04-30T07:31:57Z</time></trkpt><trkpt lat="42.918716127308144" lon="-1.9224432556272595"><ele>455.0</ele><time>2026-04-30T07:31:58Z</time></trkpt><trkpt lat="42.918719253051265" lon="-1.9225815363142262"><ele>455.0</ele><time>2026-04-30T07:31:59Z</time></trkpt><trkpt lat="42.91872054707645" lon="-1.9227108991879576"><ele>455.0</ele><time>2026-04-30T07:32:00Z</time></trkpt><trkpt lat="42.918725065102485" lon="-1.9228425814935235"><ele>455.0</ele><time>2026-04-30T07:32:01Z</time></trkpt><trkpt lat="42.918732769945755" lon="-1.9229798130251936"><ele>455.2</ele><time>2026-04-30T07:32:02Z</time></trkpt><trkpt lat="42.91873772706994" lon="-1.9231147382155225"><ele>455.4</ele><time>2026-04-30T07:32:03Z</time></trkpt><trkpt lat="42.91874543418401" lon="-1.9232508491720883"><ele>455.6</ele><time>2026-04-30T07:32:04Z</time></trkpt><trkpt lat="42.91874994270954" lon="-1.9233860009003292"><ele>455.8</ele><time>2026-04-30T07:32:05Z</time></trkpt><trkpt lat="42.9187524440657" lon="-1.923513043911592"><ele>456.0</ele><time>2026-04-30T07:32:06Z</time></trkpt><trkpt lat="42.91875410134605" lon="-1.9236435165944918"><ele>456.4</ele><time>2026-04-30T07:32:07Z</time></trkpt><trkpt lat="42.91875719197564" lon="-1.92377549997006"><ele>456.8</ele><time>2026-04-30T07:32:08Z</time></trkpt><trkpt lat="42.91876170891673" lon="-1.9239084504802848"><ele>457.19999999999993</ele><time>2026-04-30T07:32:09Z</time></trkpt><trkpt lat="42.918767748115854" lon="-1.9240423640043363"><ele>457.59999999999997</ele><time>2026-04-30T07:32:10Z</time></trkpt><trkpt lat="42.918774784906695" lon="-1.924182007092832"><ele>458.0</ele><time>2026-04-30T07:32:11Z</time></trkpt><trkpt lat="42.91878223068969" lon="-1.9243194820269698"><ele>458.0</ele><time>2026-04-30T07:32:12Z</time></trkpt><trkpt lat="42.91878702189421" lon="-1.9244491918793087"><ele>457.99999999999994</ele><time>2026-04-30T07:32:13Z</time></trkpt><trkpt lat="42.91879268598741" lon="-1.9245939694767673"><ele>457.99999999999994</ele><time>2026-04-30T07:32:14.001Z</time></trkpt><trkpt lat="42.918793998298156" lon="-1.9247276332614924"><ele>458.0</ele><time>2026-04-30T07:32:15.001Z</time></trkpt><trkpt lat="42.91879750990012" lon="-1.9248603849064403"><ele>458.0</ele><time>2026-04-30T07:32:16.001Z</time></trkpt><trkpt lat="42.91880221843708" lon="-1.9249966129176346"><ele>457.79999999999995</ele><time>2026-04-30T07:32:17.001Z</time></trkpt><trkpt lat="42.918808054639904" lon="-1.925135523087039"><ele>457.59999999999997</ele><time>2026-04-30T07:32:18.001Z</time></trkpt><trkpt lat="42.91881330680624" lon="-1.9252731510351846"><ele>457.40000000000003</ele><time>2026-04-30T07:32:19.001Z</time></trkpt><trkpt lat="42.918818234075296" lon="-1.9254091071717685"><ele>457.20000000000005</ele><time>2026-04-30T07:32:20.001Z</time></trkpt><trkpt lat="42.91882425205911" lon="-1.9255457328953907"><ele>457.0</ele><time>2026-04-30T07:32:21.001Z</time></trkpt><trkpt lat="42.91883140603802" lon="-1.9256808013355573"><ele>457.0</ele><time>2026-04-30T07:32:22.001Z</time></trkpt><trkpt lat="42.918834637002476" lon="-1.925819185323783"><ele>457.00000000000006</ele><time>2026-04-30T07:32:23.001Z</time></trkpt><trkpt lat="42.91883802259419" lon="-1.9259545777844895"><ele>457.00000000000006</ele><time>2026-04-30T07:32:24.001Z</time></trkpt><trkpt lat="42.918842334522765" lon="-1.9260926688307727"><ele>457.0</ele><time>2026-04-30T07:32:25.001Z</time></trkpt><trkpt lat="42.918845346516214" lon="-1.9262223171609125"><ele>457.0</ele><time>2026-04-30T07:32:26.001Z</time></trkpt><trkpt lat="42.918851179443614" lon="-1.9263492839755947"><ele>457.20000000000005</ele><time>2026-04-30T07:32:27.001Z</time></trkpt><trkpt lat="42.91885998679449" lon="-1.9264877147227526"><ele>457.40000000000003</ele><time>2026-04-30T07:32:28.001Z</time></trkpt><trkpt lat="42.918863477199125" lon="-1.92662045162975"><ele>457.59999999999997</ele><time>2026-04-30T07:32:29.001Z</time></trkpt><trkpt lat="42.918871103934954" lon="-1.9267647510660555"><ele>457.79999999999995</ele><time>2026-04-30T07:32:30.001Z</time></trkpt><trkpt lat="42.91888144674269" lon="-1.9268898769206748"><ele>458.0</ele><time>2026-04-30T07:32:31.001Z</time></trkpt><trkpt lat="42.91888480372256" lon="-1.9270207475061907"><ele>458.4</ele><time>2026-04-30T07:32:32.001Z</time></trkpt><trkpt lat="42.91888720086189" lon="-1.9271456786843695"><ele>458.79999999999995</ele><time>2026-04-30T07:32:33.001Z</time></trkpt><trkpt lat="42.91889445652342" lon="-1.9272764893376957"><ele>459.2</ele><time>2026-04-30T07:32:34.001Z</time></trkpt><trkpt lat="42.91889995793214" lon="-1.927406947662759"><ele>459.6</ele><time>2026-04-30T07:32:35.001Z</time></trkpt><trkpt lat="42.91890263659219" lon="-1.927535400665791"><ele>460.0</ele><time>2026-04-30T07:32:36.001Z</time></trkpt><trkpt lat="42.91890680695899" lon="-1.9276638012050566"><ele>460.0</ele><time>2026-04-30T07:32:37.001Z</time></trkpt><trkpt lat="42.91890940421937" lon="-1.9277920601170813"><ele>460.0</ele><time>2026-04-30T07:32:38.001Z</time></trkpt><trkpt lat="42.91891451819267" lon="-1.9279197113356328"><ele>460.0</ele><time>2026-04-30T07:32:39.001Z</time></trkpt><trkpt lat="42.91891998992101" lon="-1.9280413979688165"><ele>460.0</ele><time>2026-04-30T07:32:40.001Z</time></trkpt><trkpt lat="42.918923668499204" lon="-1.9281707219674717"><ele>460.0</ele><time>2026-04-30T07:32:41.001Z</time></trkpt><trkpt lat="42.91892849295676" lon="-1.9283041021503906"><ele>460.2</ele><time>2026-04-30T07:32:42.001Z</time></trkpt><trkpt lat="42.91893321978716" lon="-1.9284383359805362"><ele>460.4</ele><time>2026-04-30T07:32:43.001Z</time></trkpt><trkpt lat="42.91893020792971" lon="-1.9285673708140918"><ele>460.6</ele><time>2026-04-30T07:32:44.001Z</time></trkpt><trkpt lat="42.918932057196336" lon="-1.928698216378088"><ele>460.8</ele><time>2026-04-30T07:32:45.001Z</time></trkpt><trkpt lat="42.91893942943919" lon="-1.9288356979607661"><ele>461.0</ele><time>2026-04-30T07:32:46.001Z</time></trkpt><trkpt lat="42.918945419601876" lon="-1.9289742382466761"><ele>461.0</ele><time>2026-04-30T07:32:47.001Z</time></trkpt><trkpt lat="42.91895184465974" lon="-1.929113738443991"><ele>461.0</ele><time>2026-04-30T07:32:48.001Z</time></trkpt><trkpt lat="42.91895445386081" lon="-1.929256688385471"><ele>461.0</ele><time>2026-04-30T07:32:49.001Z</time></trkpt><trkpt lat="42.91895807004487" lon="-1.929399894951244"><ele>461.0</ele><time>2026-04-30T07:32:50.001Z</time></trkpt><trkpt lat="42.91896247717096" lon="-1.9295391423040695"><ele>461.0</ele><time>2026-04-30T07:32:51.001Z</time></trkpt><trkpt lat="42.91896809002381" lon="-1.9296788293826828"><ele>461.0</ele><time>2026-04-30T07:32:52Z</time></trkpt><trkpt lat="42.91897467281513" lon="-1.9298218818212425"><ele>461.0</ele><time>2026-04-30T07:32:53Z</time></trkpt><trkpt lat="42.91898115008304" lon="-1.9299699453383836"><ele>461.0</ele><time>2026-04-30T07:32:54Z</time></trkpt><trkpt lat="42.918987010117256" lon="-1.9301107484437834"><ele>461.0</ele><time>2026-04-30T07:32:55Z</time></trkpt><trkpt lat="42.91899090444139" lon="-1.9302572185359703"><ele>461.0</ele><time>2026-04-30T07:32:56Z</time></trkpt><trkpt lat="42.91899600782514" lon="-1.9304007148544846"><ele>461.0</ele><time>2026-04-30T07:32:57Z</time></trkpt><trkpt lat="42.91899899105998" lon="-1.9305420565903815"><ele>461.0</ele><time>2026-04-30T07:32:58Z</time></trkpt><trkpt lat="42.919006623426" lon="-1.9306861388341183"><ele>461.0</ele><time>2026-04-30T07:32:59Z</time></trkpt><trkpt lat="42.91901345305577" lon="-1.9308282226364009"><ele>461.0</ele><time>2026-04-30T07:33:00Z</time></trkpt><trkpt lat="42.91901804090771" lon="-1.93097539865001"><ele>461.0</ele><time>2026-04-30T07:33:01Z</time></trkpt><trkpt lat="42.919022094613894" lon="-1.9311303993413318"><ele>461.20000000000005</ele><time>2026-04-30T07:33:02Z</time></trkpt><trkpt lat="42.91902788814735" lon="-1.931272945234676"><ele>461.40000000000003</ele><time>2026-04-30T07:33:03Z</time></trkpt><trkpt lat="42.9190358545264" lon="-1.9314135154793497"><ele>461.6</ele><time>2026-04-30T07:33:04Z</time></trkpt><trkpt lat="42.91904289681127" lon="-1.9315577956289558"><ele>461.8</ele><time>2026-04-30T07:33:05Z</time></trkpt><trkpt lat="42.91904818254981" lon="-1.931695926087327"><ele>462.0</ele><time>2026-04-30T07:33:06Z</time></trkpt><trkpt lat="42.91905172192826" lon="-1.931832266438923"><ele>462.20000000000005</ele><time>2026-04-30T07:33:07Z</time></trkpt><trkpt lat="42.919054766498654" lon="-1.9319682668154614"><ele>462.40000000000003</ele><time>2026-04-30T07:33:08Z</time></trkpt><trkpt lat="42.91905519075382" lon="-1.9321033152413898"><ele>462.59999999999997</ele><time>2026-04-30T07:33:09Z</time></trkpt><trkpt lat="42.91905521946892" lon="-1.9322343397281236"><ele>462.79999999999995</ele><time>2026-04-30T07:33:10Z</time></trkpt><trkpt lat="42.91905549607382" lon="-1.9323718807955166"><ele>463.0</ele><time>2026-04-30T07:33:11Z</time></trkpt><trkpt lat="42.91905041085631" lon="-1.9325041419383142"><ele>463.59999999999997</ele><time>2026-04-30T07:33:12Z</time></trkpt><trkpt lat="42.919046161638875" lon="-1.9326377833701955"><ele>464.19999999999993</ele><time>2026-04-30T07:33:13Z</time></trkpt><trkpt lat="42.91904195693179" lon="-1.9327694913772973"><ele>464.8</ele><time>2026-04-30T07:33:14Z</time></trkpt><trkpt lat="42.91903598138971" lon="-1.9329054378468493"><ele>465.4</ele><time>2026-04-30T07:33:15Z</time></trkpt><trkpt lat="42.91902684910989" lon="-1.9330402920279992"><ele>466.0</ele><time>2026-04-30T07:33:16Z</time></trkpt><trkpt lat="42.91901722855567" lon="-1.933176095623265"><ele>466.0</ele><time>2026-04-30T07:33:17Z</time></trkpt><trkpt lat="42.919006214324796" lon="-1.9333114895180286"><ele>466.0</ele><time>2026-04-30T07:33:18Z</time></trkpt><trkpt lat="42.918999820545224" lon="-1.9334453244581573"><ele>466.0</ele><time>2026-04-30T07:33:19Z</time></trkpt><trkpt lat="42.91899225843921" lon="-1.9335812902003606"><ele>466.0</ele><time>2026-04-30T07:33:20Z</time></trkpt><trkpt lat="42.918981304682326" lon="-1.933722433190545"><ele>466.0</ele><time>2026-04-30T07:33:21Z</time></trkpt><trkpt lat="42.918968742888005" lon="-1.933864331811215"><ele>465.8</ele><time>2026-04-30T07:33:22Z</time></trkpt><trkpt lat="42.91895841720349" lon="-1.9339979260962576"><ele>465.6</ele><time>2026-04-30T07:33:23Z</time></trkpt><trkpt lat="42.91894848157345" lon="-1.9341283682938806"><ele>465.4</ele><time>2026-04-30T07:33:24Z</time></trkpt><trkpt lat="42.91894002059489" lon="-1.9342740822208033"><ele>465.2</ele><time>2026-04-30T07:33:25Z</time></trkpt><trkpt lat="42.91892931141106" lon="-1.9344092593016284"><ele>465.0</ele><time>2026-04-30T07:33:26Z</time></trkpt><trkpt lat="42.91892106925855" lon="-1.9345436474595339"><ele>465.8</ele><time>2026-04-30T07:33:27Z</time></trkpt><trkpt lat="42.91890948767412" lon="-1.9346832146698345"><ele>466.6</ele><time>2026-04-30T07:33:28Z</time></trkpt><trkpt lat="42.918898271494676" lon="-1.9348204370716462"><ele>467.4</ele><time>2026-04-30T07:33:29Z</time></trkpt><trkpt lat="42.9188887223348" lon="-1.9349486015357935"><ele>468.2</ele><time>2026-04-30T07:33:30Z</time></trkpt><trkpt lat="42.918878259664005" lon="-1.9350812097432504"><ele>469.0</ele><time>2026-04-30T07:33:31Z</time></trkpt><trkpt lat="42.918864305669445" lon="-1.9352277343244213"><ele>469.0</ele><time>2026-04-30T07:33:32Z</time></trkpt><trkpt lat="42.91885383142722" lon="-1.9353631789251133"><ele>469.0</ele><time>2026-04-30T07:33:33Z</time></trkpt><trkpt lat="42.91884559607104" lon="-1.9354997268865721"><ele>469.0</ele><time>2026-04-30T07:33:34Z</time></trkpt><trkpt lat="42.918835724970144" lon="-1.93563736312807"><ele>469.0</ele><time>2026-04-30T07:33:35Z</time></trkpt><trkpt lat="42.91882132517794" lon="-1.9357741959729369"><ele>469.0</ele><time>2026-04-30T07:33:36Z</time></trkpt><trkpt lat="42.91881030371694" lon="-1.9359092755007317"><ele>469.0</ele><time>2026-04-30T07:33:37Z</time></trkpt><trkpt lat="42.91880326912785" lon="-1.9360507024884501"><ele>469.0</ele><time>2026-04-30T07:33:38Z</time></trkpt><trkpt lat="42.91879441699563" lon="-1.936184127783262"><ele>469.0</ele><time>2026-04-30T07:33:39Z</time></trkpt><trkpt lat="42.918784651360426" lon="-1.9363230377238845"><ele>469.0</ele><time>2026-04-30T07:33:40Z</time></trkpt><trkpt lat="42.91877563419947" lon="-1.9364582152162595"><ele>469.0</ele><time>2026-04-30T07:33:41Z</time></trkpt><trkpt lat="42.91876493074762" lon="-1.9365974136789517"><ele>469.0</ele><time>2026-04-30T07:33:42Z</time></trkpt><trkpt lat="42.91875373940713" lon="-1.936736874945101"><ele>469.0</ele><time>2026-04-30T07:33:43Z</time></trkpt><trkpt lat="42.918743982664665" lon="-1.9368750376949448"><ele>469.0</ele><time>2026-04-30T07:33:44Z</time></trkpt><trkpt lat="42.91873513826987" lon="-1.9370138896700382"><ele>469.0</ele><time>2026-04-30T07:33:45Z</time></trkpt><trkpt lat="42.918725544296564" lon="-1.9371540357212516"><ele>469.0</ele><time>2026-04-30T07:33:46Z</time></trkpt><trkpt lat="42.91871453752691" lon="-1.9372892465017046"><ele>469.0</ele><time>2026-04-30T07:33:47Z</time></trkpt><trkpt lat="42.91870514324852" lon="-1.9374294606035019"><ele>469.0</ele><time>2026-04-30T07:33:48Z</time></trkpt><trkpt lat="42.918695120277604" lon="-1.9375662786165366"><ele>469.0</ele><time>2026-04-30T07:33:49Z</time></trkpt><trkpt lat="42.918682072815024" lon="-1.9376978710458004"><ele>469.0</ele><time>2026-04-30T07:33:50Z</time></trkpt><trkpt lat="42.91867107617135" lon="-1.9378288896961011"><ele>469.0</ele><time>2026-04-30T07:33:51Z</time></trkpt><trkpt lat="42.91866006040709" lon="-1.9379654434852245"><ele>469.1666666666667</ele><time>2026-04-30T07:33:52Z</time></trkpt><trkpt lat="42.9186448639487" lon="-1.9380959045092778"><ele>469.33333333333337</ele><time>2026-04-30T07:33:53Z</time></trkpt><trkpt lat="42.91864725777374" lon="-1.9382168123652994"><ele>469.5</ele><time>2026-04-30T07:33:54Z</time></trkpt><trkpt lat="42.91863950550863" lon="-1.9383279653767984"><ele>469.66666666666663</ele><time>2026-04-30T07:33:55Z</time></trkpt><trkpt lat="42.91863171810198" lon="-1.9384406914102013"><ele>469.8333333333333</ele><time>2026-04-30T07:33:56Z</time></trkpt><trkpt lat="42.91862304763951" lon="-1.9385662004299253"><ele>470.0</ele><time>2026-04-30T07:33:57Z</time></trkpt><trkpt lat="42.918614917462726" lon="-1.9387065051225805"><ele>470.25</ele><time>2026-04-30T07:33:58Z</time></trkpt><trkpt lat="42.918596898288946" lon="-1.9388864780360886"><ele>470.5</ele><time>2026-04-30T07:33:59Z</time></trkpt><trkpt lat="42.91860272447304" lon="-1.939042664599662"><ele>470.75</ele><time>2026-04-30T07:34:00Z</time></trkpt><trkpt lat="42.91860907211432" lon="-1.9391835012558807"><ele>471.0</ele><time>2026-04-30T07:34:01Z</time></trkpt><trkpt lat="42.918612403825456" lon="-1.9393194353227878"><ele>471.20000000000005</ele><time>2026-04-30T07:34:02Z</time></trkpt><trkpt lat="42.91862541559495" lon="-1.9394525694175928"><ele>471.40000000000003</ele><time>2026-04-30T07:34:03Z</time></trkpt><trkpt lat="42.918644943876764" lon="-1.9395862282312943"><ele>471.6</ele><time>2026-04-30T07:34:04Z</time></trkpt><trkpt lat="42.918668530342146" lon="-1.9397251962049704"><ele>471.8</ele><time>2026-04-30T07:34:05Z</time></trkpt><trkpt lat="42.91868807815083" lon="-1.9398570566534248"><ele>472.0</ele><time>2026-04-30T07:34:06Z</time></trkpt><trkpt lat="42.91870791530999" lon="-1.939986920865054"><ele>471.8</ele><time>2026-04-30T07:34:07Z</time></trkpt><trkpt lat="42.918731392111" lon="-1.9401246858879408"><ele>471.6</ele><time>2026-04-30T07:34:08Z</time></trkpt><trkpt lat="42.91875960922741" lon="-1.9402551700157706"><ele>471.40000000000003</ele><time>2026-04-30T07:34:09Z</time></trkpt><trkpt lat="42.91878852533415" lon="-1.940385838307139"><ele>471.20000000000005</ele><time>2026-04-30T07:34:10Z</time></trkpt><trkpt lat="42.91881881665522" lon="-1.9405195927670977"><ele>471.0</ele><time>2026-04-30T07:34:11Z</time></trkpt><trkpt lat="42.91884008168975" lon="-1.9406483999749367"><ele>471.0</ele><time>2026-04-30T07:34:12Z</time></trkpt><trkpt lat="42.91886546638784" lon="-1.9407814096230236"><ele>471.0</ele><time>2026-04-30T07:34:13Z</time></trkpt><trkpt lat="42.91889206529089" lon="-1.9409148900647943"><ele>471.0</ele><time>2026-04-30T07:34:14Z</time></trkpt><trkpt lat="42.918915305874634" lon="-1.9410450448469785"><ele>471.0</ele><time>2026-04-30T07:34:15Z</time></trkpt><trkpt lat="42.91893073348734" lon="-1.9411762789449165"><ele>471.0</ele><time>2026-04-30T07:34:16Z</time></trkpt><trkpt lat="42.9189511468449" lon="-1.9413043954863873"><ele>471.0</ele><time>2026-04-30T07:34:17.001Z</time></trkpt><trkpt lat="42.91897037175389" lon="-1.9414397795609655"><ele>471.0</ele><time>2026-04-30T07:34:18.001Z</time></trkpt><trkpt lat="42.91898685355899" lon="-1.9415811190012495"><ele>471.0</ele><time>2026-04-30T07:34:19.001Z</time></trkpt><trkpt lat="42.91899362314408" lon="-1.9417133323489635"><ele>471.0</ele><time>2026-04-30T07:34:20.001Z</time></trkpt><trkpt lat="42.918990939270344" lon="-1.9418381401506353"><ele>471.0</ele><time>2026-04-30T07:34:21.001Z</time></trkpt><trkpt lat="42.91899237922259" lon="-1.9419598503597157"><ele>471.20000000000005</ele><time>2026-04-30T07:34:22.001Z</time></trkpt><trkpt lat="42.91899728170019" lon="-1.9420821414270033"><ele>471.40000000000003</ele><time>2026-04-30T07:34:23.001Z</time></trkpt><trkpt lat="42.91899407778181" lon="-1.9422218722779239"><ele>471.6</ele><time>2026-04-30T07:34:24.001Z</time></trkpt><trkpt lat="42.9189934472927" lon="-1.9423443619378518"><ele>471.8</ele><time>2026-04-30T07:34:25.001Z</time></trkpt><trkpt lat="42.91898813670711" lon="-1.942469437609835"><ele>472.0</ele><time>2026-04-30T07:34:26.001Z</time></trkpt><trkpt lat="42.918985522053106" lon="-1.9426014698695915"><ele>472.40000000000003</ele><time>2026-04-30T07:34:27.001Z</time></trkpt><trkpt lat="42.918983245247894" lon="-1.9427369152192457"><ele>472.80000000000007</ele><time>2026-04-30T07:34:28.001Z</time></trkpt><trkpt lat="42.91897974280576" lon="-1.9428726857649536"><ele>473.2</ele><time>2026-04-30T07:34:29.001Z</time></trkpt><trkpt lat="42.91897895015333" lon="-1.9430089122350365"><ele>473.6</ele><time>2026-04-30T07:34:30.001Z</time></trkpt><trkpt lat="42.91898134798747" lon="-1.943141534424899"><ele>474.0</ele><time>2026-04-30T07:34:31.001Z</time></trkpt><trkpt lat="42.91898209620392" lon="-1.9432753435206074"><ele>473.79999999999995</ele><time>2026-04-30T07:34:32.001Z</time></trkpt><trkpt lat="42.91898961715056" lon="-1.9434058338958695"><ele>473.59999999999997</ele><time>2026-04-30T07:34:33.001Z</time></trkpt><trkpt lat="42.918998583522054" lon="-1.943538341806648"><ele>473.4</ele><time>2026-04-30T07:34:34.001Z</time></trkpt><trkpt lat="42.91901072951807" lon="-1.9436718356575022"><ele>473.2</ele><time>2026-04-30T07:34:35.001Z</time></trkpt><trkpt lat="42.91902441527018" lon="-1.9437977934768633"><ele>473.0</ele><time>2026-04-30T07:34:36.001Z</time></trkpt><trkpt lat="42.919042003196544" lon="-1.9439269649194784"><ele>473.0</ele><time>2026-04-30T07:34:37.001Z</time></trkpt><trkpt lat="42.91906489179922" lon="-1.9440639170527403"><ele>472.99999999999994</ele><time>2026-04-30T07:34:38.001Z</time></trkpt><trkpt lat="42.91909187867581" lon="-1.9441899275884482"><ele>472.99999999999994</ele><time>2026-04-30T07:34:39.001Z</time></trkpt><trkpt lat="42.91912196130023" lon="-1.9443204893581334"><ele>473.0</ele><time>2026-04-30T07:34:40.001Z</time></trkpt><trkpt lat="42.919151035095005" lon="-1.9444444354686112"><ele>473.0</ele><time>2026-04-30T07:34:41.001Z</time></trkpt><trkpt lat="42.91918567454294" lon="-1.9445740464016703"><ele>472.79999999999995</ele><time>2026-04-30T07:34:42.001Z</time></trkpt><trkpt lat="42.91922232123727" lon="-1.9446948253476994"><ele>472.59999999999997</ele><time>2026-04-30T07:34:43.001Z</time></trkpt><trkpt lat="42.919267567763654" lon="-1.9448246247570928"><ele>472.40000000000003</ele><time>2026-04-30T07:34:44.001Z</time></trkpt><trkpt lat="42.919306457918594" lon="-1.944946701806076"><ele>472.20000000000005</ele><time>2026-04-30T07:34:45.001Z</time></trkpt><trkpt lat="42.919350822979396" lon="-1.9450677987956209"><ele>472.0</ele><time>2026-04-30T07:34:46.001Z</time></trkpt><trkpt lat="42.91939554215834" lon="-1.9451829928739195"><ele>471.0</ele><time>2026-04-30T07:34:47.001Z</time></trkpt><trkpt lat="42.919443777016966" lon="-1.9452981262840665"><ele>470.00000000000006</ele><time>2026-04-30T07:34:48.001Z</time></trkpt><trkpt lat="42.9194920443665" lon="-1.9454158828232628"><ele>469.00000000000006</ele><time>2026-04-30T07:34:49.001Z</time></trkpt><trkpt lat="42.91954249660863" lon="-1.9455334405456168"><ele>468.0</ele><time>2026-04-30T07:34:50.001Z</time></trkpt><trkpt lat="42.91959142617916" lon="-1.945649669914516"><ele>467.0</ele><time>2026-04-30T07:34:51.001Z</time></trkpt><trkpt lat="42.91963593475432" lon="-1.9457647562343923"><ele>466.8</ele><time>2026-04-30T07:34:52.001Z</time></trkpt><trkpt lat="42.919686438901444" lon="-1.9458790043698375"><ele>466.6</ele><time>2026-04-30T07:34:53.001Z</time></trkpt><trkpt lat="42.919736634055475" lon="-1.9460042645531601"><ele>466.40000000000003</ele><time>2026-04-30T07:34:54.001Z</time></trkpt><trkpt lat="42.91978227863267" lon="-1.9461254527863954"><ele>466.20000000000005</ele><time>2026-04-30T07:34:55.001Z</time></trkpt><trkpt lat="42.91981704343729" lon="-1.9462444549379152"><ele>466.0</ele><time>2026-04-30T07:34:56.001Z</time></trkpt><trkpt lat="42.919854859200086" lon="-1.94636271312691"><ele>466.0</ele><time>2026-04-30T07:34:57.001Z</time></trkpt><trkpt lat="42.91989061562225" lon="-1.9464992209714744"><ele>466.0</ele><time>2026-04-30T07:34:58Z</time></trkpt><trkpt lat="42.91992214604947" lon="-1.9466310319451763"><ele>466.0</ele><time>2026-04-30T07:34:59Z</time></trkpt><trkpt lat="42.919944429834814" lon="-1.9467544901481681"><ele>466.0</ele><time>2026-04-30T07:35:00Z</time></trkpt><trkpt lat="42.91996900175424" lon="-1.94688332309156"><ele>466.0</ele><time>2026-04-30T07:35:01Z</time></trkpt><trkpt lat="42.91998942127559" lon="-1.947006902795154"><ele>466.0</ele><time>2026-04-30T07:35:02Z</time></trkpt><trkpt lat="42.92000571036352" lon="-1.9471314184209454"><ele>466.0</ele><time>2026-04-30T07:35:03Z</time></trkpt><trkpt lat="42.92002099019165" lon="-1.9472870907712643"><ele>466.0</ele><time>2026-04-30T07:35:04Z</time></trkpt><trkpt lat="42.92002994348889" lon="-1.9474135891602027"><ele>466.0</ele><time>2026-04-30T07:35:05Z</time></trkpt><trkpt lat="42.9200387848795" lon="-1.9475457343593199"><ele>466.0</ele><time>2026-04-30T07:35:06Z</time></trkpt><trkpt lat="42.92004754987697" lon="-1.947673552583869"><ele>466.0</ele><time>2026-04-30T07:35:07Z</time></trkpt><trkpt lat="42.92005496489401" lon="-1.9478064481544264"><ele>466.0</ele><time>2026-04-30T07:35:08Z</time></trkpt><trkpt lat="42.920060670051235" lon="-1.9479509676292617"><ele>466.0</ele><time>2026-04-30T07:35:09Z</time></trkpt><trkpt lat="42.92006629508333" lon="-1.9480816303942672"><ele>466.0</ele><time>2026-04-30T07:35:10Z</time></trkpt><trkpt lat="42.92007488150197" lon="-1.948215704886098"><ele>466.0</ele><time>2026-04-30T07:35:11Z</time></trkpt><trkpt lat="42.92008194499242" lon="-1.9483531403068806"><ele>465.6</ele><time>2026-04-30T07:35:12Z</time></trkpt><trkpt lat="42.920090258235724" lon="-1.9484870068856064"><ele>465.20000000000005</ele><time>2026-04-30T07:35:13Z</time></trkpt><trkpt lat="42.92010009291351" lon="-1.9486177304490095"><ele>464.79999999999995</ele><time>2026-04-30T07:35:14Z</time></trkpt><trkpt lat="42.92010913149492" lon="-1.9487615205645643"><ele>464.4</ele><time>2026-04-30T07:35:15Z</time></trkpt><trkpt lat="42.92011372145891" lon="-1.9488940192838486"><ele>464.0</ele><time>2026-04-30T07:35:16Z</time></trkpt><trkpt lat="42.92012151685658" lon="-1.9490239262402347"><ele>464.0</ele><time>2026-04-30T07:35:17Z</time></trkpt><trkpt lat="42.92013039357563" lon="-1.9491590502640945"><ele>464.0</ele><time>2026-04-30T07:35:18Z</time></trkpt><trkpt lat="42.92013874174535" lon="-1.9492941385431835"><ele>464.0</ele><time>2026-04-30T07:35:19Z</time></trkpt><trkpt lat="42.920146681656114" lon="-1.9494321372890304"><ele>464.0</ele><time>2026-04-30T07:35:20Z</time></trkpt><trkpt lat="42.92015284309511" lon="-1.9495691093661356"><ele>464.0</ele><time>2026-04-30T07:35:21Z</time></trkpt><trkpt lat="42.920162439425546" lon="-1.9497102943022797"><ele>463.4</ele><time>2026-04-30T07:35:22Z</time></trkpt><trkpt lat="42.92017336761156" lon="-1.949836703183908"><ele>462.79999999999995</ele><time>2026-04-30T07:35:23Z</time></trkpt><trkpt lat="42.92018398399023" lon="-1.9499768092343346"><ele>462.20000000000005</ele><time>2026-04-30T07:35:24Z</time></trkpt><trkpt lat="42.92019063345645" lon="-1.9501161800033437"><ele>461.6</ele><time>2026-04-30T07:35:25Z</time></trkpt><trkpt lat="42.92019552603505" lon="-1.95025204379179"><ele>461.0</ele><time>2026-04-30T07:35:26Z</time></trkpt><trkpt lat="42.920205752129576" lon="-1.9503895950852594"><ele>461.0</ele><time>2026-04-30T07:35:27Z</time></trkpt><trkpt lat="42.92021538542924" lon="-1.9505185786441326"><ele>461.0</ele><time>2026-04-30T07:35:28Z</time></trkpt><trkpt lat="42.920223058476566" lon="-1.9506523055954752"><ele>461.0</ele><time>2026-04-30T07:35:29Z</time></trkpt><trkpt lat="42.920230105785194" lon="-1.9507860405054702"><ele>461.0</ele><time>2026-04-30T07:35:30Z</time></trkpt><trkpt lat="42.920237542386154" lon="-1.95092374312018"><ele>461.0</ele><time>2026-04-30T07:35:31Z</time></trkpt><trkpt lat="42.92024759964337" lon="-1.9510558161468583"><ele>461.0</ele><time>2026-04-30T07:35:32Z</time></trkpt><trkpt lat="42.920254980234915" lon="-1.9511927463617942"><ele>461.0</ele><time>2026-04-30T07:35:33Z</time></trkpt><trkpt lat="42.92026752166194" lon="-1.9513231260068666"><ele>461.0</ele><time>2026-04-30T07:35:34Z</time></trkpt><trkpt lat="42.920274336584164" lon="-1.9514579975751671"><ele>461.0</ele><time>2026-04-30T07:35:35Z</time></trkpt><trkpt lat="42.920285209672045" lon="-1.951589340537267"><ele>461.0</ele><time>2026-04-30T07:35:36Z</time></trkpt><trkpt lat="42.92029746714438" lon="-1.9517200717132668"><ele>461.0</ele><time>2026-04-30T07:35:37Z</time></trkpt><trkpt lat="42.92031085159583" lon="-1.9518478591160209"><ele>461.0</ele><time>2026-04-30T07:35:38Z</time></trkpt><trkpt lat="42.920320569014926" lon="-1.9519795558514283"><ele>461.0</ele><time>2026-04-30T07:35:39Z</time></trkpt><trkpt lat="42.920333454821424" lon="-1.9521169531858882"><ele>461.0</ele><time>2026-04-30T07:35:40Z</time></trkpt><trkpt lat="42.92034314957225" lon="-1.9522445082333812"><ele>461.0</ele><time>2026-04-30T07:35:41Z</time></trkpt><trkpt lat="42.92035458483994" lon="-1.9523767561227896"><ele>461.0</ele><time>2026-04-30T07:35:42Z</time></trkpt><trkpt lat="42.920367298951874" lon="-1.9525068561165617"><ele>461.0</ele><time>2026-04-30T07:35:43Z</time></trkpt><trkpt lat="42.92038042357398" lon="-1.952630051123336"><ele>461.0</ele><time>2026-04-30T07:35:44Z</time></trkpt><trkpt lat="42.920392735132886" lon="-1.9527575159126485"><ele>461.0</ele><time>2026-04-30T07:35:45Z</time></trkpt><trkpt lat="42.92040872934086" lon="-1.9528803388522882"><ele>461.0</ele><time>2026-04-30T07:35:46Z</time></trkpt><trkpt lat="42.9204195632156" lon="-1.9530089507415775"><ele>461.4</ele><time>2026-04-30T07:35:47Z</time></trkpt><trkpt lat="42.92042837350991" lon="-1.953140819214061"><ele>461.8</ele><time>2026-04-30T07:35:48Z</time></trkpt><trkpt lat="42.920441138413274" lon="-1.95326615473911"><ele>462.19999999999993</ele><time>2026-04-30T07:35:49Z</time></trkpt><trkpt lat="42.92045767362497" lon="-1.9533853836281976"><ele>462.59999999999997</ele><time>2026-04-30T07:35:50Z</time></trkpt><trkpt lat="42.920474576498364" lon="-1.9535066785630104"><ele>463.0</ele><time>2026-04-30T07:35:51Z</time></trkpt><trkpt lat="42.92049257632749" lon="-1.9536291077401364"><ele>463.0</ele><time>2026-04-30T07:35:52Z</time></trkpt><trkpt lat="42.92051494047946" lon="-1.9537519660135672"><ele>462.99999999999994</ele><time>2026-04-30T07:35:53Z</time></trkpt><trkpt lat="42.92054013347085" lon="-1.9538760953025132"><ele>462.99999999999994</ele><time>2026-04-30T07:35:54Z</time></trkpt><trkpt lat="42.92056237149259" lon="-1.9540078133095033"><ele>463.0</ele><time>2026-04-30T07:35:55Z</time></trkpt><trkpt lat="42.92058324095628" lon="-1.95412618227654"><ele>463.0</ele><time>2026-04-30T07:35:56Z</time></trkpt><trkpt lat="42.920608628229886" lon="-1.9542480714774586"><ele>462.79999999999995</ele><time>2026-04-30T07:35:57Z</time></trkpt><trkpt lat="42.92063871757251" lon="-1.9543685772049078"><ele>462.59999999999997</ele><time>2026-04-30T07:35:58Z</time></trkpt><trkpt lat="42.92067306340627" lon="-1.9544784330923897"><ele>462.40000000000003</ele><time>2026-04-30T07:35:59Z</time></trkpt><trkpt lat="42.92070925972703" lon="-1.9546096449111199"><ele>462.20000000000005</ele><time>2026-04-30T07:36:00Z</time></trkpt><trkpt lat="42.920748941883254" lon="-1.9547207211393482"><ele>462.0</ele><time>2026-04-30T07:36:01Z</time></trkpt><trkpt lat="42.92079142892777" lon="-1.954835032284792"><ele>462.0</ele><time>2026-04-30T07:36:02Z</time></trkpt><trkpt lat="42.92083605265583" lon="-1.954948202373615"><ele>462.00000000000006</ele><time>2026-04-30T07:36:03Z</time></trkpt><trkpt lat="42.920880585829316" lon="-1.9550594623769237"><ele>462.00000000000006</ele><time>2026-04-30T07:36:04Z</time></trkpt><trkpt lat="42.92092620148997" lon="-1.9551715031352785"><ele>462.0</ele><time>2026-04-30T07:36:05Z</time></trkpt><trkpt lat="42.92097472018728" lon="-1.9552790266310953"><ele>462.0</ele><time>2026-04-30T07:36:06Z</time></trkpt><trkpt lat="42.92102762904414" lon="-1.9553898274040684"><ele>461.40000000000003</ele><time>2026-04-30T07:36:07Z</time></trkpt><trkpt lat="42.921081882494065" lon="-1.955491641790736"><ele>460.80000000000007</ele><time>2026-04-30T07:36:08Z</time></trkpt><trkpt lat="42.92113916634912" lon="-1.9556000529735664"><ele>460.2</ele><time>2026-04-30T07:36:09Z</time></trkpt><trkpt lat="42.921195358632964" lon="-1.955699399449868"><ele>459.6</ele><time>2026-04-30T07:36:10Z</time></trkpt><trkpt lat="42.9212504702731" lon="-1.9558000556472883"><ele>459.0</ele><time>2026-04-30T07:36:11Z</time></trkpt><trkpt lat="42.92131264191424" lon="-1.95590987372928"><ele>459.0</ele><time>2026-04-30T07:36:12Z</time></trkpt><trkpt lat="42.92137505583394" lon="-1.9560132655298066"><ele>459.0</ele><time>2026-04-30T07:36:13Z</time></trkpt><trkpt lat="42.921436707095836" lon="-1.9561117669210022"><ele>459.0</ele><time>2026-04-30T07:36:14Z</time></trkpt><trkpt lat="42.92150161159697" lon="-1.9562113211004784"><ele>459.0</ele><time>2026-04-30T07:36:15Z</time></trkpt><trkpt lat="42.921563520892974" lon="-1.956304970649766"><ele>459.0</ele><time>2026-04-30T07:36:16Z</time></trkpt><trkpt lat="42.921629875278256" lon="-1.9564053263667562"><ele>459.0</ele><time>2026-04-30T07:36:17.001Z</time></trkpt><trkpt lat="42.92169482921508" lon="-1.9565087606946077"><ele>459.0</ele><time>2026-04-30T07:36:18.001Z</time></trkpt><trkpt lat="42.921753698420154" lon="-1.9566091005613369"><ele>459.0</ele><time>2026-04-30T07:36:19.001Z</time></trkpt><trkpt lat="42.92181637516512" lon="-1.9567141675442146"><ele>459.0</ele><time>2026-04-30T07:36:20.001Z</time></trkpt><trkpt lat="42.92188290818421" lon="-1.956816179934972"><ele>459.0</ele><time>2026-04-30T07:36:21.001Z</time></trkpt><trkpt lat="42.92194777780382" lon="-1.956921643966163"><ele>458.4</ele><time>2026-04-30T07:36:22.001Z</time></trkpt><trkpt lat="42.922009948520994" lon="-1.9570231243892564"><ele>457.79999999999995</ele><time>2026-04-30T07:36:23.001Z</time></trkpt><trkpt lat="42.922072431406164" lon="-1.9571198236803158"><ele>457.20000000000005</ele><time>2026-04-30T07:36:24.001Z</time></trkpt><trkpt lat="42.92213642551753" lon="-1.9572215222790612"><ele>456.6</ele><time>2026-04-30T07:36:25.001Z</time></trkpt><trkpt lat="42.92220423690559" lon="-1.9573249653974396"><ele>456.0</ele><time>2026-04-30T07:36:26.001Z</time></trkpt><trkpt lat="42.92227036509455" lon="-1.9574288576230854"><ele>456.0</ele><time>2026-04-30T07:36:27.001Z</time></trkpt><trkpt lat="42.9223351548937" lon="-1.957532396297367"><ele>456.0</ele><time>2026-04-30T07:36:28.001Z</time></trkpt><trkpt lat="42.92239956221904" lon="-1.957631352789202"><ele>456.0</ele><time>2026-04-30T07:36:29.001Z</time></trkpt><trkpt lat="42.922461354107384" lon="-1.9577321057061945"><ele>456.0</ele><time>2026-04-30T07:36:30.001Z</time></trkpt><trkpt lat="42.92252882002116" lon="-1.957834299812102"><ele>456.0</ele><time>2026-04-30T07:36:31.001Z</time></trkpt><trkpt lat="42.92259496737082" lon="-1.9579313541787962"><ele>456.6</ele><time>2026-04-30T07:36:32.001Z</time></trkpt><trkpt lat="42.92266068084848" lon="-1.9580329454774255"><ele>457.20000000000005</ele><time>2026-04-30T07:36:33.001Z</time></trkpt><trkpt lat="42.92272390425123" lon="-1.9581358545186422"><ele>457.79999999999995</ele><time>2026-04-30T07:36:34.001Z</time></trkpt><trkpt lat="42.92278950607716" lon="-1.958240501685588"><ele>458.4</ele><time>2026-04-30T07:36:35.001Z</time></trkpt><trkpt lat="42.922852608767315" lon="-1.9583409435348231"><ele>459.0</ele><time>2026-04-30T07:36:36.001Z</time></trkpt><trkpt lat="42.92292150933086" lon="-1.9584448956967078"><ele>459.0</ele><time>2026-04-30T07:36:37.001Z</time></trkpt><trkpt lat="42.92298680595716" lon="-1.9585456575099434"><ele>459.0</ele><time>2026-04-30T07:36:38.001Z</time></trkpt><trkpt lat="42.92305083946359" lon="-1.9586478824195783"><ele>459.0</ele><time>2026-04-30T07:36:39.001Z</time></trkpt><trkpt lat="42.92311231953438" lon="-1.9587483433814867"><ele>459.0</ele><time>2026-04-30T07:36:40.001Z</time></trkpt><trkpt lat="42.923179743660455" lon="-1.9588530295529953"><ele>459.0</ele><time>2026-04-30T07:36:41.001Z</time></trkpt><trkpt lat="42.923245916806934" lon="-1.9589561802029465"><ele>459.0</ele><time>2026-04-30T07:36:42.001Z</time></trkpt><trkpt lat="42.92331388631036" lon="-1.959058474833635"><ele>459.0</ele><time>2026-04-30T07:36:43.001Z</time></trkpt><trkpt lat="42.92338001362352" lon="-1.959161857995142"><ele>459.0</ele><time>2026-04-30T07:36:44.001Z</time></trkpt><trkpt lat="42.92344039451166" lon="-1.9592560749534353"><ele>459.0</ele><time>2026-04-30T07:36:45.001Z</time></trkpt><trkpt lat="42.923503748155206" lon="-1.95935861446507"><ele>459.0</ele><time>2026-04-30T07:36:46.001Z</time></trkpt><trkpt lat="42.923561679760894" lon="-1.9594668058415587"><ele>459.6</ele><time>2026-04-30T07:36:47.001Z</time></trkpt><trkpt lat="42.92362356548822" lon="-1.9595734656659947"><ele>460.2</ele><time>2026-04-30T07:36:48.001Z</time></trkpt><trkpt lat="42.923681037540014" lon="-1.959678355476157"><ele>460.80000000000007</ele><time>2026-04-30T07:36:49.001Z</time></trkpt><trkpt lat="42.923732090529114" lon="-1.9597834318785141"><ele>461.40000000000003</ele><time>2026-04-30T07:36:50.001Z</time></trkpt><trkpt lat="42.923785058742375" lon="-1.959891253036764"><ele>462.0</ele><time>2026-04-30T07:36:51.001Z</time></trkpt><trkpt lat="42.92382789584873" lon="-1.9599989864203384"><ele>462.6</ele><time>2026-04-30T07:36:52.001Z</time></trkpt><trkpt lat="42.923871468432914" lon="-1.9601160562404958"><ele>463.20000000000005</ele><time>2026-04-30T07:36:53.001Z</time></trkpt><trkpt lat="42.923914404145904" lon="-1.9602305375414608"><ele>463.8</ele><time>2026-04-30T07:36:54.001Z</time></trkpt><trkpt lat="42.92394917056168" lon="-1.9603452250575288"><ele>464.4</ele><time>2026-04-30T07:36:55.001Z</time></trkpt><trkpt lat="42.92397922146706" lon="-1.9604646159417332"><ele>465.0</ele><time>2026-04-30T07:36:56.001Z</time></trkpt><trkpt lat="42.9240101695237" lon="-1.96058420798309"><ele>465.0</ele><time>2026-04-30T07:36:57.001Z</time></trkpt><trkpt lat="42.92403699103094" lon="-1.9607013850620079"><ele>465.0</ele><time>2026-04-30T07:36:58.001Z</time></trkpt><trkpt lat="42.92405592783909" lon="-1.9608195944960904"><ele>465.0</ele><time>2026-04-30T07:36:59.001Z</time></trkpt><trkpt lat="42.924074523337204" lon="-1.960944373038734"><ele>465.0</ele><time>2026-04-30T07:37:00.001Z</time></trkpt><trkpt lat="42.92408922211633" lon="-1.961066883211456"><ele>465.0</ele><time>2026-04-30T07:37:01.001Z</time></trkpt><trkpt lat="42.92409908834158" lon="-1.9611944506572974"><ele>465.0</ele><time>2026-04-30T07:37:02.001Z</time></trkpt><trkpt lat="42.924109252761774" lon="-1.9613233837873636"><ele>465.0</ele><time>2026-04-30T07:37:03.001Z</time></trkpt><trkpt lat="42.92411797314587" lon="-1.9614521628067054"><ele>465.0</ele><time>2026-04-30T07:37:04Z</time></trkpt><trkpt lat="42.924127941283125" lon="-1.9615821894574224"><ele>465.0</ele><time>2026-04-30T07:37:05Z</time></trkpt><trkpt lat="42.92413746474206" lon="-1.961710221824427"><ele>465.0</ele><time>2026-04-30T07:37:06Z</time></trkpt><trkpt lat="42.92414668332602" lon="-1.9618327413636443"><ele>465.0</ele><time>2026-04-30T07:37:07Z</time></trkpt><trkpt lat="42.92415869263731" lon="-1.9619749565529916"><ele>465.0</ele><time>2026-04-30T07:37:08Z</time></trkpt><trkpt lat="42.92416806602422" lon="-1.9621019787654514"><ele>465.0</ele><time>2026-04-30T07:37:09Z</time></trkpt><trkpt lat="42.92417508661243" lon="-1.9622303462912263"><ele>465.0</ele><time>2026-04-30T07:37:10Z</time></trkpt><trkpt lat="42.92418712673138" lon="-1.9623678031119827"><ele>465.0</ele><time>2026-04-30T07:37:11Z</time></trkpt><trkpt lat="42.924193937799295" lon="-1.9624976978235558"><ele>464.6</ele><time>2026-04-30T07:37:12Z</time></trkpt><trkpt lat="42.92420519004192" lon="-1.9626300589427288"><ele>464.2</ele><time>2026-04-30T07:37:13Z</time></trkpt><trkpt lat="42.924215477292194" lon="-1.9627649721062124"><ele>463.79999999999995</ele><time>2026-04-30T07:37:14Z</time></trkpt><trkpt lat="42.92422309324689" lon="-1.9628920329825308"><ele>463.4</ele><time>2026-04-30T07:37:15Z</time></trkpt><trkpt lat="42.92421824095749" lon="-1.96301390543628"><ele>463.0</ele><time>2026-04-30T07:37:16Z</time></trkpt><trkpt lat="42.924232620793504" lon="-1.9631588966923321"><ele>464.6666666666667</ele><time>2026-04-30T07:37:17Z</time></trkpt><trkpt lat="42.92424396388841" lon="-1.9632852579763114"><ele>466.33333333333337</ele><time>2026-04-30T07:37:18Z</time></trkpt><trkpt lat="42.924255740880085" lon="-1.963398819505134"><ele>468.0</ele><time>2026-04-30T07:37:19Z</time></trkpt><trkpt lat="42.924264421946546" lon="-1.9635171784787284"><ele>469.66666666666663</ele><time>2026-04-30T07:37:20Z</time></trkpt><trkpt lat="42.924273256179056" lon="-1.9636360222284672"><ele>471.3333333333333</ele><time>2026-04-30T07:37:21Z</time></trkpt><trkpt lat="42.924284593000856" lon="-1.9637584997394253"><ele>473.0</ele><time>2026-04-30T07:37:22Z</time></trkpt><trkpt lat="42.924295032051475" lon="-1.9638814634145003"><ele>473.0</ele><time>2026-04-30T07:37:23Z</time></trkpt><trkpt lat="42.92430408225068" lon="-1.9640026354862634"><ele>472.99999999999994</ele><time>2026-04-30T07:37:24Z</time></trkpt><trkpt lat="42.924312379649905" lon="-1.964131604349244"><ele>472.99999999999994</ele><time>2026-04-30T07:37:25Z</time></trkpt><trkpt lat="42.924321512562926" lon="-1.9642647077052864"><ele>473.0</ele><time>2026-04-30T07:37:26Z</time></trkpt><trkpt lat="42.92432534718745" lon="-1.9643958228813292"><ele>473.0</ele><time>2026-04-30T07:37:27Z</time></trkpt><trkpt lat="42.92432911926426" lon="-1.9645178097527443"><ele>472.4</ele><time>2026-04-30T07:37:28Z</time></trkpt><trkpt lat="42.924331260100644" lon="-1.9646413588087137"><ele>471.79999999999995</ele><time>2026-04-30T07:37:29Z</time></trkpt><trkpt lat="42.924334523360955" lon="-1.9647674452591732"><ele>471.2</ele><time>2026-04-30T07:37:30Z</time></trkpt><trkpt lat="42.92433115725465" lon="-1.9648955678008877"><ele>470.6</ele><time>2026-04-30T07:37:31Z</time></trkpt><trkpt lat="42.924322198890735" lon="-1.9650106104487406"><ele>470.0</ele><time>2026-04-30T07:37:32Z</time></trkpt><trkpt lat="42.92430602194484" lon="-1.9651349086570753"><ele>469.8</ele><time>2026-04-30T07:37:33Z</time></trkpt><trkpt lat="42.92428289853755" lon="-1.965263968361278"><ele>469.6</ele><time>2026-04-30T07:37:34Z</time></trkpt><trkpt lat="42.92425960903369" lon="-1.9653854982846666"><ele>469.4</ele><time>2026-04-30T07:37:35Z</time></trkpt><trkpt lat="42.92423487632162" lon="-1.965515155518546"><ele>469.2</ele><time>2026-04-30T07:37:36Z</time></trkpt><trkpt lat="42.92421208414635" lon="-1.9656467098915582"><ele>469.0</ele><time>2026-04-30T07:37:37Z</time></trkpt><trkpt lat="42.92418596348369" lon="-1.9657792943699044"><ele>467.0</ele><time>2026-04-30T07:37:38Z</time></trkpt><trkpt lat="42.92415833379028" lon="-1.9659038459642408"><ele>465.0</ele><time>2026-04-30T07:37:39Z</time></trkpt><trkpt lat="42.924134529806786" lon="-1.966027209802598"><ele>463.0</ele><time>2026-04-30T07:37:40Z</time></trkpt><trkpt lat="42.92410963177444" lon="-1.9661580691858487"><ele>461.0</ele><time>2026-04-30T07:37:41Z</time></trkpt><trkpt lat="42.924078496061945" lon="-1.9662863099612795"><ele>459.0</ele><time>2026-04-30T07:37:42Z</time></trkpt><trkpt lat="42.92403702110952" lon="-1.9664050999813982"><ele>459.0</ele><time>2026-04-30T07:37:43Z</time></trkpt><trkpt lat="42.92399123602612" lon="-1.9665215363747963"><ele>459.0</ele><time>2026-04-30T07:37:44Z</time></trkpt><trkpt lat="42.923933637096965" lon="-1.9666352053949188"><ele>459.0</ele><time>2026-04-30T07:37:45Z</time></trkpt><trkpt lat="42.923869714545596" lon="-1.9667397639284827"><ele>459.0</ele><time>2026-04-30T07:37:46Z</time></trkpt><trkpt lat="42.92380197402742" lon="-1.9668384779079182"><ele>459.0</ele><time>2026-04-30T07:37:47Z</time></trkpt><trkpt lat="42.92373826549606" lon="-1.9669382955800951"><ele>459.0</ele><time>2026-04-30T07:37:48Z</time></trkpt><trkpt lat="42.92366919386553" lon="-1.9670318699171112"><ele>459.0</ele><time>2026-04-30T07:37:49Z</time></trkpt><trkpt lat="42.923607232591706" lon="-1.9671259349431776"><ele>459.0</ele><time>2026-04-30T07:37:50Z</time></trkpt><trkpt lat="42.923540971509716" lon="-1.9672219854832806"><ele>459.0</ele><time>2026-04-30T07:37:51Z</time></trkpt><trkpt lat="42.92348045321187" lon="-1.9673244886639576"><ele>459.0</ele><time>2026-04-30T07:37:52Z</time></trkpt><trkpt lat="42.923429651290256" lon="-1.9674300857177338"><ele>458.79999999999995</ele><time>2026-04-30T07:37:53Z</time></trkpt><trkpt lat="42.92338524247329" lon="-1.9675466045870211"><ele>458.59999999999997</ele><time>2026-04-30T07:37:54Z</time></trkpt><trkpt lat="42.923350359774474" lon="-1.967669007046911"><ele>458.4</ele><time>2026-04-30T07:37:55Z</time></trkpt><trkpt lat="42.923320423217675" lon="-1.9677968532412424"><ele>458.2</ele><time>2026-04-30T07:37:56Z</time></trkpt><trkpt lat="42.92329133727094" lon="-1.9679298186997296"><ele>458.0</ele><time>2026-04-30T07:37:57Z</time></trkpt><trkpt lat="42.92326458728108" lon="-1.968045631045302"><ele>458.0</ele><time>2026-04-30T07:37:58Z</time></trkpt><trkpt lat="42.923237970042706" lon="-1.9681623781318989"><ele>457.99999999999994</ele><time>2026-04-30T07:37:59Z</time></trkpt><trkpt lat="42.92320574846697" lon="-1.968279499960355"><ele>457.99999999999994</ele><time>2026-04-30T07:38:00Z</time></trkpt><trkpt lat="42.92317007023702" lon="-1.9683995092118827"><ele>458.0</ele><time>2026-04-30T07:38:01Z</time></trkpt><trkpt lat="42.92312979169172" lon="-1.9685199751895364"><ele>458.0</ele><time>2026-04-30T07:38:02Z</time></trkpt><trkpt lat="42.9231078030985" lon="-1.9686485368263196"><ele>458.0</ele><time>2026-04-30T07:38:03Z</time></trkpt><trkpt lat="42.9230641942286" lon="-1.9687601457143602"><ele>457.99999999999994</ele><time>2026-04-30T07:38:04Z</time></trkpt><trkpt lat="42.9230418190669" lon="-1.968888196981596"><ele>457.99999999999994</ele><time>2026-04-30T07:38:05Z</time></trkpt><trkpt lat="42.923041049697844" lon="-1.969013308812416"><ele>458.0</ele><time>2026-04-30T07:38:06Z</time></trkpt><trkpt lat="42.923045493877346" lon="-1.969144690728034"><ele>458.0</ele><time>2026-04-30T07:38:07Z</time></trkpt><trkpt lat="42.923059608354414" lon="-1.9692677099722034"><ele>458.59999999999997</ele><time>2026-04-30T07:38:08Z</time></trkpt><trkpt lat="42.923089272822956" lon="-1.9693926435078737"><ele>459.19999999999993</ele><time>2026-04-30T07:38:09Z</time></trkpt><trkpt lat="42.923130703381844" lon="-1.9695163078287512"><ele>459.8</ele><time>2026-04-30T07:38:10Z</time></trkpt><trkpt lat="42.92317667698767" lon="-1.9696345600889011"><ele>460.4</ele><time>2026-04-30T07:38:11Z</time></trkpt><trkpt lat="42.92322620454061" lon="-1.969752659422095"><ele>461.0</ele><time>2026-04-30T07:38:12Z</time></trkpt><trkpt lat="42.92327338447565" lon="-1.9698682526393716"><ele>461.0</ele><time>2026-04-30T07:38:13Z</time></trkpt><trkpt lat="42.923309549443545" lon="-1.9699858105061356"><ele>461.0</ele><time>2026-04-30T07:38:14Z</time></trkpt><trkpt lat="42.92333459777817" lon="-1.9701047517014387"><ele>461.0</ele><time>2026-04-30T07:38:15Z</time></trkpt><trkpt lat="42.92335147725425" lon="-1.9702332624758023"><ele>461.0</ele><time>2026-04-30T07:38:16Z</time></trkpt><trkpt lat="42.92336010051443" lon="-1.9703634582212248"><ele>461.0</ele><time>2026-04-30T07:38:17Z</time></trkpt><trkpt lat="42.92336159393625" lon="-1.970493623956785"><ele>460.8</ele><time>2026-04-30T07:38:18Z</time></trkpt><trkpt lat="42.92335779056095" lon="-1.9706243875261233"><ele>460.6</ele><time>2026-04-30T07:38:19Z</time></trkpt><trkpt lat="42.92334731092982" lon="-1.9707585196932615"><ele>460.4</ele><time>2026-04-30T07:38:20Z</time></trkpt><trkpt lat="42.92333911132719" lon="-1.9708953333253887"><ele>460.2</ele><time>2026-04-30T07:38:21Z</time></trkpt><trkpt lat="42.92333065269393" lon="-1.9710286933420769"><ele>460.0</ele><time>2026-04-30T07:38:22Z</time></trkpt><trkpt lat="42.923323568054144" lon="-1.9711620541127548"><ele>460.0</ele><time>2026-04-30T07:38:23Z</time></trkpt><trkpt lat="42.92331548139481" lon="-1.9712946553157242"><ele>460.0</ele><time>2026-04-30T07:38:24Z</time></trkpt><trkpt lat="42.92330531151308" lon="-1.9714285012731023"><ele>460.0</ele><time>2026-04-30T07:38:25Z</time></trkpt><trkpt lat="42.923295438695874" lon="-1.9715629989904118"><ele>460.0</ele><time>2026-04-30T07:38:26Z</time></trkpt><trkpt lat="42.92328645631176" lon="-1.9716982287993805"><ele>460.0</ele><time>2026-04-30T07:38:27Z</time></trkpt><trkpt lat="42.923274090930676" lon="-1.9718294773211396"><ele>459.8</ele><time>2026-04-30T07:38:28Z</time></trkpt><trkpt lat="42.92326116708936" lon="-1.9719669919105194"><ele>459.6</ele><time>2026-04-30T07:38:29Z</time></trkpt><trkpt lat="42.92324776819785" lon="-1.972106782821531"><ele>459.4</ele><time>2026-04-30T07:38:30Z</time></trkpt><trkpt lat="42.92323797493434" lon="-1.972250277346242"><ele>459.2</ele><time>2026-04-30T07:38:31Z</time></trkpt><trkpt lat="42.923229873011394" lon="-1.9723903249046537"><ele>459.0</ele><time>2026-04-30T07:38:32Z</time></trkpt><trkpt lat="42.923222401761805" lon="-1.9725305872449341"><ele>459.6</ele><time>2026-04-30T07:38:33Z</time></trkpt><trkpt lat="42.923212131506936" lon="-1.9726709794382238"><ele>460.2</ele><time>2026-04-30T07:38:34Z</time></trkpt><trkpt lat="42.923204225690625" lon="-1.9728111014486656"><ele>460.80000000000007</ele><time>2026-04-30T07:38:35Z</time></trkpt><trkpt lat="42.92319347575759" lon="-1.9729529300191824"><ele>461.40000000000003</ele><time>2026-04-30T07:38:36Z</time></trkpt><trkpt lat="42.923184879058255" lon="-1.973101304208391"><ele>462.0</ele><time>2026-04-30T07:38:37Z</time></trkpt><trkpt lat="42.92317995856931" lon="-1.9732460288523253"><ele>462.0</ele><time>2026-04-30T07:38:38Z</time></trkpt><trkpt lat="42.923182268166805" lon="-1.9733901002352208"><ele>462.00000000000006</ele><time>2026-04-30T07:38:39.001Z</time></trkpt><trkpt lat="42.92318983455758" lon="-1.9735354405900103"><ele>462.00000000000006</ele><time>2026-04-30T07:38:40.001Z</time></trkpt><trkpt lat="42.92320206457802" lon="-1.973685092397393"><ele>462.0</ele><time>2026-04-30T07:38:41.001Z</time></trkpt><trkpt lat="42.92321811301991" lon="-1.9738366152926672"><ele>462.0</ele><time>2026-04-30T07:38:42.001Z</time></trkpt><trkpt lat="42.92323861265724" lon="-1.9739801651356748"><ele>462.0</ele><time>2026-04-30T07:38:43.001Z</time></trkpt><trkpt lat="42.923263032219666" lon="-1.9741226283448283"><ele>462.00000000000006</ele><time>2026-04-30T07:38:44.001Z</time></trkpt><trkpt lat="42.92329014395593" lon="-1.9742606435070988"><ele>462.00000000000006</ele><time>2026-04-30T07:38:45.001Z</time></trkpt><trkpt lat="42.923316019498536" lon="-1.9743956093987696"><ele>462.0</ele><time>2026-04-30T07:38:46.001Z</time></trkpt><trkpt lat="42.92334223455212" lon="-1.9745323494721259"><ele>462.0</ele><time>2026-04-30T07:38:47.001Z</time></trkpt><trkpt lat="42.92337198159083" lon="-1.9746744154252192"><ele>462.20000000000005</ele><time>2026-04-30T07:38:48.001Z</time></trkpt><trkpt lat="42.92340131804003" lon="-1.9748112009058754"><ele>462.40000000000003</ele><time>2026-04-30T07:38:49.001Z</time></trkpt><trkpt lat="42.923428880258854" lon="-1.9749493352817709"><ele>462.59999999999997</ele><time>2026-04-30T07:38:50.001Z</time></trkpt><trkpt lat="42.92345802879388" lon="-1.975092109230375"><ele>462.79999999999995</ele><time>2026-04-30T07:38:51.001Z</time></trkpt><trkpt lat="42.9234847766502" lon="-1.9752299878929676"><ele>463.0</ele><time>2026-04-30T07:38:52.001Z</time></trkpt><trkpt lat="42.92351005243189" lon="-1.9753694260257906"><ele>463.0</ele><time>2026-04-30T07:38:53.001Z</time></trkpt><trkpt lat="42.923535636798306" lon="-1.9755088082669559"><ele>462.99999999999994</ele><time>2026-04-30T07:38:54.001Z</time></trkpt><trkpt lat="42.92356033701555" lon="-1.9756466768513867"><ele>462.99999999999994</ele><time>2026-04-30T07:38:55.001Z</time></trkpt><trkpt lat="42.923584524748264" lon="-1.9757840516077643"><ele>463.0</ele><time>2026-04-30T07:38:56.001Z</time></trkpt><trkpt lat="42.92360774127759" lon="-1.9759233223739345"><ele>463.0</ele><time>2026-04-30T07:38:57.001Z</time></trkpt><trkpt lat="42.92363481319625" lon="-1.9760694503245153"><ele>463.2</ele><time>2026-04-30T07:38:58.001Z</time></trkpt><trkpt lat="42.9236618711678" lon="-1.9762093955481654"><ele>463.4</ele><time>2026-04-30T07:38:59.001Z</time></trkpt><trkpt lat="42.923691218754016" lon="-1.9763515512124865"><ele>463.59999999999997</ele><time>2026-04-30T07:39:00.001Z</time></trkpt><trkpt lat="42.92371907788102" lon="-1.976492587540717"><ele>463.79999999999995</ele><time>2026-04-30T07:39:01.001Z</time></trkpt><trkpt lat="42.923745839828676" lon="-1.9766352346667304"><ele>464.0</ele><time>2026-04-30T07:39:02.001Z</time></trkpt><trkpt lat="42.92376564843504" lon="-1.9767746977116658"><ele>464.0</ele><time>2026-04-30T07:39:03.001Z</time></trkpt><trkpt lat="42.92378558215376" lon="-1.97690815882065"><ele>464.0</ele><time>2026-04-30T07:39:04.001Z</time></trkpt><trkpt lat="42.92381170289648" lon="-1.977047589499225"><ele>464.0</ele><time>2026-04-30T07:39:05.001Z</time></trkpt><trkpt lat="42.92384280616373" lon="-1.9771934762672916"><ele>464.0</ele><time>2026-04-30T07:39:06.001Z</time></trkpt><trkpt lat="42.923869421577294" lon="-1.9773315976519938"><ele>464.0</ele><time>2026-04-30T07:39:07.001Z</time></trkpt><trkpt lat="42.92389251728157" lon="-1.9774743505163246"><ele>463.6</ele><time>2026-04-30T07:39:08.001Z</time></trkpt><trkpt lat="42.923915610175676" lon="-1.9776138344127732"><ele>463.2</ele><time>2026-04-30T07:39:09.001Z</time></trkpt><trkpt lat="42.92394260165843" lon="-1.977755209375798"><ele>462.80000000000007</ele><time>2026-04-30T07:39:10Z</time></trkpt><trkpt lat="42.92397074268892" lon="-1.9778934875197651"><ele>462.40000000000003</ele><time>2026-04-30T07:39:11Z</time></trkpt><trkpt lat="42.923998725646534" lon="-1.978033567643869"><ele>462.0</ele><time>2026-04-30T07:39:12Z</time></trkpt><trkpt lat="42.9240262922069" lon="-1.9781763588211323"><ele>462.0</ele><time>2026-04-30T07:39:13Z</time></trkpt><trkpt lat="42.924052030487296" lon="-1.9783179303088265"><ele>462.00000000000006</ele><time>2026-04-30T07:39:14Z</time></trkpt><trkpt lat="42.92407769569563" lon="-1.9784638736650872"><ele>462.00000000000006</ele><time>2026-04-30T07:39:15Z</time></trkpt><trkpt lat="42.924098459499916" lon="-1.9786030030005683"><ele>462.0</ele><time>2026-04-30T07:39:16Z</time></trkpt><trkpt lat="42.924115344295124" lon="-1.978747394557995"><ele>462.0</ele><time>2026-04-30T07:39:17Z</time></trkpt><trkpt lat="42.92412641277788" lon="-1.978895225936177"><ele>461.8</ele><time>2026-04-30T07:39:18Z</time></trkpt><trkpt lat="42.92412686806568" lon="-1.979039392348148"><ele>461.6</ele><time>2026-04-30T07:39:19Z</time></trkpt><trkpt lat="42.924113739573954" lon="-1.979176865872196"><ele>461.40000000000003</ele><time>2026-04-30T07:39:20Z</time></trkpt><trkpt lat="42.924093472897326" lon="-1.9793209635458178"><ele>461.20000000000005</ele><time>2026-04-30T07:39:21Z</time></trkpt><trkpt lat="42.92406346882328" lon="-1.9794604516132188"><ele>461.0</ele><time>2026-04-30T07:39:22Z</time></trkpt><trkpt lat="42.924024212362305" lon="-1.9795996587582958"><ele>461.4</ele><time>2026-04-30T07:39:23Z</time></trkpt><trkpt lat="42.923976573389744" lon="-1.9797352525743677"><ele>461.8</ele><time>2026-04-30T07:39:24Z</time></trkpt><trkpt lat="42.92392243334296" lon="-1.9798567768758408"><ele>462.19999999999993</ele><time>2026-04-30T07:39:25Z</time></trkpt><trkpt lat="42.9238581035151" lon="-1.9799703074599033"><ele>462.59999999999997</ele><time>2026-04-30T07:39:26Z</time></trkpt><trkpt lat="42.923788163028355" lon="-1.9800784632057238"><ele>463.0</ele><time>2026-04-30T07:39:27Z</time></trkpt><trkpt lat="42.9237095319607" lon="-1.9801748330898303"><ele>463.0</ele><time>2026-04-30T07:39:28Z</time></trkpt><trkpt lat="42.92362718116932" lon="-1.9802598727069913"><ele>462.99999999999994</ele><time>2026-04-30T07:39:29Z</time></trkpt><trkpt lat="42.9235395205086" lon="-1.9803313393273172"><ele>462.99999999999994</ele><time>2026-04-30T07:39:30Z</time></trkpt><trkpt lat="42.92345661145469" lon="-1.9804151801578938"><ele>463.0</ele><time>2026-04-30T07:39:31Z</time></trkpt><trkpt lat="42.92336285081681" lon="-1.9804655852309112"><ele>463.0</ele><time>2026-04-30T07:39:32Z</time></trkpt><trkpt lat="42.92326425029463" lon="-1.9805073971278386"><ele>463.4</ele><time>2026-04-30T07:39:33Z</time></trkpt><trkpt lat="42.92316955860355" lon="-1.980536189458864"><ele>463.79999999999995</ele><time>2026-04-30T07:39:34Z</time></trkpt><trkpt lat="42.92307378107856" lon="-1.9805523795336155"><ele>464.2</ele><time>2026-04-30T07:39:35Z</time></trkpt><trkpt lat="42.9229853744163" lon="-1.9805623202979759"><ele>464.6</ele><time>2026-04-30T07:39:36Z</time></trkpt><trkpt lat="42.9228972654916" lon="-1.9805684514806534"><ele>465.0</ele><time>2026-04-30T07:39:37Z</time></trkpt><trkpt lat="42.92281115787647" lon="-1.980567011355829"><ele>465.0</ele><time>2026-04-30T07:39:38Z</time></trkpt><trkpt lat="42.92273061158636" lon="-1.980567237514646"><ele>465.0</ele><time>2026-04-30T07:39:39Z</time></trkpt><trkpt lat="42.92265167424505" lon="-1.9805655892074945"><ele>465.0</ele><time>2026-04-30T07:39:40Z</time></trkpt><trkpt lat="42.922574824161806" lon="-1.9805695141651156"><ele>465.0</ele><time>2026-04-30T07:39:41Z</time></trkpt><trkpt lat="42.922494292596646" lon="-1.9805591524610084"><ele>465.0</ele><time>2026-04-30T07:39:42Z</time></trkpt><trkpt lat="42.92241806568668" lon="-1.9805798293118386"><ele>465.0</ele><time>2026-04-30T07:39:43Z</time></trkpt><trkpt lat="42.92233752999522" lon="-1.9805983501222217"><ele>465.8333333333333</ele><time>2026-04-30T07:39:44Z</time></trkpt><trkpt lat="42.92226173754848" lon="-1.980636539114708"><ele>466.66666666666663</ele><time>2026-04-30T07:39:45Z</time></trkpt><trkpt lat="42.92218472571437" lon="-1.9806591025380216"><ele>467.5</ele><time>2026-04-30T07:39:46Z</time></trkpt><trkpt lat="42.922098668147115" lon="-1.980684316247503"><ele>468.3333333333333</ele><time>2026-04-30T07:39:47Z</time></trkpt><trkpt lat="42.922028847190155" lon="-1.980703792088515"><ele>469.16666666666663</ele><time>2026-04-30T07:39:48Z</time></trkpt><trkpt lat="42.9219126087569" lon="-1.980733487625297"><ele>470.0</ele><time>2026-04-30T07:39:50Z</time></trkpt><trkpt lat="42.92183366327609" lon="-1.980743279076518"><ele>470.0</ele><time>2026-04-30T07:39:52Z</time></trkpt><trkpt lat="42.921790024757144" lon="-1.9808391736244029"><ele>469.99999999999994</ele><time>2026-04-30T07:39:54Z</time></trkpt><trkpt lat="42.92179788764321" lon="-1.9809282796696581"><ele>470.0</ele><time>2026-04-30T07:39:55Z</time></trkpt><trkpt lat="42.92182565533638" lon="-1.981008004117093"><ele>470.0</ele><time>2026-04-30T07:39:56Z</time></trkpt><trkpt lat="42.921845024027476" lon="-1.9810936373963923"><ele>469.99999999999994</ele><time>2026-04-30T07:39:57Z</time></trkpt><trkpt lat="42.921869635871616" lon="-1.981181616863657"><ele>470.0</ele><time>2026-04-30T07:39:58Z</time></trkpt><trkpt lat="42.92189156971627" lon="-1.9812787111511483"><ele>470.0</ele><time>2026-04-30T07:39:59Z</time></trkpt><trkpt lat="42.92191569241579" lon="-1.9813903526913088"><ele>470.0</ele><time>2026-04-30T07:40:00Z</time></trkpt><trkpt lat="42.92193996855169" lon="-1.9815027002433607"><ele>470.0</ele><time>2026-04-30T07:40:01Z</time></trkpt><trkpt lat="42.92196506705491" lon="-1.9816176684144797"><ele>470.0</ele><time>2026-04-30T07:40:02Z</time></trkpt><trkpt lat="42.92199136988918" lon="-1.9817382108174806"><ele>470.0</ele><time>2026-04-30T07:40:03Z</time></trkpt><trkpt lat="42.92201865816056" lon="-1.9818587450849454"><ele>470.0</ele><time>2026-04-30T07:40:04Z</time></trkpt><trkpt lat="42.92204553774167" lon="-1.9819828534252544"><ele>470.2</ele><time>2026-04-30T07:40:05Z</time></trkpt><trkpt lat="42.922070964655624" lon="-1.9821101535358814"><ele>470.4</ele><time>2026-04-30T07:40:06Z</time></trkpt><trkpt lat="42.92209928932866" lon="-1.9822386505579745"><ele>470.6</ele><time>2026-04-30T07:40:07Z</time></trkpt><trkpt lat="42.9221233169449" lon="-1.9823699481895956"><ele>470.8</ele><time>2026-04-30T07:40:08Z</time></trkpt><trkpt lat="42.92214763487431" lon="-1.982498127065934"><ele>471.0</ele><time>2026-04-30T07:40:09Z</time></trkpt><trkpt lat="42.92217712329652" lon="-1.9826269530121656"><ele>470.6</ele><time>2026-04-30T07:40:10Z</time></trkpt><trkpt lat="42.922207377397164" lon="-1.9827540091256706"><ele>470.20000000000005</ele><time>2026-04-30T07:40:11Z</time></trkpt><trkpt lat="42.92223366713266" lon="-1.9828852036774802"><ele>469.79999999999995</ele><time>2026-04-30T07:40:12Z</time></trkpt><trkpt lat="42.92226315806256" lon="-1.9830112413191168"><ele>469.4</ele><time>2026-04-30T07:40:13Z</time></trkpt><trkpt lat="42.92229835599359" lon="-1.9831368656175148"><ele>469.0</ele><time>2026-04-30T07:40:14Z</time></trkpt><trkpt lat="42.922336917423486" lon="-1.9832568011759004"><ele>469.0</ele><time>2026-04-30T07:40:15Z</time></trkpt><trkpt lat="42.92238563693586" lon="-1.9833753086507167"><ele>469.0</ele><time>2026-04-30T07:40:16Z</time></trkpt><trkpt lat="42.922437071966556" lon="-1.983483120089752"><ele>469.0</ele><time>2026-04-30T07:40:17Z</time></trkpt><trkpt lat="42.922503302042806" lon="-1.9835920103427866"><ele>469.0</ele><time>2026-04-30T07:40:18Z</time></trkpt><trkpt lat="42.92257398274526" lon="-1.9836808456705202"><ele>469.0</ele><time>2026-04-30T07:40:19Z</time></trkpt><trkpt lat="42.92265382664384" lon="-1.9837610150062404"><ele>468.6</ele><time>2026-04-30T07:40:20Z</time></trkpt><trkpt lat="42.92273218153554" lon="-1.983846309228348"><ele>468.2</ele><time>2026-04-30T07:40:21Z</time></trkpt><trkpt lat="42.92279673921183" lon="-1.983933410556051"><ele>467.80000000000007</ele><time>2026-04-30T07:40:22Z</time></trkpt><trkpt lat="42.92285433408999" lon="-1.9840273621336804"><ele>467.40000000000003</ele><time>2026-04-30T07:40:23Z</time></trkpt><trkpt lat="42.92289818982767" lon="-1.9841351852987852"><ele>467.0</ele><time>2026-04-30T07:40:24Z</time></trkpt><trkpt lat="42.92292726640283" lon="-1.9842537375947469"><ele>466.99999999999994</ele><time>2026-04-30T07:40:25Z</time></trkpt><trkpt lat="42.92294472272105" lon="-1.9843721079719778"><ele>467.0</ele><time>2026-04-30T07:40:26Z</time></trkpt><trkpt lat="42.922950285991774" lon="-1.9844908043625624"><ele>467.0</ele><time>2026-04-30T07:40:27Z</time></trkpt><trkpt lat="42.92294119825752" lon="-1.9846069964707747"><ele>467.0</ele><time>2026-04-30T07:40:28Z</time></trkpt><trkpt lat="42.92292279733156" lon="-1.9847179074259067"><ele>466.99999999999994</ele><time>2026-04-30T07:40:29.001Z</time></trkpt><trkpt lat="42.922892693505496" lon="-1.9848251491042639"><ele>467.0</ele><time>2026-04-30T07:40:30.001Z</time></trkpt><trkpt lat="42.922853928946054" lon="-1.9849248935092965"><ele>467.16666666666663</ele><time>2026-04-30T07:40:31.001Z</time></trkpt><trkpt lat="42.922797049213855" lon="-1.9850138894822154"><ele>467.3333333333333</ele><time>2026-04-30T07:40:32.001Z</time></trkpt><trkpt lat="42.922733648669265" lon="-1.9850942890760328"><ele>467.5</ele><time>2026-04-30T07:40:33.001Z</time></trkpt><trkpt lat="42.922668682179975" lon="-1.9851616115456574"><ele>467.66666666666663</ele><time>2026-04-30T07:40:34.001Z</time></trkpt><trkpt lat="42.922595674457014" lon="-1.9852111597525737"><ele>467.8333333333333</ele><time>2026-04-30T07:40:35.001Z</time></trkpt><trkpt lat="42.92251687739958" lon="-1.9852517011233322"><ele>468.0</ele><time>2026-04-30T07:40:36.001Z</time></trkpt><trkpt lat="42.92243790885318" lon="-1.985286878399585"><ele>468.0</ele><time>2026-04-30T07:40:37.001Z</time></trkpt><trkpt lat="42.922371681946956" lon="-1.9853118637858986"><ele>468.0</ele><time>2026-04-30T07:40:38.001Z</time></trkpt><trkpt lat="42.92230961879019" lon="-1.9853485620137143"><ele>468.0</ele><time>2026-04-30T07:40:39.001Z</time></trkpt><trkpt lat="42.922258289106885" lon="-1.9854086977204632"><ele>468.0</ele><time>2026-04-30T07:40:40.001Z</time></trkpt><trkpt lat="42.92221350197458" lon="-1.9855134522005677"><ele>468.0</ele><time>2026-04-30T07:40:42.001Z</time></trkpt><trkpt lat="42.9221796986381" lon="-1.9856090859296704"><ele>468.0</ele><time>2026-04-30T07:40:50.001Z</time></trkpt><trkpt lat="42.92215773883235" lon="-1.9857193777692164"><ele>467.5</ele><time>2026-04-30T07:40:52.001Z</time></trkpt><trkpt lat="42.922138959791894" lon="-1.9858876374462906"><ele>467.0</ele><time>2026-04-30T07:40:54.001Z</time></trkpt><trkpt lat="42.922127962432405" lon="-1.9859816036795732"><ele>466.5</ele><time>2026-04-30T07:40:55.001Z</time></trkpt><trkpt lat="42.922118683639695" lon="-1.9860853841436013"><ele>466.0</ele><time>2026-04-30T07:40:56.001Z</time></trkpt><trkpt lat="42.92210734790603" lon="-1.986199346773295"><ele>465.5</ele><time>2026-04-30T07:40:57.001Z</time></trkpt><trkpt lat="42.9220970964383" lon="-1.9863181462839832"><ele>465.0</ele><time>2026-04-30T07:40:58.001Z</time></trkpt><trkpt lat="42.92208731305571" lon="-1.9864411128102901"><ele>465.0</ele><time>2026-04-30T07:40:59.001Z</time></trkpt><trkpt lat="42.922080293834746" lon="-1.986568399409458"><ele>465.0</ele><time>2026-04-30T07:41:00.001Z</time></trkpt><trkpt lat="42.92207623672927" lon="-1.986703293107694"><ele>465.0</ele><time>2026-04-30T07:41:01.001Z</time></trkpt><trkpt lat="42.922077604729004" lon="-1.9868398021478217"><ele>465.0</ele><time>2026-04-30T07:41:02.001Z</time></trkpt><trkpt lat="42.92208272992082" lon="-1.9869768835829953"><ele>465.0</ele><time>2026-04-30T07:41:03.001Z</time></trkpt><trkpt lat="42.92209383878089" lon="-1.9871142697340516"><ele>465.0</ele><time>2026-04-30T07:41:04.001Z</time></trkpt><trkpt lat="42.922107745110196" lon="-1.9872554765438786"><ele>465.0</ele><time>2026-04-30T07:41:05.001Z</time></trkpt><trkpt lat="42.92212411264452" lon="-1.9873969246373466"><ele>465.0</ele><time>2026-04-30T07:41:06.001Z</time></trkpt><trkpt lat="42.92214064650408" lon="-1.987538846561376"><ele>465.0</ele><time>2026-04-30T07:41:07.001Z</time></trkpt><trkpt lat="42.92215692820243" lon="-1.987680585589561"><ele>465.0</ele><time>2026-04-30T07:41:08.001Z</time></trkpt><trkpt lat="42.922175581194544" lon="-1.9878200663214831"><ele>465.0</ele><time>2026-04-30T07:41:09.001Z</time></trkpt><trkpt lat="42.92219194026492" lon="-1.9879596411749225"><ele>465.0</ele><time>2026-04-30T07:41:10.001Z</time></trkpt><trkpt lat="42.92220572225885" lon="-1.988102968307409"><ele>465.0</ele><time>2026-04-30T07:41:11.001Z</time></trkpt><trkpt lat="42.9222171149069" lon="-1.9882359647153027"><ele>465.0</ele><time>2026-04-30T07:41:12.001Z</time></trkpt><trkpt lat="42.92223187030024" lon="-1.9883711926685737"><ele>465.0</ele><time>2026-04-30T07:41:13.001Z</time></trkpt><trkpt lat="42.92224954341657" lon="-1.9885014480290835"><ele>465.0</ele><time>2026-04-30T07:41:14.001Z</time></trkpt><trkpt lat="42.9222652695934" lon="-1.9886302629999193"><ele>465.0</ele><time>2026-04-30T07:41:15.001Z</time></trkpt><trkpt lat="42.92227989277278" lon="-1.9887588945759376"><ele>465.0</ele><time>2026-04-30T07:41:16Z</time></trkpt><trkpt lat="42.92229346507323" lon="-1.988887021423798"><ele>465.0</ele><time>2026-04-30T07:41:17Z</time></trkpt><trkpt lat="42.922307850797026" lon="-1.9890137348290846"><ele>465.0</ele><time>2026-04-30T07:41:18Z</time></trkpt><trkpt lat="42.9223213001082" lon="-1.9891433499864943"><ele>465.6</ele><time>2026-04-30T07:41:19Z</time></trkpt><trkpt lat="42.92233857511116" lon="-1.9892718331694996"><ele>466.2</ele><time>2026-04-30T07:41:20Z</time></trkpt><trkpt lat="42.92235508879106" lon="-1.9894011196580417"><ele>466.79999999999995</ele><time>2026-04-30T07:41:21Z</time></trkpt><trkpt lat="42.92237277506505" lon="-1.989528581240378"><ele>467.4</ele><time>2026-04-30T07:41:22Z</time></trkpt><trkpt lat="42.922391586764554" lon="-1.9896594012598308"><ele>468.0</ele><time>2026-04-30T07:41:23Z</time></trkpt><trkpt lat="42.922407308207895" lon="-1.9897894961508005"><ele>468.0</ele><time>2026-04-30T07:41:24Z</time></trkpt><trkpt lat="42.922421401834605" lon="-1.9899247887719853"><ele>467.99999999999994</ele><time>2026-04-30T07:41:25Z</time></trkpt><trkpt lat="42.92243639951059" lon="-1.9900603424059762"><ele>467.99999999999994</ele><time>2026-04-30T07:41:26Z</time></trkpt><trkpt lat="42.922450512738635" lon="-1.99019382786863"><ele>468.0</ele><time>2026-04-30T07:41:27Z</time></trkpt><trkpt lat="42.922468582315624" lon="-1.9903266409981193"><ele>468.0</ele><time>2026-04-30T07:41:28Z</time></trkpt><trkpt lat="42.922484854538645" lon="-1.9904614521333877"><ele>468.0</ele><time>2026-04-30T07:41:29Z</time></trkpt><trkpt lat="42.922500330853225" lon="-1.9905963760873977"><ele>467.99999999999994</ele><time>2026-04-30T07:41:30Z</time></trkpt><trkpt lat="42.92251471645031" lon="-1.9907328405483766"><ele>467.99999999999994</ele><time>2026-04-30T07:41:31Z</time></trkpt><trkpt lat="42.92252899790128" lon="-1.9908727970733728"><ele>468.0</ele><time>2026-04-30T07:41:32Z</time></trkpt><trkpt lat="42.922544522440546" lon="-1.9910108717574082"><ele>468.0</ele><time>2026-04-30T07:41:33Z</time></trkpt><trkpt lat="42.92255930532199" lon="-1.9911505667303582"><ele>467.79999999999995</ele><time>2026-04-30T07:41:34Z</time></trkpt><trkpt lat="42.92257376732215" lon="-1.991287182252669"><ele>467.59999999999997</ele><time>2026-04-30T07:41:35Z</time></trkpt><trkpt lat="42.922590461222846" lon="-1.9914193214791767"><ele>467.40000000000003</ele><time>2026-04-30T07:41:36Z</time></trkpt><trkpt lat="42.922606900496" lon="-1.991560768003696"><ele>467.20000000000005</ele><time>2026-04-30T07:41:37Z</time></trkpt><trkpt lat="42.92262414882766" lon="-1.991701973984063"><ele>467.0</ele><time>2026-04-30T07:41:38Z</time></trkpt><trkpt lat="42.922642618789496" lon="-1.9918417724491797"><ele>467.0</ele><time>2026-04-30T07:41:39Z</time></trkpt><trkpt lat="42.922659368026565" lon="-1.991983631586051"><ele>467.00000000000006</ele><time>2026-04-30T07:41:40Z</time></trkpt><trkpt lat="42.92267585410558" lon="-1.9921305360663348"><ele>467.00000000000006</ele><time>2026-04-30T07:41:41Z</time></trkpt><trkpt lat="42.9226918175226" lon="-1.9922738024474096"><ele>467.0</ele><time>2026-04-30T07:41:42Z</time></trkpt><trkpt lat="42.92270854026514" lon="-1.9924137802666813"><ele>467.0</ele><time>2026-04-30T07:41:43Z</time></trkpt><trkpt lat="42.92272557684211" lon="-1.9925608770516525"><ele>467.0</ele><time>2026-04-30T07:41:44Z</time></trkpt><trkpt lat="42.92274368624374" lon="-1.9927024067593384"><ele>467.00000000000006</ele><time>2026-04-30T07:41:45Z</time></trkpt><trkpt lat="42.922754800517616" lon="-1.9928252190498654"><ele>467.00000000000006</ele><time>2026-04-30T07:41:46Z</time></trkpt><trkpt lat="42.92277239440425" lon="-1.992961734471696"><ele>467.0</ele><time>2026-04-30T07:41:47Z</time></trkpt><trkpt lat="42.922791728260925" lon="-1.9931009749270603"><ele>467.0</ele><time>2026-04-30T07:41:48Z</time></trkpt><trkpt lat="42.92281033988999" lon="-1.9932388680392419"><ele>467.0</ele><time>2026-04-30T07:41:49Z</time></trkpt><trkpt lat="42.92282411703076" lon="-1.9933793377055735"><ele>467.00000000000006</ele><time>2026-04-30T07:41:50Z</time></trkpt><trkpt lat="42.92284229758008" lon="-1.9935214829194186"><ele>467.00000000000006</ele><time>2026-04-30T07:41:51Z</time></trkpt><trkpt lat="42.92286107644292" lon="-1.9936601830312823"><ele>467.0</ele><time>2026-04-30T07:41:52Z</time></trkpt><trkpt lat="42.92287667164842" lon="-1.9937981535852307"><ele>467.0</ele><time>2026-04-30T07:41:53Z</time></trkpt><trkpt lat="42.922896126390526" lon="-1.9939356071496597"><ele>467.0</ele><time>2026-04-30T07:41:54Z</time></trkpt><trkpt lat="42.92291587403391" lon="-1.9940700011957966"><ele>467.00000000000006</ele><time>2026-04-30T07:41:55Z</time></trkpt><trkpt lat="42.922934601858366" lon="-1.9942079111866673"><ele>467.00000000000006</ele><time>2026-04-30T07:41:56Z</time></trkpt><trkpt lat="42.922955049074346" lon="-1.9943475559077044"><ele>467.0</ele><time>2026-04-30T07:41:57Z</time></trkpt><trkpt lat="42.92297403661728" lon="-1.9944876845636255"><ele>467.0</ele><time>2026-04-30T07:41:58Z</time></trkpt><trkpt lat="42.92299240254036" lon="-1.9946279590772373"><ele>467.0</ele><time>2026-04-30T07:41:59Z</time></trkpt><trkpt lat="42.92301736609986" lon="-1.9947664721807252"><ele>467.00000000000006</ele><time>2026-04-30T07:42:00Z</time></trkpt><trkpt lat="42.9230439389623" lon="-1.9949002890845537"><ele>467.00000000000006</ele><time>2026-04-30T07:42:01Z</time></trkpt><trkpt lat="42.92306650228492" lon="-1.9950327312270397"><ele>467.0</ele><time>2026-04-30T07:42:02Z</time></trkpt><trkpt lat="42.9230840740858" lon="-1.995168541281617"><ele>467.0</ele><time>2026-04-30T07:42:03Z</time></trkpt><trkpt lat="42.92310104898055" lon="-1.9953135664480708"><ele>467.20000000000005</ele><time>2026-04-30T07:42:04Z</time></trkpt><trkpt lat="42.9231203520111" lon="-1.995453336333938"><ele>467.40000000000003</ele><time>2026-04-30T07:42:05Z</time></trkpt><trkpt lat="42.923142808906995" lon="-1.995587041313708"><ele>467.59999999999997</ele><time>2026-04-30T07:42:06Z</time></trkpt><trkpt lat="42.923163353037694" lon="-1.9957262169141126"><ele>467.79999999999995</ele><time>2026-04-30T07:42:07Z</time></trkpt><trkpt lat="42.92319135306909" lon="-1.9958603133133666"><ele>468.0</ele><time>2026-04-30T07:42:08Z</time></trkpt><trkpt lat="42.923208996060545" lon="-1.9960036954628009"><ele>468.0</ele><time>2026-04-30T07:42:09Z</time></trkpt><trkpt lat="42.923228849142845" lon="-1.9961402027116948"><ele>467.99999999999994</ele><time>2026-04-30T07:42:10Z</time></trkpt><trkpt lat="42.92324924974269" lon="-1.9962772317032396"><ele>467.99999999999994</ele><time>2026-04-30T07:42:11Z</time></trkpt><trkpt lat="42.92326743472337" lon="-1.996422552473268"><ele>468.0</ele><time>2026-04-30T07:42:12Z</time></trkpt><trkpt lat="42.92328882357452" lon="-1.996556949686926"><ele>468.0</ele><time>2026-04-30T07:42:13Z</time></trkpt><trkpt lat="42.92330987722981" lon="-1.9966942035417412"><ele>468.0</ele><time>2026-04-30T07:42:14Z</time></trkpt><trkpt lat="42.923327582491446" lon="-1.9968359529289237"><ele>467.99999999999994</ele><time>2026-04-30T07:42:15Z</time></trkpt><trkpt lat="42.9233467386043" lon="-1.99697165646087"><ele>467.99999999999994</ele><time>2026-04-30T07:42:16Z</time></trkpt><trkpt lat="42.92336792375276" lon="-1.9971104187634077"><ele>468.0</ele><time>2026-04-30T07:42:17Z</time></trkpt><trkpt lat="42.92339134794705" lon="-1.9972419100658652"><ele>468.0</ele><time>2026-04-30T07:42:18Z</time></trkpt><trkpt lat="42.92340824961575" lon="-1.9973825782816712"><ele>468.0</ele><time>2026-04-30T07:42:19Z</time></trkpt><trkpt lat="42.92343181553203" lon="-1.997519368386769"><ele>467.99999999999994</ele><time>2026-04-30T07:42:20Z</time></trkpt><trkpt lat="42.923447565592554" lon="-1.997658166279994"><ele>467.99999999999994</ele><time>2026-04-30T07:42:21Z</time></trkpt><trkpt lat="42.92346939285967" lon="-1.9977986120523823"><ele>468.0</ele><time>2026-04-30T07:42:22Z</time></trkpt><trkpt lat="42.92349102223449" lon="-1.9979366029324146"><ele>468.0</ele><time>2026-04-30T07:42:23Z</time></trkpt><trkpt lat="42.92351212851075" lon="-1.998067832769818"><ele>468.0</ele><time>2026-04-30T07:42:24Z</time></trkpt><trkpt lat="42.9235358973636" lon="-1.9982029728271438"><ele>467.99999999999994</ele><time>2026-04-30T07:42:25Z</time></trkpt><trkpt lat="42.923562274769935" lon="-1.9983394237000098"><ele>467.99999999999994</ele><time>2026-04-30T07:42:26Z</time></trkpt><trkpt lat="42.92358922829958" lon="-1.9984773765445627"><ele>468.0</ele><time>2026-04-30T07:42:27Z</time></trkpt><trkpt lat="42.92361902135785" lon="-1.9986110409947804"><ele>468.0</ele><time>2026-04-30T07:42:28Z</time></trkpt><trkpt lat="42.923643704995264" lon="-1.998747809732899"><ele>468.2</ele><time>2026-04-30T07:42:29Z</time></trkpt><trkpt lat="42.92367386006782" lon="-1.9988825289680976"><ele>468.4</ele><time>2026-04-30T07:42:30Z</time></trkpt><trkpt lat="42.9237060952833" lon="-1.9990146897877172"><ele>468.59999999999997</ele><time>2026-04-30T07:42:31Z</time></trkpt><trkpt lat="42.923736595269574" lon="-1.9991437083348467"><ele>468.79999999999995</ele><time>2026-04-30T07:42:32Z</time></trkpt><trkpt lat="42.92376663882387" lon="-1.999280060546592"><ele>469.0</ele><time>2026-04-30T07:42:33Z</time></trkpt><trkpt lat="42.92380097994384" lon="-1.9994214067783305"><ele>468.6</ele><time>2026-04-30T07:42:34Z</time></trkpt><trkpt lat="42.923831750818756" lon="-1.9995574260501683"><ele>468.2</ele><time>2026-04-30T07:42:35Z</time></trkpt><trkpt lat="42.923862804482624" lon="-1.9996991226552199"><ele>467.80000000000007</ele><time>2026-04-30T07:42:36Z</time></trkpt><trkpt lat="42.923892830076795" lon="-1.9998335421518059"><ele>467.40000000000003</ele><time>2026-04-30T07:42:37Z</time></trkpt><trkpt lat="42.92392784664168" lon="-1.9999656072133818"><ele>467.0</ele><time>2026-04-30T07:42:38Z</time></trkpt><trkpt lat="42.92396211815067" lon="-2.0000974118327846"><ele>467.0</ele><time>2026-04-30T07:42:39Z</time></trkpt><trkpt lat="42.92399728298265" lon="-2.000230666093294"><ele>467.00000000000006</ele><time>2026-04-30T07:42:40Z</time></trkpt><trkpt lat="42.92403398005225" lon="-2.0003599577174787"><ele>467.00000000000006</ele><time>2026-04-30T07:42:41Z</time></trkpt><trkpt lat="42.92406773183638" lon="-2.0004858093750784"><ele>467.0</ele><time>2026-04-30T07:42:42Z</time></trkpt><trkpt lat="42.924105528895076" lon="-2.0006170460232195"><ele>467.0</ele><time>2026-04-30T07:42:43Z</time></trkpt><trkpt lat="42.92414457988941" lon="-2.0007475523955995"><ele>467.20000000000005</ele><time>2026-04-30T07:42:44.001Z</time></trkpt><trkpt lat="42.92418618341125" lon="-2.000879183657534"><ele>467.40000000000003</ele><time>2026-04-30T07:42:45.001Z</time></trkpt><trkpt lat="42.9242182273664" lon="-2.0010155697368126"><ele>467.59999999999997</ele><time>2026-04-30T07:42:46.001Z</time></trkpt><trkpt lat="42.92424383349226" lon="-2.0011493524447523"><ele>467.79999999999995</ele><time>2026-04-30T07:42:47.001Z</time></trkpt><trkpt lat="42.9242616859307" lon="-2.001286363369798"><ele>468.0</ele><time>2026-04-30T07:42:48.001Z</time></trkpt><trkpt lat="42.92427333604961" lon="-2.001423901890855"><ele>468.0</ele><time>2026-04-30T07:42:49.001Z</time></trkpt><trkpt lat="42.92426858682213" lon="-2.001560456542347"><ele>467.99999999999994</ele><time>2026-04-30T07:42:50.001Z</time></trkpt><trkpt lat="42.92425269349982" lon="-2.0016948041851945"><ele>467.99999999999994</ele><time>2026-04-30T07:42:51.001Z</time></trkpt><trkpt lat="42.92422640395564" lon="-2.0018266232663495"><ele>468.0</ele><time>2026-04-30T07:42:52.001Z</time></trkpt><trkpt lat="42.92418982677201" lon="-2.0019566441157006"><ele>468.0</ele><time>2026-04-30T07:42:53.001Z</time></trkpt><trkpt lat="42.92414351495173" lon="-2.0020798260177157"><ele>468.0</ele><time>2026-04-30T07:42:54.001Z</time></trkpt><trkpt lat="42.92408581117844" lon="-2.0021939822538126"><ele>467.99999999999994</ele><time>2026-04-30T07:42:55.001Z</time></trkpt><trkpt lat="42.92402010068649" lon="-2.0023023681925554"><ele>467.99999999999994</ele><time>2026-04-30T07:42:56.001Z</time></trkpt><trkpt lat="42.92394633289488" lon="-2.0023940236605013"><ele>468.0</ele><time>2026-04-30T07:42:57.001Z</time></trkpt><trkpt lat="42.923858859918404" lon="-2.002481232628999"><ele>468.0</ele><time>2026-04-30T07:42:58.001Z</time></trkpt><trkpt lat="42.92376454733712" lon="-2.002561091229187"><ele>468.0</ele><time>2026-04-30T07:42:59.001Z</time></trkpt><trkpt lat="42.923673822658806" lon="-2.0026431865963175"><ele>467.99999999999994</ele><time>2026-04-30T07:43:00.001Z</time></trkpt><trkpt lat="42.92358435406754" lon="-2.0027202386959746"><ele>467.99999999999994</ele><time>2026-04-30T07:43:01.001Z</time></trkpt><trkpt lat="42.923496671882695" lon="-2.002797284674935"><ele>468.0</ele><time>2026-04-30T07:43:02.001Z</time></trkpt><trkpt lat="42.92341670261322" lon="-2.0028818017842576"><ele>468.0</ele><time>2026-04-30T07:43:03.001Z</time></trkpt><trkpt lat="42.92333698140553" lon="-2.0029705647009024"><ele>468.2</ele><time>2026-04-30T07:43:04.001Z</time></trkpt><trkpt lat="42.92326807062291" lon="-2.0030793471304604"><ele>468.4</ele><time>2026-04-30T07:43:05.001Z</time></trkpt><trkpt lat="42.92320396692407" lon="-2.0031908954814956"><ele>468.59999999999997</ele><time>2026-04-30T07:43:06.001Z</time></trkpt><trkpt lat="42.923152529228624" lon="-2.0033251035839603"><ele>468.79999999999995</ele><time>2026-04-30T07:43:07.001Z</time></trkpt><trkpt lat="42.92311085270835" lon="-2.0034527146366057"><ele>469.0</ele><time>2026-04-30T07:43:08.001Z</time></trkpt><trkpt lat="42.92307781693032" lon="-2.003587996901319"><ele>469.0</ele><time>2026-04-30T07:43:09.001Z</time></trkpt><trkpt lat="42.923047940559485" lon="-2.0037251523084523"><ele>469.0</ele><time>2026-04-30T07:43:10.001Z</time></trkpt><trkpt lat="42.923022783404214" lon="-2.003864302057621"><ele>469.0</ele><time>2026-04-30T07:43:11.001Z</time></trkpt><trkpt lat="42.92299460529681" lon="-2.004007665216327"><ele>469.0</ele><time>2026-04-30T07:43:12.001Z</time></trkpt><trkpt lat="42.9229710445185" lon="-2.0041473183774756"><ele>469.0</ele><time>2026-04-30T07:43:13.001Z</time></trkpt><trkpt lat="42.9229493439782" lon="-2.0042908316601973"><ele>469.0</ele><time>2026-04-30T07:43:14.001Z</time></trkpt><trkpt lat="42.9229255838408" lon="-2.004436271281627"><ele>469.0</ele><time>2026-04-30T07:43:15.001Z</time></trkpt><trkpt lat="42.92290424903072" lon="-2.0045782389674978"><ele>469.0</ele><time>2026-04-30T07:43:16.001Z</time></trkpt><trkpt lat="42.922881034830546" lon="-2.00471575965753"><ele>469.0</ele><time>2026-04-30T07:43:17.001Z</time></trkpt><trkpt lat="42.92285959913417" lon="-2.0048557171340726"><ele>469.0</ele><time>2026-04-30T07:43:18.001Z</time></trkpt><trkpt lat="42.92283957905582" lon="-2.0050003214448093"><ele>468.6</ele><time>2026-04-30T07:43:19.001Z</time></trkpt><trkpt lat="42.92281225352736" lon="-2.005147367307951"><ele>468.2</ele><time>2026-04-30T07:43:20.001Z</time></trkpt><trkpt lat="42.922801948744606" lon="-2.005286629163532"><ele>467.80000000000007</ele><time>2026-04-30T07:43:21.001Z</time></trkpt><trkpt lat="42.922783561318184" lon="-2.00542666248078"><ele>467.40000000000003</ele><time>2026-04-30T07:43:22Z</time></trkpt><trkpt lat="42.92276738897065" lon="-2.0055670281375897"><ele>467.0</ele><time>2026-04-30T07:43:23Z</time></trkpt><trkpt lat="42.922754547435545" lon="-2.005699335013694"><ele>467.20000000000005</ele><time>2026-04-30T07:43:24Z</time></trkpt><trkpt lat="42.92274253265925" lon="-2.0058337854163146"><ele>467.40000000000003</ele><time>2026-04-30T07:43:25Z</time></trkpt><trkpt lat="42.92273227629591" lon="-2.0059663745750425"><ele>467.59999999999997</ele><time>2026-04-30T07:43:26Z</time></trkpt><trkpt lat="42.922729680660275" lon="-2.006106071271019"><ele>467.79999999999995</ele><time>2026-04-30T07:43:27Z</time></trkpt><trkpt lat="42.92272296581058" lon="-2.0062388787006094"><ele>468.0</ele><time>2026-04-30T07:43:28Z</time></trkpt><trkpt lat="42.92271879206544" lon="-2.0063746309014383"><ele>468.0</ele><time>2026-04-30T07:43:29Z</time></trkpt><trkpt lat="42.92271349370778" lon="-2.0065110153223205"><ele>467.99999999999994</ele><time>2026-04-30T07:43:30Z</time></trkpt><trkpt lat="42.92271106599054" lon="-2.006650247541279"><ele>467.99999999999994</ele><time>2026-04-30T07:43:31Z</time></trkpt><trkpt lat="42.92271059135355" lon="-2.006793380295782"><ele>468.0</ele><time>2026-04-30T07:43:32Z</time></trkpt><trkpt lat="42.9227094322413" lon="-2.006936840147287"><ele>468.0</ele><time>2026-04-30T07:43:33Z</time></trkpt><trkpt lat="42.922709626754575" lon="-2.0070737093303332"><ele>468.0</ele><time>2026-04-30T07:43:34Z</time></trkpt><trkpt lat="42.92270984785094" lon="-2.0072158876734014"><ele>467.99999999999994</ele><time>2026-04-30T07:43:35Z</time></trkpt><trkpt lat="42.922711326045594" lon="-2.007362482498006"><ele>467.99999999999994</ele><time>2026-04-30T07:43:36Z</time></trkpt><trkpt lat="42.9227130132023" lon="-2.007507912338575"><ele>468.0</ele><time>2026-04-30T07:43:37Z</time></trkpt><trkpt lat="42.922710867622065" lon="-2.0076522532404097"><ele>468.0</ele><time>2026-04-30T07:43:38Z</time></trkpt><trkpt lat="42.92271022583784" lon="-2.0077965579942187"><ele>468.0</ele><time>2026-04-30T07:43:39Z</time></trkpt><trkpt lat="42.922712005434605" lon="-2.0079387626438403"><ele>467.99999999999994</ele><time>2026-04-30T07:43:40Z</time></trkpt><trkpt lat="42.92271484462558" lon="-2.0080808743889453"><ele>467.99999999999994</ele><time>2026-04-30T07:43:41Z</time></trkpt><trkpt lat="42.92271345396475" lon="-2.008224010457983"><ele>468.0</ele><time>2026-04-30T07:43:42Z</time></trkpt><trkpt lat="42.92271308213285" lon="-2.0083627942981614"><ele>468.0</ele><time>2026-04-30T07:43:43Z</time></trkpt><trkpt lat="42.92271042766285" lon="-2.0085040254434308"><ele>468.0</ele><time>2026-04-30T07:43:44Z</time></trkpt><trkpt lat="42.92270352647488" lon="-2.0086461005250893"><ele>467.99999999999994</ele><time>2026-04-30T07:43:45Z</time></trkpt><trkpt lat="42.92270208282938" lon="-2.0087952644926355"><ele>467.99999999999994</ele><time>2026-04-30T07:43:46Z</time></trkpt><trkpt lat="42.922702972048135" lon="-2.008943760608831"><ele>468.0</ele><time>2026-04-30T07:43:47Z</time></trkpt><trkpt lat="42.9227044088995" lon="-2.0090941926994454"><ele>468.0</ele><time>2026-04-30T07:43:48Z</time></trkpt><trkpt lat="42.922706013764966" lon="-2.0092467425990193"><ele>468.2</ele><time>2026-04-30T07:43:49Z</time></trkpt><trkpt lat="42.922707021255185" lon="-2.0093946542079495"><ele>468.4</ele><time>2026-04-30T07:43:50Z</time></trkpt><trkpt lat="42.922708724048675" lon="-2.0095401494535596"><ele>468.59999999999997</ele><time>2026-04-30T07:43:51Z</time></trkpt><trkpt lat="42.92270910349847" lon="-2.0096826793162346"><ele>468.79999999999995</ele><time>2026-04-30T07:43:52Z</time></trkpt><trkpt lat="42.9227065028009" lon="-2.009833622060154"><ele>469.0</ele><time>2026-04-30T07:43:53Z</time></trkpt><trkpt lat="42.9227009813533" lon="-2.0099832796716504"><ele>469.4</ele><time>2026-04-30T07:43:54Z</time></trkpt><trkpt lat="42.92269370537971" lon="-2.0101296403085556"><ele>469.79999999999995</ele><time>2026-04-30T07:43:55Z</time></trkpt><trkpt lat="42.922681648060326" lon="-2.0102844685593326"><ele>470.20000000000005</ele><time>2026-04-30T07:43:56Z</time></trkpt><trkpt lat="42.92267587077543" lon="-2.0104231240732573"><ele>470.6</ele><time>2026-04-30T07:43:57Z</time></trkpt><trkpt lat="42.92267271356092" lon="-2.010558588341877"><ele>471.0</ele><time>2026-04-30T07:43:58Z</time></trkpt><trkpt lat="42.92267729919188" lon="-2.0106918651948837"><ele>471.0</ele><time>2026-04-30T07:43:59Z</time></trkpt><trkpt lat="42.92265560439801" lon="-2.0108184384253933"><ele>471.0</ele><time>2026-04-30T07:44:00Z</time></trkpt><trkpt lat="42.922640922808554" lon="-2.010953271699423"><ele>471.0</ele><time>2026-04-30T07:44:01Z</time></trkpt><trkpt lat="42.92262542484959" lon="-2.011095602314177"><ele>471.0</ele><time>2026-04-30T07:44:02Z</time></trkpt><trkpt lat="42.92260895032625" lon="-2.011246901470883"><ele>471.0</ele><time>2026-04-30T07:44:03Z</time></trkpt><trkpt lat="42.92258992181288" lon="-2.0114216560746807"><ele>471.0</ele><time>2026-04-30T07:44:04Z</time></trkpt><trkpt lat="42.92257229619257" lon="-2.0115835266515307"><ele>471.0</ele><time>2026-04-30T07:44:05Z</time></trkpt><trkpt lat="42.92257074252807" lon="-2.0117334597562446"><ele>471.0</ele><time>2026-04-30T07:44:06Z</time></trkpt><trkpt lat="42.92255058733871" lon="-2.011878325413549"><ele>471.0</ele><time>2026-04-30T07:44:07Z</time></trkpt><trkpt lat="42.92253227703599" lon="-2.01202394622224"><ele>471.0</ele><time>2026-04-30T07:44:08Z</time></trkpt><trkpt lat="42.92251237603605" lon="-2.0121715837304515"><ele>471.4</ele><time>2026-04-30T07:44:09Z</time></trkpt><trkpt lat="42.922497647590774" lon="-2.0123183761170527"><ele>471.8</ele><time>2026-04-30T07:44:10Z</time></trkpt><trkpt lat="42.922483185168645" lon="-2.0124667469810755"><ele>472.19999999999993</ele><time>2026-04-30T07:44:11Z</time></trkpt><trkpt lat="42.92246728123558" lon="-2.0126164459541416"><ele>472.59999999999997</ele><time>2026-04-30T07:44:12Z</time></trkpt><trkpt lat="42.92245378645911" lon="-2.0127696100211914"><ele>473.0</ele><time>2026-04-30T07:44:13Z</time></trkpt><trkpt lat="42.92243663806617" lon="-2.0129251190828037"><ele>473.0</ele><time>2026-04-30T07:44:14Z</time></trkpt><trkpt lat="42.92242034856097" lon="-2.013076304284143"><ele>472.99999999999994</ele><time>2026-04-30T07:44:15Z</time></trkpt><trkpt lat="42.92240253249027" lon="-2.013221807953682"><ele>472.99999999999994</ele><time>2026-04-30T07:44:16Z</time></trkpt><trkpt lat="42.922395982653875" lon="-2.013370910172342"><ele>473.0</ele><time>2026-04-30T07:44:17Z</time></trkpt><trkpt lat="42.92238937766208" lon="-2.013518759529218"><ele>473.0</ele><time>2026-04-30T07:44:18Z</time></trkpt><trkpt lat="42.92238424233862" lon="-2.013663967055481"><ele>473.0</ele><time>2026-04-30T07:44:19Z</time></trkpt><trkpt lat="42.92238577961524" lon="-2.013806379895977"><ele>472.99999999999994</ele><time>2026-04-30T07:44:20Z</time></trkpt><trkpt lat="42.922383225131625" lon="-2.013943903484812"><ele>472.99999999999994</ele><time>2026-04-30T07:44:21Z</time></trkpt><trkpt lat="42.92237057858037" lon="-2.01408172291954"><ele>473.0</ele><time>2026-04-30T07:44:22Z</time></trkpt><trkpt lat="42.922366562164044" lon="-2.014231954210277"><ele>473.0</ele><time>2026-04-30T07:44:23Z</time></trkpt><trkpt lat="42.92236343627206" lon="-2.01438161291777"><ele>472.79999999999995</ele><time>2026-04-30T07:44:24Z</time></trkpt><trkpt lat="42.9223627005114" lon="-2.014529233493525"><ele>472.59999999999997</ele><time>2026-04-30T07:44:25Z</time></trkpt><trkpt lat="42.922363327158614" lon="-2.0146787463826654"><ele>472.40000000000003</ele><time>2026-04-30T07:44:26Z</time></trkpt><trkpt lat="42.92236399922152" lon="-2.0148220259184733"><ele>472.20000000000005</ele><time>2026-04-30T07:44:27Z</time></trkpt><trkpt lat="42.922362846859855" lon="-2.014963401661771"><ele>472.0</ele><time>2026-04-30T07:44:28Z</time></trkpt><trkpt lat="42.9223614437933" lon="-2.01511081560739"><ele>472.40000000000003</ele><time>2026-04-30T07:44:29Z</time></trkpt><trkpt lat="42.92235850804536" lon="-2.0152588551174273"><ele>472.80000000000007</ele><time>2026-04-30T07:44:30Z</time></trkpt><trkpt lat="42.92235327177597" lon="-2.01540294779155"><ele>473.2</ele><time>2026-04-30T07:44:31Z</time></trkpt><trkpt lat="42.92234734191183" lon="-2.0155470893458687"><ele>473.6</ele><time>2026-04-30T07:44:32Z</time></trkpt><trkpt lat="42.92234509419298" lon="-2.015685210322951"><ele>474.0</ele><time>2026-04-30T07:44:33Z</time></trkpt><trkpt lat="42.92234209670136" lon="-2.0158271858250236"><ele>474.0</ele><time>2026-04-30T07:44:34Z</time></trkpt><trkpt lat="42.92233773136689" lon="-2.015969250465658"><ele>474.0</ele><time>2026-04-30T07:44:35Z</time></trkpt><trkpt lat="42.922330296759775" lon="-2.01610980457827"><ele>474.0</ele><time>2026-04-30T07:44:36Z</time></trkpt><trkpt lat="42.92231964425001" lon="-2.0162490979419516"><ele>474.0</ele><time>2026-04-30T07:44:37Z</time></trkpt><trkpt lat="42.922308945972006" lon="-2.016385431519367"><ele>474.0</ele><time>2026-04-30T07:44:38Z</time></trkpt><trkpt lat="42.922300353998615" lon="-2.0165237091000097"><ele>474.4</ele><time>2026-04-30T07:44:39Z</time></trkpt><trkpt lat="42.92228562351203" lon="-2.0166563850970367"><ele>474.79999999999995</ele><time>2026-04-30T07:44:40Z</time></trkpt><trkpt lat="42.92226984810439" lon="-2.0168001843169225"><ele>475.20000000000005</ele><time>2026-04-30T07:44:41Z</time></trkpt><trkpt lat="42.92224884079463" lon="-2.0169373180598678"><ele>475.6</ele><time>2026-04-30T07:44:42Z</time></trkpt><trkpt lat="42.92222810929736" lon="-2.017077049346405"><ele>476.0</ele><time>2026-04-30T07:44:43.001Z</time></trkpt><trkpt lat="42.922204851131866" lon="-2.017209376359719"><ele>476.0</ele><time>2026-04-30T07:44:44.001Z</time></trkpt><trkpt lat="42.92217845426579" lon="-2.0173412297791646"><ele>476.0</ele><time>2026-04-30T07:44:45.001Z</time></trkpt><trkpt lat="42.9221515751408" lon="-2.017473705078372"><ele>476.0</ele><time>2026-04-30T07:44:46.001Z</time></trkpt><trkpt lat="42.92212342496155" lon="-2.017608082588561"><ele>476.0</ele><time>2026-04-30T07:44:47.001Z</time></trkpt><trkpt lat="42.92209367936243" lon="-2.0177424053566595"><ele>476.0</ele><time>2026-04-30T07:44:48.001Z</time></trkpt><trkpt lat="42.92206916402669" lon="-2.0178698083419606"><ele>476.6</ele><time>2026-04-30T07:44:49.001Z</time></trkpt><trkpt lat="42.92203490016974" lon="-2.0179986758901896"><ele>477.20000000000005</ele><time>2026-04-30T07:44:50.001Z</time></trkpt><trkpt lat="42.92200419607802" lon="-2.0181259646365026"><ele>477.79999999999995</ele><time>2026-04-30T07:44:51.001Z</time></trkpt><trkpt lat="42.921964679074144" lon="-2.018247781627684"><ele>478.4</ele><time>2026-04-30T07:44:52.001Z</time></trkpt><trkpt lat="42.92192486198781" lon="-2.018376525261193"><ele>479.0</ele><time>2026-04-30T07:44:53.001Z</time></trkpt><trkpt lat="42.921886985745196" lon="-2.018506131780253"><ele>479.4</ele><time>2026-04-30T07:44:54.001Z</time></trkpt><trkpt lat="42.921847260174026" lon="-2.018629968571678"><ele>479.79999999999995</ele><time>2026-04-30T07:44:55.001Z</time></trkpt><trkpt lat="42.92180834685924" lon="-2.018753056417815"><ele>480.20000000000005</ele><time>2026-04-30T07:44:56.001Z</time></trkpt><trkpt lat="42.9217678340916" lon="-2.0188785782173215"><ele>480.6</ele><time>2026-04-30T07:44:57.001Z</time></trkpt><trkpt lat="42.921723754868694" lon="-2.0190006971906387"><ele>481.0</ele><time>2026-04-30T07:44:58.001Z</time></trkpt><trkpt lat="42.92167684820822" lon="-2.019126726941016"><ele>481.6</ele><time>2026-04-30T07:44:59.001Z</time></trkpt><trkpt lat="42.92163494987002" lon="-2.0192456224885307"><ele>482.20000000000005</ele><time>2026-04-30T07:45:00.001Z</time></trkpt><trkpt lat="42.921591395618016" lon="-2.0193672171090196"><ele>482.79999999999995</ele><time>2026-04-30T07:45:01.001Z</time></trkpt><trkpt lat="42.921542121118065" lon="-2.019494069643717"><ele>483.4</ele><time>2026-04-30T07:45:02.001Z</time></trkpt><trkpt lat="42.92149778924999" lon="-2.019615798809437"><ele>484.0</ele><time>2026-04-30T07:45:03.001Z</time></trkpt><trkpt lat="42.92145212843474" lon="-2.0197384266336025"><ele>484.0</ele><time>2026-04-30T07:45:04.001Z</time></trkpt><trkpt lat="42.92141100407426" lon="-2.0198569778436446"><ele>484.0</ele><time>2026-04-30T07:45:05.001Z</time></trkpt><trkpt lat="42.92136586841841" lon="-2.0199812486133863"><ele>484.0</ele><time>2026-04-30T07:45:06.001Z</time></trkpt><trkpt lat="42.921321110372716" lon="-2.020103019188282"><ele>484.0</ele><time>2026-04-30T07:45:07.001Z</time></trkpt><trkpt lat="42.92127681256688" lon="-2.020221240739039"><ele>484.0</ele><time>2026-04-30T07:45:08.001Z</time></trkpt><trkpt lat="42.92123722574459" lon="-2.020335263873621"><ele>484.00000000000006</ele><time>2026-04-30T07:45:09.001Z</time></trkpt><trkpt lat="42.92120063519317" lon="-2.020448356058362"><ele>484.0</ele><time>2026-04-30T07:45:10.001Z</time></trkpt><trkpt lat="42.92116504990786" lon="-2.020561137186446"><ele>484.0</ele><time>2026-04-30T07:45:11.001Z</time></trkpt><trkpt lat="42.921126923407975" lon="-2.020676194401067"><ele>484.0</ele><time>2026-04-30T07:45:12.001Z</time></trkpt><trkpt lat="42.921091388025225" lon="-2.0207833867297165"><ele>484.00000000000006</ele><time>2026-04-30T07:45:13.001Z</time></trkpt><trkpt lat="42.921056672269316" lon="-2.020891775409254"><ele>484.0</ele><time>2026-04-30T07:45:14.001Z</time></trkpt><trkpt lat="42.9210216071074" lon="-2.0210018293731453"><ele>484.33333333333337</ele><time>2026-04-30T07:45:15.001Z</time></trkpt><trkpt lat="42.92099058089536" lon="-2.021112370469732"><ele>484.6666666666667</ele><time>2026-04-30T07:45:16.001Z</time></trkpt><trkpt lat="42.920960634423274" lon="-2.021222289147315"><ele>485.0</ele><time>2026-04-30T07:45:17.001Z</time></trkpt><trkpt lat="42.92093028882334" lon="-2.021331324408414"><ele>485.33333333333337</ele><time>2026-04-30T07:45:18.001Z</time></trkpt><trkpt lat="42.92090136600827" lon="-2.0214511838620797"><ele>485.6666666666667</ele><time>2026-04-30T07:45:19.001Z</time></trkpt><trkpt lat="42.92087203896087" lon="-2.021571836417322"><ele>486.0</ele><time>2026-04-30T07:45:20.001Z</time></trkpt><trkpt lat="42.920848331385976" lon="-2.0216884321685202"><ele>487.6</ele><time>2026-04-30T07:45:21.001Z</time></trkpt><trkpt lat="42.920824656871154" lon="-2.02180863969203"><ele>489.20000000000005</ele><time>2026-04-30T07:45:22.001Z</time></trkpt><trkpt lat="42.92080233826541" lon="-2.0219280603547274"><ele>490.79999999999995</ele><time>2026-04-30T07:45:23.001Z</time></trkpt><trkpt lat="42.92077775769775" lon="-2.022056920205086"><ele>492.4</ele><time>2026-04-30T07:45:24.001Z</time></trkpt><trkpt lat="42.92075214413449" lon="-2.0221786855608705"><ele>494.0</ele><time>2026-04-30T07:45:25.001Z</time></trkpt><trkpt lat="42.92072815091229" lon="-2.0223063709814695"><ele>494.0</ele><time>2026-04-30T07:45:26.001Z</time></trkpt><trkpt lat="42.92070567030731" lon="-2.0224391679559774"><ele>494.0</ele><time>2026-04-30T07:45:27.001Z</time></trkpt><trkpt lat="42.9206838489668" lon="-2.0225695106140122"><ele>494.0</ele><time>2026-04-30T07:45:28Z</time></trkpt><trkpt lat="42.920661612410136" lon="-2.0227002747604548"><ele>494.0</ele><time>2026-04-30T07:45:29Z</time></trkpt><trkpt lat="42.92064173056527" lon="-2.022830837052397"><ele>494.0</ele><time>2026-04-30T07:45:30Z</time></trkpt><trkpt lat="42.92062368984471" lon="-2.022964742517842"><ele>494.0</ele><time>2026-04-30T07:45:31Z</time></trkpt><trkpt lat="42.920607261559674" lon="-2.0231019059194315"><ele>494.0</ele><time>2026-04-30T07:45:32Z</time></trkpt><trkpt lat="42.9205917867653" lon="-2.023238457743429"><ele>494.0</ele><time>2026-04-30T07:45:33Z</time></trkpt><trkpt lat="42.9205791729777" lon="-2.023373069617159"><ele>494.0</ele><time>2026-04-30T07:45:34Z</time></trkpt><trkpt lat="42.92056505193375" lon="-2.0235138455533783"><ele>494.0</ele><time>2026-04-30T07:45:35Z</time></trkpt><trkpt lat="42.92055516807388" lon="-2.0236556092504685"><ele>494.0</ele><time>2026-04-30T07:45:36Z</time></trkpt><trkpt lat="42.92054282739328" lon="-2.0238017528473344"><ele>494.0</ele><time>2026-04-30T07:45:37Z</time></trkpt><trkpt lat="42.92053143979414" lon="-2.02394441920995"><ele>494.0</ele><time>2026-04-30T07:45:38Z</time></trkpt><trkpt lat="42.92052647600534" lon="-2.024087585479099"><ele>494.0</ele><time>2026-04-30T07:45:39Z</time></trkpt><trkpt lat="42.92052107525784" lon="-2.0242371773934287"><ele>494.0</ele><time>2026-04-30T07:45:40Z</time></trkpt><trkpt lat="42.920513686666354" lon="-2.024385116444494"><ele>494.0</ele><time>2026-04-30T07:45:41Z</time></trkpt><trkpt lat="42.92051037452978" lon="-2.024533990087712"><ele>494.0</ele><time>2026-04-30T07:45:42Z</time></trkpt><trkpt lat="42.9205039296519" lon="-2.024679894903596"><ele>494.0</ele><time>2026-04-30T07:45:43Z</time></trkpt><trkpt lat="42.92049788422263" lon="-2.024832258011921"><ele>494.0</ele><time>2026-04-30T07:45:44Z</time></trkpt><trkpt lat="42.920494056886795" lon="-2.024985089424831"><ele>494.0</ele><time>2026-04-30T07:45:45Z</time></trkpt><trkpt lat="42.920496580350175" lon="-2.0251389784951415"><ele>492.5</ele><time>2026-04-30T07:45:46Z</time></trkpt><trkpt lat="42.9205001012856" lon="-2.0252937632190657"><ele>491.0</ele><time>2026-04-30T07:45:47Z</time></trkpt><trkpt lat="42.9205022981672" lon="-2.025448343053153"><ele>489.5</ele><time>2026-04-30T07:45:48Z</time></trkpt><trkpt lat="42.920504001261854" lon="-2.0256011348739893"><ele>488.0</ele><time>2026-04-30T07:45:49Z</time></trkpt><trkpt lat="42.920504371998774" lon="-2.0257562867572387"><ele>487.5</ele><time>2026-04-30T07:45:50Z</time></trkpt><trkpt lat="42.92050366654671" lon="-2.0259094645270816"><ele>487.0</ele><time>2026-04-30T07:45:51Z</time></trkpt><trkpt lat="42.92050625068478" lon="-2.026063550287321"><ele>486.5</ele><time>2026-04-30T07:45:52Z</time></trkpt><trkpt lat="42.920509082286635" lon="-2.0262181466268743"><ele>486.0</ele><time>2026-04-30T07:45:53Z</time></trkpt><trkpt lat="42.92051043877137" lon="-2.026370854633574"><ele>486.0</ele><time>2026-04-30T07:45:54Z</time></trkpt><trkpt lat="42.92051348367033" lon="-2.026525806449817"><ele>486.0</ele><time>2026-04-30T07:45:55Z</time></trkpt><trkpt lat="42.92052074570661" lon="-2.026686727818915"><ele>486.0</ele><time>2026-04-30T07:45:56Z</time></trkpt><trkpt lat="42.920519876037766" lon="-2.026843666380255"><ele>486.0</ele><time>2026-04-30T07:45:57Z</time></trkpt><trkpt lat="42.920523860360134" lon="-2.0270061077685777"><ele>485.75</ele><time>2026-04-30T07:45:58Z</time></trkpt><trkpt lat="42.92052091765739" lon="-2.0271599093187103"><ele>485.5</ele><time>2026-04-30T07:45:59Z</time></trkpt><trkpt lat="42.92051983779348" lon="-2.0273141889567303"><ele>485.25</ele><time>2026-04-30T07:46:00Z</time></trkpt><trkpt lat="42.920517694003394" lon="-2.02746744053169"><ele>485.0</ele><time>2026-04-30T07:46:01Z</time></trkpt><trkpt lat="42.92051581354764" lon="-2.027620474177491"><ele>485.0</ele><time>2026-04-30T07:46:02Z</time></trkpt><trkpt lat="42.92050766036178" lon="-2.027772204282874"><ele>485.0</ele><time>2026-04-30T07:46:03Z</time></trkpt><trkpt lat="42.920499098902035" lon="-2.027925673709787"><ele>485.0</ele><time>2026-04-30T07:46:04Z</time></trkpt><trkpt lat="42.92048696873326" lon="-2.028078310053216"><ele>485.0</ele><time>2026-04-30T07:46:05Z</time></trkpt><trkpt lat="42.920471901144325" lon="-2.0282304203556856"><ele>485.0</ele><time>2026-04-30T07:46:06Z</time></trkpt><trkpt lat="42.92045499802877" lon="-2.0283809154268924"><ele>484.8</ele><time>2026-04-30T07:46:07Z</time></trkpt><trkpt lat="42.920435125807685" lon="-2.0285300599555547"><ele>484.6</ele><time>2026-04-30T07:46:08Z</time></trkpt><trkpt lat="42.92041217807974" lon="-2.0286760638172123"><ele>484.4</ele><time>2026-04-30T07:46:09Z</time></trkpt><trkpt lat="42.92038519073742" lon="-2.028822182185413"><ele>484.2</ele><time>2026-04-30T07:46:10Z</time></trkpt><trkpt lat="42.920356155117915" lon="-2.0289660425566556"><ele>484.0</ele><time>2026-04-30T07:46:11Z</time></trkpt><trkpt lat="42.920325284281226" lon="-2.029106255564883"><ele>483.79999999999995</ele><time>2026-04-30T07:46:12Z</time></trkpt><trkpt lat="42.920291952517225" lon="-2.0292473436482856"><ele>483.59999999999997</ele><time>2026-04-30T07:46:13Z</time></trkpt><trkpt lat="42.92025371847055" lon="-2.029389646793642"><ele>483.4</ele><time>2026-04-30T07:46:14Z</time></trkpt><trkpt lat="42.92021383935891" lon="-2.0295295667834177"><ele>483.2</ele><time>2026-04-30T07:46:15Z</time></trkpt><trkpt lat="42.92017368594844" lon="-2.0296704724301056"><ele>483.0</ele><time>2026-04-30T07:46:16Z</time></trkpt><trkpt lat="42.92013430084014" lon="-2.029809220006863"><ele>483.0</ele><time>2026-04-30T07:46:17Z</time></trkpt><trkpt lat="42.920093157867335" lon="-2.029947631155191"><ele>482.99999999999994</ele><time>2026-04-30T07:46:18Z</time></trkpt><trkpt lat="42.92004894785262" lon="-2.0300866514747247"><ele>482.99999999999994</ele><time>2026-04-30T07:46:19Z</time></trkpt><trkpt lat="42.92000346828276" lon="-2.030221454332079"><ele>483.0</ele><time>2026-04-30T07:46:20Z</time></trkpt><trkpt lat="42.919956158612884" lon="-2.0303550864139424"><ele>483.0</ele><time>2026-04-30T07:46:21Z</time></trkpt><trkpt lat="42.91990896202713" lon="-2.030489758631005"><ele>483.4</ele><time>2026-04-30T07:46:22Z</time></trkpt><trkpt lat="42.91986218013008" lon="-2.030623206076974"><ele>483.79999999999995</ele><time>2026-04-30T07:46:23Z</time></trkpt><trkpt lat="42.91981676297837" lon="-2.0307563435655167"><ele>484.2</ele><time>2026-04-30T07:46:24Z</time></trkpt><trkpt lat="42.91976942094778" lon="-2.0308906203029267"><ele>484.6</ele><time>2026-04-30T07:46:25Z</time></trkpt><trkpt lat="42.91972157911788" lon="-2.0310166331452537"><ele>485.0</ele><time>2026-04-30T07:46:26Z</time></trkpt><trkpt lat="42.9196752999107" lon="-2.0311509409667114"><ele>485.0</ele><time>2026-04-30T07:46:27Z</time></trkpt><trkpt lat="42.91962492393201" lon="-2.0312856309044314"><ele>485.0</ele><time>2026-04-30T07:46:28Z</time></trkpt><trkpt lat="42.91957409457276" lon="-2.031414174375234"><ele>485.0</ele><time>2026-04-30T07:46:29Z</time></trkpt><trkpt lat="42.91952475620336" lon="-2.0315367537928495"><ele>485.0</ele><time>2026-04-30T07:46:30Z</time></trkpt><trkpt lat="42.91947288301912" lon="-2.0316650122227022"><ele>485.0</ele><time>2026-04-30T07:46:31Z</time></trkpt><trkpt lat="42.91942010198593" lon="-2.0318005192128363"><ele>485.4</ele><time>2026-04-30T07:46:32Z</time></trkpt><trkpt lat="42.91937023263885" lon="-2.0319273068637536"><ele>485.8</ele><time>2026-04-30T07:46:33Z</time></trkpt><trkpt lat="42.919319544436846" lon="-2.032059102955778"><ele>486.20000000000005</ele><time>2026-04-30T07:46:34Z</time></trkpt><trkpt lat="42.91926913956826" lon="-2.0321850939842796"><ele>486.6</ele><time>2026-04-30T07:46:35Z</time></trkpt><trkpt lat="42.91921624805422" lon="-2.032324817090853"><ele>487.0</ele><time>2026-04-30T07:46:36Z</time></trkpt><trkpt lat="42.919168492657455" lon="-2.0324657260870937"><ele>487.20000000000005</ele><time>2026-04-30T07:46:37.001Z</time></trkpt><trkpt lat="42.919119291450684" lon="-2.032585169108965"><ele>487.40000000000003</ele><time>2026-04-30T07:46:38.001Z</time></trkpt><trkpt lat="42.919066726812446" lon="-2.032697350812674"><ele>487.59999999999997</ele><time>2026-04-30T07:46:39.001Z</time></trkpt><trkpt lat="42.919023353429864" lon="-2.0328152413408698"><ele>487.79999999999995</ele><time>2026-04-30T07:46:40.001Z</time></trkpt><trkpt lat="42.91897802954221" lon="-2.0329504600981365"><ele>488.0</ele><time>2026-04-30T07:46:41.001Z</time></trkpt><trkpt lat="42.91893166566693" lon="-2.033088696610596"><ele>488.0</ele><time>2026-04-30T07:46:42.001Z</time></trkpt><trkpt lat="42.91888730537452" lon="-2.033224452286705"><ele>487.99999999999994</ele><time>2026-04-30T07:46:43.001Z</time></trkpt><trkpt lat="42.918839282977714" lon="-2.033355728124516"><ele>487.99999999999994</ele><time>2026-04-30T07:46:44.001Z</time></trkpt><trkpt lat="42.91878844762544" lon="-2.0334805788948707"><ele>488.0</ele><time>2026-04-30T07:46:45.001Z</time></trkpt><trkpt lat="42.9187413368312" lon="-2.033605904750771"><ele>488.0</ele><time>2026-04-30T07:46:46.001Z</time></trkpt><trkpt lat="42.91869506270485" lon="-2.0337253935769417"><ele>488.0</ele><time>2026-04-30T07:46:47.001Z</time></trkpt><trkpt lat="42.918648744857194" lon="-2.0338495675038546"><ele>487.99999999999994</ele><time>2026-04-30T07:46:48.001Z</time></trkpt><trkpt lat="42.91860197249176" lon="-2.033970870986799"><ele>487.99999999999994</ele><time>2026-04-30T07:46:49.001Z</time></trkpt><trkpt lat="42.91855590529425" lon="-2.0340898457964185"><ele>488.0</ele><time>2026-04-30T07:46:50.001Z</time></trkpt><trkpt lat="42.91850790942802" lon="-2.034208943327508"><ele>488.0</ele><time>2026-04-30T07:46:51.001Z</time></trkpt><trkpt lat="42.91845710556409" lon="-2.0343281126938932"><ele>488.4</ele><time>2026-04-30T07:46:52.001Z</time></trkpt><trkpt lat="42.91840496953523" lon="-2.0344444432631192"><ele>488.79999999999995</ele><time>2026-04-30T07:46:53.001Z</time></trkpt><trkpt lat="42.918348395466786" lon="-2.034557683898303"><ele>489.2</ele><time>2026-04-30T07:46:54.001Z</time></trkpt><trkpt lat="42.91828779115122" lon="-2.0346716693851965"><ele>489.6</ele><time>2026-04-30T07:46:55.001Z</time></trkpt><trkpt lat="42.91822775221868" lon="-2.0347954305117297"><ele>490.0</ele><time>2026-04-30T07:46:56.001Z</time></trkpt><trkpt lat="42.91816421360674" lon="-2.034931121954039"><ele>491.0</ele><time>2026-04-30T07:46:57.001Z</time></trkpt><trkpt lat="42.91809655820839" lon="-2.0350750700537756"><ele>492.0</ele><time>2026-04-30T07:46:58.001Z</time></trkpt><trkpt lat="42.918031415042016" lon="-2.035227452904221"><ele>493.0</ele><time>2026-04-30T07:46:59.001Z</time></trkpt><trkpt lat="42.91796403576694" lon="-2.035385569081586"><ele>494.0</ele><time>2026-04-30T07:47:00.001Z</time></trkpt><trkpt lat="42.91789279928884" lon="-2.035540149302584"><ele>493.99999999999994</ele><time>2026-04-30T07:47:01.001Z</time></trkpt><trkpt lat="42.9178283677825" lon="-2.0356581583943667"><ele>494.0</ele><time>2026-04-30T07:47:02.001Z</time></trkpt><trkpt lat="42.917770395217644" lon="-2.035761627487255"><ele>494.0</ele><time>2026-04-30T07:47:03.001Z</time></trkpt><trkpt lat="42.91770923800212" lon="-2.0358380339181656"><ele>494.0</ele><time>2026-04-30T07:47:04.001Z</time></trkpt><trkpt lat="42.91765476744878" lon="-2.035885560376219"><ele>493.99999999999994</ele><time>2026-04-30T07:47:05.001Z</time></trkpt><trkpt lat="42.917600495865464" lon="-2.03597685734813"><ele>494.0</ele><time>2026-04-30T07:47:06.001Z</time></trkpt><trkpt lat="42.917544165969254" lon="-2.036071036334838"><ele>493.49999999999994</ele><time>2026-04-30T07:47:07.001Z</time></trkpt><trkpt lat="42.917498562918645" lon="-2.0361537955228566"><ele>493.0</ele><time>2026-04-30T07:47:08.001Z</time></trkpt><trkpt lat="42.917450038439505" lon="-2.0362253718144605"><ele>492.5</ele><time>2026-04-30T07:47:09.001Z</time></trkpt><trkpt lat="42.91739978533312" lon="-2.03630137406533"><ele>492.0</ele><time>2026-04-30T07:47:10.001Z</time></trkpt><trkpt lat="42.9173449515846" lon="-2.036384920480681"><ele>491.49999999999994</ele><time>2026-04-30T07:47:11.001Z</time></trkpt><trkpt lat="42.917288301594375" lon="-2.0365157736228308"><ele>491.0</ele><time>2026-04-30T07:47:12.001Z</time></trkpt><trkpt lat="42.91722920857762" lon="-2.0366300971652445"><ele>490.8</ele><time>2026-04-30T07:47:13.001Z</time></trkpt><trkpt lat="42.91717333482177" lon="-2.0367411135470506"><ele>490.6</ele><time>2026-04-30T07:47:14.001Z</time></trkpt><trkpt lat="42.91711420445857" lon="-2.036852858083657"><ele>490.4</ele><time>2026-04-30T07:47:15.001Z</time></trkpt><trkpt lat="42.917053929781524" lon="-2.0369662343449466"><ele>490.2</ele><time>2026-04-30T07:47:16.001Z</time></trkpt><trkpt lat="42.91699403898455" lon="-2.037075121642123"><ele>490.0</ele><time>2026-04-30T07:47:17.001Z</time></trkpt><trkpt lat="42.91693148345886" lon="-2.037184973212436"><ele>490.0</ele><time>2026-04-30T07:47:18.001Z</time></trkpt><trkpt lat="42.91687185109359" lon="-2.0372909439537734"><ele>490.0</ele><time>2026-04-30T07:47:19.001Z</time></trkpt><trkpt lat="42.91681359481449" lon="-2.037395906397737"><ele>490.0</ele><time>2026-04-30T07:47:20.001Z</time></trkpt><trkpt lat="42.91675559040032" lon="-2.037502140260096"><ele>490.0</ele><time>2026-04-30T07:47:21.001Z</time></trkpt><trkpt lat="42.91669569260924" lon="-2.0376117209247004"><ele>490.0</ele><time>2026-04-30T07:47:22.001Z</time></trkpt><trkpt lat="42.91663487782272" lon="-2.0377157786438658"><ele>490.8</ele><time>2026-04-30T07:47:23.001Z</time></trkpt><trkpt lat="42.91657323836914" lon="-2.0378217727418853"><ele>491.6</ele><time>2026-04-30T07:47:24.001Z</time></trkpt><trkpt lat="42.916510151312494" lon="-2.037920890209179"><ele>492.4</ele><time>2026-04-30T07:47:25.001Z</time></trkpt><trkpt lat="42.91645162729574" lon="-2.0380259702025167"><ele>493.2</ele><time>2026-04-30T07:47:26.001Z</time></trkpt><trkpt lat="42.91639418100552" lon="-2.0381276563389155"><ele>494.0</ele><time>2026-04-30T07:47:27.001Z</time></trkpt><trkpt lat="42.916337599288426" lon="-2.0382417207774073"><ele>493.6</ele><time>2026-04-30T07:47:28.001Z</time></trkpt><trkpt lat="42.916279932643754" lon="-2.0383546293065"><ele>493.2</ele><time>2026-04-30T07:47:29.001Z</time></trkpt><trkpt lat="42.91622472995093" lon="-2.0384745520895353"><ele>492.80000000000007</ele><time>2026-04-30T07:47:30.001Z</time></trkpt><trkpt lat="42.91616703073496" lon="-2.038596061707125"><ele>492.40000000000003</ele><time>2026-04-30T07:47:31.001Z</time></trkpt><trkpt lat="42.91611399656021" lon="-2.0387064211084946"><ele>492.0</ele><time>2026-04-30T07:47:32.001Z</time></trkpt><trkpt lat="42.91606443601552" lon="-2.038843034817945"><ele>492.0</ele><time>2026-04-30T07:47:33.001Z</time></trkpt><trkpt lat="42.91602786105935" lon="-2.03898626200286"><ele>492.00000000000006</ele><time>2026-04-30T07:47:34Z</time></trkpt><trkpt lat="42.91599430998412" lon="-2.0391276233211793"><ele>492.00000000000006</ele><time>2026-04-30T07:47:35Z</time></trkpt><trkpt lat="42.915961720633504" lon="-2.039275825454743"><ele>492.0</ele><time>2026-04-30T07:47:36Z</time></trkpt><trkpt lat="42.91592737149355" lon="-2.039395771694583"><ele>492.0</ele><time>2026-04-30T07:47:37Z</time></trkpt><trkpt lat="42.91589226779561" lon="-2.039473992705516"><ele>492.1666666666667</ele><time>2026-04-30T07:47:38Z</time></trkpt><trkpt lat="42.91586103870233" lon="-2.039585218743351"><ele>492.33333333333337</ele><time>2026-04-30T07:47:39Z</time></trkpt><trkpt lat="42.91583605281567" lon="-2.039689999666253"><ele>492.5</ele><time>2026-04-30T07:47:40Z</time></trkpt><trkpt lat="42.915815540378" lon="-2.039792767726993"><ele>492.6666666666667</ele><time>2026-04-30T07:47:41Z</time></trkpt><trkpt lat="42.91579260717334" lon="-2.039901289797617"><ele>492.83333333333337</ele><time>2026-04-30T07:47:42Z</time></trkpt><trkpt lat="42.91577111158108" lon="-2.0400082209995603"><ele>493.0</ele><time>2026-04-30T07:47:43Z</time></trkpt><trkpt lat="42.91574800287698" lon="-2.040117666881121"><ele>493.00000000000006</ele><time>2026-04-30T07:47:44Z</time></trkpt><trkpt lat="42.9157220484362" lon="-2.0402297345835136"><ele>493.0</ele><time>2026-04-30T07:47:45Z</time></trkpt><trkpt lat="42.91568887346206" lon="-2.040338691462687"><ele>493.0</ele><time>2026-04-30T07:47:46Z</time></trkpt><trkpt lat="42.91565008819365" lon="-2.0404431093026796"><ele>493.0</ele><time>2026-04-30T07:47:47Z</time></trkpt><trkpt lat="42.91561125352371" lon="-2.0405462915576784"><ele>493.00000000000006</ele><time>2026-04-30T07:47:48Z</time></trkpt><trkpt lat="42.91556798239118" lon="-2.0406463720886543"><ele>493.0</ele><time>2026-04-30T07:47:49Z</time></trkpt><trkpt lat="42.915523064906274" lon="-2.0407484946677394"><ele>493.1666666666667</ele><time>2026-04-30T07:47:50Z</time></trkpt><trkpt lat="42.91547534201232" lon="-2.04084611515024"><ele>493.33333333333337</ele><time>2026-04-30T07:47:51Z</time></trkpt><trkpt lat="42.91542862145508" lon="-2.040934548051208"><ele>493.5</ele><time>2026-04-30T07:47:52Z</time></trkpt><trkpt lat="42.91538361959193" lon="-2.0410117398917524"><ele>493.66666666666663</ele><time>2026-04-30T07:47:53Z</time></trkpt><trkpt lat="42.91536364923595" lon="-2.0411041624393773"><ele>493.8333333333333</ele><time>2026-04-30T07:47:54Z</time></trkpt><trkpt lat="42.91530881889859" lon="-2.041208826154313"><ele>494.0</ele><time>2026-04-30T07:47:56Z</time></trkpt><trkpt lat="42.91542014357185" lon="-2.0413499570252958"><ele>493.99999999999994</ele><time>2026-04-30T07:47:57Z</time></trkpt><trkpt lat="42.91548126410426" lon="-2.0414015130170107"><ele>494.0</ele><time>2026-04-30T07:47:58Z</time></trkpt><trkpt lat="42.91555010387841" lon="-2.0414465763751877"><ele>494.0</ele><time>2026-04-30T07:47:59Z</time></trkpt><trkpt lat="42.91561417579209" lon="-2.0415000181710976"><ele>494.0</ele><time>2026-04-30T07:48:00Z</time></trkpt><trkpt lat="42.91568448283265" lon="-2.04155415638354"><ele>493.99999999999994</ele><time>2026-04-30T07:48:01Z</time></trkpt><trkpt lat="42.91575298760441" lon="-2.041613824573232"><ele>494.0</ele><time>2026-04-30T07:48:02Z</time></trkpt><trkpt lat="42.91581821521668" lon="-2.041687698267218"><ele>494.16666666666663</ele><time>2026-04-30T07:48:03Z</time></trkpt><trkpt lat="42.91587651669959" lon="-2.0417612324151886"><ele>494.3333333333333</ele><time>2026-04-30T07:48:04Z</time></trkpt><trkpt lat="42.915934800516254" lon="-2.0418449795786673"><ele>494.5</ele><time>2026-04-30T07:48:05Z</time></trkpt><trkpt lat="42.91598178290811" lon="-2.041951699677187"><ele>494.66666666666663</ele><time>2026-04-30T07:48:06Z</time></trkpt><trkpt lat="42.91601590882511" lon="-2.042073375700492"><ele>494.8333333333333</ele><time>2026-04-30T07:48:07Z</time></trkpt><trkpt lat="42.91603048233688" lon="-2.0421995666355404"><ele>495.0</ele><time>2026-04-30T07:48:08Z</time></trkpt><trkpt lat="42.91602689738582" lon="-2.0423192628051927"><ele>495.0</ele><time>2026-04-30T07:48:09Z</time></trkpt><trkpt lat="42.91600307877903" lon="-2.042449444522431"><ele>495.0</ele><time>2026-04-30T07:48:10Z</time></trkpt><trkpt lat="42.915969999106146" lon="-2.042564291236753"><ele>495.0</ele><time>2026-04-30T07:48:11Z</time></trkpt><trkpt lat="42.91593163347633" lon="-2.042683709742892"><ele>495.0</ele><time>2026-04-30T07:48:12Z</time></trkpt><trkpt lat="42.91589186300225" lon="-2.0427957015233305"><ele>495.0</ele><time>2026-04-30T07:48:13Z</time></trkpt><trkpt lat="42.91585093483404" lon="-2.0429022857402908"><ele>495.0</ele><time>2026-04-30T07:48:14Z</time></trkpt><trkpt lat="42.91581194759752" lon="-2.043017306998265"><ele>495.0</ele><time>2026-04-30T07:48:15Z</time></trkpt><trkpt lat="42.91576843799253" lon="-2.0431235758329094"><ele>495.0</ele><time>2026-04-30T07:48:16Z</time></trkpt><trkpt lat="42.9157254910679" lon="-2.0432316104472084"><ele>495.0</ele><time>2026-04-30T07:48:17Z</time></trkpt><trkpt lat="42.9156963410486" lon="-2.04333374429323"><ele>495.0</ele><time>2026-04-30T07:48:18Z</time></trkpt><trkpt lat="42.915684939694685" lon="-2.043443873720277"><ele>495.0</ele><time>2026-04-30T07:48:19Z</time></trkpt><trkpt lat="42.91569844080892" lon="-2.0435589562888103"><ele>493.4</ele><time>2026-04-30T07:48:20Z</time></trkpt><trkpt lat="42.915730928159604" lon="-2.043671866376078"><ele>491.8</ele><time>2026-04-30T07:48:21Z</time></trkpt><trkpt lat="42.91578007271896" lon="-2.043787420818597"><ele>490.20000000000005</ele><time>2026-04-30T07:48:22Z</time></trkpt><trkpt lat="42.915842089749646" lon="-2.0438919891885186"><ele>488.6</ele><time>2026-04-30T07:48:23Z</time></trkpt><trkpt lat="42.91589716598636" lon="-2.043999997070807"><ele>487.0</ele><time>2026-04-30T07:48:24Z</time></trkpt><trkpt lat="42.915954979991454" lon="-2.044106840890489"><ele>486.20000000000005</ele><time>2026-04-30T07:48:25Z</time></trkpt><trkpt lat="42.916013805073334" lon="-2.0442117634321213"><ele>485.40000000000003</ele><time>2026-04-30T07:48:26Z</time></trkpt><trkpt lat="42.91606985362199" lon="-2.0443172645367187"><ele>484.59999999999997</ele><time>2026-04-30T07:48:27Z</time></trkpt><trkpt lat="42.91612734374815" lon="-2.044421179269064"><ele>483.79999999999995</ele><time>2026-04-30T07:48:28Z</time></trkpt><trkpt lat="42.9161825727838" lon="-2.0445299608260337"><ele>483.0</ele><time>2026-04-30T07:48:29Z</time></trkpt><trkpt lat="42.91623926925173" lon="-2.0446374993817322"><ele>483.0</ele><time>2026-04-30T07:48:30Z</time></trkpt><trkpt lat="42.91629754336114" lon="-2.0447398816654254"><ele>482.99999999999994</ele><time>2026-04-30T07:48:31Z</time></trkpt><trkpt lat="42.91635214737216" lon="-2.0448429154879366"><ele>482.99999999999994</ele><time>2026-04-30T07:48:32Z</time></trkpt><trkpt lat="42.91641173240879" lon="-2.044957236008277"><ele>483.0</ele><time>2026-04-30T07:48:33Z</time></trkpt><trkpt lat="42.91646890662546" lon="-2.045066286078587"><ele>483.0</ele><time>2026-04-30T07:48:34Z</time></trkpt><trkpt lat="42.91653245032981" lon="-2.0451770954282753"><ele>483.0</ele><time>2026-04-30T07:48:35Z</time></trkpt><trkpt lat="42.91658665878777" lon="-2.0452804406515677"><ele>482.99999999999994</ele><time>2026-04-30T07:48:36Z</time></trkpt><trkpt lat="42.916648581620784" lon="-2.0453927544107855"><ele>482.99999999999994</ele><time>2026-04-30T07:48:37Z</time></trkpt><trkpt lat="42.91670688543574" lon="-2.0455026692226883"><ele>483.0</ele><time>2026-04-30T07:48:38Z</time></trkpt><trkpt lat="42.916764915142664" lon="-2.045606896041275"><ele>483.0</ele><time>2026-04-30T07:48:39Z</time></trkpt><trkpt lat="42.916827114813216" lon="-2.045716229749962"><ele>482.2</ele><time>2026-04-30T07:48:40Z</time></trkpt><trkpt lat="42.916888571997546" lon="-2.0458291503011865"><ele>481.4</ele><time>2026-04-30T07:48:41Z</time></trkpt><trkpt lat="42.91695051163258" lon="-2.045934539556983"><ele>480.59999999999997</ele><time>2026-04-30T07:48:42Z</time></trkpt><trkpt lat="42.91702479486499" lon="-2.0460273372588373"><ele>479.79999999999995</ele><time>2026-04-30T07:48:43Z</time></trkpt><trkpt lat="42.917102714908346" lon="-2.046119727712599"><ele>479.0</ele><time>2026-04-30T07:48:44Z</time></trkpt><trkpt lat="42.91718041337384" lon="-2.046204747249314"><ele>479.0</ele><time>2026-04-30T07:48:45Z</time></trkpt><trkpt lat="42.91726067045119" lon="-2.046288304152514"><ele>479.0</ele><time>2026-04-30T07:48:46Z</time></trkpt><trkpt lat="42.9173458445626" lon="-2.046365023637088"><ele>479.0</ele><time>2026-04-30T07:48:47Z</time></trkpt><trkpt lat="42.91743715342699" lon="-2.0464539386873493"><ele>479.0</ele><time>2026-04-30T07:48:48.001Z</time></trkpt><trkpt lat="42.91750075455477" lon="-2.0465242529417726"><ele>479.0</ele><time>2026-04-30T07:48:49.001Z</time></trkpt><trkpt lat="42.917586760265614" lon="-2.0465968781365156"><ele>479.2</ele><time>2026-04-30T07:48:50.001Z</time></trkpt><trkpt lat="42.917679703146625" lon="-2.046658025427415"><ele>479.4</ele><time>2026-04-30T07:48:51.001Z</time></trkpt><trkpt lat="42.917773322623965" lon="-2.046708811544668"><ele>479.6</ele><time>2026-04-30T07:48:52.001Z</time></trkpt><trkpt lat="42.91786715793188" lon="-2.04675733953399"><ele>479.8</ele><time>2026-04-30T07:48:53.001Z</time></trkpt><trkpt lat="42.91795980172672" lon="-2.04680450135229"><ele>480.0</ele><time>2026-04-30T07:48:54.001Z</time></trkpt><trkpt lat="42.918054104939955" lon="-2.0468465133968663"><ele>480.0</ele><time>2026-04-30T07:48:55.001Z</time></trkpt><trkpt lat="42.91814358411487" lon="-2.046901283717084"><ele>480.0</ele><time>2026-04-30T07:48:56.001Z</time></trkpt><trkpt lat="42.91822958839667" lon="-2.0469440718316725"><ele>480.0</ele><time>2026-04-30T07:48:57.001Z</time></trkpt><trkpt lat="42.9183092533362" lon="-2.0469871142776648"><ele>480.0</ele><time>2026-04-30T07:48:58.001Z</time></trkpt><trkpt lat="42.91838015293845" lon="-2.0470406246396466"><ele>480.0</ele><time>2026-04-30T07:48:59.001Z</time></trkpt><trkpt lat="42.918450354135544" lon="-2.0471231589590015"><ele>480.0</ele><time>2026-04-30T07:49:00.001Z</time></trkpt><trkpt lat="42.918503414871864" lon="-2.0472104006735874"><ele>480.1666666666667</ele><time>2026-04-30T07:49:01.001Z</time></trkpt><trkpt lat="42.91855048855471" lon="-2.0473210062230205"><ele>480.33333333333337</ele><time>2026-04-30T07:49:02.001Z</time></trkpt><trkpt lat="42.91857415914573" lon="-2.047434138278712"><ele>480.5</ele><time>2026-04-30T07:49:03.001Z</time></trkpt><trkpt lat="42.91859126352092" lon="-2.0475402423042226"><ele>480.6666666666667</ele><time>2026-04-30T07:49:04.001Z</time></trkpt><trkpt lat="42.918606832673575" lon="-2.0476530451982162"><ele>480.83333333333337</ele><time>2026-04-30T07:49:05.001Z</time></trkpt><trkpt lat="42.91862271824701" lon="-2.0477753569999333"><ele>481.0</ele><time>2026-04-30T07:49:06.001Z</time></trkpt><trkpt lat="42.91864000432009" lon="-2.0478866562210984"><ele>481.33333333333337</ele><time>2026-04-30T07:49:07.001Z</time></trkpt><trkpt lat="42.91865910568552" lon="-2.0479932866811508"><ele>481.6666666666667</ele><time>2026-04-30T07:49:08.001Z</time></trkpt><trkpt lat="42.91868135402775" lon="-2.048096435806425"><ele>482.0</ele><time>2026-04-30T07:49:09.001Z</time></trkpt><trkpt lat="42.91870880859554" lon="-2.0481925195543926"><ele>482.33333333333337</ele><time>2026-04-30T07:49:10.001Z</time></trkpt><trkpt lat="42.91874374716361" lon="-2.048293024187193"><ele>482.6666666666667</ele><time>2026-04-30T07:49:11.001Z</time></trkpt><trkpt lat="42.918784750098524" lon="-2.048389774256094"><ele>483.0</ele><time>2026-04-30T07:49:12.001Z</time></trkpt><trkpt lat="42.9188232861236" lon="-2.0484920466572807"><ele>483.1666666666667</ele><time>2026-04-30T07:49:13.001Z</time></trkpt><trkpt lat="42.91885395841571" lon="-2.0486001409398864"><ele>483.33333333333337</ele><time>2026-04-30T07:49:14.001Z</time></trkpt><trkpt lat="42.918887640277376" lon="-2.048705699348539"><ele>483.5</ele><time>2026-04-30T07:49:15.001Z</time></trkpt><trkpt lat="42.91892285517255" lon="-2.0488156742938775"><ele>483.6666666666667</ele><time>2026-04-30T07:49:16.001Z</time></trkpt><trkpt lat="42.91896049229448" lon="-2.04892265867768"><ele>483.83333333333337</ele><time>2026-04-30T07:49:17.001Z</time></trkpt><trkpt lat="42.918994287960864" lon="-2.049027663627191"><ele>484.0</ele><time>2026-04-30T07:49:18.001Z</time></trkpt><trkpt lat="42.919045840420665" lon="-2.0491301339229135"><ele>484.0</ele><time>2026-04-30T07:49:19.001Z</time></trkpt><trkpt lat="42.91909386741982" lon="-2.0492383972673873"><ele>484.0</ele><time>2026-04-30T07:49:20.001Z</time></trkpt><trkpt lat="42.91914377344522" lon="-2.049344267764886"><ele>484.0</ele><time>2026-04-30T07:49:21.001Z</time></trkpt><trkpt lat="42.91919438888195" lon="-2.0494531416865898"><ele>484.0</ele><time>2026-04-30T07:49:22.001Z</time></trkpt><trkpt lat="42.91924176609471" lon="-2.049561875247809"><ele>484.0</ele><time>2026-04-30T07:49:23.001Z</time></trkpt><trkpt lat="42.919293379965104" lon="-2.049679150950689"><ele>484.0</ele><time>2026-04-30T07:49:24.001Z</time></trkpt><trkpt lat="42.9193411193023" lon="-2.0497883661759113"><ele>484.0</ele><time>2026-04-30T07:49:25.001Z</time></trkpt><trkpt lat="42.919393049882814" lon="-2.0499084540032926"><ele>484.0</ele><time>2026-04-30T07:49:26.001Z</time></trkpt><trkpt lat="42.91944631101106" lon="-2.050023646987289"><ele>484.0</ele><time>2026-04-30T07:49:27.001Z</time></trkpt><trkpt lat="42.91950222172974" lon="-2.050134961231401"><ele>484.0</ele><time>2026-04-30T07:49:28.001Z</time></trkpt><trkpt lat="42.919564309206656" lon="-2.0502428244846156"><ele>484.2</ele><time>2026-04-30T07:49:29.001Z</time></trkpt><trkpt lat="42.91962739521504" lon="-2.0503466829704724"><ele>484.4</ele><time>2026-04-30T07:49:30.001Z</time></trkpt><trkpt lat="42.91969426576866" lon="-2.0504469362819067"><ele>484.6</ele><time>2026-04-30T07:49:31.001Z</time></trkpt><trkpt lat="42.91977157760471" lon="-2.050543260857643"><ele>484.8</ele><time>2026-04-30T07:49:32.001Z</time></trkpt><trkpt lat="42.919826662577925" lon="-2.0506329118505024"><ele>485.0</ele><time>2026-04-30T07:49:33.001Z</time></trkpt><trkpt lat="42.91990478384791" lon="-2.0507167058114306"><ele>485.0</ele><time>2026-04-30T07:49:34.001Z</time></trkpt><trkpt lat="42.91998584022908" lon="-2.050792179834536"><ele>485.0</ele><time>2026-04-30T07:49:35.001Z</time></trkpt><trkpt lat="42.9200702666457" lon="-2.050862902059967"><ele>485.0</ele><time>2026-04-30T07:49:36.001Z</time></trkpt><trkpt lat="42.92015800142942" lon="-2.0509232340481"><ele>485.0</ele><time>2026-04-30T07:49:37.001Z</time></trkpt><trkpt lat="42.92024854773904" lon="-2.0509777936716747"><ele>485.0</ele><time>2026-04-30T07:49:38.001Z</time></trkpt><trkpt lat="42.92033908020248" lon="-2.051032050971402"><ele>485.0</ele><time>2026-04-30T07:49:39.001Z</time></trkpt><trkpt lat="42.920428685896844" lon="-2.0510867409754723"><ele>485.0</ele><time>2026-04-30T07:49:39.999Z</time></trkpt><trkpt lat="42.92051365372533" lon="-2.0511441299433804"><ele>485.0</ele><time>2026-04-30T07:49:40.999Z</time></trkpt><trkpt lat="42.920597558706625" lon="-2.05120219642676"><ele>485.0</ele><time>2026-04-30T07:49:41.999Z</time></trkpt><trkpt lat="42.920678772445136" lon="-2.0512583956386004"><ele>485.0</ele><time>2026-04-30T07:49:42.999Z</time></trkpt><trkpt lat="42.92075921822922" lon="-2.0513081327360356"><ele>484.99999999999994</ele><time>2026-04-30T07:49:43.999Z</time></trkpt><trkpt lat="42.920837167075106" lon="-2.0513545598475136"><ele>485.0</ele><time>2026-04-30T07:49:44.999Z</time></trkpt><trkpt lat="42.92091249583648" lon="-2.0514010887804934"><ele>485.0</ele><time>2026-04-30T07:49:45.999Z</time></trkpt><trkpt lat="42.920982933341556" lon="-2.0514483970316864"><ele>485.0</ele><time>2026-04-30T07:49:46.999Z</time></trkpt><trkpt lat="42.921053385179185" lon="-2.051496542941577"><ele>484.99999999999994</ele><time>2026-04-30T07:49:47.999Z</time></trkpt><trkpt lat="42.921123937238185" lon="-2.051542222284073"><ele>485.0</ele><time>2026-04-30T07:49:48.999Z</time></trkpt><trkpt lat="42.92119337078789" lon="-2.0515915057303924"><ele>485.49999999999994</ele><time>2026-04-30T07:49:49.999Z</time></trkpt><trkpt lat="42.92125879599508" lon="-2.051640823751011"><ele>486.0</ele><time>2026-04-30T07:49:50.999Z</time></trkpt><trkpt lat="42.92132983498788" lon="-2.051685196687795"><ele>486.5</ele><time>2026-04-30T07:49:51.999Z</time></trkpt><trkpt lat="42.92140014643194" lon="-2.0517325182479547"><ele>487.0</ele><time>2026-04-30T07:49:52.999Z</time></trkpt><trkpt lat="42.921474269144326" lon="-2.051783676820991"><ele>487.49999999999994</ele><time>2026-04-30T07:49:53.999Z</time></trkpt><trkpt lat="42.921551574759036" lon="-2.0518349135966534"><ele>488.0</ele><time>2026-04-30T07:49:54.999Z</time></trkpt><trkpt lat="42.92163444278165" lon="-2.0518948505899974"><ele>488.0</ele><time>2026-04-30T07:49:55.999Z</time></trkpt><trkpt lat="42.921714253082754" lon="-2.0519482449358093"><ele>487.99999999999994</ele><time>2026-04-30T07:49:56.999Z</time></trkpt><trkpt lat="42.92180097453417" lon="-2.0520068349443776"><ele>487.99999999999994</ele><time>2026-04-30T07:49:58Z</time></trkpt><trkpt lat="42.92189590244604" lon="-2.052065033194186"><ele>488.0</ele><time>2026-04-30T07:49:59Z</time></trkpt><trkpt lat="42.92198717897705" lon="-2.052122506731463"><ele>488.0</ele><time>2026-04-30T07:50:00Z</time></trkpt><trkpt lat="42.92207874165147" lon="-2.0521873716749233"><ele>489.5</ele><time>2026-04-30T07:50:01Z</time></trkpt><trkpt lat="42.922177631583565" lon="-2.052258854916716"><ele>491.0</ele><time>2026-04-30T07:50:02Z</time></trkpt><trkpt lat="42.9222834480469" lon="-2.0523266425095863"><ele>492.5</ele><time>2026-04-30T07:50:03Z</time></trkpt><trkpt lat="42.922387343981804" lon="-2.052382562855829"><ele>494.0</ele><time>2026-04-30T07:50:04Z</time></trkpt><trkpt lat="42.92248655759372" lon="-2.0524539353348468"><ele>495.0</ele><time>2026-04-30T07:50:05Z</time></trkpt><trkpt lat="42.92258392212644" lon="-2.0525310029871684"><ele>496.0</ele><time>2026-04-30T07:50:06Z</time></trkpt><trkpt lat="42.92268791742151" lon="-2.0525965511067255"><ele>497.0</ele><time>2026-04-30T07:50:07Z</time></trkpt><trkpt lat="42.922788747386" lon="-2.052656431285087"><ele>498.0</ele><time>2026-04-30T07:50:08Z</time></trkpt><trkpt lat="42.92289070041075" lon="-2.052717659868803"><ele>499.0</ele><time>2026-04-30T07:50:09Z</time></trkpt><trkpt lat="42.922982996559604" lon="-2.052788331568007"><ele>499.0</ele><time>2026-04-30T07:50:10Z</time></trkpt><trkpt lat="42.92307248979701" lon="-2.0528564988684357"><ele>499.0</ele><time>2026-04-30T07:50:11Z</time></trkpt><trkpt lat="42.92317341226639" lon="-2.0529171111589544"><ele>499.0</ele><time>2026-04-30T07:50:12Z</time></trkpt><trkpt lat="42.92327622504172" lon="-2.0529880757220385"><ele>499.0</ele><time>2026-04-30T07:50:13Z</time></trkpt><trkpt lat="42.92337343717389" lon="-2.0530558076993066"><ele>499.0</ele><time>2026-04-30T07:50:14Z</time></trkpt><trkpt lat="42.92347364626714" lon="-2.053108808314505"><ele>498.6</ele><time>2026-04-30T07:50:15Z</time></trkpt><trkpt lat="42.92356640462773" lon="-2.0531662276086386"><ele>498.2</ele><time>2026-04-30T07:50:16Z</time></trkpt><trkpt lat="42.92366828054646" lon="-2.0532341386803235"><ele>497.80000000000007</ele><time>2026-04-30T07:50:17Z</time></trkpt><trkpt lat="42.92377445873144" lon="-2.053300400297339"><ele>497.40000000000003</ele><time>2026-04-30T07:50:18Z</time></trkpt><trkpt lat="42.92387553365053" lon="-2.0533735664857753"><ele>497.0</ele><time>2026-04-30T07:50:19Z</time></trkpt><trkpt lat="42.9239720892934" lon="-2.0534351265222694"><ele>497.0</ele><time>2026-04-30T07:50:20Z</time></trkpt><trkpt lat="42.92406422268508" lon="-2.053482857077984"><ele>497.00000000000006</ele><time>2026-04-30T07:50:21Z</time></trkpt><trkpt lat="42.92416784882809" lon="-2.053546703838841"><ele>497.00000000000006</ele><time>2026-04-30T07:50:22Z</time></trkpt><trkpt lat="42.924279515558354" lon="-2.0536183367513265"><ele>497.0</ele><time>2026-04-30T07:50:23Z</time></trkpt><trkpt lat="42.924377685340026" lon="-2.053683203352976"><ele>497.0</ele><time>2026-04-30T07:50:24Z</time></trkpt><trkpt lat="42.92446857099084" lon="-2.053748720399436"><ele>499.0</ele><time>2026-04-30T07:50:25Z</time></trkpt><trkpt lat="42.924571580450795" lon="-2.0538142500181893"><ele>501.00000000000006</ele><time>2026-04-30T07:50:26Z</time></trkpt><trkpt lat="42.92467125451179" lon="-2.0538740676345872"><ele>503.00000000000006</ele><time>2026-04-30T07:50:27Z</time></trkpt><trkpt lat="42.92476969476223" lon="-2.053934965156488"><ele>505.0</ele><time>2026-04-30T07:50:28Z</time></trkpt><trkpt lat="42.92486585222665" lon="-2.05399130611198"><ele>507.0</ele><time>2026-04-30T07:50:29Z</time></trkpt><trkpt lat="42.924967004916226" lon="-2.0540633522898295"><ele>505.8</ele><time>2026-04-30T07:50:30Z</time></trkpt><trkpt lat="42.925066812423985" lon="-2.054125269260077"><ele>504.6</ele><time>2026-04-30T07:50:31Z</time></trkpt><trkpt lat="42.925161045290864" lon="-2.0541839845350904"><ele>503.40000000000003</ele><time>2026-04-30T07:50:32Z</time></trkpt><trkpt lat="42.92526251088708" lon="-2.054242541602079"><ele>502.20000000000005</ele><time>2026-04-30T07:50:33Z</time></trkpt><trkpt lat="42.92536250522554" lon="-2.054326660995205"><ele>501.0</ele><time>2026-04-30T07:50:34Z</time></trkpt><trkpt lat="42.925458017249156" lon="-2.0543790288269004"><ele>501.0</ele><time>2026-04-30T07:50:35Z</time></trkpt><trkpt lat="42.92555248921669" lon="-2.0544373851732614"><ele>501.0</ele><time>2026-04-30T07:50:36Z</time></trkpt><trkpt lat="42.92564523241781" lon="-2.0545098013740843"><ele>501.0</ele><time>2026-04-30T07:50:37Z</time></trkpt><trkpt lat="42.92573990217118" lon="-2.0545705408743635"><ele>501.0</ele><time>2026-04-30T07:50:38Z</time></trkpt><trkpt lat="42.92583886875273" lon="-2.054634826151738"><ele>501.0</ele><time>2026-04-30T07:50:39Z</time></trkpt><trkpt lat="42.92594016443502" lon="-2.054695241031661"><ele>502.20000000000005</ele><time>2026-04-30T07:50:40Z</time></trkpt><trkpt lat="42.92603459109568" lon="-2.054770709197549"><ele>503.40000000000003</ele><time>2026-04-30T07:50:41Z</time></trkpt><trkpt lat="42.926125272433566" lon="-2.0548384523703165"><ele>504.6</ele><time>2026-04-30T07:50:42Z</time></trkpt><trkpt lat="42.92623761160322" lon="-2.054870678373379"><ele>505.8</ele><time>2026-04-30T07:50:43Z</time></trkpt><trkpt lat="42.926329254486475" lon="-2.054896986940398"><ele>507.0</ele><time>2026-04-30T07:50:44Z</time></trkpt><trkpt lat="42.926434986845734" lon="-2.0549229740640507"><ele>507.20000000000005</ele><time>2026-04-30T07:50:45Z</time></trkpt><trkpt lat="42.92653934385055" lon="-2.054965510598344"><ele>507.40000000000003</ele><time>2026-04-30T07:50:46Z</time></trkpt><trkpt lat="42.926637221917225" lon="-2.054971414934434"><ele>507.59999999999997</ele><time>2026-04-30T07:50:47Z</time></trkpt><trkpt lat="42.92674540245386" lon="-2.0550015105281085"><ele>507.79999999999995</ele><time>2026-04-30T07:50:48Z</time></trkpt><trkpt lat="42.926854107396224" lon="-2.055014965404529"><ele>508.0</ele><time>2026-04-30T07:50:49.001Z</time></trkpt><trkpt lat="42.92695248709667" lon="-2.0550368345139347"><ele>508.0</ele><time>2026-04-30T07:50:50.001Z</time></trkpt><trkpt lat="42.927058236446136" lon="-2.055044643518608"><ele>507.99999999999994</ele><time>2026-04-30T07:50:51.001Z</time></trkpt><trkpt lat="42.9271563600016" lon="-2.0550880239606024"><ele>507.99999999999994</ele><time>2026-04-30T07:50:52.001Z</time></trkpt><trkpt lat="42.92725482265377" lon="-2.05514786491785"><ele>508.0</ele><time>2026-04-30T07:50:53.001Z</time></trkpt><trkpt lat="42.9273501143776" lon="-2.05520988705002"><ele>508.0</ele><time>2026-04-30T07:50:54.001Z</time></trkpt><trkpt lat="42.92744637706474" lon="-2.0552720991517877"><ele>508.0</ele><time>2026-04-30T07:50:55.001Z</time></trkpt><trkpt lat="42.92754312241328" lon="-2.0553295755282197"><ele>507.99999999999994</ele><time>2026-04-30T07:50:56.001Z</time></trkpt><trkpt lat="42.92763315197002" lon="-2.05538511021345"><ele>507.99999999999994</ele><time>2026-04-30T07:50:57.001Z</time></trkpt><trkpt lat="42.927730971575684" lon="-2.055434118339951"><ele>508.0</ele><time>2026-04-30T07:50:58.001Z</time></trkpt><trkpt lat="42.927830019210234" lon="-2.0554688608890594"><ele>508.0</ele><time>2026-04-30T07:50:59.001Z</time></trkpt><trkpt lat="42.9279243957012" lon="-2.0555033008212695"><ele>511.59999999999997</ele><time>2026-04-30T07:51:00.001Z</time></trkpt><trkpt lat="42.928021626676774" lon="-2.0555343211907866"><ele>515.1999999999999</ele><time>2026-04-30T07:51:01.001Z</time></trkpt><trkpt lat="42.928126115064416" lon="-2.055574687439169"><ele>518.8</ele><time>2026-04-30T07:51:02.001Z</time></trkpt><trkpt lat="42.92822512959754" lon="-2.055606421440312"><ele>522.4</ele><time>2026-04-30T07:51:03.001Z</time></trkpt><trkpt lat="42.92832327272922" lon="-2.055637610338295"><ele>526.0</ele><time>2026-04-30T07:51:04.001Z</time></trkpt><trkpt lat="42.928431249138185" lon="-2.055665609816933"><ele>527.4</ele><time>2026-04-30T07:51:05.001Z</time></trkpt><trkpt lat="42.928529365691695" lon="-2.055684114427266"><ele>528.8</ele><time>2026-04-30T07:51:06.001Z</time></trkpt><trkpt lat="42.9286304348966" lon="-2.055712035964685"><ele>530.1999999999999</ele><time>2026-04-30T07:51:07.001Z</time></trkpt><trkpt lat="42.928730885203805" lon="-2.055746329504074"><ele>531.6</ele><time>2026-04-30T07:51:08.001Z</time></trkpt><trkpt lat="42.9288356882961" lon="-2.0557664708085515"><ele>533.0</ele><time>2026-04-30T07:51:09.001Z</time></trkpt><trkpt lat="42.928938532554966" lon="-2.0557955437027533"><ele>528.6</ele><time>2026-04-30T07:51:10.001Z</time></trkpt><trkpt lat="42.92904238130731" lon="-2.0558312786023687"><ele>524.1999999999999</ele><time>2026-04-30T07:51:11.001Z</time></trkpt><trkpt lat="42.92914589506345" lon="-2.0558574840502257"><ele>519.8</ele><time>2026-04-30T07:51:12.001Z</time></trkpt><trkpt lat="42.929249899833444" lon="-2.0558863016810296"><ele>515.4</ele><time>2026-04-30T07:51:13.001Z</time></trkpt><trkpt lat="42.929346638647516" lon="-2.055921181041221"><ele>511.0</ele><time>2026-04-30T07:51:14.001Z</time></trkpt><trkpt lat="42.92945035253562" lon="-2.055957322414245"><ele>511.0</ele><time>2026-04-30T07:51:15.001Z</time></trkpt><trkpt lat="42.92955359537568" lon="-2.0559983441243204"><ele>511.0</ele><time>2026-04-30T07:51:16.001Z</time></trkpt><trkpt lat="42.92965337594914" lon="-2.056045788197965"><ele>511.0</ele><time>2026-04-30T07:51:17.001Z</time></trkpt><trkpt lat="42.929755529983204" lon="-2.0560926436658096"><ele>511.0</ele><time>2026-04-30T07:51:18.001Z</time></trkpt><trkpt lat="42.92985983443129" lon="-2.056133364841418"><ele>511.0</ele><time>2026-04-30T07:51:19.001Z</time></trkpt><trkpt lat="42.929957250397706" lon="-2.0561856650877064"><ele>512.0</ele><time>2026-04-30T07:51:20.001Z</time></trkpt><trkpt lat="42.930062569359464" lon="-2.0562287213777832"><ele>513.0</ele><time>2026-04-30T07:51:21.001Z</time></trkpt><trkpt lat="42.93016218708455" lon="-2.05628702981088"><ele>514.0</ele><time>2026-04-30T07:51:22.001Z</time></trkpt><trkpt lat="42.93026017538086" lon="-2.056340886976044"><ele>515.0</ele><time>2026-04-30T07:51:23.001Z</time></trkpt><trkpt lat="42.930359245136174" lon="-2.0563973229134698"><ele>516.0</ele><time>2026-04-30T07:51:24.001Z</time></trkpt><trkpt lat="42.93045139797584" lon="-2.0564597169469736"><ele>516.0</ele><time>2026-04-30T07:51:25.001Z</time></trkpt><trkpt lat="42.93055859736147" lon="-2.0565127572369235"><ele>516.0</ele><time>2026-04-30T07:51:26.001Z</time></trkpt><trkpt lat="42.93065116587333" lon="-2.05657451572888"><ele>516.0</ele><time>2026-04-30T07:51:27.001Z</time></trkpt><trkpt lat="42.93075494611764" lon="-2.0566512321650454"><ele>516.0</ele><time>2026-04-30T07:51:28.001Z</time></trkpt><trkpt lat="42.93085444614675" lon="-2.056712428206065"><ele>516.0</ele><time>2026-04-30T07:51:29.001Z</time></trkpt><trkpt lat="42.93094961599465" lon="-2.0567737993689703"><ele>513.8</ele><time>2026-04-30T07:51:30.001Z</time></trkpt><trkpt lat="42.93104785198873" lon="-2.0568377285441253"><ele>511.6</ele><time>2026-04-30T07:51:31.001Z</time></trkpt><trkpt lat="42.931151243232364" lon="-2.056907609281889"><ele>509.4</ele><time>2026-04-30T07:51:32.001Z</time></trkpt><trkpt lat="42.9312463322073" lon="-2.0569721523037594"><ele>507.2</ele><time>2026-04-30T07:51:33.001Z</time></trkpt><trkpt lat="42.93134478296636" lon="-2.057029083365402"><ele>505.0</ele><time>2026-04-30T07:51:34.001Z</time></trkpt><trkpt lat="42.93144541931412" lon="-2.0570877505454797"><ele>505.0</ele><time>2026-04-30T07:51:35.001Z</time></trkpt><trkpt lat="42.931545136857544" lon="-2.057147714172727"><ele>505.0</ele><time>2026-04-30T07:51:36.001Z</time></trkpt><trkpt lat="42.93163934391217" lon="-2.057205191102817"><ele>505.0</ele><time>2026-04-30T07:51:37.001Z</time></trkpt><trkpt lat="42.93173063584665" lon="-2.057268019325231"><ele>505.0</ele><time>2026-04-30T07:51:38.001Z</time></trkpt><trkpt lat="42.931827819469135" lon="-2.057333504443322"><ele>505.0</ele><time>2026-04-30T07:51:39.001Z</time></trkpt><trkpt lat="42.93192487127304" lon="-2.0573903311831625"><ele>505.8</ele><time>2026-04-30T07:51:40.001Z</time></trkpt><trkpt lat="42.93202052284444" lon="-2.0574498263085985"><ele>506.6</ele><time>2026-04-30T07:51:41.001Z</time></trkpt><trkpt lat="42.93211666590095" lon="-2.057513178149717"><ele>507.4</ele><time>2026-04-30T07:51:42.001Z</time></trkpt><trkpt lat="42.9322108370903" lon="-2.0575748062063477"><ele>508.2</ele><time>2026-04-30T07:51:43.001Z</time></trkpt><trkpt lat="42.93230588116154" lon="-2.0576272628414984"><ele>509.0</ele><time>2026-04-30T07:51:44.001Z</time></trkpt><trkpt lat="42.93239712512856" lon="-2.057693765771778"><ele>509.0</ele><time>2026-04-30T07:51:45.001Z</time></trkpt><trkpt lat="42.932492709764645" lon="-2.057747533770913"><ele>509.0</ele><time>2026-04-30T07:51:45.999Z</time></trkpt><trkpt lat="42.93258711463797" lon="-2.0578078933154313"><ele>509.0</ele><time>2026-04-30T07:51:46.999Z</time></trkpt><trkpt lat="42.93267728787912" lon="-2.0578644744546253"><ele>509.0</ele><time>2026-04-30T07:51:47.999Z</time></trkpt><trkpt lat="42.932769583837675" lon="-2.0579224656217305"><ele>509.0</ele><time>2026-04-30T07:51:48.999Z</time></trkpt><trkpt lat="42.932860512692486" lon="-2.057988824720465"><ele>509.0</ele><time>2026-04-30T07:51:49.999Z</time></trkpt><trkpt lat="42.93294798600679" lon="-2.058057727828463"><ele>509.0</ele><time>2026-04-30T07:51:51Z</time></trkpt><trkpt lat="42.93302886504302" lon="-2.0581410963612714"><ele>509.0</ele><time>2026-04-30T07:51:52Z</time></trkpt><trkpt lat="42.93311062208385" lon="-2.0582315806791915"><ele>509.0</ele><time>2026-04-30T07:51:53Z</time></trkpt><trkpt lat="42.93317731676444" lon="-2.058341022048943"><ele>509.0</ele><time>2026-04-30T07:51:54Z</time></trkpt><trkpt lat="42.93324657656528" lon="-2.058452478576482"><ele>508.79999999999995</ele><time>2026-04-30T07:51:55Z</time></trkpt><trkpt lat="42.933308087743086" lon="-2.05857153215448"><ele>508.59999999999997</ele><time>2026-04-30T07:51:56Z</time></trkpt><trkpt lat="42.93337149432101" lon="-2.05868485469425"><ele>508.4</ele><time>2026-04-30T07:51:57Z</time></trkpt><trkpt lat="42.93342750543678" lon="-2.058806685799743"><ele>508.2</ele><time>2026-04-30T07:51:58Z</time></trkpt><trkpt lat="42.933482819375335" lon="-2.058937927020344"><ele>508.0</ele><time>2026-04-30T07:51:59Z</time></trkpt><trkpt lat="42.93353669513346" lon="-2.0590638300781006"><ele>509.79999999999995</ele><time>2026-04-30T07:52:00Z</time></trkpt><trkpt lat="42.93358549160029" lon="-2.0591922893351047"><ele>511.59999999999997</ele><time>2026-04-30T07:52:01Z</time></trkpt><trkpt lat="42.93363765171333" lon="-2.0593179851752312"><ele>513.4000000000001</ele><time>2026-04-30T07:52:02Z</time></trkpt><trkpt lat="42.93368654021254" lon="-2.059449185938936"><ele>515.2</ele><time>2026-04-30T07:52:03Z</time></trkpt><trkpt lat="42.933742315371795" lon="-2.059573457754008"><ele>517.0</ele><time>2026-04-30T07:52:04Z</time></trkpt><trkpt lat="42.93379091567473" lon="-2.059689702638668"><ele>517.0</ele><time>2026-04-30T07:52:05Z</time></trkpt><trkpt lat="42.93384255618741" lon="-2.0598143753265714"><ele>517.0</ele><time>2026-04-30T07:52:06Z</time></trkpt><trkpt lat="42.93389640323954" lon="-2.059938282980067"><ele>517.0</ele><time>2026-04-30T07:52:07Z</time></trkpt><trkpt lat="42.9339455390979" lon="-2.060065644091268"><ele>517.0</ele><time>2026-04-30T07:52:08Z</time></trkpt><trkpt lat="42.93399639456706" lon="-2.0601870015988317"><ele>517.0</ele><time>2026-04-30T07:52:09Z</time></trkpt><trkpt lat="42.934047601602174" lon="-2.0602999849843315"><ele>516.0</ele><time>2026-04-30T07:52:10Z</time></trkpt><trkpt lat="42.934088506608305" lon="-2.0604178577310264"><ele>515.0</ele><time>2026-04-30T07:52:11Z</time></trkpt><trkpt lat="42.934147883394964" lon="-2.060537062123073"><ele>514.0</ele><time>2026-04-30T07:52:12Z</time></trkpt><trkpt lat="42.93419238062856" lon="-2.0606654408464133"><ele>513.0</ele><time>2026-04-30T07:52:13Z</time></trkpt><trkpt lat="42.93424292570352" lon="-2.0607837268717333"><ele>512.0</ele><time>2026-04-30T07:52:14Z</time></trkpt><trkpt lat="42.93429412227443" lon="-2.060904594780759"><ele>514.0</ele><time>2026-04-30T07:52:15Z</time></trkpt><trkpt lat="42.93434677851943" lon="-2.061016293406646"><ele>516.0</ele><time>2026-04-30T07:52:16Z</time></trkpt><trkpt lat="42.934393655651085" lon="-2.0611355936850484"><ele>518.0</ele><time>2026-04-30T07:52:17Z</time></trkpt><trkpt lat="42.93444141888618" lon="-2.061261525616944"><ele>520.0</ele><time>2026-04-30T07:52:18Z</time></trkpt><trkpt lat="42.93449117279661" lon="-2.0613856486040834"><ele>522.0</ele><time>2026-04-30T07:52:19Z</time></trkpt><trkpt lat="42.934535529206414" lon="-2.061513705892891"><ele>520.8000000000001</ele><time>2026-04-30T07:52:20Z</time></trkpt><trkpt lat="42.93459498557561" lon="-2.061640631496882"><ele>519.6</ele><time>2026-04-30T07:52:21Z</time></trkpt><trkpt lat="42.93465027794045" lon="-2.061764482389528"><ele>518.4000000000001</ele><time>2026-04-30T07:52:22Z</time></trkpt><trkpt lat="42.934704755238656" lon="-2.061890824928966"><ele>517.2</ele><time>2026-04-30T07:52:23Z</time></trkpt><trkpt lat="42.934752542512285" lon="-2.0620158234802344"><ele>516.0</ele><time>2026-04-30T07:52:24Z</time></trkpt><trkpt lat="42.934811267376375" lon="-2.062128484816045"><ele>516.0</ele><time>2026-04-30T07:52:25Z</time></trkpt><trkpt lat="42.93486928248378" lon="-2.062262776501341"><ele>516.0</ele><time>2026-04-30T07:52:26Z</time></trkpt><trkpt lat="42.93492312137388" lon="-2.0623919897248832"><ele>516.0</ele><time>2026-04-30T07:52:27Z</time></trkpt><trkpt lat="42.93497864157241" lon="-2.062521899797731"><ele>516.0</ele><time>2026-04-30T07:52:28Z</time></trkpt><trkpt lat="42.93502712212036" lon="-2.062648832553478"><ele>516.0</ele><time>2026-04-30T07:52:29Z</time></trkpt><trkpt lat="42.93508090841477" lon="-2.0627783572769687"><ele>516.0</ele><time>2026-04-30T07:52:30Z</time></trkpt><trkpt lat="42.93513230649908" lon="-2.0629072160586786"><ele>516.0</ele><time>2026-04-30T07:52:31Z</time></trkpt><trkpt lat="42.93518277739635" lon="-2.0630373793382786"><ele>516.0</ele><time>2026-04-30T07:52:32Z</time></trkpt><trkpt lat="42.93523630705209" lon="-2.0631620613502974"><ele>516.0</ele><time>2026-04-30T07:52:33Z</time></trkpt><trkpt lat="42.93529196219434" lon="-2.0632935969812465"><ele>516.0</ele><time>2026-04-30T07:52:34Z</time></trkpt><trkpt lat="42.93534572812118" lon="-2.063425548711998"><ele>515.0</ele><time>2026-04-30T07:52:35Z</time></trkpt><trkpt lat="42.93540121923271" lon="-2.0635571958022565"><ele>514.0</ele><time>2026-04-30T07:52:36Z</time></trkpt><trkpt lat="42.935455416076785" lon="-2.0636883262849923"><ele>513.0</ele><time>2026-04-30T07:52:37Z</time></trkpt><trkpt lat="42.935513766843805" lon="-2.063817995693445"><ele>512.0</ele><time>2026-04-30T07:52:38Z</time></trkpt><trkpt lat="42.935566953134064" lon="-2.063950845492838"><ele>511.0</ele><time>2026-04-30T07:52:39Z</time></trkpt><trkpt lat="42.935623608134215" lon="-2.0640849031419077"><ele>510.8</ele><time>2026-04-30T07:52:40Z</time></trkpt><trkpt lat="42.935681550430076" lon="-2.064214411078968"><ele>510.6</ele><time>2026-04-30T07:52:41Z</time></trkpt><trkpt lat="42.9357339296259" lon="-2.06434787844838"><ele>510.4</ele><time>2026-04-30T07:52:42Z</time></trkpt><trkpt lat="42.93578923222711" lon="-2.064483071642714"><ele>510.2</ele><time>2026-04-30T07:52:43Z</time></trkpt><trkpt lat="42.935843228054644" lon="-2.0646105381372126"><ele>510.0</ele><time>2026-04-30T07:52:44.001Z</time></trkpt><trkpt lat="42.93589466895712" lon="-2.064741378127733"><ele>512.0</ele><time>2026-04-30T07:52:45.001Z</time></trkpt><trkpt lat="42.93594888894726" lon="-2.0648695868749813"><ele>514.0</ele><time>2026-04-30T07:52:46.001Z</time></trkpt><trkpt lat="42.93600825558333" lon="-2.064992339653647"><ele>516.0</ele><time>2026-04-30T07:52:47.001Z</time></trkpt><trkpt lat="42.93606056087108" lon="-2.0651195627729075"><ele>518.0</ele><time>2026-04-30T07:52:48.001Z</time></trkpt><trkpt lat="42.936104875971324" lon="-2.065255443342263"><ele>520.0</ele><time>2026-04-30T07:52:49.001Z</time></trkpt><trkpt lat="42.93615514761467" lon="-2.0653759008429584"><ele>520.0</ele><time>2026-04-30T07:52:50.001Z</time></trkpt><trkpt lat="42.93621072364105" lon="-2.0654995867608648"><ele>520.0</ele><time>2026-04-30T07:52:51.001Z</time></trkpt><trkpt lat="42.93627056192876" lon="-2.0656161843008065"><ele>520.0</ele><time>2026-04-30T07:52:52.001Z</time></trkpt><trkpt lat="42.93631852293212" lon="-2.065748781454707"><ele>520.0</ele><time>2026-04-30T07:52:53.001Z</time></trkpt><trkpt lat="42.93637034249133" lon="-2.065876611843839"><ele>520.0</ele><time>2026-04-30T07:52:54.001Z</time></trkpt><trkpt lat="42.936419740253065" lon="-2.0660026536881806"><ele>518.6</ele><time>2026-04-30T07:52:55.001Z</time></trkpt><trkpt lat="42.936478238443975" lon="-2.066119672741455"><ele>517.2</ele><time>2026-04-30T07:52:56.001Z</time></trkpt><trkpt lat="42.93652867491963" lon="-2.0662434509738024"><ele>515.8</ele><time>2026-04-30T07:52:57.001Z</time></trkpt><trkpt lat="42.93657391771794" lon="-2.0663802871153143"><ele>514.4</ele><time>2026-04-30T07:52:58.001Z</time></trkpt><trkpt lat="42.936624923080885" lon="-2.0665125379478275"><ele>513.0</ele><time>2026-04-30T07:52:59.001Z</time></trkpt><trkpt lat="42.93667949076908" lon="-2.0666379686015257"><ele>515.6</ele><time>2026-04-30T07:53:00.001Z</time></trkpt><trkpt lat="42.93672847298067" lon="-2.066761876272465"><ele>518.1999999999999</ele><time>2026-04-30T07:53:01.001Z</time></trkpt><trkpt lat="42.93678491744998" lon="-2.0668887007324908"><ele>520.8</ele><time>2026-04-30T07:53:02.001Z</time></trkpt><trkpt lat="42.93683562152336" lon="-2.067015802094557"><ele>523.4</ele><time>2026-04-30T07:53:03.001Z</time></trkpt><trkpt lat="42.93688874228246" lon="-2.0671440113666457"><ele>526.0</ele><time>2026-04-30T07:53:04.001Z</time></trkpt><trkpt lat="42.93694461193945" lon="-2.067276239593281"><ele>526.0</ele><time>2026-04-30T07:53:05.001Z</time></trkpt><trkpt lat="42.936997270314" lon="-2.0674021188915073"><ele>526.0</ele><time>2026-04-30T07:53:06.001Z</time></trkpt><trkpt lat="42.93705170743648" lon="-2.0675273746739844"><ele>526.0</ele><time>2026-04-30T07:53:07.001Z</time></trkpt><trkpt lat="42.937104725467336" lon="-2.067650254444548"><ele>526.0</ele><time>2026-04-30T07:53:08.001Z</time></trkpt><trkpt lat="42.93716068629731" lon="-2.067777378565482"><ele>526.0</ele><time>2026-04-30T07:53:09.001Z</time></trkpt><trkpt lat="42.937211498832035" lon="-2.067906030581096"><ele>524.8</ele><time>2026-04-30T07:53:10.001Z</time></trkpt><trkpt lat="42.93726014452143" lon="-2.0680429239040117"><ele>523.6</ele><time>2026-04-30T07:53:11.001Z</time></trkpt><trkpt lat="42.93731662787937" lon="-2.0681676981480575"><ele>522.4</ele><time>2026-04-30T07:53:12.001Z</time></trkpt><trkpt lat="42.9373698753347" lon="-2.068288971484705"><ele>521.2</ele><time>2026-04-30T07:53:13.001Z</time></trkpt><trkpt lat="42.937424554034365" lon="-2.0684143726973945"><ele>520.0</ele><time>2026-04-30T07:53:14.001Z</time></trkpt><trkpt lat="42.937476915360186" lon="-2.0685403056059175"><ele>519.6</ele><time>2026-04-30T07:53:15.001Z</time></trkpt><trkpt lat="42.93752433700759" lon="-2.0686683458837876"><ele>519.2</ele><time>2026-04-30T07:53:16.001Z</time></trkpt><trkpt lat="42.9375768892477" lon="-2.068795020528158"><ele>518.8</ele><time>2026-04-30T07:53:17.001Z</time></trkpt><trkpt lat="42.93762388292334" lon="-2.068913186813917"><ele>518.4</ele><time>2026-04-30T07:53:18.001Z</time></trkpt><trkpt lat="42.93767729619216" lon="-2.0690321802240526"><ele>518.0</ele><time>2026-04-30T07:53:19.001Z</time></trkpt><trkpt lat="42.93772682950963" lon="-2.069154277588139"><ele>521.1999999999999</ele><time>2026-04-30T07:53:20.001Z</time></trkpt><trkpt lat="42.937782097551" lon="-2.0692739404775753"><ele>524.4</ele><time>2026-04-30T07:53:21.001Z</time></trkpt><trkpt lat="42.93782944296878" lon="-2.069393781522702"><ele>527.5999999999999</ele><time>2026-04-30T07:53:22.001Z</time></trkpt><trkpt lat="42.93788035040892" lon="-2.069517764221337"><ele>530.8</ele><time>2026-04-30T07:53:23.001Z</time></trkpt><trkpt lat="42.93792891106259" lon="-2.069637513692718"><ele>534.0</ele><time>2026-04-30T07:53:24.001Z</time></trkpt><trkpt lat="42.937973189372336" lon="-2.069758279046922"><ele>534.0</ele><time>2026-04-30T07:53:25.001Z</time></trkpt><trkpt lat="42.93801366354083" lon="-2.0698841598141127"><ele>534.0</ele><time>2026-04-30T07:53:26.001Z</time></trkpt><trkpt lat="42.938051574137454" lon="-2.070016166263314"><ele>534.0</ele><time>2026-04-30T07:53:27.001Z</time></trkpt><trkpt lat="42.938094314279624" lon="-2.070145626895069"><ele>534.0</ele><time>2026-04-30T07:53:28.001Z</time></trkpt><trkpt lat="42.93813332380517" lon="-2.070279211530311"><ele>534.0</ele><time>2026-04-30T07:53:29.001Z</time></trkpt><trkpt lat="42.93817012321457" lon="-2.0704156119392487"><ele>532.6</ele><time>2026-04-30T07:53:30.001Z</time></trkpt><trkpt lat="42.93822208796656" lon="-2.070548098915587"><ele>531.2</ele><time>2026-04-30T07:53:31.001Z</time></trkpt><trkpt lat="42.93826599423644" lon="-2.0706859276077463"><ele>529.8000000000001</ele><time>2026-04-30T07:53:32.001Z</time></trkpt><trkpt lat="42.93830117390179" lon="-2.07083369264216"><ele>528.4</ele><time>2026-04-30T07:53:33.001Z</time></trkpt><trkpt lat="42.93834032836317" lon="-2.0709758391526387"><ele>527.0</ele><time>2026-04-30T07:53:34.001Z</time></trkpt><trkpt lat="42.93838771033269" lon="-2.071114411935342"><ele>530.6</ele><time>2026-04-30T07:53:35.001Z</time></trkpt><trkpt lat="42.9384271849321" lon="-2.0712575953907257"><ele>534.2</ele><time>2026-04-30T07:53:36.001Z</time></trkpt><trkpt lat="42.93845918640754" lon="-2.071398971358512"><ele>537.8</ele><time>2026-04-30T07:53:37.001Z</time></trkpt><trkpt lat="42.938478150079355" lon="-2.0715503059470484"><ele>541.4</ele><time>2026-04-30T07:53:38.001Z</time></trkpt><trkpt lat="42.93850774059878" lon="-2.071677265651005"><ele>545.0</ele><time>2026-04-30T07:53:39.001Z</time></trkpt><trkpt lat="42.93855791297077" lon="-2.0718016176594523"><ele>545.0</ele><time>2026-04-30T07:53:40.001Z</time></trkpt><trkpt lat="42.93860603739518" lon="-2.071959758662789"><ele>545.0</ele><time>2026-04-30T07:53:41.001Z</time></trkpt><trkpt lat="42.938650071249214" lon="-2.0721001088433013"><ele>545.0</ele><time>2026-04-30T07:53:42.001Z</time></trkpt><trkpt lat="42.938682986713985" lon="-2.072238638308759"><ele>545.0</ele><time>2026-04-30T07:53:43.001Z</time></trkpt><trkpt lat="42.93872583284784" lon="-2.0723780077767233"><ele>543.8</ele><time>2026-04-30T07:53:44.001Z</time></trkpt><trkpt lat="42.93876936166397" lon="-2.072518504911142"><ele>542.6</ele><time>2026-04-30T07:53:45.001Z</time></trkpt><trkpt lat="42.938794119537846" lon="-2.0726573157551975"><ele>541.4</ele><time>2026-04-30T07:53:46.001Z</time></trkpt><trkpt lat="42.93883682054027" lon="-2.0727979286768012"><ele>540.2</ele><time>2026-04-30T07:53:47.001Z</time></trkpt><trkpt lat="42.938874356320675" lon="-2.0729321565115093"><ele>539.0</ele><time>2026-04-30T07:53:48.002Z</time></trkpt><trkpt lat="42.93891521542695" lon="-2.073060394690225"><ele>539.0</ele><time>2026-04-30T07:53:49.002Z</time></trkpt><trkpt lat="42.93895454870053" lon="-2.0731934860958274"><ele>539.0</ele><time>2026-04-30T07:53:50.002Z</time></trkpt><trkpt lat="42.93899077276309" lon="-2.073329208801594"><ele>539.0</ele><time>2026-04-30T07:53:51.002Z</time></trkpt><trkpt lat="42.93902723029709" lon="-2.0734646215682804"><ele>539.0</ele><time>2026-04-30T07:53:52Z</time></trkpt><trkpt lat="42.93906666923788" lon="-2.0735995925864774"><ele>539.0</ele><time>2026-04-30T07:53:53Z</time></trkpt><trkpt lat="42.939109667332644" lon="-2.0737373972370152"><ele>538.0</ele><time>2026-04-30T07:53:54Z</time></trkpt><trkpt lat="42.93914523695449" lon="-2.073876745487279"><ele>537.0</ele><time>2026-04-30T07:53:55Z</time></trkpt><trkpt lat="42.93918599493645" lon="-2.074016048040621"><ele>536.0</ele><time>2026-04-30T07:53:56Z</time></trkpt><trkpt lat="42.93922222173405" lon="-2.0741595373696526"><ele>535.0</ele><time>2026-04-30T07:53:57Z</time></trkpt><trkpt lat="42.939264284387704" lon="-2.0742985455150547"><ele>534.0</ele><time>2026-04-30T07:53:58Z</time></trkpt><trkpt lat="42.93929821747347" lon="-2.074446641690829"><ele>537.4</ele><time>2026-04-30T07:53:59Z</time></trkpt><trkpt lat="42.939344294462394" lon="-2.074586066689024"><ele>540.8</ele><time>2026-04-30T07:54:00Z</time></trkpt><trkpt lat="42.939373649961325" lon="-2.074728198661711"><ele>544.2</ele><time>2026-04-30T07:54:01Z</time></trkpt><trkpt lat="42.93940367862005" lon="-2.0748666104435483"><ele>547.6</ele><time>2026-04-30T07:54:02Z</time></trkpt><trkpt lat="42.93945493368556" lon="-2.0750000005916944"><ele>551.0</ele><time>2026-04-30T07:54:03Z</time></trkpt><trkpt lat="42.93949549597796" lon="-2.0751355975588037"><ele>551.0</ele><time>2026-04-30T07:54:04Z</time></trkpt><trkpt lat="42.939532790270725" lon="-2.075271847780408"><ele>551.0</ele><time>2026-04-30T07:54:05Z</time></trkpt><trkpt lat="42.93956570753509" lon="-2.075416129297212"><ele>551.0</ele><time>2026-04-30T07:54:06Z</time></trkpt><trkpt lat="42.93960239708778" lon="-2.075557418676526"><ele>551.0</ele><time>2026-04-30T07:54:07Z</time></trkpt><trkpt lat="42.93964721361869" lon="-2.075691674217677"><ele>551.0</ele><time>2026-04-30T07:54:08Z</time></trkpt><trkpt lat="42.93968769673555" lon="-2.075824264865073"><ele>549.4</ele><time>2026-04-30T07:54:09Z</time></trkpt><trkpt lat="42.93972338266749" lon="-2.0759654531529823"><ele>547.8</ele><time>2026-04-30T07:54:10Z</time></trkpt><trkpt lat="42.93975810039003" lon="-2.076104163669739"><ele>546.1999999999999</ele><time>2026-04-30T07:54:11Z</time></trkpt><trkpt lat="42.9397989691232" lon="-2.076239424492863"><ele>544.6</ele><time>2026-04-30T07:54:12Z</time></trkpt><trkpt lat="42.93984713364762" lon="-2.0763626073833636"><ele>543.0</ele><time>2026-04-30T07:54:13Z</time></trkpt><trkpt lat="42.93989688479314" lon="-2.0764877186100956"><ele>543.0</ele><time>2026-04-30T07:54:14Z</time></trkpt><trkpt lat="42.93995808589613" lon="-2.0766017962845407"><ele>543.0</ele><time>2026-04-30T07:54:15Z</time></trkpt><trkpt lat="42.94002257996936" lon="-2.076715272242187"><ele>543.0</ele><time>2026-04-30T07:54:16Z</time></trkpt><trkpt lat="42.940092346629854" lon="-2.0768250294892603"><ele>543.0</ele><time>2026-04-30T07:54:17Z</time></trkpt><trkpt lat="42.940163885255764" lon="-2.076931047482685"><ele>543.0</ele><time>2026-04-30T07:54:18Z</time></trkpt><trkpt lat="42.94022319417551" lon="-2.077032894103115"><ele>543.1999999999999</ele><time>2026-04-30T07:54:19Z</time></trkpt><trkpt lat="42.94029472315366" lon="-2.0771504585771243"><ele>543.4</ele><time>2026-04-30T07:54:20Z</time></trkpt><trkpt lat="42.94036778166152" lon="-2.0772613430857754"><ele>543.5999999999999</ele><time>2026-04-30T07:54:21Z</time></trkpt><trkpt lat="42.94043584450047" lon="-2.077364028501835"><ele>543.8</ele><time>2026-04-30T07:54:22Z</time></trkpt><trkpt lat="42.94050046146481" lon="-2.0774752646458077"><ele>544.0</ele><time>2026-04-30T07:54:23Z</time></trkpt><trkpt lat="42.940583780264326" lon="-2.077552603080941"><ele>544.0</ele><time>2026-04-30T07:54:24Z</time></trkpt><trkpt lat="42.940676095656116" lon="-2.077613275934439"><ele>544.0</ele><time>2026-04-30T07:54:25Z</time></trkpt><trkpt lat="42.9407701553505" lon="-2.0776635434687933"><ele>544.0</ele><time>2026-04-30T07:54:26Z</time></trkpt><trkpt lat="42.9408626644792" lon="-2.0777049357028945"><ele>544.0</ele><time>2026-04-30T07:54:27Z</time></trkpt><trkpt lat="42.94095597495076" lon="-2.0777397984691186"><ele>544.0</ele><time>2026-04-30T07:54:28Z</time></trkpt><trkpt lat="42.94103356615663" lon="-2.077778447243631"><ele>548.4</ele><time>2026-04-30T07:54:29Z</time></trkpt><trkpt lat="42.94113648885273" lon="-2.0778105614658737"><ele>552.8</ele><time>2026-04-30T07:54:30Z</time></trkpt><trkpt lat="42.94122894855457" lon="-2.077868106973137"><ele>557.2</ele><time>2026-04-30T07:54:31Z</time></trkpt><trkpt lat="42.94132191351662" lon="-2.077912945690847"><ele>561.6</ele><time>2026-04-30T07:54:32Z</time></trkpt><trkpt lat="42.94143227846558" lon="-2.077951091013559"><ele>566.0</ele><time>2026-04-30T07:54:33Z</time></trkpt><trkpt lat="42.94150079266117" lon="-2.078010716267933"><ele>566.0</ele><time>2026-04-30T07:54:34Z</time></trkpt><trkpt lat="42.94158145487076" lon="-2.078078071568331"><ele>566.0</ele><time>2026-04-30T07:54:35Z</time></trkpt><trkpt lat="42.94166549832636" lon="-2.078137122218706"><ele>566.0</ele><time>2026-04-30T07:54:36Z</time></trkpt><trkpt lat="42.9417497632574" lon="-2.0781937971759854"><ele>566.0</ele><time>2026-04-30T07:54:37Z</time></trkpt><trkpt lat="42.941836917959414" lon="-2.078240190787325"><ele>566.0</ele><time>2026-04-30T07:54:38Z</time></trkpt><trkpt lat="42.94193075458216" lon="-2.0782828632826704"><ele>562.4</ele><time>2026-04-30T07:54:39Z</time></trkpt><trkpt lat="42.94202133107706" lon="-2.0783244650417223"><ele>558.8</ele><time>2026-04-30T07:54:40Z</time></trkpt><trkpt lat="42.942120954376705" lon="-2.078361999608035"><ele>555.1999999999999</ele><time>2026-04-30T07:54:41Z</time></trkpt><trkpt lat="42.94221836998572" lon="-2.078401295388374"><ele>551.6</ele><time>2026-04-30T07:54:42Z</time></trkpt><trkpt lat="42.94231819901133" lon="-2.0784495003289223"><ele>548.0</ele><time>2026-04-30T07:54:43.001Z</time></trkpt><trkpt lat="42.94241749650074" lon="-2.0784925751743146"><ele>548.0</ele><time>2026-04-30T07:54:44.001Z</time></trkpt><trkpt lat="42.94251787309697" lon="-2.078533101772089"><ele>548.0</ele><time>2026-04-30T07:54:45.001Z</time></trkpt><trkpt lat="42.94261706735938" lon="-2.078590054147616"><ele>548.0</ele><time>2026-04-30T07:54:46.001Z</time></trkpt><trkpt lat="42.942719094813505" lon="-2.078639154899203"><ele>548.0</ele><time>2026-04-30T07:54:47.001Z</time></trkpt><trkpt lat="42.942819747100664" lon="-2.0786704109150667"><ele>548.0</ele><time>2026-04-30T07:54:48.001Z</time></trkpt><trkpt lat="42.94292633667575" lon="-2.0787189703499163"><ele>550.25</ele><time>2026-04-30T07:54:49.001Z</time></trkpt><trkpt lat="42.943029508958254" lon="-2.078763092574179"><ele>552.5</ele><time>2026-04-30T07:54:50.001Z</time></trkpt><trkpt lat="42.94313630594837" lon="-2.078814164302089"><ele>554.75</ele><time>2026-04-30T07:54:51.001Z</time></trkpt><trkpt lat="42.9432465755943" lon="-2.078870621989798"><ele>557.0</ele><time>2026-04-30T07:54:52.001Z</time></trkpt><trkpt lat="42.943358899880316" lon="-2.0789069186492197"><ele>560.0</ele><time>2026-04-30T07:54:53.001Z</time></trkpt><trkpt lat="42.943456919464346" lon="-2.0789607156072822"><ele>563.0</ele><time>2026-04-30T07:54:54.001Z</time></trkpt><trkpt lat="42.94357532648736" lon="-2.079015271556117"><ele>566.0</ele><time>2026-04-30T07:54:55.001Z</time></trkpt><trkpt lat="42.943675259662136" lon="-2.0790412176190585"><ele>569.0</ele><time>2026-04-30T07:54:56.001Z</time></trkpt><trkpt lat="42.943788557756804" lon="-2.079056804124686"><ele>572.0</ele><time>2026-04-30T07:54:57.001Z</time></trkpt><trkpt lat="42.94389230934589" lon="-2.0790565839293023"><ele>572.0</ele><time>2026-04-30T07:54:58.001Z</time></trkpt><trkpt lat="42.94398769913935" lon="-2.079058528146923"><ele>572.0</ele><time>2026-04-30T07:54:59.001Z</time></trkpt><trkpt lat="42.94409837976322" lon="-2.079071259698637"><ele>572.0</ele><time>2026-04-30T07:55:00.001Z</time></trkpt><trkpt lat="42.94420275001164" lon="-2.0790405976264448"><ele>572.0</ele><time>2026-04-30T07:55:01.001Z</time></trkpt><trkpt lat="42.9443121541808" lon="-2.079022785159674"><ele>572.0</ele><time>2026-04-30T07:55:02.001Z</time></trkpt><trkpt lat="42.94440601580504" lon="-2.0790106066407392"><ele>572.2</ele><time>2026-04-30T07:55:03.001Z</time></trkpt><trkpt lat="42.944517726110824" lon="-2.0789647542912713"><ele>572.4000000000001</ele><time>2026-04-30T07:55:04.001Z</time></trkpt><trkpt lat="42.944622748944745" lon="-2.078949063557426"><ele>572.5999999999999</ele><time>2026-04-30T07:55:05.001Z</time></trkpt><trkpt lat="42.94472353054029" lon="-2.0789329703047157"><ele>572.8</ele><time>2026-04-30T07:55:06.001Z</time></trkpt><trkpt lat="42.944824981745874" lon="-2.078908300553256"><ele>573.0</ele><time>2026-04-30T07:55:07.001Z</time></trkpt><trkpt lat="42.944933572822414" lon="-2.0788890840546435"><ele>573.0</ele><time>2026-04-30T07:55:08.001Z</time></trkpt><trkpt lat="42.94503899639839" lon="-2.07886760013048"><ele>573.0</ele><time>2026-04-30T07:55:09.001Z</time></trkpt><trkpt lat="42.945141099155165" lon="-2.0788221716482544"><ele>573.0</ele><time>2026-04-30T07:55:10.001Z</time></trkpt><trkpt lat="42.94525354471304" lon="-2.078807423562587"><ele>573.0</ele><time>2026-04-30T07:55:11.001Z</time></trkpt><trkpt lat="42.94536512306961" lon="-2.078763271501678"><ele>573.0</ele><time>2026-04-30T07:55:12.001Z</time></trkpt><trkpt lat="42.945470093352725" lon="-2.078740820597987"><ele>570.6</ele><time>2026-04-30T07:55:13.001Z</time></trkpt><trkpt lat="42.945576275072035" lon="-2.0787243750150703"><ele>568.1999999999999</ele><time>2026-04-30T07:55:14.001Z</time></trkpt><trkpt lat="42.94567765374471" lon="-2.078703295359046"><ele>565.8</ele><time>2026-04-30T07:55:15.001Z</time></trkpt><trkpt lat="42.94577815100589" lon="-2.078690886162484"><ele>563.4</ele><time>2026-04-30T07:55:16.001Z</time></trkpt><trkpt lat="42.945885881965744" lon="-2.0786869845830998"><ele>561.0</ele><time>2026-04-30T07:55:17.001Z</time></trkpt><trkpt lat="42.94598441821914" lon="-2.0786902239357343"><ele>560.8</ele><time>2026-04-30T07:55:18.001Z</time></trkpt><trkpt lat="42.9460877049045" lon="-2.0786972723707384"><ele>560.6</ele><time>2026-04-30T07:55:19.001Z</time></trkpt><trkpt lat="42.946195808467266" lon="-2.0786969163741826"><ele>560.4</ele><time>2026-04-30T07:55:20.001Z</time></trkpt><trkpt lat="42.94630083288463" lon="-2.0786979335624807"><ele>560.2</ele><time>2026-04-30T07:55:21.001Z</time></trkpt><trkpt lat="42.946400385921216" lon="-2.0787155886988713"><ele>560.0</ele><time>2026-04-30T07:55:22.001Z</time></trkpt><trkpt lat="42.94651017332442" lon="-2.0787161594678354"><ele>560.0</ele><time>2026-04-30T07:55:23.001Z</time></trkpt><trkpt lat="42.94662315404603" lon="-2.078734773079452"><ele>560.0</ele><time>2026-04-30T07:55:24.001Z</time></trkpt><trkpt lat="42.94672605791244" lon="-2.0787527353616015"><ele>560.0</ele><time>2026-04-30T07:55:25.001Z</time></trkpt><trkpt lat="42.94682866013643" lon="-2.0787810136754077"><ele>560.0</ele><time>2026-04-30T07:55:26.001Z</time></trkpt><trkpt lat="42.94693724350759" lon="-2.078784826903543"><ele>560.0</ele><time>2026-04-30T07:55:27.001Z</time></trkpt><trkpt lat="42.9470442908059" lon="-2.078809672300119"><ele>561.8</ele><time>2026-04-30T07:55:28.001Z</time></trkpt><trkpt lat="42.94714531891429" lon="-2.0788429739638676"><ele>563.6</ele><time>2026-04-30T07:55:29.001Z</time></trkpt><trkpt lat="42.94724185693593" lon="-2.078876728420421"><ele>565.4</ele><time>2026-04-30T07:55:30.001Z</time></trkpt><trkpt lat="42.947334414398775" lon="-2.0789276250652753"><ele>567.2</ele><time>2026-04-30T07:55:31.001Z</time></trkpt><trkpt lat="42.94743730602422" lon="-2.0789655012206096"><ele>569.0</ele><time>2026-04-30T07:55:32.001Z</time></trkpt><trkpt lat="42.94752708402698" lon="-2.079020550289577"><ele>568.8</ele><time>2026-04-30T07:55:33.001Z</time></trkpt><trkpt lat="42.94761405996314" lon="-2.0790888221207444"><ele>568.5999999999999</ele><time>2026-04-30T07:55:34.001Z</time></trkpt><trkpt lat="42.94770023602312" lon="-2.0791665861875477"><ele>568.4</ele><time>2026-04-30T07:55:35.001Z</time></trkpt><trkpt lat="42.94778577964372" lon="-2.0792527622231294"><ele>568.1999999999999</ele><time>2026-04-30T07:55:36.001Z</time></trkpt><trkpt lat="42.94786714582839" lon="-2.079347595659554"><ele>568.0</ele><time>2026-04-30T07:55:37.001Z</time></trkpt><trkpt lat="42.947943518537144" lon="-2.079441600281941"><ele>568.0</ele><time>2026-04-30T07:55:38.001Z</time></trkpt><trkpt lat="42.948026539943086" lon="-2.0795282435761435"><ele>568.0</ele><time>2026-04-30T07:55:39.001Z</time></trkpt><trkpt lat="42.94811041151257" lon="-2.0796085551122654"><ele>568.0</ele><time>2026-04-30T07:55:40.001Z</time></trkpt><trkpt lat="42.948191125252094" lon="-2.079693208065583"><ele>568.0</ele><time>2026-04-30T07:55:41.001Z</time></trkpt><trkpt lat="42.948268494579466" lon="-2.0797810799056737"><ele>568.0</ele><time>2026-04-30T07:55:42.001Z</time></trkpt><trkpt lat="42.9483554894227" lon="-2.079889134048619"><ele>567.4</ele><time>2026-04-30T07:55:43.001Z</time></trkpt><trkpt lat="42.94842561934397" lon="-2.0799828300531855"><ele>566.8</ele><time>2026-04-30T07:55:44.001Z</time></trkpt><trkpt lat="42.94849802919011" lon="-2.080076928973128"><ele>566.2</ele><time>2026-04-30T07:55:45.002Z</time></trkpt><trkpt lat="42.94857255990789" lon="-2.080169658464877"><ele>565.6</ele><time>2026-04-30T07:55:46.002Z</time></trkpt><trkpt lat="42.94865045155777" lon="-2.080270348677827"><ele>565.0</ele><time>2026-04-30T07:55:47.002Z</time></trkpt><trkpt lat="42.94873471207863" lon="-2.0803659999939397"><ele>565.0</ele><time>2026-04-30T07:55:48.002Z</time></trkpt><trkpt lat="42.94881700513218" lon="-2.0804652442651057"><ele>565.0</ele><time>2026-04-30T07:55:49.002Z</time></trkpt><trkpt lat="42.94890600830005" lon="-2.0805786721042274"><ele>565.0</ele><time>2026-04-30T07:55:50.002Z</time></trkpt><trkpt lat="42.94898431738921" lon="-2.0807135351924626"><ele>565.0</ele><time>2026-04-30T07:55:51.002Z</time></trkpt><trkpt lat="42.949059646597206" lon="-2.080833743612726"><ele>562.6</ele><time>2026-04-30T07:55:52.002Z</time></trkpt><trkpt lat="42.94913597863768" lon="-2.0809295553026477"><ele>560.2</ele><time>2026-04-30T07:55:53.002Z</time></trkpt><trkpt lat="42.94919734698772" lon="-2.081052947408431"><ele>557.8</ele><time>2026-04-30T07:55:54.002Z</time></trkpt><trkpt lat="42.94926895877956" lon="-2.081134067654363"><ele>555.4</ele><time>2026-04-30T07:55:55.002Z</time></trkpt><trkpt lat="42.949341784125615" lon="-2.0812309934858195"><ele>553.0</ele><time>2026-04-30T07:55:56.002Z</time></trkpt><trkpt lat="42.94941774213264" lon="-2.081342432654476"><ele>555.1999999999999</ele><time>2026-04-30T07:55:57.002Z</time></trkpt><trkpt lat="42.94949741515934" lon="-2.0814517409594595"><ele>557.4</ele><time>2026-04-30T07:55:58Z</time></trkpt><trkpt lat="42.94957297883613" lon="-2.0815607345073177"><ele>559.5999999999999</ele><time>2026-04-30T07:55:59Z</time></trkpt><trkpt lat="42.949657136374725" lon="-2.0816503864477243"><ele>561.8</ele><time>2026-04-30T07:56:00Z</time></trkpt><trkpt lat="42.94973651561144" lon="-2.0817331412951305"><ele>564.0</ele><time>2026-04-30T07:56:01Z</time></trkpt><trkpt lat="42.94981669239361" lon="-2.0818043915460596"><ele>564.0</ele><time>2026-04-30T07:56:02Z</time></trkpt><trkpt lat="42.94990238321019" lon="-2.081855592596954"><ele>564.0</ele><time>2026-04-30T07:56:03Z</time></trkpt><trkpt lat="42.950008557480515" lon="-2.08190687223111"><ele>564.0</ele><time>2026-04-30T07:56:04Z</time></trkpt><trkpt lat="42.95010746715496" lon="-2.0820471448064435"><ele>564.0</ele><time>2026-04-30T07:56:05Z</time></trkpt><trkpt lat="42.95020966326738" lon="-2.082108488757185"><ele>563.0</ele><time>2026-04-30T07:56:06Z</time></trkpt><trkpt lat="42.95032365687632" lon="-2.082210941666674"><ele>562.0</ele><time>2026-04-30T07:56:07Z</time></trkpt><trkpt lat="42.95041884902267" lon="-2.082321217379596"><ele>561.0</ele><time>2026-04-30T07:56:08Z</time></trkpt><trkpt lat="42.950509183253665" lon="-2.082437015537452"><ele>560.0</ele><time>2026-04-30T07:56:09Z</time></trkpt><trkpt lat="42.95062785427639" lon="-2.0825521008534604"><ele>560.0</ele><time>2026-04-30T07:56:10Z</time></trkpt><trkpt lat="42.9507431482571" lon="-2.082650481507683"><ele>560.0</ele><time>2026-04-30T07:56:11Z</time></trkpt><trkpt lat="42.95085876746847" lon="-2.082741032816947"><ele>560.0</ele><time>2026-04-30T07:56:12Z</time></trkpt><trkpt lat="42.95097567704842" lon="-2.08280165795111"><ele>560.0</ele><time>2026-04-30T07:56:13Z</time></trkpt><trkpt lat="42.95101782274586" lon="-2.082391940701998"><ele>559.8</ele><time>2026-04-30T07:56:14Z</time></trkpt><trkpt lat="42.95111812421034" lon="-2.082399738153384"><ele>559.6</ele><time>2026-04-30T07:56:15Z</time></trkpt><trkpt lat="42.951220502207704" lon="-2.0824174232290176"><ele>559.4</ele><time>2026-04-30T07:56:16Z</time></trkpt><trkpt lat="42.9513234484042" lon="-2.082447807944427"><ele>559.2</ele><time>2026-04-30T07:56:17Z</time></trkpt><trkpt lat="42.95142629163869" lon="-2.082473566156538"><ele>559.0</ele><time>2026-04-30T07:56:18Z</time></trkpt><trkpt lat="42.9515412770859" lon="-2.082518862653883"><ele>559.0</ele><time>2026-04-30T07:56:19Z</time></trkpt><trkpt lat="42.951634916929216" lon="-2.0825621292206042"><ele>559.0</ele><time>2026-04-30T07:56:20Z</time></trkpt><trkpt lat="42.95172909610529" lon="-2.082625538240056"><ele>559.0</ele><time>2026-04-30T07:56:21Z</time></trkpt><trkpt lat="42.951813627372694" lon="-2.0827036169691846"><ele>559.0</ele><time>2026-04-30T07:56:22Z</time></trkpt><trkpt lat="42.9518973003387" lon="-2.08278736702203"><ele>559.0</ele><time>2026-04-30T07:56:23Z</time></trkpt><trkpt lat="42.95198173811248" lon="-2.0828722372399184"><ele>563.2</ele><time>2026-04-30T07:56:24Z</time></trkpt><trkpt lat="42.952067141890694" lon="-2.0829493944343542"><ele>567.4</ele><time>2026-04-30T07:56:25Z</time></trkpt><trkpt lat="42.952160243160755" lon="-2.0830139406302197"><ele>571.6</ele><time>2026-04-30T07:56:26Z</time></trkpt><trkpt lat="42.95225388538954" lon="-2.0830838901853457"><ele>575.8</ele><time>2026-04-30T07:56:27Z</time></trkpt><trkpt lat="42.95235259546095" lon="-2.0831285844569245"><ele>580.0</ele><time>2026-04-30T07:56:28Z</time></trkpt><trkpt lat="42.95245506839819" lon="-2.0831670880567312"><ele>577.2</ele><time>2026-04-30T07:56:29Z</time></trkpt><trkpt lat="42.95255385709313" lon="-2.0832060604392644"><ele>574.4</ele><time>2026-04-30T07:56:30Z</time></trkpt><trkpt lat="42.952659080645134" lon="-2.083233440682083"><ele>571.6</ele><time>2026-04-30T07:56:31Z</time></trkpt><trkpt lat="42.952763216499385" lon="-2.083253565106577"><ele>568.8</ele><time>2026-04-30T07:56:32Z</time></trkpt><trkpt lat="42.95286620169205" lon="-2.0832741661326915"><ele>566.0</ele><time>2026-04-30T07:56:33Z</time></trkpt><trkpt lat="42.952973257656" lon="-2.083285075581042"><ele>566.0</ele><time>2026-04-30T07:56:34Z</time></trkpt><trkpt lat="42.95307666108563" lon="-2.0833068034357214"><ele>566.0</ele><time>2026-04-30T07:56:35Z</time></trkpt><trkpt lat="42.953183929393134" lon="-2.0833300451915187"><ele>566.0</ele><time>2026-04-30T07:56:36Z</time></trkpt><trkpt lat="42.95327962039482" lon="-2.0833685577031598"><ele>566.0</ele><time>2026-04-30T07:56:37Z</time></trkpt><trkpt lat="42.953387625716715" lon="-2.0833960233682993"><ele>566.0</ele><time>2026-04-30T07:56:38Z</time></trkpt><trkpt lat="42.95350044625895" lon="-2.0834283548922268"><ele>566.6</ele><time>2026-04-30T07:56:39Z</time></trkpt><trkpt lat="42.95359281492973" lon="-2.0834724579479467"><ele>567.2</ele><time>2026-04-30T07:56:40Z</time></trkpt><trkpt lat="42.95368290754142" lon="-2.0834801630199986"><ele>567.8</ele><time>2026-04-30T07:56:41Z</time></trkpt><trkpt lat="42.953787059482515" lon="-2.0835088470276837"><ele>568.4</ele><time>2026-04-30T07:56:42Z</time></trkpt><trkpt lat="42.953890204377764" lon="-2.0835692377493897"><ele>569.0</ele><time>2026-04-30T07:56:43Z</time></trkpt><trkpt lat="42.953992343544975" lon="-2.0836376574818347"><ele>569.0</ele><time>2026-04-30T07:56:44Z</time></trkpt><trkpt lat="42.954095721986796" lon="-2.083710469677872"><ele>569.0</ele><time>2026-04-30T07:56:45Z</time></trkpt><trkpt lat="42.95418385207094" lon="-2.0837870656612596"><ele>569.0</ele><time>2026-04-30T07:56:46Z</time></trkpt><trkpt lat="42.95426455539974" lon="-2.0838707386399133"><ele>569.0</ele><time>2026-04-30T07:56:47Z</time></trkpt><trkpt lat="42.95433134134507" lon="-2.0839612593629044"><ele>569.0</ele><time>2026-04-30T07:56:48.001Z</time></trkpt><trkpt lat="42.9544308109483" lon="-2.0840368195073773"><ele>567.4</ele><time>2026-04-30T07:56:49.001Z</time></trkpt><trkpt lat="42.95453845194539" lon="-2.0841104010172256"><ele>565.8</ele><time>2026-04-30T07:56:50.001Z</time></trkpt><trkpt lat="42.95463418317922" lon="-2.0841912630696005"><ele>564.2</ele><time>2026-04-30T07:56:51.001Z</time></trkpt><trkpt lat="42.95472375140991" lon="-2.08426909900648"><ele>562.6</ele><time>2026-04-30T07:56:52.001Z</time></trkpt><trkpt lat="42.95480944490135" lon="-2.0843549631183893"><ele>561.0</ele><time>2026-04-30T07:56:53.001Z</time></trkpt><trkpt lat="42.95489794902482" lon="-2.08443722568517"><ele>561.0</ele><time>2026-04-30T07:56:54.001Z</time></trkpt><trkpt lat="42.954985171112774" lon="-2.084523757290864"><ele>561.0</ele><time>2026-04-30T07:56:55.001Z</time></trkpt><trkpt lat="42.955082739591916" lon="-2.084609451911007"><ele>561.0</ele><time>2026-04-30T07:56:56.001Z</time></trkpt><trkpt lat="42.955167921915724" lon="-2.084696035733061"><ele>561.0</ele><time>2026-04-30T07:56:57.001Z</time></trkpt><trkpt lat="42.955262259284055" lon="-2.0847716575479396"><ele>561.0</ele><time>2026-04-30T07:56:58.001Z</time></trkpt><trkpt lat="42.955344391617366" lon="-2.0848537806890213"><ele>561.2</ele><time>2026-04-30T07:56:59.001Z</time></trkpt><trkpt lat="42.95543901302175" lon="-2.08494292669629"><ele>561.4000000000001</ele><time>2026-04-30T07:57:00.001Z</time></trkpt><trkpt lat="42.955534061070196" lon="-2.0850245793850406"><ele>561.6</ele><time>2026-04-30T07:57:01.001Z</time></trkpt><trkpt lat="42.955624850398294" lon="-2.0851110105630526"><ele>561.8000000000001</ele><time>2026-04-30T07:57:02.001Z</time></trkpt><trkpt lat="42.95570960126507" lon="-2.0851923110379564"><ele>562.0</ele><time>2026-04-30T07:57:03.001Z</time></trkpt><trkpt lat="42.95579077044678" lon="-2.0852714160979815"><ele>564.6</ele><time>2026-04-30T07:57:04.001Z</time></trkpt><trkpt lat="42.955877875765" lon="-2.0853476798690926"><ele>567.2</ele><time>2026-04-30T07:57:05.001Z</time></trkpt><trkpt lat="42.95597258607305" lon="-2.085430213010768"><ele>569.8</ele><time>2026-04-30T07:57:06.001Z</time></trkpt><trkpt lat="42.95606221997176" lon="-2.0855125392324445"><ele>572.4</ele><time>2026-04-30T07:57:07.001Z</time></trkpt><trkpt lat="42.95615239113947" lon="-2.0855888836686085"><ele>575.0</ele><time>2026-04-30T07:57:08.001Z</time></trkpt><trkpt lat="42.95624207067282" lon="-2.0856706462920758"><ele>575.0</ele><time>2026-04-30T07:57:09.001Z</time></trkpt><trkpt lat="42.95633145731727" lon="-2.0857340089877403"><ele>575.0</ele><time>2026-04-30T07:57:10.001Z</time></trkpt><trkpt lat="42.95641330438751" lon="-2.085834658332205"><ele>575.0</ele><time>2026-04-30T07:57:11.001Z</time></trkpt><trkpt lat="42.95649311298043" lon="-2.085923615381408"><ele>575.0</ele><time>2026-04-30T07:57:12.001Z</time></trkpt><trkpt lat="42.95657408827027" lon="-2.0860121880185325"><ele>575.0</ele><time>2026-04-30T07:57:13.001Z</time></trkpt><trkpt lat="42.956666901777155" lon="-2.086093732943224"><ele>576.0</ele><time>2026-04-30T07:57:14.001Z</time></trkpt><trkpt lat="42.956745892187875" lon="-2.086160510041022"><ele>577.0</ele><time>2026-04-30T07:57:15.001Z</time></trkpt><trkpt lat="42.95683831648033" lon="-2.0862116806431814"><ele>578.0</ele><time>2026-04-30T07:57:16.001Z</time></trkpt><trkpt lat="42.956932091115625" lon="-2.0862508887415796"><ele>579.0</ele><time>2026-04-30T07:57:17.001Z</time></trkpt><trkpt lat="42.95702640839883" lon="-2.0862832274696537"><ele>580.0</ele><time>2026-04-30T07:57:18.001Z</time></trkpt><trkpt lat="42.957120145249135" lon="-2.0863063470951806"><ele>580.0</ele><time>2026-04-30T07:57:19.001Z</time></trkpt><trkpt lat="42.95722000454269" lon="-2.0863290204688503"><ele>580.0</ele><time>2026-04-30T07:57:20.001Z</time></trkpt><trkpt lat="42.957318228288116" lon="-2.0863833614052747"><ele>580.0</ele><time>2026-04-30T07:57:21.001Z</time></trkpt><trkpt lat="42.95740275570019" lon="-2.086456127543192"><ele>580.0</ele><time>2026-04-30T07:57:22.001Z</time></trkpt><trkpt lat="42.95747574118878" lon="-2.086548618234873"><ele>580.0</ele><time>2026-04-30T07:57:23.001Z</time></trkpt><trkpt lat="42.957545338609904" lon="-2.08664466234558"><ele>580.8</ele><time>2026-04-30T07:57:24.001Z</time></trkpt><trkpt lat="42.95761204993104" lon="-2.086740252757813"><ele>581.6</ele><time>2026-04-30T07:57:25.001Z</time></trkpt><trkpt lat="42.95767323330822" lon="-2.0868431419563196"><ele>582.4</ele><time>2026-04-30T07:57:26.001Z</time></trkpt><trkpt lat="42.957741220084664" lon="-2.0869370629307933"><ele>583.2</ele><time>2026-04-30T07:57:27.001Z</time></trkpt><trkpt lat="42.957809832480784" lon="-2.087033566278498"><ele>584.0</ele><time>2026-04-30T07:57:28.001Z</time></trkpt><trkpt lat="42.95788198893458" lon="-2.0871261263225658"><ele>584.0</ele><time>2026-04-30T07:57:29.001Z</time></trkpt><trkpt lat="42.95795303523542" lon="-2.087219074691156"><ele>584.0</ele><time>2026-04-30T07:57:30.001Z</time></trkpt><trkpt lat="42.958032789187456" lon="-2.0873040823091795"><ele>584.0</ele><time>2026-04-30T07:57:31.001Z</time></trkpt><trkpt lat="42.95808348477088" lon="-2.087417849016082"><ele>584.0</ele><time>2026-04-30T07:57:32.001Z</time></trkpt><trkpt lat="42.95817014754979" lon="-2.0874904397049168"><ele>584.0</ele><time>2026-04-30T07:57:33.001Z</time></trkpt><trkpt lat="42.95824743544487" lon="-2.087584263444037"><ele>583.6</ele><time>2026-04-30T07:57:34.001Z</time></trkpt><trkpt lat="42.9583294543981" lon="-2.0876767631518502"><ele>583.2</ele><time>2026-04-30T07:57:35.001Z</time></trkpt><trkpt lat="42.95840127701346" lon="-2.0877706227323856"><ele>582.8000000000001</ele><time>2026-04-30T07:57:36.001Z</time></trkpt><trkpt lat="42.95847579683013" lon="-2.0878588030774448"><ele>582.4</ele><time>2026-04-30T07:57:37.001Z</time></trkpt><trkpt lat="42.95854839854941" lon="-2.087943026535818"><ele>582.0</ele><time>2026-04-30T07:57:38.001Z</time></trkpt><trkpt lat="42.95862370807579" lon="-2.0880259148926084"><ele>582.0</ele><time>2026-04-30T07:57:39.001Z</time></trkpt><trkpt lat="42.958703450247825" lon="-2.0881153287444936"><ele>582.0</ele><time>2026-04-30T07:57:40.001Z</time></trkpt><trkpt lat="42.95877394583886" lon="-2.0882029770557384"><ele>582.0</ele><time>2026-04-30T07:57:41.001Z</time></trkpt><trkpt lat="42.958849816413135" lon="-2.088272608122989"><ele>582.0</ele><time>2026-04-30T07:57:42.001Z</time></trkpt><trkpt lat="42.95893032139428" lon="-2.088337433195192"><ele>582.0</ele><time>2026-04-30T07:57:43.001Z</time></trkpt><trkpt lat="42.95901851577883" lon="-2.088381910661803"><ele>579.8000000000001</ele><time>2026-04-30T07:57:44.001Z</time></trkpt><trkpt lat="42.95910847806318" lon="-2.0884107828792384"><ele>577.6</ele><time>2026-04-30T07:57:45.001Z</time></trkpt><trkpt lat="42.9592029051108" lon="-2.0884190443451973"><ele>575.4000000000001</ele><time>2026-04-30T07:57:46.001Z</time></trkpt><trkpt lat="42.95929893980451" lon="-2.088410567338792"><ele>573.2</ele><time>2026-04-30T07:57:47.002Z</time></trkpt><trkpt lat="42.95939247262813" lon="-2.0883781644596615"><ele>571.0</ele><time>2026-04-30T07:57:48.002Z</time></trkpt><trkpt lat="42.959483486557744" lon="-2.0883804928949723"><ele>571.0</ele><time>2026-04-30T07:57:49.002Z</time></trkpt><trkpt lat="42.95957880782247" lon="-2.0883812002399207"><ele>571.0</ele><time>2026-04-30T07:57:50.002Z</time></trkpt><trkpt lat="42.95967646341934" lon="-2.0883980340386867"><ele>571.0</ele><time>2026-04-30T07:57:51.002Z</time></trkpt><trkpt lat="42.95977638659707" lon="-2.088411988944374"><ele>571.0</ele><time>2026-04-30T07:57:52.002Z</time></trkpt><trkpt lat="42.959885111178096" lon="-2.088411003503195"><ele>571.0</ele><time>2026-04-30T07:57:53.002Z</time></trkpt><trkpt lat="42.95998280258955" lon="-2.0884327997866143"><ele>571.8</ele><time>2026-04-30T07:57:54.002Z</time></trkpt><trkpt lat="42.96006399883967" lon="-2.0884615748754114"><ele>572.6</ele><time>2026-04-30T07:57:55.002Z</time></trkpt><trkpt lat="42.96016792226769" lon="-2.0884847872539822"><ele>573.4</ele><time>2026-04-30T07:57:56.002Z</time></trkpt><trkpt lat="42.96025620305955" lon="-2.088513867552366"><ele>574.2</ele><time>2026-04-30T07:57:57.002Z</time></trkpt><trkpt lat="42.96033044644126" lon="-2.088566170932361"><ele>575.0</ele><time>2026-04-30T07:57:58.002Z</time></trkpt><trkpt lat="42.960415830280844" lon="-2.088655050259512"><ele>575.0</ele><time>2026-04-30T07:57:59.002Z</time></trkpt><trkpt lat="42.96046389652899" lon="-2.0887556990768554"><ele>575.0</ele><time>2026-04-30T07:58:00.002Z</time></trkpt><trkpt lat="42.9605037744366" lon="-2.088857898671705"><ele>575.0</ele><time>2026-04-30T07:58:01.002Z</time></trkpt><trkpt lat="42.960539109526906" lon="-2.0889590958192756"><ele>575.0</ele><time>2026-04-30T07:58:02.002Z</time></trkpt><trkpt lat="42.96054800500304" lon="-2.089062597156536"><ele>575.0</ele><time>2026-04-30T07:58:03.002Z</time></trkpt><trkpt lat="42.96054092174639" lon="-2.0891548504676933"><ele>575.0</ele><time>2026-04-30T07:58:04Z</time></trkpt><trkpt lat="42.96049430026979" lon="-2.0892363811773693"><ele>577.6666666666666</ele><time>2026-04-30T07:58:05Z</time></trkpt><trkpt lat="42.96042854461586" lon="-2.0892943713379326"><ele>580.3333333333333</ele><time>2026-04-30T07:58:06Z</time></trkpt><trkpt lat="42.96035788398514" lon="-2.089343015264505"><ele>583.0</ele><time>2026-04-30T07:58:07Z</time></trkpt><trkpt lat="42.960286196452785" lon="-2.089364612541309"><ele>585.6666666666666</ele><time>2026-04-30T07:58:08Z</time></trkpt><trkpt lat="42.960200212308166" lon="-2.089342542984069"><ele>588.3333333333334</ele><time>2026-04-30T07:58:09Z</time></trkpt><trkpt lat="42.96012818759181" lon="-2.089349683021105"><ele>591.0</ele><time>2026-04-30T07:58:10Z</time></trkpt><trkpt lat="42.96005257656966" lon="-2.089332468644478"><ele>589.2857142857142</ele><time>2026-04-30T07:58:11Z</time></trkpt><trkpt lat="42.95997683772949" lon="-2.089302284157207"><ele>587.5714285714286</ele><time>2026-04-30T07:58:12Z</time></trkpt><trkpt lat="42.95990341828206" lon="-2.089295528730127"><ele>585.8571428571429</ele><time>2026-04-30T07:58:13Z</time></trkpt><trkpt lat="42.95982527642168" lon="-2.0892855164669877"><ele>584.1428571428571</ele><time>2026-04-30T07:58:14Z</time></trkpt><trkpt lat="42.95974937697549" lon="-2.089280139457046"><ele>582.4285714285714</ele><time>2026-04-30T07:58:15Z</time></trkpt><trkpt lat="42.95967527767051" lon="-2.0892745578980594"><ele>580.7142857142857</ele><time>2026-04-30T07:58:16Z</time></trkpt><trkpt lat="42.9596228169938" lon="-2.08933389020838"><ele>579.0</ele><time>2026-04-30T07:58:17Z</time></trkpt><trkpt lat="42.9595879743843" lon="-2.0894925377107096"><ele>579.0</ele><time>2026-04-30T07:58:18Z</time></trkpt><trkpt lat="42.959565573623216" lon="-2.0896088738266902"><ele>579.0</ele><time>2026-04-30T07:58:19Z</time></trkpt><trkpt lat="42.959552941497535" lon="-2.089718827944652"><ele>579.0</ele><time>2026-04-30T07:58:20Z</time></trkpt><trkpt lat="42.95955290514611" lon="-2.089822313684859"><ele>579.0</ele><time>2026-04-30T07:58:21Z</time></trkpt><trkpt lat="42.95955382242775" lon="-2.0899246547302757"><ele>579.0</ele><time>2026-04-30T07:58:22Z</time></trkpt><trkpt lat="42.959559623441045" lon="-2.090030195393301"><ele>579.0</ele><time>2026-04-30T07:58:23Z</time></trkpt><trkpt lat="42.95957138958567" lon="-2.0901284842455126"><ele>582.0</ele><time>2026-04-30T07:58:24Z</time></trkpt><trkpt lat="42.95958064375008" lon="-2.0902369920111026"><ele>585.0</ele><time>2026-04-30T07:58:25Z</time></trkpt><trkpt lat="42.95957935942112" lon="-2.090348285502242"><ele>588.0</ele><time>2026-04-30T07:58:26Z</time></trkpt><trkpt lat="42.95959040492159" lon="-2.0904555620133696"><ele>591.0</ele><time>2026-04-30T07:58:27Z</time></trkpt><trkpt lat="42.95959843199775" lon="-2.0905567388665345"><ele>594.0</ele><time>2026-04-30T07:58:28Z</time></trkpt><trkpt lat="42.95960490486221" lon="-2.090665874859138"><ele>597.0</ele><time>2026-04-30T07:58:29Z</time></trkpt><trkpt lat="42.95961401258003" lon="-2.0907810987170086"><ele>598.3333333333334</ele><time>2026-04-30T07:58:30Z</time></trkpt><trkpt lat="42.95962083716358" lon="-2.0908862150270418"><ele>599.6666666666666</ele><time>2026-04-30T07:58:31Z</time></trkpt><trkpt lat="42.95961754061109" lon="-2.0910270919590093"><ele>601.0</ele><time>2026-04-30T07:58:32Z</time></trkpt><trkpt lat="42.95961780240639" lon="-2.0911140246339546"><ele>602.3333333333333</ele><time>2026-04-30T07:58:33Z</time></trkpt><trkpt lat="42.9596150065495" lon="-2.0912208810984785"><ele>603.6666666666666</ele><time>2026-04-30T07:58:34Z</time></trkpt><trkpt lat="42.95960528675775" lon="-2.091325796609975"><ele>605.0</ele><time>2026-04-30T07:58:35Z</time></trkpt><trkpt lat="42.95959314156403" lon="-2.091436897771729"><ele>605.0</ele><time>2026-04-30T07:58:36Z</time></trkpt><trkpt lat="42.95957735855313" lon="-2.0915434414913214"><ele>605.0</ele><time>2026-04-30T07:58:37Z</time></trkpt><trkpt lat="42.959574423352564" lon="-2.0916528820334848"><ele>605.0</ele><time>2026-04-30T07:58:38Z</time></trkpt><trkpt lat="42.95959542322168" lon="-2.0917418420896254"><ele>605.0</ele><time>2026-04-30T07:58:39Z</time></trkpt><trkpt lat="42.95958992425668" lon="-2.0918558079469056"><ele>605.0</ele><time>2026-04-30T07:58:40Z</time></trkpt><trkpt lat="42.95959180792192" lon="-2.0919755273224787"><ele>605.0</ele><time>2026-04-30T07:58:41Z</time></trkpt><trkpt lat="42.95960793976972" lon="-2.092073617524337"><ele>605.6</ele><time>2026-04-30T07:58:42Z</time></trkpt><trkpt lat="42.959615443532954" lon="-2.0921906344354078"><ele>606.2</ele><time>2026-04-30T07:58:43.001Z</time></trkpt><trkpt lat="42.9596291022654" lon="-2.092289883644281"><ele>606.8</ele><time>2026-04-30T07:58:44.001Z</time></trkpt><trkpt lat="42.9596409069988" lon="-2.0924014486688307"><ele>607.4</ele><time>2026-04-30T07:58:45.001Z</time></trkpt><trkpt lat="42.95964355751513" lon="-2.0925137033314303"><ele>608.0</ele><time>2026-04-30T07:58:46.001Z</time></trkpt><trkpt lat="42.95965344547009" lon="-2.092716423139401"><ele>608.1666666666666</ele><time>2026-04-30T07:58:48.001Z</time></trkpt><trkpt lat="42.95967168024013" lon="-2.0928380720049686"><ele>608.3333333333333</ele><time>2026-04-30T07:58:49.001Z</time></trkpt><trkpt lat="42.959681981158674" lon="-2.0929476031262397"><ele>608.5</ele><time>2026-04-30T07:58:50.001Z</time></trkpt><trkpt lat="42.95969791439905" lon="-2.0930556472999795"><ele>608.6666666666666</ele><time>2026-04-30T07:58:51.001Z</time></trkpt><trkpt lat="42.95971324541579" lon="-2.093162848078123"><ele>608.8333333333334</ele><time>2026-04-30T07:58:52.001Z</time></trkpt><trkpt lat="42.95973312902724" lon="-2.093266530298908"><ele>609.0</ele><time>2026-04-30T07:58:53.001Z</time></trkpt><trkpt lat="42.959744973730665" lon="-2.093375134450395"><ele>609.6666666666666</ele><time>2026-04-30T07:58:54.001Z</time></trkpt><trkpt lat="42.95975230298905" lon="-2.0934862944418815"><ele>610.3333333333334</ele><time>2026-04-30T07:58:55.001Z</time></trkpt><trkpt lat="42.95975636654496" lon="-2.0935968808788346"><ele>611.0</ele><time>2026-04-30T07:58:56.001Z</time></trkpt><trkpt lat="42.95975798688302" lon="-2.0937007816185256"><ele>611.6666666666667</ele><time>2026-04-30T07:58:57.001Z</time></trkpt><trkpt lat="42.95976026439515" lon="-2.0937912026525503"><ele>612.3333333333334</ele><time>2026-04-30T07:58:58.001Z</time></trkpt><trkpt lat="42.95976420151484" lon="-2.0938928459542137"><ele>613.0</ele><time>2026-04-30T07:58:59.001Z</time></trkpt><trkpt lat="42.959768205955726" lon="-2.0939952073150105"><ele>613.3333333333334</ele><time>2026-04-30T07:59:00.001Z</time></trkpt><trkpt lat="42.959771832276694" lon="-2.0940968372121715"><ele>613.6666666666667</ele><time>2026-04-30T07:59:01.001Z</time></trkpt><trkpt lat="42.95977323771176" lon="-2.0942182574786545"><ele>614.0</ele><time>2026-04-30T07:59:02.001Z</time></trkpt><trkpt lat="42.9597720060496" lon="-2.0943300442480033"><ele>614.3333333333334</ele><time>2026-04-30T07:59:03.001Z</time></trkpt><trkpt lat="42.95976586639431" lon="-2.0944378963381163"><ele>614.6666666666666</ele><time>2026-04-30T07:59:04.001Z</time></trkpt><trkpt lat="42.95975274156756" lon="-2.0945371142128875"><ele>615.0</ele><time>2026-04-30T07:59:05.001Z</time></trkpt><trkpt lat="42.95977478421236" lon="-2.094670239671843"><ele>615.0</ele><time>2026-04-30T07:59:06.001Z</time></trkpt><trkpt lat="42.959771272553844" lon="-2.09478504625746"><ele>615.0</ele><time>2026-04-30T07:59:07.001Z</time></trkpt><trkpt lat="42.959764264046285" lon="-2.0948943834748217"><ele>615.0</ele><time>2026-04-30T07:59:08.001Z</time></trkpt><trkpt lat="42.959761770383025" lon="-2.0950032724975514"><ele>615.0</ele><time>2026-04-30T07:59:09.001Z</time></trkpt><trkpt lat="42.959763011700765" lon="-2.095109114307932"><ele>615.0</ele><time>2026-04-30T07:59:10.001Z</time></trkpt><trkpt lat="42.959772521757934" lon="-2.095210354517395"><ele>615.0</ele><time>2026-04-30T07:59:11.001Z</time></trkpt><trkpt lat="42.95979236841581" lon="-2.0953022567269657"><ele>615.3333333333334</ele><time>2026-04-30T07:59:12.001Z</time></trkpt><trkpt lat="42.95982017463383" lon="-2.095404128292317"><ele>615.6666666666666</ele><time>2026-04-30T07:59:13.001Z</time></trkpt><trkpt lat="42.95984714576461" lon="-2.095496295436591"><ele>616.0</ele><time>2026-04-30T07:59:14.001Z</time></trkpt><trkpt lat="42.95988594842905" lon="-2.095595837227595"><ele>616.3333333333333</ele><time>2026-04-30T07:59:15.001Z</time></trkpt><trkpt lat="42.95992610852361" lon="-2.0956866811933446"><ele>616.6666666666666</ele><time>2026-04-30T07:59:16.001Z</time></trkpt><trkpt lat="42.95997769754476" lon="-2.095783770562243"><ele>617.0</ele><time>2026-04-30T07:59:17.001Z</time></trkpt><trkpt lat="42.960019340355686" lon="-2.0958625122416707"><ele>621.4</ele><time>2026-04-30T07:59:18.001Z</time></trkpt><trkpt lat="42.960060848339154" lon="-2.0959611779057674"><ele>625.8000000000001</ele><time>2026-04-30T07:59:19.001Z</time></trkpt><trkpt lat="42.96009396770885" lon="-2.09606285564896"><ele>630.2</ele><time>2026-04-30T07:59:20.001Z</time></trkpt><trkpt lat="42.96013430558178" lon="-2.0961634376676237"><ele>634.6</ele><time>2026-04-30T07:59:21.001Z</time></trkpt><trkpt lat="42.96017849872123" lon="-2.0963351705566846"><ele>639.0</ele><time>2026-04-30T07:59:23.001Z</time></trkpt><trkpt lat="42.960203731288956" lon="-2.0964304250553973"><ele>639.0</ele><time>2026-04-30T07:59:24.001Z</time></trkpt><trkpt lat="42.96024584743269" lon="-2.0965347376042742"><ele>639.0</ele><time>2026-04-30T07:59:25.001Z</time></trkpt><trkpt lat="42.96025616632211" lon="-2.096641442762117"><ele>639.0</ele><time>2026-04-30T07:59:26.001Z</time></trkpt><trkpt lat="42.96026739169328" lon="-2.0967497445233354"><ele>639.0</ele><time>2026-04-30T07:59:27.001Z</time></trkpt><trkpt lat="42.960277133953674" lon="-2.0968603647885784"><ele>639.0</ele><time>2026-04-30T07:59:28.001Z</time></trkpt><trkpt lat="42.960286660879355" lon="-2.096967134728008"><ele>639.0</ele><time>2026-04-30T07:59:29.001Z</time></trkpt><trkpt lat="42.960268126575166" lon="-2.0970918711765623"><ele>641.0</ele><time>2026-04-30T07:59:30.001Z</time></trkpt><trkpt lat="42.96027195933121" lon="-2.097191203917086"><ele>643.0</ele><time>2026-04-30T07:59:31.001Z</time></trkpt><trkpt lat="42.96026904683981" lon="-2.097352555013334"><ele>645.0</ele><time>2026-04-30T07:59:33.001Z</time></trkpt><trkpt lat="42.96030212175005" lon="-2.097253273590847"><ele>647.0</ele><time>2026-04-30T07:59:38.001Z</time></trkpt><trkpt lat="42.960333679513624" lon="-2.097114804220515"><ele>649.0</ele><time>2026-04-30T07:59:39.001Z</time></trkpt><trkpt lat="42.96026909389466" lon="-2.0969405106789827"><ele>649.0</ele><time>2026-04-30T07:59:40.001Z</time></trkpt><trkpt lat="42.96026257977675" lon="-2.096746145842151"><ele>649.0</ele><time>2026-04-30T07:59:41.001Z</time></trkpt><trkpt lat="42.960044373829234" lon="-2.098265994547605"><ele>649.0</ele><time>2026-04-30T07:59:42.001Z</time></trkpt><trkpt lat="42.96003029329598" lon="-2.0983810020235962"><ele>649.0</ele><time>2026-04-30T07:59:43.001Z</time></trkpt><trkpt lat="42.96003756275964" lon="-2.0984889985147976"><ele>649.0</ele><time>2026-04-30T07:59:44.001Z</time></trkpt><trkpt lat="42.96006856457162" lon="-2.098582823886725"><ele>649.0</ele><time>2026-04-30T07:59:45.002Z</time></trkpt><trkpt lat="42.96011425371858" lon="-2.098651294003713"><ele>649.0</ele><time>2026-04-30T07:59:46.002Z</time></trkpt><trkpt lat="42.96014887579982" lon="-2.098738136870584"><ele>649.0</ele><time>2026-04-30T07:59:47.002Z</time></trkpt><trkpt lat="42.96018606682203" lon="-2.098829626461932"><ele>649.0</ele><time>2026-04-30T07:59:48.002Z</time></trkpt><trkpt lat="42.9602324928594" lon="-2.0989247296044016"><ele>649.0</ele><time>2026-04-30T07:59:49.002Z</time></trkpt><trkpt lat="42.96028104789401" lon="-2.099026748057299"><ele>649.0</ele><time>2026-04-30T07:59:50.002Z</time></trkpt><trkpt lat="42.96032243003703" lon="-2.0991204546193214"><ele>649.0</ele><time>2026-04-30T07:59:51.002Z</time></trkpt><trkpt lat="42.96036688162758" lon="-2.0992047979524218"><ele>649.0</ele><time>2026-04-30T07:59:52.002Z</time></trkpt><trkpt lat="42.96039548534113" lon="-2.0992883734096224"><ele>649.0</ele><time>2026-04-30T07:59:53.002Z</time></trkpt><trkpt lat="42.96041210967411" lon="-2.099388727266537"><ele>648.4285714285713</ele><time>2026-04-30T07:59:54.002Z</time></trkpt><trkpt lat="42.960419279121474" lon="-2.099483054034437"><ele>647.8571428571429</ele><time>2026-04-30T07:59:55.002Z</time></trkpt><trkpt lat="42.96042567048258" lon="-2.099576250829173"><ele>647.2857142857142</ele><time>2026-04-30T07:59:56.002Z</time></trkpt><trkpt lat="42.96042668581926" lon="-2.0996657081379704"><ele>646.7142857142857</ele><time>2026-04-30T07:59:57.002Z</time></trkpt><trkpt lat="42.960414997659996" lon="-2.0997538575496146"><ele>646.1428571428571</ele><time>2026-04-30T07:59:58.002Z</time></trkpt><trkpt lat="42.96039765884647" lon="-2.099844713486981"><ele>645.5714285714286</ele><time>2026-04-30T07:59:59.002Z</time></trkpt><trkpt lat="42.96035790707922" lon="-2.099932346173428"><ele>645.0</ele><time>2026-04-30T08:00:00.002Z</time></trkpt><trkpt lat="42.96035701615444" lon="-2.1000203088147593"><ele>642.3333333333334</ele><time>2026-04-30T08:00:01.002Z</time></trkpt><trkpt lat="42.96034082092568" lon="-2.1001173074598074"><ele>639.6666666666666</ele><time>2026-04-30T08:00:02.002Z</time></trkpt><trkpt lat="42.960329044495936" lon="-2.1002081591057755"><ele>637.0</ele><time>2026-04-30T08:00:03.002Z</time></trkpt><trkpt lat="42.96031918232331" lon="-2.1003170322993334"><ele>634.3333333333333</ele><time>2026-04-30T08:00:04.002Z</time></trkpt><trkpt lat="42.96030274128603" lon="-2.1004456634911874"><ele>631.6666666666666</ele><time>2026-04-30T08:00:05.002Z</time></trkpt><trkpt lat="42.96028827517567" lon="-2.1005652264341204"><ele>629.0</ele><time>2026-04-30T08:00:06.002Z</time></trkpt><trkpt lat="42.9602822752499" lon="-2.1006996137325458"><ele>627.2</ele><time>2026-04-30T08:00:07.002Z</time></trkpt><trkpt lat="42.96026400325918" lon="-2.1008309748899476"><ele>625.4</ele><time>2026-04-30T08:00:08.002Z</time></trkpt><trkpt lat="42.96025673722798" lon="-2.1009521349152296"><ele>623.6</ele><time>2026-04-30T08:00:09.002Z</time></trkpt><trkpt lat="42.96024724401359" lon="-2.101059993477517"><ele>621.8</ele><time>2026-04-30T08:00:10Z</time></trkpt><trkpt lat="42.960239817194335" lon="-2.101196027493684"><ele>620.0</ele><time>2026-04-30T08:00:11Z</time></trkpt><trkpt lat="42.96022959068015" lon="-2.10132765197204"><ele>620.0</ele><time>2026-04-30T08:00:12Z</time></trkpt><trkpt lat="42.96020555306555" lon="-2.101432433394095"><ele>620.0</ele><time>2026-04-30T08:00:13Z</time></trkpt><trkpt lat="42.96019348975991" lon="-2.1015387161540207"><ele>620.0</ele><time>2026-04-30T08:00:14Z</time></trkpt><trkpt lat="42.96018468031573" lon="-2.1016914801802407"><ele>620.0</ele><time>2026-04-30T08:00:15Z</time></trkpt><trkpt lat="42.960156917281374" lon="-2.101852709196819"><ele>620.0</ele><time>2026-04-30T08:00:16Z</time></trkpt><trkpt lat="42.96013785122585" lon="-2.1019841736950853"><ele>618.4</ele><time>2026-04-30T08:00:17Z</time></trkpt><trkpt lat="42.960120646494026" lon="-2.1021171784062602"><ele>616.8</ele><time>2026-04-30T08:00:18Z</time></trkpt><trkpt lat="42.960098400761126" lon="-2.1022462138026414"><ele>615.2</ele><time>2026-04-30T08:00:19Z</time></trkpt><trkpt lat="42.96007934603519" lon="-2.1023701568652684"><ele>613.6</ele><time>2026-04-30T08:00:20Z</time></trkpt><trkpt lat="42.960063436286084" lon="-2.102498622501159"><ele>612.0</ele><time>2026-04-30T08:00:21Z</time></trkpt><trkpt lat="42.960050715194214" lon="-2.102638333792039"><ele>612.4</ele><time>2026-04-30T08:00:22Z</time></trkpt><trkpt lat="42.96003146496412" lon="-2.1027784632690936"><ele>612.8000000000001</ele><time>2026-04-30T08:00:23Z</time></trkpt><trkpt lat="42.960019433111306" lon="-2.1029062257730513"><ele>613.2</ele><time>2026-04-30T08:00:24Z</time></trkpt><trkpt lat="42.9600022277845" lon="-2.103027232441336"><ele>613.6</ele><time>2026-04-30T08:00:25Z</time></trkpt><trkpt lat="42.95999144991334" lon="-2.1031650642689708"><ele>614.0</ele><time>2026-04-30T08:00:26Z</time></trkpt><trkpt lat="42.9600052062595" lon="-2.10332779857266"><ele>614.0</ele><time>2026-04-30T08:00:27Z</time></trkpt><trkpt lat="42.96001099744952" lon="-2.1034640155263498"><ele>614.0</ele><time>2026-04-30T08:00:28Z</time></trkpt><trkpt lat="42.960021836936" lon="-2.103567086745332"><ele>614.0</ele><time>2026-04-30T08:00:29Z</time></trkpt><trkpt lat="42.960042509089355" lon="-2.103695163677085"><ele>614.0</ele><time>2026-04-30T08:00:30Z</time></trkpt><trkpt lat="42.96004502032529" lon="-2.103815306730303"><ele>614.0</ele><time>2026-04-30T08:00:31Z</time></trkpt><trkpt lat="42.960023897230705" lon="-2.1039429970627688"><ele>614.0</ele><time>2026-04-30T08:00:32Z</time></trkpt><trkpt lat="42.95998617113667" lon="-2.104067099858133"><ele>614.0</ele><time>2026-04-30T08:00:33Z</time></trkpt><trkpt lat="42.959937607378905" lon="-2.10419126885848"><ele>614.0</ele><time>2026-04-30T08:00:34Z</time></trkpt><trkpt lat="42.95987959956251" lon="-2.104317301155038"><ele>614.0</ele><time>2026-04-30T08:00:35Z</time></trkpt><trkpt lat="42.959819557478305" lon="-2.1044306815716305"><ele>614.0</ele><time>2026-04-30T08:00:36Z</time></trkpt><trkpt lat="42.95975911167975" lon="-2.1045454812633"><ele>612.6</ele><time>2026-04-30T08:00:37Z</time></trkpt><trkpt lat="42.95972584911833" lon="-2.1046706537191797"><ele>611.2</ele><time>2026-04-30T08:00:38Z</time></trkpt><trkpt lat="42.95969235319814" lon="-2.1047982182779363"><ele>609.8000000000001</ele><time>2026-04-30T08:00:39Z</time></trkpt><trkpt lat="42.95965802299794" lon="-2.1049147107927615"><ele>608.4</ele><time>2026-04-30T08:00:40Z</time></trkpt><trkpt lat="42.95962170082551" lon="-2.1050308059986658"><ele>607.0</ele><time>2026-04-30T08:00:41Z</time></trkpt><trkpt lat="42.959574895979564" lon="-2.1051383398831436"><ele>604.0</ele><time>2026-04-30T08:00:42Z</time></trkpt><trkpt lat="42.959541355260896" lon="-2.105258908527685"><ele>601.0</ele><time>2026-04-30T08:00:43Z</time></trkpt><trkpt lat="42.95949945537592" lon="-2.1053667860605447"><ele>598.0</ele><time>2026-04-30T08:00:44Z</time></trkpt><trkpt lat="42.959453100191574" lon="-2.1054717998545915"><ele>595.0</ele><time>2026-04-30T08:00:45Z</time></trkpt><trkpt lat="42.95940564523106" lon="-2.1055808954997306"><ele>592.0</ele><time>2026-04-30T08:00:46Z</time></trkpt><trkpt lat="42.95936446767135" lon="-2.105680955165142"><ele>590.1666666666667</ele><time>2026-04-30T08:00:47Z</time></trkpt><trkpt lat="42.959327515020185" lon="-2.105789453974818"><ele>588.3333333333334</ele><time>2026-04-30T08:00:48Z</time></trkpt><trkpt lat="42.95930306576799" lon="-2.105892752141389"><ele>586.5</ele><time>2026-04-30T08:00:49Z</time></trkpt><trkpt lat="42.959305979603286" lon="-2.105996915081896"><ele>584.6666666666666</ele><time>2026-04-30T08:00:50Z</time></trkpt><trkpt lat="42.959351576330015" lon="-2.1061038249570267"><ele>582.8333333333333</ele><time>2026-04-30T08:00:51.001Z</time></trkpt><trkpt lat="42.95939804324448" lon="-2.106238698067357"><ele>581.0</ele><time>2026-04-30T08:00:52.001Z</time></trkpt><trkpt lat="42.95943772879877" lon="-2.106359505524963"><ele>581.0</ele><time>2026-04-30T08:00:53.001Z</time></trkpt><trkpt lat="42.95946570533523" lon="-2.1064745918494965"><ele>581.0</ele><time>2026-04-30T08:00:54.001Z</time></trkpt><trkpt lat="42.959476551843096" lon="-2.1065929200800344"><ele>581.0</ele><time>2026-04-30T08:00:55.001Z</time></trkpt><trkpt lat="42.95950465735493" lon="-2.106718326955975"><ele>581.0</ele><time>2026-04-30T08:00:56.001Z</time></trkpt><trkpt lat="42.959494164927" lon="-2.106852093737613"><ele>581.0</ele><time>2026-04-30T08:00:57.001Z</time></trkpt><trkpt lat="42.959449429727954" lon="-2.1069807810986747"><ele>580.0</ele><time>2026-04-30T08:00:58.001Z</time></trkpt><trkpt lat="42.9593896111642" lon="-2.10708164855026"><ele>579.0</ele><time>2026-04-30T08:00:59.001Z</time></trkpt><trkpt lat="42.95929981004652" lon="-2.107142898758368"><ele>578.0</ele><time>2026-04-30T08:01:00.001Z</time></trkpt><trkpt lat="42.959217769452934" lon="-2.1071757090007757"><ele>577.0</ele><time>2026-04-30T08:01:01.001Z</time></trkpt><trkpt lat="42.95911833986146" lon="-2.1071752853145216"><ele>576.0</ele><time>2026-04-30T08:01:02.001Z</time></trkpt><trkpt lat="42.95902924808294" lon="-2.1072104938255225"><ele>581.4</ele><time>2026-04-30T08:01:03.001Z</time></trkpt><trkpt lat="42.95893049218979" lon="-2.1072235551417933"><ele>586.8</ele><time>2026-04-30T08:01:04.001Z</time></trkpt><trkpt lat="42.958839302048474" lon="-2.1072023248689327"><ele>592.1999999999999</ele><time>2026-04-30T08:01:05.001Z</time></trkpt><trkpt lat="42.95874209003668" lon="-2.107214628789539"><ele>597.6</ele><time>2026-04-30T08:01:06.001Z</time></trkpt><trkpt lat="42.95865014673317" lon="-2.1072267238778815"><ele>603.0</ele><time>2026-04-30T08:01:07.001Z</time></trkpt><trkpt lat="42.9585676991553" lon="-2.107205295472024"><ele>603.0</ele><time>2026-04-30T08:01:08.001Z</time></trkpt><trkpt lat="42.958475283361764" lon="-2.1072060147664633"><ele>603.0</ele><time>2026-04-30T08:01:09.001Z</time></trkpt><trkpt lat="42.9584030071719" lon="-2.107218726250899"><ele>603.0</ele><time>2026-04-30T08:01:10.001Z</time></trkpt><trkpt lat="42.958324117905676" lon="-2.1072264416082356"><ele>603.0</ele><time>2026-04-30T08:01:11.001Z</time></trkpt><trkpt lat="42.95824963306649" lon="-2.107236973722408"><ele>603.0</ele><time>2026-04-30T08:01:12.001Z</time></trkpt><trkpt lat="42.95813516346205" lon="-2.1072894909384106"><ele>603.0</ele><time>2026-04-30T08:01:14.001Z</time></trkpt><trkpt lat="42.95806661191894" lon="-2.1073789190492778"><ele>600.6666666666666</ele><time>2026-04-30T08:01:15.001Z</time></trkpt><trkpt lat="42.958013231392485" lon="-2.1074685582266786"><ele>598.3333333333334</ele><time>2026-04-30T08:01:16.001Z</time></trkpt><trkpt lat="42.95795347960518" lon="-2.107539114198009"><ele>596.0</ele><time>2026-04-30T08:01:17.001Z</time></trkpt><trkpt lat="42.95790195483914" lon="-2.1076416149178527"><ele>593.6666666666667</ele><time>2026-04-30T08:01:18.001Z</time></trkpt><trkpt lat="42.957883641761576" lon="-2.107753135165027"><ele>591.3333333333334</ele><time>2026-04-30T08:01:19.001Z</time></trkpt><trkpt lat="42.9578994828927" lon="-2.107843186247808"><ele>589.0</ele><time>2026-04-30T08:01:20.001Z</time></trkpt><trkpt lat="42.95796959436403" lon="-2.1079181512138"><ele>589.0</ele><time>2026-04-30T08:01:21.001Z</time></trkpt><trkpt lat="42.958026198028264" lon="-2.1079988414583526"><ele>589.0</ele><time>2026-04-30T08:01:22.001Z</time></trkpt><trkpt lat="42.95805650352724" lon="-2.108165060778584"><ele>589.0</ele><time>2026-04-30T08:01:24.001Z</time></trkpt><trkpt lat="42.958048265191714" lon="-2.108255501283902"><ele>589.0</ele><time>2026-04-30T08:01:25.001Z</time></trkpt><trkpt lat="42.95803521415617" lon="-2.1084245144974205"><ele>589.0</ele><time>2026-04-30T08:01:27.001Z</time></trkpt><trkpt lat="42.958022524356814" lon="-2.108523135352107"><ele>586.6666666666667</ele><time>2026-04-30T08:01:28.001Z</time></trkpt><trkpt lat="42.95801543522025" lon="-2.1086111937307277"><ele>584.3333333333334</ele><time>2026-04-30T08:01:29.001Z</time></trkpt><trkpt lat="42.958058117761674" lon="-2.1086961548714345"><ele>582.0</ele><time>2026-04-30T08:01:30.001Z</time></trkpt><trkpt lat="42.958112632522635" lon="-2.108792266407521"><ele>579.6666666666666</ele><time>2026-04-30T08:01:31.001Z</time></trkpt><trkpt lat="42.95814609037136" lon="-2.1088723562455596"><ele>577.3333333333333</ele><time>2026-04-30T08:01:32.001Z</time></trkpt><trkpt lat="42.95816922763491" lon="-2.109004358921697"><ele>575.0</ele><time>2026-04-30T08:01:33.001Z</time></trkpt><trkpt lat="42.95818283062528" lon="-2.1091291104953727"><ele>574.6666666666666</ele><time>2026-04-30T08:01:34.001Z</time></trkpt><trkpt lat="42.958179469297136" lon="-2.1092405276333746"><ele>574.3333333333333</ele><time>2026-04-30T08:01:35.001Z</time></trkpt><trkpt lat="42.958180689250646" lon="-2.1093594006184238"><ele>574.0</ele><time>2026-04-30T08:01:36.001Z</time></trkpt><trkpt lat="42.95817331792636" lon="-2.1094803001502296"><ele>573.6666666666666</ele><time>2026-04-30T08:01:37.001Z</time></trkpt><trkpt lat="42.95817792170321" lon="-2.109576539662301"><ele>573.3333333333334</ele><time>2026-04-30T08:01:38.001Z</time></trkpt><trkpt lat="42.95817562654337" lon="-2.1097029367059092"><ele>573.0</ele><time>2026-04-30T08:01:39.001Z</time></trkpt><trkpt lat="42.95816730847484" lon="-2.109832798308461"><ele>572.6666666666666</ele><time>2026-04-30T08:01:40.001Z</time></trkpt><trkpt lat="42.95817600443651" lon="-2.109954311806254"><ele>572.3333333333334</ele><time>2026-04-30T08:01:41.001Z</time></trkpt><trkpt lat="42.95819484097812" lon="-2.1100648285660957"><ele>572.0</ele><time>2026-04-30T08:01:42.001Z</time></trkpt><trkpt lat="42.958213466576204" lon="-2.1101571880785635"><ele>571.6666666666667</ele><time>2026-04-30T08:01:43.001Z</time></trkpt><trkpt lat="42.95823491819432" lon="-2.110275996280791"><ele>571.3333333333334</ele><time>2026-04-30T08:01:44.001Z</time></trkpt><trkpt lat="42.95822994589874" lon="-2.1103885457889455"><ele>571.0</ele><time>2026-04-30T08:01:45.001Z</time></trkpt><trkpt lat="42.958205651827754" lon="-2.1104969334183843"><ele>571.0</ele><time>2026-04-30T08:01:46.001Z</time></trkpt><trkpt lat="42.95816833617922" lon="-2.1105969752099494"><ele>571.0</ele><time>2026-04-30T08:01:47.001Z</time></trkpt><trkpt lat="42.95810297479954" lon="-2.1106678361716433"><ele>571.0</ele><time>2026-04-30T08:01:48.001Z</time></trkpt><trkpt lat="42.9580433926044" lon="-2.1107323914151346"><ele>571.0</ele><time>2026-04-30T08:01:49.001Z</time></trkpt><trkpt lat="42.957963539257634" lon="-2.1108145118499966"><ele>571.0</ele><time>2026-04-30T08:01:50.001Z</time></trkpt><trkpt lat="42.957882026805564" lon="-2.1108776635217055"><ele>571.0</ele><time>2026-04-30T08:01:51.001Z</time></trkpt><trkpt lat="42.95780245784489" lon="-2.110929268700671"><ele>570.3333333333334</ele><time>2026-04-30T08:01:52.001Z</time></trkpt><trkpt lat="42.95772426720003" lon="-2.1109774850635805"><ele>569.6666666666667</ele><time>2026-04-30T08:01:53.001Z</time></trkpt><trkpt lat="42.9576620461177" lon="-2.111020650518872"><ele>569.0</ele><time>2026-04-30T08:01:54.001Z</time></trkpt><trkpt lat="42.95760353647915" lon="-2.1110678339114606"><ele>568.3333333333334</ele><time>2026-04-30T08:01:55.001Z</time></trkpt><trkpt lat="42.95753440816603" lon="-2.1111463890871356"><ele>567.6666666666666</ele><time>2026-04-30T08:01:56.001Z</time></trkpt><trkpt lat="42.95746650516548" lon="-2.1112156129557142"><ele>567.0</ele><time>2026-04-30T08:01:57.002Z</time></trkpt><trkpt lat="42.95742478492231" lon="-2.111330066300053"><ele>566.2</ele><time>2026-04-30T08:01:58.002Z</time></trkpt><trkpt lat="42.95738693685216" lon="-2.11144284300731"><ele>565.4000000000001</ele><time>2026-04-30T08:01:59.002Z</time></trkpt><trkpt lat="42.95733171309654" lon="-2.111556162792979"><ele>564.5999999999999</ele><time>2026-04-30T08:02:00.002Z</time></trkpt><trkpt lat="42.95728206740668" lon="-2.1116634259420692"><ele>563.8</ele><time>2026-04-30T08:02:01.002Z</time></trkpt><trkpt lat="42.957236158566594" lon="-2.1117659512303466"><ele>563.0</ele><time>2026-04-30T08:02:02.002Z</time></trkpt><trkpt lat="42.95720691043357" lon="-2.1118742429110546"><ele>563.0</ele><time>2026-04-30T08:02:03.002Z</time></trkpt><trkpt lat="42.957162926135496" lon="-2.1119882336047877"><ele>563.0</ele><time>2026-04-30T08:02:04.002Z</time></trkpt><trkpt lat="42.95710362807307" lon="-2.1120844745824807"><ele>563.0</ele><time>2026-04-30T08:02:05.002Z</time></trkpt><trkpt lat="42.95705553935618" lon="-2.112193073181698"><ele>563.0</ele><time>2026-04-30T08:02:06.002Z</time></trkpt><trkpt lat="42.95698799599056" lon="-2.1122839157301088"><ele>563.0</ele><time>2026-04-30T08:02:07.002Z</time></trkpt><trkpt lat="42.956900711688846" lon="-2.1123570842173787"><ele>563.3333333333333</ele><time>2026-04-30T08:02:08.002Z</time></trkpt><trkpt lat="42.95680782066981" lon="-2.1124148676691332"><ele>563.6666666666666</ele><time>2026-04-30T08:02:09.002Z</time></trkpt><trkpt lat="42.956727941681606" lon="-2.1124613414986"><ele>564.0</ele><time>2026-04-30T08:02:10.002Z</time></trkpt><trkpt lat="42.95665292776053" lon="-2.112510069319973"><ele>564.3333333333334</ele><time>2026-04-30T08:02:11.002Z</time></trkpt><trkpt lat="42.95658423658162" lon="-2.1125784711633675"><ele>564.6666666666667</ele><time>2026-04-30T08:02:12.002Z</time></trkpt><trkpt lat="42.95651717151846" lon="-2.1126606991983787"><ele>565.0</ele><time>2026-04-30T08:02:13.002Z</time></trkpt><trkpt lat="42.95647156502906" lon="-2.1127428261646504"><ele>564.9999999999999</ele><time>2026-04-30T08:02:14.002Z</time></trkpt><trkpt lat="42.95644694302101" lon="-2.112826402653483"><ele>565.0</ele><time>2026-04-30T08:02:15.002Z</time></trkpt><trkpt lat="42.956486164673784" lon="-2.1129075344368324"><ele>565.0</ele><time>2026-04-30T08:02:16Z</time></trkpt><trkpt lat="42.95655636062668" lon="-2.1129621990124985"><ele>565.0</ele><time>2026-04-30T08:02:17Z</time></trkpt><trkpt lat="42.956627976999016" lon="-2.1130032893905106"><ele>565.0</ele><time>2026-04-30T08:02:18Z</time></trkpt><trkpt lat="42.95669723101712" lon="-2.1130170623851208"><ele>564.9999999999999</ele><time>2026-04-30T08:02:19Z</time></trkpt><trkpt lat="42.95677539931371" lon="-2.1130363114545263"><ele>565.0</ele><time>2026-04-30T08:02:20Z</time></trkpt><trkpt lat="42.956856684105546" lon="-2.1130631546493603"><ele>563.1666666666667</ele><time>2026-04-30T08:02:21Z</time></trkpt><trkpt lat="42.9569336408168" lon="-2.11308789058563"><ele>561.3333333333334</ele><time>2026-04-30T08:02:22Z</time></trkpt><trkpt lat="42.95702812523575" lon="-2.1131225326601006"><ele>559.5</ele><time>2026-04-30T08:02:23Z</time></trkpt><trkpt lat="42.957107738519156" lon="-2.113175326217611"><ele>557.6666666666666</ele><time>2026-04-30T08:02:24Z</time></trkpt><trkpt lat="42.95718029503651" lon="-2.113225384510016"><ele>555.8333333333333</ele><time>2026-04-30T08:02:25Z</time></trkpt><trkpt lat="42.957259962073785" lon="-2.1132856831406737"><ele>554.0</ele><time>2026-04-30T08:02:26Z</time></trkpt><trkpt lat="42.95734762754435" lon="-2.113360979199214"><ele>553.8333333333333</ele><time>2026-04-30T08:02:27Z</time></trkpt><trkpt lat="42.95742341929558" lon="-2.1134290060520686"><ele>553.6666666666666</ele><time>2026-04-30T08:02:28Z</time></trkpt><trkpt lat="42.957504888881296" lon="-2.113454796326742"><ele>553.5</ele><time>2026-04-30T08:02:29Z</time></trkpt><trkpt lat="42.95757646263596" lon="-2.1135120343814706"><ele>553.3333333333334</ele><time>2026-04-30T08:02:30Z</time></trkpt><trkpt lat="42.95766899511069" lon="-2.1135340708918045"><ele>553.1666666666667</ele><time>2026-04-30T08:02:31Z</time></trkpt><trkpt lat="42.95775539939009" lon="-2.1135500134565537"><ele>553.0</ele><time>2026-04-30T08:02:32Z</time></trkpt><trkpt lat="42.95783876976882" lon="-2.11354631832969"><ele>550.5</ele><time>2026-04-30T08:02:33Z</time></trkpt><trkpt lat="42.95792519188886" lon="-2.113537483571922"><ele>548.0</ele><time>2026-04-30T08:02:34Z</time></trkpt><trkpt lat="42.95800896812743" lon="-2.1135513993922914"><ele>545.5</ele><time>2026-04-30T08:02:35Z</time></trkpt><trkpt lat="42.95809696721176" lon="-2.113573241133591"><ele>543.0</ele><time>2026-04-30T08:02:36Z</time></trkpt><trkpt lat="42.95817818110192" lon="-2.1135908936309167"><ele>540.5</ele><time>2026-04-30T08:02:37Z</time></trkpt><trkpt lat="42.9582628584634" lon="-2.113616868079652"><ele>538.0</ele><time>2026-04-30T08:02:38Z</time></trkpt><trkpt lat="42.958346820204596" lon="-2.1136530342389976"><ele>534.3333333333334</ele><time>2026-04-30T08:02:39Z</time></trkpt><trkpt lat="42.958431427672885" lon="-2.1137016601162757"><ele>530.6666666666667</ele><time>2026-04-30T08:02:40Z</time></trkpt><trkpt lat="42.95851154018055" lon="-2.113751003700752"><ele>527.0</ele><time>2026-04-30T08:02:41Z</time></trkpt><trkpt lat="42.95859677186755" lon="-2.1138176953345913"><ele>523.3333333333334</ele><time>2026-04-30T08:02:42Z</time></trkpt><trkpt lat="42.95866122542072" lon="-2.11387321565782"><ele>519.6666666666666</ele><time>2026-04-30T08:02:43Z</time></trkpt><trkpt lat="42.95873092282279" lon="-2.1139247274280653"><ele>516.0</ele><time>2026-04-30T08:02:44Z</time></trkpt><trkpt lat="42.9587994829725" lon="-2.113984153779051"><ele>516.0</ele><time>2026-04-30T08:02:45Z</time></trkpt><trkpt lat="42.95885625478778" lon="-2.1140609157955255"><ele>516.0</ele><time>2026-04-30T08:02:46Z</time></trkpt><trkpt lat="42.95888797292638" lon="-2.1141463771062754"><ele>516.0</ele><time>2026-04-30T08:02:47Z</time></trkpt><trkpt lat="42.9589098032695" lon="-2.114248116141052"><ele>516.0</ele><time>2026-04-30T08:02:48Z</time></trkpt><trkpt lat="42.95894796466297" lon="-2.1143527905310693"><ele>516.0</ele><time>2026-04-30T08:02:49Z</time></trkpt><trkpt lat="42.95895663020377" lon="-2.1144850365706427"><ele>516.0</ele><time>2026-04-30T08:02:50Z</time></trkpt><trkpt lat="42.958944577908724" lon="-2.11460817509016"><ele>517.2</ele><time>2026-04-30T08:02:51Z</time></trkpt><trkpt lat="42.95891957240063" lon="-2.1147190422065365"><ele>518.4000000000001</ele><time>2026-04-30T08:02:52Z</time></trkpt><trkpt lat="42.95887091297082" lon="-2.114855817193396"><ele>519.6</ele><time>2026-04-30T08:02:53Z</time></trkpt><trkpt lat="42.95881165915436" lon="-2.114981843029116"><ele>520.8000000000001</ele><time>2026-04-30T08:02:54Z</time></trkpt><trkpt lat="42.95874489943744" lon="-2.1150859711097025"><ele>522.0</ele><time>2026-04-30T08:02:55Z</time></trkpt><trkpt lat="42.95867621001105" lon="-2.1151774250140303"><ele>522.0</ele><time>2026-04-30T08:02:56Z</time></trkpt><trkpt lat="42.95860916080893" lon="-2.1152624994904836"><ele>522.0</ele><time>2026-04-30T08:02:57Z</time></trkpt><trkpt lat="42.9585417799915" lon="-2.115347715192366"><ele>522.0</ele><time>2026-04-30T08:02:58Z</time></trkpt><trkpt lat="42.9584647358617" lon="-2.115420864467781"><ele>522.0</ele><time>2026-04-30T08:02:59Z</time></trkpt><trkpt lat="42.95841381611299" lon="-2.115500971586649"><ele>522.0</ele><time>2026-04-30T08:03:00Z</time></trkpt><trkpt lat="42.958362717281" lon="-2.115619625434933"><ele>523.8000000000001</ele><time>2026-04-30T08:03:01Z</time></trkpt><trkpt lat="42.958306123640924" lon="-2.11572658743986"><ele>525.6</ele><time>2026-04-30T08:03:02Z</time></trkpt><trkpt lat="42.958253955235215" lon="-2.11583075813676"><ele>527.4000000000001</ele><time>2026-04-30T08:03:03.001Z</time></trkpt><trkpt lat="42.95819271482761" lon="-2.115924814582999"><ele>529.2</ele><time>2026-04-30T08:03:04.001Z</time></trkpt><trkpt lat="42.95815944331593" lon="-2.116036706987112"><ele>531.0</ele><time>2026-04-30T08:03:05.001Z</time></trkpt><trkpt lat="42.958119681934384" lon="-2.1161503981257432"><ele>531.0</ele><time>2026-04-30T08:03:06.001Z</time></trkpt><trkpt lat="42.958074097138955" lon="-2.1162627754651457"><ele>531.0</ele><time>2026-04-30T08:03:07.001Z</time></trkpt><trkpt lat="42.95802171398994" lon="-2.116363325124468"><ele>531.0</ele><time>2026-04-30T08:03:08.001Z</time></trkpt><trkpt lat="42.95797692912506" lon="-2.1164605555066682"><ele>531.0</ele><time>2026-04-30T08:03:09.001Z</time></trkpt><trkpt lat="42.957925660287465" lon="-2.116558570687752"><ele>531.0</ele><time>2026-04-30T08:03:10.001Z</time></trkpt><trkpt lat="42.95786949608463" lon="-2.1166480857005574"><ele>531.0</ele><time>2026-04-30T08:03:11.001Z</time></trkpt><trkpt lat="42.95780221202764" lon="-2.1167229323748122"><ele>530.6</ele><time>2026-04-30T08:03:12.001Z</time></trkpt><trkpt lat="42.95773285373905" lon="-2.116775993738573"><ele>530.2</ele><time>2026-04-30T08:03:13.001Z</time></trkpt><trkpt lat="42.95765077476873" lon="-2.1168363946785713"><ele>529.8</ele><time>2026-04-30T08:03:14.001Z</time></trkpt><trkpt lat="42.95755956981316" lon="-2.116886945173558"><ele>529.4</ele><time>2026-04-30T08:03:15.001Z</time></trkpt><trkpt lat="42.95747028118352" lon="-2.1169480169081245"><ele>529.0</ele><time>2026-04-30T08:03:16.001Z</time></trkpt><trkpt lat="42.95739129506295" lon="-2.116996452448007"><ele>529.0</ele><time>2026-04-30T08:03:17.001Z</time></trkpt><trkpt lat="42.95730270123481" lon="-2.1170253759167217"><ele>529.0</ele><time>2026-04-30T08:03:18.001Z</time></trkpt><trkpt lat="42.95720661830908" lon="-2.117100990006031"><ele>529.0</ele><time>2026-04-30T08:03:19.001Z</time></trkpt><trkpt lat="42.957107712463724" lon="-2.117155179336523"><ele>529.0</ele><time>2026-04-30T08:03:20.001Z</time></trkpt><trkpt lat="42.95702000227681" lon="-2.117203410125842"><ele>529.0</ele><time>2026-04-30T08:03:21.001Z</time></trkpt><trkpt lat="42.956936438142975" lon="-2.1172989305846484"><ele>529.0</ele><time>2026-04-30T08:03:22.001Z</time></trkpt><trkpt lat="42.956878881770976" lon="-2.1173844886200968"><ele>529.0</ele><time>2026-04-30T08:03:23.001Z</time></trkpt><trkpt lat="42.956821352787195" lon="-2.1174663794931687"><ele>529.0</ele><time>2026-04-30T08:03:24.001Z</time></trkpt><trkpt lat="42.9567551773061" lon="-2.1175636681808925"><ele>529.0</ele><time>2026-04-30T08:03:25.001Z</time></trkpt><trkpt lat="42.95672232806736" lon="-2.1177054696503057"><ele>529.0</ele><time>2026-04-30T08:03:26.001Z</time></trkpt><trkpt lat="42.95668778027397" lon="-2.117845565705056"><ele>528.8</ele><time>2026-04-30T08:03:27.001Z</time></trkpt><trkpt lat="42.956665806785395" lon="-2.1179743754232567"><ele>528.5999999999999</ele><time>2026-04-30T08:03:28.001Z</time></trkpt><trkpt lat="42.9566510001935" lon="-2.1181035914807604"><ele>528.4</ele><time>2026-04-30T08:03:29.001Z</time></trkpt><trkpt lat="42.956632974156186" lon="-2.1182267252865152"><ele>528.1999999999999</ele><time>2026-04-30T08:03:30.001Z</time></trkpt><trkpt lat="42.956614125426405" lon="-2.118340999793865"><ele>528.0</ele><time>2026-04-30T08:03:31.001Z</time></trkpt><trkpt lat="42.95658730538978" lon="-2.118447934131502"><ele>525.8333333333334</ele><time>2026-04-30T08:03:32.001Z</time></trkpt><trkpt lat="42.95655780464101" lon="-2.118564539344157"><ele>523.6666666666666</ele><time>2026-04-30T08:03:33.001Z</time></trkpt><trkpt lat="42.95651683906278" lon="-2.118662151026233"><ele>521.5</ele><time>2026-04-30T08:03:34.001Z</time></trkpt><trkpt lat="42.95646410355971" lon="-2.1187471990680873"><ele>519.3333333333333</ele><time>2026-04-30T08:03:35.001Z</time></trkpt><trkpt lat="42.95640593744572" lon="-2.1188326539462543"><ele>517.1666666666666</ele><time>2026-04-30T08:03:36.001Z</time></trkpt><trkpt lat="42.95632825250392" lon="-2.118890634282096"><ele>515.0</ele><time>2026-04-30T08:03:37.001Z</time></trkpt><trkpt lat="42.956239219848484" lon="-2.1189475374401567"><ele>515.0</ele><time>2026-04-30T08:03:38.001Z</time></trkpt><trkpt lat="42.95614357720554" lon="-2.1189753397394786"><ele>515.0</ele><time>2026-04-30T08:03:39.001Z</time></trkpt><trkpt lat="42.95604652152909" lon="-2.118992353734955"><ele>515.0</ele><time>2026-04-30T08:03:40.001Z</time></trkpt><trkpt lat="42.955960382219935" lon="-2.118998953499619"><ele>515.0</ele><time>2026-04-30T08:03:41.001Z</time></trkpt><trkpt lat="42.955877494485925" lon="-2.11899839201283"><ele>515.0</ele><time>2026-04-30T08:03:42.001Z</time></trkpt><trkpt lat="42.95579374793966" lon="-2.118985375087764"><ele>515.0</ele><time>2026-04-30T08:03:43.001Z</time></trkpt><trkpt lat="42.95569499979437" lon="-2.11894674562483"><ele>516.6</ele><time>2026-04-30T08:03:44.001Z</time></trkpt><trkpt lat="42.95561151549681" lon="-2.118891374223913"><ele>518.2</ele><time>2026-04-30T08:03:45.001Z</time></trkpt><trkpt lat="42.95552907451081" lon="-2.1188157646175916"><ele>519.8</ele><time>2026-04-30T08:03:46.001Z</time></trkpt><trkpt lat="42.95545545133787" lon="-2.118742521079645"><ele>521.4</ele><time>2026-04-30T08:03:47.001Z</time></trkpt><trkpt lat="42.95539326887617" lon="-2.118659988546179"><ele>523.0</ele><time>2026-04-30T08:03:48.001Z</time></trkpt><trkpt lat="42.95532466510455" lon="-2.118592346581482"><ele>523.0</ele><time>2026-04-30T08:03:49.001Z</time></trkpt><trkpt lat="42.95527640709545" lon="-2.118516625068748"><ele>523.0</ele><time>2026-04-30T08:03:50.001Z</time></trkpt><trkpt lat="42.95521627404674" lon="-2.118448596658664"><ele>523.0</ele><time>2026-04-30T08:03:51.001Z</time></trkpt><trkpt lat="42.955155292983854" lon="-2.118391369319322"><ele>523.0</ele><time>2026-04-30T08:03:52.001Z</time></trkpt><trkpt lat="42.955100583548756" lon="-2.118299788831694"><ele>523.0</ele><time>2026-04-30T08:03:53.001Z</time></trkpt><trkpt lat="42.95503595235111" lon="-2.118237416233668"><ele>523.0</ele><time>2026-04-30T08:03:54.001Z</time></trkpt><trkpt lat="42.95497161647881" lon="-2.118185348423155"><ele>523.0</ele><time>2026-04-30T08:03:55.001Z</time></trkpt><trkpt lat="42.95489437160778" lon="-2.118126009092687"><ele>523.0</ele><time>2026-04-30T08:03:56.001Z</time></trkpt><trkpt lat="42.954821369794495" lon="-2.118077938336474"><ele>523.0</ele><time>2026-04-30T08:03:57.001Z</time></trkpt><trkpt lat="42.95474774570844" lon="-2.118046420527728"><ele>523.0</ele><time>2026-04-30T08:03:58.001Z</time></trkpt><trkpt lat="42.95467038861453" lon="-2.118034444551345"><ele>523.0</ele><time>2026-04-30T08:03:59.001Z</time></trkpt><trkpt lat="42.95459569251375" lon="-2.1180291558991704"><ele>523.0</ele><time>2026-04-30T08:04:00.001Z</time></trkpt><trkpt lat="42.9545230861683" lon="-2.1180461818989675"><ele>523.0</ele><time>2026-04-30T08:04:01.001Z</time></trkpt><trkpt lat="42.954460676656524" lon="-2.1180733820302984"><ele>523.0</ele><time>2026-04-30T08:04:02.001Z</time></trkpt><trkpt lat="42.954413344495116" lon="-2.118140570084442"><ele>523.0</ele><time>2026-04-30T08:04:03.001Z</time></trkpt><trkpt lat="42.95438775713852" lon="-2.118298035852933"><ele>523.0</ele><time>2026-04-30T08:04:05.001Z</time></trkpt><trkpt lat="42.95433887349264" lon="-2.1184424582125465"><ele>523.0</ele><time>2026-04-30T08:04:07.002Z</time></trkpt><trkpt lat="42.95427935518491" lon="-2.118530820522991"><ele>520.3333333333334</ele><time>2026-04-30T08:04:08.002Z</time></trkpt><trkpt lat="42.95425204440101" lon="-2.1186233043429836"><ele>517.6666666666667</ele><time>2026-04-30T08:04:09.002Z</time></trkpt><trkpt lat="42.954211425989406" lon="-2.1186957654180874"><ele>515.0</ele><time>2026-04-30T08:04:10.002Z</time></trkpt><trkpt lat="42.95416612692225" lon="-2.1187719921768453"><ele>512.3333333333334</ele><time>2026-04-30T08:04:11.002Z</time></trkpt><trkpt lat="42.95412626716936" lon="-2.1188412165045745"><ele>509.6666666666667</ele><time>2026-04-30T08:04:12.002Z</time></trkpt><trkpt lat="42.95407579668165" lon="-2.1189759839872524"><ele>507.0</ele><time>2026-04-30T08:04:14.002Z</time></trkpt><trkpt lat="42.95403715953144" lon="-2.1190660339738154"><ele>505.8333333333333</ele><time>2026-04-30T08:04:15.002Z</time></trkpt><trkpt lat="42.95403695377535" lon="-2.119163116331124"><ele>504.66666666666663</ele><time>2026-04-30T08:04:16.002Z</time></trkpt><trkpt lat="42.95404370746337" lon="-2.119260181765486"><ele>503.5</ele><time>2026-04-30T08:04:17.002Z</time></trkpt><trkpt lat="42.95406436637817" lon="-2.119433834641367"><ele>502.3333333333333</ele><time>2026-04-30T08:04:19.002Z</time></trkpt><trkpt lat="42.95407238275226" lon="-2.1195260733986654"><ele>501.16666666666663</ele><time>2026-04-30T08:04:20.002Z</time></trkpt><trkpt lat="42.95407798144311" lon="-2.1196237949176675"><ele>500.0</ele><time>2026-04-30T08:04:21.002Z</time></trkpt><trkpt lat="42.95408314235952" lon="-2.119713308967618"><ele>499.99999999999994</ele><time>2026-04-30T08:04:22Z</time></trkpt><trkpt lat="42.95410253219459" lon="-2.119799197645414"><ele>500.0</ele><time>2026-04-30T08:04:23Z</time></trkpt><trkpt lat="42.95413468714043" lon="-2.1198933427906264"><ele>500.0</ele><time>2026-04-30T08:04:24Z</time></trkpt><trkpt lat="42.954159639122125" lon="-2.1199812148431993"><ele>500.0</ele><time>2026-04-30T08:04:25Z</time></trkpt><trkpt lat="42.9542047758994" lon="-2.1201115845501106"><ele>499.99999999999994</ele><time>2026-04-30T08:04:26Z</time></trkpt><trkpt lat="42.95424747937802" lon="-2.1202071292105122"><ele>500.0</ele><time>2026-04-30T08:04:27Z</time></trkpt><trkpt lat="42.954292871316255" lon="-2.120300064427501"><ele>497.3333333333333</ele><time>2026-04-30T08:04:28Z</time></trkpt><trkpt lat="42.95434373000869" lon="-2.1203828511549747"><ele>494.66666666666663</ele><time>2026-04-30T08:04:29Z</time></trkpt><trkpt lat="42.954407784343445" lon="-2.120440156648331"><ele>492.0</ele><time>2026-04-30T08:04:30Z</time></trkpt><trkpt lat="42.954474985041536" lon="-2.1204976130152557"><ele>489.33333333333337</ele><time>2026-04-30T08:04:31Z</time></trkpt><trkpt lat="42.95454220271901" lon="-2.1205478258441746"><ele>486.6666666666667</ele><time>2026-04-30T08:04:32Z</time></trkpt><trkpt lat="42.95460945338024" lon="-2.120606861630788"><ele>484.0</ele><time>2026-04-30T08:04:33Z</time></trkpt><trkpt lat="42.95467348725457" lon="-2.120646902585895"><ele>484.00000000000006</ele><time>2026-04-30T08:04:34Z</time></trkpt><trkpt lat="42.95474311668877" lon="-2.120699965048239"><ele>484.0</ele><time>2026-04-30T08:04:35Z</time></trkpt><trkpt lat="42.95480293925046" lon="-2.1207476340516687"><ele>484.0</ele><time>2026-04-30T08:04:36Z</time></trkpt><trkpt lat="42.95486188019233" lon="-2.120802535519229"><ele>484.0</ele><time>2026-04-30T08:04:37Z</time></trkpt><trkpt lat="42.95495078909274" lon="-2.1209231537345152"><ele>484.00000000000006</ele><time>2026-04-30T08:04:39Z</time></trkpt><trkpt lat="42.954993920450924" lon="-2.120997653466931"><ele>484.0</ele><time>2026-04-30T08:04:40Z</time></trkpt><trkpt lat="42.955029305977426" lon="-2.121077221401573"><ele>482.00000000000006</ele><time>2026-04-30T08:04:41Z</time></trkpt><trkpt lat="42.955066960232806" lon="-2.1211493768018785"><ele>480.0</ele><time>2026-04-30T08:04:42Z</time></trkpt><trkpt lat="42.955103407378004" lon="-2.1212293178032495"><ele>478.0</ele><time>2026-04-30T08:04:43Z</time></trkpt><trkpt lat="42.95513893528766" lon="-2.121389926208424"><ele>476.0</ele><time>2026-04-30T08:04:45Z</time></trkpt><trkpt lat="42.9551676868657" lon="-2.121475932369723"><ele>474.00000000000006</ele><time>2026-04-30T08:04:46Z</time></trkpt><trkpt lat="42.955159093355434" lon="-2.121584416779148"><ele>472.0</ele><time>2026-04-30T08:04:47Z</time></trkpt><trkpt lat="42.95513019280978" lon="-2.121672370275384"><ele>471.0</ele><time>2026-04-30T08:04:48Z</time></trkpt><trkpt lat="42.95509389021651" lon="-2.1217596656232627"><ele>470.0</ele><time>2026-04-30T08:04:49Z</time></trkpt><trkpt lat="42.95506561667072" lon="-2.121844597523056"><ele>469.0</ele><time>2026-04-30T08:04:50Z</time></trkpt><trkpt lat="42.95502668198166" lon="-2.121929683470711"><ele>468.0</ele><time>2026-04-30T08:04:51Z</time></trkpt><trkpt lat="42.95503609861254" lon="-2.122041445313158"><ele>467.0</ele><time>2026-04-30T08:04:52Z</time></trkpt><trkpt lat="42.955067562259075" lon="-2.1221343573233695"><ele>466.0</ele><time>2026-04-30T08:04:53Z</time></trkpt><trkpt lat="42.95510602550501" lon="-2.1222187409721975"><ele>465.0</ele><time>2026-04-30T08:04:54Z</time></trkpt><trkpt lat="42.95516149198171" lon="-2.122291828836412"><ele>465.0</ele><time>2026-04-30T08:04:55Z</time></trkpt><trkpt lat="42.95522546194236" lon="-2.1223621371978614"><ele>465.0</ele><time>2026-04-30T08:04:56Z</time></trkpt><trkpt lat="42.95529280747055" lon="-2.122424857905236"><ele>465.0</ele><time>2026-04-30T08:04:57Z</time></trkpt><trkpt lat="42.95535862866137" lon="-2.1224855077000417"><ele>465.0</ele><time>2026-04-30T08:04:58Z</time></trkpt><trkpt lat="42.95542125387371" lon="-2.1225575373633085"><ele>465.0</ele><time>2026-04-30T08:04:59Z</time></trkpt><trkpt lat="42.95549094064235" lon="-2.1226313123035268"><ele>465.0</ele><time>2026-04-30T08:05:00Z</time></trkpt><trkpt lat="42.95555447324337" lon="-2.1227168347356735"><ele>466.2</ele><time>2026-04-30T08:05:01Z</time></trkpt><trkpt lat="42.95561534891229" lon="-2.122820043171223"><ele>467.4</ele><time>2026-04-30T08:05:02Z</time></trkpt><trkpt lat="42.95567712594392" lon="-2.1229228194544807"><ele>468.6</ele><time>2026-04-30T08:05:03Z</time></trkpt><trkpt lat="42.955745236387166" lon="-2.1230218874328406"><ele>469.8</ele><time>2026-04-30T08:05:04.001Z</time></trkpt><trkpt lat="42.95581475430753" lon="-2.1231040760920568"><ele>471.0</ele><time>2026-04-30T08:05:05.001Z</time></trkpt><trkpt lat="42.95588067706529" lon="-2.1231685770174136"><ele>466.8333333333333</ele><time>2026-04-30T08:05:06.001Z</time></trkpt><trkpt lat="42.9559456240106" lon="-2.1232465101080864"><ele>462.66666666666663</ele><time>2026-04-30T08:05:07.001Z</time></trkpt><trkpt lat="42.95600890239013" lon="-2.1233188838359855"><ele>458.5</ele><time>2026-04-30T08:05:08.001Z</time></trkpt><trkpt lat="42.95606622137898" lon="-2.1234022550773655"><ele>454.3333333333333</ele><time>2026-04-30T08:05:09.001Z</time></trkpt><trkpt lat="42.95610965797643" lon="-2.1234894947579575"><ele>450.16666666666663</ele><time>2026-04-30T08:05:10.001Z</time></trkpt><trkpt lat="42.956139960519565" lon="-2.1235864452508655"><ele>446.0</ele><time>2026-04-30T08:05:11.001Z</time></trkpt><trkpt lat="42.95615129055574" lon="-2.123690721250348"><ele>445.99999999999994</ele><time>2026-04-30T08:05:12.001Z</time></trkpt><trkpt lat="42.95614926997983" lon="-2.1238025047878692"><ele>446.0</ele><time>2026-04-30T08:05:13.001Z</time></trkpt><trkpt lat="42.956166938254505" lon="-2.123914588234991"><ele>446.0</ele><time>2026-04-30T08:05:14.001Z</time></trkpt><trkpt lat="42.95615754919342" lon="-2.124036575541261"><ele>446.0</ele><time>2026-04-30T08:05:15.001Z</time></trkpt><trkpt lat="42.95612790058291" lon="-2.1241603718746958"><ele>445.99999999999994</ele><time>2026-04-30T08:05:16.001Z</time></trkpt><trkpt lat="42.95612796769244" lon="-2.124283070081091"><ele>446.0</ele><time>2026-04-30T08:05:17.001Z</time></trkpt><trkpt lat="42.95611236468976" lon="-2.124402811190185"><ele>445.4</ele><time>2026-04-30T08:05:18.001Z</time></trkpt><trkpt lat="42.95609576533375" lon="-2.1245219776567597"><ele>444.8</ele><time>2026-04-30T08:05:19.001Z</time></trkpt><trkpt lat="42.95608182276421" lon="-2.1246343233192597"><ele>444.19999999999993</ele><time>2026-04-30T08:05:20.001Z</time></trkpt><trkpt lat="42.95606793335759" lon="-2.124759744280787"><ele>443.59999999999997</ele><time>2026-04-30T08:05:21.001Z</time></trkpt><trkpt lat="42.95604157142803" lon="-2.1249052397355026"><ele>443.0</ele><time>2026-04-30T08:05:22.001Z</time></trkpt><trkpt lat="42.956017686886476" lon="-2.1250478066462115"><ele>440.75</ele><time>2026-04-30T08:05:23.001Z</time></trkpt><trkpt lat="42.955996621699484" lon="-2.125191569381685"><ele>438.5</ele><time>2026-04-30T08:05:24.001Z</time></trkpt><trkpt lat="42.95598521797459" lon="-2.125344552733357"><ele>436.25</ele><time>2026-04-30T08:05:25.001Z</time></trkpt><trkpt lat="42.95597596248862" lon="-2.125513025759787"><ele>434.0</ele><time>2026-04-30T08:05:26.001Z</time></trkpt><trkpt lat="42.95597817371012" lon="-2.125675343561292"><ele>433.79999999999995</ele><time>2026-04-30T08:05:27.001Z</time></trkpt><trkpt lat="42.95597705136546" lon="-2.125788083738027"><ele>433.59999999999997</ele><time>2026-04-30T08:05:28.001Z</time></trkpt><trkpt lat="42.956007182274796" lon="-2.1259244061583598"><ele>433.4</ele><time>2026-04-30T08:05:29.001Z</time></trkpt><trkpt lat="42.956033619618715" lon="-2.1260630170975365"><ele>433.2</ele><time>2026-04-30T08:05:30.001Z</time></trkpt><trkpt lat="42.956063492862" lon="-2.126183354445806"><ele>433.0</ele><time>2026-04-30T08:05:31.001Z</time></trkpt><trkpt lat="42.95613796511337" lon="-2.126342785454276"><ele>433.00000000000006</ele><time>2026-04-30T08:05:33.001Z</time></trkpt><trkpt lat="42.95617932031455" lon="-2.1264404327487294"><ele>433.0</ele><time>2026-04-30T08:05:34.001Z</time></trkpt><trkpt lat="42.956229947654485" lon="-2.1265381578130866"><ele>433.0</ele><time>2026-04-30T08:05:35.001Z</time></trkpt><trkpt lat="42.95627012558508" lon="-2.1266400698655823"><ele>433.0</ele><time>2026-04-30T08:05:36.001Z</time></trkpt><trkpt lat="42.95630410924431" lon="-2.1267562068306316"><ele>433.00000000000006</ele><time>2026-04-30T08:05:37.001Z</time></trkpt><trkpt lat="42.95632310962456" lon="-2.126878426984862"><ele>433.0</ele><time>2026-04-30T08:05:38.001Z</time></trkpt><trkpt lat="42.95633976003565" lon="-2.126996954601991"><ele>432.4</ele><time>2026-04-30T08:05:39.001Z</time></trkpt><trkpt lat="42.95633691303662" lon="-2.127117986717095"><ele>431.79999999999995</ele><time>2026-04-30T08:05:40.001Z</time></trkpt><trkpt lat="42.95632728252137" lon="-2.1272362556300095"><ele>431.2</ele><time>2026-04-30T08:05:41.001Z</time></trkpt><trkpt lat="42.95630790854073" lon="-2.12735635511309"><ele>430.6</ele><time>2026-04-30T08:05:42.001Z</time></trkpt><trkpt lat="42.95628884434802" lon="-2.127487752011375"><ele>430.0</ele><time>2026-04-30T08:05:43.001Z</time></trkpt><trkpt lat="42.95627195800868" lon="-2.127607813759809"><ele>430.0</ele><time>2026-04-30T08:05:44.001Z</time></trkpt><trkpt lat="42.956240762785036" lon="-2.1277274173802447"><ele>430.0</ele><time>2026-04-30T08:05:45.001Z</time></trkpt><trkpt lat="42.95620801127" lon="-2.127842360106276"><ele>430.0</ele><time>2026-04-30T08:05:46.001Z</time></trkpt><trkpt lat="42.95617390749061" lon="-2.127957274268801"><ele>430.0</ele><time>2026-04-30T08:05:47.001Z</time></trkpt><trkpt lat="42.9561334074728" lon="-2.1280937408594367"><ele>430.0</ele><time>2026-04-30T08:05:48.001Z</time></trkpt><trkpt lat="42.95609518035575" lon="-2.128229949573077"><ele>427.8</ele><time>2026-04-30T08:05:49.001Z</time></trkpt><trkpt lat="42.956059654460724" lon="-2.128362805657865"><ele>425.6</ele><time>2026-04-30T08:05:50.001Z</time></trkpt><trkpt lat="42.95602444953386" lon="-2.1284989164439456"><ele>423.4</ele><time>2026-04-30T08:05:51.001Z</time></trkpt><trkpt lat="42.95599028764828" lon="-2.1286324276975277"><ele>421.2</ele><time>2026-04-30T08:05:52.001Z</time></trkpt><trkpt lat="42.95595768190634" lon="-2.128762555912237"><ele>419.0</ele><time>2026-04-30T08:05:53.001Z</time></trkpt><trkpt lat="42.95591597174299" lon="-2.128888444937563"><ele>419.0</ele><time>2026-04-30T08:05:54.001Z</time></trkpt><trkpt lat="42.955898248256936" lon="-2.129026074643989"><ele>419.0</ele><time>2026-04-30T08:05:55.001Z</time></trkpt><trkpt lat="42.95588062624336" lon="-2.1291622413864317"><ele>419.0</ele><time>2026-04-30T08:05:56.001Z</time></trkpt><trkpt lat="42.95586128471288" lon="-2.129298815173796"><ele>419.0</ele><time>2026-04-30T08:05:57.001Z</time></trkpt><trkpt lat="42.9558450789644" lon="-2.1294386364064493"><ele>419.0</ele><time>2026-04-30T08:05:58.001Z</time></trkpt><trkpt lat="42.95583859161676" lon="-2.129584742434691"><ele>423.0</ele><time>2026-04-30T08:05:59.001Z</time></trkpt><trkpt lat="42.95584202318203" lon="-2.1297174301611363"><ele>427.0</ele><time>2026-04-30T08:06:00.001Z</time></trkpt><trkpt lat="42.9558467818529" lon="-2.1298497197348456"><ele>431.0</ele><time>2026-04-30T08:06:01.001Z</time></trkpt><trkpt lat="42.95585027269247" lon="-2.1299740177293853"><ele>435.0</ele><time>2026-04-30T08:06:02.001Z</time></trkpt><trkpt lat="42.955860048305986" lon="-2.13009786860067"><ele>439.0</ele><time>2026-04-30T08:06:03.001Z</time></trkpt><trkpt lat="42.95586467165773" lon="-2.13022361874772"><ele>439.00000000000006</ele><time>2026-04-30T08:06:04.001Z</time></trkpt><trkpt lat="42.95585210274318" lon="-2.1303552762755853"><ele>439.0</ele><time>2026-04-30T08:06:05.001Z</time></trkpt><trkpt lat="42.955821880714666" lon="-2.1304698118067136"><ele>439.0</ele><time>2026-04-30T08:06:06.001Z</time></trkpt><trkpt lat="42.95577413888847" lon="-2.13056606731874"><ele>439.0</ele><time>2026-04-30T08:06:07.001Z</time></trkpt><trkpt lat="42.95570873022023" lon="-2.1306449028834784"><ele>439.00000000000006</ele><time>2026-04-30T08:06:08.002Z</time></trkpt><trkpt lat="42.95564269243689" lon="-2.130720821924448"><ele>439.0</ele><time>2026-04-30T08:06:09.002Z</time></trkpt><trkpt lat="42.955560011674336" lon="-2.1307716462350292"><ele>436.0</ele><time>2026-04-30T08:06:10.002Z</time></trkpt><trkpt lat="42.955471930275635" lon="-2.1308142992709858"><ele>433.0</ele><time>2026-04-30T08:06:11.002Z</time></trkpt><trkpt lat="42.95538181117613" lon="-2.130852022037558"><ele>430.0</ele><time>2026-04-30T08:06:12.002Z</time></trkpt><trkpt lat="42.95529672829633" lon="-2.130894193673175"><ele>427.0</ele><time>2026-04-30T08:06:13.002Z</time></trkpt><trkpt lat="42.95521931138623" lon="-2.1309461382117267"><ele>424.0</ele><time>2026-04-30T08:06:14.002Z</time></trkpt><trkpt lat="42.95514139987905" lon="-2.1310028248070445"><ele>424.00000000000006</ele><time>2026-04-30T08:06:15.002Z</time></trkpt><trkpt lat="42.95506656245494" lon="-2.131065886278256"><ele>424.0</ele><time>2026-04-30T08:06:16.002Z</time></trkpt><trkpt lat="42.95499061591234" lon="-2.131130867940621"><ele>424.0</ele><time>2026-04-30T08:06:17.002Z</time></trkpt><trkpt lat="42.95491947653015" lon="-2.131193193636471"><ele>424.0</ele><time>2026-04-30T08:06:18.002Z</time></trkpt><trkpt lat="42.95486423109999" lon="-2.131248164757851"><ele>424.00000000000006</ele><time>2026-04-30T08:06:19.002Z</time></trkpt><trkpt lat="42.95479024875756" lon="-2.131354494795835"><ele>424.0</ele><time>2026-04-30T08:06:21.002Z</time></trkpt><trkpt lat="42.95481009987089" lon="-2.131442096640497"><ele>424.6</ele><time>2026-04-30T08:06:22.002Z</time></trkpt><trkpt lat="42.95484316150751" lon="-2.1315379946176476"><ele>425.2</ele><time>2026-04-30T08:06:23.002Z</time></trkpt><trkpt lat="42.954891665253264" lon="-2.131616907269557"><ele>425.80000000000007</ele><time>2026-04-30T08:06:24.002Z</time></trkpt><trkpt lat="42.95502366100607" lon="-2.131658910478337"><ele>426.40000000000003</ele><time>2026-04-30T08:06:26.002Z</time></trkpt><trkpt lat="42.95510441785667" lon="-2.13164752494257"><ele>427.0</ele><time>2026-04-30T08:06:27.002Z</time></trkpt><trkpt lat="42.9551844100512" lon="-2.1316359629130623"><ele>425.1666666666667</ele><time>2026-04-30T08:06:28Z</time></trkpt><trkpt lat="42.95526047142999" lon="-2.1316350479131123"><ele>423.33333333333337</ele><time>2026-04-30T08:06:29Z</time></trkpt><trkpt lat="42.95533902191343" lon="-2.1316330846943456"><ele>421.5</ele><time>2026-04-30T08:06:30Z</time></trkpt><trkpt lat="42.95542052275445" lon="-2.1316551233610403"><ele>419.66666666666663</ele><time>2026-04-30T08:06:31Z</time></trkpt><trkpt lat="42.955491758995194" lon="-2.1316843614671432"><ele>417.8333333333333</ele><time>2026-04-30T08:06:32Z</time></trkpt><trkpt lat="42.95556490103025" lon="-2.1317515436932086"><ele>416.0</ele><time>2026-04-30T08:06:33Z</time></trkpt><trkpt lat="42.955626669753286" lon="-2.13183846522163"><ele>415.99999999999994</ele><time>2026-04-30T08:06:34Z</time></trkpt><trkpt lat="42.955678718825475" lon="-2.13191372119346"><ele>416.0</ele><time>2026-04-30T08:06:35Z</time></trkpt><trkpt lat="42.955732630038874" lon="-2.1320168307926664"><ele>416.0</ele><time>2026-04-30T08:06:36Z</time></trkpt><trkpt lat="42.95577252727079" lon="-2.13212086800966"><ele>416.0</ele><time>2026-04-30T08:06:37Z</time></trkpt><trkpt lat="42.95581750762771" lon="-2.1322244903256826"><ele>415.99999999999994</ele><time>2026-04-30T08:06:38Z</time></trkpt><trkpt lat="42.95585819239599" lon="-2.132335966180996"><ele>416.0</ele><time>2026-04-30T08:06:39Z</time></trkpt><trkpt lat="42.955879327771136" lon="-2.13242997756988"><ele>414.3333333333333</ele><time>2026-04-30T08:06:40Z</time></trkpt><trkpt lat="42.9558931735641" lon="-2.132548291711665"><ele>412.66666666666663</ele><time>2026-04-30T08:06:41Z</time></trkpt><trkpt lat="42.95590778576037" lon="-2.1326679767711263"><ele>411.0</ele><time>2026-04-30T08:06:42Z</time></trkpt><trkpt lat="42.95591915549873" lon="-2.1327842013197795"><ele>409.33333333333337</ele><time>2026-04-30T08:06:43Z</time></trkpt><trkpt lat="42.95592705713739" lon="-2.132903900638853"><ele>407.6666666666667</ele><time>2026-04-30T08:06:44Z</time></trkpt><trkpt lat="42.955918212426184" lon="-2.133022084620999"><ele>406.0</ele><time>2026-04-30T08:06:45Z</time></trkpt><trkpt lat="42.95592022600225" lon="-2.133134841368943"><ele>406.4</ele><time>2026-04-30T08:06:46Z</time></trkpt><trkpt lat="42.95589618816795" lon="-2.133262316412114"><ele>406.8</ele><time>2026-04-30T08:06:47Z</time></trkpt><trkpt lat="42.95585234267486" lon="-2.133380643600693"><ele>407.2</ele><time>2026-04-30T08:06:48Z</time></trkpt><trkpt lat="42.95579384069595" lon="-2.13347704864097"><ele>407.59999999999997</ele><time>2026-04-30T08:06:49Z</time></trkpt><trkpt lat="42.95575082827556" lon="-2.1336001215551597"><ele>408.0</ele><time>2026-04-30T08:06:50Z</time></trkpt><trkpt lat="42.95572977342258" lon="-2.1337169964664633"><ele>407.79999999999995</ele><time>2026-04-30T08:06:51Z</time></trkpt><trkpt lat="42.95569021429041" lon="-2.1338379040234026"><ele>407.6</ele><time>2026-04-30T08:06:52Z</time></trkpt><trkpt lat="42.955657300520244" lon="-2.133969251812037"><ele>407.4</ele><time>2026-04-30T08:06:53Z</time></trkpt><trkpt lat="42.95563251275632" lon="-2.134113239905894"><ele>407.20000000000005</ele><time>2026-04-30T08:06:54Z</time></trkpt><trkpt lat="42.95561886968365" lon="-2.1342570290420424"><ele>407.0</ele><time>2026-04-30T08:06:55Z</time></trkpt><trkpt lat="42.95559508714811" lon="-2.134394052858414"><ele>406.99999999999994</ele><time>2026-04-30T08:06:56Z</time></trkpt><trkpt lat="42.955558341239836" lon="-2.1344719605768883"><ele>407.0</ele><time>2026-04-30T08:06:57Z</time></trkpt><trkpt lat="42.95553250165894" lon="-2.1345793024750708"><ele>407.0</ele><time>2026-04-30T08:06:58Z</time></trkpt><trkpt lat="42.95550076428584" lon="-2.1346816723366877"><ele>407.0</ele><time>2026-04-30T08:06:59Z</time></trkpt><trkpt lat="42.9554657164229" lon="-2.1347711818516943"><ele>406.99999999999994</ele><time>2026-04-30T08:07:00Z</time></trkpt><trkpt lat="42.95541681901753" lon="-2.134847519729855"><ele>407.0</ele><time>2026-04-30T08:07:01Z</time></trkpt><trkpt lat="42.95535917770382" lon="-2.1349061744985995"><ele>406.49999999999994</ele><time>2026-04-30T08:07:02Z</time></trkpt><trkpt lat="42.95529416425313" lon="-2.1349465966910115"><ele>406.0</ele><time>2026-04-30T08:07:03Z</time></trkpt><trkpt lat="42.955231071593516" lon="-2.1350276258332057"><ele>405.5</ele><time>2026-04-30T08:07:05.001Z</time></trkpt><trkpt lat="42.955204538519034" lon="-2.1351546299089406"><ele>405.0</ele><time>2026-04-30T08:07:07.001Z</time></trkpt><trkpt lat="42.955192062487576" lon="-2.135254971300018"><ele>404.49999999999994</ele><time>2026-04-30T08:07:08.001Z</time></trkpt><trkpt lat="42.955202218427466" lon="-2.1353669224749003"><ele>404.0</ele><time>2026-04-30T08:07:09.001Z</time></trkpt><trkpt lat="42.955247773557055" lon="-2.1354348369603975"><ele>403.99999999999994</ele><time>2026-04-30T08:07:10.001Z</time></trkpt><trkpt lat="42.95529933245661" lon="-2.1355040800480904"><ele>404.0</ele><time>2026-04-30T08:07:11.001Z</time></trkpt><trkpt lat="42.95537886712636" lon="-2.1355137485608746"><ele>404.0</ele><time>2026-04-30T08:07:12.001Z</time></trkpt><trkpt lat="42.9554598285486" lon="-2.135520036351006"><ele>404.0</ele><time>2026-04-30T08:07:13.001Z</time></trkpt><trkpt lat="42.95554424559872" lon="-2.135541183148727"><ele>403.99999999999994</ele><time>2026-04-30T08:07:14.001Z</time></trkpt><trkpt lat="42.95561744404667" lon="-2.1355684093053022"><ele>404.0</ele><time>2026-04-30T08:07:15.001Z</time></trkpt><trkpt lat="42.95569630286001" lon="-2.135581010959563"><ele>403.99999999999994</ele><time>2026-04-30T08:07:16.001Z</time></trkpt><trkpt lat="42.95577336222174" lon="-2.135593580715694"><ele>404.0</ele><time>2026-04-30T08:07:17.001Z</time></trkpt><trkpt lat="42.95585435280275" lon="-2.135595352873981"><ele>404.0</ele><time>2026-04-30T08:07:18.001Z</time></trkpt><trkpt lat="42.95590942124361" lon="-2.1356404263044344"><ele>404.0</ele><time>2026-04-30T08:07:19.001Z</time></trkpt><trkpt lat="42.956022997976795" lon="-2.1357021494139197"><ele>403.99999999999994</ele><time>2026-04-30T08:07:21.001Z</time></trkpt><trkpt lat="42.95605979653586" lon="-2.1357875165706424"><ele>404.0</ele><time>2026-04-30T08:07:22.001Z</time></trkpt><trkpt lat="42.95608989734388" lon="-2.135865441461486"><ele>403.16666666666663</ele><time>2026-04-30T08:07:23.001Z</time></trkpt><trkpt lat="42.956135816828194" lon="-2.1359385584298005"><ele>402.3333333333333</ele><time>2026-04-30T08:07:24.001Z</time></trkpt><trkpt lat="42.956172647721814" lon="-2.136015276703693"><ele>401.5</ele><time>2026-04-30T08:07:25.001Z</time></trkpt><trkpt lat="42.956225913527426" lon="-2.1361202381288558"><ele>400.66666666666663</ele><time>2026-04-30T08:07:26.001Z</time></trkpt><trkpt lat="42.9562868773845" lon="-2.1362182227829107"><ele>399.8333333333333</ele><time>2026-04-30T08:07:27.001Z</time></trkpt><trkpt lat="42.95633670518936" lon="-2.13630287510776"><ele>399.0</ele><time>2026-04-30T08:07:28.001Z</time></trkpt><trkpt lat="42.95639007672918" lon="-2.136380895764384"><ele>399.0</ele><time>2026-04-30T08:07:29.001Z</time></trkpt><trkpt lat="42.95644221035892" lon="-2.1364687674189855"><ele>399.0</ele><time>2026-04-30T08:07:30.001Z</time></trkpt><trkpt lat="42.95647727641278" lon="-2.136554282624663"><ele>399.0</ele><time>2026-04-30T08:07:31.001Z</time></trkpt><trkpt lat="42.9564998392237" lon="-2.136640190732384"><ele>399.0</ele><time>2026-04-30T08:07:32.001Z</time></trkpt><trkpt lat="42.95650287770719" lon="-2.136745984066495"><ele>399.0</ele><time>2026-04-30T08:07:33.001Z</time></trkpt><trkpt lat="42.95650003210699" lon="-2.136894280209387"><ele>399.0</ele><time>2026-04-30T08:07:34.001Z</time></trkpt><trkpt lat="42.95651343559556" lon="-2.137022107477721"><ele>399.1666666666667</ele><time>2026-04-30T08:07:35.001Z</time></trkpt><trkpt lat="42.956520819084574" lon="-2.1371415113733896"><ele>399.33333333333337</ele><time>2026-04-30T08:07:36.001Z</time></trkpt><trkpt lat="42.95653464948837" lon="-2.1372611580242986"><ele>399.5</ele><time>2026-04-30T08:07:37.001Z</time></trkpt><trkpt lat="42.95656298379328" lon="-2.137368894228314"><ele>399.6666666666667</ele><time>2026-04-30T08:07:38.001Z</time></trkpt><trkpt lat="42.95659404126856" lon="-2.137472314228511"><ele>399.83333333333337</ele><time>2026-04-30T08:07:39.001Z</time></trkpt><trkpt lat="42.95662276421692" lon="-2.137567612077604"><ele>400.0</ele><time>2026-04-30T08:07:40.001Z</time></trkpt><trkpt lat="42.95665028558716" lon="-2.137668373107603"><ele>400.0</ele><time>2026-04-30T08:07:41.001Z</time></trkpt><trkpt lat="42.956654445551" lon="-2.1377926611747515"><ele>400.0</ele><time>2026-04-30T08:07:42.001Z</time></trkpt><trkpt lat="42.956655804305875" lon="-2.1379222802080307"><ele>400.0</ele><time>2026-04-30T08:07:43.001Z</time></trkpt><trkpt lat="42.95664645631053" lon="-2.1380753484840165"><ele>400.0</ele><time>2026-04-30T08:07:44.001Z</time></trkpt><trkpt lat="42.95664294728993" lon="-2.1382045387310535"><ele>400.0</ele><time>2026-04-30T08:07:45.001Z</time></trkpt><trkpt lat="42.9566182736539" lon="-2.1383342459049373"><ele>398.6</ele><time>2026-04-30T08:07:46.001Z</time></trkpt><trkpt lat="42.95658741131069" lon="-2.1384518249308013"><ele>397.2</ele><time>2026-04-30T08:07:47.001Z</time></trkpt><trkpt lat="42.95655204171921" lon="-2.138575298502175"><ele>395.79999999999995</ele><time>2026-04-30T08:07:48.001Z</time></trkpt><trkpt lat="42.95651129353804" lon="-2.1386938302672833"><ele>394.4</ele><time>2026-04-30T08:07:49.001Z</time></trkpt><trkpt lat="42.956492973228826" lon="-2.1388222204051783"><ele>393.0</ele><time>2026-04-30T08:07:50.001Z</time></trkpt><trkpt lat="42.95647778371973" lon="-2.138952440885795"><ele>391.2</ele><time>2026-04-30T08:07:51.001Z</time></trkpt><trkpt lat="42.95644979252929" lon="-2.1390814034806676"><ele>389.4</ele><time>2026-04-30T08:07:52.001Z</time></trkpt><trkpt lat="42.95640295984661" lon="-2.13919898739283"><ele>387.59999999999997</ele><time>2026-04-30T08:07:53.001Z</time></trkpt><trkpt lat="42.95635713953441" lon="-2.139314646350656"><ele>385.79999999999995</ele><time>2026-04-30T08:07:54.001Z</time></trkpt><trkpt lat="42.95630556955708" lon="-2.139417690439102"><ele>384.0</ele><time>2026-04-30T08:07:55.001Z</time></trkpt><trkpt lat="42.95625415434192" lon="-2.139524157065697"><ele>384.0</ele><time>2026-04-30T08:07:56.001Z</time></trkpt><trkpt lat="42.956199402917115" lon="-2.1396303728394965"><ele>384.0</ele><time>2026-04-30T08:07:57.001Z</time></trkpt><trkpt lat="42.956159734646256" lon="-2.1397505050337418"><ele>384.0</ele><time>2026-04-30T08:07:58.001Z</time></trkpt><trkpt lat="42.95610583310854" lon="-2.139871947148053"><ele>384.0</ele><time>2026-04-30T08:07:59.001Z</time></trkpt><trkpt lat="42.95605577262464" lon="-2.139988542241631"><ele>384.0</ele><time>2026-04-30T08:08:00.001Z</time></trkpt><trkpt lat="42.95600788259926" lon="-2.140104143249612"><ele>381.4</ele><time>2026-04-30T08:08:01.001Z</time></trkpt><trkpt lat="42.95596596482997" lon="-2.140217535804907"><ele>378.79999999999995</ele><time>2026-04-30T08:08:02.001Z</time></trkpt><trkpt lat="42.95592478917987" lon="-2.1403265230420145"><ele>376.20000000000005</ele><time>2026-04-30T08:08:03.001Z</time></trkpt><trkpt lat="42.9558653830411" lon="-2.140427173156755"><ele>373.6</ele><time>2026-04-30T08:08:04.001Z</time></trkpt><trkpt lat="42.95582530959939" lon="-2.1405634661381745"><ele>371.0</ele><time>2026-04-30T08:08:05.001Z</time></trkpt><trkpt lat="42.95581428065248" lon="-2.1407040655617333"><ele>369.8</ele><time>2026-04-30T08:08:06.001Z</time></trkpt><trkpt lat="42.95580894330534" lon="-2.140834621995744"><ele>368.6</ele><time>2026-04-30T08:08:07.001Z</time></trkpt><trkpt lat="42.95583446870902" lon="-2.1409734602530115"><ele>367.4</ele><time>2026-04-30T08:08:08.001Z</time></trkpt><trkpt lat="42.95585988778285" lon="-2.1411075579144754"><ele>366.2</ele><time>2026-04-30T08:08:09.002Z</time></trkpt><trkpt lat="42.95589008518398" lon="-2.1412365607011092"><ele>365.0</ele><time>2026-04-30T08:08:10.002Z</time></trkpt><trkpt lat="42.955910392976186" lon="-2.1413821016520127"><ele>365.0</ele><time>2026-04-30T08:08:11.002Z</time></trkpt><trkpt lat="42.95591055680593" lon="-2.1415263151593167"><ele>365.0</ele><time>2026-04-30T08:08:12.002Z</time></trkpt><trkpt lat="42.95590619859266" lon="-2.1416630993777113"><ele>365.0</ele><time>2026-04-30T08:08:13.002Z</time></trkpt><trkpt lat="42.95590235207664" lon="-2.141801144756719"><ele>365.0</ele><time>2026-04-30T08:08:14.002Z</time></trkpt><trkpt lat="42.95590290377728" lon="-2.1419480653272993"><ele>365.0</ele><time>2026-04-30T08:08:15.002Z</time></trkpt><trkpt lat="42.95590243187849" lon="-2.142072225703135"><ele>364.6</ele><time>2026-04-30T08:08:16.002Z</time></trkpt><trkpt lat="42.955904345868376" lon="-2.1421969049540435"><ele>364.2</ele><time>2026-04-30T08:08:17.002Z</time></trkpt><trkpt lat="42.95591514666582" lon="-2.1423328086403726"><ele>363.79999999999995</ele><time>2026-04-30T08:08:18.002Z</time></trkpt><trkpt lat="42.9559382055219" lon="-2.142460836643517"><ele>363.4</ele><time>2026-04-30T08:08:19.002Z</time></trkpt><trkpt lat="42.95596134471354" lon="-2.142582981819931"><ele>363.0</ele><time>2026-04-30T08:08:20.002Z</time></trkpt><trkpt lat="42.95599639846589" lon="-2.1427058198902844"><ele>362.0</ele><time>2026-04-30T08:08:21.002Z</time></trkpt><trkpt lat="42.956030413926136" lon="-2.142827866037761"><ele>361.0</ele><time>2026-04-30T08:08:22.002Z</time></trkpt><trkpt lat="42.956078966272415" lon="-2.142942873900675"><ele>360.0</ele><time>2026-04-30T08:08:23.002Z</time></trkpt><trkpt lat="42.95613194694724" lon="-2.1430420449185448"><ele>359.0</ele><time>2026-04-30T08:08:24.002Z</time></trkpt><trkpt lat="42.956197987498825" lon="-2.1431252187118504"><ele>358.0</ele><time>2026-04-30T08:08:25.002Z</time></trkpt><trkpt lat="42.95627247481791" lon="-2.143194248265272"><ele>361.0</ele><time>2026-04-30T08:08:26.002Z</time></trkpt><trkpt lat="42.95635721858078" lon="-2.143237974951439"><ele>364.0</ele><time>2026-04-30T08:08:27.002Z</time></trkpt><trkpt lat="42.95644824996085" lon="-2.1432845703028223"><ele>367.0</ele><time>2026-04-30T08:08:28.002Z</time></trkpt><trkpt lat="42.95653810913349" lon="-2.1433446849922806"><ele>370.0</ele><time>2026-04-30T08:08:29.002Z</time></trkpt><trkpt lat="42.95660832696868" lon="-2.1434313879133255"><ele>373.0</ele><time>2026-04-30T08:08:30.002Z</time></trkpt><trkpt lat="42.956680840977725" lon="-2.143508118475502"><ele>366.79999999999995</ele><time>2026-04-30T08:08:31.002Z</time></trkpt><trkpt lat="42.95674423182662" lon="-2.143580391399299"><ele>360.6</ele><time>2026-04-30T08:08:32.002Z</time></trkpt><trkpt lat="42.95681877232406" lon="-2.143674602879866"><ele>354.4</ele><time>2026-04-30T08:08:33.002Z</time></trkpt><trkpt lat="42.956889516246896" lon="-2.1437529991295374"><ele>348.20000000000005</ele><time>2026-04-30T08:08:34Z</time></trkpt><trkpt lat="42.95696187945253" lon="-2.143821638322301"><ele>342.0</ele><time>2026-04-30T08:08:35Z</time></trkpt><trkpt lat="42.95702952042097" lon="-2.143900892541742"><ele>342.0</ele><time>2026-04-30T08:08:36Z</time></trkpt><trkpt lat="42.957085260195" lon="-2.143991908917121"><ele>342.0</ele><time>2026-04-30T08:08:37Z</time></trkpt><trkpt lat="42.95713429136512" lon="-2.1440911922224606"><ele>342.0</ele><time>2026-04-30T08:08:38Z</time></trkpt><trkpt lat="42.95717507584923" lon="-2.1442102689254323"><ele>342.0</ele><time>2026-04-30T08:08:39Z</time></trkpt><trkpt lat="42.957199319305474" lon="-2.1443374059207625"><ele>342.0</ele><time>2026-04-30T08:08:40Z</time></trkpt><trkpt lat="42.95722092308447" lon="-2.144464278025992"><ele>344.0</ele><time>2026-04-30T08:08:41Z</time></trkpt><trkpt lat="42.9572368346527" lon="-2.1445959792669838"><ele>346.0</ele><time>2026-04-30T08:08:42Z</time></trkpt><trkpt lat="42.95725120240999" lon="-2.1447180342735335"><ele>348.0</ele><time>2026-04-30T08:08:43Z</time></trkpt><trkpt lat="42.957267157345136" lon="-2.1448513298680916"><ele>350.0</ele><time>2026-04-30T08:08:44Z</time></trkpt><trkpt lat="42.957268606130896" lon="-2.144988353477"><ele>352.0</ele><time>2026-04-30T08:08:45Z</time></trkpt><trkpt lat="42.95726575931598" lon="-2.145128567584079"><ele>352.40000000000003</ele><time>2026-04-30T08:08:46Z</time></trkpt><trkpt lat="42.95725315641666" lon="-2.14526698124912"><ele>352.8</ele><time>2026-04-30T08:08:47Z</time></trkpt><trkpt lat="42.95724504103973" lon="-2.1453912465363034"><ele>353.2</ele><time>2026-04-30T08:08:48Z</time></trkpt><trkpt lat="42.95723117248302" lon="-2.1455296404085065"><ele>353.6</ele><time>2026-04-30T08:08:49Z</time></trkpt><trkpt lat="42.95721354181462" lon="-2.1456661714034335"><ele>354.0</ele><time>2026-04-30T08:08:50Z</time></trkpt><trkpt lat="42.95719706892336" lon="-2.145793832612708"><ele>352.6</ele><time>2026-04-30T08:08:51Z</time></trkpt><trkpt lat="42.957178192006054" lon="-2.1459205954689278"><ele>351.2</ele><time>2026-04-30T08:08:52Z</time></trkpt><trkpt lat="42.95715914182754" lon="-2.146057792859446"><ele>349.8</ele><time>2026-04-30T08:08:53Z</time></trkpt><trkpt lat="42.957151577650684" lon="-2.1461913506319856"><ele>348.40000000000003</ele><time>2026-04-30T08:08:54Z</time></trkpt><trkpt lat="42.957148696811736" lon="-2.14632294028524"><ele>347.0</ele><time>2026-04-30T08:08:55Z</time></trkpt><trkpt lat="42.95715830889305" lon="-2.146455648277875"><ele>346.0</ele><time>2026-04-30T08:08:56Z</time></trkpt><trkpt lat="42.957168201851346" lon="-2.1465809184757156"><ele>345.0</ele><time>2026-04-30T08:08:57Z</time></trkpt><trkpt lat="42.957236417241475" lon="-2.146777803932627"><ele>344.0</ele><time>2026-04-30T08:08:59Z</time></trkpt><trkpt lat="42.95727038234148" lon="-2.1469381620314336"><ele>343.0</ele><time>2026-04-30T08:09:00Z</time></trkpt><trkpt lat="42.95728779388254" lon="-2.1470831043677157"><ele>343.0</ele><time>2026-04-30T08:09:01Z</time></trkpt><trkpt lat="42.957310479703246" lon="-2.1472176097269506"><ele>343.0</ele><time>2026-04-30T08:09:02Z</time></trkpt><trkpt lat="42.95733975881615" lon="-2.147354150171759"><ele>343.0</ele><time>2026-04-30T08:09:03Z</time></trkpt><trkpt lat="42.957360022964686" lon="-2.14748023567413"><ele>343.0</ele><time>2026-04-30T08:09:04Z</time></trkpt><trkpt lat="42.9573744443709" lon="-2.14761248728349"><ele>343.0</ele><time>2026-04-30T08:09:05Z</time></trkpt><trkpt lat="42.95737899222144" lon="-2.147735081347931"><ele>343.59999999999997</ele><time>2026-04-30T08:09:06Z</time></trkpt><trkpt lat="42.95738700520074" lon="-2.147878705088294"><ele>344.2</ele><time>2026-04-30T08:09:07Z</time></trkpt><trkpt lat="42.9573963911562" lon="-2.147996971626691"><ele>344.8</ele><time>2026-04-30T08:09:08Z</time></trkpt><trkpt lat="42.95739551260398" lon="-2.148128786999048"><ele>345.4</ele><time>2026-04-30T08:09:09Z</time></trkpt><trkpt lat="42.957382464074826" lon="-2.148253559783549"><ele>346.0</ele><time>2026-04-30T08:09:10Z</time></trkpt><trkpt lat="42.95737474606283" lon="-2.148380642843095"><ele>346.0</ele><time>2026-04-30T08:09:11Z</time></trkpt><trkpt lat="42.957342512628166" lon="-2.148494349236503"><ele>346.0</ele><time>2026-04-30T08:09:12Z</time></trkpt><trkpt lat="42.957287269667226" lon="-2.1486084183953618"><ele>346.0</ele><time>2026-04-30T08:09:13Z</time></trkpt><trkpt lat="42.95727688969877" lon="-2.148735442889236"><ele>346.0</ele><time>2026-04-30T08:09:14Z</time></trkpt><trkpt lat="42.957297173973195" lon="-2.148869924285799"><ele>346.0</ele><time>2026-04-30T08:09:15Z</time></trkpt><trkpt lat="42.95729040396744" lon="-2.1489995474306594"><ele>344.0</ele><time>2026-04-30T08:09:16Z</time></trkpt><trkpt lat="42.957291981929124" lon="-2.1491141913674703"><ele>342.0</ele><time>2026-04-30T08:09:17.001Z</time></trkpt><trkpt lat="42.957285065628696" lon="-2.149254571172669"><ele>340.0</ele><time>2026-04-30T08:09:18.001Z</time></trkpt><trkpt lat="42.95725131196312" lon="-2.149393230606211"><ele>338.0</ele><time>2026-04-30T08:09:19.001Z</time></trkpt><trkpt lat="42.95721918474682" lon="-2.1495214924130672"><ele>336.0</ele><time>2026-04-30T08:09:20.001Z</time></trkpt><trkpt lat="42.957196058769746" lon="-2.149651209037378"><ele>336.0</ele><time>2026-04-30T08:09:21.001Z</time></trkpt><trkpt lat="42.9571700686595" lon="-2.149772030392505"><ele>336.0</ele><time>2026-04-30T08:09:22.001Z</time></trkpt><trkpt lat="42.957144807353416" lon="-2.149888732496816"><ele>336.0</ele><time>2026-04-30T08:09:23.001Z</time></trkpt><trkpt lat="42.95711619806687" lon="-2.1500068533672123"><ele>336.0</ele><time>2026-04-30T08:09:24.001Z</time></trkpt><trkpt lat="42.957093523322094" lon="-2.1501202159022847"><ele>336.0</ele><time>2026-04-30T08:09:25.001Z</time></trkpt><trkpt lat="42.95708482714021" lon="-2.1502457754737616"><ele>335.6666666666667</ele><time>2026-04-30T08:09:26.001Z</time></trkpt><trkpt lat="42.95708499149478" lon="-2.1503779052808487"><ele>335.3333333333333</ele><time>2026-04-30T08:09:27.001Z</time></trkpt><trkpt lat="42.9570924471935" lon="-2.1504917339232263"><ele>335.0</ele><time>2026-04-30T08:09:28.001Z</time></trkpt><trkpt lat="42.9571057517248" lon="-2.1506085964433415"><ele>334.66666666666663</ele><time>2026-04-30T08:09:29.001Z</time></trkpt><trkpt lat="42.95712740020959" lon="-2.1507163504622135"><ele>334.3333333333333</ele><time>2026-04-30T08:09:30.001Z</time></trkpt><trkpt lat="42.95716586082263" lon="-2.150827374064397"><ele>334.0</ele><time>2026-04-30T08:09:31.001Z</time></trkpt><trkpt lat="42.9572153262561" lon="-2.1509304977252612"><ele>334.0</ele><time>2026-04-30T08:09:32.001Z</time></trkpt><trkpt lat="42.95727195981688" lon="-2.1510287742900718"><ele>334.0</ele><time>2026-04-30T08:09:33.001Z</time></trkpt><trkpt lat="42.95734134575402" lon="-2.1511080623764403"><ele>334.0</ele><time>2026-04-30T08:09:34.001Z</time></trkpt><trkpt lat="42.95742150880741" lon="-2.1511730536923297"><ele>334.0</ele><time>2026-04-30T08:09:35.001Z</time></trkpt><trkpt lat="42.957499072747204" lon="-2.1512245590196977"><ele>334.0</ele><time>2026-04-30T08:09:36.001Z</time></trkpt><trkpt lat="42.95758256347092" lon="-2.1512720820339135"><ele>331.66666666666663</ele><time>2026-04-30T08:09:37.001Z</time></trkpt><trkpt lat="42.95767011313476" lon="-2.151299171736014"><ele>329.3333333333333</ele><time>2026-04-30T08:09:38.001Z</time></trkpt><trkpt lat="42.95775943071703" lon="-2.151308810412209"><ele>327.0</ele><time>2026-04-30T08:09:39.001Z</time></trkpt><trkpt lat="42.95784331217309" lon="-2.151327788201436"><ele>324.6666666666667</ele><time>2026-04-30T08:09:40.001Z</time></trkpt><trkpt lat="42.957927799808985" lon="-2.151354552044504"><ele>322.33333333333337</ele><time>2026-04-30T08:09:41.001Z</time></trkpt><trkpt lat="42.95800892182971" lon="-2.1514003261541403"><ele>320.0</ele><time>2026-04-30T08:09:42.001Z</time></trkpt><trkpt lat="42.95808031509003" lon="-2.1514695902962724"><ele>319.8</ele><time>2026-04-30T08:09:43.001Z</time></trkpt><trkpt lat="42.95813942177938" lon="-2.151562634653201"><ele>319.6</ele><time>2026-04-30T08:09:44.001Z</time></trkpt><trkpt lat="42.95818672723016" lon="-2.1516748749539354"><ele>319.4</ele><time>2026-04-30T08:09:45.001Z</time></trkpt><trkpt lat="42.95823272178292" lon="-2.1517850306870256"><ele>319.2</ele><time>2026-04-30T08:09:46.001Z</time></trkpt><trkpt lat="42.958269363437616" lon="-2.1519035882855366"><ele>319.0</ele><time>2026-04-30T08:09:47.001Z</time></trkpt><trkpt lat="42.95830236509416" lon="-2.152028893794389"><ele>319.0</ele><time>2026-04-30T08:09:48.001Z</time></trkpt><trkpt lat="42.95832612980725" lon="-2.1521692956399834"><ele>319.0</ele><time>2026-04-30T08:09:49.001Z</time></trkpt><trkpt lat="42.958349433802944" lon="-2.152309503087328"><ele>319.0</ele><time>2026-04-30T08:09:50.001Z</time></trkpt><trkpt lat="42.9583777233881" lon="-2.152430991022371"><ele>319.0</ele><time>2026-04-30T08:09:51.001Z</time></trkpt><trkpt lat="42.9584038933237" lon="-2.1525586854173144"><ele>319.0</ele><time>2026-04-30T08:09:52.001Z</time></trkpt><trkpt lat="42.95843182942546" lon="-2.1526875095759093"><ele>317.8</ele><time>2026-04-30T08:09:53.001Z</time></trkpt><trkpt lat="42.95846138991204" lon="-2.152812410372671"><ele>316.59999999999997</ele><time>2026-04-30T08:09:54.001Z</time></trkpt><trkpt lat="42.95849022317935" lon="-2.1529414700253753"><ele>315.4</ele><time>2026-04-30T08:09:55.001Z</time></trkpt><trkpt lat="42.9585185314015" lon="-2.1530636372012872"><ele>314.2</ele><time>2026-04-30T08:09:56.001Z</time></trkpt><trkpt lat="42.958541957969345" lon="-2.153186619588724"><ele>313.0</ele><time>2026-04-30T08:09:57.001Z</time></trkpt><trkpt lat="42.95855178608228" lon="-2.153316275553662"><ele>312.4</ele><time>2026-04-30T08:09:58.001Z</time></trkpt><trkpt lat="42.95854831189839" lon="-2.1534437445284813"><ele>311.8</ele><time>2026-04-30T08:09:59.001Z</time></trkpt><trkpt lat="42.95853378015781" lon="-2.153575532077546"><ele>311.2</ele><time>2026-04-30T08:10:00.001Z</time></trkpt><trkpt lat="42.95850870238428" lon="-2.153704059997921"><ele>310.6</ele><time>2026-04-30T08:10:01.001Z</time></trkpt><trkpt lat="42.95848166354709" lon="-2.1538257679721746"><ele>310.0</ele><time>2026-04-30T08:10:02.001Z</time></trkpt><trkpt lat="42.95845264696389" lon="-2.1539439455178506"><ele>311.4</ele><time>2026-04-30T08:10:03.001Z</time></trkpt><trkpt lat="42.95842904487315" lon="-2.154063301890203"><ele>312.8</ele><time>2026-04-30T08:10:04.001Z</time></trkpt><trkpt lat="42.95841536311802" lon="-2.15418822318059"><ele>314.2</ele><time>2026-04-30T08:10:05.001Z</time></trkpt><trkpt lat="42.958415715937534" lon="-2.1543123673149003"><ele>315.6</ele><time>2026-04-30T08:10:06.001Z</time></trkpt><trkpt lat="42.958429291917774" lon="-2.1544345445677155"><ele>317.0</ele><time>2026-04-30T08:10:07.001Z</time></trkpt><trkpt lat="42.95846502908317" lon="-2.1545518525585083"><ele>317.0</ele><time>2026-04-30T08:10:08.001Z</time></trkpt><trkpt lat="42.9585156424351" lon="-2.1546456693319564"><ele>317.0</ele><time>2026-04-30T08:10:09.001Z</time></trkpt><trkpt lat="42.95856828811429" lon="-2.154734648199232"><ele>317.0</ele><time>2026-04-30T08:10:10.001Z</time></trkpt><trkpt lat="42.95860058353854" lon="-2.1548314713112555"><ele>317.0</ele><time>2026-04-30T08:10:11.001Z</time></trkpt><trkpt lat="42.95860854841127" lon="-2.1549379674857994"><ele>317.0</ele><time>2026-04-30T08:10:12.001Z</time></trkpt><trkpt lat="42.95858720377468" lon="-2.155051147005398"><ele>317.0</ele><time>2026-04-30T08:10:13.001Z</time></trkpt><trkpt lat="42.958546290515784" lon="-2.155156931698879"><ele>318.0</ele><time>2026-04-30T08:10:14.001Z</time></trkpt><trkpt lat="42.95849645258468" lon="-2.1552571869356125"><ele>319.0</ele><time>2026-04-30T08:10:15.001Z</time></trkpt><trkpt lat="42.95845000592972" lon="-2.155368535198566"><ele>320.0</ele><time>2026-04-30T08:10:16.001Z</time></trkpt><trkpt lat="42.958406958463314" lon="-2.155479575170712"><ele>321.0</ele><time>2026-04-30T08:10:17.001Z</time></trkpt><trkpt lat="42.95836128441518" lon="-2.1555925854437357"><ele>322.0</ele><time>2026-04-30T08:10:18.001Z</time></trkpt><trkpt lat="42.95831378776489" lon="-2.1557031850173107"><ele>320.40000000000003</ele><time>2026-04-30T08:10:19.001Z</time></trkpt><trkpt lat="42.95826659706722" lon="-2.1558064425260937"><ele>318.8</ele><time>2026-04-30T08:10:20.001Z</time></trkpt><trkpt lat="42.95821294295141" lon="-2.1559225370192463"><ele>317.2</ele><time>2026-04-30T08:10:21.001Z</time></trkpt><trkpt lat="42.95816766431344" lon="-2.1560415811897133"><ele>315.6</ele><time>2026-04-30T08:10:22.001Z</time></trkpt><trkpt lat="42.958120541324455" lon="-2.1561497009030335"><ele>314.0</ele><time>2026-04-30T08:10:23.001Z</time></trkpt><trkpt lat="42.95807144398622" lon="-2.1562593883156476"><ele>314.0</ele><time>2026-04-30T08:10:24.001Z</time></trkpt><trkpt lat="42.95802953674732" lon="-2.156363949845251"><ele>314.0</ele><time>2026-04-30T08:10:25.001Z</time></trkpt><trkpt lat="42.957994031550456" lon="-2.1564616963241736"><ele>314.0</ele><time>2026-04-30T08:10:26.001Z</time></trkpt><trkpt lat="42.95796784480023" lon="-2.1565441482581655"><ele>314.0</ele><time>2026-04-30T08:10:27.002Z</time></trkpt><trkpt lat="42.95795817763573" lon="-2.156686591264607"><ele>314.0</ele><time>2026-04-30T08:10:29.002Z</time></trkpt><trkpt lat="42.958012318262355" lon="-2.1567964953940235"><ele>314.0</ele><time>2026-04-30T08:10:31.002Z</time></trkpt><trkpt lat="42.95810505914691" lon="-2.1568179759845405"><ele>314.0</ele><time>2026-04-30T08:10:33.002Z</time></trkpt><trkpt lat="42.95818422341623" lon="-2.1568020064471947"><ele>314.0</ele><time>2026-04-30T08:10:35.002Z</time></trkpt><trkpt lat="42.95822336422887" lon="-2.1566414601007744"><ele>314.0</ele><time>2026-04-30T08:10:39.002Z</time></trkpt><trkpt lat="42.958240698320836" lon="-2.1565230500062103"><ele>314.0</ele><time>2026-04-30T08:10:41Z</time></trkpt><trkpt lat="42.95829122930302" lon="-2.1563823772672577"><ele>314.0</ele><time>2026-04-30T08:10:43Z</time></trkpt><trkpt lat="42.95831465030896" lon="-2.1562932144309443"><ele>314.0</ele><time>2026-04-30T08:10:44Z</time></trkpt><trkpt lat="42.958355620300594" lon="-2.156216717831462"><ele>314.0</ele><time>2026-04-30T08:10:45Z</time></trkpt><trkpt lat="42.95840237536073" lon="-2.1561433695046777"><ele>314.0</ele><time>2026-04-30T08:10:46Z</time></trkpt><trkpt lat="42.95844599423777" lon="-2.1560777617283238"><ele>314.0</ele><time>2026-04-30T08:10:47Z</time></trkpt><trkpt lat="42.958517413065294" lon="-2.1559671025730687"><ele>314.0</ele><time>2026-04-30T08:10:49Z</time></trkpt><trkpt lat="42.9585674654521" lon="-2.15590925215057"><ele>314.0</ele><time>2026-04-30T08:10:52Z</time></trkpt><trkpt lat="42.95850881486291" lon="-2.1559805820268143"><ele>314.0</ele><time>2026-04-30T08:10:59Z</time></trkpt><trkpt lat="42.95846786175242" lon="-2.156046350998391"><ele>314.0</ele><time>2026-04-30T08:11:00Z</time></trkpt><trkpt lat="42.95844073790222" lon="-2.156144920852718"><ele>314.0</ele><time>2026-04-30T08:11:01Z</time></trkpt><trkpt lat="42.95837295459784" lon="-2.156268560804369"><ele>314.0</ele><time>2026-04-30T08:11:03Z</time></trkpt><trkpt lat="42.95832519487281" lon="-2.156413178076742"><ele>314.0</ele><time>2026-04-30T08:11:05Z</time></trkpt><trkpt lat="42.958297394815624" lon="-2.156571430924331"><ele>313.5</ele><time>2026-04-30T08:11:07Z</time></trkpt><trkpt lat="42.95829083092582" lon="-2.156712985528047"><ele>313.0</ele><time>2026-04-30T08:11:09Z</time></trkpt><trkpt lat="42.958316672670385" lon="-2.156813379485505"><ele>312.5</ele><time>2026-04-30T08:11:11Z</time></trkpt><trkpt lat="42.95839093375802" lon="-2.1568544864534887"><ele>312.0</ele><time>2026-04-30T08:11:13Z</time></trkpt><trkpt lat="42.95849634789887" lon="-2.1568274806549463"><ele>311.5</ele><time>2026-04-30T08:11:15Z</time></trkpt><trkpt lat="42.9585619923242" lon="-2.1568030574712744"><ele>311.0</ele><time>2026-04-30T08:11:16Z</time></trkpt><trkpt lat="42.95862790438441" lon="-2.156777281607515"><ele>311.0</ele><time>2026-04-30T08:11:17Z</time></trkpt><trkpt lat="42.95869810893654" lon="-2.1567503344512176"><ele>311.0</ele><time>2026-04-30T08:11:18Z</time></trkpt><trkpt lat="42.95877282389263" lon="-2.156724284860869"><ele>311.0</ele><time>2026-04-30T08:11:19Z</time></trkpt><trkpt lat="42.95885498143677" lon="-2.156694129101752"><ele>311.0</ele><time>2026-04-30T08:11:20Z</time></trkpt><trkpt lat="42.95893667678983" lon="-2.1566645634200294"><ele>311.0</ele><time>2026-04-30T08:11:21Z</time></trkpt><trkpt lat="42.95902555261181" lon="-2.156639520876835"><ele>311.0</ele><time>2026-04-30T08:11:22Z</time></trkpt><trkpt lat="42.959115480288645" lon="-2.156627438372657"><ele>319.20000000000005</ele><time>2026-04-30T08:11:23.001Z</time></trkpt><trkpt lat="42.959205780696784" lon="-2.1566375328988565"><ele>327.40000000000003</ele><time>2026-04-30T08:11:24.001Z</time></trkpt><trkpt lat="42.9592961222409" lon="-2.156664632587022"><ele>335.6</ele><time>2026-04-30T08:11:25.001Z</time></trkpt><trkpt lat="42.95938162866113" lon="-2.156709199300957"><ele>343.8</ele><time>2026-04-30T08:11:26.001Z</time></trkpt><trkpt lat="42.95946681425991" lon="-2.156764387768339"><ele>352.0</ele><time>2026-04-30T08:11:27.001Z</time></trkpt><trkpt lat="42.959548136454444" lon="-2.1568326213707136"><ele>352.0</ele><time>2026-04-30T08:11:28.001Z</time></trkpt><trkpt lat="42.95962471130706" lon="-2.156915454141296"><ele>352.0</ele><time>2026-04-30T08:11:29.001Z</time></trkpt><trkpt lat="42.959690298514616" lon="-2.157008073109141"><ele>352.0</ele><time>2026-04-30T08:11:30.001Z</time></trkpt><trkpt lat="42.959747710537876" lon="-2.157117406362114"><ele>352.0</ele><time>2026-04-30T08:11:31.001Z</time></trkpt><trkpt lat="42.9597907231918" lon="-2.157236491597284"><ele>352.0</ele><time>2026-04-30T08:11:32.001Z</time></trkpt><trkpt lat="42.95982700987531" lon="-2.1573545634861264"><ele>346.20000000000005</ele><time>2026-04-30T08:11:33.001Z</time></trkpt><trkpt lat="42.95984957520289" lon="-2.1574775671814477"><ele>340.4</ele><time>2026-04-30T08:11:34.001Z</time></trkpt><trkpt lat="42.95986492076269" lon="-2.157603876206192"><ele>334.6</ele><time>2026-04-30T08:11:35.001Z</time></trkpt><trkpt lat="42.959873775134824" lon="-2.1577315299661888"><ele>328.79999999999995</ele><time>2026-04-30T08:11:36.001Z</time></trkpt><trkpt lat="42.95987523997151" lon="-2.157859730894864"><ele>323.0</ele><time>2026-04-30T08:11:37.001Z</time></trkpt><trkpt lat="42.95987648901718" lon="-2.1579925266669138"><ele>323.0</ele><time>2026-04-30T08:11:38.001Z</time></trkpt><trkpt lat="42.95987945556057" lon="-2.158129472061146"><ele>323.0</ele><time>2026-04-30T08:11:39.001Z</time></trkpt><trkpt lat="42.959881004021504" lon="-2.1582530390778687"><ele>323.0</ele><time>2026-04-30T08:11:40.001Z</time></trkpt><trkpt lat="42.959891407847145" lon="-2.158380867018836"><ele>323.0</ele><time>2026-04-30T08:11:41.001Z</time></trkpt><trkpt lat="42.959906613404264" lon="-2.1585080561861623"><ele>323.0</ele><time>2026-04-30T08:11:42.001Z</time></trkpt><trkpt lat="42.95992609782843" lon="-2.1586361062215653"><ele>322.59999999999997</ele><time>2026-04-30T08:11:43.001Z</time></trkpt><trkpt lat="42.95996335220241" lon="-2.158768164648121"><ele>322.2</ele><time>2026-04-30T08:11:44.001Z</time></trkpt><trkpt lat="42.96000106077449" lon="-2.1588937405821715"><ele>321.8</ele><time>2026-04-30T08:11:45.001Z</time></trkpt><trkpt lat="42.96003111927413" lon="-2.159031258660336"><ele>321.4</ele><time>2026-04-30T08:11:46.001Z</time></trkpt><trkpt lat="42.96005525756356" lon="-2.159149995782311"><ele>321.0</ele><time>2026-04-30T08:11:47.001Z</time></trkpt><trkpt lat="42.960081458481575" lon="-2.1592673372773032"><ele>325.8</ele><time>2026-04-30T08:11:48.001Z</time></trkpt><trkpt lat="42.960099302138566" lon="-2.1594002737618765"><ele>330.6</ele><time>2026-04-30T08:11:49.001Z</time></trkpt><trkpt lat="42.96011952725733" lon="-2.159533745552241"><ele>335.4</ele><time>2026-04-30T08:11:50.001Z</time></trkpt><trkpt lat="42.96014059823383" lon="-2.159668353117646"><ele>340.2</ele><time>2026-04-30T08:11:51.001Z</time></trkpt><trkpt lat="42.96016246790809" lon="-2.159794584209492"><ele>345.0</ele><time>2026-04-30T08:11:52.001Z</time></trkpt><trkpt lat="42.960183849836255" lon="-2.1599249514130436"><ele>345.0</ele><time>2026-04-30T08:11:53.001Z</time></trkpt><trkpt lat="42.96020623377927" lon="-2.160061507658319"><ele>345.0</ele><time>2026-04-30T08:11:54.001Z</time></trkpt><trkpt lat="42.960230944134224" lon="-2.160189803647572"><ele>345.0</ele><time>2026-04-30T08:11:55.001Z</time></trkpt><trkpt lat="42.96025062391441" lon="-2.1603269884726113"><ele>345.0</ele><time>2026-04-30T08:11:56.001Z</time></trkpt><trkpt lat="42.960270900146746" lon="-2.16046447246938"><ele>345.0</ele><time>2026-04-30T08:11:57.001Z</time></trkpt><trkpt lat="42.96029116657053" lon="-2.1606001171963563"><ele>340.0</ele><time>2026-04-30T08:11:58.001Z</time></trkpt><trkpt lat="42.960310342848636" lon="-2.160734984877413"><ele>335.0</ele><time>2026-04-30T08:11:59.001Z</time></trkpt><trkpt lat="42.96033729838488" lon="-2.1608733687006323"><ele>330.0</ele><time>2026-04-30T08:12:00.001Z</time></trkpt><trkpt lat="42.96035866484519" lon="-2.1610283390824656"><ele>325.0</ele><time>2026-04-30T08:12:01.001Z</time></trkpt><trkpt lat="42.96037395050935" lon="-2.1612040138836788"><ele>325.0</ele><time>2026-04-30T08:12:02.001Z</time></trkpt><trkpt lat="42.9603677665045" lon="-2.1613677785911194"><ele>325.0</ele><time>2026-04-30T08:12:03.001Z</time></trkpt><trkpt lat="42.96036950287381" lon="-2.161548769814682"><ele>325.0</ele><time>2026-04-30T08:12:04.001Z</time></trkpt><trkpt lat="42.96037709403477" lon="-2.161651769073885"><ele>325.0</ele><time>2026-04-30T08:12:05.001Z</time></trkpt><trkpt lat="42.96038898596853" lon="-2.161746739296135"><ele>325.0</ele><time>2026-04-30T08:12:06.001Z</time></trkpt><trkpt lat="42.96038861484506" lon="-2.161876213724533"><ele>325.16666666666663</ele><time>2026-04-30T08:12:07.001Z</time></trkpt><trkpt lat="42.960383581747166" lon="-2.162010860116852"><ele>325.3333333333333</ele><time>2026-04-30T08:12:08.001Z</time></trkpt><trkpt lat="42.96039570651938" lon="-2.1621292247532464"><ele>325.5</ele><time>2026-04-30T08:12:09.001Z</time></trkpt><trkpt lat="42.96039386998211" lon="-2.162255113157235"><ele>325.6666666666667</ele><time>2026-04-30T08:12:10.001Z</time></trkpt><trkpt lat="42.960412521960954" lon="-2.162367547291312"><ele>325.83333333333337</ele><time>2026-04-30T08:12:11.001Z</time></trkpt><trkpt lat="42.96041008483763" lon="-2.1624734435153004"><ele>326.0</ele><time>2026-04-30T08:12:12.001Z</time></trkpt><trkpt lat="42.96041666455266" lon="-2.162631643749714"><ele>326.4</ele><time>2026-04-30T08:12:13.001Z</time></trkpt><trkpt lat="42.96039505302282" lon="-2.1627775489756065"><ele>326.8</ele><time>2026-04-30T08:12:14.001Z</time></trkpt><trkpt lat="42.960386272019804" lon="-2.162945597711899"><ele>327.2</ele><time>2026-04-30T08:12:15.001Z</time></trkpt><trkpt lat="42.960369506629256" lon="-2.163096815334913"><ele>327.59999999999997</ele><time>2026-04-30T08:12:16.001Z</time></trkpt><trkpt lat="42.96034911511052" lon="-2.1632371279994507"><ele>328.0</ele><time>2026-04-30T08:12:17.001Z</time></trkpt><trkpt lat="42.96033745213447" lon="-2.1633730069292585"><ele>327.0</ele><time>2026-04-30T08:12:18.001Z</time></trkpt><trkpt lat="42.96033956215528" lon="-2.1635128451303864"><ele>326.0</ele><time>2026-04-30T08:12:19.001Z</time></trkpt><trkpt lat="42.96035285455049" lon="-2.163652984807041"><ele>325.0</ele><time>2026-04-30T08:12:20.001Z</time></trkpt><trkpt lat="42.96038966970487" lon="-2.1637816459662935"><ele>324.0</ele><time>2026-04-30T08:12:21.001Z</time></trkpt><trkpt lat="42.96043897299148" lon="-2.1639138237907525"><ele>323.0</ele><time>2026-04-30T08:12:22.001Z</time></trkpt><trkpt lat="42.96049552931123" lon="-2.164025624621808"><ele>320.2</ele><time>2026-04-30T08:12:23.001Z</time></trkpt><trkpt lat="42.96055606369608" lon="-2.1641459959950704"><ele>317.4</ele><time>2026-04-30T08:12:24.001Z</time></trkpt><trkpt lat="42.96061428974208" lon="-2.1642623361321798"><ele>314.59999999999997</ele><time>2026-04-30T08:12:25.001Z</time></trkpt><trkpt lat="42.960669816976974" lon="-2.1643787724876344"><ele>311.79999999999995</ele><time>2026-04-30T08:12:26.001Z</time></trkpt><trkpt lat="42.960717643880145" lon="-2.16450320599207"><ele>309.0</ele><time>2026-04-30T08:12:27.001Z</time></trkpt><trkpt lat="42.960766481116664" lon="-2.164632405614126"><ele>309.0</ele><time>2026-04-30T08:12:28.001Z</time></trkpt><trkpt lat="42.96080968592868" lon="-2.1647721273126113"><ele>309.0</ele><time>2026-04-30T08:12:29.001Z</time></trkpt><trkpt lat="42.96085706611373" lon="-2.16491193668822"><ele>309.0</ele><time>2026-04-30T08:12:30.001Z</time></trkpt><trkpt lat="42.96090371345416" lon="-2.1650533872003583"><ele>309.0</ele><time>2026-04-30T08:12:31.001Z</time></trkpt><trkpt lat="42.96094784313057" lon="-2.1651949438316738"><ele>312.6</ele><time>2026-04-30T08:12:32.001Z</time></trkpt><trkpt lat="42.960985844876646" lon="-2.165337607509419"><ele>316.2</ele><time>2026-04-30T08:12:33.001Z</time></trkpt><trkpt lat="42.96102197105048" lon="-2.1654808435151613"><ele>319.8</ele><time>2026-04-30T08:12:34.002Z</time></trkpt><trkpt lat="42.96106179418139" lon="-2.1656209514867912"><ele>323.40000000000003</ele><time>2026-04-30T08:12:35.002Z</time></trkpt><trkpt lat="42.96110407209348" lon="-2.165759933297198"><ele>327.0</ele><time>2026-04-30T08:12:36.002Z</time></trkpt><trkpt lat="42.961133847732356" lon="-2.165912189891922"><ele>327.0</ele><time>2026-04-30T08:12:37.002Z</time></trkpt><trkpt lat="42.961188374529456" lon="-2.1660859101438654"><ele>327.0</ele><time>2026-04-30T08:12:38.002Z</time></trkpt><trkpt lat="42.961248067564654" lon="-2.1662527050374627"><ele>327.0</ele><time>2026-04-30T08:12:39.002Z</time></trkpt><trkpt lat="42.961309595527176" lon="-2.166397236865581"><ele>327.0</ele><time>2026-04-30T08:12:40.002Z</time></trkpt><trkpt lat="42.96137419677334" lon="-2.1665247581599325"><ele>321.5</ele><time>2026-04-30T08:12:41.002Z</time></trkpt><trkpt lat="42.961426786171494" lon="-2.166627160822617"><ele>316.0</ele><time>2026-04-30T08:12:42.002Z</time></trkpt><trkpt lat="42.961500053609065" lon="-2.166771822836106"><ele>310.5</ele><time>2026-04-30T08:12:43.002Z</time></trkpt><trkpt lat="42.961603963323284" lon="-2.1669806327316934"><ele>305.0</ele><time>2026-04-30T08:12:45.002Z</time></trkpt><trkpt lat="42.961651300348194" lon="-2.1670705516311566"><ele>307.4</ele><time>2026-04-30T08:12:47Z</time></trkpt><trkpt lat="42.961704692135925" lon="-2.167167439563739"><ele>309.8</ele><time>2026-04-30T08:12:48Z</time></trkpt><trkpt lat="42.96176417481957" lon="-2.167265935873693"><ele>312.2</ele><time>2026-04-30T08:12:49Z</time></trkpt><trkpt lat="42.96182797781933" lon="-2.1673617377466257"><ele>314.6</ele><time>2026-04-30T08:12:50Z</time></trkpt><trkpt lat="42.96189435317635" lon="-2.1674605977832346"><ele>317.0</ele><time>2026-04-30T08:12:51Z</time></trkpt><trkpt lat="42.9619627039191" lon="-2.1675598084879373"><ele>317.0</ele><time>2026-04-30T08:12:52Z</time></trkpt><trkpt lat="42.96203435265886" lon="-2.1676604902095655"><ele>317.0</ele><time>2026-04-30T08:12:53Z</time></trkpt><trkpt lat="42.96211026658387" lon="-2.1677626650249815"><ele>317.0</ele><time>2026-04-30T08:12:54Z</time></trkpt><trkpt lat="42.962185979466355" lon="-2.1678646824732883"><ele>317.0</ele><time>2026-04-30T08:12:55Z</time></trkpt><trkpt lat="42.962260828238854" lon="-2.1679676196452284"><ele>317.0</ele><time>2026-04-30T08:12:56Z</time></trkpt><trkpt lat="42.96234034510962" lon="-2.168073654156992"><ele>317.0</ele><time>2026-04-30T08:12:57Z</time></trkpt><trkpt lat="42.96242171017249" lon="-2.168167054098221"><ele>317.0</ele><time>2026-04-30T08:12:58Z</time></trkpt><trkpt lat="42.96250063560121" lon="-2.168268561394796"><ele>317.0</ele><time>2026-04-30T08:12:59Z</time></trkpt><trkpt lat="42.96257736935492" lon="-2.1683683336868356"><ele>317.0</ele><time>2026-04-30T08:13:00Z</time></trkpt><trkpt lat="42.96265420766395" lon="-2.168466499390561"><ele>317.0</ele><time>2026-04-30T08:13:01Z</time></trkpt><trkpt lat="42.96273334079837" lon="-2.1685636757204314"><ele>315.2</ele><time>2026-04-30T08:13:02Z</time></trkpt><trkpt lat="42.962809959233674" lon="-2.168668693336183"><ele>313.4</ele><time>2026-04-30T08:13:03Z</time></trkpt><trkpt lat="42.96288577011468" lon="-2.168771865330232"><ele>311.6</ele><time>2026-04-30T08:13:04Z</time></trkpt><trkpt lat="42.96296209634426" lon="-2.16887053736555"><ele>309.8</ele><time>2026-04-30T08:13:05Z</time></trkpt><trkpt lat="42.963038924041484" lon="-2.16896653215435"><ele>308.0</ele><time>2026-04-30T08:13:06Z</time></trkpt><trkpt lat="42.96311339674133" lon="-2.1690658335822337"><ele>309.0</ele><time>2026-04-30T08:13:07Z</time></trkpt><trkpt lat="42.963188078670775" lon="-2.1691644993060333"><ele>310.0</ele><time>2026-04-30T08:13:08Z</time></trkpt><trkpt lat="42.963262039280956" lon="-2.1692575139396757"><ele>311.0</ele><time>2026-04-30T08:13:09Z</time></trkpt><trkpt lat="42.963338164137085" lon="-2.1693534795159124"><ele>312.0</ele><time>2026-04-30T08:13:10Z</time></trkpt><trkpt lat="42.9634120006337" lon="-2.169450322768784"><ele>313.0</ele><time>2026-04-30T08:13:11Z</time></trkpt><trkpt lat="42.96348218108922" lon="-2.169544009334322"><ele>313.0</ele><time>2026-04-30T08:13:12Z</time></trkpt><trkpt lat="42.96355132528124" lon="-2.1696385025606046"><ele>313.0</ele><time>2026-04-30T08:13:13Z</time></trkpt><trkpt lat="42.96362229286202" lon="-2.16973705820885"><ele>313.0</ele><time>2026-04-30T08:13:14Z</time></trkpt><trkpt lat="42.96368576227377" lon="-2.1698379178446765"><ele>313.0</ele><time>2026-04-30T08:13:15Z</time></trkpt><trkpt lat="42.96374211507673" lon="-2.169943579272153"><ele>313.0</ele><time>2026-04-30T08:13:16Z</time></trkpt><trkpt lat="42.9637958826091" lon="-2.170053174082547"><ele>310.4</ele><time>2026-04-30T08:13:17Z</time></trkpt><trkpt lat="42.963850439549695" lon="-2.1701763719276257"><ele>307.8</ele><time>2026-04-30T08:13:18Z</time></trkpt><trkpt lat="42.963906487260836" lon="-2.1703017934774156"><ele>305.2</ele><time>2026-04-30T08:13:19Z</time></trkpt><trkpt lat="42.96395958349234" lon="-2.1704195476221653"><ele>302.6</ele><time>2026-04-30T08:13:20Z</time></trkpt><trkpt lat="42.96400890669195" lon="-2.170564641245681"><ele>300.0</ele><time>2026-04-30T08:13:21Z</time></trkpt><trkpt lat="42.964049370979914" lon="-2.170706002111703"><ele>295.75</ele><time>2026-04-30T08:13:22Z</time></trkpt><trkpt lat="42.96408680720802" lon="-2.170844870071953"><ele>291.5</ele><time>2026-04-30T08:13:23Z</time></trkpt><trkpt lat="42.96412045670045" lon="-2.170995662411705"><ele>287.25</ele><time>2026-04-30T08:13:24Z</time></trkpt><trkpt lat="42.964153337295166" lon="-2.1711546517386187"><ele>283.0</ele><time>2026-04-30T08:13:25Z</time></trkpt><trkpt lat="42.964176723266526" lon="-2.1713653744747328"><ele>290.66666666666663</ele><time>2026-04-30T08:13:26Z</time></trkpt><trkpt lat="42.964220032821935" lon="-2.171591950576389"><ele>298.3333333333333</ele><time>2026-04-30T08:13:27Z</time></trkpt><trkpt lat="42.96424420443824" lon="-2.17184746855813"><ele>306.0</ele><time>2026-04-30T08:13:28Z</time></trkpt><trkpt lat="42.964254545204874" lon="-2.171683373376596"><ele>306.0</ele><time>2026-04-30T08:13:29Z</time></trkpt><trkpt lat="42.96426411227568" lon="-2.171827322980639"><ele>306.0</ele><time>2026-04-30T08:13:30Z</time></trkpt><trkpt lat="42.96427173259697" lon="-2.171970199847153"><ele>306.0</ele><time>2026-04-30T08:13:31Z</time></trkpt><trkpt lat="42.96428076995487" lon="-2.1721147616921725"><ele>306.0</ele><time>2026-04-30T08:13:32Z</time></trkpt><trkpt lat="42.96428894179826" lon="-2.1722542387270645"><ele>306.0</ele><time>2026-04-30T08:13:33Z</time></trkpt><trkpt lat="42.964297720530354" lon="-2.1723923222999963"><ele>303.8333333333333</ele><time>2026-04-30T08:13:34Z</time></trkpt><trkpt lat="42.96430506046012" lon="-2.1725277185080727"><ele>301.6666666666667</ele><time>2026-04-30T08:13:35Z</time></trkpt><trkpt lat="42.964309983618676" lon="-2.1726599207770247"><ele>299.5</ele><time>2026-04-30T08:13:36.001Z</time></trkpt><trkpt lat="42.96431856337522" lon="-2.172775665357034"><ele>297.33333333333337</ele><time>2026-04-30T08:13:37.001Z</time></trkpt><trkpt lat="42.96432567157926" lon="-2.172877801646075"><ele>295.1666666666667</ele><time>2026-04-30T08:13:38.001Z</time></trkpt><trkpt lat="42.96433386760917" lon="-2.172979376661792"><ele>293.0</ele><time>2026-04-30T08:13:39.001Z</time></trkpt><trkpt lat="42.96433997600094" lon="-2.173085790329382"><ele>291.6666666666667</ele><time>2026-04-30T08:13:40.001Z</time></trkpt><trkpt lat="42.96434202814553" lon="-2.1731938804669473"><ele>290.33333333333337</ele><time>2026-04-30T08:13:41.001Z</time></trkpt><trkpt lat="42.96435130980829" lon="-2.1733082386668743"><ele>289.0</ele><time>2026-04-30T08:13:42.001Z</time></trkpt><trkpt lat="42.964367697049994" lon="-2.1734222893115556"><ele>287.6666666666667</ele><time>2026-04-30T08:13:43.001Z</time></trkpt><trkpt lat="42.96438943576638" lon="-2.1735404866982644"><ele>286.3333333333333</ele><time>2026-04-30T08:13:44.001Z</time></trkpt><trkpt lat="42.9644227528212" lon="-2.1736521624953293"><ele>285.0</ele><time>2026-04-30T08:13:45.001Z</time></trkpt><trkpt lat="42.964459574035516" lon="-2.173766132705246"><ele>285.0</ele><time>2026-04-30T08:13:46.001Z</time></trkpt><trkpt lat="42.96450505691646" lon="-2.1738760448420513"><ele>285.0</ele><time>2026-04-30T08:13:47.001Z</time></trkpt><trkpt lat="42.964557449460315" lon="-2.173980323516197"><ele>285.0</ele><time>2026-04-30T08:13:48.001Z</time></trkpt><trkpt lat="42.964608168376024" lon="-2.1740791280309812"><ele>285.0</ele><time>2026-04-30T08:13:49.001Z</time></trkpt><trkpt lat="42.96466148433033" lon="-2.1741729247530954"><ele>285.0</ele><time>2026-04-30T08:13:50.001Z</time></trkpt><trkpt lat="42.964711181751994" lon="-2.174258753503008"><ele>285.0</ele><time>2026-04-30T08:13:51.001Z</time></trkpt><trkpt lat="42.964758197247505" lon="-2.1743415887035282"><ele>283.8333333333333</ele><time>2026-04-30T08:13:52.001Z</time></trkpt><trkpt lat="42.964810978480365" lon="-2.1744103107933195"><ele>282.6666666666667</ele><time>2026-04-30T08:13:53.001Z</time></trkpt><trkpt lat="42.964854817289215" lon="-2.174491186408098"><ele>281.5</ele><time>2026-04-30T08:13:54.001Z</time></trkpt><trkpt lat="42.96490683624964" lon="-2.1745860486713497"><ele>280.33333333333337</ele><time>2026-04-30T08:13:55.001Z</time></trkpt><trkpt lat="42.96496146649456" lon="-2.174683535483728"><ele>279.1666666666667</ele><time>2026-04-30T08:13:56.001Z</time></trkpt><trkpt lat="42.96502147696949" lon="-2.1747803433554758"><ele>278.0</ele><time>2026-04-30T08:13:57.001Z</time></trkpt><trkpt lat="42.96507565851162" lon="-2.174881487480291"><ele>283.4</ele><time>2026-04-30T08:13:58.001Z</time></trkpt><trkpt lat="42.96512519414538" lon="-2.1749919631430803"><ele>288.8</ele><time>2026-04-30T08:13:59.001Z</time></trkpt><trkpt lat="42.96516903610883" lon="-2.1751108211606547"><ele>294.2</ele><time>2026-04-30T08:14:00.001Z</time></trkpt><trkpt lat="42.965204424272805" lon="-2.175231994122477"><ele>299.6</ele><time>2026-04-30T08:14:01.001Z</time></trkpt><trkpt lat="42.9652364962706" lon="-2.1753591101319754"><ele>305.0</ele><time>2026-04-30T08:14:02.001Z</time></trkpt><trkpt lat="42.965263140631265" lon="-2.175471818642494"><ele>305.0</ele><time>2026-04-30T08:14:03.001Z</time></trkpt><trkpt lat="42.96528398336794" lon="-2.175580852809202"><ele>305.0</ele><time>2026-04-30T08:14:04.001Z</time></trkpt><trkpt lat="42.965314857264026" lon="-2.175678927917673"><ele>305.0</ele><time>2026-04-30T08:14:05.001Z</time></trkpt><trkpt lat="42.96534144576666" lon="-2.1757806728466846"><ele>305.0</ele><time>2026-04-30T08:14:06.001Z</time></trkpt><trkpt lat="42.96537740986024" lon="-2.1758841733130763"><ele>305.0</ele><time>2026-04-30T08:14:07.001Z</time></trkpt><trkpt lat="42.965419590868656" lon="-2.175978034299177"><ele>305.0</ele><time>2026-04-30T08:14:08.001Z</time></trkpt><trkpt lat="42.96546975479047" lon="-2.176054735587358"><ele>301.33333333333337</ele><time>2026-04-30T08:14:09.001Z</time></trkpt><trkpt lat="42.96551950447156" lon="-2.176136128002605"><ele>297.6666666666667</ele><time>2026-04-30T08:14:10.001Z</time></trkpt><trkpt lat="42.965571300414155" lon="-2.1762164388806706"><ele>294.0</ele><time>2026-04-30T08:14:11.001Z</time></trkpt><trkpt lat="42.965623591870695" lon="-2.1762931349968873"><ele>290.3333333333333</ele><time>2026-04-30T08:14:12.001Z</time></trkpt><trkpt lat="42.965684978913956" lon="-2.1763651266160133"><ele>286.66666666666663</ele><time>2026-04-30T08:14:13.001Z</time></trkpt><trkpt lat="42.965757005315076" lon="-2.1764188239988713"><ele>283.0</ele><time>2026-04-30T08:14:14.001Z</time></trkpt><trkpt lat="42.965832363824056" lon="-2.1764601481123855"><ele>282.16666666666663</ele><time>2026-04-30T08:14:15.001Z</time></trkpt><trkpt lat="42.96591245958842" lon="-2.1764821780035275"><ele>281.3333333333333</ele><time>2026-04-30T08:14:16.001Z</time></trkpt><trkpt lat="42.965994797292055" lon="-2.1765098251144366"><ele>280.5</ele><time>2026-04-30T08:14:17.001Z</time></trkpt><trkpt lat="42.96608571278398" lon="-2.176531085024348"><ele>279.6666666666667</ele><time>2026-04-30T08:14:18.001Z</time></trkpt><trkpt lat="42.96616942421763" lon="-2.176537652364668"><ele>278.83333333333337</ele><time>2026-04-30T08:14:19.001Z</time></trkpt><trkpt lat="42.96626133081485" lon="-2.1765804506549027"><ele>278.0</ele><time>2026-04-30T08:14:20.001Z</time></trkpt><trkpt lat="42.96635018934747" lon="-2.176640921967728"><ele>278.0</ele><time>2026-04-30T08:14:21.001Z</time></trkpt><trkpt lat="42.96643501760408" lon="-2.176716529600377"><ele>278.0</ele><time>2026-04-30T08:14:22.001Z</time></trkpt><trkpt lat="42.96651523331921" lon="-2.176792577950943"><ele>278.0</ele><time>2026-04-30T08:14:23.001Z</time></trkpt><trkpt lat="42.96659749541209" lon="-2.1768611441753727"><ele>278.0</ele><time>2026-04-30T08:14:24.001Z</time></trkpt><trkpt lat="42.966678473107585" lon="-2.1769341725624822"><ele>278.0</ele><time>2026-04-30T08:14:25.001Z</time></trkpt><trkpt lat="42.966757746122255" lon="-2.1770161456290067"><ele>282.8</ele><time>2026-04-30T08:14:26.001Z</time></trkpt><trkpt lat="42.966838024590295" lon="-2.177083693656891"><ele>287.6</ele><time>2026-04-30T08:14:27.001Z</time></trkpt><trkpt lat="42.966923893626806" lon="-2.17714045085504"><ele>292.4</ele><time>2026-04-30T08:14:28.001Z</time></trkpt><trkpt lat="42.96701718957918" lon="-2.1771945246467492"><ele>297.2</ele><time>2026-04-30T08:14:29.001Z</time></trkpt><trkpt lat="42.967102973960664" lon="-2.1772391778465408"><ele>302.0</ele><time>2026-04-30T08:14:30.001Z</time></trkpt><trkpt lat="42.96718871086855" lon="-2.177287086939417"><ele>302.0</ele><time>2026-04-30T08:14:31.001Z</time></trkpt><trkpt lat="42.96728083091612" lon="-2.17735151585307"><ele>302.0</ele><time>2026-04-30T08:14:32.001Z</time></trkpt><trkpt lat="42.96737301778041" lon="-2.1774197306422995"><ele>302.0</ele><time>2026-04-30T08:14:33.001Z</time></trkpt><trkpt lat="42.96745409548675" lon="-2.1774918757622084"><ele>302.0</ele><time>2026-04-30T08:14:34.001Z</time></trkpt><trkpt lat="42.967536579601195" lon="-2.1775664749330184"><ele>302.0</ele><time>2026-04-30T08:14:35.001Z</time></trkpt><trkpt lat="42.967618377583854" lon="-2.1776408734678685"><ele>299.8</ele><time>2026-04-30T08:14:36.001Z</time></trkpt><trkpt lat="42.967701981195624" lon="-2.1777181779661876"><ele>297.6</ele><time>2026-04-30T08:14:37.001Z</time></trkpt><trkpt lat="42.96777737764041" lon="-2.177796439828045"><ele>295.40000000000003</ele><time>2026-04-30T08:14:38.001Z</time></trkpt><trkpt lat="42.96784895948719" lon="-2.1778707425186754"><ele>293.2</ele><time>2026-04-30T08:14:39.001Z</time></trkpt><trkpt lat="42.96792090480086" lon="-2.177936867652321"><ele>291.0</ele><time>2026-04-30T08:14:40.001Z</time></trkpt><trkpt lat="42.967995758998846" lon="-2.1779968904330387"><ele>291.0</ele><time>2026-04-30T08:14:41.001Z</time></trkpt><trkpt lat="42.96807359172323" lon="-2.1780547065289664"><ele>291.0</ele><time>2026-04-30T08:14:42.001Z</time></trkpt><trkpt lat="42.968152994690904" lon="-2.178102150863464"><ele>291.0</ele><time>2026-04-30T08:14:43.001Z</time></trkpt><trkpt lat="42.96823507484669" lon="-2.178146276913116"><ele>291.0</ele><time>2026-04-30T08:14:44.002Z</time></trkpt><trkpt lat="42.96831591722312" lon="-2.178178433561196"><ele>291.0</ele><time>2026-04-30T08:14:45.002Z</time></trkpt><trkpt lat="42.968397588853755" lon="-2.1781937095478248"><ele>291.0</ele><time>2026-04-30T08:14:46.002Z</time></trkpt><trkpt lat="42.96847593920615" lon="-2.1782043783806686"><ele>286.0</ele><time>2026-04-30T08:14:47.002Z</time></trkpt><trkpt lat="42.96855423556143" lon="-2.17820599754927"><ele>281.0</ele><time>2026-04-30T08:14:48.002Z</time></trkpt><trkpt lat="42.96863482043401" lon="-2.178203376212021"><ele>276.0</ele><time>2026-04-30T08:14:49.002Z</time></trkpt><trkpt lat="42.96871737718291" lon="-2.1782015509562247"><ele>271.0</ele><time>2026-04-30T08:14:50.002Z</time></trkpt><trkpt lat="42.96880244733579" lon="-2.1781994030476826"><ele>266.0</ele><time>2026-04-30T08:14:51.002Z</time></trkpt><trkpt lat="42.968890342838094" lon="-2.178198763661046"><ele>261.0</ele><time>2026-04-30T08:14:52Z</time></trkpt><trkpt lat="42.96897554504576" lon="-2.178203235049117"><ele>261.0</ele><time>2026-04-30T08:14:53Z</time></trkpt><trkpt lat="42.96906278463506" lon="-2.178205425913857"><ele>261.0</ele><time>2026-04-30T08:14:54Z</time></trkpt><trkpt lat="42.969151199947554" lon="-2.1782024184186"><ele>261.0</ele><time>2026-04-30T08:14:55Z</time></trkpt><trkpt lat="42.96924527289165" lon="-2.178199893265319"><ele>261.0</ele><time>2026-04-30T08:14:56Z</time></trkpt><trkpt lat="42.969335352295396" lon="-2.178197394429241"><ele>261.0</ele><time>2026-04-30T08:14:57Z</time></trkpt><trkpt lat="42.969424211059355" lon="-2.178204366391554"><ele>261.0</ele><time>2026-04-30T08:14:58Z</time></trkpt><trkpt lat="42.96951648051838" lon="-2.1782070157078888"><ele>261.8</ele><time>2026-04-30T08:14:59Z</time></trkpt><trkpt lat="42.96961065822042" lon="-2.1782099952297314"><ele>262.6</ele><time>2026-04-30T08:15:00Z</time></trkpt><trkpt lat="42.969699393016754" lon="-2.178221467175935"><ele>263.4</ele><time>2026-04-30T08:15:01Z</time></trkpt><trkpt lat="42.96979128950799" lon="-2.1782456384592246"><ele>264.2</ele><time>2026-04-30T08:15:02Z</time></trkpt><trkpt lat="42.96988048822753" lon="-2.178278171550885"><ele>265.0</ele><time>2026-04-30T08:15:03Z</time></trkpt><trkpt lat="42.96997046475458" lon="-2.178308455641434"><ele>268.0</ele><time>2026-04-30T08:15:04Z</time></trkpt><trkpt lat="42.97006032100884" lon="-2.178349385387913"><ele>271.0</ele><time>2026-04-30T08:15:05Z</time></trkpt><trkpt lat="42.97015218226396" lon="-2.1783875197055735"><ele>274.0</ele><time>2026-04-30T08:15:06Z</time></trkpt><trkpt lat="42.970239907135095" lon="-2.1784261860194634"><ele>277.0</ele><time>2026-04-30T08:15:07Z</time></trkpt><trkpt lat="42.97032579139795" lon="-2.178462086863394"><ele>280.0</ele><time>2026-04-30T08:15:08Z</time></trkpt><trkpt lat="42.970414619977895" lon="-2.178508967735718"><ele>280.0</ele><time>2026-04-30T08:15:09Z</time></trkpt><trkpt lat="42.970500387166574" lon="-2.1785568048005293"><ele>280.0</ele><time>2026-04-30T08:15:10Z</time></trkpt><trkpt lat="42.97058348392874" lon="-2.1786079898534116"><ele>280.0</ele><time>2026-04-30T08:15:11Z</time></trkpt><trkpt lat="42.97066833874474" lon="-2.178659945113569"><ele>280.0</ele><time>2026-04-30T08:15:12Z</time></trkpt><trkpt lat="42.970752199292164" lon="-2.1787163357170685"><ele>280.0</ele><time>2026-04-30T08:15:13Z</time></trkpt><trkpt lat="42.97083414713102" lon="-2.1787759052487767"><ele>277.8</ele><time>2026-04-30T08:15:14Z</time></trkpt><trkpt lat="42.970919016799236" lon="-2.178836788522245"><ele>275.6</ele><time>2026-04-30T08:15:15Z</time></trkpt><trkpt lat="42.971000502824296" lon="-2.1788985152351104"><ele>273.4</ele><time>2026-04-30T08:15:16Z</time></trkpt><trkpt lat="42.971087762189" lon="-2.1789626661289883"><ele>271.2</ele><time>2026-04-30T08:15:17Z</time></trkpt><trkpt lat="42.97117539593719" lon="-2.1790250015278994"><ele>269.0</ele><time>2026-04-30T08:15:18Z</time></trkpt><trkpt lat="42.971262977077714" lon="-2.179088306036341"><ele>269.0</ele><time>2026-04-30T08:15:19Z</time></trkpt><trkpt lat="42.97135155431565" lon="-2.1791523445271954"><ele>269.0</ele><time>2026-04-30T08:15:20Z</time></trkpt><trkpt lat="42.971441199310256" lon="-2.17921652148431"><ele>269.0</ele><time>2026-04-30T08:15:21Z</time></trkpt><trkpt lat="42.97153253845532" lon="-2.1792795903557085"><ele>269.0</ele><time>2026-04-30T08:15:22Z</time></trkpt><trkpt lat="42.9716174090388" lon="-2.1793478321609023"><ele>269.0</ele><time>2026-04-30T08:15:23Z</time></trkpt><trkpt lat="42.971704476675335" lon="-2.179414315387067"><ele>273.2</ele><time>2026-04-30T08:15:24Z</time></trkpt><trkpt lat="42.97179147497099" lon="-2.179487497653686"><ele>277.4</ele><time>2026-04-30T08:15:25Z</time></trkpt><trkpt lat="42.97187923529195" lon="-2.179554040875017"><ele>281.6</ele><time>2026-04-30T08:15:26Z</time></trkpt><trkpt lat="42.97196725820175" lon="-2.179619349510563"><ele>285.8</ele><time>2026-04-30T08:15:27Z</time></trkpt><trkpt lat="42.97205522043218" lon="-2.1796822335874975"><ele>290.0</ele><time>2026-04-30T08:15:28Z</time></trkpt><trkpt lat="42.97214558501632" lon="-2.1797443421133624"><ele>290.0</ele><time>2026-04-30T08:15:29Z</time></trkpt><trkpt lat="42.97223639355274" lon="-2.1798033713713"><ele>290.0</ele><time>2026-04-30T08:15:30Z</time></trkpt><trkpt lat="42.972329680986384" lon="-2.179862200298606"><ele>290.0</ele><time>2026-04-30T08:15:31Z</time></trkpt><trkpt lat="42.97242478332069" lon="-2.1799124613306193"><ele>290.0</ele><time>2026-04-30T08:15:32Z</time></trkpt><trkpt lat="42.972521774889024" lon="-2.1799611211759244"><ele>290.0</ele><time>2026-04-30T08:15:33Z</time></trkpt><trkpt lat="42.97261773835779" lon="-2.1800100296720824"><ele>285.6</ele><time>2026-04-30T08:15:34Z</time></trkpt><trkpt lat="42.97271705513818" lon="-2.18005635572188"><ele>281.2</ele><time>2026-04-30T08:15:35Z</time></trkpt><trkpt lat="42.9728113520092" lon="-2.180110874200437"><ele>276.8</ele><time>2026-04-30T08:15:36Z</time></trkpt><trkpt lat="42.97290395535684" lon="-2.180173762182015"><ele>272.4</ele><time>2026-04-30T08:15:37Z</time></trkpt><trkpt lat="42.97299346865255" lon="-2.180240229758916"><ele>268.0</ele><time>2026-04-30T08:15:38Z</time></trkpt><trkpt lat="42.97308157882134" lon="-2.1803054853769233"><ele>268.0</ele><time>2026-04-30T08:15:39Z</time></trkpt><trkpt lat="42.97317718678353" lon="-2.18036543674329"><ele>268.0</ele><time>2026-04-30T08:15:40Z</time></trkpt><trkpt lat="42.97326751010029" lon="-2.180431184153131"><ele>268.0</ele><time>2026-04-30T08:15:41Z</time></trkpt><trkpt lat="42.973356955325414" lon="-2.1804978934088184"><ele>268.0</ele><time>2026-04-30T08:15:42Z</time></trkpt><trkpt lat="42.97344875706847" lon="-2.180557021271009"><ele>268.0</ele><time>2026-04-30T08:15:43Z</time></trkpt><trkpt lat="42.97354304540994" lon="-2.1806172268436836"><ele>266.6</ele><time>2026-04-30T08:15:44Z</time></trkpt><trkpt lat="42.973640045757406" lon="-2.1806722647048993"><ele>265.20000000000005</ele><time>2026-04-30T08:15:45.001Z</time></trkpt><trkpt lat="42.97373447463087" lon="-2.180719403091816"><ele>263.8</ele><time>2026-04-30T08:15:46.001Z</time></trkpt><trkpt lat="42.973838194700015" lon="-2.1807523044322896"><ele>262.40000000000003</ele><time>2026-04-30T08:15:47.001Z</time></trkpt><trkpt lat="42.973941046851124" lon="-2.180786714610146"><ele>261.0</ele><time>2026-04-30T08:15:48.001Z</time></trkpt><trkpt lat="42.974044384632414" lon="-2.1808205975847677"><ele>261.0</ele><time>2026-04-30T08:15:49.001Z</time></trkpt><trkpt lat="42.974149927232375" lon="-2.1808618793293317"><ele>261.0</ele><time>2026-04-30T08:15:50.001Z</time></trkpt><trkpt lat="42.97424713474787" lon="-2.180904713814246"><ele>261.0</ele><time>2026-04-30T08:15:51.001Z</time></trkpt><trkpt lat="42.974346912846244" lon="-2.180954962490679"><ele>261.0</ele><time>2026-04-30T08:15:52.001Z</time></trkpt><trkpt lat="42.97444203887068" lon="-2.181002385099707"><ele>261.0</ele><time>2026-04-30T08:15:53.001Z</time></trkpt><trkpt lat="42.974536355318946" lon="-2.181055143072148"><ele>267.0</ele><time>2026-04-30T08:15:54.001Z</time></trkpt><trkpt lat="42.97462912778129" lon="-2.1811132087249585"><ele>273.0</ele><time>2026-04-30T08:15:55.001Z</time></trkpt><trkpt lat="42.97472239089547" lon="-2.18117142387199"><ele>279.0</ele><time>2026-04-30T08:15:56.001Z</time></trkpt><trkpt lat="42.974805619854926" lon="-2.181247681114953"><ele>285.0</ele><time>2026-04-30T08:15:57.001Z</time></trkpt><trkpt lat="42.974883445418435" lon="-2.1813351283668836"><ele>291.0</ele><time>2026-04-30T08:15:58.001Z</time></trkpt><trkpt lat="42.97495508689508" lon="-2.181437591110302"><ele>284.6</ele><time>2026-04-30T08:15:59.001Z</time></trkpt><trkpt lat="42.975021295212734" lon="-2.181541962073974"><ele>278.20000000000005</ele><time>2026-04-30T08:16:00.001Z</time></trkpt><trkpt lat="42.975087646285765" lon="-2.18164318540696"><ele>271.79999999999995</ele><time>2026-04-30T08:16:01.001Z</time></trkpt><trkpt lat="42.97515870779424" lon="-2.1817443726705026"><ele>265.4</ele><time>2026-04-30T08:16:02.001Z</time></trkpt><trkpt lat="42.97524228349003" lon="-2.181822138084237"><ele>259.0</ele><time>2026-04-30T08:16:03.001Z</time></trkpt><trkpt lat="42.975343093069995" lon="-2.1818768885208484"><ele>259.0</ele><time>2026-04-30T08:16:04.001Z</time></trkpt><trkpt lat="42.97543716696807" lon="-2.1818980492361324"><ele>259.0</ele><time>2026-04-30T08:16:05.001Z</time></trkpt><trkpt lat="42.975545486138294" lon="-2.1818835508689496"><ele>259.0</ele><time>2026-04-30T08:16:06.001Z</time></trkpt><trkpt lat="42.97565171830891" lon="-2.1818786581641554"><ele>259.0</ele><time>2026-04-30T08:16:07.001Z</time></trkpt><trkpt lat="42.97575258776031" lon="-2.181839582011037"><ele>259.0</ele><time>2026-04-30T08:16:08.001Z</time></trkpt><trkpt lat="42.97585868985237" lon="-2.181800588080494"><ele>257.59999999999997</ele><time>2026-04-30T08:16:09.001Z</time></trkpt><trkpt lat="42.9759646651831" lon="-2.1817714939886335"><ele>256.2</ele><time>2026-04-30T08:16:10.001Z</time></trkpt><trkpt lat="42.97606632394378" lon="-2.181737142443094"><ele>254.79999999999998</ele><time>2026-04-30T08:16:11.001Z</time></trkpt><trkpt lat="42.97616726307746" lon="-2.1817077960078044"><ele>253.39999999999998</ele><time>2026-04-30T08:16:12.001Z</time></trkpt><trkpt lat="42.976262570679864" lon="-2.181685788675582"><ele>252.0</ele><time>2026-04-30T08:16:13.001Z</time></trkpt><trkpt lat="42.97635127713204" lon="-2.1816502380413714"><ele>252.0</ele><time>2026-04-30T08:16:14.001Z</time></trkpt><trkpt lat="42.9764373904061" lon="-2.1816246217108595"><ele>252.0</ele><time>2026-04-30T08:16:15.001Z</time></trkpt><trkpt lat="42.97651891431542" lon="-2.18159066133858"><ele>252.0</ele><time>2026-04-30T08:16:16.001Z</time></trkpt><trkpt lat="42.976598386626485" lon="-2.181553868343519"><ele>252.0</ele><time>2026-04-30T08:16:17.001Z</time></trkpt><trkpt lat="42.976681475646636" lon="-2.1815143763609925"><ele>252.0</ele><time>2026-04-30T08:16:18.001Z</time></trkpt><trkpt lat="42.97676008279264" lon="-2.181473003799125"><ele>252.0</ele><time>2026-04-30T08:16:19.001Z</time></trkpt><trkpt lat="42.97684144567799" lon="-2.1814225318156204"><ele>252.2</ele><time>2026-04-30T08:16:20.001Z</time></trkpt><trkpt lat="42.97692066172306" lon="-2.1813327808480483"><ele>252.39999999999998</ele><time>2026-04-30T08:16:21.001Z</time></trkpt><trkpt lat="42.97700339155715" lon="-2.181270559288409"><ele>252.60000000000002</ele><time>2026-04-30T08:16:22.001Z</time></trkpt><trkpt lat="42.97708367543079" lon="-2.1812131784558146"><ele>252.8</ele><time>2026-04-30T08:16:23.001Z</time></trkpt><trkpt lat="42.97715805882439" lon="-2.181157421048546"><ele>253.0</ele><time>2026-04-30T08:16:24.001Z</time></trkpt><trkpt lat="42.97722970201341" lon="-2.181109135039911"><ele>252.99999999999997</ele><time>2026-04-30T08:16:25.001Z</time></trkpt><trkpt lat="42.977305138347404" lon="-2.1810656480496076"><ele>253.0</ele><time>2026-04-30T08:16:26.001Z</time></trkpt><trkpt lat="42.97738831640137" lon="-2.18103975043797"><ele>253.0</ele><time>2026-04-30T08:16:27.001Z</time></trkpt><trkpt lat="42.97746115913191" lon="-2.181024209805458"><ele>253.0</ele><time>2026-04-30T08:16:28.001Z</time></trkpt><trkpt lat="42.977539970127644" lon="-2.181000856309491"><ele>252.99999999999997</ele><time>2026-04-30T08:16:29.001Z</time></trkpt><trkpt lat="42.97762136640247" lon="-2.180982029457543"><ele>253.0</ele><time>2026-04-30T08:16:30.001Z</time></trkpt><trkpt lat="42.9776921852879" lon="-2.1809465165226145"><ele>251.33333333333331</ele><time>2026-04-30T08:16:31.001Z</time></trkpt><trkpt lat="42.97774764710059" lon="-2.1808720810939066"><ele>249.66666666666666</ele><time>2026-04-30T08:16:32.001Z</time></trkpt><trkpt lat="42.977819949080974" lon="-2.1808413155867727"><ele>248.0</ele><time>2026-04-30T08:16:33.001Z</time></trkpt><trkpt lat="42.977891421728664" lon="-2.1808132856496747"><ele>246.33333333333331</ele><time>2026-04-30T08:16:34.001Z</time></trkpt><trkpt lat="42.97797859834071" lon="-2.1807800599498934"><ele>244.66666666666666</ele><time>2026-04-30T08:16:35.001Z</time></trkpt><trkpt lat="42.97805961450642" lon="-2.1807500179292223"><ele>243.0</ele><time>2026-04-30T08:16:36.001Z</time></trkpt><trkpt lat="42.97813994219735" lon="-2.180742106022042"><ele>243.0</ele><time>2026-04-30T08:16:37.001Z</time></trkpt><trkpt lat="42.978209737687216" lon="-2.1807053818070528"><ele>243.0</ele><time>2026-04-30T08:16:38.001Z</time></trkpt><trkpt lat="42.97828064148476" lon="-2.1806764994219705"><ele>243.0</ele><time>2026-04-30T08:16:39.001Z</time></trkpt><trkpt lat="42.97835162288525" lon="-2.180646724458207"><ele>243.0</ele><time>2026-04-30T08:16:40.001Z</time></trkpt><trkpt lat="42.978421347775075" lon="-2.1806177480950866"><ele>243.0</ele><time>2026-04-30T08:16:41.001Z</time></trkpt><trkpt lat="42.97849491694929" lon="-2.180597194609539"><ele>243.0</ele><time>2026-04-30T08:16:42.001Z</time></trkpt><trkpt lat="42.97856774818987" lon="-2.180569864189017"><ele>243.0</ele><time>2026-04-30T08:16:43.001Z</time></trkpt><trkpt lat="42.97864369406391" lon="-2.1805484384990277"><ele>244.83333333333334</ele><time>2026-04-30T08:16:44.001Z</time></trkpt><trkpt lat="42.97872134388526" lon="-2.1805441844703317"><ele>246.66666666666669</ele><time>2026-04-30T08:16:45.001Z</time></trkpt><trkpt lat="42.978803783468564" lon="-2.1805448389296425"><ele>248.5</ele><time>2026-04-30T08:16:46.001Z</time></trkpt><trkpt lat="42.978874837519626" lon="-2.180592093007583"><ele>250.33333333333334</ele><time>2026-04-30T08:16:47.001Z</time></trkpt><trkpt lat="42.97893487779968" lon="-2.1806431037158345"><ele>252.16666666666669</ele><time>2026-04-30T08:16:48.001Z</time></trkpt><trkpt lat="42.978995265792804" lon="-2.180705608957082"><ele>254.0</ele><time>2026-04-30T08:16:49.001Z</time></trkpt><trkpt lat="42.979055667043596" lon="-2.1807761160399552"><ele>254.00000000000003</ele><time>2026-04-30T08:16:50.001Z</time></trkpt><trkpt lat="42.979108181596544" lon="-2.1808366558619996"><ele>254.0</ele><time>2026-04-30T08:16:51.001Z</time></trkpt><trkpt lat="42.97917360294672" lon="-2.180868894469468"><ele>254.0</ele><time>2026-04-30T08:16:52.001Z</time></trkpt><trkpt lat="42.97923219961229" lon="-2.1809125307022614"><ele>254.0</ele><time>2026-04-30T08:16:53.002Z</time></trkpt><trkpt lat="42.979300204704955" lon="-2.180909023674927"><ele>254.00000000000003</ele><time>2026-04-30T08:16:54.002Z</time></trkpt><trkpt lat="42.97942663133184" lon="-2.1808710625079093"><ele>254.0</ele><time>2026-04-30T08:16:56.002Z</time></trkpt><trkpt lat="42.979502163722806" lon="-2.180832321742038"><ele>252.2</ele><time>2026-04-30T08:16:57.002Z</time></trkpt><trkpt lat="42.979576348095" lon="-2.180781475568763"><ele>250.39999999999998</ele><time>2026-04-30T08:16:58Z</time></trkpt><trkpt lat="42.97965421735112" lon="-2.180731271073071"><ele>248.6</ele><time>2026-04-30T08:16:59Z</time></trkpt><trkpt lat="42.979740703313375" lon="-2.1806835677367555"><ele>246.8</ele><time>2026-04-30T08:17:00Z</time></trkpt><trkpt lat="42.97982662145726" lon="-2.1806335343254033"><ele>245.0</ele><time>2026-04-30T08:17:01Z</time></trkpt><trkpt lat="42.97991860032126" lon="-2.1805861329038585"><ele>248.6</ele><time>2026-04-30T08:17:02Z</time></trkpt><trkpt lat="42.980001371073826" lon="-2.180538348741624"><ele>252.2</ele><time>2026-04-30T08:17:03Z</time></trkpt><trkpt lat="42.98008408445935" lon="-2.180506014524661"><ele>255.8</ele><time>2026-04-30T08:17:04Z</time></trkpt><trkpt lat="42.98017339214084" lon="-2.1804611058953047"><ele>259.4</ele><time>2026-04-30T08:17:05Z</time></trkpt><trkpt lat="42.98026058326774" lon="-2.1804195919797604"><ele>263.0</ele><time>2026-04-30T08:17:06Z</time></trkpt><trkpt lat="42.980347368757855" lon="-2.1803859087756225"><ele>263.0</ele><time>2026-04-30T08:17:07Z</time></trkpt><trkpt lat="42.98043774747989" lon="-2.1803571134920374"><ele>263.0</ele><time>2026-04-30T08:17:08Z</time></trkpt><trkpt lat="42.98053690607207" lon="-2.180335901822415"><ele>263.0</ele><time>2026-04-30T08:17:09Z</time></trkpt><trkpt lat="42.98063961594952" lon="-2.1803079721458776"><ele>263.0</ele><time>2026-04-30T08:17:10Z</time></trkpt><trkpt lat="42.98073746261367" lon="-2.180306983502419"><ele>263.0</ele><time>2026-04-30T08:17:11Z</time></trkpt><trkpt lat="42.98083596305844" lon="-2.1803086697974643"><ele>261.8</ele><time>2026-04-30T08:17:12Z</time></trkpt><trkpt lat="42.980935789278035" lon="-2.180306145304489"><ele>260.6</ele><time>2026-04-30T08:17:13Z</time></trkpt><trkpt lat="42.98103690031291" lon="-2.1803036488615755"><ele>259.4</ele><time>2026-04-30T08:17:14Z</time></trkpt><trkpt lat="42.98113996749112" lon="-2.1803076254688176"><ele>258.2</ele><time>2026-04-30T08:17:15Z</time></trkpt><trkpt lat="42.98124057168312" lon="-2.180307362255048"><ele>257.0</ele><time>2026-04-30T08:17:16Z</time></trkpt><trkpt lat="42.98134268483684" lon="-2.180311311652855"><ele>257.0</ele><time>2026-04-30T08:17:17Z</time></trkpt><trkpt lat="42.98144628970014" lon="-2.180312323174799"><ele>257.0</ele><time>2026-04-30T08:17:18Z</time></trkpt><trkpt lat="42.98155427014787" lon="-2.180310383053768"><ele>257.0</ele><time>2026-04-30T08:17:19Z</time></trkpt><trkpt lat="42.9816575848157" lon="-2.18032056943219"><ele>257.0</ele><time>2026-04-30T08:17:20Z</time></trkpt><trkpt lat="42.98176185735472" lon="-2.1803311745712914"><ele>257.0</ele><time>2026-04-30T08:17:21Z</time></trkpt><trkpt lat="42.98186312284383" lon="-2.1803470623757395"><ele>258.4</ele><time>2026-04-30T08:17:22Z</time></trkpt><trkpt lat="42.98195927799641" lon="-2.180373736501656"><ele>259.79999999999995</ele><time>2026-04-30T08:17:23Z</time></trkpt><trkpt lat="42.982056797899936" lon="-2.1804022387814563"><ele>261.2</ele><time>2026-04-30T08:17:24Z</time></trkpt><trkpt lat="42.98215591369735" lon="-2.180439791802107"><ele>262.59999999999997</ele><time>2026-04-30T08:17:25Z</time></trkpt><trkpt lat="42.98225456439591" lon="-2.180477109090772"><ele>264.0</ele><time>2026-04-30T08:17:26Z</time></trkpt><trkpt lat="42.982350336547825" lon="-2.180520791468011"><ele>264.0</ele><time>2026-04-30T08:17:27Z</time></trkpt><trkpt lat="42.98244358652326" lon="-2.18056324814368"><ele>264.0</ele><time>2026-04-30T08:17:28Z</time></trkpt><trkpt lat="42.98253421192754" lon="-2.1806148155110447"><ele>264.0</ele><time>2026-04-30T08:17:29Z</time></trkpt><trkpt lat="42.98262477143158" lon="-2.1806626936487437"><ele>264.0</ele><time>2026-04-30T08:17:30Z</time></trkpt><trkpt lat="42.98272743254567" lon="-2.180707000732216"><ele>264.0</ele><time>2026-04-30T08:17:31Z</time></trkpt><trkpt lat="42.982819026761625" lon="-2.1807613100011958"><ele>259.59999999999997</ele><time>2026-04-30T08:17:32Z</time></trkpt><trkpt lat="42.98291640297906" lon="-2.180799648584437"><ele>255.2</ele><time>2026-04-30T08:17:33Z</time></trkpt><trkpt lat="42.983011457667416" lon="-2.1808524364134594"><ele>250.79999999999998</ele><time>2026-04-30T08:17:34Z</time></trkpt><trkpt lat="42.9831087272784" lon="-2.1809092451040444"><ele>246.39999999999998</ele><time>2026-04-30T08:17:35Z</time></trkpt><trkpt lat="42.983199975936955" lon="-2.1809562010874006"><ele>242.0</ele><time>2026-04-30T08:17:36Z</time></trkpt><trkpt lat="42.98329345557783" lon="-2.181005474170005"><ele>243.2</ele><time>2026-04-30T08:17:37Z</time></trkpt><trkpt lat="42.98338151389867" lon="-2.1810437604614066"><ele>244.39999999999998</ele><time>2026-04-30T08:17:38Z</time></trkpt><trkpt lat="42.983473110766546" lon="-2.1810929982388045"><ele>245.60000000000002</ele><time>2026-04-30T08:17:39Z</time></trkpt><trkpt lat="42.98356681271658" lon="-2.181144953072695"><ele>246.8</ele><time>2026-04-30T08:17:40Z</time></trkpt><trkpt lat="42.98366159832369" lon="-2.1811963094361855"><ele>248.0</ele><time>2026-04-30T08:17:41Z</time></trkpt><trkpt lat="42.983750710095386" lon="-2.181245750994336"><ele>248.0</ele><time>2026-04-30T08:17:42Z</time></trkpt><trkpt lat="42.983840634314674" lon="-2.18129049732628"><ele>248.0</ele><time>2026-04-30T08:17:43Z</time></trkpt><trkpt lat="42.98393334799912" lon="-2.1813342876011834"><ele>248.0</ele><time>2026-04-30T08:17:44Z</time></trkpt><trkpt lat="42.98403570509397" lon="-2.181380154494296"><ele>248.0</ele><time>2026-04-30T08:17:45Z</time></trkpt><trkpt lat="42.98411449911366" lon="-2.181407613329147"><ele>248.0</ele><time>2026-04-30T08:17:46Z</time></trkpt><trkpt lat="42.98421187740608" lon="-2.1814053369141257"><ele>247.2</ele><time>2026-04-30T08:17:47Z</time></trkpt><trkpt lat="42.98430743387312" lon="-2.181364785751566"><ele>246.4</ele><time>2026-04-30T08:17:48.001Z</time></trkpt><trkpt lat="42.98440754817867" lon="-2.1813681878851208"><ele>245.59999999999997</ele><time>2026-04-30T08:17:49.001Z</time></trkpt><trkpt lat="42.98450764768317" lon="-2.1813445085741088"><ele>244.79999999999998</ele><time>2026-04-30T08:17:50.001Z</time></trkpt><trkpt lat="42.98460676949394" lon="-2.1813178688099097"><ele>244.0</ele><time>2026-04-30T08:17:51.001Z</time></trkpt><trkpt lat="42.984704893740705" lon="-2.1812963250018864"><ele>244.0</ele><time>2026-04-30T08:17:52.001Z</time></trkpt><trkpt lat="42.98480320234632" lon="-2.1812835305581184"><ele>243.99999999999997</ele><time>2026-04-30T08:17:53.001Z</time></trkpt><trkpt lat="42.9849004288017" lon="-2.181261288033465"><ele>243.99999999999997</ele><time>2026-04-30T08:17:54.001Z</time></trkpt><trkpt lat="42.984999979145044" lon="-2.1812412102820007"><ele>244.0</ele><time>2026-04-30T08:17:55.001Z</time></trkpt><trkpt lat="42.985094767442575" lon="-2.181220036333067"><ele>244.0</ele><time>2026-04-30T08:17:56.001Z</time></trkpt><trkpt lat="42.98518974414192" lon="-2.1812009982363545"><ele>243.79999999999998</ele><time>2026-04-30T08:17:57.001Z</time></trkpt><trkpt lat="42.985288270378746" lon="-2.1811895382716995"><ele>243.59999999999997</ele><time>2026-04-30T08:17:58.001Z</time></trkpt><trkpt lat="42.98538770303226" lon="-2.181178305202272"><ele>243.4</ele><time>2026-04-30T08:17:59.001Z</time></trkpt><trkpt lat="42.98548267470485" lon="-2.181167466827694"><ele>243.2</ele><time>2026-04-30T08:18:00.001Z</time></trkpt><trkpt lat="42.985580011187345" lon="-2.1811471463182874"><ele>243.0</ele><time>2026-04-30T08:18:01.001Z</time></trkpt><trkpt lat="42.98567634194471" lon="-2.181135931653519"><ele>243.0</ele><time>2026-04-30T08:18:02.001Z</time></trkpt><trkpt lat="42.98577234203969" lon="-2.1811113247930973"><ele>243.0</ele><time>2026-04-30T08:18:03.001Z</time></trkpt><trkpt lat="42.98586291468582" lon="-2.181077292785238"><ele>243.0</ele><time>2026-04-30T08:18:04.001Z</time></trkpt><trkpt lat="42.985948452848554" lon="-2.1810100856231807"><ele>243.0</ele><time>2026-04-30T08:18:05.001Z</time></trkpt><trkpt lat="42.986044649425516" lon="-2.1809808747678816"><ele>243.0</ele><time>2026-04-30T08:18:06.001Z</time></trkpt><trkpt lat="42.986132769361475" lon="-2.1809287270362034"><ele>242.8</ele><time>2026-04-30T08:18:07.001Z</time></trkpt><trkpt lat="42.986224171960956" lon="-2.1808919970849616"><ele>242.60000000000002</ele><time>2026-04-30T08:18:08.001Z</time></trkpt><trkpt lat="42.986325651146295" lon="-2.18088163725588"><ele>242.39999999999998</ele><time>2026-04-30T08:18:09.001Z</time></trkpt><trkpt lat="42.98642173194685" lon="-2.180901130450159"><ele>242.2</ele><time>2026-04-30T08:18:10.001Z</time></trkpt><trkpt lat="42.98651047853577" lon="-2.180927982917893"><ele>242.0</ele><time>2026-04-30T08:18:11.001Z</time></trkpt><trkpt lat="42.98660481018849" lon="-2.1809752088315646"><ele>246.8</ele><time>2026-04-30T08:18:12.001Z</time></trkpt><trkpt lat="42.98668663927334" lon="-2.181030810575775"><ele>251.6</ele><time>2026-04-30T08:18:13.001Z</time></trkpt><trkpt lat="42.98677161867878" lon="-2.181071994320553"><ele>256.40000000000003</ele><time>2026-04-30T08:18:14.001Z</time></trkpt><trkpt lat="42.98685439507699" lon="-2.181135565419962"><ele>261.2</ele><time>2026-04-30T08:18:15.001Z</time></trkpt><trkpt lat="42.98694096037918" lon="-2.1811931720379367"><ele>266.0</ele><time>2026-04-30T08:18:16.001Z</time></trkpt><trkpt lat="42.98702324823016" lon="-2.1812583997705675"><ele>266.0</ele><time>2026-04-30T08:18:17.001Z</time></trkpt><trkpt lat="42.98710814227812" lon="-2.1813198435154044"><ele>266.0</ele><time>2026-04-30T08:18:18.001Z</time></trkpt><trkpt lat="42.98718962948201" lon="-2.1813856105043725"><ele>266.0</ele><time>2026-04-30T08:18:19.001Z</time></trkpt><trkpt lat="42.98726290425462" lon="-2.1814750883504797"><ele>266.0</ele><time>2026-04-30T08:18:20.001Z</time></trkpt><trkpt lat="42.98732811081486" lon="-2.1815836367524257"><ele>266.0</ele><time>2026-04-30T08:18:21.001Z</time></trkpt><trkpt lat="42.98739466736665" lon="-2.1816715545290544"><ele>262.40000000000003</ele><time>2026-04-30T08:18:22.001Z</time></trkpt><trkpt lat="42.9874551258096" lon="-2.1817697749679925"><ele>258.8</ele><time>2026-04-30T08:18:23.001Z</time></trkpt><trkpt lat="42.98751331694749" lon="-2.1818570925619043"><ele>255.20000000000002</ele><time>2026-04-30T08:18:24.001Z</time></trkpt><trkpt lat="42.98757042364158" lon="-2.1819495139871954"><ele>251.60000000000002</ele><time>2026-04-30T08:18:25.001Z</time></trkpt><trkpt lat="42.98763609647421" lon="-2.182046679738697"><ele>248.0</ele><time>2026-04-30T08:18:26.001Z</time></trkpt><trkpt lat="42.98770075313715" lon="-2.1821457031322784"><ele>248.00000000000003</ele><time>2026-04-30T08:18:27.001Z</time></trkpt><trkpt lat="42.987767733436534" lon="-2.182226535149155"><ele>248.0</ele><time>2026-04-30T08:18:28.001Z</time></trkpt><trkpt lat="42.987842757905014" lon="-2.1822992281187417"><ele>248.0</ele><time>2026-04-30T08:18:29.001Z</time></trkpt><trkpt lat="42.987920914220034" lon="-2.182357057621727"><ele>248.0</ele><time>2026-04-30T08:18:30.001Z</time></trkpt><trkpt lat="42.98799638804682" lon="-2.182407341625545"><ele>248.00000000000003</ele><time>2026-04-30T08:18:31.001Z</time></trkpt><trkpt lat="42.98807979261232" lon="-2.182450430184053"><ele>248.0</ele><time>2026-04-30T08:18:32.001Z</time></trkpt><trkpt lat="42.988165500118285" lon="-2.182494689602346"><ele>244.0</ele><time>2026-04-30T08:18:33.001Z</time></trkpt><trkpt lat="42.98825548343606" lon="-2.1825340757327867"><ele>240.0</ele><time>2026-04-30T08:18:34.001Z</time></trkpt><trkpt lat="42.98834332859331" lon="-2.182558595272574"><ele>236.0</ele><time>2026-04-30T08:18:35.001Z</time></trkpt><trkpt lat="42.98843360453515" lon="-2.1825763318579026"><ele>232.0</ele><time>2026-04-30T08:18:36.001Z</time></trkpt><trkpt lat="42.98852748964984" lon="-2.1826033551405857"><ele>228.0</ele><time>2026-04-30T08:18:37.001Z</time></trkpt><trkpt lat="42.98862027730114" lon="-2.1826267116208573"><ele>226.60000000000002</ele><time>2026-04-30T08:18:38.001Z</time></trkpt><trkpt lat="42.98871407535039" lon="-2.1826333350601628"><ele>225.20000000000002</ele><time>2026-04-30T08:18:39.001Z</time></trkpt><trkpt lat="42.98880770414153" lon="-2.182625145122727"><ele>223.8</ele><time>2026-04-30T08:18:40.001Z</time></trkpt><trkpt lat="42.98890011944392" lon="-2.1826087019166156"><ele>222.4</ele><time>2026-04-30T08:18:41.001Z</time></trkpt><trkpt lat="42.988990679810584" lon="-2.1825786310640587"><ele>221.0</ele><time>2026-04-30T08:18:42.001Z</time></trkpt><trkpt lat="42.989081237042335" lon="-2.182534496792995"><ele>221.0</ele><time>2026-04-30T08:18:43.001Z</time></trkpt><trkpt lat="42.989169790288756" lon="-2.1824780486396755"><ele>221.00000000000003</ele><time>2026-04-30T08:18:44.001Z</time></trkpt><trkpt lat="42.98925573794675" lon="-2.182416712822446"><ele>221.00000000000003</ele><time>2026-04-30T08:18:45.001Z</time></trkpt><trkpt lat="42.98933814325061" lon="-2.1823500779601193"><ele>221.0</ele><time>2026-04-30T08:18:46.001Z</time></trkpt><trkpt lat="42.98942410936797" lon="-2.1822817541284216"><ele>221.0</ele><time>2026-04-30T08:18:47.001Z</time></trkpt><trkpt lat="42.98950720955255" lon="-2.1822168612348336"><ele>223.20000000000002</ele><time>2026-04-30T08:18:48.001Z</time></trkpt><trkpt lat="42.98959625336718" lon="-2.18214918415648"><ele>225.40000000000003</ele><time>2026-04-30T08:18:49.001Z</time></trkpt><trkpt lat="42.98968752461063" lon="-2.182077750311925"><ele>227.6</ele><time>2026-04-30T08:18:50.001Z</time></trkpt><trkpt lat="42.98977258279568" lon="-2.1820083810379147"><ele>229.8</ele><time>2026-04-30T08:18:51.001Z</time></trkpt><trkpt lat="42.98986294160547" lon="-2.1819404053472553"><ele>232.0</ele><time>2026-04-30T08:18:52.001Z</time></trkpt><trkpt lat="42.989951900400335" lon="-2.181873697922983"><ele>228.6</ele><time>2026-04-30T08:18:53.001Z</time></trkpt><trkpt lat="42.99004408531784" lon="-2.181803128689877"><ele>225.2</ele><time>2026-04-30T08:18:54.002Z</time></trkpt><trkpt lat="42.990137139381304" lon="-2.1817389431153362"><ele>221.8</ele><time>2026-04-30T08:18:55.002Z</time></trkpt><trkpt lat="42.99023314488425" lon="-2.181673398299291"><ele>218.4</ele><time>2026-04-30T08:18:56.002Z</time></trkpt><trkpt lat="42.9903227006715" lon="-2.1816198074180475"><ele>215.0</ele><time>2026-04-30T08:18:57.002Z</time></trkpt><trkpt lat="42.990423586956574" lon="-2.1815580127225482"><ele>218.4</ele><time>2026-04-30T08:18:58.002Z</time></trkpt><trkpt lat="42.99051625793021" lon="-2.1815004054253078"><ele>221.8</ele><time>2026-04-30T08:18:59.002Z</time></trkpt><trkpt lat="42.99060895466757" lon="-2.1814496713709843"><ele>225.2</ele><time>2026-04-30T08:19:00.002Z</time></trkpt><trkpt lat="42.990709566341835" lon="-2.181408428249745"><ele>228.6</ele><time>2026-04-30T08:19:01.002Z</time></trkpt><trkpt lat="42.99081487547259" lon="-2.1813724183538703"><ele>232.0</ele><time>2026-04-30T08:19:02.002Z</time></trkpt><trkpt lat="42.99091905869123" lon="-2.1813411088141477"><ele>232.0</ele><time>2026-04-30T08:19:03.002Z</time></trkpt><trkpt lat="42.99102013784214" lon="-2.181320899735826"><ele>232.0</ele><time>2026-04-30T08:19:04Z</time></trkpt><trkpt lat="42.99112124192701" lon="-2.181302466447905"><ele>232.0</ele><time>2026-04-30T08:19:05Z</time></trkpt><trkpt lat="42.99122125858529" lon="-2.1812867406468994"><ele>232.0</ele><time>2026-04-30T08:19:06Z</time></trkpt><trkpt lat="42.99132597230395" lon="-2.181268262129362"><ele>232.0</ele><time>2026-04-30T08:19:07Z</time></trkpt><trkpt lat="42.99143078543402" lon="-2.181251657890484"><ele>232.0</ele><time>2026-04-30T08:19:08Z</time></trkpt><trkpt lat="42.991532354591655" lon="-2.1812377867726953"><ele>232.0</ele><time>2026-04-30T08:19:09Z</time></trkpt><trkpt lat="42.99163492568011" lon="-2.1812146845190874"><ele>232.0</ele><time>2026-04-30T08:19:10Z</time></trkpt><trkpt lat="42.99173906757009" lon="-2.1812005439355318"><ele>232.0</ele><time>2026-04-30T08:19:11Z</time></trkpt><trkpt lat="42.991843931474726" lon="-2.181184437896906"><ele>232.0</ele><time>2026-04-30T08:19:12Z</time></trkpt><trkpt lat="42.99194484616038" lon="-2.1811735577140254"><ele>230.8</ele><time>2026-04-30T08:19:13Z</time></trkpt><trkpt lat="42.99204846363243" lon="-2.181154729620472"><ele>229.6</ele><time>2026-04-30T08:19:14Z</time></trkpt><trkpt lat="42.99215152239618" lon="-2.181138760231339"><ele>228.40000000000003</ele><time>2026-04-30T08:19:15Z</time></trkpt><trkpt lat="42.9922513563282" lon="-2.181122845400663"><ele>227.20000000000002</ele><time>2026-04-30T08:19:16Z</time></trkpt><trkpt lat="42.99235524352771" lon="-2.1811045450000446"><ele>226.0</ele><time>2026-04-30T08:19:17Z</time></trkpt><trkpt lat="42.99245390667244" lon="-2.1810856679083073"><ele>224.0</ele><time>2026-04-30T08:19:18Z</time></trkpt><trkpt lat="42.992556950373384" lon="-2.181071806537808"><ele>222.00000000000003</ele><time>2026-04-30T08:19:19Z</time></trkpt><trkpt lat="42.99265889907" lon="-2.1810496700252275"><ele>220.00000000000003</ele><time>2026-04-30T08:19:20Z</time></trkpt><trkpt lat="42.992764079611284" lon="-2.181041968139933"><ele>218.0</ele><time>2026-04-30T08:19:21Z</time></trkpt><trkpt lat="42.99286658872761" lon="-2.1810300429531924"><ele>216.0</ele><time>2026-04-30T08:19:22Z</time></trkpt><trkpt lat="42.99296845218196" lon="-2.1810199528096565"><ele>216.0</ele><time>2026-04-30T08:19:23Z</time></trkpt><trkpt lat="42.99306778056455" lon="-2.1810090510943803"><ele>216.00000000000003</ele><time>2026-04-30T08:19:24Z</time></trkpt><trkpt lat="42.99317069914784" lon="-2.180988046173172"><ele>216.00000000000003</ele><time>2026-04-30T08:19:25Z</time></trkpt><trkpt lat="42.99327654677127" lon="-2.180975846561139"><ele>216.0</ele><time>2026-04-30T08:19:26Z</time></trkpt><trkpt lat="42.99337475527858" lon="-2.180940554323636"><ele>216.0</ele><time>2026-04-30T08:19:27Z</time></trkpt><trkpt lat="42.99347454476182" lon="-2.180926273266894"><ele>215.60000000000002</ele><time>2026-04-30T08:19:28Z</time></trkpt><trkpt lat="42.99357621562925" lon="-2.1809117230212243"><ele>215.20000000000002</ele><time>2026-04-30T08:19:29Z</time></trkpt><trkpt lat="42.99367478449883" lon="-2.180907949920263"><ele>214.79999999999998</ele><time>2026-04-30T08:19:30Z</time></trkpt><trkpt lat="42.993774459694535" lon="-2.1808826905188936"><ele>214.39999999999998</ele><time>2026-04-30T08:19:31Z</time></trkpt><trkpt lat="42.99386522417334" lon="-2.1808603882321966"><ele>214.0</ele><time>2026-04-30T08:19:32Z</time></trkpt><trkpt lat="42.99395905915114" lon="-2.1808467315756728"><ele>213.99999999999997</ele><time>2026-04-30T08:19:33Z</time></trkpt><trkpt lat="42.99403937921174" lon="-2.1808429545643357"><ele>214.0</ele><time>2026-04-30T08:19:34Z</time></trkpt><trkpt lat="42.99411539764661" lon="-2.180832650901121"><ele>214.0</ele><time>2026-04-30T08:19:35Z</time></trkpt><trkpt lat="42.994187724772274" lon="-2.180817243665867"><ele>214.0</ele><time>2026-04-30T08:19:36Z</time></trkpt><trkpt lat="42.99426137085605" lon="-2.18080656859527"><ele>213.99999999999997</ele><time>2026-04-30T08:19:37Z</time></trkpt><trkpt lat="42.99433903511613" lon="-2.180791294883841"><ele>214.0</ele><time>2026-04-30T08:19:38Z</time></trkpt><trkpt lat="42.994419763225" lon="-2.18077479297969"><ele>213.99999999999997</ele><time>2026-04-30T08:19:39Z</time></trkpt><trkpt lat="42.994501809194794" lon="-2.180754098280383"><ele>214.0</ele><time>2026-04-30T08:19:40Z</time></trkpt><trkpt lat="42.994580579488165" lon="-2.180726808045994"><ele>214.0</ele><time>2026-04-30T08:19:41Z</time></trkpt><trkpt lat="42.99465784822543" lon="-2.1806892081968177"><ele>214.0</ele><time>2026-04-30T08:19:42Z</time></trkpt><trkpt lat="42.99473720550642" lon="-2.180633689906114"><ele>213.99999999999997</ele><time>2026-04-30T08:19:43Z</time></trkpt><trkpt lat="42.99481441004093" lon="-2.180581482168256"><ele>214.0</ele><time>2026-04-30T08:19:44Z</time></trkpt><trkpt lat="42.99489582867708" lon="-2.18052138766326"><ele>213.99999999999997</ele><time>2026-04-30T08:19:45Z</time></trkpt><trkpt lat="42.994975872375804" lon="-2.1804726022734746"><ele>214.0</ele><time>2026-04-30T08:19:46Z</time></trkpt><trkpt lat="42.995053588923604" lon="-2.180427037681672"><ele>214.0</ele><time>2026-04-30T08:19:47Z</time></trkpt><trkpt lat="42.99512468513282" lon="-2.1803878109289982"><ele>214.0</ele><time>2026-04-30T08:19:48Z</time></trkpt><trkpt lat="42.995193592090544" lon="-2.1803513530336693"><ele>213.99999999999997</ele><time>2026-04-30T08:19:49Z</time></trkpt><trkpt lat="42.995255948248925" lon="-2.180313638103947"><ele>214.0</ele><time>2026-04-30T08:19:50Z</time></trkpt><trkpt lat="42.99532104669728" lon="-2.180273451026333"><ele>213.33333333333331</ele><time>2026-04-30T08:19:51Z</time></trkpt><trkpt lat="42.995398103429515" lon="-2.1802302282720465"><ele>212.66666666666666</ele><time>2026-04-30T08:19:52Z</time></trkpt><trkpt lat="42.99547495017615" lon="-2.1801852077242336"><ele>212.0</ele><time>2026-04-30T08:19:53Z</time></trkpt><trkpt lat="42.995545302320096" lon="-2.18013832851114"><ele>211.33333333333331</ele><time>2026-04-30T08:19:54Z</time></trkpt><trkpt lat="42.99563288639491" lon="-2.1800985196984763"><ele>210.66666666666666</ele><time>2026-04-30T08:19:55.001Z</time></trkpt><trkpt lat="42.99572304668241" lon="-2.180063676629516"><ele>210.0</ele><time>2026-04-30T08:19:56.001Z</time></trkpt><trkpt lat="42.99581486876988" lon="-2.180033880610166"><ele>209.6</ele><time>2026-04-30T08:19:57.001Z</time></trkpt><trkpt lat="42.995907037336174" lon="-2.180028035215758"><ele>209.2</ele><time>2026-04-30T08:19:58.001Z</time></trkpt><trkpt lat="42.99600210400785" lon="-2.180009772108628"><ele>208.8</ele><time>2026-04-30T08:19:59.001Z</time></trkpt><trkpt lat="42.99609963568584" lon="-2.179986406013305"><ele>208.4</ele><time>2026-04-30T08:20:00.001Z</time></trkpt><trkpt lat="42.996190299800546" lon="-2.179967726929715"><ele>208.0</ele><time>2026-04-30T08:20:01.001Z</time></trkpt><trkpt lat="42.99628490278065" lon="-2.179937910672137"><ele>208.0</ele><time>2026-04-30T08:20:02.001Z</time></trkpt><trkpt lat="42.99638287561114" lon="-2.1799126237231796"><ele>208.0</ele><time>2026-04-30T08:20:03.001Z</time></trkpt><trkpt lat="42.99647750626856" lon="-2.17987866117274"><ele>208.0</ele><time>2026-04-30T08:20:04.001Z</time></trkpt><trkpt lat="42.996572165042835" lon="-2.179857798903096"><ele>208.0</ele><time>2026-04-30T08:20:05.001Z</time></trkpt><trkpt lat="42.99666416988347" lon="-2.179835056761304"><ele>208.0</ele><time>2026-04-30T08:20:06.001Z</time></trkpt><trkpt lat="42.9967586050827" lon="-2.179801600808395"><ele>208.60000000000002</ele><time>2026-04-30T08:20:07.001Z</time></trkpt><trkpt lat="42.99685248852063" lon="-2.1797555696419404"><ele>209.20000000000002</ele><time>2026-04-30T08:20:08.001Z</time></trkpt><trkpt lat="42.99694411460152" lon="-2.179686020918891"><ele>209.8</ele><time>2026-04-30T08:20:09.001Z</time></trkpt><trkpt lat="42.997035443328095" lon="-2.1796366248232846"><ele>210.4</ele><time>2026-04-30T08:20:10.001Z</time></trkpt><trkpt lat="42.99712836141381" lon="-2.1795841199816737"><ele>211.0</ele><time>2026-04-30T08:20:11.001Z</time></trkpt><trkpt lat="42.997220466893765" lon="-2.1795413884851396"><ele>211.0</ele><time>2026-04-30T08:20:12.001Z</time></trkpt><trkpt lat="42.99731431611549" lon="-2.179497005181237"><ele>211.0</ele><time>2026-04-30T08:20:13.001Z</time></trkpt><trkpt lat="42.997411011182656" lon="-2.1794704499748048"><ele>211.0</ele><time>2026-04-30T08:20:14.001Z</time></trkpt><trkpt lat="42.997514831432355" lon="-2.1794464460391385"><ele>211.0</ele><time>2026-04-30T08:20:15.001Z</time></trkpt><trkpt lat="42.997619403172436" lon="-2.1794385094233344"><ele>211.0</ele><time>2026-04-30T08:20:16.001Z</time></trkpt><trkpt lat="42.99771797403727" lon="-2.1794412963900984"><ele>210.4</ele><time>2026-04-30T08:20:17.001Z</time></trkpt><trkpt lat="42.997818124374554" lon="-2.179455994371327"><ele>209.8</ele><time>2026-04-30T08:20:18.001Z</time></trkpt><trkpt lat="42.99791142832464" lon="-2.179476551541332"><ele>209.20000000000002</ele><time>2026-04-30T08:20:19.001Z</time></trkpt><trkpt lat="42.99801948163235" lon="-2.179493079802713"><ele>208.60000000000002</ele><time>2026-04-30T08:20:20.001Z</time></trkpt><trkpt lat="42.9981197861126" lon="-2.179508540941203"><ele>208.0</ele><time>2026-04-30T08:20:21.001Z</time></trkpt><trkpt lat="42.99822231899779" lon="-2.1795246079675787"><ele>208.0</ele><time>2026-04-30T08:20:22.001Z</time></trkpt><trkpt lat="42.998329931898745" lon="-2.179546392413253"><ele>208.0</ele><time>2026-04-30T08:20:23.001Z</time></trkpt><trkpt lat="42.99844544339015" lon="-2.179542435331391"><ele>208.0</ele><time>2026-04-30T08:20:24.001Z</time></trkpt><trkpt lat="42.99853837882667" lon="-2.179510088121478"><ele>208.0</ele><time>2026-04-30T08:20:25.001Z</time></trkpt><trkpt lat="42.998617104901115" lon="-2.179470660088685"><ele>208.0</ele><time>2026-04-30T08:20:26.001Z</time></trkpt><trkpt lat="42.99870090012483" lon="-2.179423952818554"><ele>207.83333333333331</ele><time>2026-04-30T08:20:27.001Z</time></trkpt><trkpt lat="42.998774325660214" lon="-2.1793697124564098"><ele>207.66666666666666</ele><time>2026-04-30T08:20:28.001Z</time></trkpt><trkpt lat="42.99885049851682" lon="-2.1793180438598583"><ele>207.5</ele><time>2026-04-30T08:20:29.001Z</time></trkpt><trkpt lat="42.99892065141119" lon="-2.179264207103193"><ele>207.33333333333331</ele><time>2026-04-30T08:20:30.001Z</time></trkpt><trkpt lat="42.99899438301947" lon="-2.179212231813573"><ele>207.16666666666666</ele><time>2026-04-30T08:20:31.001Z</time></trkpt><trkpt lat="42.99906168047882" lon="-2.1791570230250716"><ele>207.0</ele><time>2026-04-30T08:20:32.001Z</time></trkpt><trkpt lat="42.999126034223096" lon="-2.1790922409120546"><ele>207.0</ele><time>2026-04-30T08:20:33.001Z</time></trkpt><trkpt lat="42.999188872813626" lon="-2.1790262921039645"><ele>207.0</ele><time>2026-04-30T08:20:34.001Z</time></trkpt><trkpt lat="42.999255354353366" lon="-2.1789650515894876"><ele>207.0</ele><time>2026-04-30T08:20:35.001Z</time></trkpt><trkpt lat="42.99933183205747" lon="-2.1789463157065585"><ele>207.0</ele><time>2026-04-30T08:20:36.001Z</time></trkpt><trkpt lat="42.99940009104543" lon="-2.1789197981604627"><ele>207.0</ele><time>2026-04-30T08:20:37.001Z</time></trkpt><trkpt lat="42.99946023869383" lon="-2.1788636851496244"><ele>207.0</ele><time>2026-04-30T08:20:38.001Z</time></trkpt><trkpt lat="42.99953823128496" lon="-2.1787819920693474"><ele>207.0</ele><time>2026-04-30T08:20:39.001Z</time></trkpt><trkpt lat="42.99962855574212" lon="-2.1787277943822194"><ele>207.0</ele><time>2026-04-30T08:20:40.001Z</time></trkpt><trkpt lat="42.99971611902517" lon="-2.1786765164375432"><ele>207.0</ele><time>2026-04-30T08:20:41.001Z</time></trkpt><trkpt lat="42.99980389956006" lon="-2.1786276326489733"><ele>207.0</ele><time>2026-04-30T08:20:42.001Z</time></trkpt><trkpt lat="42.999891762688556" lon="-2.178579799808422"><ele>207.0</ele><time>2026-04-30T08:20:43.001Z</time></trkpt><trkpt lat="42.99997905130133" lon="-2.1785333652390886"><ele>207.0</ele><time>2026-04-30T08:20:44.001Z</time></trkpt><trkpt lat="43.00006135500877" lon="-2.1784801554970934"><ele>207.0</ele><time>2026-04-30T08:20:45.001Z</time></trkpt><trkpt lat="43.00014286762667" lon="-2.178423115839408"><ele>207.0</ele><time>2026-04-30T08:20:46.001Z</time></trkpt><trkpt lat="43.00022839894077" lon="-2.1783656219671093"><ele>207.0</ele><time>2026-04-30T08:20:47.001Z</time></trkpt><trkpt lat="43.00031643118308" lon="-2.1783234746724935"><ele>207.0</ele><time>2026-04-30T08:20:48.001Z</time></trkpt><trkpt lat="43.00040377008419" lon="-2.178274481122307"><ele>207.0</ele><time>2026-04-30T08:20:49.001Z</time></trkpt><trkpt lat="43.0004878695443" lon="-2.178225123518155"><ele>207.0</ele><time>2026-04-30T08:20:50.001Z</time></trkpt><trkpt lat="43.000575361143945" lon="-2.178170977644244"><ele>207.0</ele><time>2026-04-30T08:20:51.001Z</time></trkpt><trkpt lat="43.000661531114254" lon="-2.17811391633667"><ele>207.0</ele><time>2026-04-30T08:20:52.001Z</time></trkpt><trkpt lat="43.00074780342874" lon="-2.1780545670806997"><ele>207.0</ele><time>2026-04-30T08:20:53.001Z</time></trkpt><trkpt lat="43.00082999949385" lon="-2.1780028021643982"><ele>206.66666666666666</ele><time>2026-04-30T08:20:54.001Z</time></trkpt><trkpt lat="43.0009056553649" lon="-2.1779500925925586"><ele>206.33333333333331</ele><time>2026-04-30T08:20:55.001Z</time></trkpt><trkpt lat="43.00098376865828" lon="-2.1778927334365745"><ele>206.0</ele><time>2026-04-30T08:20:56.001Z</time></trkpt><trkpt lat="43.001061081250576" lon="-2.177854559029715"><ele>205.66666666666666</ele><time>2026-04-30T08:20:57.001Z</time></trkpt><trkpt lat="43.00113765803265" lon="-2.1778093403101706"><ele>205.33333333333331</ele><time>2026-04-30T08:20:58.001Z</time></trkpt><trkpt lat="43.00120769238008" lon="-2.17776412593525"><ele>205.0</ele><time>2026-04-30T08:20:59.001Z</time></trkpt><trkpt lat="43.00128214479173" lon="-2.177718800849451"><ele>204.99999999999997</ele><time>2026-04-30T08:21:00.001Z</time></trkpt><trkpt lat="43.001357861350876" lon="-2.177668304077778"><ele>205.0</ele><time>2026-04-30T08:21:01.002Z</time></trkpt><trkpt lat="43.0014326932432" lon="-2.1776215242369297"><ele>205.0</ele><time>2026-04-30T08:21:02.002Z</time></trkpt><trkpt lat="43.00150815183213" lon="-2.177573410036338"><ele>205.0</ele><time>2026-04-30T08:21:03.002Z</time></trkpt><trkpt lat="43.00158743391203" lon="-2.177519246607245"><ele>204.99999999999997</ele><time>2026-04-30T08:21:04.002Z</time></trkpt><trkpt lat="43.00166616298058" lon="-2.177466467007405"><ele>205.0</ele><time>2026-04-30T08:21:05.002Z</time></trkpt><trkpt lat="43.00174569265111" lon="-2.177416654215174"><ele>205.2</ele><time>2026-04-30T08:21:06.002Z</time></trkpt><trkpt lat="43.001823892943705" lon="-2.177365988906543"><ele>205.4</ele><time>2026-04-30T08:21:07.002Z</time></trkpt><trkpt lat="43.00190505526783" lon="-2.177314199072543"><ele>205.60000000000002</ele><time>2026-04-30T08:21:08.002Z</time></trkpt><trkpt lat="43.001990286146246" lon="-2.17726140408523"><ele>205.8</ele><time>2026-04-30T08:21:09.002Z</time></trkpt><trkpt lat="43.00207181794388" lon="-2.177209559098707"><ele>206.0</ele><time>2026-04-30T08:21:10Z</time></trkpt><trkpt lat="43.002157189620895" lon="-2.177152102851311"><ele>206.00000000000003</ele><time>2026-04-30T08:21:11Z</time></trkpt><trkpt lat="43.002240017101926" lon="-2.177095780625271"><ele>206.0</ele><time>2026-04-30T08:21:12Z</time></trkpt><trkpt lat="43.00232346141096" lon="-2.1770394349468525"><ele>206.0</ele><time>2026-04-30T08:21:13Z</time></trkpt><trkpt lat="43.00240391007883" lon="-2.1769878324457705"><ele>206.0</ele><time>2026-04-30T08:21:14Z</time></trkpt><trkpt lat="43.00247936423853" lon="-2.1769413587897053"><ele>206.00000000000003</ele><time>2026-04-30T08:21:15Z</time></trkpt><trkpt lat="43.0025570633352" lon="-2.1768948693525987"><ele>206.0</ele><time>2026-04-30T08:21:16Z</time></trkpt><trkpt lat="43.00263307654504" lon="-2.176844745625412"><ele>205.7142857142857</ele><time>2026-04-30T08:21:17Z</time></trkpt><trkpt lat="43.00270201229148" lon="-2.1768000238365537"><ele>205.42857142857142</ele><time>2026-04-30T08:21:18Z</time></trkpt><trkpt lat="43.002772149226956" lon="-2.176753897028441"><ele>205.14285714285714</ele><time>2026-04-30T08:21:19Z</time></trkpt><trkpt lat="43.00283635566852" lon="-2.176713475390464"><ele>204.85714285714283</ele><time>2026-04-30T08:21:20Z</time></trkpt><trkpt lat="43.002901648388296" lon="-2.17666759091466"><ele>204.57142857142858</ele><time>2026-04-30T08:21:21Z</time></trkpt><trkpt lat="43.0029689006347" lon="-2.1766229283950573"><ele>204.28571428571428</ele><time>2026-04-30T08:21:22Z</time></trkpt><trkpt lat="43.00303278420066" lon="-2.1765799753708235"><ele>204.0</ele><time>2026-04-30T08:21:23Z</time></trkpt><trkpt lat="43.00309240184054" lon="-2.1765435857264483"><ele>204.16666666666666</ele><time>2026-04-30T08:21:24Z</time></trkpt><trkpt lat="43.00318778108948" lon="-2.176479909841817"><ele>204.33333333333331</ele><time>2026-04-30T08:21:26Z</time></trkpt><trkpt lat="43.003248072975104" lon="-2.1764374526606147"><ele>204.5</ele><time>2026-04-30T08:21:28Z</time></trkpt><trkpt lat="43.00332145437076" lon="-2.1763979403066154"><ele>204.66666666666666</ele><time>2026-04-30T08:21:31Z</time></trkpt><trkpt lat="43.0033805831674" lon="-2.1763608522899056"><ele>204.83333333333331</ele><time>2026-04-30T08:21:35Z</time></trkpt><trkpt lat="43.00346407891696" lon="-2.1763142910211"><ele>205.0</ele><time>2026-04-30T08:22:13.001Z</time></trkpt><trkpt lat="43.00355142078922" lon="-2.1762594042413554"><ele>204.99999999999997</ele><time>2026-04-30T08:22:15.001Z</time></trkpt><trkpt lat="43.00366233208014" lon="-2.176200954333458"><ele>205.0</ele><time>2026-04-30T08:22:17.001Z</time></trkpt><trkpt lat="43.0037139121274" lon="-2.17614407149364"><ele>205.0</ele><time>2026-04-30T08:22:18.001Z</time></trkpt><trkpt lat="43.00377290434677" lon="-2.1761055668631673"><ele>205.0</ele><time>2026-04-30T08:22:19.001Z</time></trkpt><trkpt lat="43.00384256007751" lon="-2.1760809796082436"><ele>204.99999999999997</ele><time>2026-04-30T08:22:20.001Z</time></trkpt><trkpt lat="43.00390441894081" lon="-2.1760323121767655"><ele>205.0</ele><time>2026-04-30T08:22:21.001Z</time></trkpt><trkpt lat="43.003972346318214" lon="-2.1759879041679335"><ele>204.99999999999997</ele><time>2026-04-30T08:22:22.001Z</time></trkpt><trkpt lat="43.00403693407011" lon="-2.1759530121077084"><ele>205.0</ele><time>2026-04-30T08:22:23.001Z</time></trkpt><trkpt lat="43.00409815360733" lon="-2.1759244338092443"><ele>205.0</ele><time>2026-04-30T08:22:24.001Z</time></trkpt><trkpt lat="43.00420960745187" lon="-2.175885117023592"><ele>205.0</ele><time>2026-04-30T08:22:26.001Z</time></trkpt><trkpt lat="43.00430241074416" lon="-2.1758589966976114"><ele>204.99999999999997</ele><time>2026-04-30T08:22:28.001Z</time></trkpt><trkpt lat="43.00436745147047" lon="-2.1758502006734157"><ele>205.0</ele><time>2026-04-30T08:22:30.001Z</time></trkpt><trkpt lat="43.00444846265678" lon="-2.175839133811225"><ele>205.33333333333331</ele><time>2026-04-30T08:22:34.001Z</time></trkpt><trkpt lat="43.00453613573547" lon="-2.1758303065808295"><ele>205.66666666666666</ele><time>2026-04-30T08:24:06.001Z</time></trkpt><trkpt lat="43.004618489575044" lon="-2.1758189636623793"><ele>206.0</ele><time>2026-04-30T08:24:08.001Z</time></trkpt><trkpt lat="43.004709788652235" lon="-2.1758196024677985"><ele>206.33333333333331</ele><time>2026-04-30T08:24:10.001Z</time></trkpt><trkpt lat="43.00479437988426" lon="-2.1758168471054637"><ele>206.66666666666666</ele><time>2026-04-30T08:24:12.001Z</time></trkpt><trkpt lat="43.00486527150316" lon="-2.1758051412811055"><ele>207.0</ele><time>2026-04-30T08:24:14.001Z</time></trkpt><trkpt lat="43.00493355075062" lon="-2.1758006467094675"><ele>207.0</ele><time>2026-04-30T08:24:18.001Z</time></trkpt><trkpt lat="43.005000805847494" lon="-2.175795378472536"><ele>207.0</ele><time>2026-04-30T08:24:21.001Z</time></trkpt><trkpt lat="43.00507715123037" lon="-2.1757923625529694"><ele>207.0</ele><time>2026-04-30T08:24:23.001Z</time></trkpt><trkpt lat="43.005168908097026" lon="-2.1757877216415435"><ele>207.0</ele><time>2026-04-30T08:24:25.001Z</time></trkpt><trkpt lat="43.00524963191942" lon="-2.1757826111787186"><ele>207.0</ele><time>2026-04-30T08:24:27.001Z</time></trkpt><trkpt lat="43.00533578421987" lon="-2.1757857221967054"><ele>207.0</ele><time>2026-04-30T08:24:30.001Z</time></trkpt><trkpt lat="43.00541076176048" lon="-2.1757858936207812"><ele>207.0</ele><time>2026-04-30T08:24:32.001Z</time></trkpt><trkpt lat="43.00550891842866" lon="-2.175794918260921"><ele>207.0</ele><time>2026-04-30T08:24:34.001Z</time></trkpt><trkpt lat="43.00562618314644" lon="-2.1757994476710616"><ele>207.0</ele><time>2026-04-30T08:24:36.001Z</time></trkpt><trkpt lat="43.005736061932225" lon="-2.1758088777115336"><ele>207.0</ele><time>2026-04-30T08:24:38.001Z</time></trkpt><trkpt lat="43.0057988715699" lon="-2.175815281971231"><ele>207.0</ele><time>2026-04-30T08:24:39.001Z</time></trkpt><trkpt lat="43.005913878024735" lon="-2.1758460354284277"><ele>207.16666666666666</ele><time>2026-04-30T08:24:41.001Z</time></trkpt><trkpt lat="43.00597895189461" lon="-2.175870528224118"><ele>207.33333333333331</ele><time>2026-04-30T08:24:42.001Z</time></trkpt><trkpt lat="43.00604396116782" lon="-2.175890856161686"><ele>207.5</ele><time>2026-04-30T08:24:43.001Z</time></trkpt><trkpt lat="43.006106271614755" lon="-2.1759116161603487"><ele>207.66666666666666</ele><time>2026-04-30T08:24:44.001Z</time></trkpt><trkpt lat="43.00621681729612" lon="-2.175951389842327"><ele>207.83333333333331</ele><time>2026-04-30T08:24:46.001Z</time></trkpt><trkpt lat="43.00631206855276" lon="-2.1760099173584684"><ele>208.0</ele><time>2026-04-30T08:24:48.001Z</time></trkpt><trkpt lat="43.00641671317823" lon="-2.1761085692550224"><ele>207.99999999999997</ele><time>2026-04-30T08:24:50.001Z</time></trkpt><trkpt lat="43.006474331638124" lon="-2.1761791488343367"><ele>208.0</ele><time>2026-04-30T08:24:51.001Z</time></trkpt><trkpt lat="43.00652645033334" lon="-2.1762447781683343"><ele>208.0</ele><time>2026-04-30T08:24:52.001Z</time></trkpt><trkpt lat="43.00657359425797" lon="-2.1763043747324926"><ele>208.0</ele><time>2026-04-30T08:24:53.001Z</time></trkpt><trkpt lat="43.006649155896795" lon="-2.176395938940855"><ele>207.99999999999997</ele><time>2026-04-30T08:24:55.001Z</time></trkpt><trkpt lat="43.00670290448559" lon="-2.1764706427812572"><ele>208.0</ele><time>2026-04-30T08:24:57.001Z</time></trkpt><trkpt lat="43.00675107221344" lon="-2.1765350663439653"><ele>207.28571428571428</ele><time>2026-04-30T08:24:59.001Z</time></trkpt><trkpt lat="43.00675937950997" lon="-2.1766491166108035"><ele>206.57142857142858</ele><time>2026-04-30T08:25:25Z</time></trkpt><trkpt lat="43.0068106918256" lon="-2.1767048431040465"><ele>205.85714285714286</ele><time>2026-04-30T08:25:30Z</time></trkpt><trkpt lat="43.00686279737836" lon="-2.1767587790370397"><ele>205.14285714285714</ele><time>2026-04-30T08:25:35Z</time></trkpt><trkpt lat="43.006898482196206" lon="-2.17683081493603"><ele>204.42857142857144</ele><time>2026-04-30T08:25:41Z</time></trkpt><trkpt lat="43.00692955029302" lon="-2.1769109810734544"><ele>203.71428571428572</ele><time>2026-04-30T08:25:47Z</time></trkpt><trkpt lat="43.00683333444278" lon="-2.1768818318412384"><ele>203.0</ele><time>2026-04-30T08:31:02.001Z</time></trkpt><trkpt lat="43.00681870761984" lon="-2.1767877264928517"><ele>203.00000000000003</ele><time>2026-04-30T08:43:41.001Z</time></trkpt><trkpt lat="43.006930248078056" lon="-2.1767724330924416"><ele>203.0</ele><time>2026-04-30T08:44:06.001Z</time></trkpt><trkpt lat="43.00696362993274" lon="-2.1766810634120817"><ele>203.0</ele><time>2026-04-30T08:44:10.002Z</time></trkpt><trkpt lat="43.006949825139955" lon="-2.176590644279762"><ele>203.0</ele><time>2026-04-30T08:44:13.002Z</time></trkpt><trkpt lat="43.006921565900896" lon="-2.1764980465001704"><ele>203.00000000000003</ele><time>2026-04-30T08:44:16Z</time></trkpt><trkpt lat="43.00684016906468" lon="-2.1764124950281594"><ele>203.0</ele><time>2026-04-30T08:44:20Z</time></trkpt><trkpt lat="43.006689628518245" lon="-2.176709813861263"><ele>203.0</ele><time>2026-04-30T08:45:07.436Z</time></trkpt><trkpt lat="43.006701945395854" lon="-2.1766037487022682"><ele>203.0</ele><time>2026-04-30T09:01:08Z</time></trkpt><trkpt lat="43.00664257650406" lon="-2.1764855725915386"><ele>203.0</ele><time>2026-04-30T09:01:26Z</time></trkpt><trkpt lat="43.00669706738925" lon="-2.1765682893389946"><ele>203.0</ele><time>2026-04-30T09:01:38Z</time></trkpt><trkpt lat="43.00681583973473" lon="-2.17683095729942"><ele>203.00000000000003</ele><time>2026-04-30T09:01:40Z</time></trkpt><trkpt lat="43.00686324770772" lon="-2.176762997847455"><ele>203.0</ele><time>2026-04-30T09:07:38Z</time></trkpt><trkpt lat="43.00694667947322" lon="-2.176772341446581"><ele>203.0</ele><time>2026-04-30T09:07:42Z</time></trkpt><trkpt lat="43.00702006278721" lon="-2.1768374389531755"><ele>203.0</ele><time>2026-04-30T09:07:44Z</time></trkpt><trkpt lat="43.007100836949" lon="-2.17689719379672"><ele>203.00000000000003</ele><time>2026-04-30T09:07:46Z</time></trkpt><trkpt lat="43.007192589833814" lon="-2.176950901493428"><ele>203.0</ele><time>2026-04-30T09:07:48Z</time></trkpt><trkpt lat="43.007289623539684" lon="-2.1769923812223477"><ele>203.0</ele><time>2026-04-30T09:07:50Z</time></trkpt><trkpt lat="43.00738553124608" lon="-2.177016591441362"><ele>203.0</ele><time>2026-04-30T09:07:52Z</time></trkpt><trkpt lat="43.00747890032417" lon="-2.177032856747666"><ele>203.0</ele><time>2026-04-30T09:07:54Z</time></trkpt><trkpt lat="43.00757809090425" lon="-2.177033759133429"><ele>203.0</ele><time>2026-04-30T09:07:56Z</time></trkpt><trkpt lat="43.00767734593857" lon="-2.1770377671072274"><ele>203.0</ele><time>2026-04-30T09:07:58Z</time></trkpt><trkpt lat="43.00779284243539" lon="-2.177026516722518"><ele>204.00000000000003</ele><time>2026-04-30T09:08:00Z</time></trkpt><trkpt lat="43.00790799670686" lon="-2.1770177599373355"><ele>205.0</ele><time>2026-04-30T09:08:02Z</time></trkpt><trkpt lat="43.008029349862355" lon="-2.1770305520354416"><ele>206.0</ele><time>2026-04-30T09:08:04Z</time></trkpt><trkpt lat="43.00809266280152" lon="-2.1770266421604725"><ele>207.0</ele><time>2026-04-30T09:08:05Z</time></trkpt><trkpt lat="43.00815932836657" lon="-2.1770109704668252"><ele>208.00000000000003</ele><time>2026-04-30T09:08:06Z</time></trkpt><trkpt lat="43.00822264890469" lon="-2.1769958706540673"><ele>209.0</ele><time>2026-04-30T09:08:07Z</time></trkpt><trkpt lat="43.00828915584972" lon="-2.1769764569038377"><ele>208.71428571428572</ele><time>2026-04-30T09:08:08Z</time></trkpt><trkpt lat="43.00835123738067" lon="-2.176956837304761"><ele>208.42857142857142</ele><time>2026-04-30T09:08:09Z</time></trkpt><trkpt lat="43.00842534329016" lon="-2.176928277321777"><ele>208.14285714285717</ele><time>2026-04-30T09:08:10Z</time></trkpt><trkpt lat="43.00849781728765" lon="-2.176909377458079"><ele>207.85714285714286</ele><time>2026-04-30T09:08:11Z</time></trkpt><trkpt lat="43.008571886632595" lon="-2.176885444480403"><ele>207.57142857142858</ele><time>2026-04-30T09:08:12Z</time></trkpt><trkpt lat="43.00864644697372" lon="-2.17686052463665"><ele>207.2857142857143</ele><time>2026-04-30T09:08:13Z</time></trkpt><trkpt lat="43.00872346971381" lon="-2.1768265144782286"><ele>207.0</ele><time>2026-04-30T09:08:14Z</time></trkpt><trkpt lat="43.00879597317188" lon="-2.1767893163697307"><ele>207.0</ele><time>2026-04-30T09:08:15Z</time></trkpt><trkpt lat="43.008868523771156" lon="-2.176740128550083"><ele>207.0</ele><time>2026-04-30T09:08:16Z</time></trkpt><trkpt lat="43.008940670366464" lon="-2.1766883264463073"><ele>207.0</ele><time>2026-04-30T09:08:17Z</time></trkpt><trkpt lat="43.00900807472215" lon="-2.1766248597491415"><ele>207.0</ele><time>2026-04-30T09:08:18Z</time></trkpt><trkpt lat="43.00907177501669" lon="-2.176560984769271"><ele>207.0</ele><time>2026-04-30T09:08:19Z</time></trkpt><trkpt lat="43.00913693891693" lon="-2.1764989791214906"><ele>207.0</ele><time>2026-04-30T09:08:20Z</time></trkpt><trkpt lat="43.00920134237404" lon="-2.176433288416819"><ele>207.33333333333334</ele><time>2026-04-30T09:08:21Z</time></trkpt><trkpt lat="43.00926933737248" lon="-2.176367775069834"><ele>207.66666666666669</ele><time>2026-04-30T09:08:22Z</time></trkpt><trkpt lat="43.0093335764989" lon="-2.176303044489693"><ele>208.0</ele><time>2026-04-30T09:08:23Z</time></trkpt><trkpt lat="43.009394091768435" lon="-2.1762305000949587"><ele>208.33333333333334</ele><time>2026-04-30T09:08:24Z</time></trkpt><trkpt lat="43.00946483845801" lon="-2.1761583570072465"><ele>208.66666666666669</ele><time>2026-04-30T09:08:25Z</time></trkpt><trkpt lat="43.00953696681109" lon="-2.176094951064556"><ele>209.0</ele><time>2026-04-30T09:08:26Z</time></trkpt><trkpt lat="43.009603183778054" lon="-2.1760219819728244"><ele>209.00000000000003</ele><time>2026-04-30T09:08:27Z</time></trkpt><trkpt lat="43.009672518146466" lon="-2.175952957168099"><ele>209.0</ele><time>2026-04-30T09:08:28Z</time></trkpt><trkpt lat="43.00974588980087" lon="-2.1758963912774387"><ele>209.0</ele><time>2026-04-30T09:08:29Z</time></trkpt><trkpt lat="43.00981746361579" lon="-2.1758459879547574"><ele>209.0</ele><time>2026-04-30T09:08:30Z</time></trkpt><trkpt lat="43.00989386922861" lon="-2.17579894863367"><ele>209.00000000000003</ele><time>2026-04-30T09:08:31.001Z</time></trkpt><trkpt lat="43.00997440217276" lon="-2.1757506983944093"><ele>209.0</ele><time>2026-04-30T09:08:32.001Z</time></trkpt><trkpt lat="43.0100501840579" lon="-2.175716574391953"><ele>209.66666666666669</ele><time>2026-04-30T09:08:33.001Z</time></trkpt><trkpt lat="43.010135459948835" lon="-2.1756800397915677"><ele>210.33333333333334</ele><time>2026-04-30T09:08:34.001Z</time></trkpt><trkpt lat="43.010214789518244" lon="-2.175644585171898"><ele>211.0</ele><time>2026-04-30T09:08:35.001Z</time></trkpt><trkpt lat="43.01029394042835" lon="-2.1756072946007117"><ele>211.66666666666669</ele><time>2026-04-30T09:08:36.001Z</time></trkpt><trkpt lat="43.01037470496621" lon="-2.175576358249929"><ele>212.33333333333334</ele><time>2026-04-30T09:08:37.001Z</time></trkpt><trkpt lat="43.010459396377264" lon="-2.175553627588206"><ele>213.0</ele><time>2026-04-30T09:08:38.001Z</time></trkpt><trkpt lat="43.01054584166554" lon="-2.175535032620588"><ele>213.0</ele><time>2026-04-30T09:08:39.001Z</time></trkpt><trkpt lat="43.010634694141274" lon="-2.1755145694944176"><ele>213.0</ele><time>2026-04-30T09:08:40.001Z</time></trkpt><trkpt lat="43.01072273351701" lon="-2.1754923266652684"><ele>213.0</ele><time>2026-04-30T09:08:41.001Z</time></trkpt><trkpt lat="43.01081070767306" lon="-2.1754709347598684"><ele>213.0</ele><time>2026-04-30T09:08:42.001Z</time></trkpt><trkpt lat="43.01089861720064" lon="-2.1754467755915523"><ele>213.0</ele><time>2026-04-30T09:08:43.001Z</time></trkpt><trkpt lat="43.01098593048899" lon="-2.1754265687156527"><ele>213.0</ele><time>2026-04-30T09:08:44.001Z</time></trkpt><trkpt lat="43.01107177341346" lon="-2.1754004003362435"><ele>211.60000000000002</ele><time>2026-04-30T09:08:45.001Z</time></trkpt><trkpt lat="43.01116654677335" lon="-2.1753746108644254"><ele>210.20000000000002</ele><time>2026-04-30T09:08:46.001Z</time></trkpt><trkpt lat="43.011261554239496" lon="-2.17535121989261"><ele>208.8</ele><time>2026-04-30T09:08:47.001Z</time></trkpt><trkpt lat="43.01135484008196" lon="-2.1753287856159687"><ele>207.4</ele><time>2026-04-30T09:08:48.001Z</time></trkpt><trkpt lat="43.01144775099242" lon="-2.1753058308070017"><ele>206.0</ele><time>2026-04-30T09:08:49.001Z</time></trkpt><trkpt lat="43.01154116885614" lon="-2.1752840590108784"><ele>206.0</ele><time>2026-04-30T09:08:50.001Z</time></trkpt><trkpt lat="43.011633147859094" lon="-2.175263900039083"><ele>206.0</ele><time>2026-04-30T09:08:51.001Z</time></trkpt><trkpt lat="43.011723838604276" lon="-2.175242786052991"><ele>206.0</ele><time>2026-04-30T09:08:52.001Z</time></trkpt><trkpt lat="43.01181464677712" lon="-2.1752251505319156"><ele>206.0</ele><time>2026-04-30T09:08:53.001Z</time></trkpt><trkpt lat="43.01190709046023" lon="-2.1752111229374274"><ele>206.0</ele><time>2026-04-30T09:08:54.001Z</time></trkpt><trkpt lat="43.011999688699795" lon="-2.175199842107787"><ele>207.0</ele><time>2026-04-30T09:08:55.001Z</time></trkpt><trkpt lat="43.01209685815712" lon="-2.1752029650321534"><ele>208.0</ele><time>2026-04-30T09:08:56.001Z</time></trkpt><trkpt lat="43.012191893771245" lon="-2.1752158188560875"><ele>209.0</ele><time>2026-04-30T09:08:57.001Z</time></trkpt><trkpt lat="43.01229030606225" lon="-2.175233421082231"><ele>210.0</ele><time>2026-04-30T09:08:58.001Z</time></trkpt><trkpt lat="43.012385588024785" lon="-2.175258625337714"><ele>211.0</ele><time>2026-04-30T09:08:59.001Z</time></trkpt><trkpt lat="43.01248188395376" lon="-2.1752920485111717"><ele>209.8</ele><time>2026-04-30T09:09:00.001Z</time></trkpt><trkpt lat="43.01257846082286" lon="-2.175330741090337"><ele>208.60000000000002</ele><time>2026-04-30T09:09:01.001Z</time></trkpt><trkpt lat="43.01267342739355" lon="-2.175372149285517"><ele>207.4</ele><time>2026-04-30T09:09:02.001Z</time></trkpt><trkpt lat="43.01276826587298" lon="-2.175415799568135"><ele>206.2</ele><time>2026-04-30T09:09:02.997Z</time></trkpt><trkpt lat="43.012863179226876" lon="-2.1754570219015403"><ele>205.0</ele><time>2026-04-30T09:09:03.997Z</time></trkpt><trkpt lat="43.01295879752323" lon="-2.1754984275533116"><ele>205.0</ele><time>2026-04-30T09:09:04.997Z</time></trkpt><trkpt lat="43.013052018853735" lon="-2.175544347153363"><ele>205.0</ele><time>2026-04-30T09:09:05.997Z</time></trkpt><trkpt lat="43.01314426122246" lon="-2.175601250428416"><ele>205.0</ele><time>2026-04-30T09:09:06.997Z</time></trkpt><trkpt lat="43.01323995735622" lon="-2.175651133061172"><ele>205.0</ele><time>2026-04-30T09:09:07.997Z</time></trkpt><trkpt lat="43.01333663539543" lon="-2.175698579447626"><ele>205.0</ele><time>2026-04-30T09:09:08.997Z</time></trkpt><trkpt lat="43.01343329221129" lon="-2.1757435857844496"><ele>202.4</ele><time>2026-04-30T09:09:09.997Z</time></trkpt><trkpt lat="43.0135251676043" lon="-2.1757934017985407"><ele>199.8</ele><time>2026-04-30T09:09:10.998Z</time></trkpt><trkpt lat="43.01362056854832" lon="-2.1758394497286413"><ele>197.2</ele><time>2026-04-30T09:09:11.998Z</time></trkpt><trkpt lat="43.01371351484871" lon="-2.1758878402799886"><ele>194.6</ele><time>2026-04-30T09:09:12.998Z</time></trkpt><trkpt lat="43.013805278891326" lon="-2.1759349521018834"><ele>192.0</ele><time>2026-04-30T09:09:13.998Z</time></trkpt><trkpt lat="43.013897133257686" lon="-2.175983995706448"><ele>192.0</ele><time>2026-04-30T09:09:14.998Z</time></trkpt><trkpt lat="43.013989187250736" lon="-2.1760332841284002"><ele>192.0</ele><time>2026-04-30T09:09:15.998Z</time></trkpt><trkpt lat="43.01408111448921" lon="-2.1760856411626737"><ele>192.0</ele><time>2026-04-30T09:09:16.998Z</time></trkpt><trkpt lat="43.01416965146984" lon="-2.176138915220748"><ele>192.0</ele><time>2026-04-30T09:09:17.998Z</time></trkpt><trkpt lat="43.01425776285985" lon="-2.176193198423879"><ele>192.0</ele><time>2026-04-30T09:09:18.998Z</time></trkpt><trkpt lat="43.01434756141503" lon="-2.1762446566694247"><ele>191.66666666666666</ele><time>2026-04-30T09:09:19.998Z</time></trkpt><trkpt lat="43.014431945389724" lon="-2.1762960332025285"><ele>191.33333333333334</ele><time>2026-04-30T09:09:20.998Z</time></trkpt><trkpt lat="43.014513274408365" lon="-2.1763409217155"><ele>191.0</ele><time>2026-04-30T09:09:21.998Z</time></trkpt><trkpt lat="43.014591296598326" lon="-2.176385995487446"><ele>190.66666666666669</ele><time>2026-04-30T09:09:22.998Z</time></trkpt><trkpt lat="43.014669860974315" lon="-2.1764247818041182"><ele>190.33333333333334</ele><time>2026-04-30T09:09:23.998Z</time></trkpt><trkpt lat="43.01474275850222" lon="-2.1764601831578285"><ele>190.0</ele><time>2026-04-30T09:09:24.999Z</time></trkpt><trkpt lat="43.014815445392486" lon="-2.1764953131577434"><ele>190.2</ele><time>2026-04-30T09:09:25.999Z</time></trkpt><trkpt lat="43.01487940683441" lon="-2.1765304812345656"><ele>190.4</ele><time>2026-04-30T09:09:26.999Z</time></trkpt><trkpt lat="43.01493779732618" lon="-2.176563291066788"><ele>190.60000000000002</ele><time>2026-04-30T09:09:27.999Z</time></trkpt><trkpt lat="43.015056404793945" lon="-2.1766075403389915"><ele>190.8</ele><time>2026-04-30T09:09:29.999Z</time></trkpt><trkpt lat="43.01516536522246" lon="-2.176563003232775"><ele>191.0</ele><time>2026-04-30T09:09:31.999Z</time></trkpt><trkpt lat="43.01524350251256" lon="-2.17648303593037"><ele>191.0</ele><time>2026-04-30T09:09:33.999Z</time></trkpt><trkpt lat="43.01529265447957" lon="-2.176422154511125"><ele>191.0</ele><time>2026-04-30T09:09:35.999Z</time></trkpt><trkpt lat="43.01537760414956" lon="-2.17642975633627"><ele>191.0</ele><time>2026-04-30T09:09:39.999Z</time></trkpt><trkpt lat="43.015513215550904" lon="-2.1764496890506257"><ele>191.0</ele><time>2026-04-30T09:12:29.001Z</time></trkpt><trkpt lat="43.01550125769563" lon="-2.1765391436959485"><ele>191.0</ele><time>2026-04-30T09:12:35.001Z</time></trkpt><trkpt lat="43.0154865305348" lon="-2.1766263478582175"><ele>191.0</ele><time>2026-04-30T09:12:41.001Z</time></trkpt><trkpt lat="43.01543415534022" lon="-2.176810195291144"><ele>191.0</ele><time>2026-04-30T09:12:59.002Z</time></trkpt><trkpt lat="43.01543828281129" lon="-2.1766237785623543"><ele>191.0</ele><time>2026-04-30T09:13:13.002Z</time></trkpt><trkpt lat="43.01538449237223" lon="-2.1767848730419086"><ele>191.0</ele><time>2026-04-30T09:13:25.001Z</time></trkpt><trkpt lat="43.015430542880004" lon="-2.176617158420795"><ele>191.0</ele><time>2026-04-30T09:14:03.001Z</time></trkpt><trkpt lat="43.01538449237223" lon="-2.1767848730419086"><ele>191.0</ele><time>2026-04-30T09:14:40.002Z</time></trkpt><trkpt lat="43.015430542880004" lon="-2.176617158420795"><ele>191.0</ele><time>2026-04-30T09:14:43.002Z</time></trkpt><trkpt lat="43.01538449237223" lon="-2.1767848730419086"><ele>191.0</ele><time>2026-04-30T09:15:10.002Z</time></trkpt><trkpt lat="43.015430542880004" lon="-2.176617158420795"><ele>191.0</ele><time>2026-04-30T09:15:13.002Z</time></trkpt><trkpt lat="43.01538449237223" lon="-2.1767848730419086"><ele>191.0</ele><time>2026-04-30T09:16:16.001Z</time></trkpt><trkpt lat="43.015430542880004" lon="-2.176617158420795"><ele>191.0</ele><time>2026-04-30T09:16:34.001Z</time></trkpt><trkpt lat="43.01538449237223" lon="-2.1767848730419086"><ele>191.0</ele><time>2026-04-30T09:16:59.002Z</time></trkpt><trkpt lat="43.015430542880004" lon="-2.176617158420795"><ele>191.0</ele><time>2026-04-30T09:17:07.002Z</time></trkpt><trkpt lat="43.01538449237223" lon="-2.1767848730419086"><ele>191.0</ele><time>2026-04-30T09:17:13.002Z</time></trkpt><trkpt lat="43.015430542880004" lon="-2.176617158420795"><ele>191.0</ele><time>2026-04-30T09:17:27.001Z</time></trkpt><trkpt lat="43.01538449237223" lon="-2.1767848730419086"><ele>191.0</ele><time>2026-04-30T09:18:09.001Z</time></trkpt><trkpt lat="43.0154101783543" lon="-2.176599743469225"><ele>191.0</ele><time>2026-04-30T09:18:23.001Z</time></trkpt><trkpt lat="43.015460428676505" lon="-2.176683380553861"><ele>191.0</ele><time>2026-04-30T09:30:38Z</time></trkpt><trkpt lat="43.01548097417868" lon="-2.176782974383419"><ele>191.0</ele><time>2026-04-30T09:30:41Z</time></trkpt><trkpt lat="43.015547066124455" lon="-2.1768702132562443"><ele>191.0</ele><time>2026-04-30T09:30:44Z</time></trkpt><trkpt lat="43.01561870485003" lon="-2.176920062808703"><ele>191.0</ele><time>2026-04-30T09:30:46Z</time></trkpt><trkpt lat="43.015714436901085" lon="-2.176969870921523"><ele>191.0</ele><time>2026-04-30T09:30:48.001Z</time></trkpt><trkpt lat="43.015830969078785" lon="-2.177030505820892"><ele>190.60000000000002</ele><time>2026-04-30T09:30:50.001Z</time></trkpt><trkpt lat="43.015954339779306" lon="-2.1770853783411477"><ele>190.2</ele><time>2026-04-30T09:30:52.001Z</time></trkpt><trkpt lat="43.01608756487645" lon="-2.177130424186699"><ele>189.8</ele><time>2026-04-30T09:30:54.001Z</time></trkpt><trkpt lat="43.0161559271603" lon="-2.177150266840355"><ele>189.39999999999998</ele><time>2026-04-30T09:30:55.001Z</time></trkpt><trkpt lat="43.01623160555101" lon="-2.1771712023480383"><ele>189.0</ele><time>2026-04-30T09:30:56.001Z</time></trkpt><trkpt lat="43.01630558578847" lon="-2.1771931045499655"><ele>189.0</ele><time>2026-04-30T09:30:57.001Z</time></trkpt><trkpt lat="43.01638255143766" lon="-2.177210391859408"><ele>189.0</ele><time>2026-04-30T09:30:58.001Z</time></trkpt><trkpt lat="43.01645772796902" lon="-2.177228912623861"><ele>189.0</ele><time>2026-04-30T09:30:59.001Z</time></trkpt><trkpt lat="43.01653496995524" lon="-2.177248428344041"><ele>189.0</ele><time>2026-04-30T09:31:00.001Z</time></trkpt><trkpt lat="43.01660717964304" lon="-2.17726652225694"><ele>189.0</ele><time>2026-04-30T09:31:01.001Z</time></trkpt><trkpt lat="43.01668396481044" lon="-2.177280154802496"><ele>189.0</ele><time>2026-04-30T09:31:02.001Z</time></trkpt><trkpt lat="43.01675337335271" lon="-2.177289214060078"><ele>190.71428571428572</ele><time>2026-04-30T09:31:03.001Z</time></trkpt><trkpt lat="43.01682227317859" lon="-2.17729302337289"><ele>192.42857142857144</ele><time>2026-04-30T09:31:04.001Z</time></trkpt><trkpt lat="43.01688765156963" lon="-2.1772894941564562"><ele>194.14285714285714</ele><time>2026-04-30T09:31:05.001Z</time></trkpt><trkpt lat="43.01695172486631" lon="-2.177285560057913"><ele>195.85714285714286</ele><time>2026-04-30T09:31:06.001Z</time></trkpt><trkpt lat="43.01701641473642" lon="-2.177265053571876"><ele>197.57142857142858</ele><time>2026-04-30T09:31:07.001Z</time></trkpt><trkpt lat="43.01708503576501" lon="-2.1772369103483653"><ele>199.28571428571428</ele><time>2026-04-30T09:31:08.001Z</time></trkpt><trkpt lat="43.01715141696368" lon="-2.177211743105641"><ele>201.0</ele><time>2026-04-30T09:31:09.001Z</time></trkpt><trkpt lat="43.017213443216214" lon="-2.1771833963518565"><ele>201.0</ele><time>2026-04-30T09:31:10.001Z</time></trkpt><trkpt lat="43.0172788996532" lon="-2.177152235797234"><ele>201.0</ele><time>2026-04-30T09:31:11.001Z</time></trkpt><trkpt lat="43.017346252200575" lon="-2.177120333394187"><ele>201.0</ele><time>2026-04-30T09:31:12.001Z</time></trkpt><trkpt lat="43.01741163529097" lon="-2.1770897385105803"><ele>201.0</ele><time>2026-04-30T09:31:13.001Z</time></trkpt><trkpt lat="43.01747894118862" lon="-2.1770570370312785"><ele>201.0</ele><time>2026-04-30T09:31:14.001Z</time></trkpt><trkpt lat="43.017545155968804" lon="-2.177022546115764"><ele>201.0</ele><time>2026-04-30T09:31:15.001Z</time></trkpt><trkpt lat="43.0176135069676" lon="-2.176985668958909"><ele>201.0</ele><time>2026-04-30T09:31:16.001Z</time></trkpt><trkpt lat="43.01768359586357" lon="-2.1769500492372753"><ele>201.5</ele><time>2026-04-30T09:31:17.001Z</time></trkpt><trkpt lat="43.01775103031993" lon="-2.176916136118871"><ele>202.0</ele><time>2026-04-30T09:31:18.001Z</time></trkpt><trkpt lat="43.01782231622368" lon="-2.176881226886164"><ele>202.5</ele><time>2026-04-30T09:31:19.001Z</time></trkpt><trkpt lat="43.017895406393514" lon="-2.176847243094694"><ele>203.0</ele><time>2026-04-30T09:31:20.001Z</time></trkpt><trkpt lat="43.01797474711445" lon="-2.1768144891587404"><ele>203.5</ele><time>2026-04-30T09:31:21.001Z</time></trkpt><trkpt lat="43.01805384073787" lon="-2.176785199542297"><ele>204.0</ele><time>2026-04-30T09:31:22.001Z</time></trkpt><trkpt lat="43.01813356330735" lon="-2.1767687655877377"><ele>204.0</ele><time>2026-04-30T09:31:23.001Z</time></trkpt><trkpt lat="43.01821511847825" lon="-2.1767552266593144"><ele>204.0</ele><time>2026-04-30T09:31:24.001Z</time></trkpt><trkpt lat="43.01829561283991" lon="-2.17675149964187"><ele>204.0</ele><time>2026-04-30T09:31:25.001Z</time></trkpt><trkpt lat="43.018373873387354" lon="-2.1767616844924156"><ele>204.0</ele><time>2026-04-30T09:31:26.001Z</time></trkpt><trkpt lat="43.018452361539204" lon="-2.1767751602322822"><ele>204.0</ele><time>2026-04-30T09:31:27.001Z</time></trkpt><trkpt lat="43.01852917652484" lon="-2.17679825328934"><ele>204.0</ele><time>2026-04-30T09:31:28.001Z</time></trkpt><trkpt lat="43.01860378987805" lon="-2.1768270659553313"><ele>201.83333333333334</ele><time>2026-04-30T09:31:29.001Z</time></trkpt><trkpt lat="43.01867588260109" lon="-2.1768633489773785"><ele>199.66666666666666</ele><time>2026-04-30T09:31:30.001Z</time></trkpt><trkpt lat="43.01875771613498" lon="-2.1768789940258237"><ele>197.5</ele><time>2026-04-30T09:31:31.001Z</time></trkpt><trkpt lat="43.01883784032277" lon="-2.1769159678827568"><ele>195.33333333333331</ele><time>2026-04-30T09:31:32.001Z</time></trkpt><trkpt lat="43.01892627926479" lon="-2.1769596947178895"><ele>193.16666666666666</ele><time>2026-04-30T09:31:33.001Z</time></trkpt><trkpt lat="43.01901014589205" lon="-2.17700261552523"><ele>191.0</ele><time>2026-04-30T09:31:34.001Z</time></trkpt><trkpt lat="43.01909751982311" lon="-2.1770459759928613"><ele>191.0</ele><time>2026-04-30T09:31:35.001Z</time></trkpt><trkpt lat="43.019175026188414" lon="-2.1771199109472588"><ele>191.0</ele><time>2026-04-30T09:31:36.001Z</time></trkpt><trkpt lat="43.01926762066073" lon="-2.177164580541063"><ele>191.0</ele><time>2026-04-30T09:31:37.001Z</time></trkpt><trkpt lat="43.01936044307527" lon="-2.177215465461146"><ele>191.0</ele><time>2026-04-30T09:31:38.001Z</time></trkpt><trkpt lat="43.01945182261275" lon="-2.1772805074064654"><ele>191.0</ele><time>2026-04-30T09:31:39.001Z</time></trkpt><trkpt lat="43.019543610942335" lon="-2.177353184087668"><ele>191.0</ele><time>2026-04-30T09:31:40.002Z</time></trkpt><trkpt lat="43.01963841593894" lon="-2.1774238880559182"><ele>191.0</ele><time>2026-04-30T09:31:41.002Z</time></trkpt><trkpt lat="43.019733714561724" lon="-2.177487814470993"><ele>191.0</ele><time>2026-04-30T09:31:42.002Z</time></trkpt><trkpt lat="43.01982962156275" lon="-2.177553421507081"><ele>191.0</ele><time>2026-04-30T09:31:43.002Z</time></trkpt><trkpt lat="43.019927420319725" lon="-2.1776146525669318"><ele>191.0</ele><time>2026-04-30T09:31:44.002Z</time></trkpt><trkpt lat="43.02002252511995" lon="-2.177678513701818"><ele>189.8</ele><time>2026-04-30T09:31:45.002Z</time></trkpt><trkpt lat="43.02011671484602" lon="-2.1777460112431144"><ele>188.60000000000002</ele><time>2026-04-30T09:31:46.002Z</time></trkpt><trkpt lat="43.02020924330734" lon="-2.1778165312524473"><ele>187.4</ele><time>2026-04-30T09:31:47.002Z</time></trkpt><trkpt lat="43.02030774312167" lon="-2.17788872515046"><ele>186.2</ele><time>2026-04-30T09:31:48.002Z</time></trkpt><trkpt lat="43.02039464330155" lon="-2.177958784822522"><ele>185.0</ele><time>2026-04-30T09:31:49.002Z</time></trkpt><trkpt lat="43.02048918566133" lon="-2.1780255879171424"><ele>185.0</ele><time>2026-04-30T09:31:50.002Z</time></trkpt><trkpt lat="43.02058469054599" lon="-2.178094342433297"><ele>185.0</ele><time>2026-04-30T09:31:51.002Z</time></trkpt><trkpt lat="43.02068064458384" lon="-2.1781629891684107"><ele>185.0</ele><time>2026-04-30T09:31:52.002Z</time></trkpt><trkpt lat="43.02077848461083" lon="-2.1782378250516543"><ele>185.0</ele><time>2026-04-30T09:31:53.002Z</time></trkpt><trkpt lat="43.020873411839" lon="-2.1783122941153223"><ele>185.0</ele><time>2026-04-30T09:31:54.002Z</time></trkpt><trkpt lat="43.020972193306044" lon="-2.1783828283693794"><ele>185.0</ele><time>2026-04-30T09:31:55.002Z</time></trkpt><trkpt lat="43.0210679821447" lon="-2.1784580374461"><ele>185.0</ele><time>2026-04-30T09:31:56.002Z</time></trkpt><trkpt lat="43.02116576358301" lon="-2.1785308740077496"><ele>185.0</ele><time>2026-04-30T09:31:57.002Z</time></trkpt><trkpt lat="43.021263142169175" lon="-2.1785990173537564"><ele>185.0</ele><time>2026-04-30T09:31:58.002Z</time></trkpt><trkpt lat="43.02135862410919" lon="-2.1786706115460777"><ele>185.0</ele><time>2026-04-30T09:31:59.002Z</time></trkpt><trkpt lat="43.02145615445697" lon="-2.1787410128682225"><ele>185.0</ele><time>2026-04-30T09:32:00.002Z</time></trkpt><trkpt lat="43.021550668958746" lon="-2.17881722430421"><ele>185.0</ele><time>2026-04-30T09:32:01.002Z</time></trkpt><trkpt lat="43.021646981230965" lon="-2.178886796379348"><ele>185.0</ele><time>2026-04-30T09:32:02.002Z</time></trkpt><trkpt lat="43.02174349692083" lon="-2.17895390730289"><ele>185.0</ele><time>2026-04-30T09:32:03.002Z</time></trkpt><trkpt lat="43.021841376864295" lon="-2.1790280313763635"><ele>185.0</ele><time>2026-04-30T09:32:04.002Z</time></trkpt><trkpt lat="43.021938629033855" lon="-2.179098915371227"><ele>186.6</ele><time>2026-04-30T09:32:05.002Z</time></trkpt><trkpt lat="43.022034803635236" lon="-2.179173632097748"><ele>188.2</ele><time>2026-04-30T09:32:06.002Z</time></trkpt><trkpt lat="43.02212826347791" lon="-2.1792551906487643"><ele>189.8</ele><time>2026-04-30T09:32:07.002Z</time></trkpt><trkpt lat="43.02222046420285" lon="-2.1793428733841944"><ele>191.4</ele><time>2026-04-30T09:32:08.002Z</time></trkpt><trkpt lat="43.02230822357851" lon="-2.1794300802427213"><ele>193.0</ele><time>2026-04-30T09:32:08.999Z</time></trkpt><trkpt lat="43.02239475014717" lon="-2.1795241106288357"><ele>193.0</ele><time>2026-04-30T09:32:09.999Z</time></trkpt><trkpt lat="43.02247831247586" lon="-2.1796137373429363"><ele>193.0</ele><time>2026-04-30T09:32:10.999Z</time></trkpt><trkpt lat="43.022560661136204" lon="-2.179720811157053"><ele>193.0</ele><time>2026-04-30T09:32:11.999Z</time></trkpt><trkpt lat="43.02263378447976" lon="-2.179821083679178"><ele>193.0</ele><time>2026-04-30T09:32:12.999Z</time></trkpt><trkpt lat="43.022711115070855" lon="-2.1799461440034533"><ele>193.0</ele><time>2026-04-30T09:32:13.999Z</time></trkpt><trkpt lat="43.02279616370421" lon="-2.180099811216185"><ele>193.2</ele><time>2026-04-30T09:32:14.999Z</time></trkpt><trkpt lat="43.02282964419768" lon="-2.1801848947701483"><ele>193.4</ele><time>2026-04-30T09:32:15.999Z</time></trkpt><trkpt lat="43.022861368995564" lon="-2.1802712499864896"><ele>193.6</ele><time>2026-04-30T09:32:16.999Z</time></trkpt><trkpt lat="43.022964839609216" lon="-2.1804261999215084"><ele>193.79999999999998</ele><time>2026-04-30T09:32:17.999Z</time></trkpt><trkpt lat="43.02301823742797" lon="-2.180547159415574"><ele>194.0</ele><time>2026-04-30T09:32:18.999Z</time></trkpt><trkpt lat="43.02305742716826" lon="-2.1806970723123933"><ele>191.25</ele><time>2026-04-30T09:32:19.999Z</time></trkpt><trkpt lat="43.023146307001774" lon="-2.1807305526683916"><ele>188.5</ele><time>2026-04-30T09:32:20.999Z</time></trkpt><trkpt lat="43.02327987959101" lon="-2.1807959784099076"><ele>185.75</ele><time>2026-04-30T09:32:21.999Z</time></trkpt><trkpt lat="43.023345186464816" lon="-2.1809389808341977"><ele>183.0</ele><time>2026-04-30T09:32:22.999Z</time></trkpt><trkpt lat="43.02344406238379" lon="-2.181024170676168"><ele>183.0</ele><time>2026-04-30T09:32:23.999Z</time></trkpt><trkpt lat="43.02355145961725" lon="-2.1810944488464554"><ele>183.0</ele><time>2026-04-30T09:32:24.999Z</time></trkpt><trkpt lat="43.02365279840859" lon="-2.18117300275526"><ele>183.0</ele><time>2026-04-30T09:32:25.999Z</time></trkpt><trkpt lat="43.023755149816665" lon="-2.1812488653182736"><ele>183.0</ele><time>2026-04-30T09:32:26.999Z</time></trkpt><trkpt lat="43.02384798215298" lon="-2.181328855651103"><ele>183.0</ele><time>2026-04-30T09:32:27.999Z</time></trkpt><trkpt lat="43.02395029998615" lon="-2.1813973001331597"><ele>183.0</ele><time>2026-04-30T09:32:28.999Z</time></trkpt><trkpt lat="43.02405313023554" lon="-2.1814628770969633"><ele>183.0</ele><time>2026-04-30T09:32:30Z</time></trkpt><trkpt lat="43.024159861194086" lon="-2.181518565741145"><ele>183.0</ele><time>2026-04-30T09:32:31Z</time></trkpt><trkpt lat="43.024266570447" lon="-2.1815747496352196"><ele>182.0</ele><time>2026-04-30T09:32:32Z</time></trkpt><trkpt lat="43.02437379855276" lon="-2.18162501041228"><ele>181.0</ele><time>2026-04-30T09:32:33Z</time></trkpt><trkpt lat="43.024481204144216" lon="-2.1816766943003523"><ele>180.0</ele><time>2026-04-30T09:32:34Z</time></trkpt><trkpt lat="43.02459081963429" lon="-2.181722773461312"><ele>179.0</ele><time>2026-04-30T09:32:35Z</time></trkpt><trkpt lat="43.024702165106724" lon="-2.1817698048696843"><ele>179.0</ele><time>2026-04-30T09:32:36Z</time></trkpt><trkpt lat="43.024811868451245" lon="-2.181815015548696"><ele>179.0</ele><time>2026-04-30T09:32:37Z</time></trkpt><trkpt lat="43.02492063278529" lon="-2.1818626344795606"><ele>179.0</ele><time>2026-04-30T09:32:38Z</time></trkpt><trkpt lat="43.025030157427594" lon="-2.1819059257938096"><ele>179.0</ele><time>2026-04-30T09:32:39Z</time></trkpt><trkpt lat="43.02514108090858" lon="-2.1819615237493264"><ele>178.0</ele><time>2026-04-30T09:32:40Z</time></trkpt><trkpt lat="43.02523714848829" lon="-2.1819966892379563"><ele>177.0</ele><time>2026-04-30T09:32:41Z</time></trkpt><trkpt lat="43.02531217022567" lon="-2.1820125571325537"><ele>176.0</ele><time>2026-04-30T09:32:42Z</time></trkpt><trkpt lat="43.02546828305108" lon="-2.182076165694448"><ele>175.0</ele><time>2026-04-30T09:32:43Z</time></trkpt><trkpt lat="43.02565246034687" lon="-2.1821672911231813"><ele>175.0</ele><time>2026-04-30T09:32:44Z</time></trkpt><trkpt lat="43.025819491732925" lon="-2.1822269237505942"><ele>175.0</ele><time>2026-04-30T09:32:45Z</time></trkpt><trkpt lat="43.02591617462391" lon="-2.182282360162902"><ele>175.0</ele><time>2026-04-30T09:32:46Z</time></trkpt><trkpt lat="43.02601050917888" lon="-2.1823194626345583"><ele>175.0</ele><time>2026-04-30T09:32:48Z</time></trkpt><trkpt lat="43.026127775288266" lon="-2.182344387060278"><ele>174.8</ele><time>2026-04-30T09:32:49Z</time></trkpt><trkpt lat="43.0262186444499" lon="-2.1824341381293046"><ele>174.6</ele><time>2026-04-30T09:32:50Z</time></trkpt><trkpt lat="43.02631609259286" lon="-2.182504780282438"><ele>174.39999999999998</ele><time>2026-04-30T09:32:51Z</time></trkpt><trkpt lat="43.026410005754634" lon="-2.182573028196026"><ele>174.2</ele><time>2026-04-30T09:32:52Z</time></trkpt><trkpt lat="43.02649813223646" lon="-2.182640246109347"><ele>174.0</ele><time>2026-04-30T09:32:53Z</time></trkpt><trkpt lat="43.02657496606446" lon="-2.1827053724213763"><ele>173.66666666666666</ele><time>2026-04-30T09:32:54Z</time></trkpt><trkpt lat="43.02664510912999" lon="-2.182768137355026"><ele>173.33333333333334</ele><time>2026-04-30T09:32:55Z</time></trkpt><trkpt lat="43.02670979370339" lon="-2.1828207044892247"><ele>173.0</ele><time>2026-04-30T09:32:56Z</time></trkpt><trkpt lat="43.0267746793074" lon="-2.1828565855079876"><ele>172.66666666666669</ele><time>2026-04-30T09:32:57Z</time></trkpt><trkpt lat="43.02689329004021" lon="-2.1828482911784692"><ele>172.33333333333334</ele><time>2026-04-30T09:32:59Z</time></trkpt><trkpt lat="43.02696488234119" lon="-2.1827874372850653"><ele>172.0</ele><time>2026-04-30T09:33:01Z</time></trkpt><trkpt lat="43.02721783855248" lon="-2.182902164264382"><ele>172.0</ele><time>2026-04-30T09:33:03.001Z</time></trkpt><trkpt lat="43.027307513841755" lon="-2.182909668527422"><ele>172.0</ele><time>2026-04-30T09:33:04Z</time></trkpt><trkpt lat="43.02739918145787" lon="-2.182918152019953"><ele>172.0</ele><time>2026-04-30T09:33:05.001Z</time></trkpt><trkpt lat="43.027491005829035" lon="-2.182920724934374"><ele>172.0</ele><time>2026-04-30T09:33:06.001Z</time></trkpt><trkpt lat="43.027585927662074" lon="-2.1829142253445784"><ele>172.0</ele><time>2026-04-30T09:33:07.001Z</time></trkpt><trkpt lat="43.02768176641782" lon="-2.182896009061396"><ele>171.39999999999998</ele><time>2026-04-30T09:33:08.001Z</time></trkpt><trkpt lat="43.02777819112934" lon="-2.1828640120905547"><ele>170.79999999999998</ele><time>2026-04-30T09:33:09.001Z</time></trkpt><trkpt lat="43.02787096142253" lon="-2.1828261332807664"><ele>170.2</ele><time>2026-04-30T09:33:10.001Z</time></trkpt><trkpt lat="43.0279630175577" lon="-2.182786723764896"><ele>169.6</ele><time>2026-04-30T09:33:11.001Z</time></trkpt><trkpt lat="43.02805465662107" lon="-2.1827417234464592"><ele>169.0</ele><time>2026-04-30T09:33:12.001Z</time></trkpt><trkpt lat="43.028146705212336" lon="-2.1827062962018027"><ele>169.0</ele><time>2026-04-30T09:33:13.001Z</time></trkpt><trkpt lat="43.02823425934128" lon="-2.18266709423522"><ele>169.0</ele><time>2026-04-30T09:33:14.001Z</time></trkpt><trkpt lat="43.02832690649707" lon="-2.1826298687953005"><ele>169.0</ele><time>2026-04-30T09:33:15.001Z</time></trkpt><trkpt lat="43.02841852504567" lon="-2.182593243088352"><ele>169.0</ele><time>2026-04-30T09:33:16.001Z</time></trkpt><trkpt lat="43.0285050149187" lon="-2.182549346474736"><ele>169.0</ele><time>2026-04-30T09:33:17.001Z</time></trkpt><trkpt lat="43.02859494091378" lon="-2.182505659172664"><ele>169.0</ele><time>2026-04-30T09:33:18.001Z</time></trkpt><trkpt lat="43.028686734526495" lon="-2.182460601081783"><ele>169.0</ele><time>2026-04-30T09:33:19.001Z</time></trkpt><trkpt lat="43.02877680006855" lon="-2.182413770143186"><ele>169.0</ele><time>2026-04-30T09:33:20.001Z</time></trkpt><trkpt lat="43.028867950340754" lon="-2.182373725526035"><ele>169.0</ele><time>2026-04-30T09:33:21.001Z</time></trkpt><trkpt lat="43.028957978370656" lon="-2.1823286007008744"><ele>169.0</ele><time>2026-04-30T09:33:22.001Z</time></trkpt><trkpt lat="43.0290515695579" lon="-2.182285727205296"><ele>169.0</ele><time>2026-04-30T09:33:23.001Z</time></trkpt><trkpt lat="43.02914610569443" lon="-2.1822457320284667"><ele>169.0</ele><time>2026-04-30T09:33:24.001Z</time></trkpt><trkpt lat="43.029238411696355" lon="-2.1822027480959862"><ele>169.0</ele><time>2026-04-30T09:33:25.001Z</time></trkpt><trkpt lat="43.0293312574275" lon="-2.1821526847476718"><ele>169.0</ele><time>2026-04-30T09:33:26.001Z</time></trkpt><trkpt lat="43.02942541862413" lon="-2.1821058410505167"><ele>169.0</ele><time>2026-04-30T09:33:27.001Z</time></trkpt><trkpt lat="43.029522826474874" lon="-2.182058130227598"><ele>169.0</ele><time>2026-04-30T09:33:28.001Z</time></trkpt><trkpt lat="43.029618587328144" lon="-2.1820142913381115"><ele>169.0</ele><time>2026-04-30T09:33:29.001Z</time></trkpt><trkpt lat="43.029710877285815" lon="-2.1819624226702357"><ele>169.0</ele><time>2026-04-30T09:33:30.001Z</time></trkpt><trkpt lat="43.02980579395463" lon="-2.181917120716976"><ele>169.0</ele><time>2026-04-30T09:33:31.001Z</time></trkpt><trkpt lat="43.029903100051584" lon="-2.1818761927553023"><ele>169.0</ele><time>2026-04-30T09:33:32.001Z</time></trkpt><trkpt lat="43.029995556251606" lon="-2.1818289066326764"><ele>170.0</ele><time>2026-04-30T09:33:33.001Z</time></trkpt><trkpt lat="43.03008743479606" lon="-2.181783601421769"><ele>171.0</ele><time>2026-04-30T09:33:34.001Z</time></trkpt><trkpt lat="43.030176501062876" lon="-2.181740819035276"><ele>172.0</ele><time>2026-04-30T09:33:35.001Z</time></trkpt><trkpt lat="43.03026389254157" lon="-2.1817073138420326"><ele>173.0</ele><time>2026-04-30T09:33:36.001Z</time></trkpt><trkpt lat="43.03035487704943" lon="-2.181686474832758"><ele>174.0</ele><time>2026-04-30T09:33:37.001Z</time></trkpt><trkpt lat="43.03044582862258" lon="-2.1816537563158427"><ele>174.0</ele><time>2026-04-30T09:33:38.001Z</time></trkpt><trkpt lat="43.030537101400675" lon="-2.181639202289612"><ele>174.0</ele><time>2026-04-30T09:33:39.001Z</time></trkpt><trkpt lat="43.03062469513741" lon="-2.1816258360308893"><ele>174.0</ele><time>2026-04-30T09:33:40.001Z</time></trkpt><trkpt lat="43.03071222022237" lon="-2.1816185971906346"><ele>174.0</ele><time>2026-04-30T09:33:41.001Z</time></trkpt><trkpt lat="43.03080111795925" lon="-2.1816195902704774"><ele>174.0</ele><time>2026-04-30T09:33:42.001Z</time></trkpt><trkpt lat="43.03089130314848" lon="-2.1816306552166327"><ele>174.0</ele><time>2026-04-30T09:33:43.001Z</time></trkpt><trkpt lat="43.0309821002476" lon="-2.181645955785971"><ele>174.39999999999998</ele><time>2026-04-30T09:33:44.001Z</time></trkpt><trkpt lat="43.031070389596685" lon="-2.181668658581663"><ele>174.8</ele><time>2026-04-30T09:33:45.001Z</time></trkpt><trkpt lat="43.031158391043846" lon="-2.181704031102961"><ele>175.2</ele><time>2026-04-30T09:33:46.001Z</time></trkpt><trkpt lat="43.03124925404988" lon="-2.181759387301386"><ele>175.60000000000002</ele><time>2026-04-30T09:33:47.001Z</time></trkpt><trkpt lat="43.0313310194202" lon="-2.1818172547855674"><ele>176.0</ele><time>2026-04-30T09:33:48.001Z</time></trkpt><trkpt lat="43.03143223706896" lon="-2.181846750350442"><ele>176.0</ele><time>2026-04-30T09:33:49.001Z</time></trkpt><trkpt lat="43.03152302051076" lon="-2.181900276503249"><ele>176.0</ele><time>2026-04-30T09:33:50.002Z</time></trkpt><trkpt lat="43.03161249519261" lon="-2.1819582738837506"><ele>176.0</ele><time>2026-04-30T09:33:51.002Z</time></trkpt><trkpt lat="43.03169923699304" lon="-2.182018842080156"><ele>176.0</ele><time>2026-04-30T09:33:52.002Z</time></trkpt><trkpt lat="43.03178704308287" lon="-2.1820776209671378"><ele>176.0</ele><time>2026-04-30T09:33:53.002Z</time></trkpt><trkpt lat="43.031878238720495" lon="-2.1821382494413406"><ele>175.60000000000002</ele><time>2026-04-30T09:33:54.002Z</time></trkpt><trkpt lat="43.03197127591481" lon="-2.1821989870781717"><ele>175.2</ele><time>2026-04-30T09:33:55.002Z</time></trkpt><trkpt lat="43.03206264730073" lon="-2.1822612491507436"><ele>174.8</ele><time>2026-04-30T09:33:56.002Z</time></trkpt><trkpt lat="43.032156454554254" lon="-2.182327791672981"><ele>174.39999999999998</ele><time>2026-04-30T09:33:57.002Z</time></trkpt><trkpt lat="43.03225104605238" lon="-2.1823937051038675"><ele>174.0</ele><time>2026-04-30T09:33:58.002Z</time></trkpt><trkpt lat="43.03235019474721" lon="-2.182446655197883"><ele>174.0</ele><time>2026-04-30T09:33:59.002Z</time></trkpt><trkpt lat="43.03244911752873" lon="-2.1824991835354024"><ele>174.0</ele><time>2026-04-30T09:34:00.002Z</time></trkpt><trkpt lat="43.032547903071155" lon="-2.182555973367606"><ele>174.0</ele><time>2026-04-30T09:34:01.002Z</time></trkpt><trkpt lat="43.03264514042375" lon="-2.182628006855265"><ele>174.0</ele><time>2026-04-30T09:34:02.002Z</time></trkpt><trkpt lat="43.0327442766397" lon="-2.182693249435855"><ele>174.0</ele><time>2026-04-30T09:34:03.002Z</time></trkpt><trkpt lat="43.03284672571078" lon="-2.1827500516019054"><ele>175.2</ele><time>2026-04-30T09:34:04.002Z</time></trkpt><trkpt lat="43.03294953302069" lon="-2.182814668162524"><ele>176.39999999999998</ele><time>2026-04-30T09:34:05.002Z</time></trkpt><trkpt lat="43.0330446875792" lon="-2.1828736663113038"><ele>177.6</ele><time>2026-04-30T09:34:06.002Z</time></trkpt><trkpt lat="43.03315202546022" lon="-2.1829358111367148"><ele>178.8</ele><time>2026-04-30T09:34:07.002Z</time></trkpt><trkpt lat="43.0332394967608" lon="-2.1830062311660194"><ele>180.0</ele><time>2026-04-30T09:34:08.002Z</time></trkpt><trkpt lat="43.0333495099023" lon="-2.1830716731751596"><ele>179.2</ele><time>2026-04-30T09:34:09.002Z</time></trkpt><trkpt lat="43.03344693437519" lon="-2.1831451662022805"><ele>178.4</ele><time>2026-04-30T09:34:10.002Z</time></trkpt><trkpt lat="43.03354703649006" lon="-2.1832042159428084"><ele>177.60000000000002</ele><time>2026-04-30T09:34:11.002Z</time></trkpt><trkpt lat="43.0336493596424" lon="-2.1832660336104404"><ele>176.8</ele><time>2026-04-30T09:34:12.002Z</time></trkpt><trkpt lat="43.03374836540321" lon="-2.1833361283708537"><ele>176.0</ele><time>2026-04-30T09:34:13.002Z</time></trkpt><trkpt lat="43.03384981017665" lon="-2.1833971464606563"><ele>176.0</ele><time>2026-04-30T09:34:14.002Z</time></trkpt><trkpt lat="43.03394979502699" lon="-2.1834633992724437"><ele>176.0</ele><time>2026-04-30T09:34:14.999Z</time></trkpt><trkpt lat="43.03405060095167" lon="-2.183533912892049"><ele>176.0</ele><time>2026-04-30T09:34:15.999Z</time></trkpt><trkpt lat="43.03414926628127" lon="-2.183607275130244"><ele>176.0</ele><time>2026-04-30T09:34:16.999Z</time></trkpt><trkpt lat="43.03425040539014" lon="-2.1836774938501633"><ele>177.60000000000002</ele><time>2026-04-30T09:34:17.999Z</time></trkpt><trkpt lat="43.034348298070164" lon="-2.183749537146012"><ele>179.2</ele><time>2026-04-30T09:34:18.999Z</time></trkpt><trkpt lat="43.03444598820407" lon="-2.1838264669699226"><ele>180.8</ele><time>2026-04-30T09:34:19.999Z</time></trkpt><trkpt lat="43.034543977211285" lon="-2.18390238259551"><ele>182.39999999999998</ele><time>2026-04-30T09:34:20.999Z</time></trkpt><trkpt lat="43.03464056571055" lon="-2.183978421332733"><ele>184.0</ele><time>2026-04-30T09:34:21.999Z</time></trkpt><trkpt lat="43.03473736094958" lon="-2.1840566698362887"><ele>182.79999999999998</ele><time>2026-04-30T09:34:22.999Z</time></trkpt><trkpt lat="43.03483416029276" lon="-2.184132932101918"><ele>181.6</ele><time>2026-04-30T09:34:23.999Z</time></trkpt><trkpt lat="43.034932647939165" lon="-2.184208462714125"><ele>180.4</ele><time>2026-04-30T09:34:24.999Z</time></trkpt><trkpt lat="43.03502951005155" lon="-2.184281571348418"><ele>179.2</ele><time>2026-04-30T09:34:25.999Z</time></trkpt><trkpt lat="43.03512776931183" lon="-2.1843521204135286"><ele>178.0</ele><time>2026-04-30T09:34:26.999Z</time></trkpt><trkpt lat="43.03522573272152" lon="-2.184420247549709"><ele>178.0</ele><time>2026-04-30T09:34:27.999Z</time></trkpt><trkpt lat="43.03532557634931" lon="-2.18449147568739"><ele>178.0</ele><time>2026-04-30T09:34:28.999Z</time></trkpt><trkpt lat="43.035412188163825" lon="-2.184557304762311"><ele>178.0</ele><time>2026-04-30T09:34:30Z</time></trkpt><trkpt lat="43.03551343173542" lon="-2.184628721324283"><ele>178.0</ele><time>2026-04-30T09:34:31Z</time></trkpt><trkpt lat="43.03560962915864" lon="-2.1846965071791806"><ele>178.0</ele><time>2026-04-30T09:34:32Z</time></trkpt><trkpt lat="43.035702505036085" lon="-2.1847659655914127"><ele>176.25</ele><time>2026-04-30T09:34:33Z</time></trkpt><trkpt lat="43.03580382400098" lon="-2.184825277120933"><ele>174.5</ele><time>2026-04-30T09:34:34Z</time></trkpt><trkpt lat="43.03591854147421" lon="-2.1848854697374938"><ele>172.75</ele><time>2026-04-30T09:34:35Z</time></trkpt><trkpt lat="43.03607007673598" lon="-2.1849202733524886"><ele>171.0</ele><time>2026-04-30T09:34:36Z</time></trkpt><trkpt lat="43.03619173138258" lon="-2.184975439957126"><ele>171.0</ele><time>2026-04-30T09:34:37Z</time></trkpt><trkpt lat="43.03620621726072" lon="-2.185089000690629"><ele>171.0</ele><time>2026-04-30T09:34:38Z</time></trkpt><trkpt lat="43.03629346588034" lon="-2.185157073829581"><ele>171.0</ele><time>2026-04-30T09:34:39Z</time></trkpt><trkpt lat="43.036389423465884" lon="-2.1852183028529213"><ele>171.0</ele><time>2026-04-30T09:34:40Z</time></trkpt><trkpt lat="43.036487575479406" lon="-2.185287595316681"><ele>171.0</ele><time>2026-04-30T09:34:41Z</time></trkpt><trkpt lat="43.03658226551284" lon="-2.185356125663282"><ele>170.4</ele><time>2026-04-30T09:34:42Z</time></trkpt><trkpt lat="43.03667973545172" lon="-2.185423795588071"><ele>169.8</ele><time>2026-04-30T09:34:43Z</time></trkpt><trkpt lat="43.036774010875995" lon="-2.1854907710035416"><ele>169.20000000000002</ele><time>2026-04-30T09:34:44Z</time></trkpt><trkpt lat="43.0368688887539" lon="-2.1855596326466693"><ele>168.60000000000002</ele><time>2026-04-30T09:34:45Z</time></trkpt><trkpt lat="43.036965713267165" lon="-2.185626256653623"><ele>168.0</ele><time>2026-04-30T09:34:46Z</time></trkpt><trkpt lat="43.037058156674775" lon="-2.1856854370153442"><ele>168.0</ele><time>2026-04-30T09:34:47Z</time></trkpt><trkpt lat="43.03713031697076" lon="-2.1857117249722284"><ele>168.0</ele><time>2026-04-30T09:34:48Z</time></trkpt><trkpt lat="43.03721709496266" lon="-2.185739519197262"><ele>168.0</ele><time>2026-04-30T09:34:49Z</time></trkpt><trkpt lat="43.03735512330561" lon="-2.185897181994856"><ele>168.0</ele><time>2026-04-30T09:34:50Z</time></trkpt><trkpt lat="43.037478834974415" lon="-2.186043747083264"><ele>169.4</ele><time>2026-04-30T09:34:51Z</time></trkpt><trkpt lat="43.037587569352056" lon="-2.1861553169768513"><ele>170.8</ele><time>2026-04-30T09:34:52Z</time></trkpt><trkpt lat="43.037672339116284" lon="-2.186222267190493"><ele>172.2</ele><time>2026-04-30T09:34:53Z</time></trkpt><trkpt lat="43.03773992197305" lon="-2.1861869631012256"><ele>173.6</ele><time>2026-04-30T09:34:54Z</time></trkpt><trkpt lat="43.037832309407435" lon="-2.1862428595782135"><ele>175.0</ele><time>2026-04-30T09:34:55Z</time></trkpt><trkpt lat="43.03792727812806" lon="-2.186309176089235"><ele>175.0</ele><time>2026-04-30T09:34:56Z</time></trkpt><trkpt lat="43.03802059694717" lon="-2.186386702095675"><ele>175.0</ele><time>2026-04-30T09:34:57Z</time></trkpt><trkpt lat="43.038118380928346" lon="-2.1864392477260615"><ele>175.0</ele><time>2026-04-30T09:34:58Z</time></trkpt><trkpt lat="43.03822120384426" lon="-2.1865028311059818"><ele>175.0</ele><time>2026-04-30T09:34:59Z</time></trkpt><trkpt lat="43.038320164904924" lon="-2.1865734444048117"><ele>175.0</ele><time>2026-04-30T09:35:00Z</time></trkpt><trkpt lat="43.03841363679589" lon="-2.186646230675314"><ele>173.6</ele><time>2026-04-30T09:35:01Z</time></trkpt><trkpt lat="43.038504288914325" lon="-2.1867076035862323"><ele>172.2</ele><time>2026-04-30T09:35:02Z</time></trkpt><trkpt lat="43.03859563751272" lon="-2.1867681242808144"><ele>170.8</ele><time>2026-04-30T09:35:03.001Z</time></trkpt><trkpt lat="43.038680788368424" lon="-2.1868258618199437"><ele>169.4</ele><time>2026-04-30T09:35:04.001Z</time></trkpt><trkpt lat="43.038761368138786" lon="-2.186880526661036"><ele>168.0</ele><time>2026-04-30T09:35:05.001Z</time></trkpt><trkpt lat="43.03883553740608" lon="-2.1869368164380463"><ele>168.0</ele><time>2026-04-30T09:35:06.001Z</time></trkpt><trkpt lat="43.03890201012653" lon="-2.186993995674242"><ele>168.0</ele><time>2026-04-30T09:35:07.001Z</time></trkpt><trkpt lat="43.038962982377576" lon="-2.18705072813393"><ele>168.0</ele><time>2026-04-30T09:35:08.001Z</time></trkpt><trkpt lat="43.039029985874095" lon="-2.187091610014895"><ele>168.0</ele><time>2026-04-30T09:35:09.001Z</time></trkpt><trkpt lat="43.03911139335675" lon="-2.187106863869374"><ele>168.0</ele><time>2026-04-30T09:35:10.001Z</time></trkpt><trkpt lat="43.03919862646616" lon="-2.1871212678850442"><ele>168.0</ele><time>2026-04-30T09:35:11.001Z</time></trkpt><trkpt lat="43.03927605311661" lon="-2.187168119573692"><ele>167.4</ele><time>2026-04-30T09:35:12.001Z</time></trkpt><trkpt lat="43.039354916267364" lon="-2.187248568863771"><ele>166.8</ele><time>2026-04-30T09:35:13.001Z</time></trkpt><trkpt lat="43.03943016217092" lon="-2.1873346406736"><ele>166.2</ele><time>2026-04-30T09:35:14.001Z</time></trkpt><trkpt lat="43.03952351043042" lon="-2.1873860719850757"><ele>165.6</ele><time>2026-04-30T09:35:15.001Z</time></trkpt><trkpt lat="43.039616470474684" lon="-2.1874170000464934"><ele>165.0</ele><time>2026-04-30T09:35:16.001Z</time></trkpt><trkpt lat="43.03971778932146" lon="-2.1874569326664677"><ele>165.0</ele><time>2026-04-30T09:35:17.001Z</time></trkpt><trkpt lat="43.03981837259024" lon="-2.1875133291936493"><ele>165.0</ele><time>2026-04-30T09:35:18.001Z</time></trkpt><trkpt lat="43.03991881449055" lon="-2.187571267196026"><ele>165.0</ele><time>2026-04-30T09:35:19.001Z</time></trkpt><trkpt lat="43.04002148282987" lon="-2.1876223163342265"><ele>165.0</ele><time>2026-04-30T09:35:20.001Z</time></trkpt><trkpt lat="43.04012143666889" lon="-2.187677686506126"><ele>165.0</ele><time>2026-04-30T09:35:21.001Z</time></trkpt><trkpt lat="43.04022326292263" lon="-2.187731038978167"><ele>166.0</ele><time>2026-04-30T09:35:22.001Z</time></trkpt><trkpt lat="43.04032883502722" lon="-2.1877821166777025"><ele>167.0</ele><time>2026-04-30T09:35:23.001Z</time></trkpt><trkpt lat="43.04043329784267" lon="-2.187825984522895"><ele>168.0</ele><time>2026-04-30T09:35:24.001Z</time></trkpt><trkpt lat="43.04053945246637" lon="-2.1878773438498116"><ele>169.0</ele><time>2026-04-30T09:35:25.001Z</time></trkpt><trkpt lat="43.04064404742928" lon="-2.187929121833994"><ele>170.0</ele><time>2026-04-30T09:35:26.001Z</time></trkpt><trkpt lat="43.04075035353228" lon="-2.1879782616133743"><ele>170.8</ele><time>2026-04-30T09:35:27.001Z</time></trkpt><trkpt lat="43.04085581488295" lon="-2.188027447346918"><ele>171.6</ele><time>2026-04-30T09:35:28.001Z</time></trkpt><trkpt lat="43.040958667892895" lon="-2.1880770458383036"><ele>172.39999999999998</ele><time>2026-04-30T09:35:29.001Z</time></trkpt><trkpt lat="43.041062867349986" lon="-2.1881241166547123"><ele>173.2</ele><time>2026-04-30T09:35:30.001Z</time></trkpt><trkpt lat="43.041168048983415" lon="-2.188176097212788"><ele>174.0</ele><time>2026-04-30T09:35:31.001Z</time></trkpt><trkpt lat="43.041267546065484" lon="-2.1882325107400664"><ele>172.2</ele><time>2026-04-30T09:35:32.001Z</time></trkpt><trkpt lat="43.04136749536551" lon="-2.1882980783730095"><ele>170.39999999999998</ele><time>2026-04-30T09:35:33.001Z</time></trkpt><trkpt lat="43.04146448145134" lon="-2.1883686408390997"><ele>168.6</ele><time>2026-04-30T09:35:34.001Z</time></trkpt><trkpt lat="43.04155899838327" lon="-2.1884486124494793"><ele>166.8</ele><time>2026-04-30T09:35:35.001Z</time></trkpt><trkpt lat="43.041647847312625" lon="-2.1885354278199998"><ele>165.0</ele><time>2026-04-30T09:35:36.001Z</time></trkpt><trkpt lat="43.0418209810905" lon="-2.188726549764302"><ele>165.0</ele><time>2026-04-30T09:35:38.001Z</time></trkpt><trkpt lat="43.04190687644713" lon="-2.188827195874227"><ele>165.0</ele><time>2026-04-30T09:35:39.001Z</time></trkpt><trkpt lat="43.04199243338807" lon="-2.188930149396035"><ele>165.0</ele><time>2026-04-30T09:35:40.001Z</time></trkpt><trkpt lat="43.04207734514663" lon="-2.1890348753990803"><ele>165.0</ele><time>2026-04-30T09:35:41.001Z</time></trkpt><trkpt lat="43.0421631288874" lon="-2.1891388608844884"><ele>163.75</ele><time>2026-04-30T09:35:42.001Z</time></trkpt><trkpt lat="43.042249469104995" lon="-2.189241434825961"><ele>162.5</ele><time>2026-04-30T09:35:43.001Z</time></trkpt><trkpt lat="43.04233388223714" lon="-2.189341659724988"><ele>161.25</ele><time>2026-04-30T09:35:44.001Z</time></trkpt><trkpt lat="43.042415347427145" lon="-2.1894384812974566"><ele>160.0</ele><time>2026-04-30T09:35:45.002Z</time></trkpt><trkpt lat="43.042501062038056" lon="-2.189549861990716"><ele>159.75</ele><time>2026-04-30T09:35:46.002Z</time></trkpt><trkpt lat="43.04258963444295" lon="-2.189641040713992"><ele>159.5</ele><time>2026-04-30T09:35:47.002Z</time></trkpt><trkpt lat="43.042668247779226" lon="-2.189769564379936"><ele>159.25</ele><time>2026-04-30T09:35:48.002Z</time></trkpt><trkpt lat="43.04277104527668" lon="-2.1898915946574142"><ele>159.0</ele><time>2026-04-30T09:35:49.002Z</time></trkpt><trkpt lat="43.04284273463396" lon="-2.18995380252779"><ele>158.2</ele><time>2026-04-30T09:35:50.002Z</time></trkpt><trkpt lat="43.042926962878866" lon="-2.190060437777889"><ele>157.4</ele><time>2026-04-30T09:35:51.002Z</time></trkpt><trkpt lat="43.04301124317291" lon="-2.1901411155607033"><ele>156.6</ele><time>2026-04-30T09:35:52.002Z</time></trkpt><trkpt lat="43.0430963826763" lon="-2.1902548867485563"><ele>155.8</ele><time>2026-04-30T09:35:53.002Z</time></trkpt><trkpt lat="43.0431799144997" lon="-2.190345353046059"><ele>155.0</ele><time>2026-04-30T09:35:54.002Z</time></trkpt><trkpt lat="43.043265562357824" lon="-2.1904363205667443"><ele>155.2</ele><time>2026-04-30T09:35:55.002Z</time></trkpt><trkpt lat="43.04334730621057" lon="-2.1905370094715657"><ele>155.4</ele><time>2026-04-30T09:35:56.002Z</time></trkpt><trkpt lat="43.043430578100754" lon="-2.1906324910051596"><ele>155.6</ele><time>2026-04-30T09:35:57.002Z</time></trkpt><trkpt lat="43.04351218841524" lon="-2.190715421081297"><ele>155.8</ele><time>2026-04-30T09:35:58.002Z</time></trkpt><trkpt lat="43.043590178710815" lon="-2.1907860210360877"><ele>156.0</ele><time>2026-04-30T09:35:59.002Z</time></trkpt><trkpt lat="43.04367713448501" lon="-2.1908381694914025"><ele>156.0</ele><time>2026-04-30T09:36:00.002Z</time></trkpt><trkpt lat="43.04378450552282" lon="-2.19084371490375"><ele>156.0</ele><time>2026-04-30T09:36:01.002Z</time></trkpt><trkpt lat="43.043889726033676" lon="-2.190818606960958"><ele>156.0</ele><time>2026-04-30T09:36:02.002Z</time></trkpt><trkpt lat="43.04399473471938" lon="-2.190733403603079"><ele>156.0</ele><time>2026-04-30T09:36:03.002Z</time></trkpt><trkpt lat="43.04407771191129" lon="-2.1908732726639593"><ele>155.83333333333334</ele><time>2026-04-30T09:36:04.002Z</time></trkpt><trkpt lat="43.044158405488666" lon="-2.190927540234675"><ele>155.66666666666666</ele><time>2026-04-30T09:36:05.002Z</time></trkpt><trkpt lat="43.04421635589569" lon="-2.191011508399672"><ele>155.5</ele><time>2026-04-30T09:36:06.002Z</time></trkpt><trkpt lat="43.04424554416336" lon="-2.1911158753237707"><ele>155.33333333333331</ele><time>2026-04-30T09:36:07.002Z</time></trkpt><trkpt lat="43.044243118311385" lon="-2.191223690844901"><ele>155.16666666666666</ele><time>2026-04-30T09:36:08.002Z</time></trkpt><trkpt lat="43.04421536134509" lon="-2.191326391565445"><ele>155.0</ele><time>2026-04-30T09:36:09.002Z</time></trkpt><trkpt lat="43.044192705194014" lon="-2.191423683845023"><ele>154.83333333333331</ele><time>2026-04-30T09:36:10.002Z</time></trkpt><trkpt lat="43.044211394941435" lon="-2.1915227527116397"><ele>154.66666666666666</ele><time>2026-04-30T09:36:11.002Z</time></trkpt><trkpt lat="43.0442633340099" lon="-2.191611791254561"><ele>154.5</ele><time>2026-04-30T09:36:12.002Z</time></trkpt><trkpt lat="43.04432502511209" lon="-2.191693113722914"><ele>154.33333333333334</ele><time>2026-04-30T09:36:13.002Z</time></trkpt><trkpt lat="43.044391192509934" lon="-2.1917724665367935"><ele>154.16666666666669</ele><time>2026-04-30T09:36:14.002Z</time></trkpt><trkpt lat="43.04445886783841" lon="-2.1918447256861446"><ele>154.0</ele><time>2026-04-30T09:36:15.002Z</time></trkpt><trkpt lat="43.04452087036605" lon="-2.191913175001504"><ele>154.0</ele><time>2026-04-30T09:36:16.002Z</time></trkpt><trkpt lat="43.044577771143686" lon="-2.191974541724267"><ele>154.0</ele><time>2026-04-30T09:36:17.002Z</time></trkpt><trkpt lat="43.04462983681378" lon="-2.1920330465404216"><ele>154.0</ele><time>2026-04-30T09:36:18.002Z</time></trkpt><trkpt lat="43.04468267744662" lon="-2.1920914218296286"><ele>154.0</ele><time>2026-04-30T09:36:19.002Z</time></trkpt><trkpt lat="43.04474235104282" lon="-2.192152878954114"><ele>154.0</ele><time>2026-04-30T09:36:20.002Z</time></trkpt><trkpt lat="43.04480148428021" lon="-2.1922167161230246"><ele>154.0</ele><time>2026-04-30T09:36:21Z</time></trkpt><trkpt lat="43.04485851382848" lon="-2.1922779180010323"><ele>154.0</ele><time>2026-04-30T09:36:22Z</time></trkpt><trkpt lat="43.0449519204364" lon="-2.1923796590156734"><ele>154.4</ele><time>2026-04-30T09:36:24Z</time></trkpt><trkpt lat="43.045027031856414" lon="-2.1924696459465083"><ele>154.8</ele><time>2026-04-30T09:36:26Z</time></trkpt><trkpt lat="43.04508435214147" lon="-2.1925556302125577"><ele>155.2</ele><time>2026-04-30T09:36:28Z</time></trkpt><trkpt lat="43.04513295385001" lon="-2.1926549798701065"><ele>155.6</ele><time>2026-04-30T09:36:30Z</time></trkpt><trkpt lat="43.04521295472153" lon="-2.192722475689716"><ele>156.0</ele><time>2026-04-30T09:36:32Z</time></trkpt><trkpt lat="43.045310908459456" lon="-2.1928099352160775"><ele>156.0</ele><time>2026-04-30T09:36:34Z</time></trkpt><trkpt lat="43.045391306088725" lon="-2.1929020897704348"><ele>156.0</ele><time>2026-04-30T09:36:36Z</time></trkpt><trkpt lat="43.045492901949366" lon="-2.1930093773006853"><ele>156.0</ele><time>2026-04-30T09:36:38Z</time></trkpt><trkpt lat="43.0455496798555" lon="-2.1930832361706507"><ele>156.0</ele><time>2026-04-30T09:36:39Z</time></trkpt><trkpt lat="43.04560698754077" lon="-2.193161962656584"><ele>156.0</ele><time>2026-04-30T09:36:40Z</time></trkpt><trkpt lat="43.04566907312135" lon="-2.1932489676563134"><ele>156.2</ele><time>2026-04-30T09:36:41Z</time></trkpt><trkpt lat="43.04573009476663" lon="-2.193342178280127"><ele>156.39999999999998</ele><time>2026-04-30T09:36:42Z</time></trkpt><trkpt lat="43.0457868927387" lon="-2.1934458987992835"><ele>156.6</ele><time>2026-04-30T09:36:43Z</time></trkpt><trkpt lat="43.04584390834431" lon="-2.193550810745655"><ele>156.79999999999998</ele><time>2026-04-30T09:36:44Z</time></trkpt><trkpt lat="43.0458851718498" lon="-2.19367005956645"><ele>157.0</ele><time>2026-04-30T09:36:45Z</time></trkpt><trkpt lat="43.04591845864855" lon="-2.1937841687779365"><ele>157.0</ele><time>2026-04-30T09:36:46Z</time></trkpt><trkpt lat="43.045963536618515" lon="-2.193864071394877"><ele>157.0</ele><time>2026-04-30T09:36:47Z</time></trkpt><trkpt lat="43.04598467868158" lon="-2.193961415447241"><ele>157.0</ele><time>2026-04-30T09:36:48Z</time></trkpt><trkpt lat="43.04601509030444" lon="-2.194054414189148"><ele>157.0</ele><time>2026-04-30T09:36:49Z</time></trkpt><trkpt lat="43.04610385835085" lon="-2.194286367942923"><ele>157.0</ele><time>2026-04-30T09:36:51Z</time></trkpt><trkpt lat="43.04612971924815" lon="-2.194380500694532"><ele>157.6</ele><time>2026-04-30T09:36:52Z</time></trkpt><trkpt lat="43.04620073264218" lon="-2.194569444161153"><ele>158.2</ele><time>2026-04-30T09:36:53Z</time></trkpt><trkpt lat="43.04622370540809" lon="-2.194695080764325"><ele>158.8</ele><time>2026-04-30T09:36:54Z</time></trkpt><trkpt lat="43.046267756070094" lon="-2.19483030097315"><ele>159.4</ele><time>2026-04-30T09:36:55.001Z</time></trkpt><trkpt lat="43.04631712732089" lon="-2.1949260937074904"><ele>160.0</ele><time>2026-04-30T09:36:56.001Z</time></trkpt><trkpt lat="43.04633078228983" lon="-2.195030715899575"><ele>160.0</ele><time>2026-04-30T09:36:57.001Z</time></trkpt><trkpt lat="43.04636987563884" lon="-2.19511868561447"><ele>160.0</ele><time>2026-04-30T09:36:58.001Z</time></trkpt><trkpt lat="43.04637053513145" lon="-2.1952132027706215"><ele>160.0</ele><time>2026-04-30T09:36:59.001Z</time></trkpt><trkpt lat="43.046362623445674" lon="-2.195375868741596"><ele>160.0</ele><time>2026-04-30T09:37:01.001Z</time></trkpt><trkpt lat="43.04641618982475" lon="-2.1954779307038064"><ele>160.0</ele><time>2026-04-30T09:37:03.001Z</time></trkpt><trkpt lat="43.046439499399035" lon="-2.195585140700537"><ele>160.0</ele><time>2026-04-30T09:37:06.001Z</time></trkpt><trkpt lat="43.04647904996667" lon="-2.1956857294836722"><ele>159.33333333333334</ele><time>2026-04-30T09:37:08.001Z</time></trkpt><trkpt lat="43.046484911205" lon="-2.1958325799120955"><ele>158.66666666666669</ele><time>2026-04-30T09:37:10.001Z</time></trkpt><trkpt lat="43.04646999273335" lon="-2.1959204935353216"><ele>158.0</ele><time>2026-04-30T09:37:11.001Z</time></trkpt><trkpt lat="43.046445451722356" lon="-2.196002246028374"><ele>157.33333333333334</ele><time>2026-04-30T09:37:12.001Z</time></trkpt><trkpt lat="43.04641445964886" lon="-2.1960943815767626"><ele>156.66666666666666</ele><time>2026-04-30T09:37:13.001Z</time></trkpt><trkpt lat="43.04637621131114" lon="-2.1961798634087555"><ele>156.0</ele><time>2026-04-30T09:37:14.001Z</time></trkpt><trkpt lat="43.04633775818451" lon="-2.196271405299381"><ele>156.0</ele><time>2026-04-30T09:37:15.001Z</time></trkpt><trkpt lat="43.04628553839756" lon="-2.196337805627176"><ele>156.0</ele><time>2026-04-30T09:37:16.001Z</time></trkpt><trkpt lat="43.04626029148465" lon="-2.19644693998328"><ele>156.0</ele><time>2026-04-30T09:37:17.001Z</time></trkpt><trkpt lat="43.046221697749544" lon="-2.1965337957173716"><ele>156.0</ele><time>2026-04-30T09:37:18.001Z</time></trkpt><trkpt lat="43.04618486962389" lon="-2.196621058559828"><ele>156.0</ele><time>2026-04-30T09:37:19.001Z</time></trkpt><trkpt lat="43.046156205716834" lon="-2.196716757900468"><ele>156.0</ele><time>2026-04-30T09:37:20.001Z</time></trkpt><trkpt lat="43.046135098110696" lon="-2.196803381944691"><ele>156.0</ele><time>2026-04-30T09:37:21.001Z</time></trkpt><trkpt lat="43.046113986591756" lon="-2.1968999003246816"><ele>156.14285714285714</ele><time>2026-04-30T09:37:22.001Z</time></trkpt><trkpt lat="43.046088694913436" lon="-2.1969920903642333"><ele>156.28571428571428</ele><time>2026-04-30T09:37:23.001Z</time></trkpt><trkpt lat="43.04607502351804" lon="-2.197083959099767"><ele>156.42857142857142</ele><time>2026-04-30T09:37:24.001Z</time></trkpt><trkpt lat="43.04607057374626" lon="-2.1971791544861126"><ele>156.57142857142856</ele><time>2026-04-30T09:37:25.001Z</time></trkpt><trkpt lat="43.04607161046975" lon="-2.1972713709647005"><ele>156.71428571428572</ele><time>2026-04-30T09:37:26.001Z</time></trkpt><trkpt lat="43.04607722300223" lon="-2.197361902931076"><ele>156.85714285714283</ele><time>2026-04-30T09:37:27.001Z</time></trkpt><trkpt lat="43.04607987553313" lon="-2.1974535573966425"><ele>157.0</ele><time>2026-04-30T09:37:28.001Z</time></trkpt><trkpt lat="43.04608246914798" lon="-2.1975403000108953"><ele>157.0</ele><time>2026-04-30T09:37:29.001Z</time></trkpt><trkpt lat="43.04607303874393" lon="-2.1976958728051947"><ele>157.0</ele><time>2026-04-30T09:37:31.001Z</time></trkpt><trkpt lat="43.046068486031196" lon="-2.197821299294102"><ele>157.0</ele><time>2026-04-30T09:37:33.001Z</time></trkpt><trkpt lat="43.04606932244808" lon="-2.197969354615663"><ele>157.0</ele><time>2026-04-30T09:37:35.001Z</time></trkpt><trkpt lat="43.046071414127795" lon="-2.1980562160090473"><ele>157.0</ele><time>2026-04-30T09:37:36.002Z</time></trkpt><trkpt lat="43.04607057139651" lon="-2.198143876863216"><ele>157.0</ele><time>2026-04-30T09:37:37.002Z</time></trkpt><trkpt lat="43.04606554002911" lon="-2.1982350422457433"><ele>157.0</ele><time>2026-04-30T09:37:38.002Z</time></trkpt><trkpt lat="43.04608061417031" lon="-2.198371355400521"><ele>157.0</ele><time>2026-04-30T09:37:40.002Z</time></trkpt><trkpt lat="43.04609113651838" lon="-2.198466705699477"><ele>157.0</ele><time>2026-04-30T09:37:42.002Z</time></trkpt><trkpt lat="43.04607497622635" lon="-2.1985721575231563"><ele>157.0</ele><time>2026-04-30T09:39:28.001Z</time></trkpt><trkpt lat="43.04608486403658" lon="-2.1986730396533054"><ele>157.0</ele><time>2026-04-30T09:39:30.001Z</time></trkpt><trkpt lat="43.04610617586226" lon="-2.1988132241703178"><ele>157.0</ele><time>2026-04-30T09:39:32.001Z</time></trkpt><trkpt lat="43.04613707902423" lon="-2.198976375827568"><ele>156.79999999999998</ele><time>2026-04-30T09:39:34.001Z</time></trkpt><trkpt lat="43.04614876841513" lon="-2.19906194661893"><ele>156.6</ele><time>2026-04-30T09:39:35.001Z</time></trkpt><trkpt lat="43.046159701516814" lon="-2.1992134859425083"><ele>156.39999999999998</ele><time>2026-04-30T09:39:37.001Z</time></trkpt><trkpt lat="43.04616138863434" lon="-2.199335980951332"><ele>156.2</ele><time>2026-04-30T09:39:39.001Z</time></trkpt><trkpt lat="43.04617449273103" lon="-2.1994676175686494"><ele>156.0</ele><time>2026-04-30T09:39:41.002Z</time></trkpt><trkpt lat="43.046184038112024" lon="-2.199591565317663"><ele>156.0</ele><time>2026-04-30T09:39:43.002Z</time></trkpt><trkpt lat="43.046188839852014" lon="-2.1997247197068877"><ele>156.0</ele><time>2026-04-30T09:39:45.002Z</time></trkpt><trkpt lat="43.04620130366447" lon="-2.199881015219765"><ele>156.0</ele><time>2026-04-30T09:39:47.002Z</time></trkpt><trkpt lat="43.046202630282686" lon="-2.1999721731855146"><ele>156.0</ele><time>2026-04-30T09:39:48.002Z</time></trkpt><trkpt lat="43.04620555914107" lon="-2.200066755404447"><ele>156.0</ele><time>2026-04-30T09:39:49.002Z</time></trkpt><trkpt lat="43.0462101742834" lon="-2.200169187441316"><ele>156.0</ele><time>2026-04-30T09:39:50.002Z</time></trkpt><trkpt lat="43.04622099553336" lon="-2.2002769774921167"><ele>156.0</ele><time>2026-04-30T09:39:51.002Z</time></trkpt><trkpt lat="43.046226652402474" lon="-2.200389344034602"><ele>156.0</ele><time>2026-04-30T09:39:52.002Z</time></trkpt><trkpt lat="43.04623028460294" lon="-2.2005029925856383"><ele>156.0</ele><time>2026-04-30T09:39:53.002Z</time></trkpt><trkpt lat="43.046233263785226" lon="-2.2006200233231663"><ele>156.0</ele><time>2026-04-30T09:39:54.002Z</time></trkpt><trkpt lat="43.04624025184442" lon="-2.2007395319033813"><ele>156.0</ele><time>2026-04-30T09:39:55.002Z</time></trkpt><trkpt lat="43.04624659074313" lon="-2.2008586861045694"><ele>156.0</ele><time>2026-04-30T09:39:56.002Z</time></trkpt><trkpt lat="43.046256033846305" lon="-2.200970573212214"><ele>156.0</ele><time>2026-04-30T09:39:57.002Z</time></trkpt><trkpt lat="43.046257420931106" lon="-2.2010874813606587"><ele>156.0</ele><time>2026-04-30T09:39:58.002Z</time></trkpt><trkpt lat="43.0462592575326" lon="-2.2012138261623773"><ele>156.0</ele><time>2026-04-30T09:39:59.002Z</time></trkpt><trkpt lat="43.046268532396375" lon="-2.2013376073122846"><ele>156.0</ele><time>2026-04-30T09:40:00.002Z</time></trkpt><trkpt lat="43.04628377255388" lon="-2.2014572559111265"><ele>156.0</ele><time>2026-04-30T09:40:01.002Z</time></trkpt><trkpt lat="43.04630905484425" lon="-2.201564816038454"><ele>156.0</ele><time>2026-04-30T09:40:02.002Z</time></trkpt><trkpt lat="43.04633523635611" lon="-2.2016614195901285"><ele>156.0</ele><time>2026-04-30T09:40:03.002Z</time></trkpt><trkpt lat="43.04635753930172" lon="-2.201752994820358"><ele>156.0</ele><time>2026-04-30T09:40:04.002Z</time></trkpt><trkpt lat="43.046371793006756" lon="-2.2018415908293107"><ele>156.0</ele><time>2026-04-30T09:40:05.002Z</time></trkpt><trkpt lat="43.0463931861821" lon="-2.2019815967831318"><ele>156.0</ele><time>2026-04-30T09:40:07.002Z</time></trkpt><trkpt lat="43.04640965180875" lon="-2.2020689542891785"><ele>156.0</ele><time>2026-04-30T09:40:09.002Z</time></trkpt><trkpt lat="43.046456664491686" lon="-2.2021650182018706"><ele>156.0</ele><time>2026-04-30T09:40:13.002Z</time></trkpt><trkpt lat="43.04652517788285" lon="-2.202185921056431"><ele>156.0</ele><time>2026-04-30T09:40:17.002Z</time></trkpt><trkpt lat="43.04661004501152" lon="-2.2021948234121527"><ele>156.0</ele><time>2026-04-30T09:40:20.002Z</time></trkpt><trkpt lat="43.04665359029282" lon="-2.2022834684930226"><ele>156.0</ele><time>2026-04-30T09:40:22.002Z</time></trkpt><trkpt lat="43.04666007890304" lon="-2.2024091241911865"><ele>156.0</ele><time>2026-04-30T09:40:24.002Z</time></trkpt><trkpt lat="43.0466614286036" lon="-2.202509441596219"><ele>156.0</ele><time>2026-04-30T09:40:26.003Z</time></trkpt><trkpt lat="43.04667255126321" lon="-2.2026218938310644"><ele>156.0</ele><time>2026-04-30T09:40:28.003Z</time></trkpt><trkpt lat="43.04668069262951" lon="-2.2027616334444127"><ele>157.6</ele><time>2026-04-30T09:40:30.003Z</time></trkpt><trkpt lat="43.0466883707009" lon="-2.202926055889747"><ele>159.2</ele><time>2026-04-30T09:40:32.003Z</time></trkpt><trkpt lat="43.046694936818064" lon="-2.203085044961807"><ele>160.79999999999998</ele><time>2026-04-30T09:40:34Z</time></trkpt><trkpt lat="43.04669635805897" lon="-2.203211465172357"><ele>162.39999999999998</ele><time>2026-04-30T09:40:36Z</time></trkpt><trkpt lat="43.04669538567848" lon="-2.2033448920847523"><ele>164.0</ele><time>2026-04-30T09:40:38Z</time></trkpt><trkpt lat="43.046690633429584" lon="-2.2034988591434796"><ele>164.0</ele><time>2026-04-30T09:40:40Z</time></trkpt><trkpt lat="43.04669633692685" lon="-2.2036652180298306"><ele>164.0</ele><time>2026-04-30T09:40:42Z</time></trkpt><trkpt lat="43.04670331376411" lon="-2.2038276582815204"><ele>164.0</ele><time>2026-04-30T09:40:44Z</time></trkpt><trkpt lat="43.04671065388143" lon="-2.2039766143519306"><ele>164.0</ele><time>2026-04-30T09:40:46Z</time></trkpt><trkpt lat="43.04669717320285" lon="-2.204095185341158"><ele>164.0</ele><time>2026-04-30T09:40:48Z</time></trkpt><trkpt lat="43.0467123180194" lon="-2.204231525747651"><ele>164.0</ele><time>2026-04-30T09:40:53Z</time></trkpt><trkpt lat="43.046721705511146" lon="-2.2043470804194643"><ele>164.0</ele><time>2026-04-30T09:40:55Z</time></trkpt><trkpt lat="43.04672358945821" lon="-2.204475705628386"><ele>164.0</ele><time>2026-04-30T09:40:57Z</time></trkpt><trkpt lat="43.04672722825791" lon="-2.2045821273039006"><ele>164.0</ele><time>2026-04-30T09:40:59Z</time></trkpt><trkpt lat="43.04672688427616" lon="-2.2046809619396117"><ele>164.0</ele><time>2026-04-30T09:41:02.001Z</time></trkpt><trkpt lat="43.04672287294522" lon="-2.204784140608169"><ele>164.0</ele><time>2026-04-30T09:41:05.001Z</time></trkpt><trkpt lat="43.04674212036668" lon="-2.2048817852139964"><ele>163.2</ele><time>2026-04-30T09:41:07.001Z</time></trkpt><trkpt lat="43.04676842219538" lon="-2.204989772790741"><ele>162.39999999999998</ele><time>2026-04-30T09:41:09.001Z</time></trkpt><trkpt lat="43.0468098600436" lon="-2.2050776459367527"><ele>161.6</ele><time>2026-04-30T09:41:11.001Z</time></trkpt><trkpt lat="43.04682111832907" lon="-2.20523997560379"><ele>160.8</ele><time>2026-04-30T09:41:13.001Z</time></trkpt><trkpt lat="43.04684960850839" lon="-2.205384381232212"><ele>160.0</ele><time>2026-04-30T09:41:15.001Z</time></trkpt><trkpt lat="43.04686637832857" lon="-2.2054972384515295"><ele>160.0</ele><time>2026-04-30T09:41:17.001Z</time></trkpt><trkpt lat="43.0468851399389" lon="-2.2056051756006183"><ele>160.0</ele><time>2026-04-30T09:41:19.001Z</time></trkpt><trkpt lat="43.04688461889636" lon="-2.205722824271481"><ele>160.0</ele><time>2026-04-30T09:41:21.001Z</time></trkpt><trkpt lat="43.04691954222352" lon="-2.2058562860170903"><ele>160.0</ele><time>2026-04-30T09:41:23.001Z</time></trkpt><trkpt lat="43.046938803290516" lon="-2.2060168039690096"><ele>160.0</ele><time>2026-04-30T09:41:25.001Z</time></trkpt><trkpt lat="43.04695248934895" lon="-2.206102794987443"><ele>159.83333333333334</ele><time>2026-04-30T09:41:26.001Z</time></trkpt><trkpt lat="43.04696567066989" lon="-2.2061961204690435"><ele>159.66666666666669</ele><time>2026-04-30T09:41:27.001Z</time></trkpt><trkpt lat="43.046977226023394" lon="-2.206293519407003"><ele>159.5</ele><time>2026-04-30T09:41:28.001Z</time></trkpt><trkpt lat="43.04698915685503" lon="-2.2063898027664264"><ele>159.33333333333334</ele><time>2026-04-30T09:41:29.001Z</time></trkpt><trkpt lat="43.047001271471494" lon="-2.206475007987895"><ele>159.16666666666666</ele><time>2026-04-30T09:41:30.001Z</time></trkpt><trkpt lat="43.04702385497914" lon="-2.206621618723447"><ele>159.0</ele><time>2026-04-30T09:41:32.001Z</time></trkpt><trkpt lat="43.04702958470251" lon="-2.2067556506542623"><ele>159.2</ele><time>2026-04-30T09:41:34.001Z</time></trkpt><trkpt lat="43.047043685903354" lon="-2.2068541623095563"><ele>159.4</ele><time>2026-04-30T09:41:36.001Z</time></trkpt><trkpt lat="43.047170552552075" lon="-2.206832100971568"><ele>159.6</ele><time>2026-04-30T09:41:37.001Z</time></trkpt><trkpt lat="43.04728471232202" lon="-2.206792615361261"><ele>159.8</ele><time>2026-04-30T09:41:39.001Z</time></trkpt><trkpt lat="43.04740386330161" lon="-2.2067630181793696"><ele>160.0</ele><time>2026-04-30T09:41:41.001Z</time></trkpt><trkpt lat="43.047517079478894" lon="-2.2067203276899243"><ele>160.0</ele><time>2026-04-30T09:41:43.001Z</time></trkpt><trkpt lat="43.04761114371995" lon="-2.206636123807943"><ele>160.0</ele><time>2026-04-30T09:41:45.001Z</time></trkpt><trkpt lat="43.04765224013228" lon="-2.206546271989428"><ele>160.0</ele><time>2026-04-30T09:41:47.001Z</time></trkpt><trkpt lat="43.04767054673569" lon="-2.2064085886644125"><ele>160.0</ele><time>2026-04-30T09:41:50.002Z</time></trkpt><trkpt lat="43.04764823305716" lon="-2.2062796101279996"><ele>160.0</ele><time>2026-04-30T09:41:52.002Z</time></trkpt><trkpt lat="43.0476402814578" lon="-2.2061599376168424"><ele>160.0</ele><time>2026-04-30T09:41:54.002Z</time></trkpt><trkpt lat="43.04763214327949" lon="-2.2060573353367925"><ele>160.0</ele><time>2026-04-30T09:41:56.002Z</time></trkpt><trkpt lat="43.04763640261793" lon="-2.2061991024882106"><ele>160.0</ele><time>2026-04-30T09:42:05.002Z</time></trkpt><trkpt lat="43.04765635269168" lon="-2.2063453798293486"><ele>160.0</ele><time>2026-04-30T09:42:07.002Z</time></trkpt><trkpt lat="43.04767460819333" lon="-2.2064792322760827"><ele>160.0</ele><time>2026-04-30T09:42:09.002Z</time></trkpt><trkpt lat="43.04768799121655" lon="-2.206577358864173"><ele>160.0</ele><time>2026-04-30T09:42:12.002Z</time></trkpt><trkpt lat="43.04814493081003" lon="-2.2065817343762144"><ele>160.0</ele><time>2026-04-30T09:42:33.002Z</time></trkpt><trkpt lat="43.04826569355305" lon="-2.2065553168820453"><ele>160.0</ele><time>2026-04-30T09:42:35.003Z</time></trkpt><trkpt lat="43.04838567074806" lon="-2.2065139446854274"><ele>160.0</ele><time>2026-04-30T09:42:37.003Z</time></trkpt><trkpt lat="43.04849960664883" lon="-2.206477858091377"><ele>160.0</ele><time>2026-04-30T09:42:39Z</time></trkpt><trkpt lat="43.048583113991725" lon="-2.206438980815118"><ele>160.5</ele><time>2026-04-30T09:42:41Z</time></trkpt><trkpt lat="43.04863266670145" lon="-2.2065537128332235"><ele>161.0</ele><time>2026-04-30T09:42:43Z</time></trkpt><trkpt lat="43.048664233838174" lon="-2.2067191328186873"><ele>161.5</ele><time>2026-04-30T09:42:45Z</time></trkpt><trkpt lat="43.04867508157808" lon="-2.2068147054830374"><ele>162.0</ele><time>2026-04-30T09:42:46Z</time></trkpt><trkpt lat="43.04869043034235" lon="-2.20691284926885"><ele>162.5</ele><time>2026-04-30T09:42:47Z</time></trkpt><trkpt lat="43.04870564611632" lon="-2.207016909941637"><ele>163.0</ele><time>2026-04-30T09:42:48Z</time></trkpt><trkpt lat="43.048718362820075" lon="-2.2071208743283206"><ele>163.0</ele><time>2026-04-30T09:42:49Z</time></trkpt><trkpt lat="43.04872451822214" lon="-2.207225506592497"><ele>163.0</ele><time>2026-04-30T09:42:50Z</time></trkpt><trkpt lat="43.04873391232596" lon="-2.2073232859638465"><ele>163.0</ele><time>2026-04-30T09:42:51Z</time></trkpt><trkpt lat="43.04874363503616" lon="-2.2074207440524645"><ele>163.0</ele><time>2026-04-30T09:42:52Z</time></trkpt><trkpt lat="43.04876558245141" lon="-2.2075168875116784"><ele>163.0</ele><time>2026-04-30T09:42:53Z</time></trkpt><trkpt lat="43.048788016035374" lon="-2.207616933831658"><ele>163.0</ele><time>2026-04-30T09:42:54Z</time></trkpt><trkpt lat="43.048803429494384" lon="-2.2077144953764303"><ele>163.0</ele><time>2026-04-30T09:42:55Z</time></trkpt><trkpt lat="43.04881683183682" lon="-2.207803070998851"><ele>162.66666666666669</ele><time>2026-04-30T09:42:56Z</time></trkpt><trkpt lat="43.048825442182064" lon="-2.207971403140259"><ele>162.33333333333334</ele><time>2026-04-30T09:42:58Z</time></trkpt><trkpt lat="43.04881987592939" lon="-2.2080610031713013"><ele>162.0</ele><time>2026-04-30T09:42:59Z</time></trkpt><trkpt lat="43.048804784284194" lon="-2.2081524146856415"><ele>161.66666666666666</ele><time>2026-04-30T09:43:00Z</time></trkpt><trkpt lat="43.048792433996965" lon="-2.208247529505311"><ele>161.33333333333331</ele><time>2026-04-30T09:43:01Z</time></trkpt><trkpt lat="43.04877728843704" lon="-2.2083352007458523"><ele>161.0</ele><time>2026-04-30T09:43:02Z</time></trkpt><trkpt lat="43.04874813143211" lon="-2.2084837518312823"><ele>161.0</ele><time>2026-04-30T09:43:04Z</time></trkpt><trkpt lat="43.048747404175835" lon="-2.208622961054154"><ele>161.0</ele><time>2026-04-30T09:43:06Z</time></trkpt><trkpt lat="43.04872678146696" lon="-2.2087834060553284"><ele>161.0</ele><time>2026-04-30T09:43:08Z</time></trkpt><trkpt lat="43.04871463997499" lon="-2.208872507565762"><ele>161.0</ele><time>2026-04-30T09:43:09Z</time></trkpt><trkpt lat="43.04870015582343" lon="-2.2089656721127695"><ele>161.0</ele><time>2026-04-30T09:43:10Z</time></trkpt><trkpt lat="43.04868735601655" lon="-2.2090615792815087"><ele>161.0</ele><time>2026-04-30T09:43:11Z</time></trkpt><trkpt lat="43.04867612338376" lon="-2.20915683334215"><ele>161.16666666666666</ele><time>2026-04-30T09:43:12Z</time></trkpt><trkpt lat="43.04866008608211" lon="-2.2092513311697557"><ele>161.33333333333331</ele><time>2026-04-30T09:43:13Z</time></trkpt><trkpt lat="43.04864009034952" lon="-2.209344261677956"><ele>161.5</ele><time>2026-04-30T09:43:14Z</time></trkpt><trkpt lat="43.04862106528979" lon="-2.2095343207780784"><ele>161.66666666666666</ele><time>2026-04-30T09:43:16Z</time></trkpt><trkpt lat="43.04861060307865" lon="-2.209628518105053"><ele>161.83333333333334</ele><time>2026-04-30T09:43:17Z</time></trkpt><trkpt lat="43.04859579368214" lon="-2.2097236584619706"><ele>162.0</ele><time>2026-04-30T09:43:18Z</time></trkpt><trkpt lat="43.048581062074746" lon="-2.209825048786767"><ele>162.16666666666666</ele><time>2026-04-30T09:43:19Z</time></trkpt><trkpt lat="43.04856740982352" lon="-2.209925875449624"><ele>162.33333333333334</ele><time>2026-04-30T09:43:20Z</time></trkpt><trkpt lat="43.04855223011912" lon="-2.210024041711089"><ele>162.5</ele><time>2026-04-30T09:43:21.001Z</time></trkpt><trkpt lat="43.04854209284048" lon="-2.210114614733164"><ele>162.66666666666669</ele><time>2026-04-30T09:43:22.001Z</time></trkpt><trkpt lat="43.04852606518614" lon="-2.2102739593195593"><ele>162.83333333333334</ele><time>2026-04-30T09:43:24.001Z</time></trkpt><trkpt lat="43.04851175430365" lon="-2.2104052709535917"><ele>163.0</ele><time>2026-04-30T09:43:26.001Z</time></trkpt><trkpt lat="43.04848796800505" lon="-2.2105590594308118"><ele>163.0</ele><time>2026-04-30T09:43:28.001Z</time></trkpt><trkpt lat="43.04847275184957" lon="-2.210649392798866"><ele>163.0</ele><time>2026-04-30T09:43:29.001Z</time></trkpt><trkpt lat="43.048454456941684" lon="-2.210742040165224"><ele>163.0</ele><time>2026-04-30T09:43:30.001Z</time></trkpt><trkpt lat="43.04841494419157" lon="-2.210828346161262"><ele>163.0</ele><time>2026-04-30T09:43:31.001Z</time></trkpt><trkpt lat="43.048379566602556" lon="-2.2109234283183543"><ele>163.0</ele><time>2026-04-30T09:43:32.001Z</time></trkpt><trkpt lat="43.048345797647485" lon="-2.211015193947815"><ele>163.0</ele><time>2026-04-30T09:43:33.001Z</time></trkpt><trkpt lat="43.048311345342846" lon="-2.211104440437625"><ele>163.0</ele><time>2026-04-30T09:43:34.001Z</time></trkpt><trkpt lat="43.04827963164731" lon="-2.211186974933504"><ele>162.85714285714286</ele><time>2026-04-30T09:43:35.001Z</time></trkpt><trkpt lat="43.04824885877455" lon="-2.211267060951841"><ele>162.7142857142857</ele><time>2026-04-30T09:43:36.001Z</time></trkpt><trkpt lat="43.048219079124834" lon="-2.2113445621227847"><ele>162.57142857142856</ele><time>2026-04-30T09:43:37.001Z</time></trkpt><trkpt lat="43.04816409910777" lon="-2.2114876469379294"><ele>162.42857142857144</ele><time>2026-04-30T09:43:39.001Z</time></trkpt><trkpt lat="43.048134693163085" lon="-2.2115641755409454"><ele>162.28571428571428</ele><time>2026-04-30T09:43:40.001Z</time></trkpt><trkpt lat="43.04810425708735" lon="-2.211645502498513"><ele>162.14285714285714</ele><time>2026-04-30T09:43:41.001Z</time></trkpt><trkpt lat="43.048074342459834" lon="-2.2117247902233412"><ele>162.0</ele><time>2026-04-30T09:43:42.001Z</time></trkpt><trkpt lat="43.04805556108963" lon="-2.2118181939482806"><ele>162.57142857142858</ele><time>2026-04-30T09:43:43.001Z</time></trkpt><trkpt lat="43.048024211842964" lon="-2.2119054780904057"><ele>163.14285714285714</ele><time>2026-04-30T09:43:44.001Z</time></trkpt><trkpt lat="43.0479892190153" lon="-2.2119918243066516"><ele>163.71428571428572</ele><time>2026-04-30T09:43:45.001Z</time></trkpt><trkpt lat="43.047954859956704" lon="-2.2120759464221718"><ele>164.28571428571428</ele><time>2026-04-30T09:43:46.001Z</time></trkpt><trkpt lat="43.047922709249306" lon="-2.2121674610104383"><ele>164.85714285714286</ele><time>2026-04-30T09:43:47.001Z</time></trkpt><trkpt lat="43.047887785075105" lon="-2.2122568035084744"><ele>165.42857142857142</ele><time>2026-04-30T09:43:48.001Z</time></trkpt><trkpt lat="43.047851832619166" lon="-2.212348772324441"><ele>166.0</ele><time>2026-04-30T09:43:49.001Z</time></trkpt><trkpt lat="43.04781133382087" lon="-2.2124409859332768"><ele>166.0</ele><time>2026-04-30T09:43:50.001Z</time></trkpt><trkpt lat="43.047775877038454" lon="-2.212529794291732"><ele>166.0</ele><time>2026-04-30T09:43:51.001Z</time></trkpt><trkpt lat="43.0477386255905" lon="-2.212621281972119"><ele>166.0</ele><time>2026-04-30T09:43:52.001Z</time></trkpt><trkpt lat="43.047702743149316" lon="-2.212713441780216"><ele>166.0</ele><time>2026-04-30T09:43:53.001Z</time></trkpt><trkpt lat="43.047665395478624" lon="-2.2128036446303003"><ele>166.0</ele><time>2026-04-30T09:43:54.001Z</time></trkpt><trkpt lat="43.04763124905878" lon="-2.21289155198315"><ele>166.0</ele><time>2026-04-30T09:43:55.001Z</time></trkpt><trkpt lat="43.047596715550526" lon="-2.2129745313513145"><ele>166.0</ele><time>2026-04-30T09:43:56.001Z</time></trkpt><trkpt lat="43.04753654167592" lon="-2.2131222215626516"><ele>166.0</ele><time>2026-04-30T09:43:58.001Z</time></trkpt><trkpt lat="43.04747859159249" lon="-2.2132676142187564"><ele>166.0</ele><time>2026-04-30T09:44:00.001Z</time></trkpt><trkpt lat="43.047438274316605" lon="-2.2133360115858722"><ele>166.0</ele><time>2026-04-30T09:44:01.001Z</time></trkpt><trkpt lat="43.04739002929644" lon="-2.2134041437928227"><ele>166.0</ele><time>2026-04-30T09:44:02.001Z</time></trkpt><trkpt lat="43.047341376748435" lon="-2.2134748248153224"><ele>166.0</ele><time>2026-04-30T09:44:03.001Z</time></trkpt><trkpt lat="43.04728825301426" lon="-2.213540729678649"><ele>166.0</ele><time>2026-04-30T09:44:04.001Z</time></trkpt><trkpt lat="43.04723551119107" lon="-2.213601774203454"><ele>166.0</ele><time>2026-04-30T09:44:05.001Z</time></trkpt><trkpt lat="43.04718569641397" lon="-2.213657917739594"><ele>166.0</ele><time>2026-04-30T09:44:06.002Z</time></trkpt><trkpt lat="43.04709340957762" lon="-2.213763125572413"><ele>166.0</ele><time>2026-04-30T09:44:08.002Z</time></trkpt><trkpt lat="43.047016793706575" lon="-2.213854830204037"><ele>166.0</ele><time>2026-04-30T09:44:10.002Z</time></trkpt><trkpt lat="43.046942781018146" lon="-2.2139278685457437"><ele>166.0</ele><time>2026-04-30T09:44:12.002Z</time></trkpt><trkpt lat="43.046854377170824" lon="-2.214023066500815"><ele>165.60000000000002</ele><time>2026-04-30T09:44:14.002Z</time></trkpt><trkpt lat="43.04680704622329" lon="-2.214081461030559"><ele>165.2</ele><time>2026-04-30T09:44:15.002Z</time></trkpt><trkpt lat="43.04670591442728" lon="-2.214175854677108"><ele>164.8</ele><time>2026-04-30T09:44:17.002Z</time></trkpt><trkpt lat="43.046591152358815" lon="-2.2141877963311334"><ele>164.39999999999998</ele><time>2026-04-30T09:44:19.002Z</time></trkpt><trkpt lat="43.04648104236658" lon="-2.2141576891895345"><ele>164.0</ele><time>2026-04-30T09:44:21.002Z</time></trkpt><trkpt lat="43.04639479446901" lon="-2.21414684022262"><ele>163.79999999999998</ele><time>2026-04-30T09:44:23.002Z</time></trkpt><trkpt lat="43.046315510218804" lon="-2.214348770919719"><ele>163.6</ele><time>2026-04-30T09:44:25.002Z</time></trkpt><trkpt lat="43.04633062964785" lon="-2.214448629230842"><ele>163.4</ele><time>2026-04-30T09:44:26.002Z</time></trkpt><trkpt lat="43.046316248975366" lon="-2.2145413777721155"><ele>163.2</ele><time>2026-04-30T09:44:27.002Z</time></trkpt><trkpt lat="43.04630498188087" lon="-2.2146387227968156"><ele>163.0</ele><time>2026-04-30T09:44:28.002Z</time></trkpt><trkpt lat="43.046304685525044" lon="-2.214741669788059"><ele>163.33333333333334</ele><time>2026-04-30T09:44:29.002Z</time></trkpt><trkpt lat="43.04630383207693" lon="-2.2148456247435573"><ele>163.66666666666669</ele><time>2026-04-30T09:44:30.002Z</time></trkpt><trkpt lat="43.04630605553489" lon="-2.2149510951772853"><ele>164.0</ele><time>2026-04-30T09:44:31.002Z</time></trkpt><trkpt lat="43.04630749978951" lon="-2.2150571653440303"><ele>164.33333333333334</ele><time>2026-04-30T09:44:32.002Z</time></trkpt><trkpt lat="43.04631067099186" lon="-2.215166491967453"><ele>164.66666666666666</ele><time>2026-04-30T09:44:33.002Z</time></trkpt><trkpt lat="43.04631928346512" lon="-2.215276808908988"><ele>165.0</ele><time>2026-04-30T09:44:34.002Z</time></trkpt><trkpt lat="43.04634607199267" lon="-2.215383966003304"><ele>165.0</ele><time>2026-04-30T09:44:35.002Z</time></trkpt><trkpt lat="43.04637611195555" lon="-2.2154890583947853"><ele>165.0</ele><time>2026-04-30T09:44:36.002Z</time></trkpt><trkpt lat="43.046402511824155" lon="-2.2155984764504835"><ele>165.0</ele><time>2026-04-30T09:44:37.002Z</time></trkpt><trkpt lat="43.046431439802774" lon="-2.2157070916854"><ele>165.0</ele><time>2026-04-30T09:44:38.002Z</time></trkpt><trkpt lat="43.04647164766333" lon="-2.215808448982675"><ele>165.0</ele><time>2026-04-30T09:44:39.002Z</time></trkpt><trkpt lat="43.04651545274389" lon="-2.21590884495893"><ele>165.0</ele><time>2026-04-30T09:44:40.002Z</time></trkpt><trkpt lat="43.046562039460284" lon="-2.216011173428451"><ele>165.0</ele><time>2026-04-30T09:44:41.002Z</time></trkpt><trkpt lat="43.046609316528695" lon="-2.216112769738716"><ele>165.0</ele><time>2026-04-30T09:44:42.002Z</time></trkpt><trkpt lat="43.04665617394734" lon="-2.2162157279576924"><ele>165.0</ele><time>2026-04-30T09:44:43.002Z</time></trkpt><trkpt lat="43.04670565525756" lon="-2.2163160308228314"><ele>165.0</ele><time>2026-04-30T09:44:44.002Z</time></trkpt><trkpt lat="43.04675835513168" lon="-2.2164112831122385"><ele>165.0</ele><time>2026-04-30T09:44:45Z</time></trkpt><trkpt lat="43.04681557273658" lon="-2.216504451681109"><ele>165.0</ele><time>2026-04-30T09:44:46Z</time></trkpt><trkpt lat="43.046876359585276" lon="-2.21659050779603"><ele>165.2</ele><time>2026-04-30T09:44:47Z</time></trkpt><trkpt lat="43.04694531769076" lon="-2.216674991441356"><ele>165.4</ele><time>2026-04-30T09:44:48Z</time></trkpt><trkpt lat="43.047015206315116" lon="-2.216757968844543"><ele>165.60000000000002</ele><time>2026-04-30T09:44:49Z</time></trkpt><trkpt lat="43.04708594474742" lon="-2.2168362750608943"><ele>165.8</ele><time>2026-04-30T09:44:50Z</time></trkpt><trkpt lat="43.04716192411725" lon="-2.2169095511062893"><ele>166.0</ele><time>2026-04-30T09:44:51Z</time></trkpt><trkpt lat="43.04724034375872" lon="-2.216978188906269"><ele>166.0</ele><time>2026-04-30T09:44:52Z</time></trkpt><trkpt lat="43.04732141318763" lon="-2.2170395250799526"><ele>166.0</ele><time>2026-04-30T09:44:53Z</time></trkpt><trkpt lat="43.0474032830331" lon="-2.217099370512083"><ele>166.0</ele><time>2026-04-30T09:44:54Z</time></trkpt><trkpt lat="43.04748688744937" lon="-2.2171550236406583"><ele>166.0</ele><time>2026-04-30T09:44:55Z</time></trkpt><trkpt lat="43.04757149790901" lon="-2.2172031847094567"><ele>166.0</ele><time>2026-04-30T09:44:56Z</time></trkpt><trkpt lat="43.04765819466836" lon="-2.217244743577935"><ele>166.20000000000002</ele><time>2026-04-30T09:44:57Z</time></trkpt><trkpt lat="43.04774848401908" lon="-2.2172773440944704"><ele>166.4</ele><time>2026-04-30T09:44:58Z</time></trkpt><trkpt lat="43.047840209107754" lon="-2.217313240844685"><ele>166.6</ele><time>2026-04-30T09:44:59Z</time></trkpt><trkpt lat="43.04793252932827" lon="-2.217342754538698"><ele>166.8</ele><time>2026-04-30T09:45:00Z</time></trkpt><trkpt lat="43.04802642049078" lon="-2.217367665253415"><ele>167.0</ele><time>2026-04-30T09:45:01Z</time></trkpt><trkpt lat="43.048121348255506" lon="-2.217384135366614"><ele>167.0</ele><time>2026-04-30T09:45:02Z</time></trkpt><trkpt lat="43.04821411548305" lon="-2.217401629287149"><ele>167.0</ele><time>2026-04-30T09:45:03Z</time></trkpt><trkpt lat="43.048308510308864" lon="-2.2174220940295397"><ele>167.0</ele><time>2026-04-30T09:45:04Z</time></trkpt><trkpt lat="43.0484019872284" lon="-2.2174373126345754"><ele>167.0</ele><time>2026-04-30T09:45:05Z</time></trkpt><trkpt lat="43.04849426142872" lon="-2.2174569368805304"><ele>167.0</ele><time>2026-04-30T09:45:06Z</time></trkpt><trkpt lat="43.048589627629966" lon="-2.2174752241881612"><ele>167.39999999999998</ele><time>2026-04-30T09:45:07Z</time></trkpt><trkpt lat="43.04868287699775" lon="-2.2174984599497294"><ele>167.79999999999998</ele><time>2026-04-30T09:45:08Z</time></trkpt><trkpt lat="43.048776566654524" lon="-2.217525973486405"><ele>168.2</ele><time>2026-04-30T09:45:09Z</time></trkpt><trkpt lat="43.048868312526714" lon="-2.217558856320762"><ele>168.6</ele><time>2026-04-30T09:45:10Z</time></trkpt><trkpt lat="43.048959058982526" lon="-2.217594853001722"><ele>169.0</ele><time>2026-04-30T09:45:11Z</time></trkpt><trkpt lat="43.04904857837634" lon="-2.2176327071125304"><ele>169.39999999999998</ele><time>2026-04-30T09:45:12Z</time></trkpt><trkpt lat="43.049137443906766" lon="-2.2176732556382412"><ele>169.8</ele><time>2026-04-30T09:45:13Z</time></trkpt><trkpt lat="43.049227770725906" lon="-2.2177191923065314"><ele>170.2</ele><time>2026-04-30T09:45:14Z</time></trkpt><trkpt lat="43.04931623267404" lon="-2.217769572692212"><ele>170.60000000000002</ele><time>2026-04-30T09:45:15Z</time></trkpt><trkpt lat="43.04940240641818" lon="-2.2178308603394328"><ele>171.0</ele><time>2026-04-30T09:45:16Z</time></trkpt><trkpt lat="43.04949019690522" lon="-2.217890393855858"><ele>171.0</ele><time>2026-04-30T09:45:17Z</time></trkpt><trkpt lat="43.04957481975626" lon="-2.2179559769971466"><ele>171.0</ele><time>2026-04-30T09:45:18Z</time></trkpt><trkpt lat="43.04965651559942" lon="-2.218023533284388"><ele>171.0</ele><time>2026-04-30T09:45:19Z</time></trkpt><trkpt lat="43.04973804985819" lon="-2.2180970939603872"><ele>171.0</ele><time>2026-04-30T09:45:20Z</time></trkpt><trkpt lat="43.04981701668549" lon="-2.2181705434523122"><ele>171.0</ele><time>2026-04-30T09:45:21Z</time></trkpt><trkpt lat="43.04989529626373" lon="-2.2182488480804796"><ele>170.8</ele><time>2026-04-30T09:45:22.001Z</time></trkpt><trkpt lat="43.04996957789387" lon="-2.2183314716543747"><ele>170.60000000000002</ele><time>2026-04-30T09:45:23.001Z</time></trkpt><trkpt lat="43.05004334191166" lon="-2.218416196314988"><ele>170.4</ele><time>2026-04-30T09:45:24.001Z</time></trkpt><trkpt lat="43.05011469874415" lon="-2.2185024594133074"><ele>170.2</ele><time>2026-04-30T09:45:25.001Z</time></trkpt><trkpt lat="43.05018559614049" lon="-2.2185932236384533"><ele>170.0</ele><time>2026-04-30T09:45:26.001Z</time></trkpt><trkpt lat="43.050256265542345" lon="-2.218683538504197"><ele>170.0</ele><time>2026-04-30T09:45:27.001Z</time></trkpt><trkpt lat="43.050326446380375" lon="-2.218779705872267"><ele>170.0</ele><time>2026-04-30T09:45:28.001Z</time></trkpt><trkpt lat="43.05039788592714" lon="-2.2188706194743855"><ele>170.0</ele><time>2026-04-30T09:45:29.001Z</time></trkpt><trkpt lat="43.05046510587053" lon="-2.2189615664475277"><ele>170.0</ele><time>2026-04-30T09:45:30.001Z</time></trkpt><trkpt lat="43.05053293287467" lon="-2.219052837998885"><ele>170.0</ele><time>2026-04-30T09:45:31.001Z</time></trkpt><trkpt lat="43.0506034082272" lon="-2.219146463728848"><ele>170.0</ele><time>2026-04-30T09:45:32.001Z</time></trkpt><trkpt lat="43.050674224297374" lon="-2.219237514805561"><ele>170.0</ele><time>2026-04-30T09:45:33.001Z</time></trkpt><trkpt lat="43.05074238184478" lon="-2.219326064940374"><ele>170.0</ele><time>2026-04-30T09:45:34.001Z</time></trkpt><trkpt lat="43.05081220191999" lon="-2.219415364972902"><ele>170.0</ele><time>2026-04-30T09:45:35.001Z</time></trkpt><trkpt lat="43.0508811845251" lon="-2.2195021852628503"><ele>170.0</ele><time>2026-04-30T09:45:36.001Z</time></trkpt><trkpt lat="43.05095619855937" lon="-2.219581500508457"><ele>170.0</ele><time>2026-04-30T09:45:37.001Z</time></trkpt><trkpt lat="43.05103310103729" lon="-2.2196533979982207"><ele>170.0</ele><time>2026-04-30T09:45:38.001Z</time></trkpt><trkpt lat="43.05111453084899" lon="-2.2197157871982722"><ele>170.0</ele><time>2026-04-30T09:45:39.001Z</time></trkpt><trkpt lat="43.05120367682353" lon="-2.2197725344923684"><ele>170.0</ele><time>2026-04-30T09:45:40.001Z</time></trkpt><trkpt lat="43.051293354822455" lon="-2.219816201155101"><ele>170.0</ele><time>2026-04-30T09:45:41.001Z</time></trkpt><trkpt lat="43.05138540513918" lon="-2.219855846828483"><ele>170.2</ele><time>2026-04-30T09:45:42.001Z</time></trkpt><trkpt lat="43.05147926704023" lon="-2.2198826690974114"><ele>170.4</ele><time>2026-04-30T09:45:43.001Z</time></trkpt><trkpt lat="43.05157194945888" lon="-2.2199066675168573"><ele>170.60000000000002</ele><time>2026-04-30T09:45:44.001Z</time></trkpt><trkpt lat="43.05166676130511" lon="-2.2199307253911105"><ele>170.8</ele><time>2026-04-30T09:45:45.001Z</time></trkpt><trkpt lat="43.05176180022927" lon="-2.2199570543490905"><ele>171.0</ele><time>2026-04-30T09:45:46.001Z</time></trkpt><trkpt lat="43.05185601247578" lon="-2.2199819813874857"><ele>171.20000000000002</ele><time>2026-04-30T09:45:47.001Z</time></trkpt><trkpt lat="43.05195205286571" lon="-2.22000853766021"><ele>171.4</ele><time>2026-04-30T09:45:48.001Z</time></trkpt><trkpt lat="43.052042968198755" lon="-2.2200482681148177"><ele>171.6</ele><time>2026-04-30T09:45:49.001Z</time></trkpt><trkpt lat="43.052131088573326" lon="-2.2200985723014335"><ele>171.8</ele><time>2026-04-30T09:45:50.001Z</time></trkpt><trkpt lat="43.052214827074906" lon="-2.220157261120355"><ele>172.0</ele><time>2026-04-30T09:45:51.001Z</time></trkpt><trkpt lat="43.052295010953024" lon="-2.220225288091785"><ele>172.0</ele><time>2026-04-30T09:45:52.001Z</time></trkpt><trkpt lat="43.052389850045664" lon="-2.2203052304461948"><ele>172.0</ele><time>2026-04-30T09:45:53.001Z</time></trkpt><trkpt lat="43.05251453272871" lon="-2.2204339640756174"><ele>172.0</ele><time>2026-04-30T09:45:54.001Z</time></trkpt><trkpt lat="43.052612844780406" lon="-2.220599303398942"><ele>172.0</ele><time>2026-04-30T09:45:55.001Z</time></trkpt><trkpt lat="43.05264590774393" lon="-2.2207099876072762"><ele>173.8</ele><time>2026-04-30T09:45:57.001Z</time></trkpt><trkpt lat="43.05270135830218" lon="-2.220828938481468"><ele>175.6</ele><time>2026-04-30T09:45:58.001Z</time></trkpt><trkpt lat="43.05275774380759" lon="-2.2209472474148724"><ele>177.4</ele><time>2026-04-30T09:45:59.001Z</time></trkpt><trkpt lat="43.05279857788806" lon="-2.2210606374665622"><ele>179.20000000000002</ele><time>2026-04-30T09:46:00.001Z</time></trkpt><trkpt lat="43.052868134929604" lon="-2.2211790671460805"><ele>181.0</ele><time>2026-04-30T09:46:01.001Z</time></trkpt><trkpt lat="43.05291926487239" lon="-2.221305145305871"><ele>181.0</ele><time>2026-04-30T09:46:02.001Z</time></trkpt><trkpt lat="43.052966908085494" lon="-2.2214280243094366"><ele>181.0</ele><time>2026-04-30T09:46:03.001Z</time></trkpt><trkpt lat="43.05300419871391" lon="-2.22155419653662"><ele>181.0</ele><time>2026-04-30T09:46:04.001Z</time></trkpt><trkpt lat="43.053032344239675" lon="-2.2216868275569"><ele>181.0</ele><time>2026-04-30T09:46:05.002Z</time></trkpt><trkpt lat="43.05305528892705" lon="-2.2218180988582357"><ele>181.0</ele><time>2026-04-30T09:46:06.002Z</time></trkpt><trkpt lat="43.053066363941724" lon="-2.2219580321186387"><ele>180.20000000000002</ele><time>2026-04-30T09:46:07.002Z</time></trkpt><trkpt lat="43.05307490620646" lon="-2.2220942511169497"><ele>179.4</ele><time>2026-04-30T09:46:08.002Z</time></trkpt><trkpt lat="43.05307380118454" lon="-2.2222372116327054"><ele>178.6</ele><time>2026-04-30T09:46:09.002Z</time></trkpt><trkpt lat="43.05306359479601" lon="-2.2223795449831614"><ele>177.8</ele><time>2026-04-30T09:46:10.002Z</time></trkpt><trkpt lat="43.053042422271304" lon="-2.222521711154918"><ele>177.0</ele><time>2026-04-30T09:46:11.002Z</time></trkpt><trkpt lat="43.053022754569746" lon="-2.2226632508532176"><ele>176.8</ele><time>2026-04-30T09:46:12.002Z</time></trkpt><trkpt lat="43.052996277521814" lon="-2.222799991877703"><ele>176.6</ele><time>2026-04-30T09:46:13.002Z</time></trkpt><trkpt lat="43.052964603270595" lon="-2.2229361776696157"><ele>176.4</ele><time>2026-04-30T09:46:14.002Z</time></trkpt><trkpt lat="43.05292451267847" lon="-2.2230694962599813"><ele>176.20000000000002</ele><time>2026-04-30T09:46:15.002Z</time></trkpt><trkpt lat="43.05287810014596" lon="-2.2231975517976483"><ele>176.0</ele><time>2026-04-30T09:46:16.002Z</time></trkpt><trkpt lat="43.05282689204274" lon="-2.223322425487818"><ele>176.0</ele><time>2026-04-30T09:46:17.002Z</time></trkpt><trkpt lat="43.05276993954042" lon="-2.2234418737510686"><ele>176.0</ele><time>2026-04-30T09:46:18.002Z</time></trkpt><trkpt lat="43.052711173465354" lon="-2.2235600870758847"><ele>176.0</ele><time>2026-04-30T09:46:19.002Z</time></trkpt><trkpt lat="43.05265131878038" lon="-2.223678562778867"><ele>176.0</ele><time>2026-04-30T09:46:20.002Z</time></trkpt><trkpt lat="43.052585557049646" lon="-2.223789216776093"><ele>176.0</ele><time>2026-04-30T09:46:21.002Z</time></trkpt><trkpt lat="43.052521775285435" lon="-2.2239052971641406"><ele>177.8</ele><time>2026-04-30T09:46:22.002Z</time></trkpt><trkpt lat="43.052450646245816" lon="-2.224014852436355"><ele>179.60000000000002</ele><time>2026-04-30T09:46:23.002Z</time></trkpt><trkpt lat="43.05237851314691" lon="-2.2241206677318828"><ele>181.4</ele><time>2026-04-30T09:46:24.002Z</time></trkpt><trkpt lat="43.052309757039644" lon="-2.2242250938149857"><ele>183.2</ele><time>2026-04-30T09:46:25.002Z</time></trkpt><trkpt lat="43.05223916614186" lon="-2.224333823073183"><ele>185.0</ele><time>2026-04-30T09:46:26.002Z</time></trkpt><trkpt lat="43.05216415988399" lon="-2.224430076404961"><ele>185.0</ele><time>2026-04-30T09:46:27.002Z</time></trkpt><trkpt lat="43.05209688070061" lon="-2.2245295905508247"><ele>185.0</ele><time>2026-04-30T09:46:28.002Z</time></trkpt><trkpt lat="43.05202630033776" lon="-2.2246328599181764"><ele>185.0</ele><time>2026-04-30T09:46:29.002Z</time></trkpt><trkpt lat="43.051957148966984" lon="-2.2247369418834047"><ele>185.0</ele><time>2026-04-30T09:46:30.002Z</time></trkpt><trkpt lat="43.051879653015206" lon="-2.224835805936989"><ele>185.0</ele><time>2026-04-30T09:46:31.002Z</time></trkpt><trkpt lat="43.051799963412364" lon="-2.224920820975731"><ele>185.8</ele><time>2026-04-30T09:46:32.002Z</time></trkpt><trkpt lat="43.05171177584483" lon="-2.224997602824274"><ele>186.6</ele><time>2026-04-30T09:46:33.002Z</time></trkpt><trkpt lat="43.05162660099949" lon="-2.22508311417418"><ele>187.39999999999998</ele><time>2026-04-30T09:46:34.002Z</time></trkpt><trkpt lat="43.051543890550896" lon="-2.2251689160429518"><ele>188.2</ele><time>2026-04-30T09:46:35.002Z</time></trkpt><trkpt lat="43.05145954914338" lon="-2.2252516946858747"><ele>189.0</ele><time>2026-04-30T09:46:36.002Z</time></trkpt><trkpt lat="43.05137831323621" lon="-2.225336223045501"><ele>189.0</ele><time>2026-04-30T09:46:37.002Z</time></trkpt><trkpt lat="43.051295466631935" lon="-2.2254177540454987"><ele>189.0</ele><time>2026-04-30T09:46:38.002Z</time></trkpt><trkpt lat="43.05121537995954" lon="-2.22549969283914"><ele>189.0</ele><time>2026-04-30T09:46:39.002Z</time></trkpt><trkpt lat="43.05113348598806" lon="-2.225574539461076"><ele>189.0</ele><time>2026-04-30T09:46:40.002Z</time></trkpt><trkpt lat="43.05105355267865" lon="-2.225657940121934"><ele>189.0</ele><time>2026-04-30T09:46:41.002Z</time></trkpt><trkpt lat="43.05097746262346" lon="-2.225740040526415"><ele>190.0</ele><time>2026-04-30T09:46:42.002Z</time></trkpt><trkpt lat="43.05090298389853" lon="-2.225832197834431"><ele>191.0</ele><time>2026-04-30T09:46:43.002Z</time></trkpt><trkpt lat="43.050840531617006" lon="-2.2259436217152166"><ele>192.0</ele><time>2026-04-30T09:46:44.002Z</time></trkpt><trkpt lat="43.050778332139615" lon="-2.2260529614856335"><ele>193.0</ele><time>2026-04-30T09:46:45.002Z</time></trkpt><trkpt lat="43.05072177176362" lon="-2.2261663674746903"><ele>194.0</ele><time>2026-04-30T09:46:46.002Z</time></trkpt><trkpt lat="43.05066674820497" lon="-2.226285289835505"><ele>194.0</ele><time>2026-04-30T09:46:47.002Z</time></trkpt><trkpt lat="43.050608198484895" lon="-2.2264125222568865"><ele>194.0</ele><time>2026-04-30T09:46:48.002Z</time></trkpt><trkpt lat="43.05054615509957" lon="-2.226513841983078"><ele>194.0</ele><time>2026-04-30T09:46:49.003Z</time></trkpt><trkpt lat="43.05050714884458" lon="-2.226603019453661"><ele>194.0</ele><time>2026-04-30T09:46:50.003Z</time></trkpt><trkpt lat="43.050453629480195" lon="-2.2267583763550376"><ele>194.0</ele><time>2026-04-30T09:46:51Z</time></trkpt><trkpt lat="43.05040240299773" lon="-2.2268827017083503"><ele>192.79999999999998</ele><time>2026-04-30T09:46:52Z</time></trkpt><trkpt lat="43.05034977984434" lon="-2.227005243582526"><ele>191.6</ele><time>2026-04-30T09:46:53Z</time></trkpt><trkpt lat="43.050293832261" lon="-2.2271216860004874"><ele>190.4</ele><time>2026-04-30T09:46:54Z</time></trkpt><trkpt lat="43.05024100875322" lon="-2.227239195553241"><ele>189.2</ele><time>2026-04-30T09:46:55Z</time></trkpt><trkpt lat="43.050187337242576" lon="-2.227363984526517"><ele>188.0</ele><time>2026-04-30T09:46:56Z</time></trkpt><trkpt lat="43.05013354250156" lon="-2.227480502106771"><ele>189.2</ele><time>2026-04-30T09:46:57Z</time></trkpt><trkpt lat="43.050077762933135" lon="-2.2276014063751024"><ele>190.4</ele><time>2026-04-30T09:46:58Z</time></trkpt><trkpt lat="43.05002717163391" lon="-2.227721732874888"><ele>191.6</ele><time>2026-04-30T09:46:59Z</time></trkpt><trkpt lat="43.04997058872328" lon="-2.227840160433779"><ele>192.79999999999998</ele><time>2026-04-30T09:47:00Z</time></trkpt><trkpt lat="43.04991452012994" lon="-2.227962537054993"><ele>194.0</ele><time>2026-04-30T09:47:01Z</time></trkpt><trkpt lat="43.04985351088797" lon="-2.228076336513757"><ele>193.2</ele><time>2026-04-30T09:47:02Z</time></trkpt><trkpt lat="43.04980105825183" lon="-2.2281846440856117"><ele>192.39999999999998</ele><time>2026-04-30T09:47:03Z</time></trkpt><trkpt lat="43.04975948783531" lon="-2.2283046776580666"><ele>191.6</ele><time>2026-04-30T09:47:04Z</time></trkpt><trkpt lat="43.04972220422078" lon="-2.228429698645393"><ele>190.8</ele><time>2026-04-30T09:47:05Z</time></trkpt><trkpt lat="43.04968469963026" lon="-2.22855218546194"><ele>190.0</ele><time>2026-04-30T09:47:06Z</time></trkpt><trkpt lat="43.049656630278" lon="-2.2286798667990837"><ele>190.0</ele><time>2026-04-30T09:47:07Z</time></trkpt><trkpt lat="43.049628252953994" lon="-2.2288123875275616"><ele>190.0</ele><time>2026-04-30T09:47:08Z</time></trkpt><trkpt lat="43.04960309386306" lon="-2.2289485110588325"><ele>190.0</ele><time>2026-04-30T09:47:09Z</time></trkpt><trkpt lat="43.049582251149964" lon="-2.229083327854428"><ele>190.0</ele><time>2026-04-30T09:47:10Z</time></trkpt><trkpt lat="43.04955996495357" lon="-2.2292203591310646"><ele>190.0</ele><time>2026-04-30T09:47:11Z</time></trkpt><trkpt lat="43.04954466029724" lon="-2.2293538024147237"><ele>190.2</ele><time>2026-04-30T09:47:12Z</time></trkpt><trkpt lat="43.04952151369531" lon="-2.2294913561107617"><ele>190.4</ele><time>2026-04-30T09:47:13Z</time></trkpt><trkpt lat="43.04951811248888" lon="-2.2296288686920547"><ele>190.60000000000002</ele><time>2026-04-30T09:47:14Z</time></trkpt><trkpt lat="43.04949694132099" lon="-2.2297546573183693"><ele>190.8</ele><time>2026-04-30T09:47:15Z</time></trkpt><trkpt lat="43.04946394033034" lon="-2.2298861722180514"><ele>191.0</ele><time>2026-04-30T09:47:16Z</time></trkpt><trkpt lat="43.04943073157258" lon="-2.2300065327741776"><ele>191.0</ele><time>2026-04-30T09:47:17Z</time></trkpt><trkpt lat="43.049386893501946" lon="-2.2301229402191067"><ele>191.0</ele><time>2026-04-30T09:47:18Z</time></trkpt><trkpt lat="43.04934597193881" lon="-2.2302308936072723"><ele>191.0</ele><time>2026-04-30T09:47:19Z</time></trkpt><trkpt lat="43.049301189375676" lon="-2.230331317420215"><ele>191.0</ele><time>2026-04-30T09:47:20.001Z</time></trkpt><trkpt lat="43.04924488824612" lon="-2.2304233855063194"><ele>191.0</ele><time>2026-04-30T09:47:21.001Z</time></trkpt><trkpt lat="43.04919319101458" lon="-2.2305216991857053"><ele>191.0</ele><time>2026-04-30T09:47:22.001Z</time></trkpt><trkpt lat="43.04914160599118" lon="-2.230615217104785"><ele>192.16666666666666</ele><time>2026-04-30T09:47:23.001Z</time></trkpt><trkpt lat="43.049090918401454" lon="-2.230696341603743"><ele>193.33333333333331</ele><time>2026-04-30T09:47:24.001Z</time></trkpt><trkpt lat="43.049039033694925" lon="-2.23077291606854"><ele>194.5</ele><time>2026-04-30T09:47:25.001Z</time></trkpt><trkpt lat="43.0489875288544" lon="-2.230850561194624"><ele>195.66666666666666</ele><time>2026-04-30T09:47:26.001Z</time></trkpt><trkpt lat="43.04893626313516" lon="-2.230928559110454"><ele>196.83333333333334</ele><time>2026-04-30T09:47:27.001Z</time></trkpt><trkpt lat="43.04888352066878" lon="-2.2309965238176837"><ele>198.0</ele><time>2026-04-30T09:47:28.001Z</time></trkpt><trkpt lat="43.048837139572925" lon="-2.231072856396013"><ele>198.0</ele><time>2026-04-30T09:47:29.001Z</time></trkpt><trkpt lat="43.0487879645919" lon="-2.2311399438541017"><ele>198.0</ele><time>2026-04-30T09:47:30.001Z</time></trkpt><trkpt lat="43.048734881665844" lon="-2.231217252101673"><ele>198.0</ele><time>2026-04-30T09:47:31.001Z</time></trkpt><trkpt lat="43.048685493045554" lon="-2.2313129606447797"><ele>198.0</ele><time>2026-04-30T09:47:32.001Z</time></trkpt><trkpt lat="43.04863487770017" lon="-2.2313953695058304"><ele>198.0</ele><time>2026-04-30T09:47:33.001Z</time></trkpt><trkpt lat="43.04857733880904" lon="-2.231467312688211"><ele>198.0</ele><time>2026-04-30T09:47:34.001Z</time></trkpt><trkpt lat="43.048527346634906" lon="-2.2315257275719214"><ele>198.83333333333334</ele><time>2026-04-30T09:47:35.001Z</time></trkpt><trkpt lat="43.04842773965343" lon="-2.231632141652713"><ele>199.66666666666669</ele><time>2026-04-30T09:47:37.001Z</time></trkpt><trkpt lat="43.0483744126284" lon="-2.231687941228226"><ele>200.5</ele><time>2026-04-30T09:47:38.001Z</time></trkpt><trkpt lat="43.04831177515477" lon="-2.2317352758676203"><ele>201.33333333333334</ele><time>2026-04-30T09:47:39.001Z</time></trkpt><trkpt lat="43.048252647481604" lon="-2.231790354971307"><ele>202.16666666666669</ele><time>2026-04-30T09:47:40.001Z</time></trkpt><trkpt lat="43.048185087416016" lon="-2.231841902863965"><ele>203.0</ele><time>2026-04-30T09:47:41.001Z</time></trkpt><trkpt lat="43.04811029427604" lon="-2.2318811286709828"><ele>203.0</ele><time>2026-04-30T09:47:42.001Z</time></trkpt><trkpt lat="43.04803236251475" lon="-2.231924368879061"><ele>203.0</ele><time>2026-04-30T09:47:43.001Z</time></trkpt><trkpt lat="43.047951554519365" lon="-2.231954927572512"><ele>203.0</ele><time>2026-04-30T09:47:44.001Z</time></trkpt><trkpt lat="43.04784914200932" lon="-2.2319987459257873"><ele>203.0</ele><time>2026-04-30T09:47:45.001Z</time></trkpt><trkpt lat="43.04776370097868" lon="-2.232059021076989"><ele>203.0</ele><time>2026-04-30T09:47:46.001Z</time></trkpt><trkpt lat="43.047677503458786" lon="-2.2321259300111254"><ele>203.0</ele><time>2026-04-30T09:47:47.001Z</time></trkpt><trkpt lat="43.04759883111409" lon="-2.232206243087411"><ele>203.0</ele><time>2026-04-30T09:47:48.001Z</time></trkpt><trkpt lat="43.04753413813904" lon="-2.2323075272624457"><ele>203.0</ele><time>2026-04-30T09:47:49.001Z</time></trkpt><trkpt lat="43.047448038614576" lon="-2.2323840704729982"><ele>203.0</ele><time>2026-04-30T09:47:50.001Z</time></trkpt><trkpt lat="43.04738328046345" lon="-2.2324926308296233"><ele>203.0</ele><time>2026-04-30T09:47:51.001Z</time></trkpt><trkpt lat="43.04730960173642" lon="-2.2325864511794475"><ele>201.4</ele><time>2026-04-30T09:47:52.001Z</time></trkpt><trkpt lat="43.047231999733214" lon="-2.2326830680725713"><ele>199.8</ele><time>2026-04-30T09:47:53.001Z</time></trkpt><trkpt lat="43.047136621239275" lon="-2.2327505139605344"><ele>198.2</ele><time>2026-04-30T09:47:54.001Z</time></trkpt><trkpt lat="43.047063949584285" lon="-2.232848983989102"><ele>196.6</ele><time>2026-04-30T09:47:55.001Z</time></trkpt><trkpt lat="43.04698507683231" lon="-2.2329368909500507"><ele>195.0</ele><time>2026-04-30T09:47:56.001Z</time></trkpt><trkpt lat="43.04689807454314" lon="-2.2330148766513083"><ele>195.0</ele><time>2026-04-30T09:47:57.001Z</time></trkpt><trkpt lat="43.046814092430395" lon="-2.2331019942079466"><ele>195.0</ele><time>2026-04-30T09:47:58.001Z</time></trkpt><trkpt lat="43.046730816431776" lon="-2.2331885387260564"><ele>195.0</ele><time>2026-04-30T09:47:59.001Z</time></trkpt><trkpt lat="43.046646116988505" lon="-2.233275415312696"><ele>195.0</ele><time>2026-04-30T09:48:00.001Z</time></trkpt><trkpt lat="43.04656036636322" lon="-2.233356027885686"><ele>195.0</ele><time>2026-04-30T09:48:01.001Z</time></trkpt><trkpt lat="43.04648749236222" lon="-2.2334525975942285"><ele>197.2</ele><time>2026-04-30T09:48:02.001Z</time></trkpt><trkpt lat="43.04640797360514" lon="-2.2335416725326875"><ele>199.4</ele><time>2026-04-30T09:48:03.001Z</time></trkpt><trkpt lat="43.046315603765834" lon="-2.2336254024884314"><ele>201.60000000000002</ele><time>2026-04-30T09:48:04.001Z</time></trkpt><trkpt lat="43.04625143085703" lon="-2.2337308427692895"><ele>203.8</ele><time>2026-04-30T09:48:05.001Z</time></trkpt><trkpt lat="43.0461793915" lon="-2.2338336479847625"><ele>206.0</ele><time>2026-04-30T09:48:06.002Z</time></trkpt><trkpt lat="43.04611298276718" lon="-2.233926314668914"><ele>208.0</ele><time>2026-04-30T09:48:07.002Z</time></trkpt><trkpt lat="43.04604153745232" lon="-2.234036284349246"><ele>210.0</ele><time>2026-04-30T09:48:08.002Z</time></trkpt><trkpt lat="43.045992674748184" lon="-2.23415390656352"><ele>212.00000000000003</ele><time>2026-04-30T09:48:09.002Z</time></trkpt><trkpt lat="43.04592870845157" lon="-2.2342609522083543"><ele>214.0</ele><time>2026-04-30T09:48:10.002Z</time></trkpt><trkpt lat="43.045835656182405" lon="-2.234339302425274"><ele>216.0</ele><time>2026-04-30T09:48:11.002Z</time></trkpt><trkpt lat="43.04577225393977" lon="-2.234460352264003"><ele>216.0</ele><time>2026-04-30T09:48:12.002Z</time></trkpt><trkpt lat="43.04570787811129" lon="-2.2345681099634587"><ele>216.00000000000003</ele><time>2026-04-30T09:48:13.002Z</time></trkpt><trkpt lat="43.0456497989603" lon="-2.2346820633124422"><ele>216.00000000000003</ele><time>2026-04-30T09:48:14.002Z</time></trkpt><trkpt lat="43.04558609050898" lon="-2.2347985082385424"><ele>216.0</ele><time>2026-04-30T09:48:15.002Z</time></trkpt><trkpt lat="43.04552052014713" lon="-2.2349068361748157"><ele>216.0</ele><time>2026-04-30T09:48:16.002Z</time></trkpt><trkpt lat="43.04545330852448" lon="-2.235015143257542"><ele>211.4</ele><time>2026-04-30T09:48:17.002Z</time></trkpt><trkpt lat="43.045392040043104" lon="-2.2351290632591625"><ele>206.8</ele><time>2026-04-30T09:48:18.002Z</time></trkpt><trkpt lat="43.04532482512145" lon="-2.2352328667928125"><ele>202.20000000000002</ele><time>2026-04-30T09:48:19.002Z</time></trkpt><trkpt lat="43.04526029206752" lon="-2.235342590633562"><ele>197.60000000000002</ele><time>2026-04-30T09:48:20.002Z</time></trkpt><trkpt lat="43.04520559411632" lon="-2.235467530104803"><ele>193.0</ele><time>2026-04-30T09:48:21.002Z</time></trkpt><trkpt lat="43.04514137810284" lon="-2.235577323001042"><ele>191.2</ele><time>2026-04-30T09:48:22.002Z</time></trkpt><trkpt lat="43.04507811283232" lon="-2.235687534034908"><ele>189.4</ele><time>2026-04-30T09:48:23.002Z</time></trkpt><trkpt lat="43.04501723554653" lon="-2.235806751320166"><ele>187.6</ele><time>2026-04-30T09:48:24.002Z</time></trkpt><trkpt lat="43.044957641471036" lon="-2.2359261475949217"><ele>185.79999999999998</ele><time>2026-04-30T09:48:25.002Z</time></trkpt><trkpt lat="43.04489844311881" lon="-2.2360503786215786"><ele>184.0</ele><time>2026-04-30T09:48:26.002Z</time></trkpt><trkpt lat="43.04484497201742" lon="-2.236172835783364"><ele>186.0</ele><time>2026-04-30T09:48:27.002Z</time></trkpt><trkpt lat="43.04480197914166" lon="-2.2363058849052986"><ele>188.0</ele><time>2026-04-30T09:48:28.002Z</time></trkpt><trkpt lat="43.04477221612548" lon="-2.2364430733621132"><ele>190.0</ele><time>2026-04-30T09:48:29.002Z</time></trkpt><trkpt lat="43.0447514487502" lon="-2.236585150131596"><ele>192.0</ele><time>2026-04-30T09:48:30.002Z</time></trkpt><trkpt lat="43.044743510376165" lon="-2.2367285947706455"><ele>194.0</ele><time>2026-04-30T09:48:31.002Z</time></trkpt><trkpt lat="43.044761875027575" lon="-2.23687333329991"><ele>194.0</ele><time>2026-04-30T09:48:32.002Z</time></trkpt><trkpt lat="43.044773521359105" lon="-2.237014628266201"><ele>194.0</ele><time>2026-04-30T09:48:33.002Z</time></trkpt><trkpt lat="43.04478942959472" lon="-2.23715376890468"><ele>194.0</ele><time>2026-04-30T09:48:34.002Z</time></trkpt><trkpt lat="43.04480120101407" lon="-2.2372983752349525"><ele>194.0</ele><time>2026-04-30T09:48:35.002Z</time></trkpt><trkpt lat="43.044813890256904" lon="-2.2374373922669326"><ele>194.0</ele><time>2026-04-30T09:48:36.002Z</time></trkpt><trkpt lat="43.0448217166859" lon="-2.2375776265262286"><ele>194.2</ele><time>2026-04-30T09:48:37.002Z</time></trkpt><trkpt lat="43.0448367247596" lon="-2.2377196082138875"><ele>194.39999999999998</ele><time>2026-04-30T09:48:38.002Z</time></trkpt><trkpt lat="43.04483934647881" lon="-2.23785026404102"><ele>194.6</ele><time>2026-04-30T09:48:39.002Z</time></trkpt><trkpt lat="43.04484996861533" lon="-2.2379825368291235"><ele>194.8</ele><time>2026-04-30T09:48:40.002Z</time></trkpt><trkpt lat="43.04486808685142" lon="-2.2381420413243"><ele>195.0</ele><time>2026-04-30T09:48:41.002Z</time></trkpt><trkpt lat="43.04487750990127" lon="-2.2382556885161558"><ele>195.2</ele><time>2026-04-30T09:48:42.002Z</time></trkpt><trkpt lat="43.0448835172861" lon="-2.238399566072584"><ele>195.4</ele><time>2026-04-30T09:48:43.002Z</time></trkpt><trkpt lat="43.044881941057696" lon="-2.2385466663052154"><ele>195.60000000000002</ele><time>2026-04-30T09:48:44.002Z</time></trkpt><trkpt lat="43.04490263757896" lon="-2.23870385763817"><ele>195.8</ele><time>2026-04-30T09:48:45.002Z</time></trkpt><trkpt lat="43.04490898787494" lon="-2.238819309454757"><ele>196.0</ele><time>2026-04-30T09:48:46.002Z</time></trkpt><trkpt lat="43.044917858168894" lon="-2.2389563811992916"><ele>195.60000000000002</ele><time>2026-04-30T09:48:47.002Z</time></trkpt><trkpt lat="43.04493188343507" lon="-2.239095419848156"><ele>195.2</ele><time>2026-04-30T09:48:48.002Z</time></trkpt><trkpt lat="43.04494685648398" lon="-2.239225305387133"><ele>194.8</ele><time>2026-04-30T09:48:49.002Z</time></trkpt><trkpt lat="43.044954006434644" lon="-2.2393536574859674"><ele>194.39999999999998</ele><time>2026-04-30T09:48:50.003Z</time></trkpt><trkpt lat="43.0449316249587" lon="-2.239490412511694"><ele>194.0</ele><time>2026-04-30T09:48:51.003Z</time></trkpt><trkpt lat="43.04490438971048" lon="-2.2396257917322204"><ele>194.0</ele><time>2026-04-30T09:48:52.003Z</time></trkpt><trkpt lat="43.0448807673498" lon="-2.2397672201760246"><ele>194.0</ele><time>2026-04-30T09:48:53.003Z</time></trkpt><trkpt lat="43.04485481674675" lon="-2.2399036610799863"><ele>194.0</ele><time>2026-04-30T09:48:54.003Z</time></trkpt><trkpt lat="43.04483277457183" lon="-2.240040439746297"><ele>194.0</ele><time>2026-04-30T09:48:55.003Z</time></trkpt><trkpt lat="43.04480761875363" lon="-2.240170563011242"><ele>194.0</ele><time>2026-04-30T09:48:56.003Z</time></trkpt><trkpt lat="43.04478130455559" lon="-2.240301040364223"><ele>193.79999999999998</ele><time>2026-04-30T09:48:57.001Z</time></trkpt><trkpt lat="43.04475243475968" lon="-2.2404287796706024"><ele>193.6</ele><time>2026-04-30T09:48:58.001Z</time></trkpt><trkpt lat="43.04474370704352" lon="-2.24056545873325"><ele>193.4</ele><time>2026-04-30T09:48:59.001Z</time></trkpt><trkpt lat="43.04476885076316" lon="-2.2407026972377326"><ele>193.2</ele><time>2026-04-30T09:49:00.001Z</time></trkpt><trkpt lat="43.04480065746581" lon="-2.240827188960911"><ele>193.0</ele><time>2026-04-30T09:49:01.001Z</time></trkpt><trkpt lat="43.044791236667514" lon="-2.2409528192163277"><ele>193.0</ele><time>2026-04-30T09:49:02.001Z</time></trkpt><trkpt lat="43.04474524047227" lon="-2.2410719880865213"><ele>193.0</ele><time>2026-04-30T09:49:03.001Z</time></trkpt><trkpt lat="43.04467105137419" lon="-2.2411650129017295"><ele>193.0</ele><time>2026-04-30T09:49:04.001Z</time></trkpt><trkpt lat="43.044588421425395" lon="-2.241246181132059"><ele>193.0</ele><time>2026-04-30T09:49:05.001Z</time></trkpt><trkpt lat="43.04452935752013" lon="-2.241539479968965"><ele>192.4</ele><time>2026-04-30T09:49:07.001Z</time></trkpt><trkpt lat="43.04450716674667" lon="-2.241676747297832"><ele>191.8</ele><time>2026-04-30T09:49:08.001Z</time></trkpt><trkpt lat="43.04448383102096" lon="-2.2418096864902703"><ele>191.2</ele><time>2026-04-30T09:49:09.001Z</time></trkpt><trkpt lat="43.044453113068755" lon="-2.241945808584713"><ele>190.6</ele><time>2026-04-30T09:49:10.001Z</time></trkpt><trkpt lat="43.0444271142946" lon="-2.2420767180203818"><ele>190.0</ele><time>2026-04-30T09:49:11.001Z</time></trkpt><trkpt lat="43.044404353487536" lon="-2.2422139053637946"><ele>189.6</ele><time>2026-04-30T09:49:12.001Z</time></trkpt><trkpt lat="43.04438091085552" lon="-2.2423489670216323"><ele>189.2</ele><time>2026-04-30T09:49:13.001Z</time></trkpt><trkpt lat="43.044353234273366" lon="-2.242482674679344"><ele>188.8</ele><time>2026-04-30T09:49:14.001Z</time></trkpt><trkpt lat="43.04432249628644" lon="-2.242615259739439"><ele>188.4</ele><time>2026-04-30T09:49:15.001Z</time></trkpt><trkpt lat="43.04428048409368" lon="-2.242744993836659"><ele>188.0</ele><time>2026-04-30T09:49:16.001Z</time></trkpt><trkpt lat="43.04423574733116" lon="-2.2428663984525112"><ele>188.0</ele><time>2026-04-30T09:49:17.001Z</time></trkpt><trkpt lat="43.0441951080654" lon="-2.242965757730935"><ele>188.0</ele><time>2026-04-30T09:49:18.001Z</time></trkpt><trkpt lat="43.0441352266878" lon="-2.243067091730876"><ele>188.0</ele><time>2026-04-30T09:49:19.001Z</time></trkpt><trkpt lat="43.044074456298084" lon="-2.2431644350263005"><ele>188.0</ele><time>2026-04-30T09:49:20.001Z</time></trkpt><trkpt lat="43.04401388433911" lon="-2.2432603533035356"><ele>188.0</ele><time>2026-04-30T09:49:21.001Z</time></trkpt><trkpt lat="43.0439550983141" lon="-2.2433543112531273"><ele>188.5</ele><time>2026-04-30T09:49:22.001Z</time></trkpt><trkpt lat="43.04389220821412" lon="-2.2434450839122317"><ele>189.0</ele><time>2026-04-30T09:49:23.001Z</time></trkpt><trkpt lat="43.04383009914251" lon="-2.2435358834286814"><ele>189.5</ele><time>2026-04-30T09:49:24.001Z</time></trkpt><trkpt lat="43.04376765642106" lon="-2.243624378141827"><ele>190.0</ele><time>2026-04-30T09:49:25.001Z</time></trkpt><trkpt lat="43.04370679451464" lon="-2.2437127768387066"><ele>190.5</ele><time>2026-04-30T09:49:26.001Z</time></trkpt><trkpt lat="43.04364709474367" lon="-2.2438011398082334"><ele>191.0</ele><time>2026-04-30T09:49:27.001Z</time></trkpt><trkpt lat="43.043590237496055" lon="-2.243885251334141"><ele>191.33333333333331</ele><time>2026-04-30T09:49:28.001Z</time></trkpt><trkpt lat="43.04352899540642" lon="-2.2439685085504926"><ele>191.66666666666666</ele><time>2026-04-30T09:49:29.001Z</time></trkpt><trkpt lat="43.04346901645406" lon="-2.2440551209235977"><ele>192.0</ele><time>2026-04-30T09:49:30.001Z</time></trkpt><trkpt lat="43.04341038226387" lon="-2.244140909127922"><ele>192.33333333333331</ele><time>2026-04-30T09:49:31.001Z</time></trkpt><trkpt lat="43.043350667555764" lon="-2.244233528260879"><ele>192.66666666666666</ele><time>2026-04-30T09:49:32.001Z</time></trkpt><trkpt lat="43.043293459711094" lon="-2.2443210337782626"><ele>193.0</ele><time>2026-04-30T09:49:33.001Z</time></trkpt><trkpt lat="43.043235516660495" lon="-2.244407735019819"><ele>192.99999999999997</ele><time>2026-04-30T09:49:34.001Z</time></trkpt><trkpt lat="43.043176416284" lon="-2.244490231956827"><ele>193.0</ele><time>2026-04-30T09:49:35.001Z</time></trkpt><trkpt lat="43.04311885437348" lon="-2.2445795841751153"><ele>193.0</ele><time>2026-04-30T09:49:36.001Z</time></trkpt><trkpt lat="43.04306226522383" lon="-2.244668855722754"><ele>193.0</ele><time>2026-04-30T09:49:37.001Z</time></trkpt><trkpt lat="43.04300792441248" lon="-2.244758400034669"><ele>192.99999999999997</ele><time>2026-04-30T09:49:38.001Z</time></trkpt><trkpt lat="43.04295520204876" lon="-2.2448508410993178"><ele>193.0</ele><time>2026-04-30T09:49:39.001Z</time></trkpt><trkpt lat="43.042903231446125" lon="-2.2449528164464603"><ele>193.49999999999997</ele><time>2026-04-30T09:49:40.001Z</time></trkpt><trkpt lat="43.04285154160299" lon="-2.245036027537412"><ele>194.0</ele><time>2026-04-30T09:49:41.001Z</time></trkpt><trkpt lat="43.04281070793269" lon="-2.245161003065887"><ele>194.5</ele><time>2026-04-30T09:49:42.001Z</time></trkpt><trkpt lat="43.04277026656824" lon="-2.2452694449457056"><ele>195.0</ele><time>2026-04-30T09:49:43.001Z</time></trkpt><trkpt lat="43.042731214514085" lon="-2.245379267493583"><ele>195.49999999999997</ele><time>2026-04-30T09:49:44.001Z</time></trkpt><trkpt lat="43.042699003196994" lon="-2.2454958860000835"><ele>196.0</ele><time>2026-04-30T09:49:45.001Z</time></trkpt><trkpt lat="43.042668647538726" lon="-2.2456103943255337"><ele>197.0</ele><time>2026-04-30T09:49:46.001Z</time></trkpt><trkpt lat="43.04263576098479" lon="-2.245727908852694"><ele>198.0</ele><time>2026-04-30T09:49:47.001Z</time></trkpt><trkpt lat="43.04260264757585" lon="-2.2458493474292207"><ele>199.0</ele><time>2026-04-30T09:49:48.001Z</time></trkpt><trkpt lat="43.042570731883565" lon="-2.2459736893180455"><ele>200.0</ele><time>2026-04-30T09:49:49.001Z</time></trkpt><trkpt lat="43.04253583502556" lon="-2.246096786722834"><ele>201.0</ele><time>2026-04-30T09:49:50.001Z</time></trkpt><trkpt lat="43.042498126987915" lon="-2.246223139738636"><ele>200.60000000000002</ele><time>2026-04-30T09:49:51.001Z</time></trkpt><trkpt lat="43.04246314571986" lon="-2.2463515175326374"><ele>200.2</ele><time>2026-04-30T09:49:52.001Z</time></trkpt><trkpt lat="43.04242668645391" lon="-2.2464812488220653"><ele>199.8</ele><time>2026-04-30T09:49:53.001Z</time></trkpt><trkpt lat="43.04238576559216" lon="-2.246611796362494"><ele>199.39999999999998</ele><time>2026-04-30T09:49:54.001Z</time></trkpt><trkpt lat="43.042350724776064" lon="-2.2467451757967374"><ele>199.0</ele><time>2026-04-30T09:49:55.001Z</time></trkpt><trkpt lat="43.042314197128924" lon="-2.2468756315346075"><ele>199.0</ele><time>2026-04-30T09:49:56.001Z</time></trkpt><trkpt lat="43.042279558385346" lon="-2.2470044127143103"><ele>199.0</ele><time>2026-04-30T09:49:57.001Z</time></trkpt><trkpt lat="43.04224251598013" lon="-2.2471352279301944"><ele>199.0</ele><time>2026-04-30T09:49:58.001Z</time></trkpt><trkpt lat="43.04220327377249" lon="-2.247264291364382"><ele>199.0</ele><time>2026-04-30T09:49:59.001Z</time></trkpt><trkpt lat="43.042165697333175" lon="-2.247398752432875"><ele>199.0</ele><time>2026-04-30T09:50:00.001Z</time></trkpt><trkpt lat="43.04212793288328" lon="-2.2475320625683946"><ele>198.79999999999998</ele><time>2026-04-30T09:50:01.001Z</time></trkpt><trkpt lat="43.042090926075886" lon="-2.247665944619381"><ele>198.6</ele><time>2026-04-30T09:50:02.001Z</time></trkpt><trkpt lat="43.042055664345995" lon="-2.2477999749661506"><ele>198.4</ele><time>2026-04-30T09:50:03.001Z</time></trkpt><trkpt lat="43.042038645539854" lon="-2.247941949840787"><ele>198.2</ele><time>2026-04-30T09:50:04.001Z</time></trkpt><trkpt lat="43.04201847143751" lon="-2.248074463882994"><ele>198.0</ele><time>2026-04-30T09:50:05.001Z</time></trkpt><trkpt lat="43.04200372890602" lon="-2.2482142221134493"><ele>198.8</ele><time>2026-04-30T09:50:06.002Z</time></trkpt><trkpt lat="43.041987296674435" lon="-2.248357189579257"><ele>199.60000000000002</ele><time>2026-04-30T09:50:07.002Z</time></trkpt><trkpt lat="43.04196953447286" lon="-2.2484988285403147"><ele>200.39999999999998</ele><time>2026-04-30T09:50:08.002Z</time></trkpt><trkpt lat="43.04194521379212" lon="-2.2486390064378283"><ele>201.2</ele><time>2026-04-30T09:50:09.002Z</time></trkpt><trkpt lat="43.04192572035452" lon="-2.2487800012510517"><ele>202.0</ele><time>2026-04-30T09:50:10.002Z</time></trkpt><trkpt lat="43.04190445524751" lon="-2.248920901660732"><ele>202.6</ele><time>2026-04-30T09:50:11.002Z</time></trkpt><trkpt lat="43.04188903164242" lon="-2.249061443409831"><ele>203.2</ele><time>2026-04-30T09:50:12.002Z</time></trkpt><trkpt lat="43.041866334532074" lon="-2.2492076190373607"><ele>203.8</ele><time>2026-04-30T09:50:13.002Z</time></trkpt><trkpt lat="43.04184627636588" lon="-2.2493486039789063"><ele>204.4</ele><time>2026-04-30T09:50:14.002Z</time></trkpt><trkpt lat="43.04182505963223" lon="-2.249491249531563"><ele>205.0</ele><time>2026-04-30T09:50:15.002Z</time></trkpt><trkpt lat="43.04180775257511" lon="-2.249634567645629"><ele>205.0</ele><time>2026-04-30T09:50:16.002Z</time></trkpt><trkpt lat="43.041791927082926" lon="-2.249762432070494"><ele>205.0</ele><time>2026-04-30T09:50:17.002Z</time></trkpt><trkpt lat="43.041749604330654" lon="-2.2500549545212687"><ele>205.0</ele><time>2026-04-30T09:50:19.002Z</time></trkpt><trkpt lat="43.04174426959876" lon="-2.2502565684367344"><ele>204.8</ele><time>2026-04-30T09:50:20.002Z</time></trkpt><trkpt lat="43.04172390530898" lon="-2.250409502936695"><ele>204.6</ele><time>2026-04-30T09:50:21.002Z</time></trkpt><trkpt lat="43.04171054049369" lon="-2.2505109232219125"><ele>204.39999999999998</ele><time>2026-04-30T09:50:22.002Z</time></trkpt><trkpt lat="43.041718733607105" lon="-2.250642341207388"><ele>204.2</ele><time>2026-04-30T09:50:23.002Z</time></trkpt><trkpt lat="43.04173723245244" lon="-2.2507815931931274"><ele>204.0</ele><time>2026-04-30T09:50:24.002Z</time></trkpt><trkpt lat="43.04177502429914" lon="-2.25093331833405"><ele>203.5</ele><time>2026-04-30T09:50:25.002Z</time></trkpt><trkpt lat="43.041822244224555" lon="-2.251072633877263"><ele>203.0</ele><time>2026-04-30T09:50:26.002Z</time></trkpt><trkpt lat="43.04189716196215" lon="-2.251213618211049"><ele>202.5</ele><time>2026-04-30T09:50:27.002Z</time></trkpt><trkpt lat="43.04200570780086" lon="-2.2513925374453483"><ele>202.0</ele><time>2026-04-30T09:50:28.002Z</time></trkpt><trkpt lat="43.042085449105485" lon="-2.2514655757929765"><ele>200.39999999999998</ele><time>2026-04-30T09:50:29.002Z</time></trkpt><trkpt lat="43.042135834566125" lon="-2.2515827955717147"><ele>198.79999999999998</ele><time>2026-04-30T09:50:30.002Z</time></trkpt><trkpt lat="43.04218979664446" lon="-2.2516807176964724"><ele>197.2</ele><time>2026-04-30T09:50:31.002Z</time></trkpt><trkpt lat="43.042260868759236" lon="-2.251780210318779"><ele>195.6</ele><time>2026-04-30T09:50:32.002Z</time></trkpt><trkpt lat="43.04234184197865" lon="-2.2519087966567737"><ele>194.0</ele><time>2026-04-30T09:50:33.002Z</time></trkpt><trkpt lat="43.042421169915094" lon="-2.252010379587983"><ele>194.79999999999998</ele><time>2026-04-30T09:50:34.002Z</time></trkpt><trkpt lat="43.04249090476292" lon="-2.2521148299112643"><ele>195.6</ele><time>2026-04-30T09:50:35.002Z</time></trkpt><trkpt lat="43.04255663910318" lon="-2.252211714529214"><ele>196.4</ele><time>2026-04-30T09:50:36.002Z</time></trkpt><trkpt lat="43.042612067254495" lon="-2.2523084726594935"><ele>197.2</ele><time>2026-04-30T09:50:37.002Z</time></trkpt><trkpt lat="43.04266952057727" lon="-2.2523995165249353"><ele>198.0</ele><time>2026-04-30T09:50:38.002Z</time></trkpt><trkpt lat="43.042706373630466" lon="-2.252493251454764"><ele>198.0</ele><time>2026-04-30T09:50:39.002Z</time></trkpt><trkpt lat="43.04274344128487" lon="-2.2525811518131422"><ele>198.0</ele><time>2026-04-30T09:50:40.002Z</time></trkpt><trkpt lat="43.042770696555365" lon="-2.2526620669050637"><ele>198.0</ele><time>2026-04-30T09:50:41.002Z</time></trkpt><trkpt lat="43.04280783148411" lon="-2.252771713107772"><ele>198.0</ele><time>2026-04-30T09:50:43.002Z</time></trkpt><trkpt lat="43.04283277525802" lon="-2.25285796718285"><ele>198.0</ele><time>2026-04-30T09:50:46.002Z</time></trkpt><trkpt lat="43.04286423430477" lon="-2.2529614222128287"><ele>198.0</ele><time>2026-04-30T09:51:29.001Z</time></trkpt><trkpt lat="43.04289647213933" lon="-2.2530415714891623"><ele>198.0</ele><time>2026-04-30T09:51:32.001Z</time></trkpt><trkpt lat="43.04292891317668" lon="-2.253172664324489"><ele>197.85714285714286</ele><time>2026-04-30T09:51:34.001Z</time></trkpt><trkpt lat="43.0429458618226" lon="-2.2532576833338473"><ele>197.7142857142857</ele><time>2026-04-30T09:51:35.001Z</time></trkpt><trkpt lat="43.042962825947725" lon="-2.2533439497709593"><ele>197.57142857142856</ele><time>2026-04-30T09:51:36.001Z</time></trkpt><trkpt lat="43.04297640240676" lon="-2.2534376114581747"><ele>197.42857142857144</ele><time>2026-04-30T09:51:37.001Z</time></trkpt><trkpt lat="43.042985050903894" lon="-2.253532305322746"><ele>197.28571428571428</ele><time>2026-04-30T09:51:38.001Z</time></trkpt><trkpt lat="43.0429853311938" lon="-2.2536237275255826"><ele>197.14285714285714</ele><time>2026-04-30T09:51:39.001Z</time></trkpt><trkpt lat="43.04298453570995" lon="-2.2537183396221416"><ele>197.0</ele><time>2026-04-30T09:51:40.001Z</time></trkpt><trkpt lat="43.04298464645761" lon="-2.253814114304146"><ele>197.0</ele><time>2026-04-30T09:51:41.001Z</time></trkpt><trkpt lat="43.042978543709566" lon="-2.2539048144518756"><ele>197.0</ele><time>2026-04-30T09:51:42.001Z</time></trkpt><trkpt lat="43.04297535247116" lon="-2.2540000513224525"><ele>197.0</ele><time>2026-04-30T09:51:43.001Z</time></trkpt><trkpt lat="43.04296590536872" lon="-2.25409026421006"><ele>197.0</ele><time>2026-04-30T09:51:44.001Z</time></trkpt><trkpt lat="43.04294200562711" lon="-2.2542593169582723"><ele>197.0</ele><time>2026-04-30T09:51:46.001Z</time></trkpt><trkpt lat="43.042915945990856" lon="-2.254424277425545"><ele>197.00000000000003</ele><time>2026-04-30T09:51:48.001Z</time></trkpt><trkpt lat="43.04289213291326" lon="-2.254583129448671"><ele>197.0</ele><time>2026-04-30T09:51:50.001Z</time></trkpt><trkpt lat="43.04286622738786" lon="-2.2547488699524916"><ele>197.0</ele><time>2026-04-30T09:51:52.001Z</time></trkpt><trkpt lat="43.04285248748684" lon="-2.2548349148225846"><ele>197.0</ele><time>2026-04-30T09:51:53.001Z</time></trkpt><trkpt lat="43.04284178164369" lon="-2.2549222376810594"><ele>197.00000000000003</ele><time>2026-04-30T09:51:54.001Z</time></trkpt><trkpt lat="43.0428288928883" lon="-2.25500750480823"><ele>197.0</ele><time>2026-04-30T09:51:55.001Z</time></trkpt><trkpt lat="43.04281504641738" lon="-2.2550977073942495"><ele>197.14285714285714</ele><time>2026-04-30T09:51:56.001Z</time></trkpt><trkpt lat="43.04280040229686" lon="-2.2551908087835244"><ele>197.28571428571428</ele><time>2026-04-30T09:51:57.001Z</time></trkpt><trkpt lat="43.04278942460213" lon="-2.2552863556139493"><ele>197.42857142857144</ele><time>2026-04-30T09:51:58.001Z</time></trkpt><trkpt lat="43.04278105407434" lon="-2.255385777757855"><ele>197.57142857142856</ele><time>2026-04-30T09:51:59.001Z</time></trkpt><trkpt lat="43.04277461759894" lon="-2.2554823104881296"><ele>197.7142857142857</ele><time>2026-04-30T09:52:00.001Z</time></trkpt><trkpt lat="43.04277317830176" lon="-2.255589392349154"><ele>197.85714285714286</ele><time>2026-04-30T09:52:01.001Z</time></trkpt><trkpt lat="43.0427841113322" lon="-2.255683994606741"><ele>198.0</ele><time>2026-04-30T09:52:02.001Z</time></trkpt><trkpt lat="43.04284970510528" lon="-2.255826651923493"><ele>198.57142857142858</ele><time>2026-04-30T09:52:04.001Z</time></trkpt><trkpt lat="43.04290278562647" lon="-2.255895222141873"><ele>199.14285714285714</ele><time>2026-04-30T09:52:05.001Z</time></trkpt><trkpt lat="43.042965279378784" lon="-2.2559374718257206"><ele>199.71428571428572</ele><time>2026-04-30T09:52:06.001Z</time></trkpt><trkpt lat="43.04303276156661" lon="-2.2559837452088067"><ele>200.28571428571428</ele><time>2026-04-30T09:52:07.001Z</time></trkpt><trkpt lat="43.04309630969091" lon="-2.2560301452102203"><ele>200.85714285714283</ele><time>2026-04-30T09:52:08.001Z</time></trkpt><trkpt lat="43.0431675255285" lon="-2.256077638524052"><ele>201.42857142857142</ele><time>2026-04-30T09:52:09.001Z</time></trkpt><trkpt lat="43.043236590782364" lon="-2.2561211574558713"><ele>202.0</ele><time>2026-04-30T09:52:10.001Z</time></trkpt><trkpt lat="43.043307686359384" lon="-2.2561712473959386"><ele>202.16666666666666</ele><time>2026-04-30T09:52:11.001Z</time></trkpt><trkpt lat="43.043382234038305" lon="-2.2562245855500564"><ele>202.33333333333331</ele><time>2026-04-30T09:52:12.001Z</time></trkpt><trkpt lat="43.04345306424415" lon="-2.2562697444447255"><ele>202.5</ele><time>2026-04-30T09:52:13.001Z</time></trkpt><trkpt lat="43.043529520103675" lon="-2.256319150446539"><ele>202.66666666666669</ele><time>2026-04-30T09:52:14.001Z</time></trkpt><trkpt lat="43.043598214190744" lon="-2.2563804141470274"><ele>202.83333333333334</ele><time>2026-04-30T09:52:15.001Z</time></trkpt><trkpt lat="43.043671202642976" lon="-2.256440111616311"><ele>203.0</ele><time>2026-04-30T09:52:16.001Z</time></trkpt><trkpt lat="43.04374420126654" lon="-2.2565000379931166"><ele>203.00000000000003</ele><time>2026-04-30T09:52:17.002Z</time></trkpt><trkpt lat="43.0438221514016" lon="-2.2565508420666345"><ele>203.0</ele><time>2026-04-30T09:52:18.002Z</time></trkpt><trkpt lat="43.043891864354464" lon="-2.256614643686031"><ele>203.0</ele><time>2026-04-30T09:52:19.002Z</time></trkpt><trkpt lat="43.04396413362484" lon="-2.256683490278671"><ele>203.0</ele><time>2026-04-30T09:52:20.002Z</time></trkpt><trkpt lat="43.04403172060988" lon="-2.2567511067295043"><ele>203.00000000000003</ele><time>2026-04-30T09:52:21.002Z</time></trkpt><trkpt lat="43.04409847997105" lon="-2.256826968577463"><ele>203.0</ele><time>2026-04-30T09:52:22.002Z</time></trkpt><trkpt lat="43.044163271191195" lon="-2.2569076025110237"><ele>202.4</ele><time>2026-04-30T09:52:23.002Z</time></trkpt><trkpt lat="43.044225763180386" lon="-2.2569936342831975"><ele>201.8</ele><time>2026-04-30T09:52:24.002Z</time></trkpt><trkpt lat="43.04428568783291" lon="-2.257085038877738"><ele>201.2</ele><time>2026-04-30T09:52:25.002Z</time></trkpt><trkpt lat="43.04435250104669" lon="-2.2571711690676444"><ele>200.6</ele><time>2026-04-30T09:52:26.002Z</time></trkpt><trkpt lat="43.044415053045114" lon="-2.257257629641694"><ele>200.0</ele><time>2026-04-30T09:52:27.002Z</time></trkpt><trkpt lat="43.044481230365506" lon="-2.257343154563206"><ele>200.0</ele><time>2026-04-30T09:52:28.002Z</time></trkpt><trkpt lat="43.044548572259096" lon="-2.257431813858197"><ele>200.0</ele><time>2026-04-30T09:52:29.002Z</time></trkpt><trkpt lat="43.04460991750204" lon="-2.257519643942776"><ele>200.0</ele><time>2026-04-30T09:52:30.002Z</time></trkpt><trkpt lat="43.04468328960035" lon="-2.2576087799991136"><ele>200.0</ele><time>2026-04-30T09:52:31.002Z</time></trkpt><trkpt lat="43.044733285860346" lon="-2.2577013495393743"><ele>200.0</ele><time>2026-04-30T09:52:32.002Z</time></trkpt><trkpt lat="43.044810398639285" lon="-2.257790861133755"><ele>200.0</ele><time>2026-04-30T09:52:33.002Z</time></trkpt><trkpt lat="43.04487674330675" lon="-2.25788392587571"><ele>200.0</ele><time>2026-04-30T09:52:34.002Z</time></trkpt><trkpt lat="43.04493523367659" lon="-2.257984749286689"><ele>200.0</ele><time>2026-04-30T09:52:35.002Z</time></trkpt><trkpt lat="43.0449954609749" lon="-2.2580806234287105"><ele>200.0</ele><time>2026-04-30T09:52:36.002Z</time></trkpt><trkpt lat="43.045050851054185" lon="-2.258180833518835"><ele>200.0</ele><time>2026-04-30T09:52:37.002Z</time></trkpt><trkpt lat="43.04511160185902" lon="-2.2582775016465058"><ele>200.4</ele><time>2026-04-30T09:52:38.002Z</time></trkpt><trkpt lat="43.04517407867226" lon="-2.2583768459945808"><ele>200.8</ele><time>2026-04-30T09:52:39.002Z</time></trkpt><trkpt lat="43.04523607242232" lon="-2.2584751253361515"><ele>201.2</ele><time>2026-04-30T09:52:40.002Z</time></trkpt><trkpt lat="43.045297506406506" lon="-2.2585785523108703"><ele>201.6</ele><time>2026-04-30T09:52:41.002Z</time></trkpt><trkpt lat="43.04535963322055" lon="-2.258679724388184"><ele>202.0</ele><time>2026-04-30T09:52:42.002Z</time></trkpt><trkpt lat="43.045422912546904" lon="-2.258777907354914"><ele>202.0</ele><time>2026-04-30T09:52:43.002Z</time></trkpt><trkpt lat="43.045487293159425" lon="-2.2588778326728853"><ele>202.0</ele><time>2026-04-30T09:52:44.002Z</time></trkpt><trkpt lat="43.045549411268276" lon="-2.2589791579545055"><ele>202.0</ele><time>2026-04-30T09:52:45.002Z</time></trkpt><trkpt lat="43.04561350547565" lon="-2.2590813044735056"><ele>202.0</ele><time>2026-04-30T09:52:46.002Z</time></trkpt><trkpt lat="43.04567771901056" lon="-2.2591839300818073"><ele>202.0</ele><time>2026-04-30T09:52:47.002Z</time></trkpt><trkpt lat="43.04574854564609" lon="-2.259280729866521"><ele>202.39999999999998</ele><time>2026-04-30T09:52:48.002Z</time></trkpt><trkpt lat="43.0458207796661" lon="-2.2593680304040085"><ele>202.79999999999998</ele><time>2026-04-30T09:52:49.002Z</time></trkpt><trkpt lat="43.04589881301647" lon="-2.2594513887704255"><ele>203.2</ele><time>2026-04-30T09:52:50.002Z</time></trkpt><trkpt lat="43.045984848930225" lon="-2.259520758965243"><ele>203.6</ele><time>2026-04-30T09:52:51.002Z</time></trkpt><trkpt lat="43.04607961399954" lon="-2.25956245806947"><ele>204.0</ele><time>2026-04-30T09:52:52.002Z</time></trkpt><trkpt lat="43.046168899968364" lon="-2.2596141592497285"><ele>204.0</ele><time>2026-04-30T09:52:53.002Z</time></trkpt><trkpt lat="43.046257485822466" lon="-2.259659153064723"><ele>204.0</ele><time>2026-04-30T09:52:54.002Z</time></trkpt><trkpt lat="43.04634728975019" lon="-2.259700670511763"><ele>204.0</ele><time>2026-04-30T09:52:55.002Z</time></trkpt><trkpt lat="43.04643599250338" lon="-2.2597401065069"><ele>204.0</ele><time>2026-04-30T09:52:56.002Z</time></trkpt><trkpt lat="43.04651997479976" lon="-2.259783358593258"><ele>204.0</ele><time>2026-04-30T09:52:57.002Z</time></trkpt><trkpt lat="43.046603656815435" lon="-2.2598235945580156"><ele>203.66666666666666</ele><time>2026-04-30T09:52:58.002Z</time></trkpt><trkpt lat="43.04668895528505" lon="-2.259864706965899"><ele>203.33333333333331</ele><time>2026-04-30T09:52:59.002Z</time></trkpt><trkpt lat="43.046773220841175" lon="-2.2599070016297036"><ele>203.0</ele><time>2026-04-30T09:53:00.002Z</time></trkpt><trkpt lat="43.04685513227974" lon="-2.259947586748995"><ele>202.66666666666666</ele><time>2026-04-30T09:53:01.002Z</time></trkpt><trkpt lat="43.04693161069863" lon="-2.2599875043432203"><ele>202.33333333333331</ele><time>2026-04-30T09:53:02.002Z</time></trkpt><trkpt lat="43.04700510653812" lon="-2.2600237491031443"><ele>202.0</ele><time>2026-04-30T09:53:03.002Z</time></trkpt><trkpt lat="43.047078106420415" lon="-2.2600579256486584"><ele>201.99999999999997</ele><time>2026-04-30T09:53:04.002Z</time></trkpt><trkpt lat="43.04715073623964" lon="-2.260095203931162"><ele>202.0</ele><time>2026-04-30T09:53:05.002Z</time></trkpt><trkpt lat="43.047226961418225" lon="-2.2601352020779957"><ele>202.0</ele><time>2026-04-30T09:53:06.002Z</time></trkpt><trkpt lat="43.04730394003765" lon="-2.260173311816891"><ele>202.0</ele><time>2026-04-30T09:53:07.002Z</time></trkpt><trkpt lat="43.047380579309625" lon="-2.260212954437491"><ele>201.99999999999997</ele><time>2026-04-30T09:53:08.002Z</time></trkpt><trkpt lat="43.04745819130823" lon="-2.2602535016544882"><ele>202.0</ele><time>2026-04-30T09:53:09.001Z</time></trkpt><trkpt lat="43.04753835509274" lon="-2.2602940187682017"><ele>201.83333333333331</ele><time>2026-04-30T09:53:10.001Z</time></trkpt><trkpt lat="43.04761918843735" lon="-2.2603349034264024"><ele>201.66666666666666</ele><time>2026-04-30T09:53:11.001Z</time></trkpt><trkpt lat="43.047696958709665" lon="-2.2603777982719055"><ele>201.5</ele><time>2026-04-30T09:53:12.001Z</time></trkpt><trkpt lat="43.04777631230682" lon="-2.2604193040272396"><ele>201.33333333333331</ele><time>2026-04-30T09:53:13.001Z</time></trkpt><trkpt lat="43.04785706627859" lon="-2.2604603644074674"><ele>201.16666666666666</ele><time>2026-04-30T09:53:14.001Z</time></trkpt><trkpt lat="43.047936433213685" lon="-2.260502505038223"><ele>201.0</ele><time>2026-04-30T09:53:15.001Z</time></trkpt><trkpt lat="43.048012285670474" lon="-2.2605461029801437"><ele>201.0</ele><time>2026-04-30T09:53:16.001Z</time></trkpt><trkpt lat="43.04809320572073" lon="-2.2605894252133703"><ele>201.0</ele><time>2026-04-30T09:53:17.001Z</time></trkpt><trkpt lat="43.048179992597944" lon="-2.2606255637648824"><ele>201.0</ele><time>2026-04-30T09:53:18.001Z</time></trkpt><trkpt lat="43.048262696371495" lon="-2.2606673494892906"><ele>201.0</ele><time>2026-04-30T09:53:19.001Z</time></trkpt><trkpt lat="43.048343194856166" lon="-2.260711273195279"><ele>201.0</ele><time>2026-04-30T09:53:20.001Z</time></trkpt><trkpt lat="43.04843023735522" lon="-2.260756139707995"><ele>201.0</ele><time>2026-04-30T09:53:21.001Z</time></trkpt><trkpt lat="43.04851317169191" lon="-2.2607980318982976"><ele>201.75</ele><time>2026-04-30T09:53:22.001Z</time></trkpt><trkpt lat="43.048611660577336" lon="-2.260841335214414"><ele>202.5</ele><time>2026-04-30T09:53:23.001Z</time></trkpt><trkpt lat="43.04869614913626" lon="-2.2608624938457096"><ele>203.25</ele><time>2026-04-30T09:53:24.001Z</time></trkpt><trkpt lat="43.04877276759483" lon="-2.2608989590560697"><ele>204.0</ele><time>2026-04-30T09:53:25.001Z</time></trkpt><trkpt lat="43.04895122312925" lon="-2.261021997601781"><ele>204.0</ele><time>2026-04-30T09:53:27.001Z</time></trkpt><trkpt lat="43.049038077504896" lon="-2.261065759892588"><ele>204.0</ele><time>2026-04-30T09:53:28.001Z</time></trkpt><trkpt lat="43.04912584396748" lon="-2.261111710227264"><ele>204.0</ele><time>2026-04-30T09:53:29.001Z</time></trkpt><trkpt lat="43.04921403054347" lon="-2.2611586221462194"><ele>204.0</ele><time>2026-04-30T09:53:30.001Z</time></trkpt><trkpt lat="43.049304491213945" lon="-2.2612071195148955"><ele>204.0</ele><time>2026-04-30T09:53:31.001Z</time></trkpt><trkpt lat="43.04939900728293" lon="-2.2612547351734937"><ele>203.79999999999998</ele><time>2026-04-30T09:53:32.001Z</time></trkpt><trkpt lat="43.04949109848287" lon="-2.2613061743471508"><ele>203.6</ele><time>2026-04-30T09:53:33.001Z</time></trkpt><trkpt lat="43.04958272692369" lon="-2.261354003939073"><ele>203.4</ele><time>2026-04-30T09:53:34.001Z</time></trkpt><trkpt lat="43.04967678471128" lon="-2.2614031066245683"><ele>203.2</ele><time>2026-04-30T09:53:35.001Z</time></trkpt><trkpt lat="43.049770049417546" lon="-2.2614523676063323"><ele>203.0</ele><time>2026-04-30T09:53:36.001Z</time></trkpt><trkpt lat="43.04986647719717" lon="-2.261501636428514"><ele>204.2</ele><time>2026-04-30T09:53:37.001Z</time></trkpt><trkpt lat="43.04995743443515" lon="-2.261554890158853"><ele>205.4</ele><time>2026-04-30T09:53:38.001Z</time></trkpt><trkpt lat="43.050051593100385" lon="-2.2616009957236995"><ele>206.6</ele><time>2026-04-30T09:53:39.001Z</time></trkpt><trkpt lat="43.05014412552936" lon="-2.261645557241718"><ele>207.79999999999998</ele><time>2026-04-30T09:53:40.001Z</time></trkpt><trkpt lat="43.05023775836343" lon="-2.2616929814011244"><ele>209.0</ele><time>2026-04-30T09:53:41.001Z</time></trkpt><trkpt lat="43.050328853318454" lon="-2.261740527277835"><ele>209.0</ele><time>2026-04-30T09:53:42.001Z</time></trkpt><trkpt lat="43.05041972787382" lon="-2.2617857639772203"><ele>209.0</ele><time>2026-04-30T09:53:43.001Z</time></trkpt><trkpt lat="43.05050972774778" lon="-2.2618351699151362"><ele>209.0</ele><time>2026-04-30T09:53:44.001Z</time></trkpt><trkpt lat="43.0506050128431" lon="-2.261875968527141"><ele>209.0</ele><time>2026-04-30T09:53:45.001Z</time></trkpt><trkpt lat="43.05068894607395" lon="-2.261910432804683"><ele>209.0</ele><time>2026-04-30T09:53:46.001Z</time></trkpt><trkpt lat="43.050775792267515" lon="-2.2619274005812215"><ele>208.50000000000003</ele><time>2026-04-30T09:53:47.001Z</time></trkpt><trkpt lat="43.05086099523157" lon="-2.2619347494447415"><ele>208.0</ele><time>2026-04-30T09:53:48.001Z</time></trkpt><trkpt lat="43.050936635503625" lon="-2.261927849177872"><ele>207.5</ele><time>2026-04-30T09:53:49.001Z</time></trkpt><trkpt lat="43.051008493487416" lon="-2.261875416275877"><ele>207.0</ele><time>2026-04-30T09:53:50.001Z</time></trkpt><trkpt lat="43.05107607831985" lon="-2.2618101614911654"><ele>206.50000000000003</ele><time>2026-04-30T09:53:51.001Z</time></trkpt><trkpt lat="43.05115014392588" lon="-2.2617590626706643"><ele>206.0</ele><time>2026-04-30T09:53:52.001Z</time></trkpt><trkpt lat="43.05123201724211" lon="-2.261742326161424"><ele>206.00000000000003</ele><time>2026-04-30T09:53:53.001Z</time></trkpt><trkpt lat="43.051310759567016" lon="-2.26177811209293"><ele>206.0</ele><time>2026-04-30T09:53:54.001Z</time></trkpt><trkpt lat="43.051373888095135" lon="-2.261870448298992"><ele>206.0</ele><time>2026-04-30T09:53:55.001Z</time></trkpt><trkpt lat="43.05141797119811" lon="-2.2619704657530857"><ele>206.0</ele><time>2026-04-30T09:53:56.001Z</time></trkpt><trkpt lat="43.0514586351572" lon="-2.262092151904412"><ele>206.00000000000003</ele><time>2026-04-30T09:53:57.001Z</time></trkpt><trkpt lat="43.05152046876995" lon="-2.262182363112846"><ele>206.0</ele><time>2026-04-30T09:53:58.001Z</time></trkpt><trkpt lat="43.051583511852805" lon="-2.2622797054302177"><ele>206.8</ele><time>2026-04-30T09:53:59.001Z</time></trkpt><trkpt lat="43.05166860957069" lon="-2.2623621623798167"><ele>207.60000000000002</ele><time>2026-04-30T09:54:00.001Z</time></trkpt><trkpt lat="43.05175921274814" lon="-2.2624247229448438"><ele>208.4</ele><time>2026-04-30T09:54:01.001Z</time></trkpt><trkpt lat="43.051850519547024" lon="-2.262479280344403"><ele>209.2</ele><time>2026-04-30T09:54:02.001Z</time></trkpt><trkpt lat="43.05194390470343" lon="-2.262529239989608"><ele>210.0</ele><time>2026-04-30T09:54:03.001Z</time></trkpt><trkpt lat="43.05203446078954" lon="-2.2625815465718917"><ele>210.0</ele><time>2026-04-30T09:54:04.001Z</time></trkpt><trkpt lat="43.05212216232405" lon="-2.2626401097223257"><ele>210.0</ele><time>2026-04-30T09:54:05.001Z</time></trkpt><trkpt lat="43.05221178750645" lon="-2.262687657290776"><ele>210.0</ele><time>2026-04-30T09:54:06.001Z</time></trkpt><trkpt lat="43.05230387258823" lon="-2.262739558706782"><ele>210.0</ele><time>2026-04-30T09:54:07.001Z</time></trkpt><trkpt lat="43.05239602667591" lon="-2.2627929905250816"><ele>210.0</ele><time>2026-04-30T09:54:08.001Z</time></trkpt><trkpt lat="43.052485175203024" lon="-2.2628487781430677"><ele>209.6</ele><time>2026-04-30T09:54:09.001Z</time></trkpt><trkpt lat="43.05257206163471" lon="-2.262914460661574"><ele>209.2</ele><time>2026-04-30T09:54:10.001Z</time></trkpt><trkpt lat="43.052660557052754" lon="-2.262983554096623"><ele>208.8</ele><time>2026-04-30T09:54:11.001Z</time></trkpt><trkpt lat="43.052744402292355" lon="-2.2630539920155743"><ele>208.4</ele><time>2026-04-30T09:54:12.001Z</time></trkpt><trkpt lat="43.05282910723909" lon="-2.263134028359091"><ele>208.0</ele><time>2026-04-30T09:54:13.001Z</time></trkpt><trkpt lat="43.052912798638566" lon="-2.26321462498841"><ele>208.0</ele><time>2026-04-30T09:54:14.001Z</time></trkpt><trkpt lat="43.052996481643326" lon="-2.263298931271644"><ele>208.0</ele><time>2026-04-30T09:54:15.001Z</time></trkpt><trkpt lat="43.05307465690551" lon="-2.263390164497147"><ele>208.0</ele><time>2026-04-30T09:54:16.001Z</time></trkpt><trkpt lat="43.05315207483401" lon="-2.263482492169983"><ele>208.0</ele><time>2026-04-30T09:54:17.001Z</time></trkpt><trkpt lat="43.05323210498157" lon="-2.2635778949514074"><ele>208.0</ele><time>2026-04-30T09:54:18.001Z</time></trkpt><trkpt lat="43.05331084620188" lon="-2.2636715923542323"><ele>207.8</ele><time>2026-04-30T09:54:19.001Z</time></trkpt><trkpt lat="43.05338626044286" lon="-2.2637724167880857"><ele>207.60000000000002</ele><time>2026-04-30T09:54:20.001Z</time></trkpt><trkpt lat="43.053460547280444" lon="-2.2638769563496948"><ele>207.39999999999998</ele><time>2026-04-30T09:54:21.001Z</time></trkpt><trkpt lat="43.053530307409424" lon="-2.263983196014848"><ele>207.2</ele><time>2026-04-30T09:54:22.001Z</time></trkpt><trkpt lat="43.05360163234794" lon="-2.264084835983234"><ele>207.0</ele><time>2026-04-30T09:54:23.001Z</time></trkpt><trkpt lat="43.05367570626026" lon="-2.2641851873923895"><ele>207.39999999999998</ele><time>2026-04-30T09:54:24.001Z</time></trkpt><trkpt lat="43.05374897474749" lon="-2.2642834818310313"><ele>207.79999999999998</ele><time>2026-04-30T09:54:25.001Z</time></trkpt><trkpt lat="43.05381920786978" lon="-2.264386746294884"><ele>208.2</ele><time>2026-04-30T09:54:26.001Z</time></trkpt><trkpt lat="43.053889642749816" lon="-2.2644881054580144"><ele>208.6</ele><time>2026-04-30T09:54:27.001Z</time></trkpt><trkpt lat="43.053960088682395" lon="-2.2645855678373237"><ele>209.0</ele><time>2026-04-30T09:54:28.001Z</time></trkpt><trkpt lat="43.05402898804548" lon="-2.264687103858242"><ele>209.6</ele><time>2026-04-30T09:54:29.001Z</time></trkpt><trkpt lat="43.05409866826856" lon="-2.264785042646558"><ele>210.2</ele><time>2026-04-30T09:54:30.001Z</time></trkpt><trkpt lat="43.05416896133593" lon="-2.2648869637290194"><ele>210.79999999999998</ele><time>2026-04-30T09:54:31.001Z</time></trkpt><trkpt lat="43.054237979017834" lon="-2.2649857463681804"><ele>211.39999999999998</ele><time>2026-04-30T09:54:32.001Z</time></trkpt><trkpt lat="43.05430846282126" lon="-2.265080277611594"><ele>212.0</ele><time>2026-04-30T09:54:33.001Z</time></trkpt><trkpt lat="43.0543808151439" lon="-2.2651727674085924"><ele>212.0</ele><time>2026-04-30T09:54:34.001Z</time></trkpt><trkpt lat="43.054450274594124" lon="-2.2652703443097004"><ele>212.0</ele><time>2026-04-30T09:54:35.001Z</time></trkpt><trkpt lat="43.05452302377925" lon="-2.265359348815364"><ele>212.0</ele><time>2026-04-30T09:54:36.001Z</time></trkpt><trkpt lat="43.05460560057267" lon="-2.265443916809826"><ele>212.0</ele><time>2026-04-30T09:54:37.001Z</time></trkpt><trkpt lat="43.054687033341914" lon="-2.2655263591049026"><ele>212.0</ele><time>2026-04-30T09:54:38.002Z</time></trkpt><trkpt lat="43.05476798974354" lon="-2.265608227182253"><ele>212.8</ele><time>2026-04-30T09:54:39.002Z</time></trkpt><trkpt lat="43.054846272918496" lon="-2.265688466617912"><ele>213.6</ele><time>2026-04-30T09:54:40.002Z</time></trkpt><trkpt lat="43.054927658639045" lon="-2.2657626882097404"><ele>214.40000000000003</ele><time>2026-04-30T09:54:41.002Z</time></trkpt><trkpt lat="43.05500817628454" lon="-2.2658368508805604"><ele>215.20000000000002</ele><time>2026-04-30T09:54:42.002Z</time></trkpt><trkpt lat="43.05508845855105" lon="-2.2659091301309906"><ele>216.0</ele><time>2026-04-30T09:54:43.002Z</time></trkpt><trkpt lat="43.05517365072459" lon="-2.2659755863212228"><ele>216.0</ele><time>2026-04-30T09:54:44.002Z</time></trkpt><trkpt lat="43.05525977382298" lon="-2.266038942527237"><ele>216.00000000000003</ele><time>2026-04-30T09:54:45.002Z</time></trkpt><trkpt lat="43.05534421289329" lon="-2.266102122487456"><ele>216.00000000000003</ele><time>2026-04-30T09:54:46.002Z</time></trkpt><trkpt lat="43.05542596347412" lon="-2.266167784605377"><ele>216.0</ele><time>2026-04-30T09:54:47.002Z</time></trkpt><trkpt lat="43.055506813697434" lon="-2.266233896007214"><ele>216.0</ele><time>2026-04-30T09:54:48.002Z</time></trkpt><trkpt lat="43.055592654665084" lon="-2.2662958791520853"><ele>216.0</ele><time>2026-04-30T09:54:49.002Z</time></trkpt><trkpt lat="43.05567847332723" lon="-2.266354319732615"><ele>216.00000000000003</ele><time>2026-04-30T09:54:50.002Z</time></trkpt><trkpt lat="43.05576140241099" lon="-2.2664152617688127"><ele>216.00000000000003</ele><time>2026-04-30T09:54:51.002Z</time></trkpt><trkpt lat="43.055842271631036" lon="-2.2664785335948783"><ele>216.0</ele><time>2026-04-30T09:54:52.002Z</time></trkpt><trkpt lat="43.05592688659418" lon="-2.2665419115556755"><ele>216.0</ele><time>2026-04-30T09:54:53.002Z</time></trkpt><trkpt lat="43.05601108347271" lon="-2.266602445712707"><ele>216.60000000000002</ele><time>2026-04-30T09:54:54.002Z</time></trkpt><trkpt lat="43.05609228090857" lon="-2.2666673837593185"><ele>217.20000000000002</ele><time>2026-04-30T09:54:55.002Z</time></trkpt><trkpt lat="43.0561750878347" lon="-2.266730481454267"><ele>217.79999999999998</ele><time>2026-04-30T09:54:56.002Z</time></trkpt><trkpt lat="43.05625987680442" lon="-2.2667957514164994"><ele>218.39999999999998</ele><time>2026-04-30T09:54:57.002Z</time></trkpt><trkpt lat="43.056345179355" lon="-2.2668544033034372"><ele>219.0</ele><time>2026-04-30T09:54:58.002Z</time></trkpt><trkpt lat="43.05642877721086" lon="-2.2669169167237047"><ele>219.0</ele><time>2026-04-30T09:54:59.002Z</time></trkpt><trkpt lat="43.05651365739591" lon="-2.2669882187431267"><ele>219.0</ele><time>2026-04-30T09:55:00.002Z</time></trkpt><trkpt lat="43.05658851571864" lon="-2.2670637635819713"><ele>219.0</ele><time>2026-04-30T09:55:01.002Z</time></trkpt><trkpt lat="43.056609742505444" lon="-2.2672031402277932"><ele>219.0</ele><time>2026-04-30T09:55:02.002Z</time></trkpt><trkpt lat="43.05677355237283" lon="-2.2671804347692937"><ele>217.79999999999998</ele><time>2026-04-30T09:55:03.002Z</time></trkpt><trkpt lat="43.05685944725582" lon="-2.267245450994476"><ele>216.59999999999997</ele><time>2026-04-30T09:55:04.002Z</time></trkpt><trkpt lat="43.056947746663006" lon="-2.2673074028024733"><ele>215.4</ele><time>2026-04-30T09:55:05.002Z</time></trkpt><trkpt lat="43.05703364006326" lon="-2.2673732854100592"><ele>214.2</ele><time>2026-04-30T09:55:06.002Z</time></trkpt><trkpt lat="43.057122555713335" lon="-2.267439061912724"><ele>213.0</ele><time>2026-04-30T09:55:07.002Z</time></trkpt><trkpt lat="43.05721311799749" lon="-2.2675016087550013"><ele>214.0</ele><time>2026-04-30T09:55:08.002Z</time></trkpt><trkpt lat="43.05730008811986" lon="-2.267569525691674"><ele>215.0</ele><time>2026-04-30T09:55:09.002Z</time></trkpt><trkpt lat="43.057386965166565" lon="-2.267636221027699"><ele>216.0</ele><time>2026-04-30T09:55:10.002Z</time></trkpt><trkpt lat="43.057475524272256" lon="-2.2676987092581387"><ele>217.0</ele><time>2026-04-30T09:55:11.002Z</time></trkpt><trkpt lat="43.0575639315317" lon="-2.267767384352601"><ele>218.0</ele><time>2026-04-30T09:55:12.002Z</time></trkpt><trkpt lat="43.05765574387259" lon="-2.267836605168229"><ele>218.0</ele><time>2026-04-30T09:55:13.002Z</time></trkpt><trkpt lat="43.057744760369765" lon="-2.267907934535556"><ele>218.0</ele><time>2026-04-30T09:55:14.002Z</time></trkpt><trkpt lat="43.05783467103632" lon="-2.267977807809508"><ele>218.0</ele><time>2026-04-30T09:55:15Z</time></trkpt><trkpt lat="43.05792448255484" lon="-2.2680482311721124"><ele>218.0</ele><time>2026-04-30T09:55:16Z</time></trkpt><trkpt lat="43.05801687327072" lon="-2.2681103680038204"><ele>218.0</ele><time>2026-04-30T09:55:17Z</time></trkpt><trkpt lat="43.05810774111536" lon="-2.2681832152469332"><ele>219.0</ele><time>2026-04-30T09:55:18Z</time></trkpt><trkpt lat="43.05820151116357" lon="-2.2682481829552827"><ele>220.0</ele><time>2026-04-30T09:55:19Z</time></trkpt><trkpt lat="43.05829558752418" lon="-2.2683169600049897"><ele>221.0</ele><time>2026-04-30T09:55:20Z</time></trkpt><trkpt lat="43.05839084100191" lon="-2.2683914089310377"><ele>222.0</ele><time>2026-04-30T09:55:21Z</time></trkpt><trkpt lat="43.058487236696614" lon="-2.268459018579722"><ele>223.0</ele><time>2026-04-30T09:55:22Z</time></trkpt><trkpt lat="43.058585290869566" lon="-2.268529427687218"><ele>223.0</ele><time>2026-04-30T09:55:23Z</time></trkpt><trkpt lat="43.05867644432958" lon="-2.268605589205823"><ele>223.0</ele><time>2026-04-30T09:55:24Z</time></trkpt><trkpt lat="43.05877234036743" lon="-2.268682660062879"><ele>223.0</ele><time>2026-04-30T09:55:25Z</time></trkpt><trkpt lat="43.05886348185929" lon="-2.2687483671831794"><ele>223.0</ele><time>2026-04-30T09:55:26Z</time></trkpt><trkpt lat="43.058952556980394" lon="-2.2688285393152965"><ele>223.0</ele><time>2026-04-30T09:55:27Z</time></trkpt><trkpt lat="43.05903778951576" lon="-2.268912755735843"><ele>222.0</ele><time>2026-04-30T09:55:28Z</time></trkpt><trkpt lat="43.05912487531844" lon="-2.269002354665269"><ele>221.0</ele><time>2026-04-30T09:55:29Z</time></trkpt><trkpt lat="43.05920256419967" lon="-2.2690929985925505"><ele>220.0</ele><time>2026-04-30T09:55:30Z</time></trkpt><trkpt lat="43.059283721693184" lon="-2.269185081256173"><ele>219.0</ele><time>2026-04-30T09:55:31Z</time></trkpt><trkpt lat="43.059370712492864" lon="-2.2692835453246674"><ele>218.0</ele><time>2026-04-30T09:55:32Z</time></trkpt><trkpt lat="43.05944654432833" lon="-2.2693823079527307"><ele>218.0</ele><time>2026-04-30T09:55:33Z</time></trkpt><trkpt lat="43.05951866493468" lon="-2.2694899176541385"><ele>218.0</ele><time>2026-04-30T09:55:34Z</time></trkpt><trkpt lat="43.05958859218002" lon="-2.269601547144665"><ele>218.0</ele><time>2026-04-30T09:55:35Z</time></trkpt><trkpt lat="43.059658824910755" lon="-2.2697122337152367"><ele>218.0</ele><time>2026-04-30T09:55:36Z</time></trkpt><trkpt lat="43.05973034367123" lon="-2.269823984730318"><ele>218.0</ele><time>2026-04-30T09:55:37Z</time></trkpt><trkpt lat="43.05979974549912" lon="-2.2699328354664297"><ele>218.0</ele><time>2026-04-30T09:55:38Z</time></trkpt><trkpt lat="43.05986760887983" lon="-2.2700483612026803"><ele>218.0</ele><time>2026-04-30T09:55:39Z</time></trkpt><trkpt lat="43.05993785131964" lon="-2.270159297379675"><ele>218.0</ele><time>2026-04-30T09:55:40Z</time></trkpt><trkpt lat="43.060004805241505" lon="-2.2702681648670766"><ele>218.0</ele><time>2026-04-30T09:55:41Z</time></trkpt><trkpt lat="43.06007201914538" lon="-2.2703750776292884"><ele>218.0</ele><time>2026-04-30T09:55:42Z</time></trkpt><trkpt lat="43.060143979324835" lon="-2.270485815532943"><ele>218.0</ele><time>2026-04-30T09:55:43Z</time></trkpt><trkpt lat="43.060199421419476" lon="-2.2705861971755548"><ele>218.0</ele><time>2026-04-30T09:55:44Z</time></trkpt><trkpt lat="43.06022057110829" lon="-2.2706887162390976"><ele>218.0</ele><time>2026-04-30T09:55:45Z</time></trkpt><trkpt lat="43.0602705374263" lon="-2.270803706511578"><ele>218.0</ele><time>2026-04-30T09:55:46Z</time></trkpt><trkpt lat="43.060395772470926" lon="-2.2708988977474536"><ele>218.0</ele><time>2026-04-30T09:55:47Z</time></trkpt><trkpt lat="43.06047575596372" lon="-2.271003514643109"><ele>218.25</ele><time>2026-04-30T09:55:48Z</time></trkpt><trkpt lat="43.0605470265895" lon="-2.2711118967861177"><ele>218.5</ele><time>2026-04-30T09:55:49Z</time></trkpt><trkpt lat="43.060643142371646" lon="-2.271272356374175"><ele>218.75</ele><time>2026-04-30T09:55:50Z</time></trkpt><trkpt lat="43.06071973916472" lon="-2.2714589219009502"><ele>219.0</ele><time>2026-04-30T09:55:51Z</time></trkpt><trkpt lat="43.06081351381133" lon="-2.2715097674742837"><ele>219.39999999999998</ele><time>2026-04-30T09:55:53Z</time></trkpt><trkpt lat="43.06088018363283" lon="-2.271609202925861"><ele>219.79999999999998</ele><time>2026-04-30T09:55:54.001Z</time></trkpt><trkpt lat="43.06094766379961" lon="-2.271709489358531"><ele>220.20000000000002</ele><time>2026-04-30T09:55:55.001Z</time></trkpt><trkpt lat="43.06101242666061" lon="-2.271811649604794"><ele>220.60000000000002</ele><time>2026-04-30T09:55:56.001Z</time></trkpt><trkpt lat="43.061075738008135" lon="-2.2719107229409605"><ele>221.0</ele><time>2026-04-30T09:55:57.001Z</time></trkpt><trkpt lat="43.06114335162539" lon="-2.272009398073385"><ele>221.0</ele><time>2026-04-30T09:55:58.001Z</time></trkpt><trkpt lat="43.061211401087036" lon="-2.2721120802937085"><ele>221.00000000000003</ele><time>2026-04-30T09:55:59.001Z</time></trkpt><trkpt lat="43.06128103344898" lon="-2.272211396060506"><ele>221.00000000000003</ele><time>2026-04-30T09:56:00.001Z</time></trkpt><trkpt lat="43.06134567175739" lon="-2.2723099374713116"><ele>221.0</ele><time>2026-04-30T09:56:01.001Z</time></trkpt><trkpt lat="43.06141320474977" lon="-2.2724121001125477"><ele>221.0</ele><time>2026-04-30T09:56:02.001Z</time></trkpt><trkpt lat="43.06147777903277" lon="-2.2725159844256195"><ele>221.20000000000002</ele><time>2026-04-30T09:56:03.001Z</time></trkpt><trkpt lat="43.061542545309464" lon="-2.27261289064096"><ele>221.40000000000003</ele><time>2026-04-30T09:56:04.001Z</time></trkpt><trkpt lat="43.061604732603385" lon="-2.2727097788539146"><ele>221.6</ele><time>2026-04-30T09:56:05.001Z</time></trkpt><trkpt lat="43.06166791975295" lon="-2.2728057266439983"><ele>221.8</ele><time>2026-04-30T09:56:06.001Z</time></trkpt><trkpt lat="43.06173333783107" lon="-2.272901211376775"><ele>222.0</ele><time>2026-04-30T09:56:07.001Z</time></trkpt><trkpt lat="43.0618025747554" lon="-2.272998872851461"><ele>222.6</ele><time>2026-04-30T09:56:08.001Z</time></trkpt><trkpt lat="43.06186880149001" lon="-2.273099092801399"><ele>223.2</ele><time>2026-04-30T09:56:09.001Z</time></trkpt><trkpt lat="43.06194258533042" lon="-2.2731910008834"><ele>223.8</ele><time>2026-04-30T09:56:10.001Z</time></trkpt><trkpt lat="43.0620163095643" lon="-2.2732813292127783"><ele>224.4</ele><time>2026-04-30T09:56:11.001Z</time></trkpt><trkpt lat="43.06208871125363" lon="-2.2733724664762844"><ele>225.0</ele><time>2026-04-30T09:56:12.001Z</time></trkpt><trkpt lat="43.062161460551195" lon="-2.273466131103028"><ele>225.0</ele><time>2026-04-30T09:56:13.001Z</time></trkpt><trkpt lat="43.06223086237076" lon="-2.2735580135705695"><ele>225.0</ele><time>2026-04-30T09:56:14.001Z</time></trkpt><trkpt lat="43.06230198583289" lon="-2.2736479211331666"><ele>225.0</ele><time>2026-04-30T09:56:15.001Z</time></trkpt><trkpt lat="43.062369637287304" lon="-2.2737391348487006"><ele>225.0</ele><time>2026-04-30T09:56:16.001Z</time></trkpt><trkpt lat="43.06244311627529" lon="-2.2738262277838923"><ele>225.0</ele><time>2026-04-30T09:56:17.001Z</time></trkpt><trkpt lat="43.06250629907877" lon="-2.273916838751848"><ele>225.0</ele><time>2026-04-30T09:56:18.001Z</time></trkpt><trkpt lat="43.06258626796759" lon="-2.2740052008233245"><ele>225.0</ele><time>2026-04-30T09:56:19.001Z</time></trkpt><trkpt lat="43.06266143798074" lon="-2.2740756222113947"><ele>225.0</ele><time>2026-04-30T09:56:20.001Z</time></trkpt><trkpt lat="43.062747869883154" lon="-2.2741124381072715"><ele>225.0</ele><time>2026-04-30T09:56:21.001Z</time></trkpt><trkpt lat="43.06282708860055" lon="-2.2741918645783303"><ele>225.0</ele><time>2026-04-30T09:56:22.001Z</time></trkpt><trkpt lat="43.06290172946975" lon="-2.274273652036464"><ele>225.0</ele><time>2026-04-30T09:56:23.001Z</time></trkpt><trkpt lat="43.06296364451183" lon="-2.2743676145212675"><ele>225.0</ele><time>2026-04-30T09:56:24.001Z</time></trkpt><trkpt lat="43.063017698360795" lon="-2.2744695968420015"><ele>225.0</ele><time>2026-04-30T09:56:25.001Z</time></trkpt><trkpt lat="43.063053429366114" lon="-2.274574858420381"><ele>225.0</ele><time>2026-04-30T09:56:26.001Z</time></trkpt><trkpt lat="43.06307596966118" lon="-2.2746782904861296"><ele>225.0</ele><time>2026-04-30T09:56:27.001Z</time></trkpt><trkpt lat="43.06310281986541" lon="-2.274776630289098"><ele>225.0</ele><time>2026-04-30T09:56:28.001Z</time></trkpt><trkpt lat="43.06315975041977" lon="-2.2749197436627004"><ele>225.2</ele><time>2026-04-30T09:56:30.001Z</time></trkpt><trkpt lat="43.06326165108317" lon="-2.2749799524854644"><ele>225.4</ele><time>2026-04-30T09:56:32.001Z</time></trkpt><trkpt lat="43.0633763583139" lon="-2.27502623176269"><ele>225.60000000000002</ele><time>2026-04-30T09:56:34.001Z</time></trkpt><trkpt lat="43.06342850627326" lon="-2.275111035905903"><ele>225.8</ele><time>2026-04-30T09:56:35.001Z</time></trkpt><trkpt lat="43.063465660826" lon="-2.2752033309365256"><ele>226.0</ele><time>2026-04-30T09:56:36.001Z</time></trkpt><trkpt lat="43.063516498089264" lon="-2.275285758748956"><ele>225.99999999999997</ele><time>2026-04-30T09:56:37.001Z</time></trkpt><trkpt lat="43.06358711975447" lon="-2.27534485040246"><ele>226.0</ele><time>2026-04-30T09:56:38.001Z</time></trkpt><trkpt lat="43.063667090652665" lon="-2.275379111423637"><ele>226.0</ele><time>2026-04-30T09:56:39.001Z</time></trkpt><trkpt lat="43.063750614002444" lon="-2.275392771556791"><ele>226.0</ele><time>2026-04-30T09:56:40.001Z</time></trkpt><trkpt lat="43.06383191292637" lon="-2.2754146279014837"><ele>225.99999999999997</ele><time>2026-04-30T09:56:41.001Z</time></trkpt><trkpt lat="43.06391130962078" lon="-2.2754530411956013"><ele>226.0</ele><time>2026-04-30T09:56:42.001Z</time></trkpt><trkpt lat="43.063987114036124" lon="-2.2755051398478066"><ele>226.0</ele><time>2026-04-30T09:56:43.001Z</time></trkpt><trkpt lat="43.064058730082856" lon="-2.2755732351962155"><ele>226.00000000000003</ele><time>2026-04-30T09:56:44.001Z</time></trkpt><trkpt lat="43.06412812659958" lon="-2.275650179057479"><ele>226.00000000000003</ele><time>2026-04-30T09:56:45.001Z</time></trkpt><trkpt lat="43.06419597605078" lon="-2.275733702988794"><ele>226.0</ele><time>2026-04-30T09:56:46.001Z</time></trkpt><trkpt lat="43.06426597200388" lon="-2.2758167276364296"><ele>226.0</ele><time>2026-04-30T09:56:47.001Z</time></trkpt><trkpt lat="43.0643350006436" lon="-2.275901859618853"><ele>226.4</ele><time>2026-04-30T09:56:48.001Z</time></trkpt><trkpt lat="43.064404784668135" lon="-2.275987054884348"><ele>226.8</ele><time>2026-04-30T09:56:49.001Z</time></trkpt><trkpt lat="43.064473307796185" lon="-2.276070137404677"><ele>227.20000000000002</ele><time>2026-04-30T09:56:50.001Z</time></trkpt><trkpt lat="43.06453843899726" lon="-2.2761544233647726"><ele>227.60000000000002</ele><time>2026-04-30T09:56:51.001Z</time></trkpt><trkpt lat="43.064608249558304" lon="-2.2762441036956855"><ele>228.0</ele><time>2026-04-30T09:56:52.001Z</time></trkpt><trkpt lat="43.0646466066261" lon="-2.2763804781540244"><ele>228.0</ele><time>2026-04-30T09:56:53.001Z</time></trkpt><trkpt lat="43.06476484834095" lon="-2.2764050749209694"><ele>228.0</ele><time>2026-04-30T09:56:54.001Z</time></trkpt><trkpt lat="43.06483807264659" lon="-2.2764879174693777"><ele>228.0</ele><time>2026-04-30T09:56:55.001Z</time></trkpt><trkpt lat="43.06491055523039" lon="-2.2765687574125644"><ele>228.0</ele><time>2026-04-30T09:56:56.001Z</time></trkpt><trkpt lat="43.06498635565856" lon="-2.2766495337937154"><ele>228.0</ele><time>2026-04-30T09:56:57.001Z</time></trkpt><trkpt lat="43.06505778413207" lon="-2.2767295988685414"><ele>228.0</ele><time>2026-04-30T09:56:58.001Z</time></trkpt><trkpt lat="43.06512516515197" lon="-2.2768131215948073"><ele>228.0</ele><time>2026-04-30T09:56:59.001Z</time></trkpt><trkpt lat="43.06519525443902" lon="-2.2768934572827697"><ele>228.0</ele><time>2026-04-30T09:57:00.001Z</time></trkpt><trkpt lat="43.06526552056256" lon="-2.2769800854101487"><ele>228.0</ele><time>2026-04-30T09:57:01.001Z</time></trkpt><trkpt lat="43.0653344877603" lon="-2.2770609984330794"><ele>228.0</ele><time>2026-04-30T09:57:02.001Z</time></trkpt><trkpt lat="43.06540430361849" lon="-2.277145979797516"><ele>228.0</ele><time>2026-04-30T09:57:03.001Z</time></trkpt><trkpt lat="43.06547226524652" lon="-2.2772355430339672"><ele>228.0</ele><time>2026-04-30T09:57:04.001Z</time></trkpt><trkpt lat="43.06553767919255" lon="-2.2773227882497067"><ele>228.0</ele><time>2026-04-30T09:57:05.001Z</time></trkpt><trkpt lat="43.0656064420924" lon="-2.2774036448069706"><ele>228.0</ele><time>2026-04-30T09:57:06.002Z</time></trkpt><trkpt lat="43.06567687176804" lon="-2.2774890746545164"><ele>228.0</ele><time>2026-04-30T09:57:07.002Z</time></trkpt><trkpt lat="43.065750439234236" lon="-2.277572064894802"><ele>228.8</ele><time>2026-04-30T09:57:08.002Z</time></trkpt><trkpt lat="43.06582843427424" lon="-2.277650307979252"><ele>229.60000000000002</ele><time>2026-04-30T09:57:09.002Z</time></trkpt><trkpt lat="43.06590804500812" lon="-2.2777196881298507"><ele>230.39999999999998</ele><time>2026-04-30T09:57:10.002Z</time></trkpt><trkpt lat="43.06598543470651" lon="-2.277792542201368"><ele>231.2</ele><time>2026-04-30T09:57:11.002Z</time></trkpt><trkpt lat="43.06606044506358" lon="-2.2778762186890975"><ele>232.0</ele><time>2026-04-30T09:57:12.002Z</time></trkpt><trkpt lat="43.0661274393126" lon="-2.2779651817101754"><ele>232.0</ele><time>2026-04-30T09:57:13.002Z</time></trkpt><trkpt lat="43.066193864976114" lon="-2.2780597329904473"><ele>232.0</ele><time>2026-04-30T09:57:14.002Z</time></trkpt><trkpt lat="43.06625729968781" lon="-2.278159407450663"><ele>232.0</ele><time>2026-04-30T09:57:15.002Z</time></trkpt><trkpt lat="43.06632073327775" lon="-2.2782578628767847"><ele>232.0</ele><time>2026-04-30T09:57:16.002Z</time></trkpt><trkpt lat="43.06638325262684" lon="-2.2783620023427904"><ele>232.0</ele><time>2026-04-30T09:57:17.002Z</time></trkpt><trkpt lat="43.06644484679102" lon="-2.278471245960991"><ele>232.39999999999998</ele><time>2026-04-30T09:57:18.002Z</time></trkpt><trkpt lat="43.06650289528463" lon="-2.2785806033647593"><ele>232.79999999999998</ele><time>2026-04-30T09:57:19.002Z</time></trkpt><trkpt lat="43.066556586377764" lon="-2.27869244516698"><ele>233.2</ele><time>2026-04-30T09:57:20.002Z</time></trkpt><trkpt lat="43.066607574378374" lon="-2.2788066737091457"><ele>233.6</ele><time>2026-04-30T09:57:21Z</time></trkpt><trkpt lat="43.066662320134014" lon="-2.2789179773858566"><ele>234.0</ele><time>2026-04-30T09:57:22Z</time></trkpt><trkpt lat="43.066711300630494" lon="-2.279036911375682"><ele>234.0</ele><time>2026-04-30T09:57:23Z</time></trkpt><trkpt lat="43.06675796174009" lon="-2.279158112355601"><ele>233.99999999999997</ele><time>2026-04-30T09:57:24Z</time></trkpt><trkpt lat="43.0668059208197" lon="-2.279280384739339"><ele>233.99999999999997</ele><time>2026-04-30T09:57:25Z</time></trkpt><trkpt lat="43.06685303307947" lon="-2.2794050948044537"><ele>234.0</ele><time>2026-04-30T09:57:26Z</time></trkpt><trkpt lat="43.06689433467384" lon="-2.2795322568272773"><ele>234.0</ele><time>2026-04-30T09:57:27Z</time></trkpt><trkpt lat="43.06693968515569" lon="-2.279654909710092"><ele>233.39999999999998</ele><time>2026-04-30T09:57:28Z</time></trkpt><trkpt lat="43.066982193540696" lon="-2.2797807527149896"><ele>232.79999999999998</ele><time>2026-04-30T09:57:29Z</time></trkpt><trkpt lat="43.067026061982986" lon="-2.279907125136154"><ele>232.20000000000002</ele><time>2026-04-30T09:57:30Z</time></trkpt><trkpt lat="43.06707077990677" lon="-2.280032954835651"><ele>231.60000000000002</ele><time>2026-04-30T09:57:31Z</time></trkpt><trkpt lat="43.067118642249405" lon="-2.2801565363078864"><ele>231.0</ele><time>2026-04-30T09:57:32Z</time></trkpt><trkpt lat="43.067163726101654" lon="-2.280281795431251"><ele>231.0</ele><time>2026-04-30T09:57:33Z</time></trkpt><trkpt lat="43.06720838825244" lon="-2.280407934831746"><ele>231.00000000000003</ele><time>2026-04-30T09:57:34Z</time></trkpt><trkpt lat="43.067251389004426" lon="-2.280535669202734"><ele>231.00000000000003</ele><time>2026-04-30T09:57:35Z</time></trkpt><trkpt lat="43.067296258313014" lon="-2.280662201504727"><ele>231.0</ele><time>2026-04-30T09:57:36Z</time></trkpt><trkpt lat="43.06734224589592" lon="-2.2807863337139955"><ele>231.0</ele><time>2026-04-30T09:57:37Z</time></trkpt><trkpt lat="43.06738633859169" lon="-2.2809154210619766"><ele>231.20000000000002</ele><time>2026-04-30T09:57:38Z</time></trkpt><trkpt lat="43.06743068941227" lon="-2.281040747936933"><ele>231.40000000000003</ele><time>2026-04-30T09:57:39Z</time></trkpt><trkpt lat="43.06747570236749" lon="-2.2811668665986997"><ele>231.6</ele><time>2026-04-30T09:57:40Z</time></trkpt><trkpt lat="43.067520417497946" lon="-2.2812918178154016"><ele>231.8</ele><time>2026-04-30T09:57:41Z</time></trkpt><trkpt lat="43.06756548871296" lon="-2.2814162024321503"><ele>232.0</ele><time>2026-04-30T09:57:42Z</time></trkpt><trkpt lat="43.06761198462008" lon="-2.2815403170296773"><ele>232.6</ele><time>2026-04-30T09:57:43Z</time></trkpt><trkpt lat="43.067655225010064" lon="-2.28166423919656"><ele>233.2</ele><time>2026-04-30T09:57:44Z</time></trkpt><trkpt lat="43.06769822244497" lon="-2.2817885128468007"><ele>233.8</ele><time>2026-04-30T09:57:45Z</time></trkpt><trkpt lat="43.067744684167735" lon="-2.2819104310686904"><ele>234.4</ele><time>2026-04-30T09:57:46Z</time></trkpt><trkpt lat="43.06778671394622" lon="-2.282036265663036"><ele>235.0</ele><time>2026-04-30T09:57:47Z</time></trkpt><trkpt lat="43.06782800525813" lon="-2.282160620225266"><ele>235.2</ele><time>2026-04-30T09:57:48Z</time></trkpt><trkpt lat="43.06786669891074" lon="-2.282289018483868"><ele>235.4</ele><time>2026-04-30T09:57:49Z</time></trkpt><trkpt lat="43.067890460334446" lon="-2.2824107999774923"><ele>235.60000000000002</ele><time>2026-04-30T09:57:50Z</time></trkpt><trkpt lat="43.067932030274" lon="-2.282535474604333"><ele>235.8</ele><time>2026-04-30T09:57:51Z</time></trkpt><trkpt lat="43.06796798094842" lon="-2.282657525133829"><ele>236.0</ele><time>2026-04-30T09:57:52Z</time></trkpt><trkpt lat="43.06801102607059" lon="-2.2827808126301052"><ele>236.0</ele><time>2026-04-30T09:57:53Z</time></trkpt><trkpt lat="43.06805606965503" lon="-2.282901563923704"><ele>236.00000000000003</ele><time>2026-04-30T09:57:54Z</time></trkpt><trkpt lat="43.06809903410397" lon="-2.2830195830264133"><ele>236.00000000000003</ele><time>2026-04-30T09:57:55Z</time></trkpt><trkpt lat="43.06813916853172" lon="-2.2831376453361223"><ele>236.0</ele><time>2026-04-30T09:57:56Z</time></trkpt><trkpt lat="43.0681814899548" lon="-2.2832554071157336"><ele>236.0</ele><time>2026-04-30T09:57:57Z</time></trkpt><trkpt lat="43.06822671410351" lon="-2.2833719445639327"><ele>236.0</ele><time>2026-04-30T09:57:58Z</time></trkpt><trkpt lat="43.068269019451876" lon="-2.28348900912751"><ele>236.00000000000003</ele><time>2026-04-30T09:57:59Z</time></trkpt><trkpt lat="43.06831458531419" lon="-2.283607692173947"><ele>236.00000000000003</ele><time>2026-04-30T09:58:00Z</time></trkpt><trkpt lat="43.06835751237453" lon="-2.283729119725212"><ele>236.0</ele><time>2026-04-30T09:58:01Z</time></trkpt><trkpt lat="43.06840109757687" lon="-2.2838458111185185"><ele>236.0</ele><time>2026-04-30T09:58:02.001Z</time></trkpt><trkpt lat="43.06844979599983" lon="-2.283962379348237"><ele>236.8</ele><time>2026-04-30T09:58:03.001Z</time></trkpt><trkpt lat="43.068500936749" lon="-2.284078898123224"><ele>237.60000000000002</ele><time>2026-04-30T09:58:04.001Z</time></trkpt><trkpt lat="43.068554569419064" lon="-2.284192133087767"><ele>238.4</ele><time>2026-04-30T09:58:05.001Z</time></trkpt><trkpt lat="43.0686088945159" lon="-2.2843035038856763"><ele>239.2</ele><time>2026-04-30T09:58:06.001Z</time></trkpt><trkpt lat="43.06866455298894" lon="-2.2844171377453892"><ele>240.0</ele><time>2026-04-30T09:58:07.001Z</time></trkpt><trkpt lat="43.068724039556386" lon="-2.2845271884899074"><ele>240.0</ele><time>2026-04-30T09:58:08.001Z</time></trkpt><trkpt lat="43.06878811476417" lon="-2.2846357401077975"><ele>240.0</ele><time>2026-04-30T09:58:09.001Z</time></trkpt><trkpt lat="43.0688554868977" lon="-2.2847410513691715"><ele>240.0</ele><time>2026-04-30T09:58:10.001Z</time></trkpt><trkpt lat="43.06892511120556" lon="-2.284844670768566"><ele>240.0</ele><time>2026-04-30T09:58:11.001Z</time></trkpt><trkpt lat="43.06899399600235" lon="-2.2849459614057017"><ele>240.0</ele><time>2026-04-30T09:58:12.001Z</time></trkpt><trkpt lat="43.06906533616727" lon="-2.285043848953431"><ele>240.6</ele><time>2026-04-30T09:58:13.001Z</time></trkpt><trkpt lat="43.06914560919637" lon="-2.285131158722746"><ele>241.2</ele><time>2026-04-30T09:58:14.001Z</time></trkpt><trkpt lat="43.06921794145761" lon="-2.285223692166725"><ele>241.8</ele><time>2026-04-30T09:58:15.001Z</time></trkpt><trkpt lat="43.069294824795925" lon="-2.2853128588173877"><ele>242.4</ele><time>2026-04-30T09:58:16.001Z</time></trkpt><trkpt lat="43.069370751558665" lon="-2.28540158874531"><ele>243.0</ele><time>2026-04-30T09:58:17.001Z</time></trkpt><trkpt lat="43.0694446092187" lon="-2.285493635177544"><ele>243.0</ele><time>2026-04-30T09:58:18.001Z</time></trkpt><trkpt lat="43.06951954969183" lon="-2.2855838856204036"><ele>243.0</ele><time>2026-04-30T09:58:19.001Z</time></trkpt><trkpt lat="43.06959267155323" lon="-2.2856798831542657"><ele>243.0</ele><time>2026-04-30T09:58:20.001Z</time></trkpt><trkpt lat="43.06966340494631" lon="-2.285772071888805"><ele>243.0</ele><time>2026-04-30T09:58:21.001Z</time></trkpt><trkpt lat="43.069740066036104" lon="-2.285857540548119"><ele>243.0</ele><time>2026-04-30T09:58:22.001Z</time></trkpt><trkpt lat="43.06981205854065" lon="-2.285953712521379"><ele>242.4</ele><time>2026-04-30T09:58:23.001Z</time></trkpt><trkpt lat="43.06988784854959" lon="-2.2860440370153907"><ele>241.8</ele><time>2026-04-30T09:58:24.001Z</time></trkpt><trkpt lat="43.0699650015731" lon="-2.2861303386863168"><ele>241.2</ele><time>2026-04-30T09:58:25.001Z</time></trkpt><trkpt lat="43.0700379535776" lon="-2.286225836040217"><ele>240.6</ele><time>2026-04-30T09:58:26.001Z</time></trkpt><trkpt lat="43.07011360510615" lon="-2.2863175644048193"><ele>240.0</ele><time>2026-04-30T09:58:27.001Z</time></trkpt><trkpt lat="43.07019221919161" lon="-2.286404371982487"><ele>241.0</ele><time>2026-04-30T09:58:28.001Z</time></trkpt><trkpt lat="43.070272274302965" lon="-2.2864928633877133"><ele>242.0</ele><time>2026-04-30T09:58:29.001Z</time></trkpt><trkpt lat="43.070355184248484" lon="-2.2865773417393522"><ele>243.0</ele><time>2026-04-30T09:58:30.001Z</time></trkpt><trkpt lat="43.070443739947194" lon="-2.2866557583179703"><ele>244.0</ele><time>2026-04-30T09:58:31.001Z</time></trkpt><trkpt lat="43.070533528859094" lon="-2.286728229071771"><ele>245.0</ele><time>2026-04-30T09:58:32.001Z</time></trkpt><trkpt lat="43.070623714658375" lon="-2.286797401484925"><ele>245.0</ele><time>2026-04-30T09:58:33.001Z</time></trkpt><trkpt lat="43.07071533952673" lon="-2.2868628024133297"><ele>245.0</ele><time>2026-04-30T09:58:34.001Z</time></trkpt><trkpt lat="43.070808665025716" lon="-2.2869262770662395"><ele>245.0</ele><time>2026-04-30T09:58:35.001Z</time></trkpt><trkpt lat="43.0708991673268" lon="-2.2869851113204938"><ele>245.0</ele><time>2026-04-30T09:58:36.001Z</time></trkpt><trkpt lat="43.0709937852674" lon="-2.2870338650219204"><ele>245.0</ele><time>2026-04-30T09:58:37.001Z</time></trkpt><trkpt lat="43.07109125282337" lon="-2.287071131748015"><ele>245.4</ele><time>2026-04-30T09:58:38.001Z</time></trkpt><trkpt lat="43.07118671315972" lon="-2.287121170487939"><ele>245.8</ele><time>2026-04-30T09:58:39.001Z</time></trkpt><trkpt lat="43.0712745151101" lon="-2.287187442849127"><ele>246.2</ele><time>2026-04-30T09:58:40.001Z</time></trkpt><trkpt lat="43.071362517817334" lon="-2.287249045576851"><ele>246.6</ele><time>2026-04-30T09:58:41.001Z</time></trkpt><trkpt lat="43.07145246719882" lon="-2.2873051561778115"><ele>247.0</ele><time>2026-04-30T09:58:42.001Z</time></trkpt><trkpt lat="43.0715426534277" lon="-2.28736277339766"><ele>247.39999999999998</ele><time>2026-04-30T09:58:43.001Z</time></trkpt><trkpt lat="43.07163324419628" lon="-2.2874202798815935"><ele>247.79999999999998</ele><time>2026-04-30T09:58:44.001Z</time></trkpt><trkpt lat="43.07172110945127" lon="-2.28748549061408"><ele>248.2</ele><time>2026-04-30T09:58:45.001Z</time></trkpt><trkpt lat="43.07180388484898" lon="-2.287555308092729"><ele>248.6</ele><time>2026-04-30T09:58:46.001Z</time></trkpt><trkpt lat="43.07188673344066" lon="-2.2876289623458512"><ele>249.0</ele><time>2026-04-30T09:58:47.001Z</time></trkpt><trkpt lat="43.071972781427036" lon="-2.2876875889360258"><ele>249.0</ele><time>2026-04-30T09:58:48.001Z</time></trkpt><trkpt lat="43.07206136452046" lon="-2.28774561280838"><ele>248.99999999999997</ele><time>2026-04-30T09:58:49.001Z</time></trkpt><trkpt lat="43.07214979411983" lon="-2.287802923265244"><ele>248.99999999999997</ele><time>2026-04-30T09:58:50.001Z</time></trkpt><trkpt lat="43.072240398898124" lon="-2.2878600730067533"><ele>249.0</ele><time>2026-04-30T09:58:51.001Z</time></trkpt><trkpt lat="43.072330263408034" lon="-2.2879186847761575"><ele>249.0</ele><time>2026-04-30T09:58:52.001Z</time></trkpt><trkpt lat="43.072417605433635" lon="-2.287974612358402"><ele>249.0</ele><time>2026-04-30T09:58:53.001Z</time></trkpt><trkpt lat="43.07250899247746" lon="-2.288032266913736"><ele>248.99999999999997</ele><time>2026-04-30T09:58:54.001Z</time></trkpt><trkpt lat="43.07259629081512" lon="-2.2880916424938498"><ele>248.99999999999997</ele><time>2026-04-30T09:58:55.001Z</time></trkpt><trkpt lat="43.07268344437039" lon="-2.2881486353083695"><ele>249.0</ele><time>2026-04-30T09:58:56.001Z</time></trkpt><trkpt lat="43.07277139892265" lon="-2.2882053754511817"><ele>249.0</ele><time>2026-04-30T09:58:57.001Z</time></trkpt><trkpt lat="43.07286119239256" lon="-2.2882602147085054"><ele>249.0</ele><time>2026-04-30T09:58:58.001Z</time></trkpt><trkpt lat="43.07295015741814" lon="-2.2883177628000486"><ele>248.99999999999997</ele><time>2026-04-30T09:58:59.001Z</time></trkpt><trkpt lat="43.073040195369565" lon="-2.288375320427061"><ele>248.99999999999997</ele><time>2026-04-30T09:59:00.001Z</time></trkpt><trkpt lat="43.07312473222627" lon="-2.2884339211773725"><ele>249.0</ele><time>2026-04-30T09:59:01.001Z</time></trkpt><trkpt lat="43.07321437338433" lon="-2.2884929576355844"><ele>249.0</ele><time>2026-04-30T09:59:02.001Z</time></trkpt><trkpt lat="43.07330120938137" lon="-2.2885474538400783"><ele>250.6</ele><time>2026-04-30T09:59:03.001Z</time></trkpt><trkpt lat="43.07338863117891" lon="-2.288602454134707"><ele>252.2</ele><time>2026-04-30T09:59:04.001Z</time></trkpt><trkpt lat="43.07347544789714" lon="-2.288660743135134"><ele>253.79999999999998</ele><time>2026-04-30T09:59:05.001Z</time></trkpt><trkpt lat="43.07356348818805" lon="-2.288718823593806"><ele>255.39999999999998</ele><time>2026-04-30T09:59:06.001Z</time></trkpt><trkpt lat="43.07365013959212" lon="-2.28877713631479"><ele>257.0</ele><time>2026-04-30T09:59:07.001Z</time></trkpt><trkpt lat="43.07373807370927" lon="-2.288829403938886"><ele>257.0</ele><time>2026-04-30T09:59:08.001Z</time></trkpt><trkpt lat="43.073827784100025" lon="-2.288886860969798"><ele>257.0</ele><time>2026-04-30T09:59:09.001Z</time></trkpt><trkpt lat="43.07390055136897" lon="-2.288956845080349"><ele>257.0</ele><time>2026-04-30T09:59:10.001Z</time></trkpt><trkpt lat="43.073999362816124" lon="-2.289001483501987"><ele>257.0</ele><time>2026-04-30T09:59:11.001Z</time></trkpt><trkpt lat="43.074088619949116" lon="-2.28905743285595"><ele>257.0</ele><time>2026-04-30T09:59:12.001Z</time></trkpt><trkpt lat="43.0741788039591" lon="-2.2891181583097513"><ele>256.8</ele><time>2026-04-30T09:59:13.001Z</time></trkpt><trkpt lat="43.07426515641224" lon="-2.2891755049164755"><ele>256.6</ele><time>2026-04-30T09:59:14.001Z</time></trkpt><trkpt lat="43.07435426326773" lon="-2.2892361355586814"><ele>256.40000000000003</ele><time>2026-04-30T09:59:15.001Z</time></trkpt><trkpt lat="43.07443972391877" lon="-2.2892947057799007"><ele>256.2</ele><time>2026-04-30T09:59:16.002Z</time></trkpt><trkpt lat="43.074527403085405" lon="-2.2893577941430343"><ele>256.0</ele><time>2026-04-30T09:59:17.002Z</time></trkpt><trkpt lat="43.07461498223106" lon="-2.2894237566079476"><ele>256.0</ele><time>2026-04-30T09:59:18.002Z</time></trkpt><trkpt lat="43.07470252947148" lon="-2.289498101303156"><ele>256.0</ele><time>2026-04-30T09:59:19.002Z</time></trkpt><trkpt lat="43.074788810472306" lon="-2.289576716994178"><ele>256.0</ele><time>2026-04-30T09:59:20.002Z</time></trkpt><trkpt lat="43.07487544626676" lon="-2.2896545358022555"><ele>256.0</ele><time>2026-04-30T09:59:21.002Z</time></trkpt><trkpt lat="43.0749594715127" lon="-2.2897408706160607"><ele>256.0</ele><time>2026-04-30T09:59:22.002Z</time></trkpt><trkpt lat="43.07503682992356" lon="-2.289828836236411"><ele>257.0</ele><time>2026-04-30T09:59:23.002Z</time></trkpt><trkpt lat="43.07511263614538" lon="-2.2899213684442965"><ele>258.0</ele><time>2026-04-30T09:59:24.002Z</time></trkpt><trkpt lat="43.07519532172943" lon="-2.2900092934317557"><ele>259.0</ele><time>2026-04-30T09:59:25.002Z</time></trkpt><trkpt lat="43.07527627368341" lon="-2.2901011984147917"><ele>260.0</ele><time>2026-04-30T09:59:26.002Z</time></trkpt><trkpt lat="43.075353596380744" lon="-2.2901911986452"><ele>261.0</ele><time>2026-04-30T09:59:27Z</time></trkpt><trkpt lat="43.075430315414174" lon="-2.290286006298761"><ele>261.0</ele><time>2026-04-30T09:59:28Z</time></trkpt><trkpt lat="43.075511903219656" lon="-2.290377372525687"><ele>261.0</ele><time>2026-04-30T09:59:29Z</time></trkpt><trkpt lat="43.07557507620396" lon="-2.290464291135333"><ele>261.0</ele><time>2026-04-30T09:59:30Z</time></trkpt><trkpt lat="43.075641760251756" lon="-2.2905506862207803"><ele>261.0</ele><time>2026-04-30T09:59:31Z</time></trkpt><trkpt lat="43.07571814312367" lon="-2.290643992626413"><ele>261.0</ele><time>2026-04-30T09:59:32Z</time></trkpt><trkpt lat="43.07580340911953" lon="-2.2907082550755318"><ele>261.0</ele><time>2026-04-30T09:59:33Z</time></trkpt><trkpt lat="43.075912944220846" lon="-2.2907433590579678"><ele>261.0</ele><time>2026-04-30T09:59:34Z</time></trkpt><trkpt lat="43.07606676400836" lon="-2.2907382524885795"><ele>261.0</ele><time>2026-04-30T09:59:35Z</time></trkpt><trkpt lat="43.07602648488525" lon="-2.290966035969462"><ele>261.0</ele><time>2026-04-30T09:59:36Z</time></trkpt><trkpt lat="43.07609022265262" lon="-2.2910757572139575"><ele>261.0</ele><time>2026-04-30T09:59:37Z</time></trkpt><trkpt lat="43.07617147430742" lon="-2.2911601074340253"><ele>261.0</ele><time>2026-04-30T09:59:38Z</time></trkpt><trkpt lat="43.07625251296589" lon="-2.2912472757152087"><ele>261.0</ele><time>2026-04-30T09:59:39Z</time></trkpt><trkpt lat="43.076329067364455" lon="-2.291336472615882"><ele>261.0</ele><time>2026-04-30T09:59:40Z</time></trkpt><trkpt lat="43.07640846421873" lon="-2.2914257505773623"><ele>261.0</ele><time>2026-04-30T09:59:41Z</time></trkpt><trkpt lat="43.07648653888793" lon="-2.291519371776458"><ele>261.8</ele><time>2026-04-30T09:59:42Z</time></trkpt><trkpt lat="43.07656304366898" lon="-2.291610060033585"><ele>262.6</ele><time>2026-04-30T09:59:43Z</time></trkpt><trkpt lat="43.076637706745785" lon="-2.2917049629321578"><ele>263.4</ele><time>2026-04-30T09:59:44Z</time></trkpt><trkpt lat="43.076715715840166" lon="-2.291799017425012"><ele>264.2</ele><time>2026-04-30T09:59:45Z</time></trkpt><trkpt lat="43.07679200830081" lon="-2.291889822704533"><ele>265.0</ele><time>2026-04-30T09:59:46Z</time></trkpt><trkpt lat="43.076869301403406" lon="-2.2919833833151113"><ele>265.0</ele><time>2026-04-30T09:59:47Z</time></trkpt><trkpt lat="43.076942406088" lon="-2.292076213006145"><ele>265.0</ele><time>2026-04-30T09:59:48Z</time></trkpt><trkpt lat="43.07701742073144" lon="-2.292170151173375"><ele>265.0</ele><time>2026-04-30T09:59:49Z</time></trkpt><trkpt lat="43.077090842037805" lon="-2.292260460794415"><ele>265.0</ele><time>2026-04-30T09:59:50Z</time></trkpt><trkpt lat="43.077165307901396" lon="-2.2923570937927886"><ele>265.0</ele><time>2026-04-30T09:59:51Z</time></trkpt><trkpt lat="43.07723595987377" lon="-2.2924577564729636"><ele>265.2</ele><time>2026-04-30T09:59:52Z</time></trkpt><trkpt lat="43.0773091928702" lon="-2.2925523153204055"><ele>265.4</ele><time>2026-04-30T09:59:53Z</time></trkpt><trkpt lat="43.0773733204026" lon="-2.2926487529361936"><ele>265.6</ele><time>2026-04-30T09:59:54Z</time></trkpt><trkpt lat="43.0774435279422" lon="-2.2927448439339915"><ele>265.8</ele><time>2026-04-30T09:59:55Z</time></trkpt><trkpt lat="43.07751320085859" lon="-2.2928408081659044"><ele>266.0</ele><time>2026-04-30T09:59:56Z</time></trkpt><trkpt lat="43.077583091866785" lon="-2.292937095155644"><ele>266.0</ele><time>2026-04-30T09:59:57Z</time></trkpt><trkpt lat="43.07765161562923" lon="-2.2930333245750543"><ele>266.0</ele><time>2026-04-30T09:59:58Z</time></trkpt><trkpt lat="43.07771159042873" lon="-2.2931365111111566"><ele>266.0</ele><time>2026-04-30T09:59:59Z</time></trkpt><trkpt lat="43.07778277469182" lon="-2.2932282338010688"><ele>266.0</ele><time>2026-04-30T10:00:00Z</time></trkpt><trkpt lat="43.077847854609374" lon="-2.2933223008913086"><ele>266.0</ele><time>2026-04-30T10:00:01Z</time></trkpt><trkpt lat="43.0779115993355" lon="-2.293417737132062"><ele>265.8</ele><time>2026-04-30T10:00:02Z</time></trkpt><trkpt lat="43.07797547749823" lon="-2.293514866202556"><ele>265.6</ele><time>2026-04-30T10:00:03Z</time></trkpt><trkpt lat="43.07803763084049" lon="-2.293605045764807"><ele>265.4</ele><time>2026-04-30T10:00:04Z</time></trkpt><trkpt lat="43.07811239500711" lon="-2.293688602554525"><ele>265.2</ele><time>2026-04-30T10:00:05Z</time></trkpt><trkpt lat="43.078167995981296" lon="-2.2937795494098014"><ele>265.0</ele><time>2026-04-30T10:00:06.001Z</time></trkpt><trkpt lat="43.07822305466633" lon="-2.2938667080388853"><ele>266.25</ele><time>2026-04-30T10:00:07.001Z</time></trkpt><trkpt lat="43.07835508174596" lon="-2.294054222427783"><ele>267.5</ele><time>2026-04-30T10:00:09.001Z</time></trkpt><trkpt lat="43.078416565318314" lon="-2.294144386576419"><ele>268.75</ele><time>2026-04-30T10:00:10.001Z</time></trkpt><trkpt lat="43.07847958171012" lon="-2.2942346411621206"><ele>270.0</ele><time>2026-04-30T10:00:11.001Z</time></trkpt><trkpt lat="43.07854287229758" lon="-2.2943234570218443"><ele>270.0</ele><time>2026-04-30T10:00:12.001Z</time></trkpt><trkpt lat="43.07860699434539" lon="-2.2944171263368887"><ele>270.0</ele><time>2026-04-30T10:00:13.001Z</time></trkpt><trkpt lat="43.07867342956386" lon="-2.294509574794581"><ele>270.0</ele><time>2026-04-30T10:00:14.001Z</time></trkpt><trkpt lat="43.07873889367575" lon="-2.2946024282330644"><ele>270.0</ele><time>2026-04-30T10:00:15.001Z</time></trkpt><trkpt lat="43.07880741758457" lon="-2.294700754940842"><ele>270.0</ele><time>2026-04-30T10:00:16.001Z</time></trkpt><trkpt lat="43.07887549958179" lon="-2.2947966338507686"><ele>269.8</ele><time>2026-04-30T10:00:17.001Z</time></trkpt><trkpt lat="43.078943707379636" lon="-2.2948932998308194"><ele>269.6</ele><time>2026-04-30T10:00:18.001Z</time></trkpt><trkpt lat="43.07901423185177" lon="-2.294990056133226"><ele>269.4</ele><time>2026-04-30T10:00:19.001Z</time></trkpt><trkpt lat="43.07908618125031" lon="-2.295093976633158"><ele>269.2</ele><time>2026-04-30T10:00:20.001Z</time></trkpt><trkpt lat="43.07915552027304" lon="-2.2951974144588463"><ele>269.0</ele><time>2026-04-30T10:00:21.001Z</time></trkpt><trkpt lat="43.079226236833975" lon="-2.2953007259932585"><ele>269.4</ele><time>2026-04-30T10:00:22.001Z</time></trkpt><trkpt lat="43.07929790392995" lon="-2.2954042500226666"><ele>269.79999999999995</ele><time>2026-04-30T10:00:23.001Z</time></trkpt><trkpt lat="43.07936967082564" lon="-2.295505585093951"><ele>270.20000000000005</ele><time>2026-04-30T10:00:24.001Z</time></trkpt><trkpt lat="43.079442604059324" lon="-2.2956095942209616"><ele>270.6</ele><time>2026-04-30T10:00:25.001Z</time></trkpt><trkpt lat="43.07951319136823" lon="-2.295713869535353"><ele>271.0</ele><time>2026-04-30T10:00:26.001Z</time></trkpt><trkpt lat="43.07958376730158" lon="-2.295818402326351"><ele>271.0</ele><time>2026-04-30T10:00:27.001Z</time></trkpt><trkpt lat="43.07965649345479" lon="-2.2959186222106513"><ele>271.0</ele><time>2026-04-30T10:00:28.001Z</time></trkpt><trkpt lat="43.07973227881159" lon="-2.2960219711204055"><ele>271.0</ele><time>2026-04-30T10:00:29.001Z</time></trkpt><trkpt lat="43.079806989555614" lon="-2.296126113700654"><ele>271.0</ele><time>2026-04-30T10:00:30.001Z</time></trkpt><trkpt lat="43.07988245758196" lon="-2.2962257244174915"><ele>271.0</ele><time>2026-04-30T10:00:31.001Z</time></trkpt><trkpt lat="43.07994389804779" lon="-2.296329733952965"><ele>271.40000000000003</ele><time>2026-04-30T10:00:32.001Z</time></trkpt><trkpt lat="43.08001297491297" lon="-2.296432532491426"><ele>271.8</ele><time>2026-04-30T10:00:33.001Z</time></trkpt><trkpt lat="43.080085322298714" lon="-2.2965293464630165"><ele>272.20000000000005</ele><time>2026-04-30T10:00:34.001Z</time></trkpt><trkpt lat="43.080155756661576" lon="-2.2966283933656646"><ele>272.6</ele><time>2026-04-30T10:00:35.001Z</time></trkpt><trkpt lat="43.08022382486079" lon="-2.2967295013576634"><ele>273.0</ele><time>2026-04-30T10:00:36.001Z</time></trkpt><trkpt lat="43.0802957722223" lon="-2.296831615544101"><ele>273.0</ele><time>2026-04-30T10:00:37.001Z</time></trkpt><trkpt lat="43.08036863036085" lon="-2.2969312162566413"><ele>273.0</ele><time>2026-04-30T10:00:38.001Z</time></trkpt><trkpt lat="43.08044348790222" lon="-2.297025321234886"><ele>273.0</ele><time>2026-04-30T10:00:39.001Z</time></trkpt><trkpt lat="43.08051179196023" lon="-2.297123990136276"><ele>273.0</ele><time>2026-04-30T10:00:40.001Z</time></trkpt><trkpt lat="43.08058212075725" lon="-2.297216892788865"><ele>273.0</ele><time>2026-04-30T10:00:41.001Z</time></trkpt><trkpt lat="43.08064882951384" lon="-2.297311124250788"><ele>272.8333333333333</ele><time>2026-04-30T10:00:42.001Z</time></trkpt><trkpt lat="43.08071525901471" lon="-2.297396323397682"><ele>272.6666666666667</ele><time>2026-04-30T10:00:43.001Z</time></trkpt><trkpt lat="43.080778983112076" lon="-2.297481456168701"><ele>272.5</ele><time>2026-04-30T10:00:44.001Z</time></trkpt><trkpt lat="43.08084059050903" lon="-2.297566617465534"><ele>272.33333333333337</ele><time>2026-04-30T10:00:45.001Z</time></trkpt><trkpt lat="43.080906226551605" lon="-2.297649868198773"><ele>272.1666666666667</ele><time>2026-04-30T10:00:46.001Z</time></trkpt><trkpt lat="43.080955222723226" lon="-2.2977230452755486"><ele>272.0</ele><time>2026-04-30T10:00:47.001Z</time></trkpt><trkpt lat="43.08102932303205" lon="-2.297828143309611"><ele>273.2</ele><time>2026-04-30T10:00:49.001Z</time></trkpt><trkpt lat="43.08111961921851" lon="-2.297971505078556"><ele>274.4</ele><time>2026-04-30T10:00:50.001Z</time></trkpt><trkpt lat="43.08117637380518" lon="-2.2980516518831453"><ele>275.6</ele><time>2026-04-30T10:00:51.001Z</time></trkpt><trkpt lat="43.081227230362956" lon="-2.298131065570554"><ele>276.8</ele><time>2026-04-30T10:00:52.001Z</time></trkpt><trkpt lat="43.081283323609014" lon="-2.2982262029901244"><ele>278.0</ele><time>2026-04-30T10:00:53.001Z</time></trkpt><trkpt lat="43.0813623274385" lon="-2.2983711092820567"><ele>278.0</ele><time>2026-04-30T10:00:54.001Z</time></trkpt><trkpt lat="43.08141823874229" lon="-2.2984893455688495"><ele>278.0</ele><time>2026-04-30T10:00:55.001Z</time></trkpt><trkpt lat="43.081457522643554" lon="-2.298658864652655"><ele>278.0</ele><time>2026-04-30T10:00:58.001Z</time></trkpt><trkpt lat="43.08148555284455" lon="-2.2987476440191466"><ele>278.0</ele><time>2026-04-30T10:00:59.001Z</time></trkpt><trkpt lat="43.08151569432953" lon="-2.2988387301071698"><ele>278.0</ele><time>2026-04-30T10:01:00.001Z</time></trkpt><trkpt lat="43.0815409656252" lon="-2.2989296210155095"><ele>278.0</ele><time>2026-04-30T10:01:01.001Z</time></trkpt><trkpt lat="43.081569377920395" lon="-2.299019307268583"><ele>280.7142857142857</ele><time>2026-04-30T10:01:02.001Z</time></trkpt><trkpt lat="43.0816016279758" lon="-2.299108875855553"><ele>283.42857142857144</ele><time>2026-04-30T10:01:03.001Z</time></trkpt><trkpt lat="43.08164052738301" lon="-2.29919686578462"><ele>286.14285714285717</ele><time>2026-04-30T10:01:04.001Z</time></trkpt><trkpt lat="43.08168214334181" lon="-2.299278116193833"><ele>288.8571428571429</ele><time>2026-04-30T10:01:05.001Z</time></trkpt><trkpt lat="43.08172163868625" lon="-2.299360452066512"><ele>291.5714285714286</ele><time>2026-04-30T10:01:06.001Z</time></trkpt><trkpt lat="43.08175882931281" lon="-2.2994434550483263"><ele>294.2857142857143</ele><time>2026-04-30T10:01:07.001Z</time></trkpt><trkpt lat="43.08180149112927" lon="-2.2995231346941067"><ele>297.0</ele><time>2026-04-30T10:01:08.001Z</time></trkpt><trkpt lat="43.081840180127905" lon="-2.2996067650104424"><ele>297.0</ele><time>2026-04-30T10:01:09.001Z</time></trkpt><trkpt lat="43.08188856087226" lon="-2.2996857738941703"><ele>297.0</ele><time>2026-04-30T10:01:10.001Z</time></trkpt><trkpt lat="43.08193183464231" lon="-2.29977216411193"><ele>297.0</ele><time>2026-04-30T10:01:11.001Z</time></trkpt><trkpt lat="43.08197610034488" lon="-2.299856839927546"><ele>297.0</ele><time>2026-04-30T10:01:12.001Z</time></trkpt><trkpt lat="43.08202063550268" lon="-2.2999431758647333"><ele>297.0</ele><time>2026-04-30T10:01:13.001Z</time></trkpt><trkpt lat="43.0820633546669" lon="-2.3000338332454895"><ele>297.0</ele><time>2026-04-30T10:01:14.001Z</time></trkpt><trkpt lat="43.08210181193153" lon="-2.300132731890819"><ele>296.0</ele><time>2026-04-30T10:01:15.001Z</time></trkpt><trkpt lat="43.082145224548256" lon="-2.3002300192774667"><ele>295.0</ele><time>2026-04-30T10:01:16.001Z</time></trkpt><trkpt lat="43.08218951413398" lon="-2.3003242626802174"><ele>294.0</ele><time>2026-04-30T10:01:17.001Z</time></trkpt><trkpt lat="43.0822305593323" lon="-2.30041883573762"><ele>293.0</ele><time>2026-04-30T10:01:18.001Z</time></trkpt><trkpt lat="43.08226837173877" lon="-2.300515028104503"><ele>292.0</ele><time>2026-04-30T10:01:19.001Z</time></trkpt><trkpt lat="43.08230606785403" lon="-2.3006108757805923"><ele>291.0</ele><time>2026-04-30T10:01:20.001Z</time></trkpt><trkpt lat="43.08234977355737" lon="-2.30070308949565"><ele>290.1666666666667</ele><time>2026-04-30T10:01:21.001Z</time></trkpt><trkpt lat="43.08239575545296" lon="-2.3007930627680158"><ele>289.3333333333333</ele><time>2026-04-30T10:01:22.001Z</time></trkpt><trkpt lat="43.0824389781147" lon="-2.3008807303404994"><ele>288.5</ele><time>2026-04-30T10:01:23.001Z</time></trkpt><trkpt lat="43.08247983191026" lon="-2.300969544539858"><ele>287.66666666666663</ele><time>2026-04-30T10:01:24.001Z</time></trkpt><trkpt lat="43.08251899809105" lon="-2.3010602677372414"><ele>286.8333333333333</ele><time>2026-04-30T10:01:25.002Z</time></trkpt><trkpt lat="43.08256202848698" lon="-2.301144934081318"><ele>286.0</ele><time>2026-04-30T10:01:26.002Z</time></trkpt><trkpt lat="43.08259710862482" lon="-2.3012353069667184"><ele>288.8333333333333</ele><time>2026-04-30T10:01:27.002Z</time></trkpt><trkpt lat="43.082629081646196" lon="-2.3013287712057258"><ele>291.66666666666663</ele><time>2026-04-30T10:01:28.002Z</time></trkpt><trkpt lat="43.08265115874027" lon="-2.3014265893012666"><ele>294.5</ele><time>2026-04-30T10:01:29.002Z</time></trkpt><trkpt lat="43.08267324221333" lon="-2.301527517641738"><ele>297.3333333333333</ele><time>2026-04-30T10:01:30.002Z</time></trkpt><trkpt lat="43.0826883259241" lon="-2.3016301881793773"><ele>300.1666666666667</ele><time>2026-04-30T10:01:31.002Z</time></trkpt><trkpt lat="43.08270389172508" lon="-2.3017352328226903"><ele>303.0</ele><time>2026-04-30T10:01:32.002Z</time></trkpt><trkpt lat="43.08272376457781" lon="-2.301823892565256"><ele>303.0</ele><time>2026-04-30T10:01:33Z</time></trkpt><trkpt lat="43.08281476722103" lon="-2.3020201915062124"><ele>303.0</ele><time>2026-04-30T10:01:35Z</time></trkpt><trkpt lat="43.0828637495277" lon="-2.302094014961299"><ele>303.0</ele><time>2026-04-30T10:01:36Z</time></trkpt><trkpt lat="43.082917688887925" lon="-2.302161113731039"><ele>303.0</ele><time>2026-04-30T10:01:37Z</time></trkpt><trkpt lat="43.082964956317944" lon="-2.3022283021851577"><ele>303.0</ele><time>2026-04-30T10:01:38Z</time></trkpt><trkpt lat="43.083016498517026" lon="-2.3022895562396153"><ele>302.2857142857143</ele><time>2026-04-30T10:01:39Z</time></trkpt><trkpt lat="43.08306115682084" lon="-2.3023632059533945"><ele>301.57142857142856</ele><time>2026-04-30T10:01:40Z</time></trkpt><trkpt lat="43.08310929867242" lon="-2.302430579381431"><ele>300.85714285714283</ele><time>2026-04-30T10:01:41Z</time></trkpt><trkpt lat="43.08315844093798" lon="-2.3024937044895344"><ele>300.1428571428571</ele><time>2026-04-30T10:01:42Z</time></trkpt><trkpt lat="43.083207827350776" lon="-2.3025557103793384"><ele>299.4285714285714</ele><time>2026-04-30T10:01:43Z</time></trkpt><trkpt lat="43.08325419246879" lon="-2.3026173173176474"><ele>298.7142857142857</ele><time>2026-04-30T10:01:44Z</time></trkpt><trkpt lat="43.08330272176404" lon="-2.302684230634183"><ele>298.0</ele><time>2026-04-30T10:01:45Z</time></trkpt><trkpt lat="43.083346756123426" lon="-2.302760030237573"><ele>301.2857142857143</ele><time>2026-04-30T10:01:46Z</time></trkpt><trkpt lat="43.08339116814507" lon="-2.3028389296803864"><ele>304.57142857142856</ele><time>2026-04-30T10:01:47Z</time></trkpt><trkpt lat="43.083436270291934" lon="-2.302915711314735"><ele>307.85714285714283</ele><time>2026-04-30T10:01:48Z</time></trkpt><trkpt lat="43.08347988505959" lon="-2.302995774191679"><ele>311.1428571428571</ele><time>2026-04-30T10:01:49Z</time></trkpt><trkpt lat="43.08351616002912" lon="-2.30308255373462"><ele>314.42857142857144</ele><time>2026-04-30T10:01:50Z</time></trkpt><trkpt lat="43.08355221182724" lon="-2.30317129365408"><ele>317.71428571428567</ele><time>2026-04-30T10:01:51Z</time></trkpt><trkpt lat="43.08358683076337" lon="-2.303260352542345"><ele>321.0</ele><time>2026-04-30T10:01:52Z</time></trkpt><trkpt lat="43.08361361422101" lon="-2.303350056454379"><ele>320.99999999999994</ele><time>2026-04-30T10:01:53Z</time></trkpt><trkpt lat="43.08364052544522" lon="-2.3034423359180836"><ele>321.0</ele><time>2026-04-30T10:01:54Z</time></trkpt><trkpt lat="43.08367102174336" lon="-2.303530534421358"><ele>321.0</ele><time>2026-04-30T10:01:55Z</time></trkpt><trkpt lat="43.08369960525704" lon="-2.303617709428184"><ele>321.0</ele><time>2026-04-30T10:01:56Z</time></trkpt><trkpt lat="43.083731608370194" lon="-2.303703895916595"><ele>321.0</ele><time>2026-04-30T10:01:57Z</time></trkpt><trkpt lat="43.08376960940112" lon="-2.3037816997250156"><ele>320.99999999999994</ele><time>2026-04-30T10:01:58Z</time></trkpt><trkpt lat="43.08381286696759" lon="-2.3038522718140975"><ele>321.0</ele><time>2026-04-30T10:01:59Z</time></trkpt><trkpt lat="43.083857372853565" lon="-2.3039193403243785"><ele>320.2857142857143</ele><time>2026-04-30T10:02:00Z</time></trkpt><trkpt lat="43.08390556744259" lon="-2.30397988489717"><ele>319.57142857142856</ele><time>2026-04-30T10:02:01Z</time></trkpt><trkpt lat="43.083960755110446" lon="-2.3040284298109257"><ele>318.8571428571429</ele><time>2026-04-30T10:02:02Z</time></trkpt><trkpt lat="43.084013245339925" lon="-2.304080893351379"><ele>318.1428571428571</ele><time>2026-04-30T10:02:03Z</time></trkpt><trkpt lat="43.084065016894776" lon="-2.3041366099779412"><ele>317.42857142857144</ele><time>2026-04-30T10:02:04Z</time></trkpt><trkpt lat="43.084118189000854" lon="-2.3041851566384257"><ele>316.7142857142857</ele><time>2026-04-30T10:02:05Z</time></trkpt><trkpt lat="43.08417705177502" lon="-2.304220323759732"><ele>316.0</ele><time>2026-04-30T10:02:06Z</time></trkpt><trkpt lat="43.08423948527282" lon="-2.3042407587212943"><ele>318.5714285714286</ele><time>2026-04-30T10:02:07Z</time></trkpt><trkpt lat="43.08430682274953" lon="-2.3042459961047643"><ele>321.14285714285717</ele><time>2026-04-30T10:02:08Z</time></trkpt><trkpt lat="43.08436898589499" lon="-2.3042739338291156"><ele>323.7142857142857</ele><time>2026-04-30T10:02:09Z</time></trkpt><trkpt lat="43.084437879984044" lon="-2.3042960792469804"><ele>326.28571428571433</ele><time>2026-04-30T10:02:10Z</time></trkpt><trkpt lat="43.08450186610676" lon="-2.304301419956114"><ele>328.8571428571429</ele><time>2026-04-30T10:02:11Z</time></trkpt><trkpt lat="43.08456701047065" lon="-2.3043136154628616"><ele>331.42857142857144</ele><time>2026-04-30T10:02:12Z</time></trkpt><trkpt lat="43.08463132043632" lon="-2.304323145702706"><ele>334.0</ele><time>2026-04-30T10:02:13Z</time></trkpt><trkpt lat="43.08469860123874" lon="-2.3043295328115643"><ele>334.0</ele><time>2026-04-30T10:02:14Z</time></trkpt><trkpt lat="43.08476532416195" lon="-2.3043504953711635"><ele>334.0</ele><time>2026-04-30T10:02:15Z</time></trkpt><trkpt lat="43.084832116450926" lon="-2.3043740477167405"><ele>334.0</ele><time>2026-04-30T10:02:16Z</time></trkpt><trkpt lat="43.08489451792581" lon="-2.3044009281330102"><ele>334.0</ele><time>2026-04-30T10:02:17Z</time></trkpt><trkpt lat="43.08495648874182" lon="-2.3044359517431587"><ele>334.0</ele><time>2026-04-30T10:02:18.001Z</time></trkpt><trkpt lat="43.08501612786499" lon="-2.3044771645773476"><ele>334.0</ele><time>2026-04-30T10:02:19.001Z</time></trkpt><trkpt lat="43.085080784645136" lon="-2.304507534485163"><ele>334.0</ele><time>2026-04-30T10:02:20.001Z</time></trkpt><trkpt lat="43.085141104497545" lon="-2.3045426083226093"><ele>334.2857142857143</ele><time>2026-04-30T10:02:21.001Z</time></trkpt><trkpt lat="43.085204991365856" lon="-2.3045794315989405"><ele>334.57142857142856</ele><time>2026-04-30T10:02:22.001Z</time></trkpt><trkpt lat="43.08526597865449" lon="-2.304618320016751"><ele>334.8571428571429</ele><time>2026-04-30T10:02:23.001Z</time></trkpt><trkpt lat="43.08532413906682" lon="-2.3046606300719112"><ele>335.1428571428571</ele><time>2026-04-30T10:02:24.001Z</time></trkpt><trkpt lat="43.08537946929151" lon="-2.3047155078351116"><ele>335.42857142857144</ele><time>2026-04-30T10:02:25.001Z</time></trkpt><trkpt lat="43.08542802894475" lon="-2.304782675722944"><ele>335.7142857142857</ele><time>2026-04-30T10:02:26.001Z</time></trkpt><trkpt lat="43.08547175795176" lon="-2.304856478341825"><ele>336.0</ele><time>2026-04-30T10:02:27.001Z</time></trkpt><trkpt lat="43.085505188431036" lon="-2.3049471984507184"><ele>336.0</ele><time>2026-04-30T10:02:28.001Z</time></trkpt><trkpt lat="43.08553471847184" lon="-2.3050408666420195"><ele>336.0</ele><time>2026-04-30T10:02:29.001Z</time></trkpt><trkpt lat="43.085543469026135" lon="-2.305142215796449"><ele>336.0</ele><time>2026-04-30T10:02:30.001Z</time></trkpt><trkpt lat="43.085534053395534" lon="-2.305248803682838"><ele>336.0</ele><time>2026-04-30T10:02:31.001Z</time></trkpt><trkpt lat="43.08550554027066" lon="-2.305350890630928"><ele>336.0</ele><time>2026-04-30T10:02:32.001Z</time></trkpt><trkpt lat="43.08546675343882" lon="-2.3054499679641283"><ele>336.0</ele><time>2026-04-30T10:02:33.001Z</time></trkpt><trkpt lat="43.08543285344858" lon="-2.3055462806482234"><ele>338.0</ele><time>2026-04-30T10:02:34.001Z</time></trkpt><trkpt lat="43.08539023543446" lon="-2.305635799296305"><ele>340.0</ele><time>2026-04-30T10:02:35.001Z</time></trkpt><trkpt lat="43.085351347277296" lon="-2.305727062403407"><ele>342.0</ele><time>2026-04-30T10:02:36.001Z</time></trkpt><trkpt lat="43.08531489679767" lon="-2.3058156139668653"><ele>344.0</ele><time>2026-04-30T10:02:37.001Z</time></trkpt><trkpt lat="43.08527360334098" lon="-2.305903131585223"><ele>346.0</ele><time>2026-04-30T10:02:38.001Z</time></trkpt><trkpt lat="43.08523685095946" lon="-2.3059906268258885"><ele>348.0</ele><time>2026-04-30T10:02:39.001Z</time></trkpt><trkpt lat="43.08520840701916" lon="-2.3060842370748826"><ele>348.0</ele><time>2026-04-30T10:02:40.001Z</time></trkpt><trkpt lat="43.08520228046598" lon="-2.3061876320398293"><ele>348.0</ele><time>2026-04-30T10:02:41.001Z</time></trkpt><trkpt lat="43.085212353225835" lon="-2.3062874476422732"><ele>348.0</ele><time>2026-04-30T10:02:42.001Z</time></trkpt><trkpt lat="43.08524389467055" lon="-2.30638235664195"><ele>348.0</ele><time>2026-04-30T10:02:43.001Z</time></trkpt><trkpt lat="43.08528585271371" lon="-2.3064584881837904"><ele>348.0</ele><time>2026-04-30T10:02:44.001Z</time></trkpt><trkpt lat="43.08533738942488" lon="-2.306521964833345"><ele>348.0</ele><time>2026-04-30T10:02:45.001Z</time></trkpt><trkpt lat="43.085391149580005" lon="-2.306579525755413"><ele>348.0</ele><time>2026-04-30T10:02:46.001Z</time></trkpt><trkpt lat="43.08544401104019" lon="-2.3066426877034347"><ele>348.1428571428571</ele><time>2026-04-30T10:02:47.001Z</time></trkpt><trkpt lat="43.08549131839386" lon="-2.3067028530991993"><ele>348.2857142857143</ele><time>2026-04-30T10:02:48.001Z</time></trkpt><trkpt lat="43.085540727471326" lon="-2.3067688143718152"><ele>348.42857142857144</ele><time>2026-04-30T10:02:49.001Z</time></trkpt><trkpt lat="43.085595877679985" lon="-2.3068345384374047"><ele>348.57142857142856</ele><time>2026-04-30T10:02:50.001Z</time></trkpt><trkpt lat="43.085649137730925" lon="-2.3068953505924075"><ele>348.7142857142857</ele><time>2026-04-30T10:02:51.001Z</time></trkpt><trkpt lat="43.08570418124669" lon="-2.306954201631646"><ele>348.85714285714283</ele><time>2026-04-30T10:02:52.001Z</time></trkpt><trkpt lat="43.08576531831365" lon="-2.307012201134024"><ele>349.0</ele><time>2026-04-30T10:02:53.001Z</time></trkpt><trkpt lat="43.085830285249855" lon="-2.307056873495104"><ele>350.3333333333333</ele><time>2026-04-30T10:02:54.001Z</time></trkpt><trkpt lat="43.08589915776987" lon="-2.3070966885015998"><ele>351.66666666666663</ele><time>2026-04-30T10:02:55.001Z</time></trkpt><trkpt lat="43.08597064014154" lon="-2.307148154888612"><ele>353.0</ele><time>2026-04-30T10:02:56.001Z</time></trkpt><trkpt lat="43.086041834996614" lon="-2.307210602595177"><ele>354.3333333333333</ele><time>2026-04-30T10:02:57.001Z</time></trkpt><trkpt lat="43.08610829278279" lon="-2.3072768494489466"><ele>355.6666666666667</ele><time>2026-04-30T10:02:58.001Z</time></trkpt><trkpt lat="43.086168837360105" lon="-2.30736065855574"><ele>357.0</ele><time>2026-04-30T10:02:59.001Z</time></trkpt><trkpt lat="43.086222508276094" lon="-2.307447990950406"><ele>357.0</ele><time>2026-04-30T10:03:00.001Z</time></trkpt><trkpt lat="43.08626550418432" lon="-2.3075542309469204"><ele>357.0</ele><time>2026-04-30T10:03:01.001Z</time></trkpt><trkpt lat="43.08630644672642" lon="-2.3076610555666712"><ele>357.0</ele><time>2026-04-30T10:03:02.001Z</time></trkpt><trkpt lat="43.0863454730733" lon="-2.3077675649460145"><ele>357.0</ele><time>2026-04-30T10:03:03.001Z</time></trkpt><trkpt lat="43.08637618914496" lon="-2.307883916567643"><ele>357.0</ele><time>2026-04-30T10:03:04.001Z</time></trkpt><trkpt lat="43.08639411657181" lon="-2.3080005542678914"><ele>357.0</ele><time>2026-04-30T10:03:05.001Z</time></trkpt><trkpt lat="43.086415707837666" lon="-2.308118897949303"><ele>356.6666666666667</ele><time>2026-04-30T10:03:06.001Z</time></trkpt><trkpt lat="43.08643669462255" lon="-2.3082379088418326"><ele>356.3333333333333</ele><time>2026-04-30T10:03:07.001Z</time></trkpt><trkpt lat="43.08645754371313" lon="-2.3083542006227775"><ele>356.0</ele><time>2026-04-30T10:03:08.001Z</time></trkpt><trkpt lat="43.08646954655857" lon="-2.308474416136121"><ele>355.66666666666663</ele><time>2026-04-30T10:03:09.001Z</time></trkpt><trkpt lat="43.086482471545565" lon="-2.3085922621980344"><ele>355.3333333333333</ele><time>2026-04-30T10:03:10.001Z</time></trkpt><trkpt lat="43.086490011594606" lon="-2.3087154033774544"><ele>355.0</ele><time>2026-04-30T10:03:11.001Z</time></trkpt><trkpt lat="43.08648014546935" lon="-2.308837469022577"><ele>356.2</ele><time>2026-04-30T10:03:12.001Z</time></trkpt><trkpt lat="43.08646886182605" lon="-2.3089605911280167"><ele>357.4</ele><time>2026-04-30T10:03:13.001Z</time></trkpt><trkpt lat="43.08645316585176" lon="-2.3090861235774924"><ele>358.6</ele><time>2026-04-30T10:03:14.001Z</time></trkpt><trkpt lat="43.0864299048127" lon="-2.309210181844066"><ele>359.8</ele><time>2026-04-30T10:03:15.001Z</time></trkpt><trkpt lat="43.08640234060868" lon="-2.309336835108524"><ele>361.0</ele><time>2026-04-30T10:03:16.001Z</time></trkpt><trkpt lat="43.086371333612576" lon="-2.3094613931756967"><ele>361.0</ele><time>2026-04-30T10:03:17.001Z</time></trkpt><trkpt lat="43.086344091705286" lon="-2.309585937007307"><ele>361.0</ele><time>2026-04-30T10:03:18.001Z</time></trkpt><trkpt lat="43.08632046943948" lon="-2.309701251002809"><ele>361.0</ele><time>2026-04-30T10:03:19.001Z</time></trkpt><trkpt lat="43.08630567644624" lon="-2.3098112019820602"><ele>361.0</ele><time>2026-04-30T10:03:20.001Z</time></trkpt><trkpt lat="43.08630023407641" lon="-2.309911128741724"><ele>361.0</ele><time>2026-04-30T10:03:21.001Z</time></trkpt><trkpt lat="43.08633701242765" lon="-2.3100265274481044"><ele>361.0</ele><time>2026-04-30T10:03:24.001Z</time></trkpt><trkpt lat="43.086360679437284" lon="-2.310186777635048"><ele>362.8333333333333</ele><time>2026-04-30T10:03:26.001Z</time></trkpt><trkpt lat="43.08635826990345" lon="-2.3102760678118175"><ele>364.66666666666663</ele><time>2026-04-30T10:03:27.001Z</time></trkpt><trkpt lat="43.0863337619977" lon="-2.3103719812382653"><ele>366.5</ele><time>2026-04-30T10:03:28.001Z</time></trkpt><trkpt lat="43.08631098382775" lon="-2.3104723107790335"><ele>368.3333333333333</ele><time>2026-04-30T10:03:29.001Z</time></trkpt><trkpt lat="43.086307570165154" lon="-2.310576971729947"><ele>370.1666666666667</ele><time>2026-04-30T10:03:30.001Z</time></trkpt><trkpt lat="43.086317841826826" lon="-2.3107286475763793"><ele>372.0</ele><time>2026-04-30T10:03:32.001Z</time></trkpt><trkpt lat="43.0863378812476" lon="-2.3108205176111265"><ele>374.0</ele><time>2026-04-30T10:03:34.001Z</time></trkpt><trkpt lat="43.08634741521479" lon="-2.3109229490948726"><ele>376.0</ele><time>2026-04-30T10:03:47Z</time></trkpt><trkpt lat="43.08636773253297" lon="-2.3110127346247036"><ele>378.0</ele><time>2026-04-30T10:03:49Z</time></trkpt><trkpt lat="43.08638818249167" lon="-2.311140904932188"><ele>380.0</ele><time>2026-04-30T10:03:51Z</time></trkpt><trkpt lat="43.08641170671219" lon="-2.311307343026237"><ele>382.0</ele><time>2026-04-30T10:03:53Z</time></trkpt><trkpt lat="43.08643042418163" lon="-2.311401205289356"><ele>384.0</ele><time>2026-04-30T10:03:54Z</time></trkpt><trkpt lat="43.08645029288104" lon="-2.311496240134585"><ele>385.5</ele><time>2026-04-30T10:03:55Z</time></trkpt><trkpt lat="43.086472043116615" lon="-2.3115997892359443"><ele>387.0</ele><time>2026-04-30T10:03:56Z</time></trkpt><trkpt lat="43.08648638423388" lon="-2.3117141031744066"><ele>388.5</ele><time>2026-04-30T10:03:57Z</time></trkpt><trkpt lat="43.0865041716937" lon="-2.3118193530773925"><ele>390.0</ele><time>2026-04-30T10:03:58Z</time></trkpt><trkpt lat="43.08652402442315" lon="-2.3119194542569925"><ele>391.5</ele><time>2026-04-30T10:03:59Z</time></trkpt><trkpt lat="43.08654840074123" lon="-2.312033704913387"><ele>393.0</ele><time>2026-04-30T10:04:00Z</time></trkpt><trkpt lat="43.08657032986226" lon="-2.312151944609751"><ele>393.2</ele><time>2026-04-30T10:04:01Z</time></trkpt><trkpt lat="43.08659021476344" lon="-2.3122740957269365"><ele>393.4</ele><time>2026-04-30T10:04:02Z</time></trkpt><trkpt lat="43.08661278447754" lon="-2.3123944382148913"><ele>393.59999999999997</ele><time>2026-04-30T10:04:03Z</time></trkpt><trkpt lat="43.08663845963997" lon="-2.312515627882482"><ele>393.79999999999995</ele><time>2026-04-30T10:04:04Z</time></trkpt><trkpt lat="43.08665951567892" lon="-2.3126399360536833"><ele>394.0</ele><time>2026-04-30T10:04:05Z</time></trkpt><trkpt lat="43.08668325208019" lon="-2.312763660730176"><ele>391.79999999999995</ele><time>2026-04-30T10:04:06Z</time></trkpt><trkpt lat="43.086706296593505" lon="-2.312887088272977"><ele>389.59999999999997</ele><time>2026-04-30T10:04:07Z</time></trkpt><trkpt lat="43.086732535523005" lon="-2.3130098023355488"><ele>387.4</ele><time>2026-04-30T10:04:08Z</time></trkpt><trkpt lat="43.086754769857194" lon="-2.3131377912280073"><ele>385.2</ele><time>2026-04-30T10:04:09Z</time></trkpt><trkpt lat="43.086773029420506" lon="-2.313267501865394"><ele>383.0</ele><time>2026-04-30T10:04:10Z</time></trkpt><trkpt lat="43.08679640429527" lon="-2.3133955604861005"><ele>383.0</ele><time>2026-04-30T10:04:11Z</time></trkpt><trkpt lat="43.08682567441894" lon="-2.3135198605734786"><ele>383.0</ele><time>2026-04-30T10:04:12Z</time></trkpt><trkpt lat="43.08685158222894" lon="-2.313643336526614"><ele>383.0</ele><time>2026-04-30T10:04:13Z</time></trkpt><trkpt lat="43.086867309031746" lon="-2.3137749736532136"><ele>383.0</ele><time>2026-04-30T10:04:14Z</time></trkpt><trkpt lat="43.08688545967791" lon="-2.3139056516669356"><ele>383.0</ele><time>2026-04-30T10:04:15Z</time></trkpt><trkpt lat="43.08689621773609" lon="-2.3140322706620178"><ele>384.2</ele><time>2026-04-30T10:04:16Z</time></trkpt><trkpt lat="43.08690249940578" lon="-2.314163007462063"><ele>385.4</ele><time>2026-04-30T10:04:17Z</time></trkpt><trkpt lat="43.08690255091711" lon="-2.314295389456681"><ele>386.59999999999997</ele><time>2026-04-30T10:04:18Z</time></trkpt><trkpt lat="43.086896618158896" lon="-2.3144245913584887"><ele>387.79999999999995</ele><time>2026-04-30T10:04:19Z</time></trkpt><trkpt lat="43.08687906096205" lon="-2.314554486478131"><ele>389.0</ele><time>2026-04-30T10:04:20Z</time></trkpt><trkpt lat="43.086852534513014" lon="-2.314683797588635"><ele>388.0</ele><time>2026-04-30T10:04:21Z</time></trkpt><trkpt lat="43.086816811548886" lon="-2.314807087941082"><ele>387.0</ele><time>2026-04-30T10:04:22Z</time></trkpt><trkpt lat="43.08677308571278" lon="-2.3149249935543295"><ele>386.0</ele><time>2026-04-30T10:04:23Z</time></trkpt><trkpt lat="43.08672539746707" lon="-2.315044846087826"><ele>385.0</ele><time>2026-04-30T10:04:24Z</time></trkpt><trkpt lat="43.08666124288127" lon="-2.3151539445514495"><ele>384.0</ele><time>2026-04-30T10:04:25Z</time></trkpt><trkpt lat="43.08660581779929" lon="-2.315270436952062"><ele>384.6</ele><time>2026-04-30T10:04:26Z</time></trkpt><trkpt lat="43.086547660224205" lon="-2.3153838911238562"><ele>385.2</ele><time>2026-04-30T10:04:27Z</time></trkpt><trkpt lat="43.0864934000841" lon="-2.3154957193234207"><ele>385.8</ele><time>2026-04-30T10:04:28Z</time></trkpt><trkpt lat="43.08643737299313" lon="-2.315604769719424"><ele>386.40000000000003</ele><time>2026-04-30T10:04:29Z</time></trkpt><trkpt lat="43.0863822217398" lon="-2.315713411223138"><ele>387.0</ele><time>2026-04-30T10:04:30Z</time></trkpt><trkpt lat="43.08632611779363" lon="-2.3158153755236506"><ele>387.0</ele><time>2026-04-30T10:04:31Z</time></trkpt><trkpt lat="43.086276436507184" lon="-2.315917693601922"><ele>387.0</ele><time>2026-04-30T10:04:32Z</time></trkpt><trkpt lat="43.08622776870986" lon="-2.3160121427862514"><ele>387.0</ele><time>2026-04-30T10:04:33Z</time></trkpt><trkpt lat="43.0861816341841" lon="-2.316103979311854"><ele>387.0</ele><time>2026-04-30T10:04:34.001Z</time></trkpt><trkpt lat="43.08613631439846" lon="-2.316195179644759"><ele>387.0</ele><time>2026-04-30T10:04:35.001Z</time></trkpt><trkpt lat="43.086088478196686" lon="-2.316280503089703"><ele>387.0</ele><time>2026-04-30T10:04:36.001Z</time></trkpt><trkpt lat="43.0860439450434" lon="-2.316363708619015"><ele>385.40000000000003</ele><time>2026-04-30T10:04:37.001Z</time></trkpt><trkpt lat="43.08600280428758" lon="-2.316445489602059"><ele>383.8</ele><time>2026-04-30T10:04:38.001Z</time></trkpt><trkpt lat="43.0859660800582" lon="-2.316525289773828"><ele>382.2</ele><time>2026-04-30T10:04:39.001Z</time></trkpt><trkpt lat="43.0859300768609" lon="-2.3165966822364834"><ele>380.6</ele><time>2026-04-30T10:04:40.001Z</time></trkpt><trkpt lat="43.0858656699916" lon="-2.3167267506769083"><ele>379.0</ele><time>2026-04-30T10:04:42.001Z</time></trkpt><trkpt lat="43.08579085191649" lon="-2.3168772198215137"><ele>379.0</ele><time>2026-04-30T10:04:44.001Z</time></trkpt><trkpt lat="43.08574808633758" lon="-2.3169608585346912"><ele>379.0</ele><time>2026-04-30T10:04:45.001Z</time></trkpt><trkpt lat="43.085699943317664" lon="-2.317050188722499"><ele>379.0</ele><time>2026-04-30T10:04:46.001Z</time></trkpt><trkpt lat="43.08565195230838" lon="-2.3171404673965985"><ele>379.0</ele><time>2026-04-30T10:04:47.001Z</time></trkpt><trkpt lat="43.08560052814588" lon="-2.3172397062679853"><ele>379.0</ele><time>2026-04-30T10:04:48.001Z</time></trkpt><trkpt lat="43.08554695023497" lon="-2.3173302494347294"><ele>379.0</ele><time>2026-04-30T10:04:49.001Z</time></trkpt><trkpt lat="43.08549776810189" lon="-2.3174289282756133"><ele>379.0</ele><time>2026-04-30T10:04:50.001Z</time></trkpt><trkpt lat="43.08544832491685" lon="-2.3175282983021153"><ele>379.0</ele><time>2026-04-30T10:04:51.001Z</time></trkpt><trkpt lat="43.08539814273332" lon="-2.3176276556671778"><ele>379.0</ele><time>2026-04-30T10:04:52.001Z</time></trkpt><trkpt lat="43.08534635879908" lon="-2.3177278564131845"><ele>379.0</ele><time>2026-04-30T10:04:53.001Z</time></trkpt><trkpt lat="43.08529800723716" lon="-2.3178260553152668"><ele>379.0</ele><time>2026-04-30T10:04:54.001Z</time></trkpt><trkpt lat="43.08524877396469" lon="-2.3179214674635547"><ele>379.0</ele><time>2026-04-30T10:04:55.001Z</time></trkpt><trkpt lat="43.085201847320135" lon="-2.318013484646131"><ele>379.66666666666663</ele><time>2026-04-30T10:04:56.001Z</time></trkpt><trkpt lat="43.08515281964518" lon="-2.3181074734401794"><ele>380.3333333333333</ele><time>2026-04-30T10:04:57.001Z</time></trkpt><trkpt lat="43.085104407495486" lon="-2.3182014073435893"><ele>381.0</ele><time>2026-04-30T10:04:58.001Z</time></trkpt><trkpt lat="43.0850540738765" lon="-2.318298637688875"><ele>381.6666666666667</ele><time>2026-04-30T10:04:59.001Z</time></trkpt><trkpt lat="43.08500203768145" lon="-2.31839638076903"><ele>382.33333333333337</ele><time>2026-04-30T10:05:00.001Z</time></trkpt><trkpt lat="43.08494942113216" lon="-2.3184955862822556"><ele>383.0</ele><time>2026-04-30T10:05:01.001Z</time></trkpt><trkpt lat="43.08489334643864" lon="-2.3185965070175487"><ele>383.0</ele><time>2026-04-30T10:05:02.001Z</time></trkpt><trkpt lat="43.084837710326504" lon="-2.318694374997318"><ele>383.0</ele><time>2026-04-30T10:05:03.001Z</time></trkpt><trkpt lat="43.08470880159237" lon="-2.3188926478830285"><ele>383.0</ele><time>2026-04-30T10:05:05.001Z</time></trkpt><trkpt lat="43.084638049353664" lon="-2.318990500788017"><ele>383.0</ele><time>2026-04-30T10:05:06.001Z</time></trkpt><trkpt lat="43.08456465160454" lon="-2.3190884454849816"><ele>381.59999999999997</ele><time>2026-04-30T10:05:07.001Z</time></trkpt><trkpt lat="43.08448809295234" lon="-2.319183650072437"><ele>380.2</ele><time>2026-04-30T10:05:08.001Z</time></trkpt><trkpt lat="43.08440893950107" lon="-2.319282479458887"><ele>378.8</ele><time>2026-04-30T10:05:09.001Z</time></trkpt><trkpt lat="43.0843358061644" lon="-2.3193617123875994"><ele>377.4</ele><time>2026-04-30T10:05:10.001Z</time></trkpt><trkpt lat="43.084256247532714" lon="-2.3194526214789293"><ele>376.0</ele><time>2026-04-30T10:05:11.001Z</time></trkpt><trkpt lat="43.08420250769564" lon="-2.319518117013037"><ele>376.0</ele><time>2026-04-30T10:05:12.001Z</time></trkpt><trkpt lat="43.084166275920786" lon="-2.319598874705967"><ele>376.0</ele><time>2026-04-30T10:05:13.001Z</time></trkpt><trkpt lat="43.08409257305227" lon="-2.319688669281325"><ele>376.0</ele><time>2026-04-30T10:05:15.001Z</time></trkpt><trkpt lat="43.08401670822681" lon="-2.319800311469112"><ele>376.0</ele><time>2026-04-30T10:05:17.001Z</time></trkpt><trkpt lat="43.083931314057494" lon="-2.3199230834447895"><ele>376.0</ele><time>2026-04-30T10:05:18.001Z</time></trkpt><trkpt lat="43.08383125807283" lon="-2.3200673289467204"><ele>375.66666666666663</ele><time>2026-04-30T10:05:19.001Z</time></trkpt><trkpt lat="43.083516823096346" lon="-2.32021728297954"><ele>375.3333333333333</ele><time>2026-04-30T10:05:20.001Z</time></trkpt><trkpt lat="43.08343956336688" lon="-2.320307283571323"><ele>375.0</ele><time>2026-04-30T10:05:21.001Z</time></trkpt><trkpt lat="43.08335885299092" lon="-2.320399139074207"><ele>375.0</ele><time>2026-04-30T10:05:22.001Z</time></trkpt><trkpt lat="43.08326973485854" lon="-2.3204883679862474"><ele>375.0</ele><time>2026-04-30T10:05:23.001Z</time></trkpt><trkpt lat="43.08318322834364" lon="-2.3205754562795966"><ele>375.0</ele><time>2026-04-30T10:05:24.001Z</time></trkpt><trkpt lat="43.08310048782585" lon="-2.3206607733032434"><ele>375.0</ele><time>2026-04-30T10:05:25.001Z</time></trkpt><trkpt lat="43.083016429495146" lon="-2.3207496180248155"><ele>375.0</ele><time>2026-04-30T10:05:26.001Z</time></trkpt><trkpt lat="43.08293335402602" lon="-2.320835729500291"><ele>374.8</ele><time>2026-04-30T10:05:27.001Z</time></trkpt><trkpt lat="43.08285369284683" lon="-2.320930462108581"><ele>374.6</ele><time>2026-04-30T10:05:28.001Z</time></trkpt><trkpt lat="43.082773126182666" lon="-2.3210222827963736"><ele>374.4</ele><time>2026-04-30T10:05:29.001Z</time></trkpt><trkpt lat="43.08269466515039" lon="-2.3211112354780243"><ele>374.2</ele><time>2026-04-30T10:05:30.001Z</time></trkpt><trkpt lat="43.08261689445582" lon="-2.321203199142442"><ele>374.0</ele><time>2026-04-30T10:05:31.001Z</time></trkpt><trkpt lat="43.082535567950686" lon="-2.321289962558668"><ele>374.0</ele><time>2026-04-30T10:05:32.001Z</time></trkpt><trkpt lat="43.08245608846685" lon="-2.32137845184172"><ele>374.0</ele><time>2026-04-30T10:05:33.001Z</time></trkpt><trkpt lat="43.08237694779073" lon="-2.321461606963228"><ele>374.0</ele><time>2026-04-30T10:05:34.001Z</time></trkpt><trkpt lat="43.082294694720545" lon="-2.321547085036014"><ele>374.0</ele><time>2026-04-30T10:05:35.001Z</time></trkpt><trkpt lat="43.082214447316076" lon="-2.3216313185644646"><ele>374.0</ele><time>2026-04-30T10:05:36.001Z</time></trkpt><trkpt lat="43.08213139198473" lon="-2.3217160805253436"><ele>374.2</ele><time>2026-04-30T10:05:37.001Z</time></trkpt><trkpt lat="43.08205205580644" lon="-2.3218018456170215"><ele>374.4</ele><time>2026-04-30T10:05:38.001Z</time></trkpt><trkpt lat="43.081973097581596" lon="-2.3218901597836377"><ele>374.6</ele><time>2026-04-30T10:05:39.001Z</time></trkpt><trkpt lat="43.08188977634087" lon="-2.3219830655184577"><ele>374.8</ele><time>2026-04-30T10:05:40.001Z</time></trkpt><trkpt lat="43.081813176632" lon="-2.3220772957265505"><ele>375.0</ele><time>2026-04-30T10:05:41.001Z</time></trkpt><trkpt lat="43.08173217527879" lon="-2.3221670534935526"><ele>375.0</ele><time>2026-04-30T10:05:42.001Z</time></trkpt><trkpt lat="43.081649744079755" lon="-2.322251341025188"><ele>375.0</ele><time>2026-04-30T10:05:43.001Z</time></trkpt><trkpt lat="43.081569730496334" lon="-2.3223382935066934"><ele>375.0</ele><time>2026-04-30T10:05:44.001Z</time></trkpt><trkpt lat="43.08149275570171" lon="-2.3224280728139615"><ele>375.0</ele><time>2026-04-30T10:05:44.999Z</time></trkpt><trkpt lat="43.081413594568296" lon="-2.3225176039325035"><ele>375.0</ele><time>2026-04-30T10:05:45.999Z</time></trkpt><trkpt lat="43.08133227994092" lon="-2.322604622203166"><ele>375.0</ele><time>2026-04-30T10:05:46.999Z</time></trkpt><trkpt lat="43.08124973830068" lon="-2.322685181859958"><ele>375.0</ele><time>2026-04-30T10:05:47.999Z</time></trkpt><trkpt lat="43.08116437205411" lon="-2.3227667766417546"><ele>375.0</ele><time>2026-04-30T10:05:48.999Z</time></trkpt><trkpt lat="43.081075443668894" lon="-2.3228452896527285"><ele>375.0</ele><time>2026-04-30T10:05:49.999Z</time></trkpt><trkpt lat="43.08099421022235" lon="-2.322926934117726"><ele>375.0</ele><time>2026-04-30T10:05:50.999Z</time></trkpt><trkpt lat="43.080912902885004" lon="-2.3230064789559646"><ele>374.0</ele><time>2026-04-30T10:05:51.999Z</time></trkpt><trkpt lat="43.080840121784846" lon="-2.3230960507164813"><ele>373.0</ele><time>2026-04-30T10:05:52.999Z</time></trkpt><trkpt lat="43.08076117055453" lon="-2.3231822316697754"><ele>372.0</ele><time>2026-04-30T10:05:53.999Z</time></trkpt><trkpt lat="43.08068416957868" lon="-2.3232809851081044"><ele>371.0</ele><time>2026-04-30T10:05:54.999Z</time></trkpt><trkpt lat="43.08061201576194" lon="-2.32338293407662"><ele>370.0</ele><time>2026-04-30T10:05:55.999Z</time></trkpt><trkpt lat="43.08054423304293" lon="-2.3234920578616167"><ele>370.0</ele><time>2026-04-30T10:05:56.999Z</time></trkpt><trkpt lat="43.08048492087599" lon="-2.3236104516371725"><ele>370.0</ele><time>2026-04-30T10:05:57.999Z</time></trkpt><trkpt lat="43.08043120044513" lon="-2.3237304966542096"><ele>370.0</ele><time>2026-04-30T10:05:58.999Z</time></trkpt><trkpt lat="43.08037967992959" lon="-2.3238507107232205"><ele>370.0</ele><time>2026-04-30T10:05:59.999Z</time></trkpt><trkpt lat="43.080330955603394" lon="-2.3239729055148572"><ele>370.0</ele><time>2026-04-30T10:06:01Z</time></trkpt><trkpt lat="43.080290296315724" lon="-2.3240958662366413"><ele>369.0</ele><time>2026-04-30T10:06:02Z</time></trkpt><trkpt lat="43.080243488482814" lon="-2.3242193665204387"><ele>368.0</ele><time>2026-04-30T10:06:03Z</time></trkpt><trkpt lat="43.08019747931627" lon="-2.3243446771722454"><ele>367.0</ele><time>2026-04-30T10:06:04Z</time></trkpt><trkpt lat="43.0801528532283" lon="-2.324466859046423"><ele>366.0</ele><time>2026-04-30T10:06:05Z</time></trkpt><trkpt lat="43.08010789448644" lon="-2.324590594297913"><ele>365.0</ele><time>2026-04-30T10:06:06Z</time></trkpt><trkpt lat="43.0800844043903" lon="-2.3247097928197564"><ele>364.8</ele><time>2026-04-30T10:06:07Z</time></trkpt><trkpt lat="43.080076719815985" lon="-2.3248075269693165"><ele>364.6</ele><time>2026-04-30T10:06:08Z</time></trkpt><trkpt lat="43.08004337282418" lon="-2.324901816602835"><ele>364.4</ele><time>2026-04-30T10:06:09Z</time></trkpt><trkpt lat="43.07993342875434" lon="-2.3250693898352344"><ele>364.2</ele><time>2026-04-30T10:06:10Z</time></trkpt><trkpt lat="43.07988969457467" lon="-2.3251859234024206"><ele>364.0</ele><time>2026-04-30T10:06:11Z</time></trkpt><trkpt lat="43.07984661321483" lon="-2.3253062126668342"><ele>364.0</ele><time>2026-04-30T10:06:12Z</time></trkpt><trkpt lat="43.07980555623379" lon="-2.3254229159054938"><ele>364.0</ele><time>2026-04-30T10:06:13Z</time></trkpt><trkpt lat="43.07976566078952" lon="-2.3255361761251447"><ele>364.0</ele><time>2026-04-30T10:06:14Z</time></trkpt><trkpt lat="43.07972833999488" lon="-2.325645865632326"><ele>364.0</ele><time>2026-04-30T10:06:15Z</time></trkpt><trkpt lat="43.07968450771906" lon="-2.3257614857018982"><ele>364.0</ele><time>2026-04-30T10:06:16Z</time></trkpt><trkpt lat="43.079644800679795" lon="-2.325879916870438"><ele>364.0</ele><time>2026-04-30T10:06:17Z</time></trkpt><trkpt lat="43.07960785606526" lon="-2.3260001252650357"><ele>364.0</ele><time>2026-04-30T10:06:18Z</time></trkpt><trkpt lat="43.079573548629426" lon="-2.326122385121835"><ele>364.0</ele><time>2026-04-30T10:06:19Z</time></trkpt><trkpt lat="43.079537400930846" lon="-2.32624467851907"><ele>364.0</ele><time>2026-04-30T10:06:20Z</time></trkpt><trkpt lat="43.07949985690672" lon="-2.326363883389309"><ele>364.0</ele><time>2026-04-30T10:06:21Z</time></trkpt><trkpt lat="43.07945924700519" lon="-2.32647441906394"><ele>365.4</ele><time>2026-04-30T10:06:22Z</time></trkpt><trkpt lat="43.07941272107485" lon="-2.3265818738949875"><ele>366.79999999999995</ele><time>2026-04-30T10:06:23Z</time></trkpt><trkpt lat="43.079365809660985" lon="-2.3266951838787637"><ele>368.20000000000005</ele><time>2026-04-30T10:06:24Z</time></trkpt><trkpt lat="43.07932157171189" lon="-2.326813746406226"><ele>369.6</ele><time>2026-04-30T10:06:25Z</time></trkpt><trkpt lat="43.07927534604729" lon="-2.326929490268925"><ele>371.0</ele><time>2026-04-30T10:06:26Z</time></trkpt><trkpt lat="43.07922691154332" lon="-2.327042472597554"><ele>371.0</ele><time>2026-04-30T10:06:27Z</time></trkpt><trkpt lat="43.07918259836533" lon="-2.3271478716103995"><ele>371.0</ele><time>2026-04-30T10:06:28Z</time></trkpt><trkpt lat="43.079130493812194" lon="-2.32725495266655"><ele>371.0</ele><time>2026-04-30T10:06:29Z</time></trkpt><trkpt lat="43.079094673932836" lon="-2.3273799860306434"><ele>371.0</ele><time>2026-04-30T10:06:30Z</time></trkpt><trkpt lat="43.07908133515671" lon="-2.327503938881183"><ele>371.0</ele><time>2026-04-30T10:06:31Z</time></trkpt><trkpt lat="43.07907655867756" lon="-2.3276267102098314"><ele>370.20000000000005</ele><time>2026-04-30T10:06:32Z</time></trkpt><trkpt lat="43.07906869578557" lon="-2.3277538962697415"><ele>369.40000000000003</ele><time>2026-04-30T10:06:33Z</time></trkpt><trkpt lat="43.07905420653068" lon="-2.3278713915649147"><ele>368.6</ele><time>2026-04-30T10:06:34Z</time></trkpt><trkpt lat="43.07906972702065" lon="-2.328010059409426"><ele>367.8</ele><time>2026-04-30T10:06:35Z</time></trkpt><trkpt lat="43.07910178974157" lon="-2.328142066847789"><ele>367.0</ele><time>2026-04-30T10:06:36Z</time></trkpt><trkpt lat="43.07914162855436" lon="-2.328268323870832"><ele>368.6</ele><time>2026-04-30T10:06:37Z</time></trkpt><trkpt lat="43.07918533397567" lon="-2.328390612454041"><ele>370.20000000000005</ele><time>2026-04-30T10:06:38Z</time></trkpt><trkpt lat="43.07922664627198" lon="-2.328517277670404"><ele>371.8</ele><time>2026-04-30T10:06:39Z</time></trkpt><trkpt lat="43.07926462558605" lon="-2.32864555998657"><ele>373.4</ele><time>2026-04-30T10:06:40Z</time></trkpt><trkpt lat="43.07930337324681" lon="-2.328771676358389"><ele>375.0</ele><time>2026-04-30T10:06:41Z</time></trkpt><trkpt lat="43.07934263642997" lon="-2.3288990335326276"><ele>375.6</ele><time>2026-04-30T10:06:42Z</time></trkpt><trkpt lat="43.079383286114705" lon="-2.3290233438641033"><ele>376.2</ele><time>2026-04-30T10:06:43Z</time></trkpt><trkpt lat="43.07942662821522" lon="-2.329143633929739"><ele>376.79999999999995</ele><time>2026-04-30T10:06:44Z</time></trkpt><trkpt lat="43.079469489589066" lon="-2.3292630067141133"><ele>377.4</ele><time>2026-04-30T10:06:45Z</time></trkpt><trkpt lat="43.0795130444584" lon="-2.329376896745915"><ele>378.0</ele><time>2026-04-30T10:06:46Z</time></trkpt><trkpt lat="43.079560567772425" lon="-2.3294849665754875"><ele>378.0</ele><time>2026-04-30T10:06:47Z</time></trkpt><trkpt lat="43.07960877499322" lon="-2.329588256395809"><ele>378.0</ele><time>2026-04-30T10:06:48Z</time></trkpt><trkpt lat="43.079659181096865" lon="-2.3296885014430404"><ele>378.0</ele><time>2026-04-30T10:06:49Z</time></trkpt><trkpt lat="43.079711414899066" lon="-2.3297825188384786"><ele>378.0</ele><time>2026-04-30T10:06:50Z</time></trkpt><trkpt lat="43.0797648322647" lon="-2.3298739188652204"><ele>378.0</ele><time>2026-04-30T10:06:51Z</time></trkpt><trkpt lat="43.07981957716816" lon="-2.3299602951691596"><ele>378.0</ele><time>2026-04-30T10:06:52Z</time></trkpt><trkpt lat="43.07987502506917" lon="-2.3300432184685405"><ele>379.3333333333333</ele><time>2026-04-30T10:06:53Z</time></trkpt><trkpt lat="43.079937415311015" lon="-2.330118444057383"><ele>380.66666666666663</ele><time>2026-04-30T10:06:54Z</time></trkpt><trkpt lat="43.07999718475785" lon="-2.330189702076152"><ele>382.0</ele><time>2026-04-30T10:06:55.001Z</time></trkpt><trkpt lat="43.08005726280737" lon="-2.330265299748781"><ele>383.3333333333333</ele><time>2026-04-30T10:06:56.001Z</time></trkpt><trkpt lat="43.08011698019066" lon="-2.330335623665841"><ele>384.66666666666663</ele><time>2026-04-30T10:06:57.001Z</time></trkpt><trkpt lat="43.08017239788364" lon="-2.33039930054494"><ele>386.0</ele><time>2026-04-30T10:06:58.001Z</time></trkpt><trkpt lat="43.080223432937316" lon="-2.3304667673501966"><ele>386.0</ele><time>2026-04-30T10:06:59.001Z</time></trkpt><trkpt lat="43.0802944118975" lon="-2.330556017418393"><ele>386.0</ele><time>2026-04-30T10:07:01.001Z</time></trkpt><trkpt lat="43.08043326338933" lon="-2.330651714218343"><ele>386.0</ele><time>2026-04-30T10:07:02.001Z</time></trkpt><trkpt lat="43.08049793301738" lon="-2.3307071984556136"><ele>386.0</ele><time>2026-04-30T10:07:03.001Z</time></trkpt><trkpt lat="43.08056029662372" lon="-2.3307660107789694"><ele>386.0</ele><time>2026-04-30T10:07:04.001Z</time></trkpt><trkpt lat="43.080622181781116" lon="-2.330827993085045"><ele>385.16666666666663</ele><time>2026-04-30T10:07:05.001Z</time></trkpt><trkpt lat="43.08068389804485" lon="-2.3308906405062357"><ele>384.3333333333333</ele><time>2026-04-30T10:07:06.001Z</time></trkpt><trkpt lat="43.08073966296957" lon="-2.3309599507598175"><ele>383.5</ele><time>2026-04-30T10:07:07.001Z</time></trkpt><trkpt lat="43.08076080683785" lon="-2.3310807392122728"><ele>382.66666666666663</ele><time>2026-04-30T10:07:08.001Z</time></trkpt><trkpt lat="43.08080287941212" lon="-2.3311581357038835"><ele>381.8333333333333</ele><time>2026-04-30T10:07:09.001Z</time></trkpt><trkpt lat="43.0808265727394" lon="-2.331253979627815"><ele>381.0</ele><time>2026-04-30T10:07:10.001Z</time></trkpt><trkpt lat="43.08084292903225" lon="-2.3313627501633643"><ele>384.0</ele><time>2026-04-30T10:07:11.001Z</time></trkpt><trkpt lat="43.08086366090103" lon="-2.3314808910538654"><ele>387.0</ele><time>2026-04-30T10:07:12.001Z</time></trkpt><trkpt lat="43.080890726818076" lon="-2.3315932327058237"><ele>390.0</ele><time>2026-04-30T10:07:13.001Z</time></trkpt><trkpt lat="43.080945188077486" lon="-2.3316972792547443"><ele>393.0</ele><time>2026-04-30T10:07:14.001Z</time></trkpt><trkpt lat="43.08100896075831" lon="-2.3317976959537083"><ele>396.0</ele><time>2026-04-30T10:07:15.001Z</time></trkpt><trkpt lat="43.081077889707814" lon="-2.331887140314605"><ele>396.0</ele><time>2026-04-30T10:07:16.001Z</time></trkpt><trkpt lat="43.08112657881776" lon="-2.332001208422032"><ele>396.0</ele><time>2026-04-30T10:07:17.001Z</time></trkpt><trkpt lat="43.08115551904377" lon="-2.3321223711293984"><ele>396.0</ele><time>2026-04-30T10:07:18.001Z</time></trkpt><trkpt lat="43.08121476943224" lon="-2.3322257361233363"><ele>396.0</ele><time>2026-04-30T10:07:19.001Z</time></trkpt><trkpt lat="43.081246558053785" lon="-2.3323470000353153"><ele>396.0</ele><time>2026-04-30T10:07:20.001Z</time></trkpt><trkpt lat="43.08128744410269" lon="-2.332458520526898"><ele>393.8</ele><time>2026-04-30T10:07:21.001Z</time></trkpt><trkpt lat="43.08133547172413" lon="-2.3325664005836106"><ele>391.6</ele><time>2026-04-30T10:07:22.001Z</time></trkpt><trkpt lat="43.08138782650699" lon="-2.3326694038675124"><ele>389.4</ele><time>2026-04-30T10:07:23.001Z</time></trkpt><trkpt lat="43.08144873410889" lon="-2.3327647523275323"><ele>387.2</ele><time>2026-04-30T10:07:24.001Z</time></trkpt><trkpt lat="43.08151769117261" lon="-2.3328547406693345"><ele>385.0</ele><time>2026-04-30T10:07:25.001Z</time></trkpt><trkpt lat="43.08159584855845" lon="-2.332938563129157"><ele>386.0</ele><time>2026-04-30T10:07:26.001Z</time></trkpt><trkpt lat="43.08168263045945" lon="-2.3330066023877563"><ele>387.0</ele><time>2026-04-30T10:07:27.001Z</time></trkpt><trkpt lat="43.081770939896074" lon="-2.333077621803622"><ele>388.0</ele><time>2026-04-30T10:07:28.001Z</time></trkpt><trkpt lat="43.081860399503604" lon="-2.333152102749135"><ele>389.0</ele><time>2026-04-30T10:07:29.001Z</time></trkpt><trkpt lat="43.08194961309114" lon="-2.333232862439391"><ele>390.0</ele><time>2026-04-30T10:07:30.001Z</time></trkpt><trkpt lat="43.082041164354386" lon="-2.333314932940965"><ele>390.0</ele><time>2026-04-30T10:07:31.001Z</time></trkpt><trkpt lat="43.08213509517527" lon="-2.3334052406376853"><ele>390.0</ele><time>2026-04-30T10:07:32.001Z</time></trkpt><trkpt lat="43.08221819641373" lon="-2.333526131993452"><ele>390.0</ele><time>2026-04-30T10:07:33.001Z</time></trkpt><trkpt lat="43.082292488279826" lon="-2.333658313137336"><ele>390.0</ele><time>2026-04-30T10:07:34.001Z</time></trkpt><trkpt lat="43.08235695733236" lon="-2.3338021003027754"><ele>390.75</ele><time>2026-04-30T10:07:35.001Z</time></trkpt><trkpt lat="43.08242707551824" lon="-2.333935983754058"><ele>391.5</ele><time>2026-04-30T10:07:36.001Z</time></trkpt><trkpt lat="43.082498329616755" lon="-2.334073293455395"><ele>392.25</ele><time>2026-04-30T10:07:37.001Z</time></trkpt><trkpt lat="43.08257439260865" lon="-2.334206281815873"><ele>393.0</ele><time>2026-04-30T10:07:38.001Z</time></trkpt><trkpt lat="43.08265432726321" lon="-2.334330968427919"><ele>393.0</ele><time>2026-04-30T10:07:39.001Z</time></trkpt><trkpt lat="43.08273913171911" lon="-2.3344507155279155"><ele>393.0</ele><time>2026-04-30T10:07:40.001Z</time></trkpt><trkpt lat="43.08282901984687" lon="-2.3345536584640882"><ele>393.0</ele><time>2026-04-30T10:07:41.001Z</time></trkpt><trkpt lat="43.08291778655298" lon="-2.3346461684620157"><ele>393.0</ele><time>2026-04-30T10:07:42.001Z</time></trkpt><trkpt lat="43.08300761260084" lon="-2.334733692143258"><ele>393.4</ele><time>2026-04-30T10:07:43.001Z</time></trkpt><trkpt lat="43.08309625404027" lon="-2.3348170724068282"><ele>393.79999999999995</ele><time>2026-04-30T10:07:44.001Z</time></trkpt><trkpt lat="43.08318429571822" lon="-2.334899611284478"><ele>394.2</ele><time>2026-04-30T10:07:45.001Z</time></trkpt><trkpt lat="43.0832700629166" lon="-2.334981151698831"><ele>394.6</ele><time>2026-04-30T10:07:46.001Z</time></trkpt><trkpt lat="43.083348527218945" lon="-2.3350636295136535"><ele>395.0</ele><time>2026-04-30T10:07:47.001Z</time></trkpt><trkpt lat="43.08343287920418" lon="-2.3351440901856746"><ele>395.0</ele><time>2026-04-30T10:07:48.001Z</time></trkpt><trkpt lat="43.08351371988157" lon="-2.3352241845677946"><ele>395.0</ele><time>2026-04-30T10:07:49.001Z</time></trkpt><trkpt lat="43.08359292182757" lon="-2.3353007994248562"><ele>395.0</ele><time>2026-04-30T10:07:50.001Z</time></trkpt><trkpt lat="43.083674291636115" lon="-2.335387336029124"><ele>395.0</ele><time>2026-04-30T10:07:50.999Z</time></trkpt><trkpt lat="43.08375565827481" lon="-2.335464245017277"><ele>395.0</ele><time>2026-04-30T10:07:51.999Z</time></trkpt><trkpt lat="43.08383756640056" lon="-2.3355445957415526"><ele>395.4</ele><time>2026-04-30T10:07:52.999Z</time></trkpt><trkpt lat="43.08391690931938" lon="-2.335626721157263"><ele>395.8</ele><time>2026-04-30T10:07:53.999Z</time></trkpt><trkpt lat="43.08399425794633" lon="-2.3357101902096136"><ele>396.20000000000005</ele><time>2026-04-30T10:07:54.999Z</time></trkpt><trkpt lat="43.08406639046327" lon="-2.3358040567912317"><ele>396.6</ele><time>2026-04-30T10:07:55.999Z</time></trkpt><trkpt lat="43.0841373575008" lon="-2.3359040654537035"><ele>397.0</ele><time>2026-04-30T10:07:56.999Z</time></trkpt><trkpt lat="43.08419818059183" lon="-2.33600968952054"><ele>397.0</ele><time>2026-04-30T10:07:57.999Z</time></trkpt><trkpt lat="43.08425468933105" lon="-2.3361219087753624"><ele>397.0</ele><time>2026-04-30T10:07:58.999Z</time></trkpt><trkpt lat="43.084310028902074" lon="-2.336234171040184"><ele>397.0</ele><time>2026-04-30T10:07:59.999Z</time></trkpt><trkpt lat="43.084358784091066" lon="-2.336352976688165"><ele>397.0</ele><time>2026-04-30T10:08:00.999Z</time></trkpt><trkpt lat="43.084409406979574" lon="-2.33646813277132"><ele>397.0</ele><time>2026-04-30T10:08:01.999Z</time></trkpt><trkpt lat="43.08445960589408" lon="-2.336586022060323"><ele>397.6</ele><time>2026-04-30T10:08:02.999Z</time></trkpt><trkpt lat="43.084517074851014" lon="-2.336693594175286"><ele>398.20000000000005</ele><time>2026-04-30T10:08:03.999Z</time></trkpt><trkpt lat="43.08456276148967" lon="-2.3368108523450943"><ele>398.8</ele><time>2026-04-30T10:08:04.999Z</time></trkpt><trkpt lat="43.084611374128066" lon="-2.3369238077526604"><ele>399.4</ele><time>2026-04-30T10:08:05.999Z</time></trkpt><trkpt lat="43.08465979727815" lon="-2.3370340975807586"><ele>400.0</ele><time>2026-04-30T10:08:06.999Z</time></trkpt><trkpt lat="43.08470516042923" lon="-2.3371475434494844"><ele>401.0</ele><time>2026-04-30T10:08:07.999Z</time></trkpt><trkpt lat="43.08475206327851" lon="-2.337259959320432"><ele>402.0</ele><time>2026-04-30T10:08:08.999Z</time></trkpt><trkpt lat="43.08479870963344" lon="-2.3373674037449064"><ele>403.0</ele><time>2026-04-30T10:08:09.999Z</time></trkpt><trkpt lat="43.08484291162257" lon="-2.337474034527957"><ele>404.0</ele><time>2026-04-30T10:08:10.999Z</time></trkpt><trkpt lat="43.08488591582265" lon="-2.337583035392703"><ele>405.0</ele><time>2026-04-30T10:08:11.999Z</time></trkpt><trkpt lat="43.08492926391917" lon="-2.3376917089666667"><ele>405.0</ele><time>2026-04-30T10:08:12.999Z</time></trkpt><trkpt lat="43.084975020505574" lon="-2.3378020620774054"><ele>405.0</ele><time>2026-04-30T10:08:13.999Z</time></trkpt><trkpt lat="43.085019837344234" lon="-2.3379098547984642"><ele>405.0</ele><time>2026-04-30T10:08:15Z</time></trkpt><trkpt lat="43.08506623241818" lon="-2.338017883681601"><ele>405.0</ele><time>2026-04-30T10:08:16Z</time></trkpt><trkpt lat="43.08511281233025" lon="-2.338125482825705"><ele>405.0</ele><time>2026-04-30T10:08:17Z</time></trkpt><trkpt lat="43.08515644398843" lon="-2.338234864481468"><ele>404.6</ele><time>2026-04-30T10:08:18Z</time></trkpt><trkpt lat="43.08520407981576" lon="-2.338342696372552"><ele>404.2</ele><time>2026-04-30T10:08:19Z</time></trkpt><trkpt lat="43.08525147828455" lon="-2.338452602527648"><ele>403.79999999999995</ele><time>2026-04-30T10:08:20Z</time></trkpt><trkpt lat="43.085296310789786" lon="-2.338559792765143"><ele>403.4</ele><time>2026-04-30T10:08:21Z</time></trkpt><trkpt lat="43.085342945520146" lon="-2.3386691164563342"><ele>403.0</ele><time>2026-04-30T10:08:22Z</time></trkpt><trkpt lat="43.08538917035712" lon="-2.3387791310695714"><ele>404.59999999999997</ele><time>2026-04-30T10:08:23Z</time></trkpt><trkpt lat="43.08543459593681" lon="-2.338886168325334"><ele>406.2</ele><time>2026-04-30T10:08:24Z</time></trkpt><trkpt lat="43.085480830028054" lon="-2.338993617675197"><ele>407.8</ele><time>2026-04-30T10:08:25Z</time></trkpt><trkpt lat="43.085527003854544" lon="-2.339099229330701"><ele>409.4</ele><time>2026-04-30T10:08:26Z</time></trkpt><trkpt lat="43.0855715386024" lon="-2.339205246893273"><ele>411.0</ele><time>2026-04-30T10:08:27Z</time></trkpt><trkpt lat="43.08561894581981" lon="-2.3393109176316718"><ele>411.0</ele><time>2026-04-30T10:08:28Z</time></trkpt><trkpt lat="43.0856588162534" lon="-2.339419525423913"><ele>411.0</ele><time>2026-04-30T10:08:29Z</time></trkpt><trkpt lat="43.08570045104945" lon="-2.3395253527765556"><ele>411.0</ele><time>2026-04-30T10:08:30Z</time></trkpt><trkpt lat="43.08574029459123" lon="-2.3396319764149953"><ele>411.0</ele><time>2026-04-30T10:08:31Z</time></trkpt><trkpt lat="43.085776442736346" lon="-2.339737140981886"><ele>411.0</ele><time>2026-04-30T10:08:32Z</time></trkpt><trkpt lat="43.08581102725249" lon="-2.339845676070559"><ele>411.0</ele><time>2026-04-30T10:08:33Z</time></trkpt><trkpt lat="43.08583808058537" lon="-2.3399500710957866"><ele>410.5</ele><time>2026-04-30T10:08:34Z</time></trkpt><trkpt lat="43.08586880871474" lon="-2.3400566745932494"><ele>410.0</ele><time>2026-04-30T10:08:35Z</time></trkpt><trkpt lat="43.085896951969026" lon="-2.340154251570974"><ele>409.5</ele><time>2026-04-30T10:08:36Z</time></trkpt><trkpt lat="43.0859281285391" lon="-2.340255449690309"><ele>409.0</ele><time>2026-04-30T10:08:37Z</time></trkpt><trkpt lat="43.08594553345243" lon="-2.340355126511968"><ele>408.5</ele><time>2026-04-30T10:08:38Z</time></trkpt><trkpt lat="43.08596840585789" lon="-2.3404571350985526"><ele>408.0</ele><time>2026-04-30T10:08:39Z</time></trkpt><trkpt lat="43.085995935946" lon="-2.340557347764718"><ele>409.5</ele><time>2026-04-30T10:08:40Z</time></trkpt><trkpt lat="43.08602423319609" lon="-2.3406570949391114"><ele>411.0</ele><time>2026-04-30T10:08:41Z</time></trkpt><trkpt lat="43.08605114842057" lon="-2.3407569909049193"><ele>412.5</ele><time>2026-04-30T10:08:42Z</time></trkpt><trkpt lat="43.086073867362714" lon="-2.340858864834173"><ele>414.0</ele><time>2026-04-30T10:08:43Z</time></trkpt><trkpt lat="43.086089970893745" lon="-2.3409665443130683"><ele>415.5</ele><time>2026-04-30T10:08:44Z</time></trkpt><trkpt lat="43.08609787888521" lon="-2.341076991345025"><ele>417.0</ele><time>2026-04-30T10:08:45Z</time></trkpt><trkpt lat="43.08609977653373" lon="-2.3411955835700224"><ele>417.0</ele><time>2026-04-30T10:08:46Z</time></trkpt><trkpt lat="43.08610405649049" lon="-2.341331350950764"><ele>417.0</ele><time>2026-04-30T10:08:47Z</time></trkpt><trkpt lat="43.08614976105137" lon="-2.3415353845578415"><ele>417.0</ele><time>2026-04-30T10:08:48Z</time></trkpt><trkpt lat="43.086146908277556" lon="-2.3417275123888777"><ele>417.0</ele><time>2026-04-30T10:08:49Z</time></trkpt><trkpt lat="43.08614502128902" lon="-2.341921479743098"><ele>417.6</ele><time>2026-04-30T10:08:52Z</time></trkpt><trkpt lat="43.08615898148096" lon="-2.3420492120004393"><ele>418.20000000000005</ele><time>2026-04-30T10:08:53Z</time></trkpt><trkpt lat="43.086178239062754" lon="-2.3421748913156843"><ele>418.8</ele><time>2026-04-30T10:08:54Z</time></trkpt><trkpt lat="43.08620415428419" lon="-2.3422964617071926"><ele>419.4</ele><time>2026-04-30T10:08:55Z</time></trkpt><trkpt lat="43.08623990562922" lon="-2.3424075183890576"><ele>420.0</ele><time>2026-04-30T10:08:56Z</time></trkpt><trkpt lat="43.08627240389822" lon="-2.3425203159716927"><ele>421.1666666666667</ele><time>2026-04-30T10:08:57Z</time></trkpt><trkpt lat="43.08630437552511" lon="-2.3426301642074665"><ele>422.33333333333337</ele><time>2026-04-30T10:08:58.001Z</time></trkpt><trkpt lat="43.086335874588514" lon="-2.342734257363285"><ele>423.5</ele><time>2026-04-30T10:08:59.001Z</time></trkpt><trkpt lat="43.086368191153525" lon="-2.3428388247797156"><ele>424.6666666666667</ele><time>2026-04-30T10:09:00.001Z</time></trkpt><trkpt lat="43.086397580910926" lon="-2.342939010531495"><ele>425.83333333333337</ele><time>2026-04-30T10:09:01.001Z</time></trkpt><trkpt lat="43.08642877281446" lon="-2.3430397212747422"><ele>427.0</ele><time>2026-04-30T10:09:02.001Z</time></trkpt><trkpt lat="43.08645938749049" lon="-2.34313496564301"><ele>427.00000000000006</ele><time>2026-04-30T10:09:03.001Z</time></trkpt><trkpt lat="43.08649087896659" lon="-2.3432295819902733"><ele>427.0</ele><time>2026-04-30T10:09:04.001Z</time></trkpt><trkpt lat="43.08652227777229" lon="-2.3433237551044566"><ele>427.0</ele><time>2026-04-30T10:09:05.001Z</time></trkpt><trkpt lat="43.08655828827035" lon="-2.3434160746767074"><ele>427.0</ele><time>2026-04-30T10:09:06.001Z</time></trkpt><trkpt lat="43.086603434014336" lon="-2.343505265678021"><ele>427.00000000000006</ele><time>2026-04-30T10:09:07.001Z</time></trkpt><trkpt lat="43.0866553766188" lon="-2.343584821147579"><ele>427.0</ele><time>2026-04-30T10:09:08.001Z</time></trkpt><trkpt lat="43.08670817954102" lon="-2.3436615639457834"><ele>427.00000000000006</ele><time>2026-04-30T10:09:09.001Z</time></trkpt><trkpt lat="43.086766212745914" lon="-2.3437325508252296"><ele>427.0</ele><time>2026-04-30T10:09:10.001Z</time></trkpt><trkpt lat="43.08682952685134" lon="-2.343797240777144"><ele>427.0</ele><time>2026-04-30T10:09:11.001Z</time></trkpt><trkpt lat="43.08688911056589" lon="-2.3438600276108814"><ele>427.0</ele><time>2026-04-30T10:09:12.001Z</time></trkpt><trkpt lat="43.08695460271377" lon="-2.3439178014221693"><ele>427.00000000000006</ele><time>2026-04-30T10:09:13.001Z</time></trkpt><trkpt lat="43.087020028133956" lon="-2.3439655980268426"><ele>427.0</ele><time>2026-04-30T10:09:14.001Z</time></trkpt><trkpt lat="43.08708588520553" lon="-2.3440143598219714"><ele>428.33333333333337</ele><time>2026-04-30T10:09:15.001Z</time></trkpt><trkpt lat="43.087153335922714" lon="-2.344064679340534"><ele>429.6666666666667</ele><time>2026-04-30T10:09:16.001Z</time></trkpt><trkpt lat="43.0872245551763" lon="-2.3441105477660615"><ele>431.0</ele><time>2026-04-30T10:09:17.001Z</time></trkpt><trkpt lat="43.08729461639235" lon="-2.3441521221889827"><ele>432.33333333333337</ele><time>2026-04-30T10:09:18.001Z</time></trkpt><trkpt lat="43.08736563144409" lon="-2.3442082479585773"><ele>433.6666666666667</ele><time>2026-04-30T10:09:19.001Z</time></trkpt><trkpt lat="43.08743190793044" lon="-2.344272196733778"><ele>435.0</ele><time>2026-04-30T10:09:20.001Z</time></trkpt><trkpt lat="43.08749870956033" lon="-2.3443506070874336"><ele>435.2</ele><time>2026-04-30T10:09:21.001Z</time></trkpt><trkpt lat="43.08756571377333" lon="-2.344432659494503"><ele>435.4</ele><time>2026-04-30T10:09:22.001Z</time></trkpt><trkpt lat="43.087635666691256" lon="-2.3445153760331903"><ele>435.6</ele><time>2026-04-30T10:09:23.001Z</time></trkpt><trkpt lat="43.0877050724877" lon="-2.3445956564045125"><ele>435.8</ele><time>2026-04-30T10:09:24.001Z</time></trkpt><trkpt lat="43.08777774581962" lon="-2.3446782395460355"><ele>436.0</ele><time>2026-04-30T10:09:25.001Z</time></trkpt><trkpt lat="43.08785912324717" lon="-2.344735443387188"><ele>434.8</ele><time>2026-04-30T10:09:26.001Z</time></trkpt><trkpt lat="43.087955429790384" lon="-2.3447478442633316"><ele>433.6</ele><time>2026-04-30T10:09:27.001Z</time></trkpt><trkpt lat="43.088045673075946" lon="-2.3447660485679065"><ele>432.4</ele><time>2026-04-30T10:09:28.001Z</time></trkpt><trkpt lat="43.08813734094046" lon="-2.344763081542435"><ele>431.2</ele><time>2026-04-30T10:09:29.001Z</time></trkpt><trkpt lat="43.08822818971227" lon="-2.34473172899975"><ele>430.0</ele><time>2026-04-30T10:09:30.001Z</time></trkpt><trkpt lat="43.08831381140407" lon="-2.344706562153166"><ele>433.50000000000006</ele><time>2026-04-30T10:09:31.001Z</time></trkpt><trkpt lat="43.08839641835827" lon="-2.3446698617190584"><ele>437.0</ele><time>2026-04-30T10:09:32.001Z</time></trkpt><trkpt lat="43.08847714532808" lon="-2.344635658494329"><ele>440.5</ele><time>2026-04-30T10:09:33.001Z</time></trkpt><trkpt lat="43.088558667112125" lon="-2.34460393987505"><ele>444.0</ele><time>2026-04-30T10:09:34.001Z</time></trkpt><trkpt lat="43.088639164123855" lon="-2.344576523075461"><ele>447.50000000000006</ele><time>2026-04-30T10:09:35.001Z</time></trkpt><trkpt lat="43.08871819836312" lon="-2.3445371115887115"><ele>451.0</ele><time>2026-04-30T10:09:36.001Z</time></trkpt><trkpt lat="43.08879877013663" lon="-2.3445099807212615"><ele>451.00000000000006</ele><time>2026-04-30T10:09:37.001Z</time></trkpt><trkpt lat="43.08887935933382" lon="-2.3444990904180947"><ele>451.0</ele><time>2026-04-30T10:09:38.001Z</time></trkpt><trkpt lat="43.08896677402291" lon="-2.3444907846825003"><ele>451.0</ele><time>2026-04-30T10:09:39.001Z</time></trkpt><trkpt lat="43.089040659246635" lon="-2.3445010828470783"><ele>451.0</ele><time>2026-04-30T10:09:40.001Z</time></trkpt><trkpt lat="43.089119639708116" lon="-2.3445416253792453"><ele>451.00000000000006</ele><time>2026-04-30T10:09:41.001Z</time></trkpt><trkpt lat="43.08918550376197" lon="-2.3446014515550924"><ele>451.0</ele><time>2026-04-30T10:09:42.001Z</time></trkpt><trkpt lat="43.089248658905" lon="-2.344678679214093"><ele>449.20000000000005</ele><time>2026-04-30T10:09:43.001Z</time></trkpt><trkpt lat="43.0893016723795" lon="-2.3447698503030048"><ele>447.40000000000003</ele><time>2026-04-30T10:09:44.001Z</time></trkpt><trkpt lat="43.089336300700005" lon="-2.344867459731779"><ele>445.6</ele><time>2026-04-30T10:09:45.001Z</time></trkpt><trkpt lat="43.08937517464489" lon="-2.34497957908759"><ele>443.8</ele><time>2026-04-30T10:09:46.001Z</time></trkpt><trkpt lat="43.0894295784356" lon="-2.345179956587595"><ele>442.0</ele><time>2026-04-30T10:09:47.001Z</time></trkpt><trkpt lat="43.08939071413033" lon="-2.3453882161763424"><ele>442.00000000000006</ele><time>2026-04-30T10:09:48.001Z</time></trkpt><trkpt lat="43.08937316661457" lon="-2.3452935497000498"><ele>442.0</ele><time>2026-04-30T10:09:49.001Z</time></trkpt><trkpt lat="43.08934405626058" lon="-2.345399778854256"><ele>442.0</ele><time>2026-04-30T10:09:50.001Z</time></trkpt><trkpt lat="43.089295086541846" lon="-2.345496458506948"><ele>442.0</ele><time>2026-04-30T10:09:51.001Z</time></trkpt><trkpt lat="43.089236585423514" lon="-2.345580836645475"><ele>442.00000000000006</ele><time>2026-04-30T10:09:52.001Z</time></trkpt><trkpt lat="43.08917181120849" lon="-2.345649288871808"><ele>442.0</ele><time>2026-04-30T10:09:53.002Z</time></trkpt><trkpt lat="43.08909694342023" lon="-2.345701176057421"><ele>442.1666666666667</ele><time>2026-04-30T10:09:54.002Z</time></trkpt><trkpt lat="43.08901731352383" lon="-2.3457364132856395"><ele>442.33333333333337</ele><time>2026-04-30T10:09:55.002Z</time></trkpt><trkpt lat="43.088942458347645" lon="-2.345771970639905"><ele>442.5</ele><time>2026-04-30T10:09:56.002Z</time></trkpt><trkpt lat="43.08886502639119" lon="-2.345807290057677"><ele>442.66666666666663</ele><time>2026-04-30T10:09:56.999Z</time></trkpt><trkpt lat="43.0887913806" lon="-2.3458352147244503"><ele>442.8333333333333</ele><time>2026-04-30T10:09:57.999Z</time></trkpt><trkpt lat="43.088720952672446" lon="-2.3458724516083573"><ele>443.0</ele><time>2026-04-30T10:09:58.999Z</time></trkpt><trkpt lat="43.08864831247942" lon="-2.3459131931043857"><ele>443.0</ele><time>2026-04-30T10:09:59.999Z</time></trkpt><trkpt lat="43.08858643765133" lon="-2.3459732497187797"><ele>443.0</ele><time>2026-04-30T10:10:00.999Z</time></trkpt><trkpt lat="43.0885426937647" lon="-2.346056727278784"><ele>443.0</ele><time>2026-04-30T10:10:01.999Z</time></trkpt><trkpt lat="43.0885102555121" lon="-2.3461487991758014"><ele>443.0</ele><time>2026-04-30T10:10:02.999Z</time></trkpt><trkpt lat="43.088491530433636" lon="-2.3462512035632015"><ele>443.0</ele><time>2026-04-30T10:10:03.999Z</time></trkpt><trkpt lat="43.088484625008974" lon="-2.346347747275756"><ele>443.0</ele><time>2026-04-30T10:10:05Z</time></trkpt><trkpt lat="43.088490667208205" lon="-2.3464484950280204"><ele>443.0</ele><time>2026-04-30T10:10:06Z</time></trkpt><trkpt lat="43.088498490020385" lon="-2.346548005459023"><ele>444.42857142857144</ele><time>2026-04-30T10:10:07Z</time></trkpt><trkpt lat="43.088502666594174" lon="-2.346643615444376"><ele>445.8571428571429</ele><time>2026-04-30T10:10:08Z</time></trkpt><trkpt lat="43.088504917611026" lon="-2.346739460139412"><ele>447.2857142857142</ele><time>2026-04-30T10:10:09Z</time></trkpt><trkpt lat="43.08850628573922" lon="-2.346833117295555"><ele>448.71428571428567</ele><time>2026-04-30T10:10:10Z</time></trkpt><trkpt lat="43.08850915791471" lon="-2.3469248131841334"><ele>450.1428571428571</ele><time>2026-04-30T10:10:11Z</time></trkpt><trkpt lat="43.08850955199801" lon="-2.3470170635556733"><ele>451.5714285714285</ele><time>2026-04-30T10:10:12Z</time></trkpt><trkpt lat="43.08852172973527" lon="-2.3471085683322412"><ele>452.99999999999994</ele><time>2026-04-30T10:10:13Z</time></trkpt><trkpt lat="43.088517841149496" lon="-2.3471992577717753"><ele>454.99999999999994</ele><time>2026-04-30T10:10:14Z</time></trkpt><trkpt lat="43.08850783020616" lon="-2.347291736789233"><ele>457.0</ele><time>2026-04-30T10:10:15Z</time></trkpt><trkpt lat="43.0884876209273" lon="-2.347381939226822"><ele>458.99999999999994</ele><time>2026-04-30T10:10:16Z</time></trkpt><trkpt lat="43.088457145453646" lon="-2.3474648344288296"><ele>460.99999999999994</ele><time>2026-04-30T10:10:17Z</time></trkpt><trkpt lat="43.08841307493521" lon="-2.347539535923947"><ele>463.0</ele><time>2026-04-30T10:10:18Z</time></trkpt><trkpt lat="43.088357910911185" lon="-2.3476076604341194"><ele>464.99999999999994</ele><time>2026-04-30T10:10:19Z</time></trkpt><trkpt lat="43.08829537658563" lon="-2.347656999398403"><ele>466.99999999999994</ele><time>2026-04-30T10:10:20Z</time></trkpt><trkpt lat="43.08822501918229" lon="-2.34768646518431"><ele>467.2857142857142</ele><time>2026-04-30T10:10:21Z</time></trkpt><trkpt lat="43.088151685204465" lon="-2.3476961376275676"><ele>467.57142857142856</ele><time>2026-04-30T10:10:22Z</time></trkpt><trkpt lat="43.0880780179838" lon="-2.3476859844806923"><ele>467.85714285714283</ele><time>2026-04-30T10:10:23Z</time></trkpt><trkpt lat="43.08800585075032" lon="-2.3476583869868826"><ele>468.1428571428571</ele><time>2026-04-30T10:10:24Z</time></trkpt><trkpt lat="43.08793757468172" lon="-2.3476185613463687"><ele>468.42857142857144</ele><time>2026-04-30T10:10:25Z</time></trkpt><trkpt lat="43.087876429902444" lon="-2.347567049865418"><ele>468.7142857142857</ele><time>2026-04-30T10:10:26Z</time></trkpt><trkpt lat="43.08781591493376" lon="-2.3475020103608064"><ele>469.0</ele><time>2026-04-30T10:10:27Z</time></trkpt><trkpt lat="43.087752683787485" lon="-2.34744996557375"><ele>469.0</ele><time>2026-04-30T10:10:28Z</time></trkpt><trkpt lat="43.0876900830777" lon="-2.34740145852553"><ele>469.0</ele><time>2026-04-30T10:10:29Z</time></trkpt><trkpt lat="43.087627136917554" lon="-2.347350145849538"><ele>469.0</ele><time>2026-04-30T10:10:30Z</time></trkpt><trkpt lat="43.087560626866015" lon="-2.347302100184368"><ele>469.0</ele><time>2026-04-30T10:10:31Z</time></trkpt><trkpt lat="43.08749007937064" lon="-2.3472753477623787"><ele>469.0</ele><time>2026-04-30T10:10:32Z</time></trkpt><trkpt lat="43.08741393263234" lon="-2.3472690102127753"><ele>469.0</ele><time>2026-04-30T10:10:33Z</time></trkpt><trkpt lat="43.087343007944966" lon="-2.347291502521523"><ele>469.0</ele><time>2026-04-30T10:10:34Z</time></trkpt><trkpt lat="43.08727677831259" lon="-2.347342946425541"><ele>470.8571428571429</ele><time>2026-04-30T10:10:35Z</time></trkpt><trkpt lat="43.087221747138926" lon="-2.347412151030904"><ele>472.7142857142857</ele><time>2026-04-30T10:10:36Z</time></trkpt><trkpt lat="43.08717593805809" lon="-2.3474932550181173"><ele>474.57142857142856</ele><time>2026-04-30T10:10:37Z</time></trkpt><trkpt lat="43.08714435809342" lon="-2.3475847852914993"><ele>476.42857142857144</ele><time>2026-04-30T10:10:38Z</time></trkpt><trkpt lat="43.0871398091358" lon="-2.3476846913034923"><ele>478.28571428571433</ele><time>2026-04-30T10:10:39Z</time></trkpt><trkpt lat="43.08715560590888" lon="-2.347789550111"><ele>480.14285714285717</ele><time>2026-04-30T10:10:40Z</time></trkpt><trkpt lat="43.08719474104274" lon="-2.3478742796856986"><ele>482.0</ele><time>2026-04-30T10:10:41Z</time></trkpt><trkpt lat="43.08723449124813" lon="-2.347958300179857"><ele>482.0</ele><time>2026-04-30T10:10:42Z</time></trkpt><trkpt lat="43.087287052399624" lon="-2.348027030715767"><ele>482.00000000000006</ele><time>2026-04-30T10:10:43Z</time></trkpt><trkpt lat="43.087341496048495" lon="-2.34808643162939"><ele>482.0</ele><time>2026-04-30T10:10:44Z</time></trkpt><trkpt lat="43.087394586972835" lon="-2.3481511950921017"><ele>482.0</ele><time>2026-04-30T10:10:45Z</time></trkpt><trkpt lat="43.08744932633381" lon="-2.3482138767434644"><ele>482.00000000000006</ele><time>2026-04-30T10:10:46Z</time></trkpt><trkpt lat="43.08750287158734" lon="-2.3482779695723583"><ele>482.0</ele><time>2026-04-30T10:10:47.001Z</time></trkpt><trkpt lat="43.08755519086533" lon="-2.3483426546959443"><ele>482.0</ele><time>2026-04-30T10:10:48.001Z</time></trkpt><trkpt lat="43.08760852142639" lon="-2.3484107484724346"><ele>481.7142857142857</ele><time>2026-04-30T10:10:49.001Z</time></trkpt><trkpt lat="43.08766001168129" lon="-2.3484804402903694"><ele>481.42857142857144</ele><time>2026-04-30T10:10:50.001Z</time></trkpt><trkpt lat="43.087703546319496" lon="-2.3485556622911976"><ele>481.14285714285717</ele><time>2026-04-30T10:10:51.001Z</time></trkpt><trkpt lat="43.08774202660375" lon="-2.348635045447645"><ele>480.8571428571429</ele><time>2026-04-30T10:10:52.001Z</time></trkpt><trkpt lat="43.087777162495954" lon="-2.348717396651254"><ele>480.57142857142856</ele><time>2026-04-30T10:10:53.001Z</time></trkpt><trkpt lat="43.08781235678922" lon="-2.3488004759710623"><ele>480.28571428571433</ele><time>2026-04-30T10:10:54.001Z</time></trkpt><trkpt lat="43.087842534398156" lon="-2.3488877821305842"><ele>480.0</ele><time>2026-04-30T10:10:55.001Z</time></trkpt><trkpt lat="43.0878689283533" lon="-2.348974138667542"><ele>482.5</ele><time>2026-04-30T10:10:56.001Z</time></trkpt><trkpt lat="43.08789687017334" lon="-2.3490602844981305"><ele>485.0</ele><time>2026-04-30T10:10:57.001Z</time></trkpt><trkpt lat="43.08792621186147" lon="-2.349143132777"><ele>487.5</ele><time>2026-04-30T10:10:58.001Z</time></trkpt><trkpt lat="43.087952459391616" lon="-2.349225655687541"><ele>490.0</ele><time>2026-04-30T10:10:59.001Z</time></trkpt><trkpt lat="43.08797809070332" lon="-2.3493050005979828"><ele>492.5</ele><time>2026-04-30T10:11:00.001Z</time></trkpt><trkpt lat="43.08802978361269" lon="-2.349463824302256"><ele>495.0</ele><time>2026-04-30T10:11:02.001Z</time></trkpt><trkpt lat="43.08805381601816" lon="-2.349543627280316"><ele>495.0</ele><time>2026-04-30T10:11:03.001Z</time></trkpt><trkpt lat="43.08807508342141" lon="-2.349624886852201"><ele>495.0</ele><time>2026-04-30T10:11:04.001Z</time></trkpt><trkpt lat="43.08810775355348" lon="-2.3497906635236845"><ele>495.0</ele><time>2026-04-30T10:11:06.001Z</time></trkpt><trkpt lat="43.08811945423811" lon="-2.34987912850948"><ele>495.0</ele><time>2026-04-30T10:11:07.001Z</time></trkpt><trkpt lat="43.088134391003585" lon="-2.3499684082392576"><ele>495.0</ele><time>2026-04-30T10:11:08.001Z</time></trkpt><trkpt lat="43.08814558496092" lon="-2.350060933697537"><ele>495.0</ele><time>2026-04-30T10:11:09.001Z</time></trkpt><trkpt lat="43.08815228379083" lon="-2.3501625780318753"><ele>496.4</ele><time>2026-04-30T10:11:10.001Z</time></trkpt><trkpt lat="43.08815880013006" lon="-2.350282155464712"><ele>497.8</ele><time>2026-04-30T10:11:11.001Z</time></trkpt><trkpt lat="43.088155620856654" lon="-2.3503948966373422"><ele>499.20000000000005</ele><time>2026-04-30T10:11:12.001Z</time></trkpt><trkpt lat="43.08814081640269" lon="-2.3505001311835336"><ele>500.6</ele><time>2026-04-30T10:11:13.001Z</time></trkpt><trkpt lat="43.0881249233652" lon="-2.35070881674506"><ele>502.0</ele><time>2026-04-30T10:11:15.001Z</time></trkpt><trkpt lat="43.08811419785408" lon="-2.3509698967265216"><ele>502.0</ele><time>2026-04-30T10:11:16.001Z</time></trkpt><trkpt lat="43.08810025603952" lon="-2.3511221935020923"><ele>502.0</ele><time>2026-04-30T10:11:17.001Z</time></trkpt><trkpt lat="43.08808461071866" lon="-2.3512745539580266"><ele>502.0</ele><time>2026-04-30T10:11:18.001Z</time></trkpt><trkpt lat="43.08806738909846" lon="-2.351430078735606"><ele>502.0</ele><time>2026-04-30T10:11:19.001Z</time></trkpt><trkpt lat="43.08805144620992" lon="-2.351583468234513"><ele>500.0</ele><time>2026-04-30T10:11:20.001Z</time></trkpt><trkpt lat="43.08803532810407" lon="-2.3517403968876582"><ele>498.0</ele><time>2026-04-30T10:11:21.001Z</time></trkpt><trkpt lat="43.08801890536987" lon="-2.351899332264554"><ele>496.0</ele><time>2026-04-30T10:11:22.001Z</time></trkpt><trkpt lat="43.08800337556017" lon="-2.352059178407145"><ele>494.0</ele><time>2026-04-30T10:11:23.001Z</time></trkpt><trkpt lat="43.0879886459241" lon="-2.3522164393683522"><ele>492.5</ele><time>2026-04-30T10:11:24.001Z</time></trkpt><trkpt lat="43.087972115975155" lon="-2.3523775271641236"><ele>491.0</ele><time>2026-04-30T10:11:25.001Z</time></trkpt><trkpt lat="43.087954861409855" lon="-2.3525381102858907"><ele>489.5</ele><time>2026-04-30T10:11:26.001Z</time></trkpt><trkpt lat="43.08793952467563" lon="-2.352698256662489"><ele>488.0</ele><time>2026-04-30T10:11:27.001Z</time></trkpt><trkpt lat="43.08792203268998" lon="-2.352865551366418"><ele>488.0</ele><time>2026-04-30T10:11:28.001Z</time></trkpt><trkpt lat="43.08790564639887" lon="-2.3530248375587717"><ele>488.0</ele><time>2026-04-30T10:11:29.001Z</time></trkpt><trkpt lat="43.087892348578784" lon="-2.3531900209470615"><ele>488.0</ele><time>2026-04-30T10:11:30.001Z</time></trkpt><trkpt lat="43.0878952077529" lon="-2.3533529055997375"><ele>488.0</ele><time>2026-04-30T10:11:31.001Z</time></trkpt><trkpt lat="43.087898550496305" lon="-2.353513258403588"><ele>486.75</ele><time>2026-04-30T10:11:32.001Z</time></trkpt><trkpt lat="43.087905553368635" lon="-2.353672615233228"><ele>485.5</ele><time>2026-04-30T10:11:33.001Z</time></trkpt><trkpt lat="43.08790834589348" lon="-2.3538355948402607"><ele>484.25</ele><time>2026-04-30T10:11:34.001Z</time></trkpt><trkpt lat="43.0878949533057" lon="-2.3539929151519825"><ele>483.0</ele><time>2026-04-30T10:11:35.001Z</time></trkpt><trkpt lat="43.087863443668084" lon="-2.3541460631361817"><ele>481.0</ele><time>2026-04-30T10:11:36.001Z</time></trkpt><trkpt lat="43.08783744738159" lon="-2.3543066087218762"><ele>479.0</ele><time>2026-04-30T10:11:37.002Z</time></trkpt><trkpt lat="43.087817063976395" lon="-2.3544698258857495"><ele>477.0</ele><time>2026-04-30T10:11:38.002Z</time></trkpt><trkpt lat="43.087819469181184" lon="-2.354634318345334"><ele>475.0</ele><time>2026-04-30T10:11:39.002Z</time></trkpt><trkpt lat="43.087842973717045" lon="-2.354798675220482"><ele>473.5</ele><time>2026-04-30T10:11:40.002Z</time></trkpt><trkpt lat="43.08786729912229" lon="-2.354959013189737"><ele>472.0</ele><time>2026-04-30T10:11:41.002Z</time></trkpt><trkpt lat="43.08788826098907" lon="-2.3551187819973407"><ele>470.5</ele><time>2026-04-30T10:11:42.002Z</time></trkpt><trkpt lat="43.08790509404027" lon="-2.3552829064741916"><ele>469.0</ele><time>2026-04-30T10:11:43.002Z</time></trkpt><trkpt lat="43.08792558515717" lon="-2.35544510917821"><ele>467.25</ele><time>2026-04-30T10:11:44.002Z</time></trkpt><trkpt lat="43.08794649299321" lon="-2.355604744223455"><ele>465.5</ele><time>2026-04-30T10:11:45.002Z</time></trkpt><trkpt lat="43.08796472802891" lon="-2.35576435866376"><ele>463.75</ele><time>2026-04-30T10:11:46.002Z</time></trkpt><trkpt lat="43.08798408770692" lon="-2.355922147370935"><ele>462.0</ele><time>2026-04-30T10:11:47.002Z</time></trkpt><trkpt lat="43.088001908443985" lon="-2.35607952027741"><ele>462.0</ele><time>2026-04-30T10:11:48.002Z</time></trkpt><trkpt lat="43.08801618333748" lon="-2.3562268536448743"><ele>462.00000000000006</ele><time>2026-04-30T10:11:49.002Z</time></trkpt><trkpt lat="43.08802902605939" lon="-2.35637627944158"><ele>462.00000000000006</ele><time>2026-04-30T10:11:50.002Z</time></trkpt><trkpt lat="43.08804109061058" lon="-2.3565197678286993"><ele>462.0</ele><time>2026-04-30T10:11:51.002Z</time></trkpt><trkpt lat="43.08805313908804" lon="-2.356662398585081"><ele>462.0</ele><time>2026-04-30T10:11:52.002Z</time></trkpt><trkpt lat="43.088061277291" lon="-2.35680237782137"><ele>461.5</ele><time>2026-04-30T10:11:53.002Z</time></trkpt><trkpt lat="43.08807127752369" lon="-2.356932325558352"><ele>461.0</ele><time>2026-04-30T10:11:54.002Z</time></trkpt><trkpt lat="43.088105640940704" lon="-2.357032681987359"><ele>460.5</ele><time>2026-04-30T10:11:55.002Z</time></trkpt><trkpt lat="43.08816452646627" lon="-2.3570968137732575"><ele>460.0</ele><time>2026-04-30T10:11:56.002Z</time></trkpt><trkpt lat="43.08823841795303" lon="-2.3571192969657013"><ele>459.5</ele><time>2026-04-30T10:11:57.002Z</time></trkpt><trkpt lat="43.088312703315026" lon="-2.3570811633683357"><ele>459.0</ele><time>2026-04-30T10:11:58.002Z</time></trkpt><trkpt lat="43.088364871966284" lon="-2.3569632394585236"><ele>455.2</ele><time>2026-04-30T10:11:59.002Z</time></trkpt><trkpt lat="43.08841222885174" lon="-2.3568536451723388"><ele>451.4</ele><time>2026-04-30T10:12:00.002Z</time></trkpt><trkpt lat="43.08834682260515" lon="-2.356717550420696"><ele>447.6</ele><time>2026-04-30T10:12:01.002Z</time></trkpt><trkpt lat="43.08831773332258" lon="-2.3565835203999455"><ele>443.8</ele><time>2026-04-30T10:12:02.002Z</time></trkpt><trkpt lat="43.08829322395628" lon="-2.356454051258341"><ele>440.0</ele><time>2026-04-30T10:12:03.001Z</time></trkpt><trkpt lat="43.08828701951476" lon="-2.3563294364318437"><ele>439.8</ele><time>2026-04-30T10:12:04.001Z</time></trkpt><trkpt lat="43.08831055627016" lon="-2.3562165920081166"><ele>439.6</ele><time>2026-04-30T10:12:05.001Z</time></trkpt><trkpt lat="43.08836524750859" lon="-2.356127304359672"><ele>439.4</ele><time>2026-04-30T10:12:06.001Z</time></trkpt><trkpt lat="43.0884439853458" lon="-2.35607511953675"><ele>439.2</ele><time>2026-04-30T10:12:07.001Z</time></trkpt><trkpt lat="43.088558739829935" lon="-2.356126939794378"><ele>439.0</ele><time>2026-04-30T10:12:08.001Z</time></trkpt><trkpt lat="43.08864077284925" lon="-2.356209225658161"><ele>439.0</ele><time>2026-04-30T10:12:09.001Z</time></trkpt><trkpt lat="43.08868882471758" lon="-2.356331480329252"><ele>439.0</ele><time>2026-04-30T10:12:10.001Z</time></trkpt><trkpt lat="43.08870849880746" lon="-2.356482811057656"><ele>439.0</ele><time>2026-04-30T10:12:11.001Z</time></trkpt><trkpt lat="43.08870394598275" lon="-2.356623710409016"><ele>439.0</ele><time>2026-04-30T10:12:12.001Z</time></trkpt><trkpt lat="43.08870421475623" lon="-2.356767361798496"><ele>439.0</ele><time>2026-04-30T10:12:13.001Z</time></trkpt><trkpt lat="43.08870190789987" lon="-2.3569057843362904"><ele>439.2</ele><time>2026-04-30T10:12:14.001Z</time></trkpt><trkpt lat="43.08868968482368" lon="-2.357044439006529"><ele>439.4</ele><time>2026-04-30T10:12:15.001Z</time></trkpt><trkpt lat="43.088660935093834" lon="-2.357182811188622"><ele>439.6</ele><time>2026-04-30T10:12:16.001Z</time></trkpt><trkpt lat="43.08861426521478" lon="-2.357314914994468"><ele>439.8</ele><time>2026-04-30T10:12:17.001Z</time></trkpt><trkpt lat="43.088552495094035" lon="-2.357438793711988"><ele>440.0</ele><time>2026-04-30T10:12:18.001Z</time></trkpt><trkpt lat="43.08847654764708" lon="-2.357543527326124"><ele>438.4</ele><time>2026-04-30T10:12:19.001Z</time></trkpt><trkpt lat="43.08838828069198" lon="-2.357624549307341"><ele>436.8</ele><time>2026-04-30T10:12:20.001Z</time></trkpt><trkpt lat="43.08829442843641" lon="-2.357704382304693"><ele>435.20000000000005</ele><time>2026-04-30T10:12:21.001Z</time></trkpt><trkpt lat="43.08820519799471" lon="-2.357778891828493"><ele>433.6</ele><time>2026-04-30T10:12:22.001Z</time></trkpt><trkpt lat="43.088123188726435" lon="-2.357871167669428"><ele>432.0</ele><time>2026-04-30T10:12:23.001Z</time></trkpt><trkpt lat="43.08805639310524" lon="-2.35798883124819"><ele>434.20000000000005</ele><time>2026-04-30T10:12:24.001Z</time></trkpt><trkpt lat="43.08801850138142" lon="-2.358134720038315"><ele>436.40000000000003</ele><time>2026-04-30T10:12:25.001Z</time></trkpt><trkpt lat="43.088005021969515" lon="-2.358279577729675"><ele>438.59999999999997</ele><time>2026-04-30T10:12:26.001Z</time></trkpt><trkpt lat="43.088009445950476" lon="-2.358409518863002"><ele>440.79999999999995</ele><time>2026-04-30T10:12:27.001Z</time></trkpt><trkpt lat="43.08802724432467" lon="-2.358517217653858"><ele>443.0</ele><time>2026-04-30T10:12:28.001Z</time></trkpt><trkpt lat="43.08804778662942" lon="-2.358604720802238"><ele>442.99999999999994</ele><time>2026-04-30T10:12:29.001Z</time></trkpt><trkpt lat="43.08808627953557" lon="-2.3587054256267894"><ele>443.0</ele><time>2026-04-30T10:12:31.001Z</time></trkpt><trkpt lat="43.08815305081697" lon="-2.3587407723623444"><ele>443.0</ele><time>2026-04-30T10:12:34.001Z</time></trkpt><trkpt lat="43.08823428407149" lon="-2.3588104051658623"><ele>443.0</ele><time>2026-04-30T10:12:37.001Z</time></trkpt><trkpt lat="43.088298001768706" lon="-2.3588632317091145"><ele>442.99999999999994</ele><time>2026-04-30T10:12:39.001Z</time></trkpt><trkpt lat="43.08836209781489" lon="-2.358970082657472"><ele>443.0</ele><time>2026-04-30T10:12:41.001Z</time></trkpt><trkpt lat="43.088363675895835" lon="-2.359143833308187"><ele>442.7142857142857</ele><time>2026-04-30T10:12:43.001Z</time></trkpt><trkpt lat="43.088325663700154" lon="-2.3592276460006265"><ele>442.42857142857144</ele><time>2026-04-30T10:12:44.001Z</time></trkpt><trkpt lat="43.08826837722002" lon="-2.359286190403719"><ele>442.1428571428571</ele><time>2026-04-30T10:12:45.001Z</time></trkpt><trkpt lat="43.08820306619164" lon="-2.3593188066736346"><ele>441.8571428571429</ele><time>2026-04-30T10:12:46.001Z</time></trkpt><trkpt lat="43.088131463640636" lon="-2.359338376566048"><ele>441.57142857142856</ele><time>2026-04-30T10:12:47.001Z</time></trkpt><trkpt lat="43.08806509931678" lon="-2.3593725047967045"><ele>441.2857142857143</ele><time>2026-04-30T10:12:48.001Z</time></trkpt><trkpt lat="43.08799991657906" lon="-2.3594282970765224"><ele>441.0</ele><time>2026-04-30T10:12:49.001Z</time></trkpt><trkpt lat="43.087945899713716" lon="-2.359504639919307"><ele>441.0</ele><time>2026-04-30T10:12:50.001Z</time></trkpt><trkpt lat="43.087897025603894" lon="-2.359598945455272"><ele>441.0</ele><time>2026-04-30T10:12:51.001Z</time></trkpt><trkpt lat="43.087905068295186" lon="-2.3597454263664734"><ele>441.0</ele><time>2026-04-30T10:12:52.001Z</time></trkpt><trkpt lat="43.08792008163489" lon="-2.359878106377134"><ele>441.0</ele><time>2026-04-30T10:12:53.001Z</time></trkpt><trkpt lat="43.08793669593488" lon="-2.3600073249182225"><ele>441.0</ele><time>2026-04-30T10:12:54.001Z</time></trkpt><trkpt lat="43.087944866429694" lon="-2.3601347849167293"><ele>439.8</ele><time>2026-04-30T10:12:55.001Z</time></trkpt><trkpt lat="43.087951360064245" lon="-2.3602688848596687"><ele>438.6</ele><time>2026-04-30T10:12:56.001Z</time></trkpt><trkpt lat="43.08795287980641" lon="-2.360407754511438"><ele>437.4</ele><time>2026-04-30T10:12:57.001Z</time></trkpt><trkpt lat="43.087950022445305" lon="-2.3605435799667798"><ele>436.2</ele><time>2026-04-30T10:12:58.001Z</time></trkpt><trkpt lat="43.087934015212255" lon="-2.3606855030992855"><ele>435.0</ele><time>2026-04-30T10:12:59.001Z</time></trkpt><trkpt lat="43.08790046893474" lon="-2.3608244934961196"><ele>432.6</ele><time>2026-04-30T10:13:00.001Z</time></trkpt><trkpt lat="43.0878514317345" lon="-2.3609521235219564"><ele>430.2</ele><time>2026-04-30T10:13:01.001Z</time></trkpt><trkpt lat="43.08778561222245" lon="-2.361070948855588"><ele>427.79999999999995</ele><time>2026-04-30T10:13:02.001Z</time></trkpt><trkpt lat="43.087713110224655" lon="-2.361173421768145"><ele>425.4</ele><time>2026-04-30T10:13:03.001Z</time></trkpt><trkpt lat="43.08762564625523" lon="-2.3612580105601837"><ele>423.0</ele><time>2026-04-30T10:13:04.001Z</time></trkpt><trkpt lat="43.08752375667336" lon="-2.361326689742756"><ele>419.25</ele><time>2026-04-30T10:13:05.001Z</time></trkpt><trkpt lat="43.087418062407416" lon="-2.361366954080093"><ele>415.5</ele><time>2026-04-30T10:13:06.001Z</time></trkpt><trkpt lat="43.08730584887701" lon="-2.361392561847014"><ele>411.75</ele><time>2026-04-30T10:13:07.001Z</time></trkpt><trkpt lat="43.087190835990384" lon="-2.3613982896428225"><ele>408.0</ele><time>2026-04-30T10:13:08.001Z</time></trkpt><trkpt lat="43.087078518372294" lon="-2.361388494073402"><ele>408.0</ele><time>2026-04-30T10:13:09.001Z</time></trkpt><trkpt lat="43.086967356872776" lon="-2.361373914949144"><ele>408.0</ele><time>2026-04-30T10:13:10.001Z</time></trkpt><trkpt lat="43.08686456966059" lon="-2.361407948575126"><ele>408.0</ele><time>2026-04-30T10:13:11.001Z</time></trkpt><trkpt lat="43.08678808559771" lon="-2.3614290018025006"><ele>408.0</ele><time>2026-04-30T10:13:12.001Z</time></trkpt><trkpt lat="43.08673614864831" lon="-2.3615186597661126"><ele>408.0</ele><time>2026-04-30T10:13:13.001Z</time></trkpt><trkpt lat="43.08671369367426" lon="-2.3616443029167002"><ele>408.0</ele><time>2026-04-30T10:13:14.001Z</time></trkpt><trkpt lat="43.08673240250036" lon="-2.361776805374789"><ele>408.0</ele><time>2026-04-30T10:13:15.001Z</time></trkpt><trkpt lat="43.08678920350397" lon="-2.3618919946874155"><ele>408.0</ele><time>2026-04-30T10:13:16.001Z</time></trkpt><trkpt lat="43.08686519661146" lon="-2.361983866578231"><ele>408.0</ele><time>2026-04-30T10:13:17.001Z</time></trkpt><trkpt lat="43.086950005968696" lon="-2.36206371606426"><ele>408.0</ele><time>2026-04-30T10:13:18.001Z</time></trkpt><trkpt lat="43.087039136488464" lon="-2.3621358471569716"><ele>408.0</ele><time>2026-04-30T10:13:19.001Z</time></trkpt><trkpt lat="43.08713777479863" lon="-2.3621966338592846"><ele>408.0</ele><time>2026-04-30T10:13:20.001Z</time></trkpt><trkpt lat="43.08724474908596" lon="-2.362241990312014"><ele>408.0</ele><time>2026-04-30T10:13:21.001Z</time></trkpt><trkpt lat="43.087355710025165" lon="-2.362266383091993"><ele>408.0</ele><time>2026-04-30T10:13:22.001Z</time></trkpt><trkpt lat="43.08746927698058" lon="-2.3622744311518313"><ele>408.0</ele><time>2026-04-30T10:13:23.001Z</time></trkpt><trkpt lat="43.08758168593072" lon="-2.3622626587707884"><ele>407.0</ele><time>2026-04-30T10:13:24.001Z</time></trkpt><trkpt lat="43.0876734629885" lon="-2.3622260688004695"><ele>406.0</ele><time>2026-04-30T10:13:25.001Z</time></trkpt><trkpt lat="43.08778506099286" lon="-2.3621803117996447"><ele>405.0</ele><time>2026-04-30T10:13:26.002Z</time></trkpt><trkpt lat="43.08790333419429" lon="-2.36211203783654"><ele>404.0</ele><time>2026-04-30T10:13:27.002Z</time></trkpt><trkpt lat="43.08798980668401" lon="-2.3620552923146256"><ele>403.0</ele><time>2026-04-30T10:13:28.002Z</time></trkpt><trkpt lat="43.08807860094862" lon="-2.362003977618759"><ele>403.0</ele><time>2026-04-30T10:13:29.002Z</time></trkpt><trkpt lat="43.08816745396862" lon="-2.3619581991079945"><ele>403.0</ele><time>2026-04-30T10:13:30.002Z</time></trkpt><trkpt lat="43.0882556014812" lon="-2.3619162049527476"><ele>403.0</ele><time>2026-04-30T10:13:31.002Z</time></trkpt><trkpt lat="43.08834545012177" lon="-2.361873312292343"><ele>403.0</ele><time>2026-04-30T10:13:32.002Z</time></trkpt><trkpt lat="43.088434243047" lon="-2.3618253405627607"><ele>403.0</ele><time>2026-04-30T10:13:33.002Z</time></trkpt><trkpt lat="43.0885274778251" lon="-2.361780080075559"><ele>399.4</ele><time>2026-04-30T10:13:34.002Z</time></trkpt><trkpt lat="43.088629453621635" lon="-2.3617439333449486"><ele>395.79999999999995</ele><time>2026-04-30T10:13:35.002Z</time></trkpt><trkpt lat="43.08873661914695" lon="-2.361719352938392"><ele>392.2</ele><time>2026-04-30T10:13:36.002Z</time></trkpt><trkpt lat="43.08884935950363" lon="-2.3616988503198493"><ele>388.6</ele><time>2026-04-30T10:13:37.002Z</time></trkpt><trkpt lat="43.08896588772759" lon="-2.361701463862727"><ele>385.0</ele><time>2026-04-30T10:13:38.002Z</time></trkpt><trkpt lat="43.089084331956826" lon="-2.3616927943841595"><ele>379.0</ele><time>2026-04-30T10:13:39.002Z</time></trkpt><trkpt lat="43.08920235234261" lon="-2.3616788672259807"><ele>373.0</ele><time>2026-04-30T10:13:40.002Z</time></trkpt><trkpt lat="43.089318977372514" lon="-2.361676013873223"><ele>367.0</ele><time>2026-04-30T10:13:41.002Z</time></trkpt><trkpt lat="43.08944065241755" lon="-2.3616767788215993"><ele>361.0</ele><time>2026-04-30T10:13:42.002Z</time></trkpt><trkpt lat="43.08956571151151" lon="-2.3616748916775183"><ele>361.0</ele><time>2026-04-30T10:13:43.002Z</time></trkpt><trkpt lat="43.08968622598603" lon="-2.361659957193588"><ele>361.0</ele><time>2026-04-30T10:13:44.002Z</time></trkpt><trkpt lat="43.089805223014444" lon="-2.3616493648678096"><ele>361.0</ele><time>2026-04-30T10:13:45.002Z</time></trkpt><trkpt lat="43.08992432343486" lon="-2.361642004718112"><ele>361.0</ele><time>2026-04-30T10:13:46.002Z</time></trkpt><trkpt lat="43.090029771875656" lon="-2.3616359127193576"><ele>358.5</ele><time>2026-04-30T10:13:47.002Z</time></trkpt><trkpt lat="43.09011325743397" lon="-2.3616344176809796"><ele>356.0</ele><time>2026-04-30T10:13:48.002Z</time></trkpt><trkpt lat="43.090277419828205" lon="-2.361622554085762"><ele>353.5</ele><time>2026-04-30T10:13:49.002Z</time></trkpt><trkpt lat="43.09039013262289" lon="-2.36161760380747"><ele>351.0</ele><time>2026-04-30T10:13:50.002Z</time></trkpt><trkpt lat="43.09049825983534" lon="-2.3616257274162114"><ele>351.0</ele><time>2026-04-30T10:13:51.002Z</time></trkpt><trkpt lat="43.09060623734518" lon="-2.361646753439165"><ele>351.0</ele><time>2026-04-30T10:13:52.002Z</time></trkpt><trkpt lat="43.09070880850434" lon="-2.361689870604126"><ele>351.0</ele><time>2026-04-30T10:13:53.002Z</time></trkpt><trkpt lat="43.09080695938927" lon="-2.361747265189593"><ele>351.0</ele><time>2026-04-30T10:13:54.002Z</time></trkpt><trkpt lat="43.090903643750956" lon="-2.3618206513364224"><ele>351.0</ele><time>2026-04-30T10:13:55.002Z</time></trkpt><trkpt lat="43.09099759527128" lon="-2.361902170815577"><ele>349.8</ele><time>2026-04-30T10:13:56.002Z</time></trkpt><trkpt lat="43.09109510485245" lon="-2.36197206189863"><ele>348.6</ele><time>2026-04-30T10:13:57.002Z</time></trkpt><trkpt lat="43.091194068078046" lon="-2.362036564136582"><ele>347.4</ele><time>2026-04-30T10:13:58.002Z</time></trkpt><trkpt lat="43.091293801870584" lon="-2.362093909046359"><ele>346.2</ele><time>2026-04-30T10:13:59.002Z</time></trkpt><trkpt lat="43.09138934365422" lon="-2.362144941998632"><ele>345.0</ele><time>2026-04-30T10:14:00.002Z</time></trkpt><trkpt lat="43.09148851550967" lon="-2.362190283341207"><ele>343.8</ele><time>2026-04-30T10:14:01.002Z</time></trkpt><trkpt lat="43.0915880419819" lon="-2.3622372807317196"><ele>342.6</ele><time>2026-04-30T10:14:02.002Z</time></trkpt><trkpt lat="43.091685618801776" lon="-2.3622875258670875"><ele>341.4</ele><time>2026-04-30T10:14:03.002Z</time></trkpt><trkpt lat="43.09177476392043" lon="-2.3623538901492496"><ele>340.2</ele><time>2026-04-30T10:14:04.002Z</time></trkpt><trkpt lat="43.09185032525321" lon="-2.3624538401246955"><ele>339.0</ele><time>2026-04-30T10:14:05.002Z</time></trkpt><trkpt lat="43.0919039653907" lon="-2.3625823919438584"><ele>339.0</ele><time>2026-04-30T10:14:06.002Z</time></trkpt><trkpt lat="43.091936507527684" lon="-2.3627255652154937"><ele>339.0</ele><time>2026-04-30T10:14:07.002Z</time></trkpt><trkpt lat="43.09195716402812" lon="-2.3628741560953723"><ele>339.0</ele><time>2026-04-30T10:14:08.002Z</time></trkpt><trkpt lat="43.09196490570986" lon="-2.3630264827255547"><ele>339.0</ele><time>2026-04-30T10:14:09.001Z</time></trkpt><trkpt lat="43.09197837925771" lon="-2.3631710749696984"><ele>339.0</ele><time>2026-04-30T10:14:10.001Z</time></trkpt><trkpt lat="43.09198528483131" lon="-2.3633294631889545"><ele>338.6</ele><time>2026-04-30T10:14:11.001Z</time></trkpt><trkpt lat="43.092008336780886" lon="-2.3634709329738657"><ele>338.2</ele><time>2026-04-30T10:14:12.001Z</time></trkpt><trkpt lat="43.0920306024552" lon="-2.363617148820643"><ele>337.8</ele><time>2026-04-30T10:14:13.001Z</time></trkpt><trkpt lat="43.09204947439661" lon="-2.363760721590657"><ele>337.40000000000003</ele><time>2026-04-30T10:14:14.001Z</time></trkpt><trkpt lat="43.09204606239848" lon="-2.363882104358397"><ele>337.0</ele><time>2026-04-30T10:14:15.001Z</time></trkpt><trkpt lat="43.0920103955441" lon="-2.3639912656087274"><ele>334.20000000000005</ele><time>2026-04-30T10:14:16.001Z</time></trkpt><trkpt lat="43.09194142065959" lon="-2.364067147696521"><ele>331.4</ele><time>2026-04-30T10:14:17.001Z</time></trkpt><trkpt lat="43.09184932465589" lon="-2.3641001967099355"><ele>328.6</ele><time>2026-04-30T10:14:18.001Z</time></trkpt><trkpt lat="43.09175323158255" lon="-2.3640849470498213"><ele>325.79999999999995</ele><time>2026-04-30T10:14:19.001Z</time></trkpt><trkpt lat="43.09165820285948" lon="-2.3640304032647115"><ele>323.0</ele><time>2026-04-30T10:14:20.001Z</time></trkpt><trkpt lat="43.091570649428796" lon="-2.363965501903101"><ele>322.59999999999997</ele><time>2026-04-30T10:14:21.001Z</time></trkpt><trkpt lat="43.09148633366152" lon="-2.363903029292784"><ele>322.2</ele><time>2026-04-30T10:14:22.001Z</time></trkpt><trkpt lat="43.09140248181614" lon="-2.3638437810441886"><ele>321.8</ele><time>2026-04-30T10:14:23.001Z</time></trkpt><trkpt lat="43.09131454986757" lon="-2.3637829848584633"><ele>321.4</ele><time>2026-04-30T10:14:24.001Z</time></trkpt><trkpt lat="43.09123230466295" lon="-2.363721321517682"><ele>321.0</ele><time>2026-04-30T10:14:25.001Z</time></trkpt><trkpt lat="43.09116033216278" lon="-2.3636429969722976"><ele>321.0</ele><time>2026-04-30T10:14:26.001Z</time></trkpt><trkpt lat="43.09108374517377" lon="-2.363560364631934"><ele>321.0</ele><time>2026-04-30T10:14:27.001Z</time></trkpt><trkpt lat="43.09101315530485" lon="-2.363461981021569"><ele>321.0</ele><time>2026-04-30T10:14:28.001Z</time></trkpt><trkpt lat="43.090941608529846" lon="-2.3633694998227477"><ele>321.0</ele><time>2026-04-30T10:14:29.001Z</time></trkpt><trkpt lat="43.0908679109069" lon="-2.363276934248282"><ele>321.0</ele><time>2026-04-30T10:14:30.001Z</time></trkpt><trkpt lat="43.09078202298423" lon="-2.3632129286508423"><ele>320.6</ele><time>2026-04-30T10:14:31.001Z</time></trkpt><trkpt lat="43.090696484365004" lon="-2.3631440879146255"><ele>320.20000000000005</ele><time>2026-04-30T10:14:32.001Z</time></trkpt><trkpt lat="43.09059985210145" lon="-2.3630967737406663"><ele>319.79999999999995</ele><time>2026-04-30T10:14:33.001Z</time></trkpt><trkpt lat="43.09049902950444" lon="-2.3630796527970506"><ele>319.4</ele><time>2026-04-30T10:14:34.001Z</time></trkpt><trkpt lat="43.090402253625605" lon="-2.363076102379808"><ele>319.0</ele><time>2026-04-30T10:14:35.001Z</time></trkpt><trkpt lat="43.090309911300125" lon="-2.3630772748526345"><ele>319.0</ele><time>2026-04-30T10:14:36.001Z</time></trkpt><trkpt lat="43.09022861428464" lon="-2.363087669206537"><ele>319.0</ele><time>2026-04-30T10:14:37.001Z</time></trkpt><trkpt lat="43.090138386402884" lon="-2.3631833273308396"><ele>319.0</ele><time>2026-04-30T10:14:39.001Z</time></trkpt><trkpt lat="43.09014564748829" lon="-2.3632912083493403"><ele>319.0</ele><time>2026-04-30T10:14:40.001Z</time></trkpt><trkpt lat="43.0901983470113" lon="-2.3633938326514334"><ele>319.0</ele><time>2026-04-30T10:14:41.001Z</time></trkpt><trkpt lat="43.09027674553383" lon="-2.3634739602287773"><ele>319.0</ele><time>2026-04-30T10:14:42.001Z</time></trkpt><trkpt lat="43.09035798365391" lon="-2.3635462304600163"><ele>319.0</ele><time>2026-04-30T10:14:43.001Z</time></trkpt><trkpt lat="43.09043806864475" lon="-2.363627711229822"><ele>319.0</ele><time>2026-04-30T10:14:44.001Z</time></trkpt><trkpt lat="43.090514267092445" lon="-2.363729175618464"><ele>319.0</ele><time>2026-04-30T10:14:45.001Z</time></trkpt><trkpt lat="43.090586408844516" lon="-2.363841039997506"><ele>319.0</ele><time>2026-04-30T10:14:46.001Z</time></trkpt><trkpt lat="43.09066072052325" lon="-2.3639554279360784"><ele>319.75</ele><time>2026-04-30T10:14:47.001Z</time></trkpt><trkpt lat="43.09074080364193" lon="-2.36407160517884"><ele>320.5</ele><time>2026-04-30T10:14:48.001Z</time></trkpt><trkpt lat="43.09081928304606" lon="-2.3641876735344547"><ele>321.25</ele><time>2026-04-30T10:14:49.001Z</time></trkpt><trkpt lat="43.09089859292645" lon="-2.364306883177567"><ele>322.0</ele><time>2026-04-30T10:14:50.001Z</time></trkpt><trkpt lat="43.09097604712336" lon="-2.3644225191339596"><ele>318.75</ele><time>2026-04-30T10:14:51.001Z</time></trkpt><trkpt lat="43.09104304063385" lon="-2.364548103061043"><ele>315.5</ele><time>2026-04-30T10:14:52.001Z</time></trkpt><trkpt lat="43.09110414691093" lon="-2.36467673485926"><ele>312.25</ele><time>2026-04-30T10:14:53.001Z</time></trkpt><trkpt lat="43.09115695287991" lon="-2.3648133507517004"><ele>309.0</ele><time>2026-04-30T10:14:54.001Z</time></trkpt><trkpt lat="43.09120428762232" lon="-2.3649555491649443"><ele>308.8</ele><time>2026-04-30T10:14:55.001Z</time></trkpt><trkpt lat="43.09125046705764" lon="-2.3650961111839077"><ele>308.59999999999997</ele><time>2026-04-30T10:14:56.001Z</time></trkpt><trkpt lat="43.091297487242166" lon="-2.3652357724283184"><ele>308.4</ele><time>2026-04-30T10:14:57.001Z</time></trkpt><trkpt lat="43.091347644569815" lon="-2.3653733000765462"><ele>308.2</ele><time>2026-04-30T10:14:58.001Z</time></trkpt><trkpt lat="43.09139771695657" lon="-2.365504033665256"><ele>308.0</ele><time>2026-04-30T10:14:59.001Z</time></trkpt><trkpt lat="43.09145018073622" lon="-2.3656329245393986"><ele>307.6</ele><time>2026-04-30T10:15:00.001Z</time></trkpt><trkpt lat="43.09150088993312" lon="-2.365761628407823"><ele>307.20000000000005</ele><time>2026-04-30T10:15:01.001Z</time></trkpt><trkpt lat="43.09155042643455" lon="-2.365892723891674"><ele>306.8</ele><time>2026-04-30T10:15:02.001Z</time></trkpt><trkpt lat="43.09159771556617" lon="-2.366026060046775"><ele>306.40000000000003</ele><time>2026-04-30T10:15:03.001Z</time></trkpt><trkpt lat="43.09164860078503" lon="-2.3661633352915494"><ele>306.0</ele><time>2026-04-30T10:15:04.001Z</time></trkpt><trkpt lat="43.09169876642468" lon="-2.366304573105697"><ele>302.75</ele><time>2026-04-30T10:15:05.001Z</time></trkpt><trkpt lat="43.09174788307312" lon="-2.3664479748103964"><ele>299.5</ele><time>2026-04-30T10:15:06.001Z</time></trkpt><trkpt lat="43.09179144723796" lon="-2.366593810004253"><ele>296.25</ele><time>2026-04-30T10:15:07.001Z</time></trkpt><trkpt lat="43.09183567193987" lon="-2.366737425897883"><ele>293.0</ele><time>2026-04-30T10:15:08.001Z</time></trkpt><trkpt lat="43.09187934204977" lon="-2.366882983147303"><ele>293.0</ele><time>2026-04-30T10:15:09.001Z</time></trkpt><trkpt lat="43.0919232492493" lon="-2.3670238518507105"><ele>293.0</ele><time>2026-04-30T10:15:10.001Z</time></trkpt><trkpt lat="43.091966686270474" lon="-2.3671681441931085"><ele>293.0</ele><time>2026-04-30T10:15:11.001Z</time></trkpt><trkpt lat="43.092010375886204" lon="-2.367313598903884"><ele>293.0</ele><time>2026-04-30T10:15:12.001Z</time></trkpt><trkpt lat="43.09205562229428" lon="-2.3674577603150015"><ele>295.25</ele><time>2026-04-30T10:15:13.001Z</time></trkpt><trkpt lat="43.0921009951706" lon="-2.3676006479068072"><ele>297.5</ele><time>2026-04-30T10:15:14.001Z</time></trkpt><trkpt lat="43.09214664852591" lon="-2.3677410056201866"><ele>299.75</ele><time>2026-04-30T10:15:15.001Z</time></trkpt><trkpt lat="43.09219497763014" lon="-2.3678871530216976"><ele>302.0</ele><time>2026-04-30T10:15:16.001Z</time></trkpt><trkpt lat="43.09224385496167" lon="-2.368034294015966"><ele>302.0</ele><time>2026-04-30T10:15:17.001Z</time></trkpt><trkpt lat="43.092292870337396" lon="-2.368181566645803"><ele>302.0</ele><time>2026-04-30T10:15:18.001Z</time></trkpt><trkpt lat="43.09234716601302" lon="-2.368334435757673"><ele>302.0</ele><time>2026-04-30T10:15:19.001Z</time></trkpt><trkpt lat="43.092386074985306" lon="-2.368474563568387"><ele>302.0</ele><time>2026-04-30T10:15:20.001Z</time></trkpt><trkpt lat="43.09238911720699" lon="-2.368604960644734"><ele>302.0</ele><time>2026-04-30T10:15:21.001Z</time></trkpt><trkpt lat="43.09254475059842" lon="-2.3689233454659915"><ele>295.75</ele><time>2026-04-30T10:15:23.001Z</time></trkpt><trkpt lat="43.09260458248674" lon="-2.3690693626065387"><ele>289.5</ele><time>2026-04-30T10:15:24.001Z</time></trkpt><trkpt lat="43.09266505976355" lon="-2.3692046792011365"><ele>283.25</ele><time>2026-04-30T10:15:25.001Z</time></trkpt><trkpt lat="43.09272362528746" lon="-2.3693392353454126"><ele>277.0</ele><time>2026-04-30T10:15:26.001Z</time></trkpt><trkpt lat="43.0927782570331" lon="-2.3694762941030048"><ele>277.0</ele><time>2026-04-30T10:15:27.001Z</time></trkpt><trkpt lat="43.092826297576174" lon="-2.369619363763875"><ele>277.0</ele><time>2026-04-30T10:15:28.001Z</time></trkpt><trkpt lat="43.09286419312671" lon="-2.36977007994405"><ele>277.0</ele><time>2026-04-30T10:15:29.001Z</time></trkpt><trkpt lat="43.092893197229486" lon="-2.36993133183737"><ele>277.0</ele><time>2026-04-30T10:15:30.001Z</time></trkpt><trkpt lat="43.092921545736345" lon="-2.370089334118485"><ele>278.5</ele><time>2026-04-30T10:15:31.001Z</time></trkpt><trkpt lat="43.09295414132107" lon="-2.370245261931344"><ele>280.0</ele><time>2026-04-30T10:15:32.001Z</time></trkpt><trkpt lat="43.09298600115373" lon="-2.370395866720954"><ele>281.5</ele><time>2026-04-30T10:15:33.001Z</time></trkpt><trkpt lat="43.09301977897463" lon="-2.370542774670988"><ele>283.0</ele><time>2026-04-30T10:15:34.001Z</time></trkpt><trkpt lat="43.09305999379701" lon="-2.3706859600303205"><ele>284.0</ele><time>2026-04-30T10:15:35.001Z</time></trkpt><trkpt lat="43.0931130831756" lon="-2.370821492142852"><ele>285.0</ele><time>2026-04-30T10:15:36.001Z</time></trkpt><trkpt lat="43.09316594156738" lon="-2.370957557838612"><ele>286.0</ele><time>2026-04-30T10:15:37.001Z</time></trkpt><trkpt lat="43.09322039927651" lon="-2.371090059653432"><ele>287.0</ele><time>2026-04-30T10:15:38.001Z</time></trkpt><trkpt lat="43.093271771295434" lon="-2.3712206289995406"><ele>288.0</ele><time>2026-04-30T10:15:39.002Z</time></trkpt><trkpt lat="43.09331738186585" lon="-2.3713513285754355"><ele>283.4</ele><time>2026-04-30T10:15:40.002Z</time></trkpt><trkpt lat="43.09336439717287" lon="-2.371484088544776"><ele>278.8</ele><time>2026-04-30T10:15:41.002Z</time></trkpt><trkpt lat="43.093406939610354" lon="-2.3716144245201582"><ele>274.2</ele><time>2026-04-30T10:15:42.002Z</time></trkpt><trkpt lat="43.093447171881785" lon="-2.37174177308744"><ele>269.6</ele><time>2026-04-30T10:15:43.002Z</time></trkpt><trkpt lat="43.093492241718224" lon="-2.371872040748473"><ele>265.0</ele><time>2026-04-30T10:15:44.002Z</time></trkpt><trkpt lat="43.09354081578095" lon="-2.37200498895932"><ele>265.0</ele><time>2026-04-30T10:15:45.002Z</time></trkpt><trkpt lat="43.09358878831804" lon="-2.372129149583278"><ele>265.0</ele><time>2026-04-30T10:15:46.002Z</time></trkpt><trkpt lat="43.09363339550995" lon="-2.372258115414878"><ele>265.0</ele><time>2026-04-30T10:15:47.002Z</time></trkpt><trkpt lat="43.09367485882359" lon="-2.372390956609679"><ele>265.0</ele><time>2026-04-30T10:15:48.002Z</time></trkpt><trkpt lat="43.093718470697496" lon="-2.3725281173703654"><ele>265.0</ele><time>2026-04-30T10:15:49.002Z</time></trkpt><trkpt lat="43.09375465479228" lon="-2.372667407274746"><ele>266.2</ele><time>2026-04-30T10:15:50.002Z</time></trkpt><trkpt lat="43.09378101059716" lon="-2.372809876222055"><ele>267.4</ele><time>2026-04-30T10:15:51.002Z</time></trkpt><trkpt lat="43.09380416400988" lon="-2.3729527411367006"><ele>268.6</ele><time>2026-04-30T10:15:52.002Z</time></trkpt><trkpt lat="43.093822970952885" lon="-2.3730972992196495"><ele>269.8</ele><time>2026-04-30T10:15:53.002Z</time></trkpt><trkpt lat="43.093857594239765" lon="-2.373228435210426"><ele>271.0</ele><time>2026-04-30T10:15:54.002Z</time></trkpt><trkpt lat="43.09390649038839" lon="-2.373357662788645"><ele>272.6</ele><time>2026-04-30T10:15:55.002Z</time></trkpt><trkpt lat="43.09396637026417" lon="-2.373479333173395"><ele>274.20000000000005</ele><time>2026-04-30T10:15:56.002Z</time></trkpt><trkpt lat="43.094028545777675" lon="-2.3735970764312473"><ele>275.79999999999995</ele><time>2026-04-30T10:15:57.002Z</time></trkpt><trkpt lat="43.094078093378656" lon="-2.3737239953915727"><ele>277.4</ele><time>2026-04-30T10:15:58.002Z</time></trkpt><trkpt lat="43.094113089762516" lon="-2.373855057087446"><ele>279.0</ele><time>2026-04-30T10:15:59.002Z</time></trkpt><trkpt lat="43.09414074691052" lon="-2.3739953827609295"><ele>274.59999999999997</ele><time>2026-04-30T10:16:00.002Z</time></trkpt><trkpt lat="43.09416324182609" lon="-2.374135733719042"><ele>270.2</ele><time>2026-04-30T10:16:01.002Z</time></trkpt><trkpt lat="43.09418374633439" lon="-2.3742787253625024"><ele>265.79999999999995</ele><time>2026-04-30T10:16:02.002Z</time></trkpt><trkpt lat="43.0942077497566" lon="-2.374419280418354"><ele>261.4</ele><time>2026-04-30T10:16:03.002Z</time></trkpt><trkpt lat="43.09422498679786" lon="-2.374559723985611"><ele>257.0</ele><time>2026-04-30T10:16:04.002Z</time></trkpt><trkpt lat="43.094246564663365" lon="-2.3746959791473787"><ele>256.8</ele><time>2026-04-30T10:16:05.002Z</time></trkpt><trkpt lat="43.09426407067267" lon="-2.3748285585593796"><ele>256.6</ele><time>2026-04-30T10:16:06.002Z</time></trkpt><trkpt lat="43.09428376834953" lon="-2.3749577345234765"><ele>256.40000000000003</ele><time>2026-04-30T10:16:07.002Z</time></trkpt><trkpt lat="43.0943043495236" lon="-2.375085953530874"><ele>256.2</ele><time>2026-04-30T10:16:08.002Z</time></trkpt><trkpt lat="43.09432455130356" lon="-2.3752089580008597"><ele>256.0</ele><time>2026-04-30T10:16:09.002Z</time></trkpt><trkpt lat="43.09434268758412" lon="-2.375336947062311"><ele>256.0</ele><time>2026-04-30T10:16:10.002Z</time></trkpt><trkpt lat="43.094363394857005" lon="-2.375462243811674"><ele>256.0</ele><time>2026-04-30T10:16:11.002Z</time></trkpt><trkpt lat="43.09438220925242" lon="-2.3755898300759726"><ele>256.0</ele><time>2026-04-30T10:16:12.002Z</time></trkpt><trkpt lat="43.0944049072541" lon="-2.3757120165814984"><ele>256.0</ele><time>2026-04-30T10:16:13.002Z</time></trkpt><trkpt lat="43.094432308421524" lon="-2.3758301677046294"><ele>256.0</ele><time>2026-04-30T10:16:14.002Z</time></trkpt><trkpt lat="43.09445650723711" lon="-2.375950678163852"><ele>256.2</ele><time>2026-04-30T10:16:15.001Z</time></trkpt><trkpt lat="43.09448654119162" lon="-2.376069179867389"><ele>256.40000000000003</ele><time>2026-04-30T10:16:16.001Z</time></trkpt><trkpt lat="43.09452496644116" lon="-2.3761842243816313"><ele>256.6</ele><time>2026-04-30T10:16:17.001Z</time></trkpt><trkpt lat="43.09456629828761" lon="-2.3762960823931265"><ele>256.8</ele><time>2026-04-30T10:16:18.001Z</time></trkpt><trkpt lat="43.09461508715837" lon="-2.3763970471353573"><ele>257.0</ele><time>2026-04-30T10:16:19.001Z</time></trkpt><trkpt lat="43.09467079063296" lon="-2.3764874698452316"><ele>257.0</ele><time>2026-04-30T10:16:20.001Z</time></trkpt><trkpt lat="43.09473035420315" lon="-2.3765754280231235"><ele>257.0</ele><time>2026-04-30T10:16:21.001Z</time></trkpt><trkpt lat="43.094793534401006" lon="-2.376654990012111"><ele>257.0</ele><time>2026-04-30T10:16:22.001Z</time></trkpt><trkpt lat="43.0948593781808" lon="-2.3767297929562132"><ele>257.0</ele><time>2026-04-30T10:16:23.001Z</time></trkpt><trkpt lat="43.09492488188953" lon="-2.3768019836180865"><ele>257.0</ele><time>2026-04-30T10:16:24Z</time></trkpt><trkpt lat="43.09498701703077" lon="-2.3768755029703748"><ele>257.0</ele><time>2026-04-30T10:16:25Z</time></trkpt><trkpt lat="43.09505517348973" lon="-2.3769488001372863"><ele>256.33333333333337</ele><time>2026-04-30T10:16:26Z</time></trkpt><trkpt lat="43.09512659414283" lon="-2.3770165486378962"><ele>255.66666666666669</ele><time>2026-04-30T10:16:27Z</time></trkpt><trkpt lat="43.09519365962175" lon="-2.377086681935544"><ele>255.0</ele><time>2026-04-30T10:16:28Z</time></trkpt><trkpt lat="43.09525435934494" lon="-2.377155216462339"><ele>254.33333333333331</ele><time>2026-04-30T10:16:29Z</time></trkpt><trkpt lat="43.095301479610335" lon="-2.3772263829088858"><ele>253.66666666666666</ele><time>2026-04-30T10:16:30Z</time></trkpt><trkpt lat="43.095347100060955" lon="-2.3773025910333017"><ele>253.0</ele><time>2026-04-30T10:16:31Z</time></trkpt><trkpt lat="43.09542016563368" lon="-2.3774359680671395"><ele>252.99999999999997</ele><time>2026-04-30T10:16:33Z</time></trkpt><trkpt lat="43.09544507393586" lon="-2.3775270638291652"><ele>253.0</ele><time>2026-04-30T10:16:34Z</time></trkpt><trkpt lat="43.095466847193485" lon="-2.377617051711638"><ele>253.0</ele><time>2026-04-30T10:16:35Z</time></trkpt><trkpt lat="43.095480790932825" lon="-2.3777185078388245"><ele>253.0</ele><time>2026-04-30T10:16:36Z</time></trkpt><trkpt lat="43.09549077399526" lon="-2.377826782343442"><ele>252.99999999999997</ele><time>2026-04-30T10:16:37Z</time></trkpt><trkpt lat="43.0954946265006" lon="-2.377940452466438"><ele>253.0</ele><time>2026-04-30T10:16:38Z</time></trkpt><trkpt lat="43.0954865013825" lon="-2.3780539388021404"><ele>253.33333333333331</ele><time>2026-04-30T10:16:39Z</time></trkpt><trkpt lat="43.095475827570496" lon="-2.3781706744647937"><ele>253.66666666666666</ele><time>2026-04-30T10:16:40Z</time></trkpt><trkpt lat="43.09546690633819" lon="-2.3782896191176004"><ele>254.0</ele><time>2026-04-30T10:16:41Z</time></trkpt><trkpt lat="43.09546138786685" lon="-2.378409671574541"><ele>254.33333333333331</ele><time>2026-04-30T10:16:42.001Z</time></trkpt><trkpt lat="43.09546438653154" lon="-2.3785341215751994"><ele>254.66666666666666</ele><time>2026-04-30T10:16:43.001Z</time></trkpt><trkpt lat="43.09547640187604" lon="-2.3786559781786236"><ele>255.0</ele><time>2026-04-30T10:16:44.001Z</time></trkpt><trkpt lat="43.09549113174067" lon="-2.3787799883049456"><ele>256.2</ele><time>2026-04-30T10:16:45.001Z</time></trkpt><trkpt lat="43.095508003294626" lon="-2.3789022279961216"><ele>257.4</ele><time>2026-04-30T10:16:46.001Z</time></trkpt><trkpt lat="43.09553772486399" lon="-2.379023000104942"><ele>258.6</ele><time>2026-04-30T10:16:47.001Z</time></trkpt><trkpt lat="43.09557365772486" lon="-2.379143044463185"><ele>259.8</ele><time>2026-04-30T10:16:48.001Z</time></trkpt><trkpt lat="43.095616987862336" lon="-2.3792567741089594"><ele>261.0</ele><time>2026-04-30T10:16:49.001Z</time></trkpt><trkpt lat="43.09566443006248" lon="-2.3793673058577025"><ele>261.0</ele><time>2026-04-30T10:16:50.001Z</time></trkpt><trkpt lat="43.095714596048126" lon="-2.379481026803095"><ele>261.0</ele><time>2026-04-30T10:16:51.001Z</time></trkpt><trkpt lat="43.09577026495299" lon="-2.3795810852366257"><ele>261.0</ele><time>2026-04-30T10:16:52.001Z</time></trkpt><trkpt lat="43.09582533913837" lon="-2.379681124043395"><ele>261.0</ele><time>2026-04-30T10:16:53.001Z</time></trkpt><trkpt lat="43.09588157909841" lon="-2.3797762333504995"><ele>261.0</ele><time>2026-04-30T10:16:54.001Z</time></trkpt><trkpt lat="43.09593211476767" lon="-2.3798679239187153"><ele>259.5</ele><time>2026-04-30T10:16:55.001Z</time></trkpt><trkpt lat="43.095983290394024" lon="-2.37996609440202"><ele>258.0</ele><time>2026-04-30T10:16:56.001Z</time></trkpt><trkpt lat="43.09603543596252" lon="-2.380059380427498"><ele>256.5</ele><time>2026-04-30T10:16:57.001Z</time></trkpt><trkpt lat="43.096078686847584" lon="-2.380151123970444"><ele>255.0</ele><time>2026-04-30T10:16:58.001Z</time></trkpt><trkpt lat="43.09612599241988" lon="-2.3802374535423154"><ele>253.5</ele><time>2026-04-30T10:16:59.001Z</time></trkpt><trkpt lat="43.09618155383141" lon="-2.3803055317687916"><ele>252.0</ele><time>2026-04-30T10:17:00.001Z</time></trkpt><trkpt lat="43.09624000386032" lon="-2.380367151562339"><ele>252.0</ele><time>2026-04-30T10:17:01.001Z</time></trkpt><trkpt lat="43.096302158111165" lon="-2.3804150457585727"><ele>252.0</ele><time>2026-04-30T10:17:02.001Z</time></trkpt><trkpt lat="43.09634744736881" lon="-2.3804897230257773"><ele>252.0</ele><time>2026-04-30T10:17:03.001Z</time></trkpt><trkpt lat="43.09637919338161" lon="-2.3805886992064025"><ele>252.0</ele><time>2026-04-30T10:17:04.001Z</time></trkpt><trkpt lat="43.09642089671425" lon="-2.3806905600539308"><ele>252.0</ele><time>2026-04-30T10:17:05.001Z</time></trkpt><trkpt lat="43.096465584141015" lon="-2.3807889468020194"><ele>252.0</ele><time>2026-04-30T10:17:06.001Z</time></trkpt><trkpt lat="43.09651115114962" lon="-2.380890227486971"><ele>251.39999999999998</ele><time>2026-04-30T10:17:07.001Z</time></trkpt><trkpt lat="43.09656121341185" lon="-2.3809958407586524"><ele>250.79999999999998</ele><time>2026-04-30T10:17:08.001Z</time></trkpt><trkpt lat="43.0966158048588" lon="-2.381100880207074"><ele>250.2</ele><time>2026-04-30T10:17:09.001Z</time></trkpt><trkpt lat="43.096672940891416" lon="-2.3812068361691394"><ele>249.6</ele><time>2026-04-30T10:17:10.001Z</time></trkpt><trkpt lat="43.096730928507164" lon="-2.381317079000894"><ele>249.0</ele><time>2026-04-30T10:17:11.001Z</time></trkpt><trkpt lat="43.096791672155064" lon="-2.381429035459431"><ele>249.0</ele><time>2026-04-30T10:17:12.001Z</time></trkpt><trkpt lat="43.096853710219506" lon="-2.38153973109954"><ele>248.99999999999997</ele><time>2026-04-30T10:17:13.001Z</time></trkpt><trkpt lat="43.09691959671793" lon="-2.3816496477561038"><ele>248.99999999999997</ele><time>2026-04-30T10:17:14.001Z</time></trkpt><trkpt lat="43.096985944321766" lon="-2.3817621140185823"><ele>249.0</ele><time>2026-04-30T10:17:15.001Z</time></trkpt><trkpt lat="43.0970548113077" lon="-2.3818811748269693"><ele>249.0</ele><time>2026-04-30T10:17:16.001Z</time></trkpt><trkpt lat="43.09713417392814" lon="-2.3819919634393334"><ele>249.0</ele><time>2026-04-30T10:17:17.001Z</time></trkpt><trkpt lat="43.09725913830424" lon="-2.3821485766211"><ele>249.0</ele><time>2026-04-30T10:17:18.001Z</time></trkpt><trkpt lat="43.09733624674575" lon="-2.382269692336722"><ele>249.0</ele><time>2026-04-30T10:17:19.001Z</time></trkpt><trkpt lat="43.097421916064896" lon="-2.3823462121420724"><ele>249.0</ele><time>2026-04-30T10:17:21.001Z</time></trkpt><trkpt lat="43.09751100061343" lon="-2.382400215384269"><ele>247.75</ele><time>2026-04-30T10:17:22.001Z</time></trkpt><trkpt lat="43.09765198519234" lon="-2.3825058431083073"><ele>246.5</ele><time>2026-04-30T10:17:23.001Z</time></trkpt><trkpt lat="43.09775179537024" lon="-2.382575591403347"><ele>245.25</ele><time>2026-04-30T10:17:24.001Z</time></trkpt><trkpt lat="43.097857881448775" lon="-2.3826047480114965"><ele>244.0</ele><time>2026-04-30T10:17:25.001Z</time></trkpt><trkpt lat="43.097961457700485" lon="-2.3826360750985907"><ele>244.0</ele><time>2026-04-30T10:17:26.001Z</time></trkpt><trkpt lat="43.098062184085016" lon="-2.382667554614843"><ele>243.99999999999997</ele><time>2026-04-30T10:17:27.001Z</time></trkpt><trkpt lat="43.09816276331614" lon="-2.382696462753254"><ele>243.99999999999997</ele><time>2026-04-30T10:17:28.001Z</time></trkpt><trkpt lat="43.098260609259924" lon="-2.382729358604551"><ele>244.0</ele><time>2026-04-30T10:17:29.001Z</time></trkpt><trkpt lat="43.0983585045743" lon="-2.3827721815855107"><ele>244.0</ele><time>2026-04-30T10:17:30.001Z</time></trkpt><trkpt lat="43.098453317933775" lon="-2.3828262735001093"><ele>243.2</ele><time>2026-04-30T10:17:31.001Z</time></trkpt><trkpt lat="43.09854238177791" lon="-2.3828973488380174"><ele>242.39999999999998</ele><time>2026-04-30T10:17:32.001Z</time></trkpt><trkpt lat="43.09862550067694" lon="-2.3829823453439496"><ele>241.6</ele><time>2026-04-30T10:17:33.001Z</time></trkpt><trkpt lat="43.09871201895667" lon="-2.3830697204986224"><ele>240.8</ele><time>2026-04-30T10:17:34.001Z</time></trkpt><trkpt lat="43.09879695899291" lon="-2.383161644749111"><ele>240.0</ele><time>2026-04-30T10:17:35.001Z</time></trkpt><trkpt lat="43.09888488395371" lon="-2.383252308283635"><ele>241.6</ele><time>2026-04-30T10:17:36.001Z</time></trkpt><trkpt lat="43.098974913964916" lon="-2.3833435559460865"><ele>243.2</ele><time>2026-04-30T10:17:37.001Z</time></trkpt><trkpt lat="43.09906433495498" lon="-2.3834387295247037"><ele>244.8</ele><time>2026-04-30T10:17:38.001Z</time></trkpt><trkpt lat="43.099150397671124" lon="-2.3835306440731165"><ele>246.4</ele><time>2026-04-30T10:17:39.001Z</time></trkpt><trkpt lat="43.09923521727241" lon="-2.383622476065269"><ele>248.0</ele><time>2026-04-30T10:17:40.001Z</time></trkpt><trkpt lat="43.09932126730156" lon="-2.38371729646739"><ele>246.2</ele><time>2026-04-30T10:17:41.001Z</time></trkpt><trkpt lat="43.09940793217017" lon="-2.383809894993282"><ele>244.4</ele><time>2026-04-30T10:17:42.001Z</time></trkpt><trkpt lat="43.09949442893479" lon="-2.3838996680196933"><ele>242.59999999999997</ele><time>2026-04-30T10:17:43.001Z</time></trkpt><trkpt lat="43.099580697409664" lon="-2.383990667974741"><ele>240.79999999999998</ele><time>2026-04-30T10:17:44.001Z</time></trkpt><trkpt lat="43.09966789838614" lon="-2.3840772405035415"><ele>239.0</ele><time>2026-04-30T10:17:45.001Z</time></trkpt><trkpt lat="43.09976812225045" lon="-2.384156330388427"><ele>239.0</ele><time>2026-04-30T10:17:46.001Z</time></trkpt><trkpt lat="43.09985618195774" lon="-2.3842446187420845"><ele>238.99999999999997</ele><time>2026-04-30T10:17:47.001Z</time></trkpt><trkpt lat="43.099942677192686" lon="-2.3843349493425103"><ele>238.99999999999997</ele><time>2026-04-30T10:17:48.001Z</time></trkpt><trkpt lat="43.100027818712356" lon="-2.384423319654805"><ele>239.0</ele><time>2026-04-30T10:17:49.001Z</time></trkpt><trkpt lat="43.100114303120534" lon="-2.3845113227915333"><ele>239.0</ele><time>2026-04-30T10:17:50.001Z</time></trkpt><trkpt lat="43.10020108045084" lon="-2.3846026301777785"><ele>239.0</ele><time>2026-04-30T10:17:51.001Z</time></trkpt><trkpt lat="43.100289342971195" lon="-2.3846926309220264"><ele>238.99999999999997</ele><time>2026-04-30T10:17:52.001Z</time></trkpt><trkpt lat="43.10037537984199" lon="-2.384783214200057"><ele>238.99999999999997</ele><time>2026-04-30T10:17:53.001Z</time></trkpt><trkpt lat="43.10046304204554" lon="-2.3848680718410478"><ele>239.0</ele><time>2026-04-30T10:17:54.001Z</time></trkpt><trkpt lat="43.100555821224866" lon="-2.3849504769947085"><ele>239.0</ele><time>2026-04-30T10:17:55.001Z</time></trkpt><trkpt lat="43.100646606462995" lon="-2.3850350070672577"><ele>239.0</ele><time>2026-04-30T10:17:56.001Z</time></trkpt><trkpt lat="43.10073850872947" lon="-2.3851144806994236"><ele>238.99999999999997</ele><time>2026-04-30T10:17:57.001Z</time></trkpt><trkpt lat="43.10083536517734" lon="-2.385194929883227"><ele>238.99999999999997</ele><time>2026-04-30T10:17:58.001Z</time></trkpt><trkpt lat="43.10093359840083" lon="-2.38527388296921"><ele>239.0</ele><time>2026-04-30T10:17:59.002Z</time></trkpt><trkpt lat="43.10102791166355" lon="-2.3853432937543237"><ele>239.0</ele><time>2026-04-30T10:18:00.002Z</time></trkpt><trkpt lat="43.1011214302595" lon="-2.3854203394615343"><ele>237.2</ele><time>2026-04-30T10:18:01.002Z</time></trkpt><trkpt lat="43.10120623352234" lon="-2.3855063983692735"><ele>235.39999999999998</ele><time>2026-04-30T10:18:02.002Z</time></trkpt><trkpt lat="43.101288800030275" lon="-2.385605370554355"><ele>233.6</ele><time>2026-04-30T10:18:03.002Z</time></trkpt><trkpt lat="43.10136375445313" lon="-2.3857086435906183"><ele>231.8</ele><time>2026-04-30T10:18:04.002Z</time></trkpt><trkpt lat="43.101432894005335" lon="-2.385821305977337"><ele>230.0</ele><time>2026-04-30T10:18:05.002Z</time></trkpt><trkpt lat="43.10149327805276" lon="-2.385942417910385"><ele>228.2</ele><time>2026-04-30T10:18:06.002Z</time></trkpt><trkpt lat="43.101540715323516" lon="-2.386072510395888"><ele>226.4</ele><time>2026-04-30T10:18:07.002Z</time></trkpt><trkpt lat="43.10158741758589" lon="-2.386217383070243"><ele>224.60000000000002</ele><time>2026-04-30T10:18:08.002Z</time></trkpt><trkpt lat="43.101653894898696" lon="-2.386338957681433"><ele>222.8</ele><time>2026-04-30T10:18:09.002Z</time></trkpt><trkpt lat="43.10163925530692" lon="-2.3864696243278236"><ele>221.0</ele><time>2026-04-30T10:18:10.002Z</time></trkpt><trkpt lat="43.101637637102904" lon="-2.3866035824375538"><ele>221.0</ele><time>2026-04-30T10:18:11.002Z</time></trkpt><trkpt lat="43.1016577377852" lon="-2.3867013185784365"><ele>221.00000000000003</ele><time>2026-04-30T10:18:12.002Z</time></trkpt><trkpt lat="43.101680384539115" lon="-2.3868077352542474"><ele>221.00000000000003</ele><time>2026-04-30T10:18:13.002Z</time></trkpt><trkpt lat="43.10173391108082" lon="-2.386954390272037"><ele>221.0</ele><time>2026-04-30T10:18:14.002Z</time></trkpt><trkpt lat="43.101757802339506" lon="-2.3870708572490664"><ele>221.0</ele><time>2026-04-30T10:18:15.002Z</time></trkpt><trkpt lat="43.10178042741706" lon="-2.3871896355164473"><ele>222.16666666666669</ele><time>2026-04-30T10:18:16.002Z</time></trkpt><trkpt lat="43.10180272015319" lon="-2.387298071761921"><ele>223.33333333333334</ele><time>2026-04-30T10:18:17.002Z</time></trkpt><trkpt lat="43.10182383742739" lon="-2.3874101412803372"><ele>224.5</ele><time>2026-04-30T10:18:18.002Z</time></trkpt><trkpt lat="43.101843655027736" lon="-2.3875190584913217"><ele>225.66666666666669</ele><time>2026-04-30T10:18:19.002Z</time></trkpt><trkpt lat="43.10185889435378" lon="-2.3876358919028204"><ele>226.83333333333334</ele><time>2026-04-30T10:18:20.002Z</time></trkpt><trkpt lat="43.10187141840086" lon="-2.387748964321809"><ele>228.0</ele><time>2026-04-30T10:18:21Z</time></trkpt><trkpt lat="43.101879494929015" lon="-2.3878611558783245"><ele>228.0</ele><time>2026-04-30T10:18:22Z</time></trkpt><trkpt lat="43.10187264007653" lon="-2.3879792197263066"><ele>228.0</ele><time>2026-04-30T10:18:23Z</time></trkpt><trkpt lat="43.101865256956" lon="-2.388103252933038"><ele>228.0</ele><time>2026-04-30T10:18:24Z</time></trkpt><trkpt lat="43.10185616852297" lon="-2.3882315331951594"><ele>228.0</ele><time>2026-04-30T10:18:25Z</time></trkpt><trkpt lat="43.10184674212991" lon="-2.3883635840667066"><ele>228.0</ele><time>2026-04-30T10:18:26Z</time></trkpt><trkpt lat="43.10183809611665" lon="-2.3885043917525066"><ele>228.0</ele><time>2026-04-30T10:18:27Z</time></trkpt><trkpt lat="43.101827121835356" lon="-2.3886524724610503"><ele>228.0</ele><time>2026-04-30T10:18:28Z</time></trkpt><trkpt lat="43.10181518001244" lon="-2.3888032229689946"><ele>228.0</ele><time>2026-04-30T10:18:29Z</time></trkpt><trkpt lat="43.10180501971181" lon="-2.3889555730242384"><ele>228.0</ele><time>2026-04-30T10:18:30Z</time></trkpt><trkpt lat="43.101791802549855" lon="-2.3891070440236435"><ele>228.0</ele><time>2026-04-30T10:18:31Z</time></trkpt><trkpt lat="43.101777609310304" lon="-2.389262332521679"><ele>228.25</ele><time>2026-04-30T10:18:32Z</time></trkpt><trkpt lat="43.101763643627066" lon="-2.3894160659099013"><ele>228.5</ele><time>2026-04-30T10:18:33Z</time></trkpt><trkpt lat="43.10174747058571" lon="-2.389577116542126"><ele>228.75</ele><time>2026-04-30T10:18:34Z</time></trkpt><trkpt lat="43.10173374132867" lon="-2.3897341686123865"><ele>229.0</ele><time>2026-04-30T10:18:35Z</time></trkpt><trkpt lat="43.10172199578564" lon="-2.3898930591214502"><ele>227.5</ele><time>2026-04-30T10:18:36Z</time></trkpt><trkpt lat="43.101713329129524" lon="-2.3900589910475056"><ele>226.0</ele><time>2026-04-30T10:18:37Z</time></trkpt><trkpt lat="43.10169906344791" lon="-2.390219245550966"><ele>224.5</ele><time>2026-04-30T10:18:38Z</time></trkpt><trkpt lat="43.101690294795375" lon="-2.3903797761616814"><ele>223.0</ele><time>2026-04-30T10:18:39Z</time></trkpt><trkpt lat="43.10167820223363" lon="-2.3905419256177556"><ele>221.75</ele><time>2026-04-30T10:18:40Z</time></trkpt><trkpt lat="43.101663800555" lon="-2.3907060064205203"><ele>220.5</ele><time>2026-04-30T10:18:41Z</time></trkpt><trkpt lat="43.10164982841923" lon="-2.3908680792518817"><ele>219.25</ele><time>2026-04-30T10:18:42Z</time></trkpt><trkpt lat="43.10163718180777" lon="-2.391027857061676"><ele>218.0</ele><time>2026-04-30T10:18:43Z</time></trkpt><trkpt lat="43.10162745347635" lon="-2.391183155687622"><ele>218.0</ele><time>2026-04-30T10:18:44Z</time></trkpt><trkpt lat="43.101610720557254" lon="-2.3913373621962184"><ele>218.0</ele><time>2026-04-30T10:18:45Z</time></trkpt><trkpt lat="43.10159788642511" lon="-2.3914893136842275"><ele>218.0</ele><time>2026-04-30T10:18:46Z</time></trkpt><trkpt lat="43.101585325127026" lon="-2.391634434367424"><ele>218.0</ele><time>2026-04-30T10:18:47Z</time></trkpt><trkpt lat="43.10156425174565" lon="-2.3917734911429585"><ele>218.0</ele><time>2026-04-30T10:18:48Z</time></trkpt><trkpt lat="43.10153957488081" lon="-2.3919081317112085"><ele>220.60000000000002</ele><time>2026-04-30T10:18:49Z</time></trkpt><trkpt lat="43.101517335231584" lon="-2.39204476746079"><ele>223.20000000000002</ele><time>2026-04-30T10:18:50Z</time></trkpt><trkpt lat="43.10149453551237" lon="-2.392183220993044"><ele>225.8</ele><time>2026-04-30T10:18:51Z</time></trkpt><trkpt lat="43.10147128713255" lon="-2.392320925767996"><ele>228.4</ele><time>2026-04-30T10:18:52Z</time></trkpt><trkpt lat="43.10145571881807" lon="-2.392461829154192"><ele>231.0</ele><time>2026-04-30T10:18:53Z</time></trkpt><trkpt lat="43.10144541886893" lon="-2.3926078595240443"><ele>232.60000000000002</ele><time>2026-04-30T10:18:54Z</time></trkpt><trkpt lat="43.10145326764204" lon="-2.392762288076424"><ele>234.20000000000002</ele><time>2026-04-30T10:18:55Z</time></trkpt><trkpt lat="43.101462431200346" lon="-2.392912681103854"><ele>235.79999999999998</ele><time>2026-04-30T10:18:56Z</time></trkpt><trkpt lat="43.10148536246952" lon="-2.393062221856872"><ele>237.39999999999998</ele><time>2026-04-30T10:18:57Z</time></trkpt><trkpt lat="43.101519417749685" lon="-2.3932104622768264"><ele>239.0</ele><time>2026-04-30T10:18:58Z</time></trkpt><trkpt lat="43.10155393650786" lon="-2.3933525919882235"><ele>234.25</ele><time>2026-04-30T10:18:59Z</time></trkpt><trkpt lat="43.10159054368793" lon="-2.3934974473245987"><ele>229.5</ele><time>2026-04-30T10:19:00Z</time></trkpt><trkpt lat="43.10162512416284" lon="-2.3936445463644955"><ele>224.75</ele><time>2026-04-30T10:19:01Z</time></trkpt><trkpt lat="43.10166006576001" lon="-2.3937905533343655"><ele>220.0</ele><time>2026-04-30T10:19:02Z</time></trkpt><trkpt lat="43.10169506697553" lon="-2.393938725463631"><ele>219.25</ele><time>2026-04-30T10:19:03Z</time></trkpt><trkpt lat="43.101729173393615" lon="-2.394085572975163"><ele>218.5</ele><time>2026-04-30T10:19:04Z</time></trkpt><trkpt lat="43.10176230490361" lon="-2.394236823129099"><ele>217.75</ele><time>2026-04-30T10:19:05Z</time></trkpt><trkpt lat="43.10180493890154" lon="-2.394382431211413"><ele>217.0</ele><time>2026-04-30T10:19:06Z</time></trkpt><trkpt lat="43.10183291923772" lon="-2.3945347451930843"><ele>218.5</ele><time>2026-04-30T10:19:07Z</time></trkpt><trkpt lat="43.101870879040824" lon="-2.394671584528055"><ele>220.0</ele><time>2026-04-30T10:19:08Z</time></trkpt><trkpt lat="43.10190682383605" lon="-2.3948221995193095"><ele>221.5</ele><time>2026-04-30T10:19:09Z</time></trkpt><trkpt lat="43.10193896670308" lon="-2.3949700978342"><ele>223.0</ele><time>2026-04-30T10:19:10Z</time></trkpt><trkpt lat="43.101974191192355" lon="-2.3951191508202485"><ele>223.0</ele><time>2026-04-30T10:19:11Z</time></trkpt><trkpt lat="43.10200677448151" lon="-2.3952681333372037"><ele>223.0</ele><time>2026-04-30T10:19:12.001Z</time></trkpt><trkpt lat="43.10203581724517" lon="-2.3954161782485803"><ele>223.0</ele><time>2026-04-30T10:19:13.001Z</time></trkpt><trkpt lat="43.10206692516302" lon="-2.395562709645983"><ele>223.0</ele><time>2026-04-30T10:19:14.001Z</time></trkpt><trkpt lat="43.10209711184787" lon="-2.3957053994006134"><ele>223.0</ele><time>2026-04-30T10:19:15.001Z</time></trkpt><trkpt lat="43.102132996643356" lon="-2.395848429339303"><ele>223.25</ele><time>2026-04-30T10:19:16.001Z</time></trkpt><trkpt lat="43.10219243911121" lon="-2.395979547236105"><ele>223.5</ele><time>2026-04-30T10:19:17.001Z</time></trkpt><trkpt lat="43.102270645208705" lon="-2.396092691999574"><ele>223.75</ele><time>2026-04-30T10:19:18.001Z</time></trkpt><trkpt lat="43.102364691629546" lon="-2.3961825135898125"><ele>224.0</ele><time>2026-04-30T10:19:19.001Z</time></trkpt><trkpt lat="43.102450884481236" lon="-2.3962743166760214"><ele>223.79999999999998</ele><time>2026-04-30T10:19:20.001Z</time></trkpt><trkpt lat="43.10254004445784" lon="-2.3963649635420436"><ele>223.59999999999997</ele><time>2026-04-30T10:19:21.001Z</time></trkpt><trkpt lat="43.102632918308906" lon="-2.396454464085226"><ele>223.4</ele><time>2026-04-30T10:19:22.001Z</time></trkpt><trkpt lat="43.102721422344736" lon="-2.3965350006487878"><ele>223.2</ele><time>2026-04-30T10:19:23.001Z</time></trkpt><trkpt lat="43.102818864416676" lon="-2.396607029845718"><ele>223.0</ele><time>2026-04-30T10:19:24.001Z</time></trkpt><trkpt lat="43.10291990752258" lon="-2.3966759608974924"><ele>223.0</ele><time>2026-04-30T10:19:25.001Z</time></trkpt><trkpt lat="43.103018306146" lon="-2.396740912309304"><ele>223.0</ele><time>2026-04-30T10:19:26.001Z</time></trkpt><trkpt lat="43.103121315742804" lon="-2.396800919531286"><ele>223.0</ele><time>2026-04-30T10:19:27.001Z</time></trkpt><trkpt lat="43.1032231498796" lon="-2.396863701472101"><ele>223.0</ele><time>2026-04-30T10:19:28.001Z</time></trkpt><trkpt lat="43.103322119395834" lon="-2.3969312203769535"><ele>223.0</ele><time>2026-04-30T10:19:29.001Z</time></trkpt><trkpt lat="43.103414999750115" lon="-2.3970068474769106"><ele>223.60000000000002</ele><time>2026-04-30T10:19:30.001Z</time></trkpt><trkpt lat="43.10349094378174" lon="-2.397100496101337"><ele>224.20000000000002</ele><time>2026-04-30T10:19:31.001Z</time></trkpt><trkpt lat="43.10354387115928" lon="-2.3972162001678066"><ele>224.8</ele><time>2026-04-30T10:19:32.001Z</time></trkpt><trkpt lat="43.10359969602856" lon="-2.3973315038220226"><ele>225.4</ele><time>2026-04-30T10:19:33.001Z</time></trkpt><trkpt lat="43.10366085447085" lon="-2.3974322423919157"><ele>226.0</ele><time>2026-04-30T10:19:34.001Z</time></trkpt><trkpt lat="43.10373255208682" lon="-2.3975062039006323"><ele>226.0</ele><time>2026-04-30T10:19:35.001Z</time></trkpt><trkpt lat="43.10380329857899" lon="-2.3975307919789217"><ele>226.0</ele><time>2026-04-30T10:19:36.001Z</time></trkpt><trkpt lat="43.10387176873555" lon="-2.3975052355183903"><ele>226.0</ele><time>2026-04-30T10:19:37.001Z</time></trkpt><trkpt lat="43.10393265378692" lon="-2.3974588615192487"><ele>226.0</ele><time>2026-04-30T10:19:38.001Z</time></trkpt><trkpt lat="43.10399688728731" lon="-2.3974134275435914"><ele>226.0</ele><time>2026-04-30T10:19:39.001Z</time></trkpt><trkpt lat="43.1040670984366" lon="-2.3973919835307522"><ele>226.0</ele><time>2026-04-30T10:19:40.001Z</time></trkpt><trkpt lat="43.104142787654304" lon="-2.397414358488852"><ele>226.0</ele><time>2026-04-30T10:19:41.001Z</time></trkpt><trkpt lat="43.104208903353104" lon="-2.3974678667650147"><ele>221.16666666666666</ele><time>2026-04-30T10:19:42.001Z</time></trkpt><trkpt lat="43.10424781155369" lon="-2.3975509426935515"><ele>216.33333333333331</ele><time>2026-04-30T10:19:43.001Z</time></trkpt><trkpt lat="43.10427697248629" lon="-2.3976337430985772"><ele>211.5</ele><time>2026-04-30T10:19:44.001Z</time></trkpt><trkpt lat="43.10424155579923" lon="-2.397748074856997"><ele>206.66666666666669</ele><time>2026-04-30T10:19:45.001Z</time></trkpt><trkpt lat="43.10420775197528" lon="-2.397839199589153"><ele>201.83333333333334</ele><time>2026-04-30T10:19:46.001Z</time></trkpt><trkpt lat="43.104167346880935" lon="-2.397928189150481"><ele>197.0</ele><time>2026-04-30T10:19:47.001Z</time></trkpt><trkpt lat="43.10413641662467" lon="-2.3980251893895397"><ele>197.00000000000003</ele><time>2026-04-30T10:19:48.001Z</time></trkpt><trkpt lat="43.10413195626843" lon="-2.3981347103436885"><ele>197.0</ele><time>2026-04-30T10:19:49.001Z</time></trkpt><trkpt lat="43.10415411381027" lon="-2.3982503058913087"><ele>197.0</ele><time>2026-04-30T10:19:50.001Z</time></trkpt><trkpt lat="43.1041999522884" lon="-2.3983548851413468"><ele>197.0</ele><time>2026-04-30T10:19:51.001Z</time></trkpt><trkpt lat="43.104265980081536" lon="-2.398444636871262"><ele>197.00000000000003</ele><time>2026-04-30T10:19:52.001Z</time></trkpt><trkpt lat="43.104343091048115" lon="-2.3985252647806568"><ele>197.0</ele><time>2026-04-30T10:19:53.001Z</time></trkpt><trkpt lat="43.10442865717613" lon="-2.398597330911611"><ele>197.0</ele><time>2026-04-30T10:19:54.001Z</time></trkpt><trkpt lat="43.10452579801482" lon="-2.3986571993635577"><ele>197.0</ele><time>2026-04-30T10:19:55.001Z</time></trkpt><trkpt lat="43.10463188299198" lon="-2.3987044594999944"><ele>197.0</ele><time>2026-04-30T10:19:56.001Z</time></trkpt><trkpt lat="43.104731318755036" lon="-2.3987499342679897"><ele>197.0</ele><time>2026-04-30T10:19:57.001Z</time></trkpt><trkpt lat="43.104847528790145" lon="-2.3987937480267245"><ele>197.0</ele><time>2026-04-30T10:19:58.001Z</time></trkpt><trkpt lat="43.10495927113255" lon="-2.3988284862064444"><ele>200.5</ele><time>2026-04-30T10:19:59.001Z</time></trkpt><trkpt lat="43.10507404269955" lon="-2.3988610688787224"><ele>204.0</ele><time>2026-04-30T10:20:00.001Z</time></trkpt><trkpt lat="43.10518812792762" lon="-2.398894532829078"><ele>207.5</ele><time>2026-04-30T10:20:01.001Z</time></trkpt><trkpt lat="43.10529799834254" lon="-2.398922903867722"><ele>211.0</ele><time>2026-04-30T10:20:02.001Z</time></trkpt><trkpt lat="43.10539870239648" lon="-2.3989583912466865"><ele>211.0</ele><time>2026-04-30T10:20:03.001Z</time></trkpt><trkpt lat="43.10549185826636" lon="-2.399013686216212"><ele>211.0</ele><time>2026-04-30T10:20:04.001Z</time></trkpt><trkpt lat="43.10557259903618" lon="-2.399112856487064"><ele>211.0</ele><time>2026-04-30T10:20:05.001Z</time></trkpt><trkpt lat="43.105643976403925" lon="-2.3992326572333"><ele>211.0</ele><time>2026-04-30T10:20:06.001Z</time></trkpt><trkpt lat="43.10572078798307" lon="-2.3993431894526185"><ele>211.0</ele><time>2026-04-30T10:20:07.001Z</time></trkpt><trkpt lat="43.10578826113513" lon="-2.3994465574377672"><ele>209.60000000000002</ele><time>2026-04-30T10:20:08.001Z</time></trkpt><trkpt lat="43.105865039292944" lon="-2.399566826855001"><ele>208.2</ele><time>2026-04-30T10:20:09.001Z</time></trkpt><trkpt lat="43.10593845222714" lon="-2.3996789020002702"><ele>206.8</ele><time>2026-04-30T10:20:10.001Z</time></trkpt><trkpt lat="43.10601631606558" lon="-2.3997851710093836"><ele>205.39999999999998</ele><time>2026-04-30T10:20:11.001Z</time></trkpt><trkpt lat="43.106096949160246" lon="-2.399889385908342"><ele>204.0</ele><time>2026-04-30T10:20:12.001Z</time></trkpt><trkpt lat="43.10617768025105" lon="-2.4000035898681293"><ele>204.0</ele><time>2026-04-30T10:20:13.001Z</time></trkpt><trkpt lat="43.106258805073274" lon="-2.400110813312519"><ele>204.0</ele><time>2026-04-30T10:20:14.001Z</time></trkpt><trkpt lat="43.1063348668377" lon="-2.4002157260455803"><ele>204.0</ele><time>2026-04-30T10:20:15.001Z</time></trkpt><trkpt lat="43.10641794295813" lon="-2.4003149151710064"><ele>204.0</ele><time>2026-04-30T10:20:16.001Z</time></trkpt><trkpt lat="43.106505951813" lon="-2.400405373827987"><ele>204.0</ele><time>2026-04-30T10:20:17.001Z</time></trkpt><trkpt lat="43.10660171536215" lon="-2.4004871629244735"><ele>204.39999999999998</ele><time>2026-04-30T10:20:18.001Z</time></trkpt><trkpt lat="43.1067014791539" lon="-2.4005577400524394"><ele>204.8</ele><time>2026-04-30T10:20:19.001Z</time></trkpt><trkpt lat="43.10680584652419" lon="-2.400620157064266"><ele>205.2</ele><time>2026-04-30T10:20:20.001Z</time></trkpt><trkpt lat="43.106900381454096" lon="-2.4006810826913454"><ele>205.60000000000002</ele><time>2026-04-30T10:20:21.002Z</time></trkpt><trkpt lat="43.10699526272896" lon="-2.4007521942477497"><ele>206.0</ele><time>2026-04-30T10:20:22.002Z</time></trkpt><trkpt lat="43.107078672630045" lon="-2.4008271613766548"><ele>206.0</ele><time>2026-04-30T10:20:23.002Z</time></trkpt><trkpt lat="43.107198152879164" lon="-2.400881998682246"><ele>206.0</ele><time>2026-04-30T10:20:24.002Z</time></trkpt><trkpt lat="43.10729281001665" lon="-2.4009635362542148"><ele>206.0</ele><time>2026-04-30T10:20:25.002Z</time></trkpt><trkpt lat="43.107386276274994" lon="-2.4010472096297186"><ele>206.0</ele><time>2026-04-30T10:20:26.002Z</time></trkpt><trkpt lat="43.10745433753382" lon="-2.4011693735647794"><ele>203.4</ele><time>2026-04-30T10:20:27Z</time></trkpt><trkpt lat="43.107518853145784" lon="-2.401291059234614"><ele>200.8</ele><time>2026-04-30T10:20:28Z</time></trkpt><trkpt lat="43.107572811318164" lon="-2.401424843919917"><ele>198.20000000000002</ele><time>2026-04-30T10:20:29Z</time></trkpt><trkpt lat="43.107615289090305" lon="-2.401566408922696"><ele>195.60000000000002</ele><time>2026-04-30T10:20:30Z</time></trkpt><trkpt lat="43.10764709973867" lon="-2.4017146040275636"><ele>193.0</ele><time>2026-04-30T10:20:31Z</time></trkpt><trkpt lat="43.10765980553347" lon="-2.40186944529627"><ele>193.0</ele><time>2026-04-30T10:20:32Z</time></trkpt><trkpt lat="43.107656705170804" lon="-2.4020254640656717"><ele>193.0</ele><time>2026-04-30T10:20:33Z</time></trkpt><trkpt lat="43.10763391494857" lon="-2.4021785396350346"><ele>193.0</ele><time>2026-04-30T10:20:34Z</time></trkpt><trkpt lat="43.1075931855398" lon="-2.4023259521414744"><ele>193.0</ele><time>2026-04-30T10:20:35Z</time></trkpt><trkpt lat="43.107543874638495" lon="-2.4024703608187403"><ele>192.5</ele><time>2026-04-30T10:20:36Z</time></trkpt><trkpt lat="43.107488084959385" lon="-2.4026083638057756"><ele>192.0</ele><time>2026-04-30T10:20:37Z</time></trkpt><trkpt lat="43.10743504768064" lon="-2.402755324247674"><ele>191.5</ele><time>2026-04-30T10:20:38Z</time></trkpt><trkpt lat="43.10739985291988" lon="-2.402893307220415"><ele>191.0</ele><time>2026-04-30T10:20:39Z</time></trkpt><trkpt lat="43.10737373953979" lon="-2.4030609475717655"><ele>188.60000000000002</ele><time>2026-04-30T10:20:40Z</time></trkpt><trkpt lat="43.10736855431338" lon="-2.403216298324916"><ele>186.2</ele><time>2026-04-30T10:20:41Z</time></trkpt><trkpt lat="43.107391203082145" lon="-2.403363679651477"><ele>183.8</ele><time>2026-04-30T10:20:42Z</time></trkpt><trkpt lat="43.10741886282299" lon="-2.403491171172481"><ele>181.39999999999998</ele><time>2026-04-30T10:20:43Z</time></trkpt><trkpt lat="43.10744202045213" lon="-2.403634003642022"><ele>179.0</ele><time>2026-04-30T10:20:44Z</time></trkpt><trkpt lat="43.10748773048139" lon="-2.4037547779669493"><ele>179.66666666666666</ele><time>2026-04-30T10:20:45Z</time></trkpt><trkpt lat="43.107557723804675" lon="-2.40384752154643"><ele>180.33333333333331</ele><time>2026-04-30T10:20:46Z</time></trkpt><trkpt lat="43.10760152122752" lon="-2.4039590265446487"><ele>181.0</ele><time>2026-04-30T10:20:47Z</time></trkpt><trkpt lat="43.10766549790132" lon="-2.404041965308328"><ele>181.66666666666666</ele><time>2026-04-30T10:20:48Z</time></trkpt><trkpt lat="43.10773814455926" lon="-2.404096855416704"><ele>182.33333333333334</ele><time>2026-04-30T10:20:49Z</time></trkpt><trkpt lat="43.1078122878465" lon="-2.404119727038045"><ele>183.0</ele><time>2026-04-30T10:20:50Z</time></trkpt><trkpt lat="43.10788520300472" lon="-2.4041386644818714"><ele>183.0</ele><time>2026-04-30T10:20:51Z</time></trkpt><trkpt lat="43.10795663237637" lon="-2.404173413580794"><ele>183.0</ele><time>2026-04-30T10:20:52Z</time></trkpt><trkpt lat="43.108020693596714" lon="-2.40422475645587"><ele>183.0</ele><time>2026-04-30T10:20:53Z</time></trkpt><trkpt lat="43.10811283434709" lon="-2.4043166528886926"><ele>183.0</ele><time>2026-04-30T10:20:55Z</time></trkpt><trkpt lat="43.10812184094254" lon="-2.4044085934367607"><ele>183.0</ele><time>2026-04-30T10:20:58Z</time></trkpt><trkpt lat="43.108054329671525" lon="-2.404431826068681"><ele>183.0</ele><time>2026-04-30T10:21:00Z</time></trkpt><trkpt lat="43.10799183993081" lon="-2.404510928432121"><ele>183.0</ele><time>2026-04-30T10:21:03Z</time></trkpt><trkpt lat="43.10794589870343" lon="-2.40460344653638"><ele>183.0</ele><time>2026-04-30T10:21:05Z</time></trkpt><trkpt lat="43.10802468247915" lon="-2.4047376649911825"><ele>183.0</ele><time>2026-04-30T10:21:06Z</time></trkpt><trkpt lat="43.10810596444507" lon="-2.4048541323173374"><ele>183.0</ele><time>2026-04-30T10:21:08Z</time></trkpt><trkpt lat="43.10815547319506" lon="-2.4049926029469817"><ele>183.0</ele><time>2026-04-30T10:21:10Z</time></trkpt><trkpt lat="43.10817190620032" lon="-2.4051109442169913"><ele>183.0</ele><time>2026-04-30T10:21:12Z</time></trkpt><trkpt lat="43.108163797017895" lon="-2.40502517868314"><ele>183.0</ele><time>2026-04-30T10:21:55.001Z</time></trkpt><trkpt lat="43.10814550160858" lon="-2.404941979058674"><ele>183.0</ele><time>2026-04-30T10:22:08.001Z</time></trkpt><trkpt lat="43.10811692991038" lon="-2.4048605231221467"><ele>183.0</ele><time>2026-04-30T10:22:18.001Z</time></trkpt><trkpt lat="43.108006352880956" lon="-2.4047420072603307"><ele>183.0</ele><time>2026-04-30T10:22:28.001Z</time></trkpt><trkpt lat="43.107972913479834" lon="-2.4046228589842653"><ele>183.0</ele><time>2026-04-30T10:22:30.002Z</time></trkpt><trkpt lat="43.10788657761507" lon="-2.4045751523400063"><ele>183.0</ele><time>2026-04-30T10:22:32.002Z</time></trkpt><trkpt lat="43.10775989487286" lon="-2.404559243421218"><ele>183.0</ele><time>2026-04-30T10:22:34Z</time></trkpt><trkpt lat="43.107703172687884" lon="-2.404507185246419"><ele>183.0</ele><time>2026-04-30T10:22:35Z</time></trkpt><trkpt lat="43.10766740615564" lon="-2.404421389758052"><ele>183.0</ele><time>2026-04-30T10:22:36Z</time></trkpt><trkpt lat="43.10765690416324" lon="-2.4043261264775144"><ele>183.0</ele><time>2026-04-30T10:22:37Z</time></trkpt><trkpt lat="43.107675461575134" lon="-2.4042386400008837"><ele>183.0</ele><time>2026-04-30T10:22:38Z</time></trkpt><trkpt lat="43.10772325686352" lon="-2.404170460210439"><ele>183.0</ele><time>2026-04-30T10:22:39Z</time></trkpt><trkpt lat="43.10779102777097" lon="-2.4041264771382593"><ele>183.0</ele><time>2026-04-30T10:22:40Z</time></trkpt><trkpt lat="43.10787229579606" lon="-2.404115117411596"><ele>183.0</ele><time>2026-04-30T10:22:41Z</time></trkpt><trkpt lat="43.107956248327866" lon="-2.4041469007939007"><ele>183.0</ele><time>2026-04-30T10:22:42Z</time></trkpt><trkpt lat="43.108031283138935" lon="-2.404207962264005"><ele>183.0</ele><time>2026-04-30T10:22:43Z</time></trkpt><trkpt lat="43.10809830420234" lon="-2.4042733214905416"><ele>183.0</ele><time>2026-04-30T10:22:44Z</time></trkpt><trkpt lat="43.10817063645008" lon="-2.4043250348208987"><ele>183.0</ele><time>2026-04-30T10:22:45Z</time></trkpt><trkpt lat="43.10824238480159" lon="-2.4043763704974177"><ele>183.0</ele><time>2026-04-30T10:22:46Z</time></trkpt><trkpt lat="43.10830598028486" lon="-2.4044536994338186"><ele>183.0</ele><time>2026-04-30T10:22:47Z</time></trkpt><trkpt lat="43.10834366309502" lon="-2.404564194924676"><ele>183.0</ele><time>2026-04-30T10:22:48Z</time></trkpt><trkpt lat="43.108354768837856" lon="-2.404688283286758"><ele>183.0</ele><time>2026-04-30T10:22:49Z</time></trkpt><trkpt lat="43.10834849816199" lon="-2.404819972075748"><ele>183.0</ele><time>2026-04-30T10:22:50Z</time></trkpt><trkpt lat="43.10833220777518" lon="-2.4049486198954706"><ele>181.8</ele><time>2026-04-30T10:22:51Z</time></trkpt><trkpt lat="43.108307044297746" lon="-2.4050779856676288"><ele>180.60000000000002</ele><time>2026-04-30T10:22:52Z</time></trkpt><trkpt lat="43.1082777097631" lon="-2.405207254804787"><ele>179.39999999999998</ele><time>2026-04-30T10:22:53Z</time></trkpt><trkpt lat="43.108248008249184" lon="-2.405333488764023"><ele>178.2</ele><time>2026-04-30T10:22:54Z</time></trkpt><trkpt lat="43.10821725988411" lon="-2.405462475385054"><ele>177.0</ele><time>2026-04-30T10:22:55Z</time></trkpt><trkpt lat="43.108182845498746" lon="-2.4055846826617695"><ele>176.33333333333334</ele><time>2026-04-30T10:22:56Z</time></trkpt><trkpt lat="43.108154007672454" lon="-2.405705536317689"><ele>175.66666666666666</ele><time>2026-04-30T10:22:57Z</time></trkpt><trkpt lat="43.10814176170133" lon="-2.405828384362373"><ele>175.0</ele><time>2026-04-30T10:22:58Z</time></trkpt><trkpt lat="43.108141952846644" lon="-2.4059430630928325"><ele>174.33333333333331</ele><time>2026-04-30T10:22:59Z</time></trkpt><trkpt lat="43.10814252933641" lon="-2.406052501578102"><ele>173.66666666666666</ele><time>2026-04-30T10:23:00Z</time></trkpt><trkpt lat="43.108138540123434" lon="-2.4061595728935092"><ele>173.0</ele><time>2026-04-30T10:23:01Z</time></trkpt><trkpt lat="43.10813140743029" lon="-2.406270583732789"><ele>174.0</ele><time>2026-04-30T10:23:02Z</time></trkpt><trkpt lat="43.108127221002356" lon="-2.406385806829867"><ele>175.0</ele><time>2026-04-30T10:23:03Z</time></trkpt><trkpt lat="43.10812265588589" lon="-2.4065092271133963"><ele>176.0</ele><time>2026-04-30T10:23:04Z</time></trkpt><trkpt lat="43.10811744255794" lon="-2.4066387737364154"><ele>177.0</ele><time>2026-04-30T10:23:05Z</time></trkpt><trkpt lat="43.108117666943414" lon="-2.4067692564005854"><ele>178.0</ele><time>2026-04-30T10:23:06Z</time></trkpt><trkpt lat="43.108119088733176" lon="-2.406905089498538"><ele>178.0</ele><time>2026-04-30T10:23:07Z</time></trkpt><trkpt lat="43.10812012251241" lon="-2.4070376891923826"><ele>178.0</ele><time>2026-04-30T10:23:08Z</time></trkpt><trkpt lat="43.10814186086688" lon="-2.4071726523328447"><ele>178.0</ele><time>2026-04-30T10:23:09Z</time></trkpt><trkpt lat="43.108183189177666" lon="-2.4073017277751023"><ele>178.0</ele><time>2026-04-30T10:23:10Z</time></trkpt><trkpt lat="43.1082380681797" lon="-2.407423404690026"><ele>178.0</ele><time>2026-04-30T10:23:11Z</time></trkpt><trkpt lat="43.10830141856312" lon="-2.407538935224771"><ele>176.8</ele><time>2026-04-30T10:23:12Z</time></trkpt><trkpt lat="43.10837819534681" lon="-2.407647641461146"><ele>175.60000000000002</ele><time>2026-04-30T10:23:13Z</time></trkpt><trkpt lat="43.10846155537698" lon="-2.407737986110019"><ele>174.39999999999998</ele><time>2026-04-30T10:23:14Z</time></trkpt><trkpt lat="43.10855034397383" lon="-2.4078248068557047"><ele>173.2</ele><time>2026-04-30T10:23:15Z</time></trkpt><trkpt lat="43.10863668233565" lon="-2.4079105306321784"><ele>172.0</ele><time>2026-04-30T10:23:16Z</time></trkpt><trkpt lat="43.108725938276216" lon="-2.4079977315988748"><ele>171.2</ele><time>2026-04-30T10:23:17Z</time></trkpt><trkpt lat="43.10880999526737" lon="-2.408089725203088"><ele>170.39999999999998</ele><time>2026-04-30T10:23:18Z</time></trkpt><trkpt lat="43.10889472387232" lon="-2.4081817662688976"><ele>169.60000000000002</ele><time>2026-04-30T10:23:19Z</time></trkpt><trkpt lat="43.10897651284768" lon="-2.408276608991846"><ele>168.8</ele><time>2026-04-30T10:23:20Z</time></trkpt><trkpt lat="43.10905511108574" lon="-2.408375424219697"><ele>168.0</ele><time>2026-04-30T10:23:21Z</time></trkpt><trkpt lat="43.10913230338441" lon="-2.408478975871752"><ele>168.0</ele><time>2026-04-30T10:23:22Z</time></trkpt><trkpt lat="43.10920839426091" lon="-2.4085810807970196"><ele>168.0</ele><time>2026-04-30T10:23:23Z</time></trkpt><trkpt lat="43.10928725635645" lon="-2.408682431699711"><ele>168.0</ele><time>2026-04-30T10:23:24Z</time></trkpt><trkpt lat="43.10936317483064" lon="-2.4087840124523137"><ele>168.0</ele><time>2026-04-30T10:23:25Z</time></trkpt><trkpt lat="43.10944108792757" lon="-2.408884439401107"><ele>168.0</ele><time>2026-04-30T10:23:26Z</time></trkpt><trkpt lat="43.109516568272696" lon="-2.408986566210478"><ele>166.60000000000002</ele><time>2026-04-30T10:23:27Z</time></trkpt><trkpt lat="43.10959253064548" lon="-2.4090893475418396"><ele>165.20000000000002</ele><time>2026-04-30T10:23:28Z</time></trkpt><trkpt lat="43.10966387868399" lon="-2.4091867787443415"><ele>163.8</ele><time>2026-04-30T10:23:29Z</time></trkpt><trkpt lat="43.109737283987414" lon="-2.409271589599538"><ele>162.4</ele><time>2026-04-30T10:23:30Z</time></trkpt><trkpt lat="43.109810226768026" lon="-2.4093630210251953"><ele>161.0</ele><time>2026-04-30T10:23:31.001Z</time></trkpt><trkpt lat="43.109878552500646" lon="-2.409452529303153"><ele>160.4</ele><time>2026-04-30T10:23:32.001Z</time></trkpt><trkpt lat="43.1099554575607" lon="-2.4095378436200647"><ele>159.8</ele><time>2026-04-30T10:23:33.001Z</time></trkpt><trkpt lat="43.11001971630746" lon="-2.4096433671022055"><ele>159.20000000000002</ele><time>2026-04-30T10:23:34.001Z</time></trkpt><trkpt lat="43.11007474652783" lon="-2.4097589111215942"><ele>158.60000000000002</ele><time>2026-04-30T10:23:35.001Z</time></trkpt><trkpt lat="43.11012448602351" lon="-2.409884230457638"><ele>158.0</ele><time>2026-04-30T10:23:36.001Z</time></trkpt><trkpt lat="43.110177518845234" lon="-2.4100107814309806"><ele>158.0</ele><time>2026-04-30T10:23:37.001Z</time></trkpt><trkpt lat="43.1102337860954" lon="-2.410132900651891"><ele>158.0</ele><time>2026-04-30T10:23:38.001Z</time></trkpt><trkpt lat="43.11028669275382" lon="-2.410253254698125"><ele>158.0</ele><time>2026-04-30T10:23:39.001Z</time></trkpt><trkpt lat="43.110335852816426" lon="-2.4103765046112677"><ele>158.0</ele><time>2026-04-30T10:23:40.001Z</time></trkpt><trkpt lat="43.110386407211934" lon="-2.4104923143658703"><ele>158.0</ele><time>2026-04-30T10:23:41.001Z</time></trkpt><trkpt lat="43.11043383245359" lon="-2.4106035342110212"><ele>158.83333333333331</ele><time>2026-04-30T10:23:42.001Z</time></trkpt><trkpt lat="43.11048300060779" lon="-2.4107129446805273"><ele>159.66666666666666</ele><time>2026-04-30T10:23:43.001Z</time></trkpt><trkpt lat="43.11053167235364" lon="-2.410818104903381"><ele>160.5</ele><time>2026-04-30T10:23:44.001Z</time></trkpt><trkpt lat="43.11057269514996" lon="-2.410918768638415"><ele>161.33333333333334</ele><time>2026-04-30T10:23:45.001Z</time></trkpt><trkpt lat="43.11061382291901" lon="-2.4110118802143212"><ele>162.16666666666669</ele><time>2026-04-30T10:23:46.001Z</time></trkpt><trkpt lat="43.11065508950997" lon="-2.4111010399042088"><ele>163.0</ele><time>2026-04-30T10:23:47.001Z</time></trkpt><trkpt lat="43.11069521264925" lon="-2.4111840826239828"><ele>163.0</ele><time>2026-04-30T10:23:48.001Z</time></trkpt><trkpt lat="43.110733401420504" lon="-2.4112821463751426"><ele>163.0</ele><time>2026-04-30T10:23:49.001Z</time></trkpt><trkpt lat="43.110772620287186" lon="-2.411366125755148"><ele>163.0</ele><time>2026-04-30T10:23:50.001Z</time></trkpt><trkpt lat="43.11081057602541" lon="-2.411457033732055"><ele>163.0</ele><time>2026-04-30T10:23:51.001Z</time></trkpt><trkpt lat="43.110854108769345" lon="-2.411548332669114"><ele>163.0</ele><time>2026-04-30T10:23:52.001Z</time></trkpt><trkpt lat="43.11089241876532" lon="-2.411634151865029"><ele>163.0</ele><time>2026-04-30T10:23:53.001Z</time></trkpt><trkpt lat="43.110931495843296" lon="-2.4117256218300653"><ele>162.16666666666669</ele><time>2026-04-30T10:23:54.001Z</time></trkpt><trkpt lat="43.11096643497792" lon="-2.4118087872904526"><ele>161.33333333333334</ele><time>2026-04-30T10:23:55.001Z</time></trkpt><trkpt lat="43.11100750439418" lon="-2.4118977541237645"><ele>160.5</ele><time>2026-04-30T10:23:56.001Z</time></trkpt><trkpt lat="43.11104328028429" lon="-2.411996907526741"><ele>159.66666666666666</ele><time>2026-04-30T10:23:57.001Z</time></trkpt><trkpt lat="43.111088816644546" lon="-2.412083259416416"><ele>158.83333333333331</ele><time>2026-04-30T10:23:58.001Z</time></trkpt><trkpt lat="43.11113075572942" lon="-2.4121765517976925"><ele>158.0</ele><time>2026-04-30T10:23:59.001Z</time></trkpt><trkpt lat="43.11116820340943" lon="-2.41228247240514"><ele>157.66666666666666</ele><time>2026-04-30T10:24:00.001Z</time></trkpt><trkpt lat="43.11120386134114" lon="-2.4123888657180625"><ele>157.33333333333331</ele><time>2026-04-30T10:24:01.001Z</time></trkpt><trkpt lat="43.1112474642595" lon="-2.4124908944575907"><ele>157.0</ele><time>2026-04-30T10:24:02.001Z</time></trkpt><trkpt lat="43.11129431700686" lon="-2.412592349205025"><ele>156.66666666666666</ele><time>2026-04-30T10:24:03.001Z</time></trkpt><trkpt lat="43.1113397194699" lon="-2.4126936240851995"><ele>156.33333333333334</ele><time>2026-04-30T10:24:04.001Z</time></trkpt><trkpt lat="43.11138584432481" lon="-2.412786905946541"><ele>156.0</ele><time>2026-04-30T10:24:05.001Z</time></trkpt><trkpt lat="43.111427313309115" lon="-2.4128738153283757"><ele>156.0</ele><time>2026-04-30T10:24:06.001Z</time></trkpt><trkpt lat="43.11146177749894" lon="-2.4129552401088725"><ele>156.0</ele><time>2026-04-30T10:24:07.001Z</time></trkpt><trkpt lat="43.11154059345966" lon="-2.413098981403543"><ele>156.0</ele><time>2026-04-30T10:24:09.001Z</time></trkpt><trkpt lat="43.111583787637606" lon="-2.4131682861168207"><ele>156.0</ele><time>2026-04-30T10:24:10.001Z</time></trkpt><trkpt lat="43.1116272688094" lon="-2.4132425194763996"><ele>156.0</ele><time>2026-04-30T10:24:11.001Z</time></trkpt><trkpt lat="43.11166050174115" lon="-2.4133290869523303"><ele>156.0</ele><time>2026-04-30T10:24:12.001Z</time></trkpt><trkpt lat="43.11169390105749" lon="-2.413407773419829"><ele>155.33333333333334</ele><time>2026-04-30T10:24:13.001Z</time></trkpt><trkpt lat="43.111718863186944" lon="-2.413496220917444"><ele>154.66666666666666</ele><time>2026-04-30T10:24:14.001Z</time></trkpt><trkpt lat="43.11175841170422" lon="-2.41357586912612"><ele>154.0</ele><time>2026-04-30T10:24:15.001Z</time></trkpt><trkpt lat="43.111812053273965" lon="-2.413651405475341"><ele>153.33333333333331</ele><time>2026-04-30T10:24:16.001Z</time></trkpt><trkpt lat="43.11187036979973" lon="-2.413728810961559"><ele>152.66666666666666</ele><time>2026-04-30T10:24:17.001Z</time></trkpt><trkpt lat="43.11193047863102" lon="-2.4138079190284643"><ele>152.0</ele><time>2026-04-30T10:24:18.001Z</time></trkpt><trkpt lat="43.11198522942718" lon="-2.4138949333006607"><ele>151.5</ele><time>2026-04-30T10:24:19.001Z</time></trkpt><trkpt lat="43.11203741768515" lon="-2.4139833816920255"><ele>151.0</ele><time>2026-04-30T10:24:20.001Z</time></trkpt><trkpt lat="43.11208487724531" lon="-2.414058375540441"><ele>150.5</ele><time>2026-04-30T10:24:21.001Z</time></trkpt><trkpt lat="43.11215066204528" lon="-2.4141560459943148"><ele>150.0</ele><time>2026-04-30T10:24:23.001Z</time></trkpt><trkpt lat="43.112208158577346" lon="-2.4142452774146044"><ele>149.5</ele><time>2026-04-30T10:24:25.001Z</time></trkpt><trkpt lat="43.112269719292634" lon="-2.414361636323439"><ele>149.0</ele><time>2026-04-30T10:24:27.001Z</time></trkpt><trkpt lat="43.11233241962286" lon="-2.414500760376836"><ele>149.0</ele><time>2026-04-30T10:24:29.001Z</time></trkpt><trkpt lat="43.11237090569922" lon="-2.414579251491843"><ele>149.0</ele><time>2026-04-30T10:24:30.002Z</time></trkpt><trkpt lat="43.11240421297551" lon="-2.4146625696195887"><ele>149.0</ele><time>2026-04-30T10:24:31.002Z</time></trkpt><trkpt lat="43.11243942649184" lon="-2.4147496956680787"><ele>149.0</ele><time>2026-04-30T10:24:32.002Z</time></trkpt><trkpt lat="43.112475540996385" lon="-2.414844162946425"><ele>149.0</ele><time>2026-04-30T10:24:33.002Z</time></trkpt><trkpt lat="43.11251577494335" lon="-2.4149371744480383"><ele>149.0</ele><time>2026-04-30T10:24:34.002Z</time></trkpt><trkpt lat="43.11255347646348" lon="-2.4150317932888106"><ele>149.0</ele><time>2026-04-30T10:24:35.002Z</time></trkpt><trkpt lat="43.112594727761966" lon="-2.4151263083535697"><ele>148.85714285714286</ele><time>2026-04-30T10:24:36.002Z</time></trkpt><trkpt lat="43.11263469595893" lon="-2.4152178050572677"><ele>148.7142857142857</ele><time>2026-04-30T10:24:37.002Z</time></trkpt><trkpt lat="43.11267271270331" lon="-2.4153087377707756"><ele>148.57142857142856</ele><time>2026-04-30T10:24:38.002Z</time></trkpt><trkpt lat="43.112709155940315" lon="-2.415392062445471"><ele>148.42857142857142</ele><time>2026-04-30T10:24:38.999Z</time></trkpt><trkpt lat="43.11274136893209" lon="-2.415472735202558"><ele>148.28571428571428</ele><time>2026-04-30T10:24:39.999Z</time></trkpt><trkpt lat="43.11277435650925" lon="-2.415547456030605"><ele>148.14285714285714</ele><time>2026-04-30T10:24:40.999Z</time></trkpt><trkpt lat="43.1128161402504" lon="-2.4156197013088305"><ele>148.0</ele><time>2026-04-30T10:24:41.999Z</time></trkpt><trkpt lat="43.11285887503181" lon="-2.4156849019558817"><ele>148.0</ele><time>2026-04-30T10:24:42.999Z</time></trkpt><trkpt lat="43.11291163073079" lon="-2.415739294742924"><ele>148.0</ele><time>2026-04-30T10:24:43.999Z</time></trkpt><trkpt lat="43.113008384770986" lon="-2.4158448397189405"><ele>148.0</ele><time>2026-04-30T10:24:45.999Z</time></trkpt><trkpt lat="43.113059835894255" lon="-2.4158969208306855"><ele>148.0</ele><time>2026-04-30T10:24:46.999Z</time></trkpt><trkpt lat="43.11311632799309" lon="-2.415940193566668"><ele>148.0</ele><time>2026-04-30T10:24:47.999Z</time></trkpt><trkpt lat="43.113172514356165" lon="-2.4159852216408577"><ele>148.0</ele><time>2026-04-30T10:24:48.999Z</time></trkpt><trkpt lat="43.11323060614207" lon="-2.41603310335676"><ele>147.6</ele><time>2026-04-30T10:24:49.999Z</time></trkpt><trkpt lat="43.11328812038358" lon="-2.416081143502226"><ele>147.20000000000002</ele><time>2026-04-30T10:24:50.999Z</time></trkpt><trkpt lat="43.11334364595235" lon="-2.4161293432178947"><ele>146.8</ele><time>2026-04-30T10:24:51.999Z</time></trkpt><trkpt lat="43.113451662315384" lon="-2.4162048279057813"><ele>146.4</ele><time>2026-04-30T10:24:53.999Z</time></trkpt><trkpt lat="43.113552600534476" lon="-2.416268202708493"><ele>146.0</ele><time>2026-04-30T10:24:55.999Z</time></trkpt><trkpt lat="43.11363061501081" lon="-2.4163186222124025"><ele>146.0</ele><time>2026-04-30T10:24:58Z</time></trkpt><trkpt lat="43.11370658555451" lon="-2.4163458542839447"><ele>146.0</ele><time>2026-04-30T10:25:05Z</time></trkpt><trkpt lat="43.11376919763034" lon="-2.416401262191199"><ele>146.0</ele><time>2026-04-30T10:25:12Z</time></trkpt><trkpt lat="43.11386936229087" lon="-2.416444159425989"><ele>146.0</ele><time>2026-04-30T10:25:15Z</time></trkpt><trkpt lat="43.113881951810264" lon="-2.4166304303007387"><ele>146.0</ele><time>2026-04-30T10:25:17Z</time></trkpt><trkpt lat="43.1138725414748" lon="-2.4167755973191247"><ele>146.0</ele><time>2026-04-30T10:25:19Z</time></trkpt><trkpt lat="43.11385350249307" lon="-2.4169372384333565"><ele>146.0</ele><time>2026-04-30T10:25:21Z</time></trkpt><trkpt lat="43.113841450461614" lon="-2.417031148250849"><ele>146.0</ele><time>2026-04-30T10:25:22Z</time></trkpt><trkpt lat="43.11383064060977" lon="-2.417126744055729"><ele>146.0</ele><time>2026-04-30T10:25:23Z</time></trkpt><trkpt lat="43.11381924661695" lon="-2.4172812828905657"><ele>146.0</ele><time>2026-04-30T10:25:25Z</time></trkpt><trkpt lat="43.11382119988827" lon="-2.417376357570151"><ele>146.0</ele><time>2026-04-30T10:25:27Z</time></trkpt><trkpt lat="43.11398939337997" lon="-2.417419132886195"><ele>148.5</ele><time>2026-04-30T10:25:28Z</time></trkpt><trkpt lat="43.11405560023679" lon="-2.41743791885966"><ele>151.0</ele><time>2026-04-30T10:25:29Z</time></trkpt><trkpt lat="43.11412920932147" lon="-2.417453029013013"><ele>153.5</ele><time>2026-04-30T10:25:30Z</time></trkpt><trkpt lat="43.11420770536118" lon="-2.41746973991319"><ele>156.0</ele><time>2026-04-30T10:25:31Z</time></trkpt><trkpt lat="43.114290434000914" lon="-2.417487676396035"><ele>158.5</ele><time>2026-04-30T10:25:32Z</time></trkpt><trkpt lat="43.11437803307999" lon="-2.4175021080921075"><ele>161.0</ele><time>2026-04-30T10:25:33Z</time></trkpt><trkpt lat="43.1144703346424" lon="-2.417505445514253"><ele>161.0</ele><time>2026-04-30T10:25:34Z</time></trkpt><trkpt lat="43.11456485861225" lon="-2.4175034352302696"><ele>161.0</ele><time>2026-04-30T10:25:35Z</time></trkpt><trkpt lat="43.11466295200925" lon="-2.417507404926402"><ele>161.0</ele><time>2026-04-30T10:25:36Z</time></trkpt><trkpt lat="43.114760940221586" lon="-2.417506412003338"><ele>161.0</ele><time>2026-04-30T10:25:37Z</time></trkpt><trkpt lat="43.11486172536935" lon="-2.41749051019831"><ele>161.0</ele><time>2026-04-30T10:25:38.001Z</time></trkpt><trkpt lat="43.114962133640574" lon="-2.417473403191804"><ele>160.20000000000002</ele><time>2026-04-30T10:25:39.001Z</time></trkpt><trkpt lat="43.11506290952008" lon="-2.417456339149511"><ele>159.4</ele><time>2026-04-30T10:25:40.001Z</time></trkpt><trkpt lat="43.11516487760498" lon="-2.4174360603282894"><ele>158.6</ele><time>2026-04-30T10:25:41.001Z</time></trkpt><trkpt lat="43.115265995047686" lon="-2.417408798545273"><ele>157.8</ele><time>2026-04-30T10:25:42.001Z</time></trkpt><trkpt lat="43.115364251523474" lon="-2.417377628919211"><ele>157.0</ele><time>2026-04-30T10:25:43.001Z</time></trkpt><trkpt lat="43.11546601390469" lon="-2.4173418869643046"><ele>157.0</ele><time>2026-04-30T10:25:44.001Z</time></trkpt><trkpt lat="43.11557416185249" lon="-2.4173262979532737"><ele>157.0</ele><time>2026-04-30T10:25:45.001Z</time></trkpt><trkpt lat="43.115674450092456" lon="-2.41728539939234"><ele>157.0</ele><time>2026-04-30T10:25:46.001Z</time></trkpt><trkpt lat="43.11577279179738" lon="-2.4172390895189126"><ele>157.0</ele><time>2026-04-30T10:25:47.001Z</time></trkpt><trkpt lat="43.11587039238844" lon="-2.417190680919735"><ele>157.0</ele><time>2026-04-30T10:25:48.001Z</time></trkpt><trkpt lat="43.115967764871755" lon="-2.4171435619054833"><ele>154.6</ele><time>2026-04-30T10:25:49.001Z</time></trkpt><trkpt lat="43.11606400656019" lon="-2.4170950143225864"><ele>152.2</ele><time>2026-04-30T10:25:50.001Z</time></trkpt><trkpt lat="43.116160368900296" lon="-2.4170540533482305"><ele>149.8</ele><time>2026-04-30T10:25:51.001Z</time></trkpt><trkpt lat="43.1162583473999" lon="-2.4170139792748353"><ele>147.4</ele><time>2026-04-30T10:25:52.001Z</time></trkpt><trkpt lat="43.11635488714052" lon="-2.4169699960104065"><ele>145.0</ele><time>2026-04-30T10:25:53.001Z</time></trkpt><trkpt lat="43.11645090323126" lon="-2.416927923958686"><ele>145.0</ele><time>2026-04-30T10:25:54.001Z</time></trkpt><trkpt lat="43.11654738542075" lon="-2.4168815919527633"><ele>145.0</ele><time>2026-04-30T10:25:55.001Z</time></trkpt><trkpt lat="43.11664454509374" lon="-2.4168360980045005"><ele>145.0</ele><time>2026-04-30T10:25:56.001Z</time></trkpt><trkpt lat="43.116739306398685" lon="-2.4167912593651053"><ele>145.0</ele><time>2026-04-30T10:25:57.001Z</time></trkpt><trkpt lat="43.116833122483484" lon="-2.4167438115217643"><ele>145.0</ele><time>2026-04-30T10:25:58.001Z</time></trkpt><trkpt lat="43.116922917592284" lon="-2.416698603882918"><ele>146.6</ele><time>2026-04-30T10:25:59.001Z</time></trkpt><trkpt lat="43.11701148840234" lon="-2.4166515439138925"><ele>148.2</ele><time>2026-04-30T10:26:00.001Z</time></trkpt><trkpt lat="43.117100299155055" lon="-2.416602701440934"><ele>149.8</ele><time>2026-04-30T10:26:01.001Z</time></trkpt><trkpt lat="43.11719005498977" lon="-2.4165550539751752"><ele>151.4</ele><time>2026-04-30T10:26:02.001Z</time></trkpt><trkpt lat="43.11728016414783" lon="-2.4165038681987627"><ele>153.0</ele><time>2026-04-30T10:26:03.001Z</time></trkpt><trkpt lat="43.117369012825996" lon="-2.4164565969476888"><ele>153.4</ele><time>2026-04-30T10:26:04.001Z</time></trkpt><trkpt lat="43.117460509919475" lon="-2.416405521688365"><ele>153.8</ele><time>2026-04-30T10:26:05.001Z</time></trkpt><trkpt lat="43.11755168970121" lon="-2.4163585929910365"><ele>154.2</ele><time>2026-04-30T10:26:06.001Z</time></trkpt><trkpt lat="43.11764206901395" lon="-2.4163133186413766"><ele>154.6</ele><time>2026-04-30T10:26:07.001Z</time></trkpt><trkpt lat="43.11773233537588" lon="-2.416271702534147"><ele>155.0</ele><time>2026-04-30T10:26:08.001Z</time></trkpt><trkpt lat="43.117823747002795" lon="-2.416238814059471"><ele>152.8</ele><time>2026-04-30T10:26:09.001Z</time></trkpt><trkpt lat="43.11791451315069" lon="-2.4162104746706405"><ele>150.6</ele><time>2026-04-30T10:26:10.001Z</time></trkpt><trkpt lat="43.118004979120094" lon="-2.416196969933193"><ele>148.4</ele><time>2026-04-30T10:26:11.001Z</time></trkpt><trkpt lat="43.11809762568952" lon="-2.416193979223678"><ele>146.2</ele><time>2026-04-30T10:26:12.001Z</time></trkpt><trkpt lat="43.11818983504922" lon="-2.416198205910701"><ele>144.0</ele><time>2026-04-30T10:26:13.001Z</time></trkpt><trkpt lat="43.11828079058708" lon="-2.416209958055567"><ele>144.0</ele><time>2026-04-30T10:26:14.001Z</time></trkpt><trkpt lat="43.118371240857805" lon="-2.4162319621830775"><ele>144.0</ele><time>2026-04-30T10:26:15.001Z</time></trkpt><trkpt lat="43.11845829606203" lon="-2.416267148352187"><ele>144.0</ele><time>2026-04-30T10:26:16.001Z</time></trkpt><trkpt lat="43.11854305753063" lon="-2.4163115112162172"><ele>144.0</ele><time>2026-04-30T10:26:17.001Z</time></trkpt><trkpt lat="43.11862544832695" lon="-2.416367834495619"><ele>144.0</ele><time>2026-04-30T10:26:18.001Z</time></trkpt><trkpt lat="43.118706338357555" lon="-2.4164309633250087"><ele>146.8</ele><time>2026-04-30T10:26:19.001Z</time></trkpt><trkpt lat="43.118783955003785" lon="-2.416502046365059"><ele>149.60000000000002</ele><time>2026-04-30T10:26:20.001Z</time></trkpt><trkpt lat="43.118856729037105" lon="-2.4165835486764276"><ele>152.4</ele><time>2026-04-30T10:26:21.001Z</time></trkpt><trkpt lat="43.11892250004898" lon="-2.4166752250923422"><ele>155.20000000000002</ele><time>2026-04-30T10:26:22.001Z</time></trkpt><trkpt lat="43.1189820948339" lon="-2.4167749822405296"><ele>158.0</ele><time>2026-04-30T10:26:23.001Z</time></trkpt><trkpt lat="43.11903549620777" lon="-2.416881663966103"><ele>155.6</ele><time>2026-04-30T10:26:24.001Z</time></trkpt><trkpt lat="43.11908518014844" lon="-2.416991804754408"><ele>153.20000000000002</ele><time>2026-04-30T10:26:25.001Z</time></trkpt><trkpt lat="43.11912835473586" lon="-2.417104893008566"><ele>150.8</ele><time>2026-04-30T10:26:26.001Z</time></trkpt><trkpt lat="43.11916319938126" lon="-2.417228144241401"><ele>148.4</ele><time>2026-04-30T10:26:27.001Z</time></trkpt><trkpt lat="43.11918884511914" lon="-2.4173550817822846"><ele>146.0</ele><time>2026-04-30T10:26:28.001Z</time></trkpt><trkpt lat="43.11920648953325" lon="-2.4174859501646284"><ele>145.8</ele><time>2026-04-30T10:26:29.001Z</time></trkpt><trkpt lat="43.11921765932372" lon="-2.417619257284785"><ele>145.6</ele><time>2026-04-30T10:26:30.002Z</time></trkpt><trkpt lat="43.119222197767655" lon="-2.4177522037626673"><ele>145.4</ele><time>2026-04-30T10:26:31.002Z</time></trkpt><trkpt lat="43.11921846776811" lon="-2.4178870766609286"><ele>145.2</ele><time>2026-04-30T10:26:32.002Z</time></trkpt><trkpt lat="43.11921041954479" lon="-2.418019395909828"><ele>145.0</ele><time>2026-04-30T10:26:33.002Z</time></trkpt><trkpt lat="43.11919293838255" lon="-2.4181568402495395"><ele>145.4</ele><time>2026-04-30T10:26:34.002Z</time></trkpt><trkpt lat="43.11917468629123" lon="-2.4182903333019676"><ele>145.8</ele><time>2026-04-30T10:26:35.002Z</time></trkpt><trkpt lat="43.11915493935865" lon="-2.418423822203622"><ele>146.2</ele><time>2026-04-30T10:26:36.002Z</time></trkpt><trkpt lat="43.11913701250721" lon="-2.4185582945616826"><ele>146.6</ele><time>2026-04-30T10:26:37.002Z</time></trkpt><trkpt lat="43.11911957844249" lon="-2.4186909380903723"><ele>147.0</ele><time>2026-04-30T10:26:38.002Z</time></trkpt><trkpt lat="43.119104478793574" lon="-2.418825777343337"><ele>147.79999999999998</ele><time>2026-04-30T10:26:39.002Z</time></trkpt><trkpt lat="43.11909343941552" lon="-2.4189609738961835"><ele>148.6</ele><time>2026-04-30T10:26:40.002Z</time></trkpt><trkpt lat="43.11908416877772" lon="-2.419097568151864"><ele>149.39999999999998</ele><time>2026-04-30T10:26:41.002Z</time></trkpt><trkpt lat="43.119078793257195" lon="-2.419235766439788"><ele>150.2</ele><time>2026-04-30T10:26:42.002Z</time></trkpt><trkpt lat="43.11908292025218" lon="-2.4193753338156903"><ele>151.0</ele><time>2026-04-30T10:26:43.002Z</time></trkpt><trkpt lat="43.11909241453978" lon="-2.419513211253861"><ele>151.0</ele><time>2026-04-30T10:26:44.002Z</time></trkpt><trkpt lat="43.119104325095236" lon="-2.419649661731669"><ele>151.0</ele><time>2026-04-30T10:26:44.999Z</time></trkpt><trkpt lat="43.11911895616096" lon="-2.419787315403258"><ele>151.0</ele><time>2026-04-30T10:26:45.999Z</time></trkpt><trkpt lat="43.119138184496016" lon="-2.4199225592887"><ele>151.0</ele><time>2026-04-30T10:26:46.999Z</time></trkpt><trkpt lat="43.119162317707655" lon="-2.420056333900461"><ele>151.0</ele><time>2026-04-30T10:26:47.999Z</time></trkpt><trkpt lat="43.1191886861076" lon="-2.4201861432246052"><ele>151.8</ele><time>2026-04-30T10:26:48.999Z</time></trkpt><trkpt lat="43.119218903850594" lon="-2.4203177768541666"><ele>152.6</ele><time>2026-04-30T10:26:49.999Z</time></trkpt><trkpt lat="43.1192514504762" lon="-2.4204461425907655"><ele>153.4</ele><time>2026-04-30T10:26:50.999Z</time></trkpt><trkpt lat="43.11928575056644" lon="-2.4205763895335455"><ele>154.2</ele><time>2026-04-30T10:26:51.999Z</time></trkpt><trkpt lat="43.119333286340954" lon="-2.420715336135663"><ele>155.0</ele><time>2026-04-30T10:26:52.999Z</time></trkpt><trkpt lat="43.11940021534655" lon="-2.420851204492347"><ele>156.4</ele><time>2026-04-30T10:26:53.999Z</time></trkpt><trkpt lat="43.119439861123716" lon="-2.4209782462883376"><ele>157.8</ele><time>2026-04-30T10:26:54.999Z</time></trkpt><trkpt lat="43.11948069911984" lon="-2.42110486977055"><ele>159.2</ele><time>2026-04-30T10:26:55.999Z</time></trkpt><trkpt lat="43.11949052260378" lon="-2.421242356362333"><ele>160.6</ele><time>2026-04-30T10:26:56.999Z</time></trkpt><trkpt lat="43.11952731122086" lon="-2.42137753789026"><ele>162.0</ele><time>2026-04-30T10:26:57.999Z</time></trkpt><trkpt lat="43.11955777796826" lon="-2.4215118584233064"><ele>163.0</ele><time>2026-04-30T10:26:58.999Z</time></trkpt><trkpt lat="43.11958270174142" lon="-2.42165161737425"><ele>164.0</ele><time>2026-04-30T10:26:59.999Z</time></trkpt><trkpt lat="43.11959909207995" lon="-2.4217954101518058"><ele>165.0</ele><time>2026-04-30T10:27:01Z</time></trkpt><trkpt lat="43.11960812233489" lon="-2.421936317341359"><ele>166.0</ele><time>2026-04-30T10:27:02Z</time></trkpt><trkpt lat="43.11960473967567" lon="-2.422083834153615"><ele>167.0</ele><time>2026-04-30T10:27:03Z</time></trkpt><trkpt lat="43.11959412747372" lon="-2.4222307900439572"><ele>167.0</ele><time>2026-04-30T10:27:04Z</time></trkpt><trkpt lat="43.11957200612447" lon="-2.4223726271774204"><ele>167.0</ele><time>2026-04-30T10:27:05Z</time></trkpt><trkpt lat="43.119550328406454" lon="-2.422514380278323"><ele>167.0</ele><time>2026-04-30T10:27:06Z</time></trkpt><trkpt lat="43.11952462754474" lon="-2.422660375591774"><ele>167.0</ele><time>2026-04-30T10:27:07Z</time></trkpt><trkpt lat="43.11950105867658" lon="-2.422807939485065"><ele>167.0</ele><time>2026-04-30T10:27:08Z</time></trkpt><trkpt lat="43.11947891922761" lon="-2.422946589646112"><ele>165.4</ele><time>2026-04-30T10:27:09Z</time></trkpt><trkpt lat="43.11945662307352" lon="-2.4230926924305725"><ele>163.79999999999998</ele><time>2026-04-30T10:27:10Z</time></trkpt><trkpt lat="43.119442074613474" lon="-2.42323889765394"><ele>162.2</ele><time>2026-04-30T10:27:11Z</time></trkpt><trkpt lat="43.1194392814855" lon="-2.423385158851249"><ele>160.6</ele><time>2026-04-30T10:27:12Z</time></trkpt><trkpt lat="43.119444715948674" lon="-2.4235373033268535"><ele>159.0</ele><time>2026-04-30T10:27:13Z</time></trkpt><trkpt lat="43.119463222472824" lon="-2.423687956032764"><ele>160.6</ele><time>2026-04-30T10:27:14Z</time></trkpt><trkpt lat="43.11949597818256" lon="-2.4238262684533423"><ele>162.2</ele><time>2026-04-30T10:27:15Z</time></trkpt><trkpt lat="43.1195400523057" lon="-2.423968352372367"><ele>163.79999999999998</ele><time>2026-04-30T10:27:16Z</time></trkpt><trkpt lat="43.11959382470183" lon="-2.4241047847031645"><ele>165.4</ele><time>2026-04-30T10:27:17Z</time></trkpt><trkpt lat="43.119655642936856" lon="-2.424236548936372"><ele>167.0</ele><time>2026-04-30T10:27:18Z</time></trkpt><trkpt lat="43.11973116673352" lon="-2.424357785615116"><ele>167.0</ele><time>2026-04-30T10:27:19Z</time></trkpt><trkpt lat="43.1198242070049" lon="-2.4244526404761975"><ele>167.0</ele><time>2026-04-30T10:27:20Z</time></trkpt><trkpt lat="43.11991862792504" lon="-2.424550124473034"><ele>167.0</ele><time>2026-04-30T10:27:21Z</time></trkpt><trkpt lat="43.12001618169329" lon="-2.424643396808727"><ele>167.0</ele><time>2026-04-30T10:27:22Z</time></trkpt><trkpt lat="43.12010235923816" lon="-2.4247298981703986"><ele>166.5</ele><time>2026-04-30T10:27:23Z</time></trkpt><trkpt lat="43.120193622470154" lon="-2.424833997111464"><ele>166.0</ele><time>2026-04-30T10:27:24Z</time></trkpt><trkpt lat="43.12028890788137" lon="-2.4249327594206376"><ele>165.5</ele><time>2026-04-30T10:27:25Z</time></trkpt><trkpt lat="43.12038243501313" lon="-2.4250345166430756"><ele>165.0</ele><time>2026-04-30T10:27:26Z</time></trkpt><trkpt lat="43.12047501161045" lon="-2.425139712461364"><ele>165.0</ele><time>2026-04-30T10:27:27Z</time></trkpt><trkpt lat="43.1205659313171" lon="-2.4252836361064243"><ele>165.0</ele><time>2026-04-30T10:27:28Z</time></trkpt><trkpt lat="43.12068460599325" lon="-2.425398808713939"><ele>165.0</ele><time>2026-04-30T10:27:29Z</time></trkpt><trkpt lat="43.12081549640663" lon="-2.4255516315406926"><ele>164.25</ele><time>2026-04-30T10:27:30Z</time></trkpt><trkpt lat="43.120943558178396" lon="-2.425617576568256"><ele>163.5</ele><time>2026-04-30T10:27:32Z</time></trkpt><trkpt lat="43.12104229859619" lon="-2.425709278856834"><ele>162.75</ele><time>2026-04-30T10:27:33Z</time></trkpt><trkpt lat="43.12115124356349" lon="-2.425782412612548"><ele>162.0</ele><time>2026-04-30T10:27:34Z</time></trkpt><trkpt lat="43.12125763159528" lon="-2.4258569231554623"><ele>162.0</ele><time>2026-04-30T10:27:35Z</time></trkpt><trkpt lat="43.12136197649877" lon="-2.4259338011312326"><ele>162.0</ele><time>2026-04-30T10:27:36Z</time></trkpt><trkpt lat="43.12147432069247" lon="-2.426000754048716"><ele>162.0</ele><time>2026-04-30T10:27:37.001Z</time></trkpt><trkpt lat="43.121585959180635" lon="-2.426062027796553"><ele>162.0</ele><time>2026-04-30T10:27:38.001Z</time></trkpt><trkpt lat="43.121696231179996" lon="-2.426117645281072"><ele>157.79999999999998</ele><time>2026-04-30T10:27:39.001Z</time></trkpt><trkpt lat="43.121807949277894" lon="-2.426157450258497"><ele>153.6</ele><time>2026-04-30T10:27:40.001Z</time></trkpt><trkpt lat="43.12191696832549" lon="-2.426190515294416"><ele>149.39999999999998</ele><time>2026-04-30T10:27:41.001Z</time></trkpt><trkpt lat="43.12202095267013" lon="-2.426225676797862"><ele>145.2</ele><time>2026-04-30T10:27:42.001Z</time></trkpt><trkpt lat="43.122124877937544" lon="-2.426258724919062"><ele>141.0</ele><time>2026-04-30T10:27:43.001Z</time></trkpt><trkpt lat="43.12222955212613" lon="-2.426286108569218"><ele>141.0</ele><time>2026-04-30T10:27:44.001Z</time></trkpt><trkpt lat="43.1223207351853" lon="-2.426310829469441"><ele>141.0</ele><time>2026-04-30T10:27:45.001Z</time></trkpt><trkpt lat="43.12240802987481" lon="-2.426334915090938"><ele>141.0</ele><time>2026-04-30T10:27:46.001Z</time></trkpt><trkpt lat="43.12249257420635" lon="-2.4263436994879752"><ele>141.0</ele><time>2026-04-30T10:27:47.001Z</time></trkpt><trkpt lat="43.12258131777707" lon="-2.4263514046612613"><ele>141.0</ele><time>2026-04-30T10:27:48.001Z</time></trkpt><trkpt lat="43.12266328422831" lon="-2.4263604851041003"><ele>141.0</ele><time>2026-04-30T10:27:49.001Z</time></trkpt><trkpt lat="43.12274238848049" lon="-2.4263640286515566"><ele>142.0</ele><time>2026-04-30T10:27:50.001Z</time></trkpt><trkpt lat="43.12282072401691" lon="-2.4263590220749496"><ele>143.0</ele><time>2026-04-30T10:27:51.001Z</time></trkpt><trkpt lat="43.122895908937075" lon="-2.4263383579128117"><ele>144.0</ele><time>2026-04-30T10:27:52.001Z</time></trkpt><trkpt lat="43.12296617268383" lon="-2.4262942674725347"><ele>145.0</ele><time>2026-04-30T10:27:53.001Z</time></trkpt><trkpt lat="43.123034616424796" lon="-2.426232046038453"><ele>146.0</ele><time>2026-04-30T10:27:54.001Z</time></trkpt><trkpt lat="43.12311771415486" lon="-2.426213420281408"><ele>147.0</ele><time>2026-04-30T10:27:55.001Z</time></trkpt><trkpt lat="43.1232038788553" lon="-2.4262368813657846"><ele>145.0</ele><time>2026-04-30T10:27:56.001Z</time></trkpt><trkpt lat="43.123336492425246" lon="-2.426396810017172"><ele>143.0</ele><time>2026-04-30T10:27:58.001Z</time></trkpt><trkpt lat="43.12344877170134" lon="-2.426408392794261"><ele>141.0</ele><time>2026-04-30T10:27:59.001Z</time></trkpt><trkpt lat="43.12353585568562" lon="-2.4264343060659535"><ele>139.0</ele><time>2026-04-30T10:28:00.001Z</time></trkpt><trkpt lat="43.12362509866866" lon="-2.4264371127131272"><ele>139.0</ele><time>2026-04-30T10:28:01.001Z</time></trkpt><trkpt lat="43.12371499122019" lon="-2.4264216024990173"><ele>139.0</ele><time>2026-04-30T10:28:02.001Z</time></trkpt><trkpt lat="43.12380510355557" lon="-2.4264072325052264"><ele>139.0</ele><time>2026-04-30T10:28:03.001Z</time></trkpt><trkpt lat="43.12389275821965" lon="-2.426402554076802"><ele>139.0</ele><time>2026-04-30T10:28:04.001Z</time></trkpt><trkpt lat="43.123982201103246" lon="-2.4263994608611066"><ele>139.0</ele><time>2026-04-30T10:28:05.001Z</time></trkpt><trkpt lat="43.12406998070189" lon="-2.4263919720456495"><ele>139.0</ele><time>2026-04-30T10:28:06.001Z</time></trkpt><trkpt lat="43.12416004521123" lon="-2.4263802941704333"><ele>138.33333333333334</ele><time>2026-04-30T10:28:07.001Z</time></trkpt><trkpt lat="43.124247083317364" lon="-2.4263679627155796"><ele>137.66666666666669</ele><time>2026-04-30T10:28:08.001Z</time></trkpt><trkpt lat="43.12433415492973" lon="-2.426350597943728"><ele>137.0</ele><time>2026-04-30T10:28:09.001Z</time></trkpt><trkpt lat="43.12442253033379" lon="-2.426335379716158"><ele>136.33333333333334</ele><time>2026-04-30T10:28:10.001Z</time></trkpt><trkpt lat="43.12451480554566" lon="-2.426321655478858"><ele>135.66666666666666</ele><time>2026-04-30T10:28:11.001Z</time></trkpt><trkpt lat="43.12460475040002" lon="-2.4263061793534066"><ele>135.0</ele><time>2026-04-30T10:28:12.001Z</time></trkpt><trkpt lat="43.1246956826939" lon="-2.4262933225321865"><ele>135.0</ele><time>2026-04-30T10:28:13.001Z</time></trkpt><trkpt lat="43.12478891611052" lon="-2.4262754400956665"><ele>135.0</ele><time>2026-04-30T10:28:14.001Z</time></trkpt><trkpt lat="43.12488146373603" lon="-2.4262572893906516"><ele>135.0</ele><time>2026-04-30T10:28:15.001Z</time></trkpt><trkpt lat="43.1249765795663" lon="-2.4262334838155453"><ele>135.0</ele><time>2026-04-30T10:28:16.001Z</time></trkpt><trkpt lat="43.12506710566542" lon="-2.426214019305991"><ele>135.0</ele><time>2026-04-30T10:28:17.001Z</time></trkpt><trkpt lat="43.12515808785347" lon="-2.4261917497868075"><ele>135.4</ele><time>2026-04-30T10:28:18.001Z</time></trkpt><trkpt lat="43.12524957148688" lon="-2.4261642843299747"><ele>135.8</ele><time>2026-04-30T10:28:19.001Z</time></trkpt><trkpt lat="43.12534178207897" lon="-2.426132904970748"><ele>136.2</ele><time>2026-04-30T10:28:20.001Z</time></trkpt><trkpt lat="43.12543291305578" lon="-2.426105276613505"><ele>136.6</ele><time>2026-04-30T10:28:21.001Z</time></trkpt><trkpt lat="43.12552489665956" lon="-2.4260787929259333"><ele>137.0</ele><time>2026-04-30T10:28:22.001Z</time></trkpt><trkpt lat="43.12561643714512" lon="-2.426047851487122"><ele>137.0</ele><time>2026-04-30T10:28:23.001Z</time></trkpt><trkpt lat="43.12570868318365" lon="-2.426016173905003"><ele>137.0</ele><time>2026-04-30T10:28:24.002Z</time></trkpt><trkpt lat="43.125800185558624" lon="-2.425980431919681"><ele>137.0</ele><time>2026-04-30T10:28:25.002Z</time></trkpt><trkpt lat="43.12589313138048" lon="-2.425939398381385"><ele>137.0</ele><time>2026-04-30T10:28:26.002Z</time></trkpt><trkpt lat="43.12597398676147" lon="-2.4258962605846044"><ele>137.0</ele><time>2026-04-30T10:28:27.002Z</time></trkpt><trkpt lat="43.1260753442957" lon="-2.4258602695128175"><ele>137.4</ele><time>2026-04-30T10:28:28.002Z</time></trkpt><trkpt lat="43.126168700019825" lon="-2.4258077369230295"><ele>137.79999999999998</ele><time>2026-04-30T10:28:29.002Z</time></trkpt><trkpt lat="43.126253524881164" lon="-2.4257843371706316"><ele>138.2</ele><time>2026-04-30T10:28:30.002Z</time></trkpt><trkpt lat="43.1263538808499" lon="-2.4257307181960805"><ele>138.6</ele><time>2026-04-30T10:28:31.002Z</time></trkpt><trkpt lat="43.126447418507965" lon="-2.4256785312181384"><ele>139.0</ele><time>2026-04-30T10:28:32.002Z</time></trkpt><trkpt lat="43.126539606934756" lon="-2.425629925548449"><ele>139.6</ele><time>2026-04-30T10:28:33.002Z</time></trkpt><trkpt lat="43.12663046112902" lon="-2.4255751834996704"><ele>140.2</ele><time>2026-04-30T10:28:34.002Z</time></trkpt><trkpt lat="43.126719535688856" lon="-2.425524226616583"><ele>140.79999999999998</ele><time>2026-04-30T10:28:35.002Z</time></trkpt><trkpt lat="43.12681038779119" lon="-2.4254730213981497"><ele>141.4</ele><time>2026-04-30T10:28:36.002Z</time></trkpt><trkpt lat="43.12689463912574" lon="-2.425415812322133"><ele>142.0</ele><time>2026-04-30T10:28:37.002Z</time></trkpt><trkpt lat="43.126978983247746" lon="-2.4253587929470304"><ele>141.66666666666669</ele><time>2026-04-30T10:28:38.002Z</time></trkpt><trkpt lat="43.12706227245853" lon="-2.4253001978812816"><ele>141.33333333333334</ele><time>2026-04-30T10:28:39.002Z</time></trkpt><trkpt lat="43.12713848929716" lon="-2.4252461040830173"><ele>141.0</ele><time>2026-04-30T10:28:40.002Z</time></trkpt><trkpt lat="43.127214335955706" lon="-2.425189234743675"><ele>140.66666666666666</ele><time>2026-04-30T10:28:41.002Z</time></trkpt><trkpt lat="43.127287069670125" lon="-2.4251329077377557"><ele>140.33333333333331</ele><time>2026-04-30T10:28:42.002Z</time></trkpt><trkpt lat="43.1273550306619" lon="-2.425085011598883"><ele>140.0</ele><time>2026-04-30T10:28:43.002Z</time></trkpt><trkpt lat="43.127416631227284" lon="-2.4250365378694987"><ele>140.0</ele><time>2026-04-30T10:28:44.002Z</time></trkpt><trkpt lat="43.12747252732899" lon="-2.4249886691283415"><ele>140.0</ele><time>2026-04-30T10:28:45.002Z</time></trkpt><trkpt lat="43.12757015444354" lon="-2.4249068486308105"><ele>140.0</ele><time>2026-04-30T10:28:47.002Z</time></trkpt><trkpt lat="43.12764408240594" lon="-2.424846169919112"><ele>140.0</ele><time>2026-04-30T10:28:49.002Z</time></trkpt><trkpt lat="43.127700825119916" lon="-2.4248059208817847"><ele>140.0</ele><time>2026-04-30T10:28:51Z</time></trkpt><trkpt lat="43.12771236954226" lon="-2.4249429187344815"><ele>140.0</ele><time>2026-04-30T10:29:06Z</time></trkpt><trkpt lat="43.12764946427272" lon="-2.4250104196035926"><ele>140.0</ele><time>2026-04-30T10:29:07Z</time></trkpt><trkpt lat="43.127598945495" lon="-2.4250902434733046"><ele>140.0</ele><time>2026-04-30T10:29:08Z</time></trkpt><trkpt lat="43.127540503624815" lon="-2.4251511485094586"><ele>140.0</ele><time>2026-04-30T10:29:09Z</time></trkpt><trkpt lat="43.12748291016732" lon="-2.4252236758931764"><ele>140.0</ele><time>2026-04-30T10:29:10Z</time></trkpt><trkpt lat="43.12742452804306" lon="-2.425302250483383"><ele>140.0</ele><time>2026-04-30T10:29:11Z</time></trkpt><trkpt lat="43.12736951656252" lon="-2.425382568883942"><ele>140.0</ele><time>2026-04-30T10:29:12Z</time></trkpt><trkpt lat="43.127328136597434" lon="-2.425482564925857"><ele>140.33333333333331</ele><time>2026-04-30T10:29:13Z</time></trkpt><trkpt lat="43.12731307202985" lon="-2.4255959164610683"><ele>140.66666666666666</ele><time>2026-04-30T10:29:14Z</time></trkpt><trkpt lat="43.127330613007764" lon="-2.425717122913853"><ele>141.0</ele><time>2026-04-30T10:29:15Z</time></trkpt><trkpt lat="43.127367738582954" lon="-2.4258305554281594"><ele>141.33333333333334</ele><time>2026-04-30T10:29:16Z</time></trkpt><trkpt lat="43.1274133144303" lon="-2.425938367300763"><ele>141.66666666666669</ele><time>2026-04-30T10:29:17Z</time></trkpt><trkpt lat="43.127461771504514" lon="-2.4260417968547845"><ele>142.0</ele><time>2026-04-30T10:29:18Z</time></trkpt><trkpt lat="43.1275072386775" lon="-2.42615052935665"><ele>142.83333333333334</ele><time>2026-04-30T10:29:19Z</time></trkpt><trkpt lat="43.12754751477059" lon="-2.4262559984856678"><ele>143.66666666666669</ele><time>2026-04-30T10:29:20Z</time></trkpt><trkpt lat="43.12757713283031" lon="-2.426364834671169"><ele>144.5</ele><time>2026-04-30T10:29:21Z</time></trkpt><trkpt lat="43.127609483696105" lon="-2.4264727119800797"><ele>145.33333333333334</ele><time>2026-04-30T10:29:22Z</time></trkpt><trkpt lat="43.1275962237412" lon="-2.426583031152984"><ele>146.16666666666666</ele><time>2026-04-30T10:29:23Z</time></trkpt><trkpt lat="43.12762983795461" lon="-2.4266914190723794"><ele>147.0</ele><time>2026-04-30T10:29:24Z</time></trkpt><trkpt lat="43.127615069672146" lon="-2.426800636162985"><ele>147.33333333333334</ele><time>2026-04-30T10:29:25Z</time></trkpt><trkpt lat="43.12758137434339" lon="-2.426905439524925"><ele>147.66666666666666</ele><time>2026-04-30T10:29:26Z</time></trkpt><trkpt lat="43.12753101714974" lon="-2.426999309471453"><ele>148.0</ele><time>2026-04-30T10:29:27Z</time></trkpt><trkpt lat="43.12747577893884" lon="-2.4270844332553256"><ele>148.33333333333331</ele><time>2026-04-30T10:29:28Z</time></trkpt><trkpt lat="43.12741549142398" lon="-2.427164058969376"><ele>148.66666666666666</ele><time>2026-04-30T10:29:29Z</time></trkpt><trkpt lat="43.12734930764365" lon="-2.427232342084269"><ele>149.0</ele><time>2026-04-30T10:29:30.001Z</time></trkpt><trkpt lat="43.1272800082684" lon="-2.4273007422736494"><ele>150.5</ele><time>2026-04-30T10:29:31.001Z</time></trkpt><trkpt lat="43.127208993869054" lon="-2.4273657605200736"><ele>152.0</ele><time>2026-04-30T10:29:32.001Z</time></trkpt><trkpt lat="43.12714510562968" lon="-2.427439586772147"><ele>153.5</ele><time>2026-04-30T10:29:33.001Z</time></trkpt><trkpt lat="43.1270836267229" lon="-2.427523304852256"><ele>155.0</ele><time>2026-04-30T10:29:34.001Z</time></trkpt><trkpt lat="43.12703353952414" lon="-2.427622436091379"><ele>156.5</ele><time>2026-04-30T10:29:35.001Z</time></trkpt><trkpt lat="43.126989507532635" lon="-2.427724899409363"><ele>158.0</ele><time>2026-04-30T10:29:36.001Z</time></trkpt><trkpt lat="43.126954604369594" lon="-2.42783379200714"><ele>158.0</ele><time>2026-04-30T10:29:37.001Z</time></trkpt><trkpt lat="43.12692126218379" lon="-2.427939921705458"><ele>158.0</ele><time>2026-04-30T10:29:38.001Z</time></trkpt><trkpt lat="43.12688252590107" lon="-2.4280442484112763"><ele>158.0</ele><time>2026-04-30T10:29:39.001Z</time></trkpt><trkpt lat="43.12684787389086" lon="-2.428148730315853"><ele>158.0</ele><time>2026-04-30T10:29:40.001Z</time></trkpt><trkpt lat="43.12682570745311" lon="-2.42825727191811"><ele>158.0</ele><time>2026-04-30T10:29:41.001Z</time></trkpt><trkpt lat="43.12681285658972" lon="-2.4283671836216945"><ele>158.0</ele><time>2026-04-30T10:29:42.001Z</time></trkpt><trkpt lat="43.12682577121017" lon="-2.4284920792961078"><ele>157.8</ele><time>2026-04-30T10:29:43.001Z</time></trkpt><trkpt lat="43.12684560144785" lon="-2.42860323238123"><ele>157.60000000000002</ele><time>2026-04-30T10:29:44.001Z</time></trkpt><trkpt lat="43.12687082375675" lon="-2.428721389414525"><ele>157.39999999999998</ele><time>2026-04-30T10:29:45.001Z</time></trkpt><trkpt lat="43.126901824991364" lon="-2.4288330427391855"><ele>157.2</ele><time>2026-04-30T10:29:46.001Z</time></trkpt><trkpt lat="43.12691873309539" lon="-2.4289222447648564"><ele>157.0</ele><time>2026-04-30T10:29:47.001Z</time></trkpt><trkpt lat="43.1269792718146" lon="-2.4291814650853123"><ele>156.79999999999998</ele><time>2026-04-30T10:29:49.001Z</time></trkpt><trkpt lat="43.12702072462261" lon="-2.429293311490565"><ele>156.6</ele><time>2026-04-30T10:29:50.001Z</time></trkpt><trkpt lat="43.127057258686186" lon="-2.4294097038873463"><ele>156.39999999999998</ele><time>2026-04-30T10:29:51.001Z</time></trkpt><trkpt lat="43.12709668728709" lon="-2.4295259815905204"><ele>156.2</ele><time>2026-04-30T10:29:52.001Z</time></trkpt><trkpt lat="43.12713449069916" lon="-2.429646478433798"><ele>156.0</ele><time>2026-04-30T10:29:53.001Z</time></trkpt><trkpt lat="43.12717133637605" lon="-2.4297632067717494"><ele>156.0</ele><time>2026-04-30T10:29:54.001Z</time></trkpt><trkpt lat="43.1272061113275" lon="-2.4298795346523456"><ele>156.0</ele><time>2026-04-30T10:29:55.001Z</time></trkpt><trkpt lat="43.12724097998505" lon="-2.429999533011036"><ele>156.0</ele><time>2026-04-30T10:29:56.001Z</time></trkpt><trkpt lat="43.12726271781626" lon="-2.430124990967854"><ele>156.0</ele><time>2026-04-30T10:29:57.001Z</time></trkpt><trkpt lat="43.12727141893012" lon="-2.430251911358421"><ele>156.0</ele><time>2026-04-30T10:29:58.001Z</time></trkpt><trkpt lat="43.127248665802355" lon="-2.430377477216266"><ele>156.0</ele><time>2026-04-30T10:29:59.001Z</time></trkpt><trkpt lat="43.12720764174007" lon="-2.4304958262059024"><ele>156.0</ele><time>2026-04-30T10:30:00.001Z</time></trkpt><trkpt lat="43.12714899732337" lon="-2.430602221318388"><ele>156.0</ele><time>2026-04-30T10:30:01.001Z</time></trkpt><trkpt lat="43.12707752670843" lon="-2.430696747856872"><ele>156.0</ele><time>2026-04-30T10:30:02.001Z</time></trkpt><trkpt lat="43.12700308996351" lon="-2.4307924126561864"><ele>156.0</ele><time>2026-04-30T10:30:03.001Z</time></trkpt><trkpt lat="43.126929563979516" lon="-2.430888612472563"><ele>156.0</ele><time>2026-04-30T10:30:04.001Z</time></trkpt><trkpt lat="43.126858036111116" lon="-2.4309807988602734"><ele>156.0</ele><time>2026-04-30T10:30:05.001Z</time></trkpt><trkpt lat="43.12679037400102" lon="-2.431071707965185"><ele>156.0</ele><time>2026-04-30T10:30:06.001Z</time></trkpt><trkpt lat="43.12672393583578" lon="-2.431160463724451"><ele>156.0</ele><time>2026-04-30T10:30:07.001Z</time></trkpt><trkpt lat="43.12665924744121" lon="-2.4312445582289515"><ele>156.0</ele><time>2026-04-30T10:30:08.001Z</time></trkpt><trkpt lat="43.126600886934874" lon="-2.4313272589763963"><ele>159.5</ele><time>2026-04-30T10:30:09.001Z</time></trkpt><trkpt lat="43.12654376571473" lon="-2.4314057158832787"><ele>163.0</ele><time>2026-04-30T10:30:10.001Z</time></trkpt><trkpt lat="43.126495392411634" lon="-2.43148572927958"><ele>166.5</ele><time>2026-04-30T10:30:11.001Z</time></trkpt><trkpt lat="43.12646907695251" lon="-2.4315844139416893"><ele>170.0</ele><time>2026-04-30T10:30:12.001Z</time></trkpt><trkpt lat="43.12649384895281" lon="-2.4316924200906236"><ele>173.5</ele><time>2026-04-30T10:30:13.001Z</time></trkpt><trkpt lat="43.12652720811274" lon="-2.431786441054581"><ele>177.0</ele><time>2026-04-30T10:30:14.001Z</time></trkpt><trkpt lat="43.12655522673023" lon="-2.4318816938837555"><ele>174.33333333333334</ele><time>2026-04-30T10:30:15.001Z</time></trkpt><trkpt lat="43.126603643932526" lon="-2.43196048479086"><ele>171.66666666666666</ele><time>2026-04-30T10:30:16.001Z</time></trkpt><trkpt lat="43.12665657415397" lon="-2.4320434284555814"><ele>169.0</ele><time>2026-04-30T10:30:17.002Z</time></trkpt><trkpt lat="43.126714378358464" lon="-2.432124047119484"><ele>166.33333333333331</ele><time>2026-04-30T10:30:18.002Z</time></trkpt><trkpt lat="43.126776883112555" lon="-2.4322048644814402"><ele>163.66666666666666</ele><time>2026-04-30T10:30:19.002Z</time></trkpt><trkpt lat="43.12683591822071" lon="-2.432281193661064"><ele>161.0</ele><time>2026-04-30T10:30:20.002Z</time></trkpt><trkpt lat="43.126897806832105" lon="-2.4323604051508734"><ele>161.0</ele><time>2026-04-30T10:30:21.002Z</time></trkpt><trkpt lat="43.12696360320459" lon="-2.4324353233073186"><ele>161.0</ele><time>2026-04-30T10:30:22.002Z</time></trkpt><trkpt lat="43.12703055476328" lon="-2.432514851545679"><ele>161.0</ele><time>2026-04-30T10:30:23.002Z</time></trkpt><trkpt lat="43.12709278820526" lon="-2.4325863680038213"><ele>161.0</ele><time>2026-04-30T10:30:24.002Z</time></trkpt><trkpt lat="43.12720777893992" lon="-2.4326357820706037"><ele>161.0</ele><time>2026-04-30T10:30:25.002Z</time></trkpt><trkpt lat="43.12731533940296" lon="-2.432695658614638"><ele>162.20000000000002</ele><time>2026-04-30T10:30:26.002Z</time></trkpt><trkpt lat="43.127421482566675" lon="-2.432812379023008"><ele>163.4</ele><time>2026-04-30T10:30:28.002Z</time></trkpt><trkpt lat="43.127518461510896" lon="-2.4328413880274615"><ele>164.6</ele><time>2026-04-30T10:30:29.002Z</time></trkpt><trkpt lat="43.12761132736183" lon="-2.432878570177199"><ele>165.8</ele><time>2026-04-30T10:30:30.002Z</time></trkpt><trkpt lat="43.12771500065903" lon="-2.432913010634993"><ele>167.0</ele><time>2026-04-30T10:30:31.002Z</time></trkpt><trkpt lat="43.12781597360727" lon="-2.4329530796168153"><ele>165.8</ele><time>2026-04-30T10:30:32.002Z</time></trkpt><trkpt lat="43.12792228102507" lon="-2.4329966152569757"><ele>164.6</ele><time>2026-04-30T10:30:33.002Z</time></trkpt><trkpt lat="43.12803365721209" lon="-2.4330281235742537"><ele>163.4</ele><time>2026-04-30T10:30:34.002Z</time></trkpt><trkpt lat="43.128137829805176" lon="-2.433051186446847"><ele>162.20000000000002</ele><time>2026-04-30T10:30:35.002Z</time></trkpt><trkpt lat="43.1282428991945" lon="-2.43306913660262"><ele>161.0</ele><time>2026-04-30T10:30:36.002Z</time></trkpt><trkpt lat="43.12835188892952" lon="-2.433087049615403"><ele>161.0</ele><time>2026-04-30T10:30:37.002Z</time></trkpt><trkpt lat="43.12846115393616" lon="-2.4331005138055186"><ele>161.0</ele><time>2026-04-30T10:30:38.002Z</time></trkpt><trkpt lat="43.12857070951051" lon="-2.433119088177697"><ele>161.0</ele><time>2026-04-30T10:30:39.002Z</time></trkpt><trkpt lat="43.12867892836332" lon="-2.433152530537704"><ele>161.0</ele><time>2026-04-30T10:30:40.002Z</time></trkpt><trkpt lat="43.12878068829485" lon="-2.4332086122194285"><ele>161.0</ele><time>2026-04-30T10:30:41.002Z</time></trkpt><trkpt lat="43.128860886836534" lon="-2.4333049218113008"><ele>161.0</ele><time>2026-04-30T10:30:42.002Z</time></trkpt><trkpt lat="43.12892485726425" lon="-2.4334250253238"><ele>161.0</ele><time>2026-04-30T10:30:43.002Z</time></trkpt><trkpt lat="43.12896839595494" lon="-2.433563653532402"><ele>161.0</ele><time>2026-04-30T10:30:44.002Z</time></trkpt><trkpt lat="43.12899518969833" lon="-2.4337159116354212"><ele>161.0</ele><time>2026-04-30T10:30:45.002Z</time></trkpt><trkpt lat="43.12902219094008" lon="-2.433862889719691"><ele>161.0</ele><time>2026-04-30T10:30:46.002Z</time></trkpt><trkpt lat="43.12904675746008" lon="-2.434011252009178"><ele>161.20000000000002</ele><time>2026-04-30T10:30:47.002Z</time></trkpt><trkpt lat="43.12907171137189" lon="-2.434154643871559"><ele>161.4</ele><time>2026-04-30T10:30:48.002Z</time></trkpt><trkpt lat="43.12910472901864" lon="-2.434299580814434"><ele>161.6</ele><time>2026-04-30T10:30:49.002Z</time></trkpt><trkpt lat="43.12913803518103" lon="-2.4344425098141276"><ele>161.8</ele><time>2026-04-30T10:30:50.002Z</time></trkpt><trkpt lat="43.129170638945155" lon="-2.434585165048504"><ele>162.0</ele><time>2026-04-30T10:30:51.002Z</time></trkpt><trkpt lat="43.12921415658593" lon="-2.434720707912417"><ele>162.6</ele><time>2026-04-30T10:30:52.002Z</time></trkpt><trkpt lat="43.12925896838496" lon="-2.4348548241174583"><ele>163.2</ele><time>2026-04-30T10:30:53.002Z</time></trkpt><trkpt lat="43.12930426295389" lon="-2.434996693698305"><ele>163.8</ele><time>2026-04-30T10:30:54.002Z</time></trkpt><trkpt lat="43.12934938079274" lon="-2.435138126369882"><ele>164.4</ele><time>2026-04-30T10:30:55.002Z</time></trkpt><trkpt lat="43.12939454636461" lon="-2.4352734781915415"><ele>165.0</ele><time>2026-04-30T10:30:56.002Z</time></trkpt><trkpt lat="43.12943239684775" lon="-2.4354087598726575"><ele>165.2</ele><time>2026-04-30T10:30:57Z</time></trkpt><trkpt lat="43.12947773886274" lon="-2.43555108435833"><ele>165.4</ele><time>2026-04-30T10:30:58Z</time></trkpt><trkpt lat="43.129520174680486" lon="-2.4356900159553887"><ele>165.60000000000002</ele><time>2026-04-30T10:30:59Z</time></trkpt><trkpt lat="43.12956166747561" lon="-2.435824915730563"><ele>165.8</ele><time>2026-04-30T10:31:00Z</time></trkpt><trkpt lat="43.1296034568479" lon="-2.435967028198678"><ele>166.0</ele><time>2026-04-30T10:31:01Z</time></trkpt><trkpt lat="43.12964411204977" lon="-2.4360943774134034"><ele>166.0</ele><time>2026-04-30T10:31:02Z</time></trkpt><trkpt lat="43.12967933691444" lon="-2.436220298932867"><ele>166.0</ele><time>2026-04-30T10:31:03Z</time></trkpt><trkpt lat="43.12972381569583" lon="-2.4363421597535706"><ele>166.0</ele><time>2026-04-30T10:31:04Z</time></trkpt><trkpt lat="43.12976499630031" lon="-2.4364695794372557"><ele>166.0</ele><time>2026-04-30T10:31:05Z</time></trkpt><trkpt lat="43.12980692661235" lon="-2.436587277738581"><ele>166.0</ele><time>2026-04-30T10:31:06Z</time></trkpt><trkpt lat="43.12984797087284" lon="-2.4367074140831466"><ele>166.5</ele><time>2026-04-30T10:31:07Z</time></trkpt><trkpt lat="43.12988168526217" lon="-2.436826905645394"><ele>167.0</ele><time>2026-04-30T10:31:08Z</time></trkpt><trkpt lat="43.12992342638195" lon="-2.43699866176078"><ele>167.5</ele><time>2026-04-30T10:31:10Z</time></trkpt><trkpt lat="43.1300176474106" lon="-2.4372220311557076"><ele>168.0</ele><time>2026-04-30T10:31:11Z</time></trkpt><trkpt lat="43.13005888299593" lon="-2.4373474223105007"><ele>169.0</ele><time>2026-04-30T10:31:12Z</time></trkpt><trkpt lat="43.13010100408174" lon="-2.437475144467605"><ele>170.0</ele><time>2026-04-30T10:31:13Z</time></trkpt><trkpt lat="43.13014489055672" lon="-2.4376020034509267"><ele>171.0</ele><time>2026-04-30T10:31:14Z</time></trkpt><trkpt lat="43.13018660847743" lon="-2.4377329028875043"><ele>172.0</ele><time>2026-04-30T10:31:15Z</time></trkpt><trkpt lat="43.130229812775774" lon="-2.4378618294017547"><ele>173.0</ele><time>2026-04-30T10:31:16Z</time></trkpt><trkpt lat="43.13027281071401" lon="-2.4379891146516703"><ele>173.8</ele><time>2026-04-30T10:31:17Z</time></trkpt><trkpt lat="43.13031659768995" lon="-2.4381211001985967"><ele>174.60000000000002</ele><time>2026-04-30T10:31:18Z</time></trkpt><trkpt lat="43.1303585912308" lon="-2.4382464494814102"><ele>175.39999999999998</ele><time>2026-04-30T10:31:19Z</time></trkpt><trkpt lat="43.13040409599118" lon="-2.43837533439029"><ele>176.2</ele><time>2026-04-30T10:31:20Z</time></trkpt><trkpt lat="43.13044953425245" lon="-2.438504499670156"><ele>177.0</ele><time>2026-04-30T10:31:21Z</time></trkpt><trkpt lat="43.130493260319284" lon="-2.438635375658356"><ele>177.0</ele><time>2026-04-30T10:31:22Z</time></trkpt><trkpt lat="43.13053344913012" lon="-2.438764605069253"><ele>177.0</ele><time>2026-04-30T10:31:23Z</time></trkpt><trkpt lat="43.13057441539787" lon="-2.4388988601998047"><ele>177.0</ele><time>2026-04-30T10:31:24Z</time></trkpt><trkpt lat="43.13061460364045" lon="-2.4390260686764647"><ele>177.0</ele><time>2026-04-30T10:31:25Z</time></trkpt><trkpt lat="43.13065305833244" lon="-2.439144496045205"><ele>177.0</ele><time>2026-04-30T10:31:26Z</time></trkpt><trkpt lat="43.13069169274682" lon="-2.4392614797619188"><ele>176.16666666666666</ele><time>2026-04-30T10:31:27Z</time></trkpt><trkpt lat="43.13073079368236" lon="-2.4393778476310617"><ele>175.33333333333334</ele><time>2026-04-30T10:31:28Z</time></trkpt><trkpt lat="43.130765860161326" lon="-2.4394930733478812"><ele>174.5</ele><time>2026-04-30T10:31:29Z</time></trkpt><trkpt lat="43.13080516218734" lon="-2.439600813931317"><ele>173.66666666666669</ele><time>2026-04-30T10:31:30Z</time></trkpt><trkpt lat="43.13086024385786" lon="-2.4396894946132432"><ele>172.83333333333334</ele><time>2026-04-30T10:31:31Z</time></trkpt><trkpt lat="43.130924667926706" lon="-2.4397704273065663"><ele>172.0</ele><time>2026-04-30T10:31:32Z</time></trkpt><trkpt lat="43.13097546434907" lon="-2.439865782692948"><ele>172.0</ele><time>2026-04-30T10:31:33Z</time></trkpt><trkpt lat="43.13098623761962" lon="-2.439984169542137"><ele>172.0</ele><time>2026-04-30T10:31:34Z</time></trkpt><trkpt lat="43.13098896182304" lon="-2.4401134383252683"><ele>172.0</ele><time>2026-04-30T10:31:35.001Z</time></trkpt><trkpt lat="43.131008796809404" lon="-2.440255785538216"><ele>172.0</ele><time>2026-04-30T10:31:36.001Z</time></trkpt><trkpt lat="43.131049441194996" lon="-2.440381577497811"><ele>172.0</ele><time>2026-04-30T10:31:37.001Z</time></trkpt><trkpt lat="43.13109954721987" lon="-2.44049791130862"><ele>172.6</ele><time>2026-04-30T10:31:38.001Z</time></trkpt><trkpt lat="43.131141495352935" lon="-2.4406188294319255"><ele>173.2</ele><time>2026-04-30T10:31:39.001Z</time></trkpt><trkpt lat="43.13118319162918" lon="-2.440742482017312"><ele>173.8</ele><time>2026-04-30T10:31:40.001Z</time></trkpt><trkpt lat="43.13122383855495" lon="-2.440868793394455"><ele>174.4</ele><time>2026-04-30T10:31:41.001Z</time></trkpt><trkpt lat="43.13126460939577" lon="-2.4409918085315514"><ele>175.0</ele><time>2026-04-30T10:31:42.001Z</time></trkpt><trkpt lat="43.131303324813125" lon="-2.4411175033272543"><ele>175.0</ele><time>2026-04-30T10:31:43.001Z</time></trkpt><trkpt lat="43.13134245650799" lon="-2.4412426133228733"><ele>175.0</ele><time>2026-04-30T10:31:44.001Z</time></trkpt><trkpt lat="43.131383747776376" lon="-2.4413655559890897"><ele>175.0</ele><time>2026-04-30T10:31:45.001Z</time></trkpt><trkpt lat="43.13142505768876" lon="-2.44149142211167"><ele>175.0</ele><time>2026-04-30T10:31:46.001Z</time></trkpt><trkpt lat="43.131468614760394" lon="-2.441611231799581"><ele>175.0</ele><time>2026-04-30T10:31:47.001Z</time></trkpt><trkpt lat="43.13150808193411" lon="-2.4417346433773943"><ele>174.8</ele><time>2026-04-30T10:31:48.001Z</time></trkpt><trkpt lat="43.13154826019564" lon="-2.441857368676802"><ele>174.6</ele><time>2026-04-30T10:31:49.001Z</time></trkpt><trkpt lat="43.13158865954954" lon="-2.4419810417714816"><ele>174.39999999999998</ele><time>2026-04-30T10:31:50.001Z</time></trkpt><trkpt lat="43.13162704172369" lon="-2.4421060884491608"><ele>174.2</ele><time>2026-04-30T10:31:51.001Z</time></trkpt><trkpt lat="43.13166696196175" lon="-2.4422266247301367"><ele>174.0</ele><time>2026-04-30T10:31:52.001Z</time></trkpt><trkpt lat="43.13170613950311" lon="-2.442349581393195"><ele>174.0</ele><time>2026-04-30T10:31:53.001Z</time></trkpt><trkpt lat="43.13174404023479" lon="-2.4424746473420575"><ele>174.0</ele><time>2026-04-30T10:31:54.001Z</time></trkpt><trkpt lat="43.13178394483001" lon="-2.442599625560745"><ele>174.0</ele><time>2026-04-30T10:31:55.001Z</time></trkpt><trkpt lat="43.13182708328011" lon="-2.44271990995667"><ele>174.0</ele><time>2026-04-30T10:31:56.001Z</time></trkpt><trkpt lat="43.131864093298034" lon="-2.44284324020519"><ele>174.0</ele><time>2026-04-30T10:31:57.001Z</time></trkpt><trkpt lat="43.13190697200937" lon="-2.442967840417888"><ele>174.2</ele><time>2026-04-30T10:31:58.001Z</time></trkpt><trkpt lat="43.13194566272192" lon="-2.443094719229459"><ele>174.39999999999998</ele><time>2026-04-30T10:31:59.001Z</time></trkpt><trkpt lat="43.13198776761136" lon="-2.443221584422925"><ele>174.6</ele><time>2026-04-30T10:32:00.001Z</time></trkpt><trkpt lat="43.13203196479751" lon="-2.4433451270600517"><ele>174.8</ele><time>2026-04-30T10:32:01.001Z</time></trkpt><trkpt lat="43.132071610288484" lon="-2.443475940159035"><ele>175.0</ele><time>2026-04-30T10:32:02.001Z</time></trkpt><trkpt lat="43.13211090043979" lon="-2.4436047172228714"><ele>175.0</ele><time>2026-04-30T10:32:03.001Z</time></trkpt><trkpt lat="43.13215303531086" lon="-2.44373105401716"><ele>175.0</ele><time>2026-04-30T10:32:04.001Z</time></trkpt><trkpt lat="43.13219688682246" lon="-2.443853275086158"><ele>175.0</ele><time>2026-04-30T10:32:05.001Z</time></trkpt><trkpt lat="43.13223789946455" lon="-2.443979961069514"><ele>175.0</ele><time>2026-04-30T10:32:06.001Z</time></trkpt><trkpt lat="43.13227810450306" lon="-2.444104650188789"><ele>175.0</ele><time>2026-04-30T10:32:07.001Z</time></trkpt><trkpt lat="43.132317552630404" lon="-2.4442284752009384"><ele>175.4</ele><time>2026-04-30T10:32:08.001Z</time></trkpt><trkpt lat="43.132358642593374" lon="-2.4443571142864178"><ele>175.8</ele><time>2026-04-30T10:32:09.001Z</time></trkpt><trkpt lat="43.132398644726635" lon="-2.444477822155495"><ele>176.2</ele><time>2026-04-30T10:32:10.001Z</time></trkpt><trkpt lat="43.1324388788593" lon="-2.444593561191559"><ele>176.6</ele><time>2026-04-30T10:32:11.001Z</time></trkpt><trkpt lat="43.132482407562506" lon="-2.444717822106639"><ele>177.0</ele><time>2026-04-30T10:32:12.001Z</time></trkpt><trkpt lat="43.13252063710868" lon="-2.4448470515625806"><ele>177.2</ele><time>2026-04-30T10:32:13.001Z</time></trkpt><trkpt lat="43.132563435338106" lon="-2.444971621094832"><ele>177.39999999999998</ele><time>2026-04-30T10:32:14.001Z</time></trkpt><trkpt lat="43.132602399333976" lon="-2.4450954688746047"><ele>177.60000000000002</ele><time>2026-04-30T10:32:15.001Z</time></trkpt><trkpt lat="43.13264510391743" lon="-2.4452194280811987"><ele>177.8</ele><time>2026-04-30T10:32:16.001Z</time></trkpt><trkpt lat="43.132684652663116" lon="-2.445340514292057"><ele>178.0</ele><time>2026-04-30T10:32:17.001Z</time></trkpt><trkpt lat="43.13271745762995" lon="-2.4454732219727875"><ele>178.4</ele><time>2026-04-30T10:32:18.001Z</time></trkpt><trkpt lat="43.13274557682126" lon="-2.445603977955973"><ele>178.8</ele><time>2026-04-30T10:32:19.001Z</time></trkpt><trkpt lat="43.13276446351182" lon="-2.4457386803566834"><ele>179.2</ele><time>2026-04-30T10:32:20.001Z</time></trkpt><trkpt lat="43.13277821098313" lon="-2.445872818704673"><ele>179.6</ele><time>2026-04-30T10:32:21.001Z</time></trkpt><trkpt lat="43.13278374138636" lon="-2.446010818889632"><ele>180.0</ele><time>2026-04-30T10:32:22.002Z</time></trkpt><trkpt lat="43.132790750188896" lon="-2.4461450057837095"><ele>180.0</ele><time>2026-04-30T10:32:23.002Z</time></trkpt><trkpt lat="43.13278571301374" lon="-2.4462845422634683"><ele>180.0</ele><time>2026-04-30T10:32:24.002Z</time></trkpt><trkpt lat="43.13279000319221" lon="-2.4464175968664605"><ele>180.0</ele><time>2026-04-30T10:32:25.002Z</time></trkpt><trkpt lat="43.13278051855558" lon="-2.4465558372685945"><ele>180.0</ele><time>2026-04-30T10:32:26.002Z</time></trkpt><trkpt lat="43.132766079054484" lon="-2.446694085569256"><ele>180.0</ele><time>2026-04-30T10:32:27.002Z</time></trkpt><trkpt lat="43.13274440145228" lon="-2.4468294439325153"><ele>181.0</ele><time>2026-04-30T10:32:28.002Z</time></trkpt><trkpt lat="43.132718349805856" lon="-2.4469642600993566"><ele>182.0</ele><time>2026-04-30T10:32:29.002Z</time></trkpt><trkpt lat="43.13268558056963" lon="-2.4470947938569134"><ele>183.0</ele><time>2026-04-30T10:32:30.002Z</time></trkpt><trkpt lat="43.13264943635765" lon="-2.4472191372293834"><ele>184.0</ele><time>2026-04-30T10:32:31.002Z</time></trkpt><trkpt lat="43.132609616889155" lon="-2.4473444045822754"><ele>185.0</ele><time>2026-04-30T10:32:32.002Z</time></trkpt><trkpt lat="43.13257164083525" lon="-2.447468592388046"><ele>185.0</ele><time>2026-04-30T10:32:33.002Z</time></trkpt><trkpt lat="43.13254228326423" lon="-2.447598258482445"><ele>185.0</ele><time>2026-04-30T10:32:34.002Z</time></trkpt><trkpt lat="43.132506898251435" lon="-2.447726837540321"><ele>185.0</ele><time>2026-04-30T10:32:35.002Z</time></trkpt><trkpt lat="43.13246854803341" lon="-2.4478540625005216"><ele>185.0</ele><time>2026-04-30T10:32:36.002Z</time></trkpt><trkpt lat="43.13243330993196" lon="-2.4479835890438713"><ele>185.0</ele><time>2026-04-30T10:32:37.002Z</time></trkpt><trkpt lat="43.13239861848916" lon="-2.448113605709156"><ele>187.2</ele><time>2026-04-30T10:32:38.002Z</time></trkpt><trkpt lat="43.13236236168673" lon="-2.4482427971659173"><ele>189.4</ele><time>2026-04-30T10:32:39.002Z</time></trkpt><trkpt lat="43.132327107067795" lon="-2.448374151045401"><ele>191.60000000000002</ele><time>2026-04-30T10:32:40.002Z</time></trkpt><trkpt lat="43.1322902395666" lon="-2.4485017990508506"><ele>193.8</ele><time>2026-04-30T10:32:41.002Z</time></trkpt><trkpt lat="43.13225757057818" lon="-2.4486319594296293"><ele>196.0</ele><time>2026-04-30T10:32:42.002Z</time></trkpt><trkpt lat="43.1322216798078" lon="-2.448758505794527"><ele>195.20000000000002</ele><time>2026-04-30T10:32:43.002Z</time></trkpt><trkpt lat="43.13218608916911" lon="-2.448881839491279"><ele>194.4</ele><time>2026-04-30T10:32:44.002Z</time></trkpt><trkpt lat="43.13214642701047" lon="-2.4490066568836313"><ele>193.6</ele><time>2026-04-30T10:32:45.002Z</time></trkpt><trkpt lat="43.13211478147204" lon="-2.4491356553235613"><ele>192.8</ele><time>2026-04-30T10:32:46.002Z</time></trkpt><trkpt lat="43.13208038005827" lon="-2.4492617482440218"><ele>192.0</ele><time>2026-04-30T10:32:47.002Z</time></trkpt><trkpt lat="43.132048988216766" lon="-2.449390457372437"><ele>192.0</ele><time>2026-04-30T10:32:48.002Z</time></trkpt><trkpt lat="43.13201986128686" lon="-2.4495181545531226"><ele>192.0</ele><time>2026-04-30T10:32:49.002Z</time></trkpt><trkpt lat="43.1320040734203" lon="-2.449649493090325"><ele>192.0</ele><time>2026-04-30T10:32:50.002Z</time></trkpt><trkpt lat="43.13200196705143" lon="-2.449781509553598"><ele>192.0</ele><time>2026-04-30T10:32:51.002Z</time></trkpt><trkpt lat="43.132009440474334" lon="-2.4499129280344203"><ele>192.0</ele><time>2026-04-30T10:32:52.002Z</time></trkpt><trkpt lat="43.13202227076581" lon="-2.4500427391919812"><ele>191.6</ele><time>2026-04-30T10:32:53.002Z</time></trkpt><trkpt lat="43.1320546566801" lon="-2.4501650339294208"><ele>191.2</ele><time>2026-04-30T10:32:54.002Z</time></trkpt><trkpt lat="43.132096783574845" lon="-2.450293135025247"><ele>190.8</ele><time>2026-04-30T10:32:55.002Z</time></trkpt><trkpt lat="43.13213873141083" lon="-2.4504199567427105"><ele>190.4</ele><time>2026-04-30T10:32:56.002Z</time></trkpt><trkpt lat="43.13219140846801" lon="-2.450538171120359"><ele>190.0</ele><time>2026-04-30T10:32:57.002Z</time></trkpt><trkpt lat="43.1322456201692" lon="-2.4506546313597535"><ele>190.0</ele><time>2026-04-30T10:32:58.002Z</time></trkpt><trkpt lat="43.13230022255823" lon="-2.4507730537815373"><ele>190.0</ele><time>2026-04-30T10:32:59.002Z</time></trkpt><trkpt lat="43.13234813914519" lon="-2.4508994760613474"><ele>190.0</ele><time>2026-04-30T10:33:00.002Z</time></trkpt><trkpt lat="43.13239767110498" lon="-2.451019785582526"><ele>190.0</ele><time>2026-04-30T10:33:01.002Z</time></trkpt><trkpt lat="43.1324467763659" lon="-2.451137629745959"><ele>190.0</ele><time>2026-04-30T10:33:02.002Z</time></trkpt><trkpt lat="43.13249417964657" lon="-2.4512537199272377"><ele>189.8</ele><time>2026-04-30T10:33:03Z</time></trkpt><trkpt lat="43.132544458002684" lon="-2.451369111080072"><ele>189.6</ele><time>2026-04-30T10:33:04Z</time></trkpt><trkpt lat="43.132594041138184" lon="-2.451481378413245"><ele>189.39999999999998</ele><time>2026-04-30T10:33:05Z</time></trkpt><trkpt lat="43.132639147069206" lon="-2.4516032173402027"><ele>189.2</ele><time>2026-04-30T10:33:06Z</time></trkpt><trkpt lat="43.13268591762469" lon="-2.4517190188957327"><ele>189.0</ele><time>2026-04-30T10:33:07Z</time></trkpt><trkpt lat="43.1327394271494" lon="-2.4518293132963143"><ele>189.0</ele><time>2026-04-30T10:33:08Z</time></trkpt><trkpt lat="43.13279350042669" lon="-2.451937739914205"><ele>189.0</ele><time>2026-04-30T10:33:09Z</time></trkpt><trkpt lat="43.13285337596084" lon="-2.452045107642405"><ele>189.0</ele><time>2026-04-30T10:33:10Z</time></trkpt><trkpt lat="43.132917023104916" lon="-2.4521493471893945"><ele>189.0</ele><time>2026-04-30T10:33:11Z</time></trkpt><trkpt lat="43.132982335882595" lon="-2.452248884334823"><ele>189.0</ele><time>2026-04-30T10:33:12Z</time></trkpt><trkpt lat="43.13304908991182" lon="-2.452345312899205"><ele>190.0</ele><time>2026-04-30T10:33:13Z</time></trkpt><trkpt lat="43.13311214525585" lon="-2.4524481166732337"><ele>191.0</ele><time>2026-04-30T10:33:14Z</time></trkpt><trkpt lat="43.13317146897874" lon="-2.4525521956443614"><ele>192.0</ele><time>2026-04-30T10:33:15Z</time></trkpt><trkpt lat="43.13322387643883" lon="-2.4526542899350976"><ele>193.0</ele><time>2026-04-30T10:33:16Z</time></trkpt><trkpt lat="43.13327460231827" lon="-2.4527698850494484"><ele>194.0</ele><time>2026-04-30T10:33:17Z</time></trkpt><trkpt lat="43.133317003653794" lon="-2.45289345521991"><ele>194.2</ele><time>2026-04-30T10:33:18Z</time></trkpt><trkpt lat="43.13335142636627" lon="-2.4530342695647986"><ele>194.39999999999998</ele><time>2026-04-30T10:33:19Z</time></trkpt><trkpt lat="43.13338176605184" lon="-2.453177344046871"><ele>194.6</ele><time>2026-04-30T10:33:20Z</time></trkpt><trkpt lat="43.13341763046793" lon="-2.4533114630957575"><ele>194.8</ele><time>2026-04-30T10:33:21Z</time></trkpt><trkpt lat="43.13346199863901" lon="-2.4534537682994264"><ele>195.0</ele><time>2026-04-30T10:33:22Z</time></trkpt><trkpt lat="43.13349903175547" lon="-2.4535743239712358"><ele>195.0</ele><time>2026-04-30T10:33:23Z</time></trkpt><trkpt lat="43.133535146751626" lon="-2.4537231082290463"><ele>195.0</ele><time>2026-04-30T10:33:24Z</time></trkpt><trkpt lat="43.133570331663165" lon="-2.45387254528417"><ele>195.0</ele><time>2026-04-30T10:33:25Z</time></trkpt><trkpt lat="43.13359470304386" lon="-2.4540270082328077"><ele>195.0</ele><time>2026-04-30T10:33:26Z</time></trkpt><trkpt lat="43.13360203951269" lon="-2.4541841876366806"><ele>195.2</ele><time>2026-04-30T10:33:27Z</time></trkpt><trkpt lat="43.133607165027584" lon="-2.454337485787281"><ele>195.4</ele><time>2026-04-30T10:33:28Z</time></trkpt><trkpt lat="43.133602593482806" lon="-2.4544885066851108"><ele>195.60000000000002</ele><time>2026-04-30T10:33:29Z</time></trkpt><trkpt lat="43.13360521344646" lon="-2.4546435670406463"><ele>195.8</ele><time>2026-04-30T10:33:30Z</time></trkpt><trkpt lat="43.133599845958315" lon="-2.4547906726542226"><ele>196.0</ele><time>2026-04-30T10:33:31Z</time></trkpt><trkpt lat="43.13359321984385" lon="-2.4549421141636447"><ele>196.4</ele><time>2026-04-30T10:33:32Z</time></trkpt><trkpt lat="43.133578110519835" lon="-2.455089225791108"><ele>196.8</ele><time>2026-04-30T10:33:33Z</time></trkpt><trkpt lat="43.13355492424264" lon="-2.4552373704918313"><ele>197.20000000000002</ele><time>2026-04-30T10:33:34Z</time></trkpt><trkpt lat="43.133521113141875" lon="-2.4553805496887615"><ele>197.60000000000002</ele><time>2026-04-30T10:33:35Z</time></trkpt><trkpt lat="43.133473885805536" lon="-2.4555182951448744"><ele>198.0</ele><time>2026-04-30T10:33:36Z</time></trkpt><trkpt lat="43.13342354624831" lon="-2.455653573359623"><ele>198.4</ele><time>2026-04-30T10:33:37Z</time></trkpt><trkpt lat="43.133370973472246" lon="-2.4557819336340536"><ele>198.8</ele><time>2026-04-30T10:33:38Z</time></trkpt><trkpt lat="43.13331762565007" lon="-2.4559050673852867"><ele>199.2</ele><time>2026-04-30T10:33:39Z</time></trkpt><trkpt lat="43.13326479143799" lon="-2.4560300874976595"><ele>199.6</ele><time>2026-04-30T10:33:40Z</time></trkpt><trkpt lat="43.133216418303796" lon="-2.45615137774101"><ele>200.0</ele><time>2026-04-30T10:33:41Z</time></trkpt><trkpt lat="43.13317001162798" lon="-2.4562720918289696"><ele>200.4</ele><time>2026-04-30T10:33:42Z</time></trkpt><trkpt lat="43.13313314114573" lon="-2.456399535644029"><ele>200.8</ele><time>2026-04-30T10:33:43Z</time></trkpt><trkpt lat="43.13310976010134" lon="-2.4565361055025456"><ele>201.2</ele><time>2026-04-30T10:33:44Z</time></trkpt><trkpt lat="43.13310033141883" lon="-2.4566770762424563"><ele>201.6</ele><time>2026-04-30T10:33:45.001Z</time></trkpt><trkpt lat="43.133123841011454" lon="-2.4568191755676034"><ele>202.0</ele><time>2026-04-30T10:33:46.001Z</time></trkpt><trkpt lat="43.13313904051354" lon="-2.456961460386339"><ele>202.0</ele><time>2026-04-30T10:33:47.001Z</time></trkpt><trkpt lat="43.133183776776285" lon="-2.457100694996496"><ele>202.0</ele><time>2026-04-30T10:33:48.001Z</time></trkpt><trkpt lat="43.13322237875858" lon="-2.4572392540050094"><ele>202.0</ele><time>2026-04-30T10:33:49.001Z</time></trkpt><trkpt lat="43.13325800095703" lon="-2.4573745133805844"><ele>202.0</ele><time>2026-04-30T10:33:50.001Z</time></trkpt><trkpt lat="43.1332885586683" lon="-2.4575150608036043"><ele>202.0</ele><time>2026-04-30T10:33:51.001Z</time></trkpt><trkpt lat="43.13331991082478" lon="-2.457649044757327"><ele>202.2</ele><time>2026-04-30T10:33:52.001Z</time></trkpt><trkpt lat="43.13336878333418" lon="-2.4577748041196243"><ele>202.39999999999998</ele><time>2026-04-30T10:33:53.001Z</time></trkpt><trkpt lat="43.13338451783893" lon="-2.4579184961045772"><ele>202.60000000000002</ele><time>2026-04-30T10:33:54.001Z</time></trkpt><trkpt lat="43.13342467748565" lon="-2.458050215751251"><ele>202.8</ele><time>2026-04-30T10:33:55.001Z</time></trkpt><trkpt lat="43.13346321490489" lon="-2.458182139814765"><ele>203.0</ele><time>2026-04-30T10:33:56.001Z</time></trkpt><trkpt lat="43.13350962252677" lon="-2.4583066856741738"><ele>202.66666666666669</ele><time>2026-04-30T10:33:57.001Z</time></trkpt><trkpt lat="43.133553025525785" lon="-2.4584099443648086"><ele>202.33333333333334</ele><time>2026-04-30T10:33:58.001Z</time></trkpt><trkpt lat="43.13359325845211" lon="-2.458511881706758"><ele>202.0</ele><time>2026-04-30T10:33:59.001Z</time></trkpt><trkpt lat="43.133631201849916" lon="-2.458600911963844"><ele>201.66666666666669</ele><time>2026-04-30T10:34:00.001Z</time></trkpt><trkpt lat="43.13366498513592" lon="-2.4586814008304"><ele>201.33333333333334</ele><time>2026-04-30T10:34:01.001Z</time></trkpt><trkpt lat="43.13369875605311" lon="-2.458758680393051"><ele>201.0</ele><time>2026-04-30T10:34:02.001Z</time></trkpt><trkpt lat="43.13375586405034" lon="-2.4588854471156445"><ele>201.5</ele><time>2026-04-30T10:34:04.001Z</time></trkpt><trkpt lat="43.13380978695169" lon="-2.458962575253728"><ele>202.0</ele><time>2026-04-30T10:34:06.001Z</time></trkpt><trkpt lat="43.13385878245195" lon="-2.4590371754941183"><ele>202.5</ele><time>2026-04-30T10:34:21.001Z</time></trkpt><trkpt lat="43.13391578744489" lon="-2.4591375166001015"><ele>203.0</ele><time>2026-04-30T10:34:23.001Z</time></trkpt><trkpt lat="43.13399402111662" lon="-2.4592713733222347"><ele>203.5</ele><time>2026-04-30T10:34:25.001Z</time></trkpt><trkpt lat="43.134041465676056" lon="-2.4593385915039803"><ele>204.0</ele><time>2026-04-30T10:34:26.001Z</time></trkpt><trkpt lat="43.134094185066125" lon="-2.4594105787019616"><ele>204.0</ele><time>2026-04-30T10:34:27.001Z</time></trkpt><trkpt lat="43.134146329181696" lon="-2.459491390241835"><ele>204.0</ele><time>2026-04-30T10:34:28.001Z</time></trkpt><trkpt lat="43.13420343408834" lon="-2.459557307845745"><ele>204.0</ele><time>2026-04-30T10:34:29.001Z</time></trkpt><trkpt lat="43.13426357455214" lon="-2.4596433490604332"><ele>204.0</ele><time>2026-04-30T10:34:30.001Z</time></trkpt><trkpt lat="43.13433253464161" lon="-2.4597141334343346"><ele>204.0</ele><time>2026-04-30T10:34:31.002Z</time></trkpt><trkpt lat="43.13440210818624" lon="-2.459795378213438"><ele>204.0</ele><time>2026-04-30T10:34:32.002Z</time></trkpt><trkpt lat="43.134463083680394" lon="-2.4598885761470837"><ele>203.39999999999998</ele><time>2026-04-30T10:34:33.002Z</time></trkpt><trkpt lat="43.134518975512734" lon="-2.459988865462097"><ele>202.8</ele><time>2026-04-30T10:34:34.002Z</time></trkpt><trkpt lat="43.13457080194223" lon="-2.4600954187994555"><ele>202.2</ele><time>2026-04-30T10:34:35.002Z</time></trkpt><trkpt lat="43.134619909652635" lon="-2.460204148319649"><ele>201.60000000000002</ele><time>2026-04-30T10:34:36.002Z</time></trkpt><trkpt lat="43.13466640095309" lon="-2.4603103917554217"><ele>201.0</ele><time>2026-04-30T10:34:37.002Z</time></trkpt><trkpt lat="43.13471504549042" lon="-2.460429728651776"><ele>201.60000000000002</ele><time>2026-04-30T10:34:38.002Z</time></trkpt><trkpt lat="43.13476987711394" lon="-2.460533989563544"><ele>202.2</ele><time>2026-04-30T10:34:39.002Z</time></trkpt><trkpt lat="43.13483124920094" lon="-2.460632114720611"><ele>202.8</ele><time>2026-04-30T10:34:40.002Z</time></trkpt><trkpt lat="43.13488300761067" lon="-2.460723859548804"><ele>203.39999999999998</ele><time>2026-04-30T10:34:41.002Z</time></trkpt><trkpt lat="43.13496137592965" lon="-2.460799513621132"><ele>204.0</ele><time>2026-04-30T10:34:42.002Z</time></trkpt><trkpt lat="43.13503722875832" lon="-2.460855671980035"><ele>204.0</ele><time>2026-04-30T10:34:43.002Z</time></trkpt><trkpt lat="43.13511010669296" lon="-2.460916797778084"><ele>204.0</ele><time>2026-04-30T10:34:44.002Z</time></trkpt><trkpt lat="43.13517484911281" lon="-2.4609738182475334"><ele>204.0</ele><time>2026-04-30T10:34:45.002Z</time></trkpt><trkpt lat="43.13524707864551" lon="-2.46102901081937"><ele>204.0</ele><time>2026-04-30T10:34:46.002Z</time></trkpt><trkpt lat="43.13532175386052" lon="-2.461088404989204"><ele>204.0</ele><time>2026-04-30T10:34:47.002Z</time></trkpt><trkpt lat="43.13539182114332" lon="-2.4611350015558493"><ele>204.0</ele><time>2026-04-30T10:34:48.002Z</time></trkpt><trkpt lat="43.135465378567766" lon="-2.4611972668723077"><ele>204.0</ele><time>2026-04-30T10:34:49.002Z</time></trkpt><trkpt lat="43.135526905085555" lon="-2.4612287595417213"><ele>204.0</ele><time>2026-04-30T10:34:50.002Z</time></trkpt><trkpt lat="43.135665231595226" lon="-2.4613244365042934"><ele>204.0</ele><time>2026-04-30T10:34:52.002Z</time></trkpt><trkpt lat="43.13573295329777" lon="-2.461368592626342"><ele>204.0</ele><time>2026-04-30T10:34:53.002Z</time></trkpt><trkpt lat="43.13579698519723" lon="-2.461412811081836"><ele>204.0</ele><time>2026-04-30T10:34:54.002Z</time></trkpt><trkpt lat="43.135864371788365" lon="-2.461454575550871"><ele>204.0</ele><time>2026-04-30T10:34:55.002Z</time></trkpt><trkpt lat="43.135928794061385" lon="-2.461499394761249"><ele>206.5</ele><time>2026-04-30T10:34:56.002Z</time></trkpt><trkpt lat="43.135993727176775" lon="-2.4615366213063963"><ele>209.0</ele><time>2026-04-30T10:34:57.002Z</time></trkpt><trkpt lat="43.136054733209974" lon="-2.46157520113366"><ele>211.5</ele><time>2026-04-30T10:34:58.002Z</time></trkpt><trkpt lat="43.136114780741295" lon="-2.461612937993693"><ele>214.0</ele><time>2026-04-30T10:34:59.002Z</time></trkpt><trkpt lat="43.136172068300915" lon="-2.4616521063518437"><ele>216.5</ele><time>2026-04-30T10:35:00.002Z</time></trkpt><trkpt lat="43.1362301475153" lon="-2.4616859739754338"><ele>219.0</ele><time>2026-04-30T10:35:01.002Z</time></trkpt><trkpt lat="43.136336658419644" lon="-2.4617781775177665"><ele>219.0</ele><time>2026-04-30T10:35:03.002Z</time></trkpt><trkpt lat="43.136380352029526" lon="-2.4618529040278445"><ele>219.0</ele><time>2026-04-30T10:35:04.002Z</time></trkpt><trkpt lat="43.13641078123253" lon="-2.4619319401459645"><ele>219.0</ele><time>2026-04-30T10:35:05.002Z</time></trkpt><trkpt lat="43.136422602412345" lon="-2.4620193164781594"><ele>219.0</ele><time>2026-04-30T10:35:06.002Z</time></trkpt><trkpt lat="43.136408003674006" lon="-2.462111632594786"><ele>219.0</ele><time>2026-04-30T10:35:07.002Z</time></trkpt><trkpt lat="43.13637733992378" lon="-2.4621971067189325"><ele>219.0</ele><time>2026-04-30T10:35:08.002Z</time></trkpt><trkpt lat="43.136334669106674" lon="-2.462268410870046"><ele>219.0</ele><time>2026-04-30T10:35:09Z</time></trkpt><trkpt lat="43.13628288528658" lon="-2.4623219302179953"><ele>222.5</ele><time>2026-04-30T10:35:10Z</time></trkpt><trkpt lat="43.13622133767962" lon="-2.4623550027774135"><ele>226.0</ele><time>2026-04-30T10:35:11Z</time></trkpt><trkpt lat="43.136152582506064" lon="-2.46236043505098"><ele>229.5</ele><time>2026-04-30T10:35:12Z</time></trkpt><trkpt lat="43.136084960855335" lon="-2.462346742147239"><ele>233.0</ele><time>2026-04-30T10:35:13Z</time></trkpt><trkpt lat="43.13602331299963" lon="-2.462325938877277"><ele>236.5</ele><time>2026-04-30T10:35:14Z</time></trkpt><trkpt lat="43.135907242380725" lon="-2.462278437180848"><ele>240.0</ele><time>2026-04-30T10:35:16Z</time></trkpt><trkpt lat="43.13584491482761" lon="-2.4622544485903672"><ele>240.0</ele><time>2026-04-30T10:35:17Z</time></trkpt><trkpt lat="43.13578010167442" lon="-2.462240078696092"><ele>240.0</ele><time>2026-04-30T10:35:18Z</time></trkpt><trkpt lat="43.13565483507122" lon="-2.4622331920455456"><ele>240.0</ele><time>2026-04-30T10:35:20Z</time></trkpt><trkpt lat="43.13558801106892" lon="-2.462257251312399"><ele>240.0</ele><time>2026-04-30T10:35:21Z</time></trkpt><trkpt lat="43.135467256166756" lon="-2.4622807087878225"><ele>240.0</ele><time>2026-04-30T10:35:23Z</time></trkpt><trkpt lat="43.13535472263441" lon="-2.4623571659774273"><ele>239.25</ele><time>2026-04-30T10:35:25Z</time></trkpt><trkpt lat="43.135253407554686" lon="-2.4624453551828585"><ele>238.5</ele><time>2026-04-30T10:35:27Z</time></trkpt><trkpt lat="43.13516044907111" lon="-2.4625545997917166"><ele>237.75</ele><time>2026-04-30T10:35:29Z</time></trkpt><trkpt lat="43.135080930333274" lon="-2.4626798288731915"><ele>237.0</ele><time>2026-04-30T10:35:31Z</time></trkpt><trkpt lat="43.13501890228545" lon="-2.4628221295925683"><ele>239.39999999999998</ele><time>2026-04-30T10:35:33Z</time></trkpt><trkpt lat="43.134975870557675" lon="-2.4629764674817736"><ele>241.79999999999998</ele><time>2026-04-30T10:35:35Z</time></trkpt><trkpt lat="43.134954960825645" lon="-2.463134721751558"><ele>244.2</ele><time>2026-04-30T10:35:37Z</time></trkpt><trkpt lat="43.13494646728585" lon="-2.4632955515696255"><ele>246.6</ele><time>2026-04-30T10:35:39Z</time></trkpt><trkpt lat="43.134934404619386" lon="-2.463381831156278"><ele>249.0</ele><time>2026-04-30T10:35:40Z</time></trkpt><trkpt lat="43.1349217546923" lon="-2.4634698124346692"><ele>249.0</ele><time>2026-04-30T10:35:41Z</time></trkpt><trkpt lat="43.134910985543335" lon="-2.463632495716075"><ele>249.0</ele><time>2026-04-30T10:35:43Z</time></trkpt><trkpt lat="43.134905291713174" lon="-2.463718508727284"><ele>249.0</ele><time>2026-04-30T10:35:44Z</time></trkpt><trkpt lat="43.13489255071869" lon="-2.463806914625308"><ele>249.0</ele><time>2026-04-30T10:35:45Z</time></trkpt><trkpt lat="43.1348838460571" lon="-2.4638968847127183"><ele>249.0</ele><time>2026-04-30T10:35:46.001Z</time></trkpt><trkpt lat="43.134868868324936" lon="-2.464065219293778"><ele>249.0</ele><time>2026-04-30T10:35:48.001Z</time></trkpt><trkpt lat="43.134855877770235" lon="-2.464234434508236"><ele>247.16666666666666</ele><time>2026-04-30T10:35:50.001Z</time></trkpt><trkpt lat="43.134853424722934" lon="-2.4643215252163553"><ele>245.33333333333331</ele><time>2026-04-30T10:35:51.001Z</time></trkpt><trkpt lat="43.134853925398836" lon="-2.4644090883360263"><ele>243.5</ele><time>2026-04-30T10:35:52.001Z</time></trkpt><trkpt lat="43.13486665885738" lon="-2.464584243441475"><ele>241.66666666666666</ele><time>2026-04-30T10:35:54.001Z</time></trkpt><trkpt lat="43.13488444802886" lon="-2.4646725023061267"><ele>239.83333333333331</ele><time>2026-04-30T10:35:55.001Z</time></trkpt><trkpt lat="43.13489854923066" lon="-2.464761625666324"><ele>238.0</ele><time>2026-04-30T10:35:56.001Z</time></trkpt><trkpt lat="43.13491718160017" lon="-2.4648502231620886"><ele>241.42857142857144</ele><time>2026-04-30T10:35:57.001Z</time></trkpt><trkpt lat="43.13494603935453" lon="-2.464940690399873"><ele>244.85714285714286</ele><time>2026-04-30T10:35:58.001Z</time></trkpt><trkpt lat="43.134982780567704" lon="-2.4650111548604867"><ele>248.28571428571428</ele><time>2026-04-30T10:35:59.001Z</time></trkpt><trkpt lat="43.13502109322749" lon="-2.4650937844709513"><ele>251.71428571428572</ele><time>2026-04-30T10:36:00.001Z</time></trkpt><trkpt lat="43.135069061111096" lon="-2.4651740184219633"><ele>255.14285714285717</ele><time>2026-04-30T10:36:01.001Z</time></trkpt><trkpt lat="43.135124046617264" lon="-2.4652463419877098"><ele>258.57142857142856</ele><time>2026-04-30T10:36:02.001Z</time></trkpt><trkpt lat="43.13518218535277" lon="-2.4653120335068177"><ele>262.0</ele><time>2026-04-30T10:36:03.001Z</time></trkpt><trkpt lat="43.135251312545755" lon="-2.465366606026863"><ele>262.0</ele><time>2026-04-30T10:36:04.001Z</time></trkpt><trkpt lat="43.135319365653196" lon="-2.4654185694464514"><ele>262.0</ele><time>2026-04-30T10:36:05.001Z</time></trkpt><trkpt lat="43.135398245992974" lon="-2.4654526800191148"><ele>262.0</ele><time>2026-04-30T10:36:06.001Z</time></trkpt><trkpt lat="43.135456173663194" lon="-2.465543320531913"><ele>262.0</ele><time>2026-04-30T10:36:07.001Z</time></trkpt><trkpt lat="43.13552209642123" lon="-2.465604362831267"><ele>262.0</ele><time>2026-04-30T10:36:08.001Z</time></trkpt><trkpt lat="43.13558605143073" lon="-2.4656596028994544"><ele>262.0</ele><time>2026-04-30T10:36:09.001Z</time></trkpt><trkpt lat="43.13565678843746" lon="-2.4657235493587475"><ele>263.16666666666663</ele><time>2026-04-30T10:36:10.001Z</time></trkpt><trkpt lat="43.13572734264605" lon="-2.4657857745940492"><ele>264.3333333333333</ele><time>2026-04-30T10:36:11.001Z</time></trkpt><trkpt lat="43.13579746562311" lon="-2.4658519454422074"><ele>265.5</ele><time>2026-04-30T10:36:12.001Z</time></trkpt><trkpt lat="43.13586466035715" lon="-2.4659200116027162"><ele>266.6666666666667</ele><time>2026-04-30T10:36:13.001Z</time></trkpt><trkpt lat="43.13593491898608" lon="-2.465982797386943"><ele>267.83333333333337</ele><time>2026-04-30T10:36:14.001Z</time></trkpt><trkpt lat="43.13600744885189" lon="-2.4660448127043932"><ele>269.0</ele><time>2026-04-30T10:36:15.001Z</time></trkpt><trkpt lat="43.13608168441153" lon="-2.466107161664148"><ele>269.0</ele><time>2026-04-30T10:36:16.001Z</time></trkpt><trkpt lat="43.136152107902326" lon="-2.466173425202022"><ele>269.0</ele><time>2026-04-30T10:36:17.001Z</time></trkpt><trkpt lat="43.13621992907578" lon="-2.466246241383533"><ele>269.0</ele><time>2026-04-30T10:36:18.001Z</time></trkpt><trkpt lat="43.13628651762134" lon="-2.4663178836494293"><ele>269.0</ele><time>2026-04-30T10:36:19.001Z</time></trkpt><trkpt lat="43.136348223858796" lon="-2.4663910732810264"><ele>269.0</ele><time>2026-04-30T10:36:20.001Z</time></trkpt><trkpt lat="43.1364125440939" lon="-2.4664616769839434"><ele>269.0</ele><time>2026-04-30T10:36:21.001Z</time></trkpt><trkpt lat="43.13647335859045" lon="-2.466536714037596"><ele>269.83333333333337</ele><time>2026-04-30T10:36:22.001Z</time></trkpt><trkpt lat="43.13653124649019" lon="-2.4666130450656585"><ele>270.6666666666667</ele><time>2026-04-30T10:36:23.001Z</time></trkpt><trkpt lat="43.1365897783388" lon="-2.466686638418607"><ele>271.5</ele><time>2026-04-30T10:36:24.001Z</time></trkpt><trkpt lat="43.13664882087239" lon="-2.46676180917319"><ele>272.3333333333333</ele><time>2026-04-30T10:36:25.001Z</time></trkpt><trkpt lat="43.13670469595654" lon="-2.466839189391347"><ele>273.16666666666663</ele><time>2026-04-30T10:36:26.001Z</time></trkpt><trkpt lat="43.13675784989736" lon="-2.466918128355161"><ele>274.0</ele><time>2026-04-30T10:36:27.001Z</time></trkpt><trkpt lat="43.13681338332267" lon="-2.466994955655434"><ele>274.00000000000006</ele><time>2026-04-30T10:36:28.001Z</time></trkpt><trkpt lat="43.136864654420094" lon="-2.4670711753561885"><ele>274.0</ele><time>2026-04-30T10:36:29.001Z</time></trkpt><trkpt lat="43.13691542917409" lon="-2.4671363595715348"><ele>274.0</ele><time>2026-04-30T10:36:30.001Z</time></trkpt><trkpt lat="43.13696141470722" lon="-2.467218326367882"><ele>274.0</ele><time>2026-04-30T10:36:31.001Z</time></trkpt><trkpt lat="43.13700313780456" lon="-2.4673023007312507"><ele>274.0</ele><time>2026-04-30T10:36:32.002Z</time></trkpt><trkpt lat="43.13703999206086" lon="-2.467391782961345"><ele>274.00000000000006</ele><time>2026-04-30T10:36:33.002Z</time></trkpt><trkpt lat="43.137069633816296" lon="-2.467482517153243"><ele>274.0</ele><time>2026-04-30T10:36:34.002Z</time></trkpt><trkpt lat="43.13709283105844" lon="-2.467574287328692"><ele>275.42857142857144</ele><time>2026-04-30T10:36:35.002Z</time></trkpt><trkpt lat="43.13710986084575" lon="-2.4676673821723853"><ele>276.8571428571429</ele><time>2026-04-30T10:36:36.002Z</time></trkpt><trkpt lat="43.13712100674807" lon="-2.4677655032521177"><ele>278.2857142857143</ele><time>2026-04-30T10:36:37.002Z</time></trkpt><trkpt lat="43.137127587295254" lon="-2.4678621755121912"><ele>279.7142857142857</ele><time>2026-04-30T10:36:38.002Z</time></trkpt><trkpt lat="43.137129434530124" lon="-2.4679597681371233"><ele>281.1428571428571</ele><time>2026-04-30T10:36:39.002Z</time></trkpt><trkpt lat="43.1371324608857" lon="-2.4680562934762618"><ele>282.57142857142856</ele><time>2026-04-30T10:36:40.002Z</time></trkpt><trkpt lat="43.13713584238285" lon="-2.4681520028902053"><ele>284.0</ele><time>2026-04-30T10:36:41.002Z</time></trkpt><trkpt lat="43.13713459477375" lon="-2.4682434760129937"><ele>285.1666666666667</ele><time>2026-04-30T10:36:42.002Z</time></trkpt><trkpt lat="43.13713389007839" lon="-2.4683374377207556"><ele>286.33333333333337</ele><time>2026-04-30T10:36:43.002Z</time></trkpt><trkpt lat="43.137135268964094" lon="-2.4684249017539783"><ele>287.5</ele><time>2026-04-30T10:36:44.002Z</time></trkpt><trkpt lat="43.13713738130871" lon="-2.468514652902313"><ele>288.6666666666667</ele><time>2026-04-30T10:36:45.002Z</time></trkpt><trkpt lat="43.13713961267331" lon="-2.4686025333550714"><ele>289.8333333333333</ele><time>2026-04-30T10:36:46.002Z</time></trkpt><trkpt lat="43.137143018296904" lon="-2.468690010780445"><ele>291.0</ele><time>2026-04-30T10:36:47.002Z</time></trkpt><trkpt lat="43.137145200192045" lon="-2.468859577644734"><ele>292.75</ele><time>2026-04-30T10:36:49.002Z</time></trkpt><trkpt lat="43.137152656903154" lon="-2.469031162122344"><ele>294.5</ele><time>2026-04-30T10:36:51.002Z</time></trkpt><trkpt lat="43.13715910691746" lon="-2.4691975262513135"><ele>296.25</ele><time>2026-04-30T10:36:53.002Z</time></trkpt><trkpt lat="43.13716380573269" lon="-2.469360529320215"><ele>298.0</ele><time>2026-04-30T10:36:55.002Z</time></trkpt><trkpt lat="43.137168459169175" lon="-2.4695202681342656"><ele>298.75</ele><time>2026-04-30T10:36:57.002Z</time></trkpt><trkpt lat="43.13717567310302" lon="-2.4696781210726306"><ele>299.5</ele><time>2026-04-30T10:36:59.002Z</time></trkpt><trkpt lat="43.13717690964706" lon="-2.4698304227080365"><ele>300.25</ele><time>2026-04-30T10:37:01.002Z</time></trkpt><trkpt lat="43.13718516890911" lon="-2.4699881910694996"><ele>301.0</ele><time>2026-04-30T10:37:03.002Z</time></trkpt><trkpt lat="43.13719198851958" lon="-2.470142950299547"><ele>301.0</ele><time>2026-04-30T10:37:05.002Z</time></trkpt><trkpt lat="43.13720099505161" lon="-2.470304875657132"><ele>301.0</ele><time>2026-04-30T10:37:07.002Z</time></trkpt><trkpt lat="43.13720869068066" lon="-2.4704654252538676"><ele>301.0</ele><time>2026-04-30T10:37:09.002Z</time></trkpt><trkpt lat="43.13721476628969" lon="-2.4706289983494387"><ele>301.0</ele><time>2026-04-30T10:37:11.002Z</time></trkpt><trkpt lat="43.13722321316504" lon="-2.4707927281121633"><ele>302.75</ele><time>2026-04-30T10:37:13.002Z</time></trkpt><trkpt lat="43.13722992429944" lon="-2.4709528797799325"><ele>304.5</ele><time>2026-04-30T10:37:15Z</time></trkpt><trkpt lat="43.13723538959339" lon="-2.471118237514639"><ele>306.25</ele><time>2026-04-30T10:37:17Z</time></trkpt><trkpt lat="43.13724563960579" lon="-2.4712847264892788"><ele>308.0</ele><time>2026-04-30T10:37:19Z</time></trkpt><trkpt lat="43.137253970852925" lon="-2.471447136012615"><ele>309.5</ele><time>2026-04-30T10:37:21Z</time></trkpt><trkpt lat="43.13726181092152" lon="-2.471602203678186"><ele>311.0</ele><time>2026-04-30T10:37:23Z</time></trkpt><trkpt lat="43.13726932629629" lon="-2.4717670654810697"><ele>312.5</ele><time>2026-04-30T10:37:25Z</time></trkpt><trkpt lat="43.13727579098048" lon="-2.471928521477448"><ele>314.0</ele><time>2026-04-30T10:37:27Z</time></trkpt><trkpt lat="43.13728244488617" lon="-2.4720912241413022"><ele>315.0</ele><time>2026-04-30T10:37:29Z</time></trkpt><trkpt lat="43.137290428968" lon="-2.4722547494740907"><ele>316.0</ele><time>2026-04-30T10:37:31Z</time></trkpt><trkpt lat="43.13729721290003" lon="-2.4724210363660446"><ele>317.0</ele><time>2026-04-30T10:37:33Z</time></trkpt><trkpt lat="43.13729716291479" lon="-2.472511510224006"><ele>318.0</ele><time>2026-04-30T10:37:34Z</time></trkpt><trkpt lat="43.13730512409888" lon="-2.472682221283909"><ele>319.0</ele><time>2026-04-30T10:37:36Z</time></trkpt><trkpt lat="43.13731598104736" lon="-2.4728492037812355"><ele>319.0</ele><time>2026-04-30T10:37:38Z</time></trkpt><trkpt lat="43.13731800522728" lon="-2.472938264506074"><ele>319.0</ele><time>2026-04-30T10:37:39Z</time></trkpt><trkpt lat="43.13732146812366" lon="-2.4730250607772963"><ele>319.0</ele><time>2026-04-30T10:37:40Z</time></trkpt><trkpt lat="43.1373246200082" lon="-2.4731165646518245"><ele>319.0</ele><time>2026-04-30T10:37:41Z</time></trkpt><trkpt lat="43.13733673580456" lon="-2.473289474946206"><ele>319.0</ele><time>2026-04-30T10:37:43Z</time></trkpt><trkpt lat="43.13734126865133" lon="-2.473381387186378"><ele>319.0</ele><time>2026-04-30T10:37:44Z</time></trkpt><trkpt lat="43.13734170870177" lon="-2.4735554306314524"><ele>320.16666666666663</ele><time>2026-04-30T10:37:46Z</time></trkpt><trkpt lat="43.13735034181605" lon="-2.4736473161724244"><ele>321.3333333333333</ele><time>2026-04-30T10:37:47Z</time></trkpt><trkpt lat="43.137367631561176" lon="-2.47382116285495"><ele>322.5</ele><time>2026-04-30T10:37:49Z</time></trkpt><trkpt lat="43.13736964658314" lon="-2.4739123604910938"><ele>323.6666666666667</ele><time>2026-04-30T10:37:50Z</time></trkpt><trkpt lat="43.13737343696007" lon="-2.474002552337178"><ele>324.83333333333337</ele><time>2026-04-30T10:37:51.001Z</time></trkpt><trkpt lat="43.13737648894982" lon="-2.474091246349785"><ele>326.0</ele><time>2026-04-30T10:37:52.001Z</time></trkpt><trkpt lat="43.1373806409971" lon="-2.4741834126708095"><ele>326.8571428571429</ele><time>2026-04-30T10:37:53.001Z</time></trkpt><trkpt lat="43.13738527885092" lon="-2.4742704217584857"><ele>327.71428571428567</ele><time>2026-04-30T10:37:54.001Z</time></trkpt><trkpt lat="43.13738806557729" lon="-2.474361348828482"><ele>328.57142857142856</ele><time>2026-04-30T10:37:55.001Z</time></trkpt><trkpt lat="43.13739197705415" lon="-2.474455673641424"><ele>329.42857142857144</ele><time>2026-04-30T10:37:56.001Z</time></trkpt><trkpt lat="43.13739999780217" lon="-2.4745465863531964"><ele>330.28571428571433</ele><time>2026-04-30T10:37:57.001Z</time></trkpt><trkpt lat="43.137403188532986" lon="-2.474638521761852"><ele>331.1428571428571</ele><time>2026-04-30T10:37:58.001Z</time></trkpt><trkpt lat="43.13740628808693" lon="-2.474730933172149"><ele>332.0</ele><time>2026-04-30T10:37:59.001Z</time></trkpt><trkpt lat="43.13741213473809" lon="-2.4748232723491213"><ele>333.2857142857143</ele><time>2026-04-30T10:38:00.001Z</time></trkpt><trkpt lat="43.13741489210634" lon="-2.4749146591045665"><ele>334.5714285714286</ele><time>2026-04-30T10:38:01.001Z</time></trkpt><trkpt lat="43.13741865944924" lon="-2.475009408618967"><ele>335.8571428571429</ele><time>2026-04-30T10:38:02.001Z</time></trkpt><trkpt lat="43.137422301885366" lon="-2.4750972999717322"><ele>337.1428571428571</ele><time>2026-04-30T10:38:03.001Z</time></trkpt><trkpt lat="43.13742637702063" lon="-2.475187473814369"><ele>338.42857142857144</ele><time>2026-04-30T10:38:04.001Z</time></trkpt><trkpt lat="43.13743423532761" lon="-2.4752741938617264"><ele>339.7142857142857</ele><time>2026-04-30T10:38:05.001Z</time></trkpt><trkpt lat="43.13743872257123" lon="-2.4753665458290923"><ele>341.0</ele><time>2026-04-30T10:38:06.001Z</time></trkpt><trkpt lat="43.137440847840054" lon="-2.4754540146169215"><ele>342.0</ele><time>2026-04-30T10:38:07.001Z</time></trkpt><trkpt lat="43.137453608106455" lon="-2.475620688736561"><ele>343.0</ele><time>2026-04-30T10:38:09.001Z</time></trkpt><trkpt lat="43.13747956029876" lon="-2.4757913255090496"><ele>344.0</ele><time>2026-04-30T10:38:11.001Z</time></trkpt><trkpt lat="43.13749874832289" lon="-2.4758735647650614"><ele>345.0</ele><time>2026-04-30T10:38:12.001Z</time></trkpt><trkpt lat="43.13755469449133" lon="-2.4760329454734142"><ele>346.0</ele><time>2026-04-30T10:38:14.001Z</time></trkpt><trkpt lat="43.13759099873477" lon="-2.47610906741287"><ele>346.0</ele><time>2026-04-30T10:38:15.001Z</time></trkpt><trkpt lat="43.13763301701484" lon="-2.4761815360790376"><ele>346.0</ele><time>2026-04-30T10:38:16.001Z</time></trkpt><trkpt lat="43.137681220074604" lon="-2.4762518076254185"><ele>346.0</ele><time>2026-04-30T10:38:17.001Z</time></trkpt><trkpt lat="43.137729345484" lon="-2.4763147113459003"><ele>346.0</ele><time>2026-04-30T10:38:18.001Z</time></trkpt><trkpt lat="43.13777896448102" lon="-2.476387652956827"><ele>346.0</ele><time>2026-04-30T10:38:19.001Z</time></trkpt><trkpt lat="43.13782720628196" lon="-2.476449406956982"><ele>346.0</ele><time>2026-04-30T10:38:20.001Z</time></trkpt><trkpt lat="43.13789221774913" lon="-2.4765191089201237"><ele>346.0</ele><time>2026-04-30T10:38:21.001Z</time></trkpt><trkpt lat="43.13798666192493" lon="-2.476604284372807"><ele>346.66666666666663</ele><time>2026-04-30T10:38:23.001Z</time></trkpt><trkpt lat="43.138037184999476" lon="-2.476747825652365"><ele>347.3333333333333</ele><time>2026-04-30T10:38:24.001Z</time></trkpt><trkpt lat="43.13808605466711" lon="-2.4768252093207055"><ele>348.0</ele><time>2026-04-30T10:38:25.001Z</time></trkpt><trkpt lat="43.138133990525986" lon="-2.4769143779819176"><ele>348.6666666666667</ele><time>2026-04-30T10:38:26.001Z</time></trkpt><trkpt lat="43.1381790257837" lon="-2.477005723893645"><ele>349.33333333333337</ele><time>2026-04-30T10:38:27.001Z</time></trkpt><trkpt lat="43.13822222210422" lon="-2.477100194043744"><ele>350.0</ele><time>2026-04-30T10:38:28.001Z</time></trkpt><trkpt lat="43.138266204551584" lon="-2.4771991199506433"><ele>351.6666666666667</ele><time>2026-04-30T10:38:29.001Z</time></trkpt><trkpt lat="43.13831183505874" lon="-2.477302235202514"><ele>353.33333333333337</ele><time>2026-04-30T10:38:30.001Z</time></trkpt><trkpt lat="43.13835619238942" lon="-2.477404040561945"><ele>355.0</ele><time>2026-04-30T10:38:31.001Z</time></trkpt><trkpt lat="43.1383981548312" lon="-2.4775104146101463"><ele>356.6666666666667</ele><time>2026-04-30T10:38:32.001Z</time></trkpt><trkpt lat="43.13843995497645" lon="-2.4776175482431393"><ele>358.3333333333333</ele><time>2026-04-30T10:38:33.001Z</time></trkpt><trkpt lat="43.13848093187738" lon="-2.477726051444629"><ele>360.0</ele><time>2026-04-30T10:38:34.001Z</time></trkpt><trkpt lat="43.13852314430105" lon="-2.4778338260385606"><ele>360.1666666666667</ele><time>2026-04-30T10:38:35.001Z</time></trkpt><trkpt lat="43.13856234221295" lon="-2.4779396425809352"><ele>360.3333333333333</ele><time>2026-04-30T10:38:36.001Z</time></trkpt><trkpt lat="43.13859985196026" lon="-2.4780469429818046"><ele>360.5</ele><time>2026-04-30T10:38:37.002Z</time></trkpt><trkpt lat="43.13863663278727" lon="-2.4781514178834034"><ele>360.66666666666663</ele><time>2026-04-30T10:38:38.002Z</time></trkpt><trkpt lat="43.13867446189429" lon="-2.4782624211432034"><ele>360.8333333333333</ele><time>2026-04-30T10:38:39.002Z</time></trkpt><trkpt lat="43.13871572723492" lon="-2.478367535960925"><ele>361.0</ele><time>2026-04-30T10:38:40.002Z</time></trkpt><trkpt lat="43.138758219562575" lon="-2.478462981062183"><ele>361.0</ele><time>2026-04-30T10:38:41.002Z</time></trkpt><trkpt lat="43.13881050672692" lon="-2.478552054005464"><ele>361.0</ele><time>2026-04-30T10:38:42.002Z</time></trkpt><trkpt lat="43.13887278145732" lon="-2.478625428878861"><ele>361.0</ele><time>2026-04-30T10:38:43.002Z</time></trkpt><trkpt lat="43.138938140155794" lon="-2.4786862326189887"><ele>361.0</ele><time>2026-04-30T10:38:44.002Z</time></trkpt><trkpt lat="43.13900254696283" lon="-2.4787407681091103"><ele>361.0</ele><time>2026-04-30T10:38:45.002Z</time></trkpt><trkpt lat="43.13906693173703" lon="-2.478780049289977"><ele>361.0</ele><time>2026-04-30T10:38:46.002Z</time></trkpt><trkpt lat="43.139126562823385" lon="-2.4788259052435886"><ele>363.6</ele><time>2026-04-30T10:38:47.002Z</time></trkpt><trkpt lat="43.13918181701367" lon="-2.4788743831384092"><ele>366.20000000000005</ele><time>2026-04-30T10:38:48.002Z</time></trkpt><trkpt lat="43.139233992918996" lon="-2.4789271978511227"><ele>368.79999999999995</ele><time>2026-04-30T10:38:49.002Z</time></trkpt><trkpt lat="43.13933222432741" lon="-2.479023531925871"><ele>371.4</ele><time>2026-04-30T10:38:51.002Z</time></trkpt><trkpt lat="43.13942108222256" lon="-2.47913541466813"><ele>374.0</ele><time>2026-04-30T10:38:53.002Z</time></trkpt><trkpt lat="43.139507027802864" lon="-2.479254727327346"><ele>374.0</ele><time>2026-04-30T10:38:55.002Z</time></trkpt><trkpt lat="43.13954943980332" lon="-2.479321671294973"><ele>374.0</ele><time>2026-04-30T10:38:56.002Z</time></trkpt><trkpt lat="43.139591674393444" lon="-2.4793859012562933"><ele>374.0</ele><time>2026-04-30T10:38:57.002Z</time></trkpt><trkpt lat="43.13963829176964" lon="-2.479444283867045"><ele>374.0</ele><time>2026-04-30T10:38:58.002Z</time></trkpt><trkpt lat="43.13968152442463" lon="-2.479510232384585"><ele>374.0</ele><time>2026-04-30T10:38:59.002Z</time></trkpt><trkpt lat="43.13972374154772" lon="-2.479579572264079"><ele>374.0</ele><time>2026-04-30T10:39:00.002Z</time></trkpt><trkpt lat="43.139809691163016" lon="-2.4797002112362536"><ele>374.0</ele><time>2026-04-30T10:39:02.002Z</time></trkpt><trkpt lat="43.139891058945295" lon="-2.4798341773338453"><ele>376.6</ele><time>2026-04-30T10:39:04.002Z</time></trkpt><trkpt lat="43.139968582792854" lon="-2.4799500531518177"><ele>379.2</ele><time>2026-04-30T10:39:06.002Z</time></trkpt><trkpt lat="43.140049059938704" lon="-2.480058045350291"><ele>381.8</ele><time>2026-04-30T10:39:08.002Z</time></trkpt><trkpt lat="43.14006491597978" lon="-2.4801435360285877"><ele>384.40000000000003</ele><time>2026-04-30T10:39:09.002Z</time></trkpt><trkpt lat="43.140147447319556" lon="-2.4802485431152483"><ele>387.0</ele><time>2026-04-30T10:39:11.002Z</time></trkpt><trkpt lat="43.14022389930688" lon="-2.4803626708844617"><ele>390.8</ele><time>2026-04-30T10:39:13.002Z</time></trkpt><trkpt lat="43.140300955613505" lon="-2.4804720282164605"><ele>394.6</ele><time>2026-04-30T10:39:15.002Z</time></trkpt><trkpt lat="43.14037747201292" lon="-2.480582447596216"><ele>398.40000000000003</ele><time>2026-04-30T10:39:17.002Z</time></trkpt><trkpt lat="43.14045085542925" lon="-2.4806949713622752"><ele>402.20000000000005</ele><time>2026-04-30T10:39:19.002Z</time></trkpt><trkpt lat="43.14051373305052" lon="-2.480822339738826"><ele>406.0</ele><time>2026-04-30T10:39:21.001Z</time></trkpt><trkpt lat="43.140574754637605" lon="-2.480947999910097"><ele>406.0</ele><time>2026-04-30T10:39:23.001Z</time></trkpt><trkpt lat="43.140634301006415" lon="-2.481079690560698"><ele>406.0</ele><time>2026-04-30T10:39:25.001Z</time></trkpt><trkpt lat="43.14070309094102" lon="-2.48120669412323"><ele>406.0</ele><time>2026-04-30T10:39:27.001Z</time></trkpt><trkpt lat="43.14075390963549" lon="-2.4813562243926657"><ele>406.0</ele><time>2026-04-30T10:39:29.001Z</time></trkpt><trkpt lat="43.14081030169204" lon="-2.481490253466862"><ele>405.83333333333337</ele><time>2026-04-30T10:39:31.001Z</time></trkpt><trkpt lat="43.14087599874374" lon="-2.481628581453897"><ele>405.6666666666667</ele><time>2026-04-30T10:39:33.001Z</time></trkpt><trkpt lat="43.140909114665384" lon="-2.4817958155504316"><ele>405.5</ele><time>2026-04-30T10:39:35Z</time></trkpt><trkpt lat="43.14090328055463" lon="-2.481882588590569"><ele>405.33333333333337</ele><time>2026-04-30T10:39:36.001Z</time></trkpt><trkpt lat="43.140871607054464" lon="-2.4819612001466536"><ele>405.1666666666667</ele><time>2026-04-30T10:39:37.001Z</time></trkpt><trkpt lat="43.140820261495" lon="-2.4820291552969267"><ele>405.0</ele><time>2026-04-30T10:39:38.001Z</time></trkpt><trkpt lat="43.14069608219747" lon="-2.4820741890329066"><ele>406.4285714285714</ele><time>2026-04-30T10:39:40.001Z</time></trkpt><trkpt lat="43.14062849550135" lon="-2.482057220115903"><ele>407.85714285714283</ele><time>2026-04-30T10:39:41.001Z</time></trkpt><trkpt lat="43.140565121040254" lon="-2.482008406624146"><ele>409.2857142857143</ele><time>2026-04-30T10:39:42.001Z</time></trkpt><trkpt lat="43.14051208217401" lon="-2.481956491734663"><ele>410.71428571428567</ele><time>2026-04-30T10:39:43.001Z</time></trkpt><trkpt lat="43.14046125340085" lon="-2.481901608038248"><ele>412.14285714285717</ele><time>2026-04-30T10:39:44.001Z</time></trkpt><trkpt lat="43.14041234244457" lon="-2.4818428981171006"><ele>413.57142857142856</ele><time>2026-04-30T10:39:45.001Z</time></trkpt><trkpt lat="43.14036112699254" lon="-2.4817906214224306"><ele>415.0</ele><time>2026-04-30T10:39:46.001Z</time></trkpt><trkpt lat="43.140309238755876" lon="-2.4817387416376304"><ele>415.0</ele><time>2026-04-30T10:39:47.001Z</time></trkpt><trkpt lat="43.14025580564737" lon="-2.4816878478174735"><ele>415.0</ele><time>2026-04-30T10:39:48.001Z</time></trkpt><trkpt lat="43.14020319847538" lon="-2.481636236068812"><ele>415.0</ele><time>2026-04-30T10:39:49.001Z</time></trkpt><trkpt lat="43.140144626294294" lon="-2.481594612102922"><ele>415.0</ele><time>2026-04-30T10:39:50.001Z</time></trkpt><trkpt lat="43.14008322198344" lon="-2.481564487727796"><ele>415.0</ele><time>2026-04-30T10:39:51.001Z</time></trkpt><trkpt lat="43.14001925997947" lon="-2.481536222209541"><ele>415.0</ele><time>2026-04-30T10:39:52.001Z</time></trkpt><trkpt lat="43.13995571860283" lon="-2.4815231372790696"><ele>415.0</ele><time>2026-04-30T10:39:53.001Z</time></trkpt><trkpt lat="43.13989139682445" lon="-2.481514767843202"><ele>415.1666666666667</ele><time>2026-04-30T10:39:54.001Z</time></trkpt><trkpt lat="43.13982741024366" lon="-2.4815132077771023"><ele>415.33333333333337</ele><time>2026-04-30T10:39:55.001Z</time></trkpt><trkpt lat="43.13976173205381" lon="-2.481518127228736"><ele>415.5</ele><time>2026-04-30T10:39:56.001Z</time></trkpt><trkpt lat="43.139697891254414" lon="-2.4815348531193524"><ele>415.66666666666663</ele><time>2026-04-30T10:39:57.001Z</time></trkpt><trkpt lat="43.13963734028595" lon="-2.481560747727452"><ele>415.8333333333333</ele><time>2026-04-30T10:39:58.001Z</time></trkpt><trkpt lat="43.13952239540879" lon="-2.4816285511939733"><ele>416.0</ele><time>2026-04-30T10:40:00.001Z</time></trkpt><trkpt lat="43.139417056183305" lon="-2.481715442344277"><ele>415.99999999999994</ele><time>2026-04-30T10:40:02.001Z</time></trkpt><trkpt lat="43.13932113733162" lon="-2.481825596914983"><ele>416.0</ele><time>2026-04-30T10:40:04.001Z</time></trkpt><trkpt lat="43.13922833593844" lon="-2.481944708187741"><ele>416.0</ele><time>2026-04-30T10:40:06.001Z</time></trkpt><trkpt lat="43.13917991957434" lon="-2.4820024806938195"><ele>416.0</ele><time>2026-04-30T10:40:07.001Z</time></trkpt><trkpt lat="43.139129714564625" lon="-2.4820591875908473"><ele>415.99999999999994</ele><time>2026-04-30T10:40:08.001Z</time></trkpt><trkpt lat="43.139080151798744" lon="-2.4821194706849843"><ele>416.0</ele><time>2026-04-30T10:40:09.001Z</time></trkpt><trkpt lat="43.1390338564492" lon="-2.4821788593374086"><ele>416.20000000000005</ele><time>2026-04-30T10:40:10.001Z</time></trkpt><trkpt lat="43.138940018946734" lon="-2.48229583675986"><ele>416.40000000000003</ele><time>2026-04-30T10:40:12.001Z</time></trkpt><trkpt lat="43.13890024028188" lon="-2.482363529886986"><ele>416.6</ele><time>2026-04-30T10:40:13.001Z</time></trkpt><trkpt lat="43.13882804200133" lon="-2.482503631063135"><ele>416.8</ele><time>2026-04-30T10:40:15.001Z</time></trkpt><trkpt lat="43.138762728613116" lon="-2.482650405033333"><ele>417.0</ele><time>2026-04-30T10:40:17.001Z</time></trkpt><trkpt lat="43.13873204281874" lon="-2.4827259547051233"><ele>417.0</ele><time>2026-04-30T10:40:18.001Z</time></trkpt><trkpt lat="43.13870620833074" lon="-2.4828052162580145"><ele>417.0</ele><time>2026-04-30T10:40:19.001Z</time></trkpt><trkpt lat="43.138683188918655" lon="-2.4828860577172813"><ele>417.0</ele><time>2026-04-30T10:40:20.001Z</time></trkpt><trkpt lat="43.13865681641895" lon="-2.48296908437632"><ele>417.0</ele><time>2026-04-30T10:40:21.001Z</time></trkpt><trkpt lat="43.13859902590486" lon="-2.483125784522941"><ele>417.0</ele><time>2026-04-30T10:40:23.001Z</time></trkpt><trkpt lat="43.13854008049978" lon="-2.483281438408864"><ele>417.0</ele><time>2026-04-30T10:40:25.001Z</time></trkpt><trkpt lat="43.13847859062613" lon="-2.4834307819343513"><ele>420.75</ele><time>2026-04-30T10:40:27.001Z</time></trkpt><trkpt lat="43.1384105209954" lon="-2.483574708522222"><ele>424.5</ele><time>2026-04-30T10:40:29.001Z</time></trkpt><trkpt lat="43.13835745585317" lon="-2.4837249187962067"><ele>428.25</ele><time>2026-04-30T10:40:31.001Z</time></trkpt><trkpt lat="43.138308283746504" lon="-2.4838775172719956"><ele>432.0</ele><time>2026-04-30T10:40:33.001Z</time></trkpt><trkpt lat="43.13826428509296" lon="-2.4840349241697526"><ele>430.6666666666667</ele><time>2026-04-30T10:40:35.001Z</time></trkpt><trkpt lat="43.13824127182201" lon="-2.4841155457486037"><ele>429.33333333333337</ele><time>2026-04-30T10:40:36.001Z</time></trkpt><trkpt lat="43.138201902166706" lon="-2.484283955475701"><ele>428.0</ele><time>2026-04-30T10:40:38.002Z</time></trkpt><trkpt lat="43.13818428902081" lon="-2.484368601311975"><ele>426.6666666666667</ele><time>2026-04-30T10:40:39.002Z</time></trkpt><trkpt lat="43.13816909329041" lon="-2.4844524274910915"><ele>425.33333333333337</ele><time>2026-04-30T10:40:40.002Z</time></trkpt><trkpt lat="43.13814852267014" lon="-2.484543409979989"><ele>424.0</ele><time>2026-04-30T10:40:41.002Z</time></trkpt><trkpt lat="43.13812770409925" lon="-2.4846501250993236"><ele>426.7142857142857</ele><time>2026-04-30T10:40:42.002Z</time></trkpt><trkpt lat="43.13810722577666" lon="-2.4847411202731102"><ele>429.4285714285714</ele><time>2026-04-30T10:40:43.002Z</time></trkpt><trkpt lat="43.13808416315984" lon="-2.4848351527534036"><ele>432.1428571428571</ele><time>2026-04-30T10:40:44.002Z</time></trkpt><trkpt lat="43.13805380314924" lon="-2.484927203482017"><ele>434.8571428571429</ele><time>2026-04-30T10:40:45.002Z</time></trkpt><trkpt lat="43.138024262803825" lon="-2.4850200903680624"><ele>437.57142857142856</ele><time>2026-04-30T10:40:46.002Z</time></trkpt><trkpt lat="43.137995410482546" lon="-2.485108690595674"><ele>440.2857142857143</ele><time>2026-04-30T10:40:47.002Z</time></trkpt><trkpt lat="43.137959134956695" lon="-2.485190550359477"><ele>443.0</ele><time>2026-04-30T10:40:48.002Z</time></trkpt><trkpt lat="43.13790763596164" lon="-2.485261837431506"><ele>442.99999999999994</ele><time>2026-04-30T10:40:49.002Z</time></trkpt><trkpt lat="43.13784874905511" lon="-2.485326907978604"><ele>443.0</ele><time>2026-04-30T10:40:50.002Z</time></trkpt><trkpt lat="43.13779185645928" lon="-2.4853837098802893"><ele>443.0</ele><time>2026-04-30T10:40:51.002Z</time></trkpt><trkpt lat="43.1377253058212" lon="-2.4854282683069306"><ele>443.0</ele><time>2026-04-30T10:40:52.002Z</time></trkpt><trkpt lat="43.1376629330288" lon="-2.4854699196574312"><ele>442.99999999999994</ele><time>2026-04-30T10:40:53.002Z</time></trkpt><trkpt lat="43.137548236400086" lon="-2.4855290275568374"><ele>443.0</ele><time>2026-04-30T10:40:55.002Z</time></trkpt><trkpt lat="43.13743784195842" lon="-2.4856065315122895"><ele>444.3333333333333</ele><time>2026-04-30T10:40:57.002Z</time></trkpt><trkpt lat="43.13734529254935" lon="-2.485718197408346"><ele>445.66666666666663</ele><time>2026-04-30T10:40:59.002Z</time></trkpt><trkpt lat="43.13729821525029" lon="-2.4857790595846496"><ele>447.0</ele><time>2026-04-30T10:41:00.002Z</time></trkpt><trkpt lat="43.13724574029262" lon="-2.4858376597849032"><ele>448.33333333333337</ele><time>2026-04-30T10:41:01.002Z</time></trkpt><trkpt lat="43.137189751803504" lon="-2.4859001166641934"><ele>449.6666666666667</ele><time>2026-04-30T10:41:02.002Z</time></trkpt><trkpt lat="43.137129828749295" lon="-2.4859544080581335"><ele>451.0</ele><time>2026-04-30T10:41:03.002Z</time></trkpt><trkpt lat="43.137029689859396" lon="-2.4860391734306004"><ele>451.00000000000006</ele><time>2026-04-30T10:41:05.002Z</time></trkpt><trkpt lat="43.13694298034891" lon="-2.486123906129381"><ele>451.0</ele><time>2026-04-30T10:41:07.002Z</time></trkpt><trkpt lat="43.13688461295048" lon="-2.4861925892736645"><ele>451.0</ele><time>2026-04-30T10:41:09.002Z</time></trkpt><trkpt lat="43.136831583184836" lon="-2.486252941349764"><ele>451.0</ele><time>2026-04-30T10:41:12.002Z</time></trkpt><trkpt lat="43.136776649280065" lon="-2.4863185087444872"><ele>451.00000000000006</ele><time>2026-04-30T10:41:14.002Z</time></trkpt><trkpt lat="43.136707843999304" lon="-2.4864130562907074"><ele>451.0</ele><time>2026-04-30T10:41:16.002Z</time></trkpt><trkpt lat="43.13664703501468" lon="-2.486557843179383"><ele>452.85714285714283</ele><time>2026-04-30T10:41:18.002Z</time></trkpt><trkpt lat="43.136624321368814" lon="-2.486644502253122"><ele>454.7142857142858</ele><time>2026-04-30T10:41:19.002Z</time></trkpt><trkpt lat="43.13660944769709" lon="-2.486730797618342"><ele>456.5714285714286</ele><time>2026-04-30T10:41:20.002Z</time></trkpt><trkpt lat="43.13660679608854" lon="-2.486837295651981"><ele>458.42857142857144</ele><time>2026-04-30T10:41:21.002Z</time></trkpt><trkpt lat="43.136605863587235" lon="-2.486926112147637"><ele>460.28571428571433</ele><time>2026-04-30T10:41:22.002Z</time></trkpt><trkpt lat="43.13660194240699" lon="-2.4870166246920284"><ele>462.1428571428572</ele><time>2026-04-30T10:41:23.002Z</time></trkpt><trkpt lat="43.136597398732434" lon="-2.487103726553932"><ele>464.00000000000006</ele><time>2026-04-30T10:41:24.002Z</time></trkpt><trkpt lat="43.13659042147217" lon="-2.487196462923732"><ele>465.4</ele><time>2026-04-30T10:41:25.002Z</time></trkpt><trkpt lat="43.136588561105654" lon="-2.4872889999919403"><ele>466.79999999999995</ele><time>2026-04-30T10:41:26.002Z</time></trkpt><trkpt lat="43.13659971539763" lon="-2.4874344131318655"><ele>468.20000000000005</ele><time>2026-04-30T10:41:28.001Z</time></trkpt><trkpt lat="43.136630300289426" lon="-2.4875833257034485"><ele>469.6</ele><time>2026-04-30T10:41:30.001Z</time></trkpt><trkpt lat="43.136680747666105" lon="-2.4877343405746877"><ele>471.0</ele><time>2026-04-30T10:41:32.001Z</time></trkpt><trkpt lat="43.13671389532642" lon="-2.4878120801436303"><ele>471.00000000000006</ele><time>2026-04-30T10:41:33.001Z</time></trkpt><trkpt lat="43.136747532330205" lon="-2.487889051918895"><ele>471.0</ele><time>2026-04-30T10:41:34.001Z</time></trkpt><trkpt lat="43.136782187602215" lon="-2.4879702102839754"><ele>471.00000000000006</ele><time>2026-04-30T10:41:35.001Z</time></trkpt><trkpt lat="43.13680848934998" lon="-2.4880616664706987"><ele>471.00000000000006</ele><time>2026-04-30T10:41:36.001Z</time></trkpt><trkpt lat="43.136836526395875" lon="-2.4881652002489534"><ele>471.0</ele><time>2026-04-30T10:41:37.001Z</time></trkpt><trkpt lat="43.13686136001099" lon="-2.488264935524076"><ele>471.00000000000006</ele><time>2026-04-30T10:41:38.001Z</time></trkpt><trkpt lat="43.136884797141974" lon="-2.4883600231831444"><ele>471.00000000000006</ele><time>2026-04-30T10:41:39.001Z</time></trkpt><trkpt lat="43.13691159675006" lon="-2.488471095531578"><ele>469.8333333333333</ele><time>2026-04-30T10:41:40.001Z</time></trkpt><trkpt lat="43.13694301794442" lon="-2.4885739111086096"><ele>468.66666666666663</ele><time>2026-04-30T10:41:41.001Z</time></trkpt><trkpt lat="43.13697342538515" lon="-2.488667138745843"><ele>467.5</ele><time>2026-04-30T10:41:42.001Z</time></trkpt><trkpt lat="43.137007701207835" lon="-2.488755957133127"><ele>466.3333333333333</ele><time>2026-04-30T10:41:43.001Z</time></trkpt><trkpt lat="43.13705785365996" lon="-2.4888353772435914"><ele>465.16666666666663</ele><time>2026-04-30T10:41:44.001Z</time></trkpt><trkpt lat="43.137101930858094" lon="-2.4889224400557897"><ele>464.0</ele><time>2026-04-30T10:41:45.001Z</time></trkpt><trkpt lat="43.13717392175826" lon="-2.488986153388285"><ele>463.66666666666663</ele><time>2026-04-30T10:41:46.001Z</time></trkpt><trkpt lat="43.13720938762312" lon="-2.4890801683741928"><ele>463.3333333333333</ele><time>2026-04-30T10:41:47.001Z</time></trkpt><trkpt lat="43.1372298509639" lon="-2.489194757491341"><ele>463.0</ele><time>2026-04-30T10:41:48.001Z</time></trkpt><trkpt lat="43.13723196860372" lon="-2.4893117931045894"><ele>462.66666666666663</ele><time>2026-04-30T10:41:49.001Z</time></trkpt><trkpt lat="43.13720016889716" lon="-2.4894279534678945"><ele>462.3333333333333</ele><time>2026-04-30T10:41:50.001Z</time></trkpt><trkpt lat="43.13721125714177" lon="-2.489549074875588"><ele>462.0</ele><time>2026-04-30T10:41:51.001Z</time></trkpt><trkpt lat="43.1372085098692" lon="-2.4896731101641265"><ele>463.6</ele><time>2026-04-30T10:41:52.001Z</time></trkpt><trkpt lat="43.1372131283146" lon="-2.489794865165851"><ele>465.20000000000005</ele><time>2026-04-30T10:41:53.001Z</time></trkpt><trkpt lat="43.13719731459619" lon="-2.4899106485573874"><ele>466.8</ele><time>2026-04-30T10:41:54.001Z</time></trkpt><trkpt lat="43.13725853014043" lon="-2.4900241078982237"><ele>468.4</ele><time>2026-04-30T10:41:55.001Z</time></trkpt><trkpt lat="43.137286653047795" lon="-2.490137263945831"><ele>470.0</ele><time>2026-04-30T10:41:56.001Z</time></trkpt><trkpt lat="43.13731368312344" lon="-2.490246892212934"><ele>469.99999999999994</ele><time>2026-04-30T10:41:57.001Z</time></trkpt><trkpt lat="43.137339451003044" lon="-2.490358440036461"><ele>470.0</ele><time>2026-04-30T10:41:58.001Z</time></trkpt><trkpt lat="43.13736467665135" lon="-2.490471768787643"><ele>470.0</ele><time>2026-04-30T10:41:59.001Z</time></trkpt><trkpt lat="43.137392125956936" lon="-2.4905828363115674"><ele>470.0</ele><time>2026-04-30T10:42:00.001Z</time></trkpt><trkpt lat="43.13741814143287" lon="-2.490695031298601"><ele>469.99999999999994</ele><time>2026-04-30T10:42:01.001Z</time></trkpt><trkpt lat="43.137444259708985" lon="-2.4908092665555555"><ele>470.0</ele><time>2026-04-30T10:42:02.001Z</time></trkpt><trkpt lat="43.13747332389489" lon="-2.4909245902511197"><ele>469.2</ele><time>2026-04-30T10:42:03.001Z</time></trkpt><trkpt lat="43.13750391885036" lon="-2.4910431834781166"><ele>468.4</ele><time>2026-04-30T10:42:04.001Z</time></trkpt><trkpt lat="43.137530340253726" lon="-2.491160028022396"><ele>467.6</ele><time>2026-04-30T10:42:05.001Z</time></trkpt><trkpt lat="43.13755698721043" lon="-2.491281129275957"><ele>466.8</ele><time>2026-04-30T10:42:06.001Z</time></trkpt><trkpt lat="43.13758419365961" lon="-2.4914012172993636"><ele>466.0</ele><time>2026-04-30T10:42:07.001Z</time></trkpt><trkpt lat="43.13761056721344" lon="-2.4915220902704336"><ele>466.0</ele><time>2026-04-30T10:42:08.001Z</time></trkpt><trkpt lat="43.13763481887349" lon="-2.4916501616980127"><ele>466.0</ele><time>2026-04-30T10:42:09.001Z</time></trkpt><trkpt lat="43.137660650553734" lon="-2.491773476437212"><ele>466.0</ele><time>2026-04-30T10:42:10.001Z</time></trkpt><trkpt lat="43.13768494894643" lon="-2.4919009617553294"><ele>466.0</ele><time>2026-04-30T10:42:11.001Z</time></trkpt><trkpt lat="43.13770548858439" lon="-2.4920319412643197"><ele>466.0</ele><time>2026-04-30T10:42:12.001Z</time></trkpt><trkpt lat="43.137727157278626" lon="-2.492166957360604"><ele>466.0</ele><time>2026-04-30T10:42:13.001Z</time></trkpt><trkpt lat="43.13775018483719" lon="-2.4923006516598956"><ele>466.0</ele><time>2026-04-30T10:42:14.001Z</time></trkpt><trkpt lat="43.13777472758373" lon="-2.492439653118351"><ele>466.0</ele><time>2026-04-30T10:42:15.001Z</time></trkpt><trkpt lat="43.13780158956225" lon="-2.4925787144317306"><ele>466.0</ele><time>2026-04-30T10:42:16.001Z</time></trkpt><trkpt lat="43.13783005131334" lon="-2.492720905847322"><ele>466.0</ele><time>2026-04-30T10:42:17.001Z</time></trkpt><trkpt lat="43.13785610584131" lon="-2.492858748711742"><ele>466.6</ele><time>2026-04-30T10:42:18.001Z</time></trkpt><trkpt lat="43.137884456148534" lon="-2.493003278930281"><ele>467.20000000000005</ele><time>2026-04-30T10:42:19.001Z</time></trkpt><trkpt lat="43.13791553213026" lon="-2.493142506534592"><ele>467.79999999999995</ele><time>2026-04-30T10:42:20.001Z</time></trkpt><trkpt lat="43.13794608322037" lon="-2.4932744835873946"><ele>468.4</ele><time>2026-04-30T10:42:21.001Z</time></trkpt><trkpt lat="43.13798436952514" lon="-2.4934013385698925"><ele>469.0</ele><time>2026-04-30T10:42:22.001Z</time></trkpt><trkpt lat="43.138027377023604" lon="-2.493507405772019"><ele>469.00000000000006</ele><time>2026-04-30T10:42:23.001Z</time></trkpt><trkpt lat="43.13806643843339" lon="-2.493607830395684"><ele>469.0</ele><time>2026-04-30T10:42:24.001Z</time></trkpt><trkpt lat="43.13810309466467" lon="-2.4937066591521875"><ele>469.0</ele><time>2026-04-30T10:42:25.001Z</time></trkpt><trkpt lat="43.13813449212422" lon="-2.493808848730065"><ele>469.0</ele><time>2026-04-30T10:42:26.001Z</time></trkpt><trkpt lat="43.13815989518588" lon="-2.4939106253965284"><ele>469.00000000000006</ele><time>2026-04-30T10:42:27.001Z</time></trkpt><trkpt lat="43.13817843136685" lon="-2.4940109148249237"><ele>469.0</ele><time>2026-04-30T10:42:28.001Z</time></trkpt><trkpt lat="43.13819322390015" lon="-2.4941196699921133"><ele>469.1666666666667</ele><time>2026-04-30T10:42:29.001Z</time></trkpt><trkpt lat="43.138206382729464" lon="-2.49422913682946"><ele>469.33333333333337</ele><time>2026-04-30T10:42:30.001Z</time></trkpt><trkpt lat="43.138215155221" lon="-2.4943411774986908"><ele>469.5</ele><time>2026-04-30T10:42:31.001Z</time></trkpt><trkpt lat="43.13822032418171" lon="-2.494457042147957"><ele>469.66666666666663</ele><time>2026-04-30T10:42:32.001Z</time></trkpt><trkpt lat="43.13822567034813" lon="-2.4945702710606454"><ele>469.8333333333333</ele><time>2026-04-30T10:42:33.001Z</time></trkpt><trkpt lat="43.13822727339067" lon="-2.4946948578497365"><ele>470.0</ele><time>2026-04-30T10:42:34.001Z</time></trkpt><trkpt lat="43.13822689790755" lon="-2.494820687021892"><ele>470.0</ele><time>2026-04-30T10:42:35.001Z</time></trkpt><trkpt lat="43.13823095470501" lon="-2.494948676025122"><ele>470.0</ele><time>2026-04-30T10:42:36.001Z</time></trkpt><trkpt lat="43.13823473443323" lon="-2.495076482071561"><ele>470.0</ele><time>2026-04-30T10:42:37.001Z</time></trkpt><trkpt lat="43.13823532419955" lon="-2.495209616940714"><ele>470.0</ele><time>2026-04-30T10:42:38.001Z</time></trkpt><trkpt lat="43.13823502356343" lon="-2.4953413694296875"><ele>470.0</ele><time>2026-04-30T10:42:39.002Z</time></trkpt><trkpt lat="43.138239385729925" lon="-2.495477332065497"><ele>470.4</ele><time>2026-04-30T10:42:40.002Z</time></trkpt><trkpt lat="43.13823933174534" lon="-2.4956137370629725"><ele>470.8</ele><time>2026-04-30T10:42:41.002Z</time></trkpt><trkpt lat="43.13823566156913" lon="-2.4957428152514933"><ele>471.20000000000005</ele><time>2026-04-30T10:42:42.002Z</time></trkpt><trkpt lat="43.138233591199246" lon="-2.4958852388588557"><ele>471.6</ele><time>2026-04-30T10:42:43.002Z</time></trkpt><trkpt lat="43.1382190779018" lon="-2.4960343589915692"><ele>472.0</ele><time>2026-04-30T10:42:44.002Z</time></trkpt><trkpt lat="43.1381923175134" lon="-2.4961820752570154"><ele>471.6</ele><time>2026-04-30T10:42:45.002Z</time></trkpt><trkpt lat="43.1381982994978" lon="-2.4963034225350924"><ele>471.20000000000005</ele><time>2026-04-30T10:42:46.002Z</time></trkpt><trkpt lat="43.138186249770456" lon="-2.4964468380912717"><ele>470.8</ele><time>2026-04-30T10:42:47.002Z</time></trkpt><trkpt lat="43.13818120110273" lon="-2.496590104820467"><ele>470.4</ele><time>2026-04-30T10:42:48.002Z</time></trkpt><trkpt lat="43.13818563778453" lon="-2.496734995287874"><ele>470.0</ele><time>2026-04-30T10:42:49.002Z</time></trkpt><trkpt lat="43.13822521101353" lon="-2.4968709560336855"><ele>470.0</ele><time>2026-04-30T10:42:50.002Z</time></trkpt><trkpt lat="43.13828035006509" lon="-2.49698326304234"><ele>470.0</ele><time>2026-04-30T10:42:51.002Z</time></trkpt><trkpt lat="43.1383380294655" lon="-2.4970875698207546"><ele>470.0</ele><time>2026-04-30T10:42:52.002Z</time></trkpt><trkpt lat="43.138382333029064" lon="-2.497196814369517"><ele>470.0</ele><time>2026-04-30T10:42:53.002Z</time></trkpt><trkpt lat="43.138415368350515" lon="-2.4973155238350917"><ele>470.0</ele><time>2026-04-30T10:42:54.002Z</time></trkpt><trkpt lat="43.13843639344186" lon="-2.4974329818707033"><ele>470.6</ele><time>2026-04-30T10:42:55.002Z</time></trkpt><trkpt lat="43.13844792070668" lon="-2.497549167624143"><ele>471.2</ele><time>2026-04-30T10:42:56.002Z</time></trkpt><trkpt lat="43.13845064677292" lon="-2.497670834137373"><ele>471.79999999999995</ele><time>2026-04-30T10:42:57.002Z</time></trkpt><trkpt lat="43.138443565196674" lon="-2.4977961441306817"><ele>472.4</ele><time>2026-04-30T10:42:58.002Z</time></trkpt><trkpt lat="43.13842634807884" lon="-2.4979174999733296"><ele>473.0</ele><time>2026-04-30T10:42:59.002Z</time></trkpt><trkpt lat="43.13839511801488" lon="-2.4980381287957014"><ele>473.49999999999994</ele><time>2026-04-30T10:43:00.002Z</time></trkpt><trkpt lat="43.13836574431268" lon="-2.4981439523664477"><ele>474.0</ele><time>2026-04-30T10:43:01.002Z</time></trkpt><trkpt lat="43.13834798012207" lon="-2.4982505665313655"><ele>474.5</ele><time>2026-04-30T10:43:02.002Z</time></trkpt><trkpt lat="43.1383493418019" lon="-2.498366993756614"><ele>475.0</ele><time>2026-04-30T10:43:03.002Z</time></trkpt><trkpt lat="43.13837777136528" lon="-2.4984825499018917"><ele>475.49999999999994</ele><time>2026-04-30T10:43:04.002Z</time></trkpt><trkpt lat="43.13842846338406" lon="-2.4985741334608185"><ele>476.0</ele><time>2026-04-30T10:43:05.002Z</time></trkpt><trkpt lat="43.13849804657282" lon="-2.4986355499436805"><ele>475.99999999999994</ele><time>2026-04-30T10:43:06.002Z</time></trkpt><trkpt lat="43.138595743180126" lon="-2.498668024523099"><ele>476.0</ele><time>2026-04-30T10:43:07.002Z</time></trkpt><trkpt lat="43.138663044141396" lon="-2.4986799885361277"><ele>476.0</ele><time>2026-04-30T10:43:08.002Z</time></trkpt><trkpt lat="43.13873591058308" lon="-2.498696409623753"><ele>476.0</ele><time>2026-04-30T10:43:09.002Z</time></trkpt><trkpt lat="43.138829315859326" lon="-2.4987066515616405"><ele>475.99999999999994</ele><time>2026-04-30T10:43:10.002Z</time></trkpt><trkpt lat="43.13890615140853" lon="-2.4986955521050547"><ele>476.0</ele><time>2026-04-30T10:43:11.002Z</time></trkpt><trkpt lat="43.138999019826294" lon="-2.498703648843092"><ele>476.3333333333333</ele><time>2026-04-30T10:43:12.002Z</time></trkpt><trkpt lat="43.139086174839434" lon="-2.498711371014623"><ele>476.66666666666663</ele><time>2026-04-30T10:43:13.002Z</time></trkpt><trkpt lat="43.139169762179314" lon="-2.498740734312907"><ele>477.0</ele><time>2026-04-30T10:43:14.002Z</time></trkpt><trkpt lat="43.13924782511308" lon="-2.498783244621958"><ele>477.33333333333337</ele><time>2026-04-30T10:43:15.002Z</time></trkpt><trkpt lat="43.13932392038698" lon="-2.4988406629576856"><ele>477.6666666666667</ele><time>2026-04-30T10:43:16.002Z</time></trkpt><trkpt lat="43.13938636924687" lon="-2.4989175344764467"><ele>478.0</ele><time>2026-04-30T10:43:17.002Z</time></trkpt><trkpt lat="43.13943439353444" lon="-2.499019748535111"><ele>478.0</ele><time>2026-04-30T10:43:18.002Z</time></trkpt><trkpt lat="43.13947833948391" lon="-2.4991252578105385"><ele>477.99999999999994</ele><time>2026-04-30T10:43:19.002Z</time></trkpt><trkpt lat="43.13951582102578" lon="-2.4992402269347913"><ele>477.99999999999994</ele><time>2026-04-30T10:43:20.002Z</time></trkpt><trkpt lat="43.13954469465257" lon="-2.4993521281537676"><ele>478.0</ele><time>2026-04-30T10:43:21.002Z</time></trkpt><trkpt lat="43.13957626433233" lon="-2.4994688687660567"><ele>478.0</ele><time>2026-04-30T10:43:22.002Z</time></trkpt><trkpt lat="43.139609248343476" lon="-2.499586306223624"><ele>477.79999999999995</ele><time>2026-04-30T10:43:23.002Z</time></trkpt><trkpt lat="43.13964582640786" lon="-2.4997041136286837"><ele>477.59999999999997</ele><time>2026-04-30T10:43:24.002Z</time></trkpt><trkpt lat="43.13969174767587" lon="-2.4998120166328683"><ele>477.40000000000003</ele><time>2026-04-30T10:43:25.002Z</time></trkpt><trkpt lat="43.139754160250206" lon="-2.4999022873172376"><ele>477.20000000000005</ele><time>2026-04-30T10:43:26.002Z</time></trkpt><trkpt lat="43.13982577347942" lon="-2.499984822050474"><ele>477.0</ele><time>2026-04-30T10:43:27.002Z</time></trkpt><trkpt lat="43.139894155951566" lon="-2.500063987490431"><ele>477.0</ele><time>2026-04-30T10:43:28.002Z</time></trkpt><trkpt lat="43.13995793790941" lon="-2.500145666392286"><ele>477.00000000000006</ele><time>2026-04-30T10:43:29.002Z</time></trkpt><trkpt lat="43.140017622633145" lon="-2.500235364181846"><ele>477.00000000000006</ele><time>2026-04-30T10:43:30.002Z</time></trkpt><trkpt lat="43.1400745599447" lon="-2.5003314341622023"><ele>477.0</ele><time>2026-04-30T10:43:31.002Z</time></trkpt><trkpt lat="43.14012262109096" lon="-2.500434757591381"><ele>477.0</ele><time>2026-04-30T10:43:32.002Z</time></trkpt><trkpt lat="43.14016519996381" lon="-2.5005536771029413"><ele>478.0</ele><time>2026-04-30T10:43:33.001Z</time></trkpt><trkpt lat="43.140204790927555" lon="-2.5006692821689525"><ele>479.00000000000006</ele><time>2026-04-30T10:43:34.001Z</time></trkpt><trkpt lat="43.14024031153472" lon="-2.5007838637393354"><ele>480.00000000000006</ele><time>2026-04-30T10:43:35.001Z</time></trkpt><trkpt lat="43.140271286512636" lon="-2.5009058063246004"><ele>481.0</ele><time>2026-04-30T10:43:36.001Z</time></trkpt><trkpt lat="43.14029449252288" lon="-2.5010379738828865"><ele>482.0</ele><time>2026-04-30T10:43:37.001Z</time></trkpt><trkpt lat="43.1403117628059" lon="-2.501169123104715"><ele>481.40000000000003</ele><time>2026-04-30T10:43:38.001Z</time></trkpt><trkpt lat="43.14031883541336" lon="-2.5013057011373996"><ele>480.80000000000007</ele><time>2026-04-30T10:43:39.001Z</time></trkpt><trkpt lat="43.14031222151413" lon="-2.501446098321839"><ele>480.2</ele><time>2026-04-30T10:43:40.001Z</time></trkpt><trkpt lat="43.140300083285595" lon="-2.5015854170633753"><ele>479.6</ele><time>2026-04-30T10:43:41.001Z</time></trkpt><trkpt lat="43.14028498119653" lon="-2.501728813507051"><ele>479.0</ele><time>2026-04-30T10:43:42.001Z</time></trkpt><trkpt lat="43.1402656792557" lon="-2.501875090994977"><ele>479.0</ele><time>2026-04-30T10:43:43.001Z</time></trkpt><trkpt lat="43.140244350255" lon="-2.50201993222178"><ele>479.0</ele><time>2026-04-30T10:43:44.001Z</time></trkpt><trkpt lat="43.14022831587137" lon="-2.5021547225411336"><ele>479.0</ele><time>2026-04-30T10:43:45.001Z</time></trkpt><trkpt lat="43.140198260224146" lon="-2.502308506054669"><ele>479.0</ele><time>2026-04-30T10:43:46.001Z</time></trkpt><trkpt lat="43.1401450800686" lon="-2.5024431201563906"><ele>479.0</ele><time>2026-04-30T10:43:47.001Z</time></trkpt><trkpt lat="43.1400992185201" lon="-2.5025918716938196"><ele>479.2</ele><time>2026-04-30T10:43:48.001Z</time></trkpt><trkpt lat="43.14004710532611" lon="-2.5027326330807544"><ele>479.4</ele><time>2026-04-30T10:43:49.001Z</time></trkpt><trkpt lat="43.140009185317275" lon="-2.502870876201592"><ele>479.6</ele><time>2026-04-30T10:43:50.001Z</time></trkpt><trkpt lat="43.1399671180698" lon="-2.5030076814947924"><ele>479.8</ele><time>2026-04-30T10:43:51.001Z</time></trkpt><trkpt lat="43.139918338319156" lon="-2.5031437628664115"><ele>480.0</ele><time>2026-04-30T10:43:52.001Z</time></trkpt><trkpt lat="43.13986675849746" lon="-2.503274748908528"><ele>480.0</ele><time>2026-04-30T10:43:53.001Z</time></trkpt><trkpt lat="43.139821718320604" lon="-2.503407768135128"><ele>480.0</ele><time>2026-04-30T10:43:54.001Z</time></trkpt><trkpt lat="43.139780711285475" lon="-2.503537962955216"><ele>480.0</ele><time>2026-04-30T10:43:55.001Z</time></trkpt><trkpt lat="43.13974754075748" lon="-2.5036582214825436"><ele>480.0</ele><time>2026-04-30T10:43:56.001Z</time></trkpt><trkpt lat="43.13974736172058" lon="-2.5037806165095726"><ele>480.0</ele><time>2026-04-30T10:43:57.001Z</time></trkpt><trkpt lat="43.1397584536442" lon="-2.503891336011076"><ele>478.1666666666667</ele><time>2026-04-30T10:43:58.001Z</time></trkpt><trkpt lat="43.13980103614029" lon="-2.503994314992495"><ele>476.33333333333337</ele><time>2026-04-30T10:43:59.001Z</time></trkpt><trkpt lat="43.139864836282" lon="-2.504103203133691"><ele>474.5</ele><time>2026-04-30T10:44:00.001Z</time></trkpt><trkpt lat="43.13993031302069" lon="-2.5041768001080102"><ele>472.6666666666667</ele><time>2026-04-30T10:44:01.001Z</time></trkpt><trkpt lat="43.139998118391" lon="-2.504245233761688"><ele>470.83333333333337</ele><time>2026-04-30T10:44:02.001Z</time></trkpt><trkpt lat="43.14006424785718" lon="-2.504314875195893"><ele>469.0</ele><time>2026-04-30T10:44:03.001Z</time></trkpt><trkpt lat="43.14011651583413" lon="-2.5044032931048696"><ele>468.0</ele><time>2026-04-30T10:44:04.001Z</time></trkpt><trkpt lat="43.1401657433255" lon="-2.5044801673468715"><ele>467.0</ele><time>2026-04-30T10:44:05.001Z</time></trkpt><trkpt lat="43.14020866960959" lon="-2.504567690976853"><ele>466.0</ele><time>2026-04-30T10:44:06.001Z</time></trkpt><trkpt lat="43.14025419568849" lon="-2.5046795503889525"><ele>465.0</ele><time>2026-04-30T10:44:07.001Z</time></trkpt><trkpt lat="43.14030719769087" lon="-2.5048599766200565"><ele>464.0</ele><time>2026-04-30T10:44:08.001Z</time></trkpt><trkpt lat="43.140343536631434" lon="-2.505010337505001"><ele>464.0</ele><time>2026-04-30T10:44:09.001Z</time></trkpt><trkpt lat="43.14039527334901" lon="-2.5051481231724333"><ele>464.0</ele><time>2026-04-30T10:44:11.001Z</time></trkpt><trkpt lat="43.14040915480259" lon="-2.5052762848347077"><ele>464.0</ele><time>2026-04-30T10:44:13.001Z</time></trkpt><trkpt lat="43.140431772386215" lon="-2.5053779291680147"><ele>464.0</ele><time>2026-04-30T10:44:14.001Z</time></trkpt><trkpt lat="43.14044988749637" lon="-2.505493941118498"><ele>464.0</ele><time>2026-04-30T10:44:15.001Z</time></trkpt><trkpt lat="43.14046957606187" lon="-2.505611068344335"><ele>464.99999999999994</ele><time>2026-04-30T10:44:16.001Z</time></trkpt><trkpt lat="43.14048654862445" lon="-2.5057309004827264"><ele>466.0</ele><time>2026-04-30T10:44:17.001Z</time></trkpt><trkpt lat="43.14050432261562" lon="-2.5058513202280506"><ele>467.0</ele><time>2026-04-30T10:44:18.001Z</time></trkpt><trkpt lat="43.14052654699678" lon="-2.5059647930434235"><ele>468.0</ele><time>2026-04-30T10:44:19.001Z</time></trkpt><trkpt lat="43.140556099852446" lon="-2.50608477702518"><ele>468.99999999999994</ele><time>2026-04-30T10:44:20.001Z</time></trkpt><trkpt lat="43.140599228766966" lon="-2.506194220986356"><ele>470.0</ele><time>2026-04-30T10:44:21.001Z</time></trkpt><trkpt lat="43.14064191096426" lon="-2.5062999907113546"><ele>470.16666666666663</ele><time>2026-04-30T10:44:22.001Z</time></trkpt><trkpt lat="43.140684082652086" lon="-2.506401180913365"><ele>470.3333333333333</ele><time>2026-04-30T10:44:23.001Z</time></trkpt><trkpt lat="43.140723859572184" lon="-2.5065092442266033"><ele>470.5</ele><time>2026-04-30T10:44:24.001Z</time></trkpt><trkpt lat="43.14076396747588" lon="-2.5066110042351215"><ele>470.66666666666663</ele><time>2026-04-30T10:44:25.001Z</time></trkpt><trkpt lat="43.14080355635343" lon="-2.5067240398337463"><ele>470.8333333333333</ele><time>2026-04-30T10:44:26.001Z</time></trkpt><trkpt lat="43.14083878087802" lon="-2.5068431461517657"><ele>471.0</ele><time>2026-04-30T10:44:27.001Z</time></trkpt><trkpt lat="43.1408687837978" lon="-2.506967807863979"><ele>469.4</ele><time>2026-04-30T10:44:28.001Z</time></trkpt><trkpt lat="43.140897735297045" lon="-2.5070943871018416"><ele>467.8</ele><time>2026-04-30T10:44:29.001Z</time></trkpt><trkpt lat="43.14093126841922" lon="-2.5072193986571483"><ele>466.19999999999993</ele><time>2026-04-30T10:44:30.001Z</time></trkpt><trkpt lat="43.14096528766126" lon="-2.50734835727086"><ele>464.59999999999997</ele><time>2026-04-30T10:44:31.001Z</time></trkpt><trkpt lat="43.140996232002315" lon="-2.507481570282215"><ele>463.0</ele><time>2026-04-30T10:44:32.001Z</time></trkpt><trkpt lat="43.141029356358544" lon="-2.507614876433101"><ele>463.0</ele><time>2026-04-30T10:44:33.001Z</time></trkpt><trkpt lat="43.141062686556346" lon="-2.5077509348947595"><ele>462.99999999999994</ele><time>2026-04-30T10:44:34.001Z</time></trkpt><trkpt lat="43.1410971499599" lon="-2.5078859408586327"><ele>462.99999999999994</ele><time>2026-04-30T10:44:35.001Z</time></trkpt><trkpt lat="43.14113203524631" lon="-2.5080218019192744"><ele>463.0</ele><time>2026-04-30T10:44:36.001Z</time></trkpt><trkpt lat="43.14116531508603" lon="-2.508158375171904"><ele>463.0</ele><time>2026-04-30T10:44:37.001Z</time></trkpt><trkpt lat="43.14120125157094" lon="-2.508293866036131"><ele>462.79999999999995</ele><time>2026-04-30T10:44:38.001Z</time></trkpt><trkpt lat="43.14123552291229" lon="-2.5084308506244577"><ele>462.59999999999997</ele><time>2026-04-30T10:44:39.001Z</time></trkpt><trkpt lat="43.14126757243348" lon="-2.5085701347045073"><ele>462.40000000000003</ele><time>2026-04-30T10:44:40.001Z</time></trkpt><trkpt lat="43.14130032197893" lon="-2.5087108496328545"><ele>462.20000000000005</ele><time>2026-04-30T10:44:41.001Z</time></trkpt><trkpt lat="43.14133673889352" lon="-2.5088459767277094"><ele>462.0</ele><time>2026-04-30T10:44:42.001Z</time></trkpt><trkpt lat="43.1413699057201" lon="-2.5089849052191195"><ele>461.20000000000005</ele><time>2026-04-30T10:44:43.001Z</time></trkpt><trkpt lat="43.141404968127276" lon="-2.5091233356380815"><ele>460.40000000000003</ele><time>2026-04-30T10:44:44.001Z</time></trkpt><trkpt lat="43.1414405338146" lon="-2.509265116388051"><ele>459.59999999999997</ele><time>2026-04-30T10:44:45.001Z</time></trkpt><trkpt lat="43.141476827434644" lon="-2.509404165166729"><ele>458.79999999999995</ele><time>2026-04-30T10:44:46.001Z</time></trkpt><trkpt lat="43.14151229939571" lon="-2.5095452149412414"><ele>458.0</ele><time>2026-04-30T10:44:47.001Z</time></trkpt><trkpt lat="43.141547132512784" lon="-2.5096876084548314"><ele>458.4</ele><time>2026-04-30T10:44:48.001Z</time></trkpt><trkpt lat="43.14158132081481" lon="-2.5098259710411766"><ele>458.79999999999995</ele><time>2026-04-30T10:44:49.001Z</time></trkpt><trkpt lat="43.14161343079261" lon="-2.509960787758427"><ele>459.2</ele><time>2026-04-30T10:44:50.001Z</time></trkpt><trkpt lat="43.14164213230371" lon="-2.510095343532685"><ele>459.6</ele><time>2026-04-30T10:44:51.001Z</time></trkpt><trkpt lat="43.14166761127115" lon="-2.5102334120254035"><ele>460.0</ele><time>2026-04-30T10:44:52.001Z</time></trkpt><trkpt lat="43.14169729502371" lon="-2.51036519531992"><ele>459.0</ele><time>2026-04-30T10:44:53.001Z</time></trkpt><trkpt lat="43.141725229458274" lon="-2.5104941617454597"><ele>458.0</ele><time>2026-04-30T10:44:54.001Z</time></trkpt><trkpt lat="43.141757350412604" lon="-2.5106247821974725"><ele>457.0</ele><time>2026-04-30T10:44:55.001Z</time></trkpt><trkpt lat="43.14179010797858" lon="-2.5107533050113093"><ele>456.0</ele><time>2026-04-30T10:44:56.001Z</time></trkpt><trkpt lat="43.141821097557816" lon="-2.510879946212707"><ele>455.0</ele><time>2026-04-30T10:44:57.001Z</time></trkpt><trkpt lat="43.141855221218016" lon="-2.511004257417627"><ele>455.0</ele><time>2026-04-30T10:44:58.001Z</time></trkpt><trkpt lat="43.14189473311758" lon="-2.5111246300568246"><ele>455.0</ele><time>2026-04-30T10:44:59.002Z</time></trkpt><trkpt lat="43.141931682118745" lon="-2.51124908973702"><ele>455.0</ele><time>2026-04-30T10:45:00.002Z</time></trkpt><trkpt lat="43.141970519266486" lon="-2.511371578773038"><ele>455.0</ele><time>2026-04-30T10:45:01.002Z</time></trkpt><trkpt lat="43.142005908677305" lon="-2.5114868547849194"><ele>455.0</ele><time>2026-04-30T10:45:02.002Z</time></trkpt><trkpt lat="43.14204608895442" lon="-2.511631673718172"><ele>452.75</ele><time>2026-04-30T10:45:04.002Z</time></trkpt><trkpt lat="43.14211058024077" lon="-2.511884895645808"><ele>450.5</ele><time>2026-04-30T10:45:05.002Z</time></trkpt><trkpt lat="43.142127719420344" lon="-2.5120263732646464"><ele>448.25</ele><time>2026-04-30T10:45:06.002Z</time></trkpt><trkpt lat="43.1421303717629" lon="-2.5121646966431217"><ele>446.0</ele><time>2026-04-30T10:45:07.002Z</time></trkpt><trkpt lat="43.14212036415965" lon="-2.512304326750987"><ele>446.4</ele><time>2026-04-30T10:45:08.002Z</time></trkpt><trkpt lat="43.142099065745256" lon="-2.512436221103161"><ele>446.8</ele><time>2026-04-30T10:45:09.002Z</time></trkpt><trkpt lat="43.14206544023913" lon="-2.5125623590731987"><ele>447.19999999999993</ele><time>2026-04-30T10:45:10.002Z</time></trkpt><trkpt lat="43.14203693646269" lon="-2.5126795465922185"><ele>447.59999999999997</ele><time>2026-04-30T10:45:11.002Z</time></trkpt><trkpt lat="43.14197124756417" lon="-2.512819383057873"><ele>448.0</ele><time>2026-04-30T10:45:12.002Z</time></trkpt><trkpt lat="43.14191427875663" lon="-2.512935067738378"><ele>448.0</ele><time>2026-04-30T10:45:13.002Z</time></trkpt><trkpt lat="43.14186418326859" lon="-2.5130528856030154"><ele>447.99999999999994</ele><time>2026-04-30T10:45:14.002Z</time></trkpt><trkpt lat="43.14183017511922" lon="-2.5131799286270846"><ele>447.99999999999994</ele><time>2026-04-30T10:45:15.002Z</time></trkpt><trkpt lat="43.141813247003114" lon="-2.513311631054832"><ele>448.0</ele><time>2026-04-30T10:45:16.002Z</time></trkpt><trkpt lat="43.14181216776409" lon="-2.5134484464112803"><ele>448.0</ele><time>2026-04-30T10:45:17.002Z</time></trkpt><trkpt lat="43.1418296598912" lon="-2.5135951863872346"><ele>448.0</ele><time>2026-04-30T10:45:18.002Z</time></trkpt><trkpt lat="43.14185937028823" lon="-2.5137376307030137"><ele>447.99999999999994</ele><time>2026-04-30T10:45:19.002Z</time></trkpt><trkpt lat="43.14190211296912" lon="-2.5138700164348227"><ele>447.99999999999994</ele><time>2026-04-30T10:45:20.002Z</time></trkpt><trkpt lat="43.141946314648465" lon="-2.5139993540876318"><ele>448.0</ele><time>2026-04-30T10:45:21.002Z</time></trkpt><trkpt lat="43.142001765131596" lon="-2.5141205335439"><ele>448.0</ele><time>2026-04-30T10:45:22.002Z</time></trkpt><trkpt lat="43.14205027440861" lon="-2.514247050156667"><ele>446.2</ele><time>2026-04-30T10:45:23.002Z</time></trkpt><trkpt lat="43.14208393805762" lon="-2.5143778645440475"><ele>444.4</ele><time>2026-04-30T10:45:24.002Z</time></trkpt><trkpt lat="43.14210100144132" lon="-2.514516629886568"><ele>442.59999999999997</ele><time>2026-04-30T10:45:25.002Z</time></trkpt><trkpt lat="43.14209200477381" lon="-2.5146577442489573"><ele>440.79999999999995</ele><time>2026-04-30T10:45:26.002Z</time></trkpt><trkpt lat="43.14206302336429" lon="-2.514789008054519"><ele>439.0</ele><time>2026-04-30T10:45:27.002Z</time></trkpt><trkpt lat="43.14201208906115" lon="-2.514911748841925"><ele>438.6</ele><time>2026-04-30T10:45:28.002Z</time></trkpt><trkpt lat="43.141948397596025" lon="-2.515024237537105"><ele>438.2</ele><time>2026-04-30T10:45:29.002Z</time></trkpt><trkpt lat="43.14187602086611" lon="-2.5151265567360603"><ele>437.80000000000007</ele><time>2026-04-30T10:45:30.002Z</time></trkpt><trkpt lat="43.14179670362778" lon="-2.515219421703821"><ele>437.40000000000003</ele><time>2026-04-30T10:45:31.002Z</time></trkpt><trkpt lat="43.14171483253489" lon="-2.5153154143668233"><ele>437.0</ele><time>2026-04-30T10:45:32.002Z</time></trkpt><trkpt lat="43.141628574253396" lon="-2.515414721622336"><ele>434.25</ele><time>2026-04-30T10:45:33.002Z</time></trkpt><trkpt lat="43.14152629743083" lon="-2.5155276170112937"><ele>431.5</ele><time>2026-04-30T10:45:34.002Z</time></trkpt><trkpt lat="43.141428492194834" lon="-2.5156057415548347"><ele>428.75</ele><time>2026-04-30T10:45:35.002Z</time></trkpt><trkpt lat="43.14133481369928" lon="-2.5157001926605234"><ele>426.0</ele><time>2026-04-30T10:45:36.002Z</time></trkpt><trkpt lat="43.1412421885021" lon="-2.5157639248328043"><ele>426.0</ele><time>2026-04-30T10:45:37.002Z</time></trkpt><trkpt lat="43.14113762215795" lon="-2.515805711282545"><ele>426.0</ele><time>2026-04-30T10:45:38.002Z</time></trkpt><trkpt lat="43.14103573448702" lon="-2.5158243240551714"><ele>426.0</ele><time>2026-04-30T10:45:39.001Z</time></trkpt><trkpt lat="43.140951202326555" lon="-2.5158816526325563"><ele>426.0</ele><time>2026-04-30T10:45:40.001Z</time></trkpt><trkpt lat="43.140862703936776" lon="-2.5159417150834784"><ele>426.0</ele><time>2026-04-30T10:45:41.001Z</time></trkpt><trkpt lat="43.1407638392928" lon="-2.5160054824545974"><ele>423.20000000000005</ele><time>2026-04-30T10:45:42.001Z</time></trkpt><trkpt lat="43.14068689965325" lon="-2.5161108632243496"><ele>420.40000000000003</ele><time>2026-04-30T10:45:43.001Z</time></trkpt><trkpt lat="43.1406238184264" lon="-2.5162363896207585"><ele>417.6</ele><time>2026-04-30T10:45:44.001Z</time></trkpt><trkpt lat="43.14056971151603" lon="-2.5163711373215585"><ele>414.8</ele><time>2026-04-30T10:45:45.001Z</time></trkpt><trkpt lat="43.140519097106534" lon="-2.5165003810450646"><ele>412.0</ele><time>2026-04-30T10:45:46.001Z</time></trkpt><trkpt lat="43.140465893419844" lon="-2.516637477925201"><ele>412.0</ele><time>2026-04-30T10:45:47.001Z</time></trkpt><trkpt lat="43.140419658936295" lon="-2.516780684598543"><ele>412.0</ele><time>2026-04-30T10:45:48.001Z</time></trkpt><trkpt lat="43.14037124022087" lon="-2.5169236966051565"><ele>412.0</ele><time>2026-04-30T10:45:49.001Z</time></trkpt><trkpt lat="43.140323891676125" lon="-2.517076646072764"><ele>412.0</ele><time>2026-04-30T10:45:50.001Z</time></trkpt><trkpt lat="43.140273095042375" lon="-2.517204683168074"><ele>412.0</ele><time>2026-04-30T10:45:51.001Z</time></trkpt><trkpt lat="43.14025667546195" lon="-2.5173017163584346"><ele>412.0</ele><time>2026-04-30T10:45:52.001Z</time></trkpt><trkpt lat="43.140194407898086" lon="-2.5175183539998196"><ele>412.0</ele><time>2026-04-30T10:45:53.001Z</time></trkpt><trkpt lat="43.14015838950937" lon="-2.517672327827398"><ele>412.0</ele><time>2026-04-30T10:45:54.001Z</time></trkpt><trkpt lat="43.14012135081266" lon="-2.517824623531176"><ele>412.0</ele><time>2026-04-30T10:45:55.001Z</time></trkpt><trkpt lat="43.14008372200599" lon="-2.517974403251101"><ele>412.0</ele><time>2026-04-30T10:45:56.001Z</time></trkpt><trkpt lat="43.140041156153316" lon="-2.518122983591518"><ele>412.0</ele><time>2026-04-30T10:45:57.001Z</time></trkpt><trkpt lat="43.14000019542977" lon="-2.518266604321747"><ele>412.0</ele><time>2026-04-30T10:45:58.001Z</time></trkpt><trkpt lat="43.139960778471945" lon="-2.5184184979094786"><ele>412.0</ele><time>2026-04-30T10:45:59.001Z</time></trkpt><trkpt lat="43.13992383117448" lon="-2.5185748492226447"><ele>412.0</ele><time>2026-04-30T10:46:00.001Z</time></trkpt><trkpt lat="43.139889996011675" lon="-2.51872669871177"><ele>412.0</ele><time>2026-04-30T10:46:01.001Z</time></trkpt><trkpt lat="43.13985811114775" lon="-2.5188820175532936"><ele>412.0</ele><time>2026-04-30T10:46:02.001Z</time></trkpt><trkpt lat="43.139827843717036" lon="-2.5190348741868123"><ele>408.5</ele><time>2026-04-30T10:46:03.001Z</time></trkpt><trkpt lat="43.13980162973198" lon="-2.519188411832978"><ele>405.0</ele><time>2026-04-30T10:46:04.001Z</time></trkpt><trkpt lat="43.1397781503669" lon="-2.5193444677476116"><ele>401.5</ele><time>2026-04-30T10:46:05.001Z</time></trkpt><trkpt lat="43.13975537927007" lon="-2.5194980707049"><ele>398.0</ele><time>2026-04-30T10:46:06.001Z</time></trkpt><trkpt lat="43.13973186785988" lon="-2.519654966175114"><ele>398.0</ele><time>2026-04-30T10:46:07.001Z</time></trkpt><trkpt lat="43.13970525058687" lon="-2.5198131262488057"><ele>398.0</ele><time>2026-04-30T10:46:08.001Z</time></trkpt><trkpt lat="43.13968266485365" lon="-2.5199681757709538"><ele>398.0</ele><time>2026-04-30T10:46:09.001Z</time></trkpt><trkpt lat="43.13966507993452" lon="-2.5201293383730996"><ele>398.0</ele><time>2026-04-30T10:46:10.001Z</time></trkpt><trkpt lat="43.1396492003791" lon="-2.520286608179494"><ele>397.25</ele><time>2026-04-30T10:46:11.001Z</time></trkpt><trkpt lat="43.1396389039527" lon="-2.5204461272980003"><ele>396.5</ele><time>2026-04-30T10:46:12.001Z</time></trkpt><trkpt lat="43.1396376720048" lon="-2.5206093406868506"><ele>395.75</ele><time>2026-04-30T10:46:13.001Z</time></trkpt><trkpt lat="43.13964142292972" lon="-2.5207688005201043"><ele>395.0</ele><time>2026-04-30T10:46:14.001Z</time></trkpt><trkpt lat="43.13964544965737" lon="-2.520927604146263"><ele>395.0</ele><time>2026-04-30T10:46:15.001Z</time></trkpt><trkpt lat="43.13965075508855" lon="-2.521086441204756"><ele>395.0</ele><time>2026-04-30T10:46:16.001Z</time></trkpt><trkpt lat="43.13965632210947" lon="-2.5212425586001403"><ele>395.0</ele><time>2026-04-30T10:46:17.001Z</time></trkpt><trkpt lat="43.139664072830165" lon="-2.5213939858057905"><ele>395.0</ele><time>2026-04-30T10:46:18.001Z</time></trkpt><trkpt lat="43.13967427926963" lon="-2.521528037478839"><ele>395.0</ele><time>2026-04-30T10:46:19.001Z</time></trkpt><trkpt lat="43.13968558671881" lon="-2.5216446705794486"><ele>393.3333333333333</ele><time>2026-04-30T10:46:20.001Z</time></trkpt><trkpt lat="43.139692563113755" lon="-2.521740466404188"><ele>391.66666666666663</ele><time>2026-04-30T10:46:21.001Z</time></trkpt><trkpt lat="43.13967328713669" lon="-2.5219072120130717"><ele>390.0</ele><time>2026-04-30T10:46:23.001Z</time></trkpt><trkpt lat="43.139624609121455" lon="-2.52197579812531"><ele>388.33333333333337</ele><time>2026-04-30T10:46:24.001Z</time></trkpt><trkpt lat="43.13955752289375" lon="-2.522007946364095"><ele>386.6666666666667</ele><time>2026-04-30T10:46:25.001Z</time></trkpt><trkpt lat="43.13947599269591" lon="-2.522005515742063"><ele>385.0</ele><time>2026-04-30T10:46:26.001Z</time></trkpt><trkpt lat="43.139396080691995" lon="-2.5219628823187947"><ele>385.00000000000006</ele><time>2026-04-30T10:46:27.001Z</time></trkpt><trkpt lat="43.13931975158339" lon="-2.5219032654813516"><ele>385.0</ele><time>2026-04-30T10:46:28.001Z</time></trkpt><trkpt lat="43.13924118970648" lon="-2.5218534350789916"><ele>385.0</ele><time>2026-04-30T10:46:29.001Z</time></trkpt><trkpt lat="43.139162937096415" lon="-2.5218175886265044"><ele>385.0</ele><time>2026-04-30T10:46:30.001Z</time></trkpt><trkpt lat="43.139077234230314" lon="-2.5217851920713095"><ele>385.00000000000006</ele><time>2026-04-30T10:46:31.001Z</time></trkpt><trkpt lat="43.13900612379552" lon="-2.5217457829517786"><ele>385.0</ele><time>2026-04-30T10:46:32.001Z</time></trkpt><trkpt lat="43.13894027712273" lon="-2.521711150117595"><ele>381.33333333333337</ele><time>2026-04-30T10:46:33.001Z</time></trkpt><trkpt lat="43.13888030430371" lon="-2.5216785081245865"><ele>377.6666666666667</ele><time>2026-04-30T10:46:34.001Z</time></trkpt><trkpt lat="43.138785508678176" lon="-2.5217994612744628"><ele>374.0</ele><time>2026-04-30T10:46:36.001Z</time></trkpt><trkpt lat="43.138782102590625" lon="-2.5219129716597113"><ele>370.33333333333337</ele><time>2026-04-30T10:46:37.001Z</time></trkpt><trkpt lat="43.138815579155626" lon="-2.52202014824565"><ele>366.6666666666667</ele><time>2026-04-30T10:46:38.001Z</time></trkpt><trkpt lat="43.138823878507736" lon="-2.522131778138677"><ele>363.0</ele><time>2026-04-30T10:46:39.001Z</time></trkpt><trkpt lat="43.138842017750044" lon="-2.522241683713179"><ele>362.79999999999995</ele><time>2026-04-30T10:46:40.001Z</time></trkpt><trkpt lat="43.13885660089422" lon="-2.522368168502576"><ele>362.6</ele><time>2026-04-30T10:46:41.001Z</time></trkpt><trkpt lat="43.13886395405501" lon="-2.5224925918671066"><ele>362.4</ele><time>2026-04-30T10:46:42.001Z</time></trkpt><trkpt lat="43.138871981380376" lon="-2.522617287841561"><ele>362.20000000000005</ele><time>2026-04-30T10:46:43.001Z</time></trkpt><trkpt lat="43.13887537568315" lon="-2.5227548234030714"><ele>362.0</ele><time>2026-04-30T10:46:44.001Z</time></trkpt><trkpt lat="43.13888847192693" lon="-2.522896593243496"><ele>360.6</ele><time>2026-04-30T10:46:45.001Z</time></trkpt><trkpt lat="43.13890679749963" lon="-2.5230417365928464"><ele>359.20000000000005</ele><time>2026-04-30T10:46:46.001Z</time></trkpt><trkpt lat="43.138921148280694" lon="-2.5231817378592463"><ele>357.8</ele><time>2026-04-30T10:46:47.001Z</time></trkpt><trkpt lat="43.138931812915665" lon="-2.5233265813207857"><ele>356.4</ele><time>2026-04-30T10:46:48.001Z</time></trkpt><trkpt lat="43.13894465693275" lon="-2.523465544364048"><ele>355.0</ele><time>2026-04-30T10:46:49.001Z</time></trkpt><trkpt lat="43.138957106878" lon="-2.5236065564701087"><ele>353.4</ele><time>2026-04-30T10:46:50.001Z</time></trkpt><trkpt lat="43.13897411097687" lon="-2.5237458750398614"><ele>351.8</ele><time>2026-04-30T10:46:51.001Z</time></trkpt><trkpt lat="43.138993176002565" lon="-2.523879882791495"><ele>350.20000000000005</ele><time>2026-04-30T10:46:52.001Z</time></trkpt><trkpt lat="43.13900675396357" lon="-2.524002980822422"><ele>348.6</ele><time>2026-04-30T10:46:53.001Z</time></trkpt><trkpt lat="43.13899686040979" lon="-2.5241332416647504"><ele>347.0</ele><time>2026-04-30T10:46:54.001Z</time></trkpt><trkpt lat="43.13896829457763" lon="-2.5242631315359363"><ele>347.0</ele><time>2026-04-30T10:46:55.001Z</time></trkpt><trkpt lat="43.13891760076963" lon="-2.5243884045269773"><ele>347.0</ele><time>2026-04-30T10:46:56.001Z</time></trkpt><trkpt lat="43.13885631194096" lon="-2.524508838708676"><ele>347.0</ele><time>2026-04-30T10:46:57.001Z</time></trkpt><trkpt lat="43.13878737969785" lon="-2.5246275515344845"><ele>347.0</ele><time>2026-04-30T10:46:58.001Z</time></trkpt><trkpt lat="43.13872160255766" lon="-2.5247638088332995"><ele>347.0</ele><time>2026-04-30T10:46:59.001Z</time></trkpt><trkpt lat="43.13866665990808" lon="-2.5248848408465117"><ele>346.75</ele><time>2026-04-30T10:47:00.001Z</time></trkpt><trkpt lat="43.13859652359816" lon="-2.52502185040066"><ele>346.5</ele><time>2026-04-30T10:47:01.001Z</time></trkpt><trkpt lat="43.138539823279125" lon="-2.5251513680133963"><ele>346.25</ele><time>2026-04-30T10:47:02.001Z</time></trkpt><trkpt lat="43.138477360933344" lon="-2.5252844719212395"><ele>346.0</ele><time>2026-04-30T10:47:03.001Z</time></trkpt><trkpt lat="43.138413911344614" lon="-2.5254175373517582"><ele>346.0</ele><time>2026-04-30T10:47:04.001Z</time></trkpt><trkpt lat="43.13835685427639" lon="-2.525549162967983"><ele>346.0</ele><time>2026-04-30T10:47:05.001Z</time></trkpt><trkpt lat="43.13830278436948" lon="-2.525682881187479"><ele>346.0</ele><time>2026-04-30T10:47:06.001Z</time></trkpt><trkpt lat="43.138251356298575" lon="-2.5258205051138702"><ele>346.0</ele><time>2026-04-30T10:47:07.001Z</time></trkpt><trkpt lat="43.13819780426147" lon="-2.5259547986343334"><ele>346.0</ele><time>2026-04-30T10:47:08.001Z</time></trkpt><trkpt lat="43.138146129034375" lon="-2.52608006245226"><ele>344.6</ele><time>2026-04-30T10:47:09.001Z</time></trkpt><trkpt lat="43.138088068738305" lon="-2.5262029098275125"><ele>343.20000000000005</ele><time>2026-04-30T10:47:10.001Z</time></trkpt><trkpt lat="43.138035489337014" lon="-2.5263202609206408"><ele>341.79999999999995</ele><time>2026-04-30T10:47:11.001Z</time></trkpt><trkpt lat="43.137973365181374" lon="-2.526435161706905"><ele>340.4</ele><time>2026-04-30T10:47:12.001Z</time></trkpt><trkpt lat="43.13790684455747" lon="-2.526540842492166"><ele>339.0</ele><time>2026-04-30T10:47:13.001Z</time></trkpt><trkpt lat="43.13784434783712" lon="-2.526650044340844"><ele>339.0</ele><time>2026-04-30T10:47:14.001Z</time></trkpt><trkpt lat="43.13776928589736" lon="-2.5267488908867497"><ele>339.0</ele><time>2026-04-30T10:47:15.001Z</time></trkpt><trkpt lat="43.1376913128194" lon="-2.5268467297794657"><ele>339.0</ele><time>2026-04-30T10:47:16.001Z</time></trkpt><trkpt lat="43.137615014180525" lon="-2.526944394859848"><ele>339.0</ele><time>2026-04-30T10:47:17.001Z</time></trkpt><trkpt lat="43.13753479851795" lon="-2.527037071706206"><ele>339.0</ele><time>2026-04-30T10:47:18.002Z</time></trkpt><trkpt lat="43.137455475128384" lon="-2.52713262632912"><ele>334.4</ele><time>2026-04-30T10:47:19.002Z</time></trkpt><trkpt lat="43.13737913169113" lon="-2.5272139755863945"><ele>329.79999999999995</ele><time>2026-04-30T10:47:20.002Z</time></trkpt><trkpt lat="43.137296053510305" lon="-2.527257326542637"><ele>325.20000000000005</ele><time>2026-04-30T10:47:21.002Z</time></trkpt><trkpt lat="43.13720334815507" lon="-2.5272732536679148"><ele>320.6</ele><time>2026-04-30T10:47:22.002Z</time></trkpt><trkpt lat="43.13711929698251" lon="-2.52728069328429"><ele>316.0</ele><time>2026-04-30T10:47:23.002Z</time></trkpt><trkpt lat="43.13699910131575" lon="-2.5272117282556987"><ele>316.0</ele><time>2026-04-30T10:47:24.002Z</time></trkpt><trkpt lat="43.13689869247219" lon="-2.527161930469954"><ele>316.0</ele><time>2026-04-30T10:47:25.002Z</time></trkpt><trkpt lat="43.13679973108425" lon="-2.527103210372408"><ele>316.0</ele><time>2026-04-30T10:47:26.002Z</time></trkpt><trkpt lat="43.136694480457635" lon="-2.5270609463274716"><ele>316.0</ele><time>2026-04-30T10:47:27.002Z</time></trkpt><trkpt lat="43.13658007143216" lon="-2.527033570954871"><ele>316.0</ele><time>2026-04-30T10:47:28.002Z</time></trkpt><trkpt lat="43.136466692915874" lon="-2.5270187187933755"><ele>315.25</ele><time>2026-04-30T10:47:29.002Z</time></trkpt><trkpt lat="43.13635237959034" lon="-2.5270100318633006"><ele>314.5</ele><time>2026-04-30T10:47:30.002Z</time></trkpt><trkpt lat="43.13623700521188" lon="-2.527044305559813"><ele>313.75</ele><time>2026-04-30T10:47:31.002Z</time></trkpt><trkpt lat="43.13612798046501" lon="-2.527071200774372"><ele>313.0</ele><time>2026-04-30T10:47:32.002Z</time></trkpt><trkpt lat="43.13601660610078" lon="-2.527105549131754"><ele>312.4</ele><time>2026-04-30T10:47:33.002Z</time></trkpt><trkpt lat="43.1359058391413" lon="-2.527149052484141"><ele>311.8</ele><time>2026-04-30T10:47:34.002Z</time></trkpt><trkpt lat="43.135798951105706" lon="-2.527196330213758"><ele>311.2</ele><time>2026-04-30T10:47:35.002Z</time></trkpt><trkpt lat="43.13569820063795" lon="-2.527253060077131"><ele>310.6</ele><time>2026-04-30T10:47:36.002Z</time></trkpt><trkpt lat="43.13560840626694" lon="-2.527330706100775"><ele>310.0</ele><time>2026-04-30T10:47:37.002Z</time></trkpt><trkpt lat="43.13553404109234" lon="-2.527424437386259"><ele>309.4</ele><time>2026-04-30T10:47:38.002Z</time></trkpt><trkpt lat="43.1354773203282" lon="-2.5275369647495234"><ele>308.8</ele><time>2026-04-30T10:47:39.002Z</time></trkpt><trkpt lat="43.13543439445619" lon="-2.527655283647764"><ele>308.2</ele><time>2026-04-30T10:47:40.002Z</time></trkpt><trkpt lat="43.135423000252544" lon="-2.5277882619327636"><ele>307.6</ele><time>2026-04-30T10:47:41.002Z</time></trkpt><trkpt lat="43.13541888160668" lon="-2.5279253040143885"><ele>307.0</ele><time>2026-04-30T10:47:42.002Z</time></trkpt><trkpt lat="43.13541353775914" lon="-2.5280547125667407"><ele>306.4</ele><time>2026-04-30T10:47:43.002Z</time></trkpt><trkpt lat="43.13538770489333" lon="-2.5281815937894323"><ele>305.79999999999995</ele><time>2026-04-30T10:47:44.002Z</time></trkpt><trkpt lat="43.13534478021185" lon="-2.528303360694078"><ele>305.2</ele><time>2026-04-30T10:47:45.001Z</time></trkpt><trkpt lat="43.13527760330909" lon="-2.528406819820827"><ele>304.59999999999997</ele><time>2026-04-30T10:47:46.001Z</time></trkpt><trkpt lat="43.135201280451085" lon="-2.5285117309866805"><ele>304.0</ele><time>2026-04-30T10:47:47.001Z</time></trkpt><trkpt lat="43.13511867160926" lon="-2.5286009397505853"><ele>304.0</ele><time>2026-04-30T10:47:48.001Z</time></trkpt><trkpt lat="43.13503351966388" lon="-2.528693024383013"><ele>304.0</ele><time>2026-04-30T10:47:49.001Z</time></trkpt><trkpt lat="43.13494936786371" lon="-2.528791714359927"><ele>304.0</ele><time>2026-04-30T10:47:50.001Z</time></trkpt><trkpt lat="43.134867472093234" lon="-2.5288931411934064"><ele>304.0</ele><time>2026-04-30T10:47:51.001Z</time></trkpt><trkpt lat="43.13478727902897" lon="-2.5290026434021997"><ele>304.0</ele><time>2026-04-30T10:47:52.001Z</time></trkpt><trkpt lat="43.134709578854675" lon="-2.5291141678553557"><ele>303.8</ele><time>2026-04-30T10:47:53.001Z</time></trkpt><trkpt lat="43.134639801364365" lon="-2.529234750152105"><ele>303.59999999999997</ele><time>2026-04-30T10:47:54.001Z</time></trkpt><trkpt lat="43.13457298018163" lon="-2.529355109631078"><ele>303.4</ele><time>2026-04-30T10:47:55.001Z</time></trkpt><trkpt lat="43.13450649324777" lon="-2.529476171229736"><ele>303.2</ele><time>2026-04-30T10:47:56.001Z</time></trkpt><trkpt lat="43.134452466077036" lon="-2.5296056661647817"><ele>303.0</ele><time>2026-04-30T10:47:57.001Z</time></trkpt><trkpt lat="43.134404231182465" lon="-2.5297372635832582"><ele>301.8</ele><time>2026-04-30T10:47:58.001Z</time></trkpt><trkpt lat="43.13434033706061" lon="-2.5298598794974474"><ele>300.6</ele><time>2026-04-30T10:47:59.001Z</time></trkpt><trkpt lat="43.134266636223096" lon="-2.5299736971037547"><ele>299.4</ele><time>2026-04-30T10:48:00.001Z</time></trkpt><trkpt lat="43.13418011276382" lon="-2.5300758973711766"><ele>298.2</ele><time>2026-04-30T10:48:01.001Z</time></trkpt><trkpt lat="43.134086743513485" lon="-2.5301597333983574"><ele>297.0</ele><time>2026-04-30T10:48:02.001Z</time></trkpt><trkpt lat="43.133982468669366" lon="-2.5302311616371314"><ele>296.75</ele><time>2026-04-30T10:48:03.001Z</time></trkpt><trkpt lat="43.13387941490002" lon="-2.530307173004194"><ele>296.5</ele><time>2026-04-30T10:48:04.001Z</time></trkpt><trkpt lat="43.13377539501926" lon="-2.530370668834856"><ele>296.25</ele><time>2026-04-30T10:48:05.001Z</time></trkpt><trkpt lat="43.133666494390226" lon="-2.5304246731030497"><ele>296.0</ele><time>2026-04-30T10:48:06.001Z</time></trkpt><trkpt lat="43.13355873557882" lon="-2.5304811280081263"><ele>293.25</ele><time>2026-04-30T10:48:07.001Z</time></trkpt><trkpt lat="43.13345484582306" lon="-2.530553130683421"><ele>290.5</ele><time>2026-04-30T10:48:08.001Z</time></trkpt><trkpt lat="43.13336304864393" lon="-2.5306461736677432"><ele>287.75</ele><time>2026-04-30T10:48:09.001Z</time></trkpt><trkpt lat="43.13328310191204" lon="-2.530764798121034"><ele>285.0</ele><time>2026-04-30T10:48:10.001Z</time></trkpt><trkpt lat="43.13322499093942" lon="-2.5309026611852095"><ele>285.8</ele><time>2026-04-30T10:48:11.001Z</time></trkpt><trkpt lat="43.13318817925434" lon="-2.531055672534961"><ele>286.6</ele><time>2026-04-30T10:48:12.001Z</time></trkpt><trkpt lat="43.13315695905628" lon="-2.5312036878153945"><ele>287.4</ele><time>2026-04-30T10:48:13.001Z</time></trkpt><trkpt lat="43.133125148152956" lon="-2.531347019101562"><ele>288.2</ele><time>2026-04-30T10:48:14.001Z</time></trkpt><trkpt lat="43.133091997475866" lon="-2.53148778361034"><ele>289.0</ele><time>2026-04-30T10:48:15.001Z</time></trkpt><trkpt lat="43.133054739986385" lon="-2.5316253342186936"><ele>286.4</ele><time>2026-04-30T10:48:16.001Z</time></trkpt><trkpt lat="43.133012714630674" lon="-2.531757636624412"><ele>283.79999999999995</ele><time>2026-04-30T10:48:17.001Z</time></trkpt><trkpt lat="43.13296916162443" lon="-2.531895460281314"><ele>281.20000000000005</ele><time>2026-04-30T10:48:18.001Z</time></trkpt><trkpt lat="43.132921279161074" lon="-2.5320262935434275"><ele>278.6</ele><time>2026-04-30T10:48:19.001Z</time></trkpt><trkpt lat="43.132871474833266" lon="-2.532147929551512"><ele>276.0</ele><time>2026-04-30T10:48:20.001Z</time></trkpt><trkpt lat="43.13280613878031" lon="-2.5322460303594214"><ele>273.2</ele><time>2026-04-30T10:48:21.001Z</time></trkpt><trkpt lat="43.13272517747819" lon="-2.532326631915743"><ele>270.40000000000003</ele><time>2026-04-30T10:48:22.001Z</time></trkpt><trkpt lat="43.132630942469035" lon="-2.532381762251406"><ele>267.6</ele><time>2026-04-30T10:48:23.001Z</time></trkpt><trkpt lat="43.132525993423776" lon="-2.5324041951993475"><ele>264.8</ele><time>2026-04-30T10:48:24.001Z</time></trkpt><trkpt lat="43.13241680739546" lon="-2.532397260349373"><ele>262.0</ele><time>2026-04-30T10:48:25.001Z</time></trkpt><trkpt lat="43.13231072527383" lon="-2.5323767005630375"><ele>258.0</ele><time>2026-04-30T10:48:26.001Z</time></trkpt><trkpt lat="43.132201182692796" lon="-2.5323667928707208"><ele>254.0</ele><time>2026-04-30T10:48:27.001Z</time></trkpt><trkpt lat="43.132091431192016" lon="-2.5323521607874446"><ele>250.0</ele><time>2026-04-30T10:48:28.001Z</time></trkpt><trkpt lat="43.13198417859967" lon="-2.5323171930852117"><ele>246.0</ele><time>2026-04-30T10:48:29.001Z</time></trkpt><trkpt lat="43.13188202029743" lon="-2.5322534316276437"><ele>242.0</ele><time>2026-04-30T10:48:30.001Z</time></trkpt><trkpt lat="43.13179234308909" lon="-2.532164048046234"><ele>244.5</ele><time>2026-04-30T10:48:31.001Z</time></trkpt><trkpt lat="43.13170873856263" lon="-2.532053990454048"><ele>247.0</ele><time>2026-04-30T10:48:32.001Z</time></trkpt><trkpt lat="43.13163756680215" lon="-2.5319314455445308"><ele>249.5</ele><time>2026-04-30T10:48:33.001Z</time></trkpt><trkpt lat="43.13157931973161" lon="-2.5318014123920127"><ele>252.0</ele><time>2026-04-30T10:48:34.001Z</time></trkpt><trkpt lat="43.13152844101954" lon="-2.531664012089381"><ele>248.6</ele><time>2026-04-30T10:48:35.001Z</time></trkpt><trkpt lat="43.131489082903585" lon="-2.5315218015357908"><ele>245.2</ele><time>2026-04-30T10:48:36.001Z</time></trkpt><trkpt lat="43.13144121837339" lon="-2.5313848885656696"><ele>241.8</ele><time>2026-04-30T10:48:37.001Z</time></trkpt><trkpt lat="43.131413698500715" lon="-2.5312409146175727"><ele>238.4</ele><time>2026-04-30T10:48:38.001Z</time></trkpt><trkpt lat="43.13139693299605" lon="-2.531107453528193"><ele>235.0</ele><time>2026-04-30T10:48:39.001Z</time></trkpt><trkpt lat="43.1313840181534" lon="-2.5309943516128537"><ele>234.99999999999997</ele><time>2026-04-30T10:48:40.001Z</time></trkpt><trkpt lat="43.131349439715834" lon="-2.5308692959945933"><ele>235.0</ele><time>2026-04-30T10:48:42.001Z</time></trkpt><trkpt lat="43.13128399176098" lon="-2.5308672588614973"><ele>235.0</ele><time>2026-04-30T10:48:44.001Z</time></trkpt><trkpt lat="43.13125943092748" lon="-2.5310337314599183"><ele>235.0</ele><time>2026-04-30T10:48:46.001Z</time></trkpt><trkpt lat="43.1312772739454" lon="-2.531116945063019"><ele>234.99999999999997</ele><time>2026-04-30T10:48:47.001Z</time></trkpt><trkpt lat="43.131298422965564" lon="-2.531215786380202"><ele>235.0</ele><time>2026-04-30T10:48:48.001Z</time></trkpt><trkpt lat="43.1313093105294" lon="-2.5313213693135435"><ele>231.8</ele><time>2026-04-30T10:48:49.001Z</time></trkpt><trkpt lat="43.131320154329664" lon="-2.5314331876176386"><ele>228.6</ele><time>2026-04-30T10:48:50.001Z</time></trkpt><trkpt lat="43.131325186537595" lon="-2.5315486849938003"><ele>225.39999999999998</ele><time>2026-04-30T10:48:51.001Z</time></trkpt><trkpt lat="43.131330552972464" lon="-2.5316665412928905"><ele>222.2</ele><time>2026-04-30T10:48:52.001Z</time></trkpt><trkpt lat="43.13133529523095" lon="-2.5318021776078403"><ele>219.0</ele><time>2026-04-30T10:48:53.001Z</time></trkpt><trkpt lat="43.131333382570006" lon="-2.531944574987348"><ele>216.6</ele><time>2026-04-30T10:48:54.001Z</time></trkpt><trkpt lat="43.13133572076589" lon="-2.532091955008161"><ele>214.2</ele><time>2026-04-30T10:48:55.001Z</time></trkpt><trkpt lat="43.131345416790616" lon="-2.5322393975357427"><ele>211.79999999999998</ele><time>2026-04-30T10:48:56.001Z</time></trkpt><trkpt lat="43.131371697541326" lon="-2.532383205791184"><ele>209.39999999999998</ele><time>2026-04-30T10:48:57.001Z</time></trkpt><trkpt lat="43.13138708588272" lon="-2.5325338169710907"><ele>207.0</ele><time>2026-04-30T10:48:58.001Z</time></trkpt><trkpt lat="43.13140546975506" lon="-2.532681484265272"><ele>207.0</ele><time>2026-04-30T10:48:59.001Z</time></trkpt><trkpt lat="43.13143124417212" lon="-2.5328360616455092"><ele>207.0</ele><time>2026-04-30T10:49:00.001Z</time></trkpt><trkpt lat="43.131451148329724" lon="-2.532995769541371"><ele>207.0</ele><time>2026-04-30T10:49:01.001Z</time></trkpt><trkpt lat="43.131427737231085" lon="-2.5331572007595486"><ele>207.0</ele><time>2026-04-30T10:49:02.001Z</time></trkpt><trkpt lat="43.1314213255504" lon="-2.5333121515207955"><ele>205.2</ele><time>2026-04-30T10:49:03.001Z</time></trkpt><trkpt lat="43.13140284143303" lon="-2.5334669848709472"><ele>203.39999999999998</ele><time>2026-04-30T10:49:04.001Z</time></trkpt><trkpt lat="43.13138929936023" lon="-2.5336243123993825"><ele>201.60000000000002</ele><time>2026-04-30T10:49:05.001Z</time></trkpt><trkpt lat="43.13139146590204" lon="-2.533775662280198"><ele>199.8</ele><time>2026-04-30T10:49:06.001Z</time></trkpt><trkpt lat="43.13141201356115" lon="-2.5339131466354288"><ele>198.0</ele><time>2026-04-30T10:49:07.001Z</time></trkpt><trkpt lat="43.13147243709509" lon="-2.5340391498892276"><ele>197.0</ele><time>2026-04-30T10:49:08.001Z</time></trkpt><trkpt lat="43.13152490032408" lon="-2.5341552261571314"><ele>196.0</ele><time>2026-04-30T10:49:09.001Z</time></trkpt><trkpt lat="43.13160207809869" lon="-2.534233724264604"><ele>195.0</ele><time>2026-04-30T10:49:10.001Z</time></trkpt><trkpt lat="43.13168246883268" lon="-2.534315091805295"><ele>194.0</ele><time>2026-04-30T10:49:11.001Z</time></trkpt><trkpt lat="43.13175953758742" lon="-2.534409087486312"><ele>193.0</ele><time>2026-04-30T10:49:12.001Z</time></trkpt><trkpt lat="43.13186473824825" lon="-2.5344395174002092"><ele>193.8</ele><time>2026-04-30T10:49:13.001Z</time></trkpt><trkpt lat="43.13196586096403" lon="-2.534496009519275"><ele>194.60000000000002</ele><time>2026-04-30T10:49:14.001Z</time></trkpt><trkpt lat="43.13206569957733" lon="-2.5345548924723738"><ele>195.39999999999998</ele><time>2026-04-30T10:49:15.001Z</time></trkpt><trkpt lat="43.13216149104991" lon="-2.5345898376954614"><ele>196.2</ele><time>2026-04-30T10:49:16.001Z</time></trkpt><trkpt lat="43.13223900032386" lon="-2.5346308408346863"><ele>197.0</ele><time>2026-04-30T10:49:17.001Z</time></trkpt><trkpt lat="43.1322914969952" lon="-2.5346799552784782"><ele>197.00000000000003</ele><time>2026-04-30T10:49:18.001Z</time></trkpt><trkpt lat="43.13232699076289" lon="-2.534813846554476"><ele>197.0</ele><time>2026-04-30T10:49:20.001Z</time></trkpt><trkpt lat="43.13228773500839" lon="-2.5348816199755144"><ele>197.0</ele><time>2026-04-30T10:49:21.001Z</time></trkpt><trkpt lat="43.13222212836589" lon="-2.5349333340428366"><ele>197.0</ele><time>2026-04-30T10:49:22.001Z</time></trkpt><trkpt lat="43.13214309615129" lon="-2.534960799809374"><ele>197.00000000000003</ele><time>2026-04-30T10:49:23.001Z</time></trkpt><trkpt lat="43.13205276981204" lon="-2.5349877905758533"><ele>197.0</ele><time>2026-04-30T10:49:24.001Z</time></trkpt><trkpt lat="43.13193348899614" lon="-2.535010191487714"><ele>197.0</ele><time>2026-04-30T10:49:25.001Z</time></trkpt><trkpt lat="43.13184542098438" lon="-2.5350516119211193"><ele>197.0</ele><time>2026-04-30T10:49:26.001Z</time></trkpt><trkpt lat="43.13175141301776" lon="-2.5350905573664693"><ele>197.0</ele><time>2026-04-30T10:49:27.001Z</time></trkpt><trkpt lat="43.131658797843436" lon="-2.535123761592038"><ele>197.0</ele><time>2026-04-30T10:49:28.001Z</time></trkpt><trkpt lat="43.13156202875722" lon="-2.535171808471556"><ele>197.0</ele><time>2026-04-30T10:49:29.001Z</time></trkpt><trkpt lat="43.13146534144324" lon="-2.5352228733986517"><ele>195.0</ele><time>2026-04-30T10:49:30.001Z</time></trkpt><trkpt lat="43.131367071543735" lon="-2.5352779890474193"><ele>193.0</ele><time>2026-04-30T10:49:31.001Z</time></trkpt><trkpt lat="43.13127306527602" lon="-2.5353477703130607"><ele>191.0</ele><time>2026-04-30T10:49:32.001Z</time></trkpt><trkpt lat="43.131189256128536" lon="-2.535439830796006"><ele>189.0</ele><time>2026-04-30T10:49:33.001Z</time></trkpt><trkpt lat="43.13112083594777" lon="-2.535548225804248"><ele>187.0</ele><time>2026-04-30T10:49:34.001Z</time></trkpt><trkpt lat="43.131065160191866" lon="-2.535664351254633"><ele>186.83333333333334</ele><time>2026-04-30T10:49:35.001Z</time></trkpt><trkpt lat="43.13100892806828" lon="-2.535776628265498"><ele>186.66666666666669</ele><time>2026-04-30T10:49:36.001Z</time></trkpt><trkpt lat="43.13095594801847" lon="-2.53588166231368"><ele>186.5</ele><time>2026-04-30T10:49:37.001Z</time></trkpt><trkpt lat="43.13090737804909" lon="-2.535980387292043"><ele>186.33333333333334</ele><time>2026-04-30T10:49:38.001Z</time></trkpt><trkpt lat="43.13085705767634" lon="-2.5360725271961333"><ele>186.16666666666666</ele><time>2026-04-30T10:49:39.001Z</time></trkpt><trkpt lat="43.13081947271189" lon="-2.536164035734479"><ele>186.0</ele><time>2026-04-30T10:49:40.001Z</time></trkpt><trkpt lat="43.13077895796475" lon="-2.536249715665463"><ele>185.85714285714286</ele><time>2026-04-30T10:49:41.001Z</time></trkpt><trkpt lat="43.130741557380105" lon="-2.5363278106526956"><ele>185.71428571428572</ele><time>2026-04-30T10:49:42.001Z</time></trkpt><trkpt lat="43.130701836811646" lon="-2.536409306159188"><ele>185.57142857142856</ele><time>2026-04-30T10:49:43.001Z</time></trkpt><trkpt lat="43.13066630982138" lon="-2.5364838390927127"><ele>185.42857142857144</ele><time>2026-04-30T10:49:44.001Z</time></trkpt><trkpt lat="43.13062593147779" lon="-2.536559994503386"><ele>185.28571428571428</ele><time>2026-04-30T10:49:45.001Z</time></trkpt><trkpt lat="43.130590054299596" lon="-2.53663443077308"><ele>185.14285714285714</ele><time>2026-04-30T10:49:46.001Z</time></trkpt><trkpt lat="43.130552540240764" lon="-2.5367107006212253"><ele>185.0</ele><time>2026-04-30T10:49:47.001Z</time></trkpt><trkpt lat="43.13051693445103" lon="-2.5367888138824783"><ele>184.99999999999997</ele><time>2026-04-30T10:49:48.001Z</time></trkpt><trkpt lat="43.130475824615964" lon="-2.5368663351187664"><ele>185.0</ele><time>2026-04-30T10:49:49.001Z</time></trkpt><trkpt lat="43.13043882438276" lon="-2.536943283322429"><ele>185.0</ele><time>2026-04-30T10:49:50.001Z</time></trkpt><trkpt lat="43.13040038390696" lon="-2.5370228747725"><ele>185.0</ele><time>2026-04-30T10:49:51Z</time></trkpt><trkpt lat="43.13035981605644" lon="-2.5371074096277257"><ele>185.0</ele><time>2026-04-30T10:49:52Z</time></trkpt><trkpt lat="43.13031675012735" lon="-2.537193535973274"><ele>184.99999999999997</ele><time>2026-04-30T10:49:53Z</time></trkpt><trkpt lat="43.130276946077196" lon="-2.537281679440316"><ele>185.0</ele><time>2026-04-30T10:49:54Z</time></trkpt><trkpt lat="43.13023535667945" lon="-2.5373683833564686"><ele>184.99999999999997</ele><time>2026-04-30T10:49:55Z</time></trkpt><trkpt lat="43.1301962362672" lon="-2.5374552187279242"><ele>185.0</ele><time>2026-04-30T10:49:56Z</time></trkpt><trkpt lat="43.130155216066015" lon="-2.5375423918039495"><ele>185.0</ele><time>2026-04-30T10:49:57Z</time></trkpt><trkpt lat="43.130116576535606" lon="-2.537632891600461"><ele>185.0</ele><time>2026-04-30T10:49:58Z</time></trkpt><trkpt lat="43.1300763506473" lon="-2.5377181678076646"><ele>185.0</ele><time>2026-04-30T10:49:59Z</time></trkpt><trkpt lat="43.130032797183446" lon="-2.5378014182774606"><ele>184.99999999999997</ele><time>2026-04-30T10:50:00Z</time></trkpt><trkpt lat="43.129995279853176" lon="-2.53788456486095"><ele>185.0</ele><time>2026-04-30T10:50:01Z</time></trkpt><trkpt lat="43.12995624082799" lon="-2.537966041359574"><ele>184.99999999999997</ele><time>2026-04-30T10:50:02Z</time></trkpt><trkpt lat="43.129910462408134" lon="-2.538039204530067"><ele>185.0</ele><time>2026-04-30T10:50:03Z</time></trkpt><trkpt lat="43.12986064508582" lon="-2.5381083159403603"><ele>185.0</ele><time>2026-04-30T10:50:04Z</time></trkpt><trkpt lat="43.12980426982158" lon="-2.538169302481045"><ele>185.0</ele><time>2026-04-30T10:50:05Z</time></trkpt><trkpt lat="43.129748789424035" lon="-2.5382322133172357"><ele>185.0</ele><time>2026-04-30T10:50:06Z</time></trkpt><trkpt lat="43.1297035008427" lon="-2.5383024781284074"><ele>184.99999999999997</ele><time>2026-04-30T10:50:07Z</time></trkpt><trkpt lat="43.129669361351446" lon="-2.5383816363905223"><ele>185.0</ele><time>2026-04-30T10:50:08Z</time></trkpt><trkpt lat="43.1296354777977" lon="-2.538463150793479"><ele>185.66666666666666</ele><time>2026-04-30T10:50:09Z</time></trkpt><trkpt lat="43.12959975815267" lon="-2.5385437982448185"><ele>186.33333333333331</ele><time>2026-04-30T10:50:10Z</time></trkpt><trkpt lat="43.129564511132266" lon="-2.5386224988583397"><ele>187.0</ele><time>2026-04-30T10:50:11Z</time></trkpt><trkpt lat="43.12952806884715" lon="-2.538703157232647"><ele>187.66666666666666</ele><time>2026-04-30T10:50:12Z</time></trkpt><trkpt lat="43.12949565766662" lon="-2.538780825285933"><ele>188.33333333333334</ele><time>2026-04-30T10:50:13Z</time></trkpt><trkpt lat="43.12943957220048" lon="-2.538918998464166"><ele>189.0</ele><time>2026-04-30T10:50:15Z</time></trkpt><trkpt lat="43.1293910231217" lon="-2.5390321408722034"><ele>189.0</ele><time>2026-04-30T10:50:17Z</time></trkpt><trkpt lat="43.12935609727884" lon="-2.53912213303586"><ele>189.0</ele><time>2026-04-30T10:50:19Z</time></trkpt><trkpt lat="43.129318015006895" lon="-2.5392019618940007"><ele>189.0</ele><time>2026-04-30T10:50:21Z</time></trkpt><trkpt lat="43.12926019193593" lon="-2.539239985381664"><ele>189.0</ele><time>2026-04-30T10:50:25Z</time></trkpt><trkpt lat="43.129169321430176" lon="-2.539253764523209"><ele>189.0</ele><time>2026-04-30T10:50:32Z</time></trkpt><trkpt lat="43.12906312972522" lon="-2.539301560967379"><ele>189.0</ele><time>2026-04-30T10:50:34Z</time></trkpt><trkpt lat="43.12894319689909" lon="-2.5393469484784705"><ele>189.71428571428572</ele><time>2026-04-30T10:50:36Z</time></trkpt><trkpt lat="43.12888077010348" lon="-2.539382161067097"><ele>190.42857142857144</ele><time>2026-04-30T10:50:37Z</time></trkpt><trkpt lat="43.12881834836542" lon="-2.5394133537063097"><ele>191.14285714285714</ele><time>2026-04-30T10:50:38.001Z</time></trkpt><trkpt lat="43.1287522758581" lon="-2.539437701669875"><ele>191.85714285714286</ele><time>2026-04-30T10:50:39.001Z</time></trkpt><trkpt lat="43.12869013027372" lon="-2.5394655793432523"><ele>192.57142857142858</ele><time>2026-04-30T10:50:40.001Z</time></trkpt><trkpt lat="43.128626189543844" lon="-2.5394925339749403"><ele>193.28571428571428</ele><time>2026-04-30T10:50:41.001Z</time></trkpt><trkpt lat="43.128562239415196" lon="-2.5395086952922754"><ele>194.0</ele><time>2026-04-30T10:50:42.001Z</time></trkpt><trkpt lat="43.12849486653912" lon="-2.5395207291268354"><ele>194.0</ele><time>2026-04-30T10:50:43.001Z</time></trkpt><trkpt lat="43.12842954671977" lon="-2.5395418166428865"><ele>194.0</ele><time>2026-04-30T10:50:44.001Z</time></trkpt><trkpt lat="43.128321623752846" lon="-2.5396050942478823"><ele>194.0</ele><time>2026-04-30T10:50:46.001Z</time></trkpt><trkpt lat="43.12821890252005" lon="-2.5396510144362217"><ele>194.0</ele><time>2026-04-30T10:50:48.001Z</time></trkpt><trkpt lat="43.12814178738273" lon="-2.53971034710178"><ele>194.0</ele><time>2026-04-30T10:50:50.001Z</time></trkpt><trkpt lat="43.12821048524934" lon="-2.539740932950256"><ele>194.0</ele><time>2026-04-30T10:51:14.001Z</time></trkpt><trkpt lat="43.12826927506564" lon="-2.5397004232450024"><ele>194.0</ele><time>2026-04-30T10:54:36Z</time></trkpt><trkpt lat="43.12836767249526" lon="-2.5396572012883043"><ele>194.0</ele><time>2026-04-30T11:02:03.001Z</time></trkpt><trkpt lat="43.128446510553054" lon="-2.539637154424702"><ele>194.0</ele><time>2026-04-30T11:02:06.001Z</time></trkpt><trkpt lat="43.12818117432103" lon="-2.539722602327129"><ele>194.0</ele><time>2026-04-30T11:02:23.018Z</time></trkpt><trkpt lat="43.12806280213874" lon="-2.539729874459411"><ele>194.0</ele><time>2026-04-30T11:04:29.506Z</time></trkpt><trkpt lat="43.12826665740777" lon="-2.5396234652241074"><ele>194.0</ele><time>2026-04-30T11:31:40.428Z</time></trkpt><trkpt lat="43.12809837247874" lon="-2.5399033881743476"><ele>194.0</ele><time>2026-04-30T11:38:09Z</time></trkpt><trkpt lat="43.12824255096891" lon="-2.539755214729008"><ele>194.0</ele><time>2026-04-30T11:38:13Z</time></trkpt><trkpt lat="43.12818227884183" lon="-2.5397112733483933"><ele>194.0</ele><time>2026-04-30T11:38:21Z</time></trkpt><trkpt lat="43.12811271060463" lon="-2.5396867671377636"><ele>194.0</ele><time>2026-04-30T11:38:25Z</time></trkpt><trkpt lat="43.12804707250301" lon="-2.5397394637749175"><ele>194.0</ele><time>2026-04-30T11:38:43Z</time></trkpt><trkpt lat="43.12805613759485" lon="-2.539834144439195"><ele>194.0</ele><time>2026-04-30T11:38:47Z</time></trkpt><trkpt lat="43.128077222381236" lon="-2.5399414915699325"><ele>194.0</ele><time>2026-04-30T11:38:50Z</time></trkpt><trkpt lat="43.128138872383005" lon="-2.5400283386224745"><ele>194.0</ele><time>2026-04-30T11:38:52Z</time></trkpt><trkpt lat="43.128204899072614" lon="-2.540142099866609"><ele>194.0</ele><time>2026-04-30T11:38:54Z</time></trkpt><trkpt lat="43.12828237878417" lon="-2.540250745577583"><ele>194.0</ele><time>2026-04-30T11:38:56.001Z</time></trkpt><trkpt lat="43.12836855660432" lon="-2.5403378995180956"><ele>193.79999999999998</ele><time>2026-04-30T11:38:58.001Z</time></trkpt><trkpt lat="43.12844630466657" lon="-2.54042450658518"><ele>193.6</ele><time>2026-04-30T11:39:00.001Z</time></trkpt><trkpt lat="43.128516988846755" lon="-2.540507038385469"><ele>193.4</ele><time>2026-04-30T11:39:02.001Z</time></trkpt><trkpt lat="43.12859392055725" lon="-2.5405905985870523"><ele>193.2</ele><time>2026-04-30T11:39:04.001Z</time></trkpt><trkpt lat="43.12867093823628" lon="-2.5406849622879912"><ele>193.0</ele><time>2026-04-30T11:39:06.001Z</time></trkpt><trkpt lat="43.1287559131981" lon="-2.540774692802773"><ele>193.0</ele><time>2026-04-30T11:39:08.001Z</time></trkpt><trkpt lat="43.12884769326693" lon="-2.540865447935238"><ele>193.0</ele><time>2026-04-30T11:39:10.001Z</time></trkpt><trkpt lat="43.12893183505596" lon="-2.5409756055627972"><ele>193.0</ele><time>2026-04-30T11:39:12.001Z</time></trkpt><trkpt lat="43.12901399317421" lon="-2.5411013231968367"><ele>193.0</ele><time>2026-04-30T11:39:14.001Z</time></trkpt><trkpt lat="43.12908997995368" lon="-2.5412415727726616"><ele>193.14285714285717</ele><time>2026-04-30T11:39:16.001Z</time></trkpt><trkpt lat="43.12912585843558" lon="-2.541317743155678"><ele>193.28571428571428</ele><time>2026-04-30T11:39:17.001Z</time></trkpt><trkpt lat="43.12916409976837" lon="-2.5414012858650796"><ele>193.42857142857144</ele><time>2026-04-30T11:39:18.001Z</time></trkpt><trkpt lat="43.129202952482345" lon="-2.54148903993857"><ele>193.57142857142858</ele><time>2026-04-30T11:39:19.001Z</time></trkpt><trkpt lat="43.12924189888665" lon="-2.541577002233736"><ele>193.71428571428572</ele><time>2026-04-30T11:39:20.001Z</time></trkpt><trkpt lat="43.129279582082084" lon="-2.541670710707119"><ele>193.85714285714286</ele><time>2026-04-30T11:39:21.001Z</time></trkpt><trkpt lat="43.12931614836234" lon="-2.541759037264681"><ele>194.0</ele><time>2026-04-30T11:39:22.001Z</time></trkpt><trkpt lat="43.129350492563596" lon="-2.5418428433555267"><ele>194.0</ele><time>2026-04-30T11:39:23.001Z</time></trkpt><trkpt lat="43.12938218004411" lon="-2.5419201663936377"><ele>194.0</ele><time>2026-04-30T11:39:24.001Z</time></trkpt><trkpt lat="43.12939829118268" lon="-2.5420053369817666"><ele>194.0</ele><time>2026-04-30T11:39:25.001Z</time></trkpt><trkpt lat="43.12944469968148" lon="-2.542072725869889"><ele>194.0</ele><time>2026-04-30T11:39:26.001Z</time></trkpt><trkpt lat="43.12947690509693" lon="-2.542151312983728"><ele>194.0</ele><time>2026-04-30T11:39:27.001Z</time></trkpt><trkpt lat="43.129509014931635" lon="-2.542229666812122"><ele>194.0</ele><time>2026-04-30T11:39:28.001Z</time></trkpt><trkpt lat="43.12956695142941" lon="-2.5423710423429937"><ele>194.0</ele><time>2026-04-30T11:39:30.001Z</time></trkpt><trkpt lat="43.12959836545009" lon="-2.5424481316703993"><ele>194.33333333333334</ele><time>2026-04-30T11:39:31.001Z</time></trkpt><trkpt lat="43.12962959835452" lon="-2.542524799598022"><ele>194.66666666666669</ele><time>2026-04-30T11:39:32.001Z</time></trkpt><trkpt lat="43.12966375770877" lon="-2.54260865096271"><ele>195.0</ele><time>2026-04-30T11:39:33.001Z</time></trkpt><trkpt lat="43.12970020091147" lon="-2.542698108765432"><ele>195.33333333333331</ele><time>2026-04-30T11:39:34.001Z</time></trkpt><trkpt lat="43.1297397175037" lon="-2.54279511074347"><ele>195.66666666666666</ele><time>2026-04-30T11:39:35.001Z</time></trkpt><trkpt lat="43.12977860507992" lon="-2.542890568517851"><ele>196.0</ele><time>2026-04-30T11:39:36.001Z</time></trkpt><trkpt lat="43.129819228182114" lon="-2.5429856825523247"><ele>195.99999999999997</ele><time>2026-04-30T11:39:37.001Z</time></trkpt><trkpt lat="43.1298605542699" lon="-2.543081762115932"><ele>196.0</ele><time>2026-04-30T11:39:38.001Z</time></trkpt><trkpt lat="43.12990277264079" lon="-2.5431800104174394"><ele>196.0</ele><time>2026-04-30T11:39:39.001Z</time></trkpt><trkpt lat="43.129945386453635" lon="-2.543279209323354"><ele>196.0</ele><time>2026-04-30T11:39:40.001Z</time></trkpt><trkpt lat="43.129989214786995" lon="-2.5433812353814393"><ele>195.99999999999997</ele><time>2026-04-30T11:39:41.001Z</time></trkpt><trkpt lat="43.130034182211574" lon="-2.5434880147534957"><ele>196.0</ele><time>2026-04-30T11:39:42.001Z</time></trkpt><trkpt lat="43.13007732457856" lon="-2.5435922522158947"><ele>195.0</ele><time>2026-04-30T11:39:43.001Z</time></trkpt><trkpt lat="43.130124319363105" lon="-2.5437049385639376"><ele>194.0</ele><time>2026-04-30T11:39:44.001Z</time></trkpt><trkpt lat="43.13016976760061" lon="-2.5438139166337885"><ele>193.0</ele><time>2026-04-30T11:39:45.001Z</time></trkpt><trkpt lat="43.13021642497084" lon="-2.5439257939939894"><ele>192.0</ele><time>2026-04-30T11:39:46.001Z</time></trkpt><trkpt lat="43.13026085961468" lon="-2.544029671423667"><ele>191.0</ele><time>2026-04-30T11:39:47.001Z</time></trkpt><trkpt lat="43.13030444209969" lon="-2.5441311564818774"><ele>190.33333333333331</ele><time>2026-04-30T11:39:47.999Z</time></trkpt><trkpt lat="43.130347549792944" lon="-2.544228339750704"><ele>189.66666666666666</ele><time>2026-04-30T11:39:48.999Z</time></trkpt><trkpt lat="43.13039148706947" lon="-2.5443199984188283"><ele>189.0</ele><time>2026-04-30T11:39:49.999Z</time></trkpt><trkpt lat="43.13043637278676" lon="-2.544403263730047"><ele>188.33333333333334</ele><time>2026-04-30T11:39:50.999Z</time></trkpt><trkpt lat="43.13048154440764" lon="-2.544483781202694"><ele>187.66666666666669</ele><time>2026-04-30T11:39:51.999Z</time></trkpt><trkpt lat="43.13052720888261" lon="-2.5445755020391077"><ele>187.0</ele><time>2026-04-30T11:39:52.999Z</time></trkpt><trkpt lat="43.130565340194586" lon="-2.544662318461843"><ele>186.66666666666669</ele><time>2026-04-30T11:39:53.999Z</time></trkpt><trkpt lat="43.130583263176376" lon="-2.544773297091842"><ele>186.33333333333334</ele><time>2026-04-30T11:39:54.999Z</time></trkpt><trkpt lat="43.13059698899228" lon="-2.544859799660553"><ele>186.0</ele><time>2026-04-30T11:39:55.999Z</time></trkpt><trkpt lat="43.13060261088646" lon="-2.544964805103849"><ele>185.66666666666666</ele><time>2026-04-30T11:39:57.999Z</time></trkpt><trkpt lat="43.13065045466067" lon="-2.5448996996866335"><ele>185.33333333333331</ele><time>2026-04-30T11:40:02.999Z</time></trkpt><trkpt lat="43.130736123969825" lon="-2.5448018597806796"><ele>185.0</ele><time>2026-04-30T11:40:04.999Z</time></trkpt><trkpt lat="43.13084340443609" lon="-2.5447183510729126"><ele>184.5</ele><time>2026-04-30T11:40:06.999Z</time></trkpt><trkpt lat="43.130932272256395" lon="-2.5446236293991054"><ele>184.0</ele><time>2026-04-30T11:40:08.999Z</time></trkpt><trkpt lat="43.13099311705248" lon="-2.544531492829517"><ele>183.5</ele><time>2026-04-30T11:40:10.999Z</time></trkpt><trkpt lat="43.131111952387215" lon="-2.5446327195524945"><ele>183.0</ele><time>2026-04-30T11:40:12.999Z</time></trkpt><trkpt lat="43.131170557929295" lon="-2.544773203879929"><ele>182.5</ele><time>2026-04-30T11:40:14.999Z</time></trkpt><trkpt lat="43.13123746778802" lon="-2.5449205812152726"><ele>182.0</ele><time>2026-04-30T11:40:17Z</time></trkpt><trkpt lat="43.13127393612296" lon="-2.544998047289754"><ele>181.5</ele><time>2026-04-30T11:40:18Z</time></trkpt><trkpt lat="43.13130850583507" lon="-2.5450780934002366"><ele>181.0</ele><time>2026-04-30T11:40:19Z</time></trkpt><trkpt lat="43.13134837743971" lon="-2.545161054272408"><ele>180.5</ele><time>2026-04-30T11:40:20Z</time></trkpt><trkpt lat="43.13138943500672" lon="-2.545244256844164"><ele>180.0</ele><time>2026-04-30T11:40:21Z</time></trkpt><trkpt lat="43.131428869083834" lon="-2.5453329003184297"><ele>179.85714285714286</ele><time>2026-04-30T11:40:22Z</time></trkpt><trkpt lat="43.13146992274677" lon="-2.5454201497871956"><ele>179.71428571428572</ele><time>2026-04-30T11:40:23Z</time></trkpt><trkpt lat="43.13151405532079" lon="-2.5455085299960203"><ele>179.57142857142858</ele><time>2026-04-30T11:40:24Z</time></trkpt><trkpt lat="43.13155498480383" lon="-2.5455966944881174"><ele>179.42857142857144</ele><time>2026-04-30T11:40:25Z</time></trkpt><trkpt lat="43.131594149738554" lon="-2.545683609073317"><ele>179.28571428571428</ele><time>2026-04-30T11:40:26Z</time></trkpt><trkpt lat="43.13163742846162" lon="-2.54576300841877"><ele>179.14285714285717</ele><time>2026-04-30T11:40:27Z</time></trkpt><trkpt lat="43.13167331954773" lon="-2.5458417604897594"><ele>179.0</ele><time>2026-04-30T11:40:28Z</time></trkpt><trkpt lat="43.13170897232907" lon="-2.5459176265334795"><ele>178.79999999999998</ele><time>2026-04-30T11:40:29Z</time></trkpt><trkpt lat="43.13176870801924" lon="-2.546048339395861"><ele>178.6</ele><time>2026-04-30T11:40:31Z</time></trkpt><trkpt lat="43.131835753069005" lon="-2.5461350366362425"><ele>178.4</ele><time>2026-04-30T11:40:33Z</time></trkpt><trkpt lat="43.13188548217234" lon="-2.5462227933588593"><ele>178.2</ele><time>2026-04-30T11:40:35Z</time></trkpt><trkpt lat="43.13196762418762" lon="-2.5463207063897406"><ele>178.0</ele><time>2026-04-30T11:40:37Z</time></trkpt><trkpt lat="43.13204003024708" lon="-2.546421915440965"><ele>177.83333333333334</ele><time>2026-04-30T11:40:39Z</time></trkpt><trkpt lat="43.132126774099405" lon="-2.5465382185243803"><ele>177.66666666666669</ele><time>2026-04-30T11:40:41Z</time></trkpt><trkpt lat="43.13217604995523" lon="-2.546600873263797"><ele>177.5</ele><time>2026-04-30T11:40:42Z</time></trkpt><trkpt lat="43.132226779921474" lon="-2.5466650008830674"><ele>177.33333333333334</ele><time>2026-04-30T11:40:43Z</time></trkpt><trkpt lat="43.13226802183469" lon="-2.5467320077765465"><ele>177.16666666666666</ele><time>2026-04-30T11:40:44Z</time></trkpt><trkpt lat="43.13234175201115" lon="-2.546844747466385"><ele>177.0</ele><time>2026-04-30T11:40:46Z</time></trkpt><trkpt lat="43.132417012672086" lon="-2.5469303305356847"><ele>177.0</ele><time>2026-04-30T11:40:48Z</time></trkpt><trkpt lat="43.13246356736577" lon="-2.5470422126507457"><ele>177.0</ele><time>2026-04-30T11:40:50Z</time></trkpt><trkpt lat="43.132573172798104" lon="-2.547054181191379"><ele>177.0</ele><time>2026-04-30T11:40:52Z</time></trkpt><trkpt lat="43.13267557146125" lon="-2.546987842282244"><ele>177.0</ele><time>2026-04-30T11:40:54Z</time></trkpt><trkpt lat="43.132773009978365" lon="-2.5469386885620873"><ele>177.0</ele><time>2026-04-30T11:40:56Z</time></trkpt><trkpt lat="43.13288323846556" lon="-2.5468778385719473"><ele>177.39999999999998</ele><time>2026-04-30T11:40:58Z</time></trkpt><trkpt lat="43.13298839579872" lon="-2.5468176235791113"><ele>177.79999999999998</ele><time>2026-04-30T11:41:00Z</time></trkpt><trkpt lat="43.133089689203" lon="-2.5467496647185817"><ele>178.2</ele><time>2026-04-30T11:41:02Z</time></trkpt><trkpt lat="43.13315999746595" lon="-2.5466289384823275"><ele>178.6</ele><time>2026-04-30T11:41:04Z</time></trkpt><trkpt lat="43.13318852224759" lon="-2.5464991795876126"><ele>179.0</ele><time>2026-04-30T11:41:06Z</time></trkpt><trkpt lat="43.13321376091018" lon="-2.5463782433891113"><ele>179.39999999999998</ele><time>2026-04-30T11:41:08Z</time></trkpt><trkpt lat="43.133266312714646" lon="-2.546261693505999"><ele>179.8</ele><time>2026-04-30T11:41:10Z</time></trkpt><trkpt lat="43.13337169545295" lon="-2.5462137827071474"><ele>180.2</ele><time>2026-04-30T11:41:12Z</time></trkpt><trkpt lat="43.13347515767613" lon="-2.546243136022214"><ele>180.60000000000002</ele><time>2026-04-30T11:41:14Z</time></trkpt><trkpt lat="43.13359779016847" lon="-2.5462808921807305"><ele>181.0</ele><time>2026-04-30T11:41:16Z</time></trkpt><trkpt lat="43.1336633166375" lon="-2.546290097798656"><ele>181.0</ele><time>2026-04-30T11:41:17Z</time></trkpt><trkpt lat="43.13373173271768" lon="-2.546290168878799"><ele>181.0</ele><time>2026-04-30T11:41:18.001Z</time></trkpt><trkpt lat="43.13380769848254" lon="-2.5462794073548856"><ele>181.0</ele><time>2026-04-30T11:41:19.001Z</time></trkpt><trkpt lat="43.133881094709785" lon="-2.546263793063659"><ele>181.0</ele><time>2026-04-30T11:41:20.001Z</time></trkpt><trkpt lat="43.133955023363725" lon="-2.5462424284334837"><ele>181.0</ele><time>2026-04-30T11:41:21.001Z</time></trkpt><trkpt lat="43.13402701714332" lon="-2.546209509786498"><ele>181.0</ele><time>2026-04-30T11:41:22.001Z</time></trkpt><trkpt lat="43.13409731606779" lon="-2.5461690116425064"><ele>181.0</ele><time>2026-04-30T11:41:23.001Z</time></trkpt><trkpt lat="43.13417114019819" lon="-2.5461274659768636"><ele>181.33333333333334</ele><time>2026-04-30T11:41:24.001Z</time></trkpt><trkpt lat="43.134243975547356" lon="-2.546088912494478"><ele>181.66666666666669</ele><time>2026-04-30T11:41:25.001Z</time></trkpt><trkpt lat="43.134317065127235" lon="-2.5460511437488256"><ele>182.0</ele><time>2026-04-30T11:41:26.001Z</time></trkpt><trkpt lat="43.134389535960466" lon="-2.5460118896317927"><ele>182.33333333333334</ele><time>2026-04-30T11:41:27.001Z</time></trkpt><trkpt lat="43.134462472151164" lon="-2.5459700796533977"><ele>182.66666666666666</ele><time>2026-04-30T11:41:28.001Z</time></trkpt><trkpt lat="43.13453561531039" lon="-2.545930379987468"><ele>183.0</ele><time>2026-04-30T11:41:29.001Z</time></trkpt><trkpt lat="43.13460784992035" lon="-2.5458902213932366"><ele>183.0</ele><time>2026-04-30T11:41:30.001Z</time></trkpt><trkpt lat="43.13468098583629" lon="-2.5458493509690134"><ele>183.0</ele><time>2026-04-30T11:41:31.001Z</time></trkpt><trkpt lat="43.13475438415623" lon="-2.545807451269493"><ele>183.0</ele><time>2026-04-30T11:41:32.001Z</time></trkpt><trkpt lat="43.13482896889315" lon="-2.5457672620723852"><ele>183.0</ele><time>2026-04-30T11:41:33.001Z</time></trkpt><trkpt lat="43.13490290240436" lon="-2.5457258602146577"><ele>183.0</ele><time>2026-04-30T11:41:34.001Z</time></trkpt><trkpt lat="43.13497819174131" lon="-2.545683660449227"><ele>183.0</ele><time>2026-04-30T11:41:35.001Z</time></trkpt><trkpt lat="43.135054104292706" lon="-2.5456415283624483"><ele>184.0</ele><time>2026-04-30T11:41:36.001Z</time></trkpt><trkpt lat="43.135124788717725" lon="-2.545604998513554"><ele>185.0</ele><time>2026-04-30T11:41:37.001Z</time></trkpt><trkpt lat="43.13519366346311" lon="-2.545565468101534"><ele>186.0</ele><time>2026-04-30T11:41:38.001Z</time></trkpt><trkpt lat="43.13526416559899" lon="-2.5455242638243867"><ele>187.0</ele><time>2026-04-30T11:41:39.001Z</time></trkpt><trkpt lat="43.13533467517328" lon="-2.545483395027876"><ele>188.0</ele><time>2026-04-30T11:41:40.001Z</time></trkpt><trkpt lat="43.135405173210046" lon="-2.5454456205651357"><ele>189.0</ele><time>2026-04-30T11:41:41.001Z</time></trkpt><trkpt lat="43.13547521793258" lon="-2.545405147848165"><ele>188.66666666666666</ele><time>2026-04-30T11:41:42.001Z</time></trkpt><trkpt lat="43.135545899245685" lon="-2.545361106708079"><ele>188.33333333333334</ele><time>2026-04-30T11:41:43.001Z</time></trkpt><trkpt lat="43.13561660435052" lon="-2.545320102596532"><ele>188.0</ele><time>2026-04-30T11:41:44.001Z</time></trkpt><trkpt lat="43.13568778933733" lon="-2.5452836440889923"><ele>187.66666666666669</ele><time>2026-04-30T11:41:45.001Z</time></trkpt><trkpt lat="43.13576223083925" lon="-2.5452468395895664"><ele>187.33333333333334</ele><time>2026-04-30T11:41:46.001Z</time></trkpt><trkpt lat="43.13583835741819" lon="-2.5452124037641926"><ele>187.0</ele><time>2026-04-30T11:41:47.001Z</time></trkpt><trkpt lat="43.13591604498436" lon="-2.5451900510421295"><ele>187.0</ele><time>2026-04-30T11:41:48.001Z</time></trkpt><trkpt lat="43.135996534989786" lon="-2.545177648045474"><ele>187.0</ele><time>2026-04-30T11:41:49.001Z</time></trkpt><trkpt lat="43.13607845844403" lon="-2.5451783414416287"><ele>187.0</ele><time>2026-04-30T11:41:50.001Z</time></trkpt><trkpt lat="43.13615763903448" lon="-2.545197329947621"><ele>187.0</ele><time>2026-04-30T11:41:51.001Z</time></trkpt><trkpt lat="43.13623404006873" lon="-2.5452306237746143"><ele>187.0</ele><time>2026-04-30T11:41:52.001Z</time></trkpt><trkpt lat="43.136308784568904" lon="-2.545278217417057"><ele>187.0</ele><time>2026-04-30T11:41:53.001Z</time></trkpt><trkpt lat="43.136380803306274" lon="-2.545330597872398"><ele>187.5</ele><time>2026-04-30T11:41:53.998Z</time></trkpt><trkpt lat="43.13645059368537" lon="-2.5453907877650996"><ele>188.0</ele><time>2026-04-30T11:41:54.998Z</time></trkpt><trkpt lat="43.1365196936794" lon="-2.545454545022441"><ele>188.5</ele><time>2026-04-30T11:41:55.998Z</time></trkpt><trkpt lat="43.13659078299226" lon="-2.5455190088086797"><ele>189.0</ele><time>2026-04-30T11:41:56.998Z</time></trkpt><trkpt lat="43.136660470125506" lon="-2.5455848014600755"><ele>189.5</ele><time>2026-04-30T11:41:57.998Z</time></trkpt><trkpt lat="43.136730576850915" lon="-2.5456487181696517"><ele>190.0</ele><time>2026-04-30T11:41:58.998Z</time></trkpt><trkpt lat="43.1368023401267" lon="-2.5457091828424616"><ele>191.0</ele><time>2026-04-30T11:41:59.998Z</time></trkpt><trkpt lat="43.13687292486136" lon="-2.5457738847772386"><ele>192.0</ele><time>2026-04-30T11:42:00.998Z</time></trkpt><trkpt lat="43.136942134395" lon="-2.545835818823451"><ele>193.0</ele><time>2026-04-30T11:42:01.998Z</time></trkpt><trkpt lat="43.13700762320362" lon="-2.545901166432662"><ele>194.0</ele><time>2026-04-30T11:42:02.998Z</time></trkpt><trkpt lat="43.1370747701999" lon="-2.5459655377058654"><ele>194.99999999999997</ele><time>2026-04-30T11:42:03.998Z</time></trkpt><trkpt lat="43.1371473270785" lon="-2.5460179577754256"><ele>196.0</ele><time>2026-04-30T11:42:04.998Z</time></trkpt><trkpt lat="43.13722617350568" lon="-2.546059105117379"><ele>195.99999999999997</ele><time>2026-04-30T11:42:05.998Z</time></trkpt><trkpt lat="43.137311091094425" lon="-2.546085207722208"><ele>196.0</ele><time>2026-04-30T11:42:06.998Z</time></trkpt><trkpt lat="43.1373941946013" lon="-2.546096996579069"><ele>196.0</ele><time>2026-04-30T11:42:07.998Z</time></trkpt><trkpt lat="43.13746999278365" lon="-2.5461000040295514"><ele>196.0</ele><time>2026-04-30T11:42:08.998Z</time></trkpt><trkpt lat="43.1375490982682" lon="-2.54608805041143"><ele>195.99999999999997</ele><time>2026-04-30T11:42:09.999Z</time></trkpt><trkpt lat="43.13762781870052" lon="-2.5460773887977637"><ele>196.0</ele><time>2026-04-30T11:42:10.999Z</time></trkpt><trkpt lat="43.1377055809273" lon="-2.546069941186547"><ele>196.16666666666666</ele><time>2026-04-30T11:42:11.999Z</time></trkpt><trkpt lat="43.13778330504372" lon="-2.5460717277333886"><ele>196.33333333333331</ele><time>2026-04-30T11:42:12.999Z</time></trkpt><trkpt lat="43.1378605985022" lon="-2.546080707749572"><ele>196.5</ele><time>2026-04-30T11:42:13.999Z</time></trkpt><trkpt lat="43.137936416027955" lon="-2.5461045951076837"><ele>196.66666666666669</ele><time>2026-04-30T11:42:14.999Z</time></trkpt><trkpt lat="43.13801050817238" lon="-2.5461443551152625"><ele>196.83333333333334</ele><time>2026-04-30T11:42:15.999Z</time></trkpt><trkpt lat="43.138082994583065" lon="-2.5461925066995144"><ele>197.0</ele><time>2026-04-30T11:42:16.999Z</time></trkpt><trkpt lat="43.13815232104002" lon="-2.546250179028742"><ele>198.16666666666669</ele><time>2026-04-30T11:42:17.999Z</time></trkpt><trkpt lat="43.13821263186622" lon="-2.546317717668699"><ele>199.33333333333334</ele><time>2026-04-30T11:42:18.999Z</time></trkpt><trkpt lat="43.138266805046385" lon="-2.5463969339521655"><ele>200.5</ele><time>2026-04-30T11:42:19.999Z</time></trkpt><trkpt lat="43.13831720891477" lon="-2.546485280367407"><ele>201.66666666666669</ele><time>2026-04-30T11:42:20.999Z</time></trkpt><trkpt lat="43.13836537217002" lon="-2.5465759038831357"><ele>202.83333333333334</ele><time>2026-04-30T11:42:21.999Z</time></trkpt><trkpt lat="43.13841966093904" lon="-2.54666147413839"><ele>204.0</ele><time>2026-04-30T11:42:22.999Z</time></trkpt><trkpt lat="43.13847322845942" lon="-2.546748959719346"><ele>204.0</ele><time>2026-04-30T11:42:23.999Z</time></trkpt><trkpt lat="43.13852577824751" lon="-2.546838018045901"><ele>204.0</ele><time>2026-04-30T11:42:24.999Z</time></trkpt><trkpt lat="43.13857995471485" lon="-2.5469264308993593"><ele>204.0</ele><time>2026-04-30T11:42:25.999Z</time></trkpt><trkpt lat="43.13863333708502" lon="-2.5470158581947184"><ele>204.0</ele><time>2026-04-30T11:42:26.999Z</time></trkpt><trkpt lat="43.13868560798856" lon="-2.5471059856684914"><ele>204.0</ele><time>2026-04-30T11:42:27.999Z</time></trkpt><trkpt lat="43.13874177285421" lon="-2.5471924274889353"><ele>204.0</ele><time>2026-04-30T11:42:28.999Z</time></trkpt><trkpt lat="43.138796336725306" lon="-2.547277645222388"><ele>204.0</ele><time>2026-04-30T11:42:30Z</time></trkpt><trkpt lat="43.13884871897847" lon="-2.5473672029070094"><ele>204.0</ele><time>2026-04-30T11:42:31Z</time></trkpt><trkpt lat="43.13890074745594" lon="-2.5474572671351416"><ele>204.0</ele><time>2026-04-30T11:42:32Z</time></trkpt><trkpt lat="43.13895374293009" lon="-2.5475462491581338"><ele>204.0</ele><time>2026-04-30T11:42:33Z</time></trkpt><trkpt lat="43.139007419458615" lon="-2.547633056516574"><ele>204.0</ele><time>2026-04-30T11:42:34Z</time></trkpt><trkpt lat="43.139061413287614" lon="-2.54772010044006"><ele>204.0</ele><time>2026-04-30T11:42:35Z</time></trkpt><trkpt lat="43.1391154301659" lon="-2.547807392407062"><ele>206.33333333333334</ele><time>2026-04-30T11:42:36Z</time></trkpt><trkpt lat="43.13916655597264" lon="-2.5478959622540036"><ele>208.66666666666669</ele><time>2026-04-30T11:42:37Z</time></trkpt><trkpt lat="43.13922032839522" lon="-2.5479819393180176"><ele>211.0</ele><time>2026-04-30T11:42:38Z</time></trkpt><trkpt lat="43.13927430746953" lon="-2.548069833680881"><ele>213.33333333333334</ele><time>2026-04-30T11:42:39Z</time></trkpt><trkpt lat="43.13932246764739" lon="-2.548166809092433"><ele>215.66666666666669</ele><time>2026-04-30T11:42:40Z</time></trkpt><trkpt lat="43.13936125086139" lon="-2.5482751674600244"><ele>218.0</ele><time>2026-04-30T11:42:41Z</time></trkpt><trkpt lat="43.13939293769279" lon="-2.5483854014162755"><ele>218.0</ele><time>2026-04-30T11:42:42Z</time></trkpt><trkpt lat="43.139411392382776" lon="-2.5485042506037097"><ele>218.0</ele><time>2026-04-30T11:42:43Z</time></trkpt><trkpt lat="43.13942356847289" lon="-2.5486274591643117"><ele>218.0</ele><time>2026-04-30T11:42:44Z</time></trkpt><trkpt lat="43.13943906294485" lon="-2.548746850344289"><ele>218.0</ele><time>2026-04-30T11:42:45Z</time></trkpt><trkpt lat="43.1394615982742" lon="-2.548870756022704"><ele>218.0</ele><time>2026-04-30T11:42:46Z</time></trkpt><trkpt lat="43.139500812502156" lon="-2.5489876717059468"><ele>219.0</ele><time>2026-04-30T11:42:47Z</time></trkpt><trkpt lat="43.13954866645619" lon="-2.549098252062106"><ele>220.0</ele><time>2026-04-30T11:42:48Z</time></trkpt><trkpt lat="43.139598766486216" lon="-2.549207957100648"><ele>221.0</ele><time>2026-04-30T11:42:49Z</time></trkpt><trkpt lat="43.13965039115462" lon="-2.549315046664669"><ele>222.0</ele><time>2026-04-30T11:42:50Z</time></trkpt><trkpt lat="43.13970245833582" lon="-2.5494225093538367"><ele>223.0</ele><time>2026-04-30T11:42:51Z</time></trkpt><trkpt lat="43.13975266110382" lon="-2.5495276126478146"><ele>224.4</ele><time>2026-04-30T11:42:52Z</time></trkpt><trkpt lat="43.139805991192304" lon="-2.54963231477857"><ele>225.8</ele><time>2026-04-30T11:42:53Z</time></trkpt><trkpt lat="43.139858726980684" lon="-2.54973748897094"><ele>227.2</ele><time>2026-04-30T11:42:54Z</time></trkpt><trkpt lat="43.139911734927914" lon="-2.5498416337529606"><ele>228.6</ele><time>2026-04-30T11:42:55Z</time></trkpt><trkpt lat="43.139964258052466" lon="-2.549947705903216"><ele>230.0</ele><time>2026-04-30T11:42:56Z</time></trkpt><trkpt lat="43.14001293069334" lon="-2.5500567961520764"><ele>227.0</ele><time>2026-04-30T11:42:57Z</time></trkpt><trkpt lat="43.14005292047361" lon="-2.550171874792942"><ele>224.0</ele><time>2026-04-30T11:42:58Z</time></trkpt><trkpt lat="43.140078861362376" lon="-2.550294893625043"><ele>221.0</ele><time>2026-04-30T11:42:59Z</time></trkpt><trkpt lat="43.1400964199792" lon="-2.550420806676547"><ele>218.0</ele><time>2026-04-30T11:43:00Z</time></trkpt><trkpt lat="43.14010350664721" lon="-2.550544393785344"><ele>215.0</ele><time>2026-04-30T11:43:01Z</time></trkpt><trkpt lat="43.14010099175742" lon="-2.550668660254992"><ele>215.00000000000003</ele><time>2026-04-30T11:43:02Z</time></trkpt><trkpt lat="43.14009178616023" lon="-2.550793489506748"><ele>215.0</ele><time>2026-04-30T11:43:03Z</time></trkpt><trkpt lat="43.14008681847175" lon="-2.5509255792278713"><ele>215.0</ele><time>2026-04-30T11:43:04Z</time></trkpt><trkpt lat="43.14009026962207" lon="-2.551043875933092"><ele>215.0</ele><time>2026-04-30T11:43:05Z</time></trkpt><trkpt lat="43.14010380605973" lon="-2.551159916892756"><ele>215.00000000000003</ele><time>2026-04-30T11:43:06Z</time></trkpt><trkpt lat="43.14013604935233" lon="-2.5512708591002338"><ele>215.0</ele><time>2026-04-30T11:43:07Z</time></trkpt><trkpt lat="43.140191813656386" lon="-2.551370626954167"><ele>215.8</ele><time>2026-04-30T11:43:08Z</time></trkpt><trkpt lat="43.140271355414086" lon="-2.551440921340152"><ele>216.6</ele><time>2026-04-30T11:43:09Z</time></trkpt><trkpt lat="43.1403615531987" lon="-2.5514657917449663"><ele>217.39999999999998</ele><time>2026-04-30T11:43:10.001Z</time></trkpt><trkpt lat="43.14045555333265" lon="-2.551459613936424"><ele>218.2</ele><time>2026-04-30T11:43:11.001Z</time></trkpt><trkpt lat="43.14053928175872" lon="-2.5514237201166208"><ele>219.0</ele><time>2026-04-30T11:43:12.001Z</time></trkpt><trkpt lat="43.140616730299655" lon="-2.551370234199922"><ele>219.0</ele><time>2026-04-30T11:43:13.001Z</time></trkpt><trkpt lat="43.14068894233116" lon="-2.5512957103619716"><ele>219.0</ele><time>2026-04-30T11:43:14.001Z</time></trkpt><trkpt lat="43.14075855035794" lon="-2.5512182126487355"><ele>219.0</ele><time>2026-04-30T11:43:15.001Z</time></trkpt><trkpt lat="43.140831549384195" lon="-2.5511457550596206"><ele>219.0</ele><time>2026-04-30T11:43:16.001Z</time></trkpt><trkpt lat="43.14090020219481" lon="-2.5510808665911258"><ele>219.0</ele><time>2026-04-30T11:43:17.001Z</time></trkpt><trkpt lat="43.14097471146239" lon="-2.551012797582052"><ele>219.0</ele><time>2026-04-30T11:43:18.001Z</time></trkpt><trkpt lat="43.14104323231958" lon="-2.5509425458800146"><ele>218.16666666666666</ele><time>2026-04-30T11:43:19.001Z</time></trkpt><trkpt lat="43.14111311197984" lon="-2.550871716519569"><ele>217.33333333333331</ele><time>2026-04-30T11:43:20.001Z</time></trkpt><trkpt lat="43.141185529915184" lon="-2.5508072638265515"><ele>216.5</ele><time>2026-04-30T11:43:21.001Z</time></trkpt><trkpt lat="43.141253208412415" lon="-2.550736559630437"><ele>215.66666666666666</ele><time>2026-04-30T11:43:22.001Z</time></trkpt><trkpt lat="43.14132477081517" lon="-2.5506645146024893"><ele>214.83333333333331</ele><time>2026-04-30T11:43:23.001Z</time></trkpt><trkpt lat="43.141395662990725" lon="-2.5505975411491044"><ele>214.0</ele><time>2026-04-30T11:43:24.001Z</time></trkpt><trkpt lat="43.14146508471295" lon="-2.5505398766708414"><ele>213.99999999999997</ele><time>2026-04-30T11:43:25.001Z</time></trkpt><trkpt lat="43.14154318872656" lon="-2.550483120166144"><ele>214.0</ele><time>2026-04-30T11:43:26.001Z</time></trkpt><trkpt lat="43.14161551396982" lon="-2.550436433905335"><ele>214.0</ele><time>2026-04-30T11:43:27.001Z</time></trkpt><trkpt lat="43.141695216364184" lon="-2.550399659362601"><ele>214.0</ele><time>2026-04-30T11:43:28.001Z</time></trkpt><trkpt lat="43.14177875859912" lon="-2.5503724701341772"><ele>213.99999999999997</ele><time>2026-04-30T11:43:29.001Z</time></trkpt><trkpt lat="43.141862442155585" lon="-2.550368144243012"><ele>214.0</ele><time>2026-04-30T11:43:30.001Z</time></trkpt><trkpt lat="43.141946777160925" lon="-2.550369970119191"><ele>215.83333333333331</ele><time>2026-04-30T11:43:31.001Z</time></trkpt><trkpt lat="43.14203368877968" lon="-2.5503786609599106"><ele>217.66666666666666</ele><time>2026-04-30T11:43:32.001Z</time></trkpt><trkpt lat="43.142119834635295" lon="-2.550390145931632"><ele>219.5</ele><time>2026-04-30T11:43:33.001Z</time></trkpt><trkpt lat="43.14220351919998" lon="-2.550418394298966"><ele>221.33333333333331</ele><time>2026-04-30T11:43:34.001Z</time></trkpt><trkpt lat="43.14228534238982" lon="-2.550464246786681"><ele>223.16666666666666</ele><time>2026-04-30T11:43:35.001Z</time></trkpt><trkpt lat="43.142368449453826" lon="-2.5505183341971014"><ele>225.0</ele><time>2026-04-30T11:43:36.001Z</time></trkpt><trkpt lat="43.14244662795011" lon="-2.550579011463901"><ele>225.8</ele><time>2026-04-30T11:43:37.001Z</time></trkpt><trkpt lat="43.142521090892856" lon="-2.550648019644706"><ele>226.6</ele><time>2026-04-30T11:43:38.001Z</time></trkpt><trkpt lat="43.14259643953414" lon="-2.5507290158448064"><ele>227.39999999999998</ele><time>2026-04-30T11:43:39.001Z</time></trkpt><trkpt lat="43.14266547916559" lon="-2.550797516498714"><ele>228.2</ele><time>2026-04-30T11:43:40.001Z</time></trkpt><trkpt lat="43.14273742330723" lon="-2.5508716393434128"><ele>229.0</ele><time>2026-04-30T11:43:41.001Z</time></trkpt><trkpt lat="43.142814763993584" lon="-2.5509454065689616"><ele>228.99999999999997</ele><time>2026-04-30T11:43:42.001Z</time></trkpt><trkpt lat="43.14288216235579" lon="-2.551006005300214"><ele>229.0</ele><time>2026-04-30T11:43:43.001Z</time></trkpt><trkpt lat="43.14295523704842" lon="-2.551077127057017"><ele>229.0</ele><time>2026-04-30T11:43:44.001Z</time></trkpt><trkpt lat="43.14302443128805" lon="-2.55115703090269"><ele>229.0</ele><time>2026-04-30T11:43:45.001Z</time></trkpt><trkpt lat="43.14309693778519" lon="-2.5512243116208317"><ele>228.99999999999997</ele><time>2026-04-30T11:43:46.001Z</time></trkpt><trkpt lat="43.14316787125147" lon="-2.551292727204306"><ele>229.0</ele><time>2026-04-30T11:43:47.001Z</time></trkpt><trkpt lat="43.14323685166229" lon="-2.5513644275496072"><ele>229.83333333333331</ele><time>2026-04-30T11:43:48.001Z</time></trkpt><trkpt lat="43.14330492126246" lon="-2.5514377612883643"><ele>230.66666666666666</ele><time>2026-04-30T11:43:49.001Z</time></trkpt><trkpt lat="43.14336807484918" lon="-2.551524898392034"><ele>231.5</ele><time>2026-04-30T11:43:50.001Z</time></trkpt><trkpt lat="43.14343472395107" lon="-2.551599784959774"><ele>232.33333333333331</ele><time>2026-04-30T11:43:51.001Z</time></trkpt><trkpt lat="43.14349252018612" lon="-2.551693077253469"><ele>233.16666666666666</ele><time>2026-04-30T11:43:52.001Z</time></trkpt><trkpt lat="43.143550276944865" lon="-2.551781572399842"><ele>234.0</ele><time>2026-04-30T11:43:53.001Z</time></trkpt><trkpt lat="43.14360708419976" lon="-2.5518691508947224"><ele>234.0</ele><time>2026-04-30T11:43:54.001Z</time></trkpt><trkpt lat="43.14366088057653" lon="-2.551960679609025"><ele>234.0</ele><time>2026-04-30T11:43:55.001Z</time></trkpt><trkpt lat="43.14371533478377" lon="-2.552051209411204"><ele>234.0</ele><time>2026-04-30T11:43:56.001Z</time></trkpt><trkpt lat="43.143762263245" lon="-2.5521484544783033"><ele>234.0</ele><time>2026-04-30T11:43:57.001Z</time></trkpt><trkpt lat="43.143783813066854" lon="-2.552269193954775"><ele>234.0</ele><time>2026-04-30T11:43:58.001Z</time></trkpt><trkpt lat="43.143787354174165" lon="-2.5523945109942616"><ele>234.0</ele><time>2026-04-30T11:43:59.001Z</time></trkpt><trkpt lat="43.14376292859861" lon="-2.5525128044340746"><ele>235.2</ele><time>2026-04-30T11:43:59.998Z</time></trkpt><trkpt lat="43.14372428843101" lon="-2.5526284046825354"><ele>236.39999999999998</ele><time>2026-04-30T11:44:00.998Z</time></trkpt><trkpt lat="43.14367880249554" lon="-2.5527306474537848"><ele>237.6</ele><time>2026-04-30T11:44:01.998Z</time></trkpt><trkpt lat="43.14364748012918" lon="-2.552845124908188"><ele>238.8</ele><time>2026-04-30T11:44:02.998Z</time></trkpt><trkpt lat="43.14362615595299" lon="-2.5529644646883787"><ele>240.0</ele><time>2026-04-30T11:44:03.998Z</time></trkpt><trkpt lat="43.143625859437584" lon="-2.553101702304665"><ele>242.0</ele><time>2026-04-30T11:44:04.998Z</time></trkpt><trkpt lat="43.143663212826674" lon="-2.5532613352545206"><ele>244.0</ele><time>2026-04-30T11:44:05.999Z</time></trkpt><trkpt lat="43.143720484365495" lon="-2.5534338197361275"><ele>246.0</ele><time>2026-04-30T11:44:07.999Z</time></trkpt><trkpt lat="43.14378001506864" lon="-2.55352703001863"><ele>248.0</ele><time>2026-04-30T11:44:08.999Z</time></trkpt><trkpt lat="43.14383459378215" lon="-2.5536142665155324"><ele>250.0</ele><time>2026-04-30T11:44:09.999Z</time></trkpt><trkpt lat="43.143879581684786" lon="-2.5537097409755165"><ele>252.16666666666666</ele><time>2026-04-30T11:44:10.999Z</time></trkpt><trkpt lat="43.14391517210244" lon="-2.5538130667151866"><ele>254.33333333333331</ele><time>2026-04-30T11:44:11.999Z</time></trkpt><trkpt lat="43.14394609034861" lon="-2.553920332477691"><ele>256.5</ele><time>2026-04-30T11:44:12.999Z</time></trkpt><trkpt lat="43.143965433639316" lon="-2.554034285590959"><ele>258.6666666666667</ele><time>2026-04-30T11:44:13.999Z</time></trkpt><trkpt lat="43.14396415488528" lon="-2.5541545697435706"><ele>260.83333333333337</ele><time>2026-04-30T11:44:14.999Z</time></trkpt><trkpt lat="43.14394036607279" lon="-2.5542713434187996"><ele>263.0</ele><time>2026-04-30T11:44:15.999Z</time></trkpt><trkpt lat="43.14390438473874" lon="-2.554378662941693"><ele>263.0</ele><time>2026-04-30T11:44:16.999Z</time></trkpt><trkpt lat="43.14386856899671" lon="-2.5544917254394948"><ele>263.0</ele><time>2026-04-30T11:44:17.999Z</time></trkpt><trkpt lat="43.143853371659844" lon="-2.554600662228814"><ele>263.0</ele><time>2026-04-30T11:44:18.999Z</time></trkpt><trkpt lat="43.143875971945356" lon="-2.5547313901919466"><ele>263.0</ele><time>2026-04-30T11:44:19.999Z</time></trkpt><trkpt lat="43.1439211369256" lon="-2.5548410323219204"><ele>263.0</ele><time>2026-04-30T11:44:20.999Z</time></trkpt><trkpt lat="43.14398920389513" lon="-2.55495266985179"><ele>259.2</ele><time>2026-04-30T11:44:21.999Z</time></trkpt><trkpt lat="43.1440836468729" lon="-2.555074528771586"><ele>255.4</ele><time>2026-04-30T11:44:22.999Z</time></trkpt><trkpt lat="43.144165892873744" lon="-2.5550567105026056"><ele>251.59999999999997</ele><time>2026-04-30T11:44:23.999Z</time></trkpt><trkpt lat="43.14423650050257" lon="-2.55507469299271"><ele>247.79999999999998</ele><time>2026-04-30T11:44:24.999Z</time></trkpt><trkpt lat="43.14432433973385" lon="-2.555069606136164"><ele>244.0</ele><time>2026-04-30T11:44:25.999Z</time></trkpt><trkpt lat="43.144408297768265" lon="-2.5550485457065837"><ele>243.99999999999997</ele><time>2026-04-30T11:44:27Z</time></trkpt><trkpt lat="43.14449069134512" lon="-2.555033544847246"><ele>244.0</ele><time>2026-04-30T11:44:28Z</time></trkpt><trkpt lat="43.144577608139386" lon="-2.5550166924523965"><ele>244.0</ele><time>2026-04-30T11:44:29Z</time></trkpt><trkpt lat="43.144661073003334" lon="-2.554993942981698"><ele>244.0</ele><time>2026-04-30T11:44:30Z</time></trkpt><trkpt lat="43.144747683668044" lon="-2.554972724206072"><ele>243.99999999999997</ele><time>2026-04-30T11:44:31Z</time></trkpt><trkpt lat="43.144828104856856" lon="-2.5549536951814704"><ele>244.0</ele><time>2026-04-30T11:44:32Z</time></trkpt><trkpt lat="43.1449044833421" lon="-2.55492906524273"><ele>243.49999999999997</ele><time>2026-04-30T11:44:33Z</time></trkpt><trkpt lat="43.14498265871676" lon="-2.554907816696248"><ele>243.0</ele><time>2026-04-30T11:44:34Z</time></trkpt><trkpt lat="43.145061940028015" lon="-2.5548924625826177"><ele>242.5</ele><time>2026-04-30T11:44:35Z</time></trkpt><trkpt lat="43.145137634371515" lon="-2.5548772151899226"><ele>242.0</ele><time>2026-04-30T11:44:36Z</time></trkpt><trkpt lat="43.14521747407537" lon="-2.5548771926686076"><ele>241.49999999999997</ele><time>2026-04-30T11:44:37Z</time></trkpt><trkpt lat="43.145295431344906" lon="-2.5548815506318405"><ele>241.0</ele><time>2026-04-30T11:44:38Z</time></trkpt><trkpt lat="43.14537253850002" lon="-2.5549027423566106"><ele>240.99999999999997</ele><time>2026-04-30T11:44:39Z</time></trkpt><trkpt lat="43.14544712762023" lon="-2.554943448504061"><ele>241.0</ele><time>2026-04-30T11:44:40Z</time></trkpt><trkpt lat="43.14551636208362" lon="-2.554992812353564"><ele>241.0</ele><time>2026-04-30T11:44:41Z</time></trkpt><trkpt lat="43.14558574191988" lon="-2.5550386425153193"><ele>241.0</ele><time>2026-04-30T11:44:42Z</time></trkpt><trkpt lat="43.14565259078673" lon="-2.555102882499733"><ele>240.99999999999997</ele><time>2026-04-30T11:44:43Z</time></trkpt><trkpt lat="43.145721148480064" lon="-2.555169942586684"><ele>241.0</ele><time>2026-04-30T11:44:44Z</time></trkpt><trkpt lat="43.145790057107156" lon="-2.55522728848911"><ele>242.0</ele><time>2026-04-30T11:44:45Z</time></trkpt><trkpt lat="43.145878841381965" lon="-2.5552860396883004"><ele>243.0</ele><time>2026-04-30T11:44:47Z</time></trkpt><trkpt lat="43.14604258908146" lon="-2.55541920588888"><ele>244.0</ele><time>2026-04-30T11:44:48Z</time></trkpt><trkpt lat="43.146123291902846" lon="-2.555473024228975"><ele>245.0</ele><time>2026-04-30T11:44:49Z</time></trkpt><trkpt lat="43.146208259633454" lon="-2.5555338068445383"><ele>245.0</ele><time>2026-04-30T11:44:50Z</time></trkpt><trkpt lat="43.14629463544352" lon="-2.5555978145066884"><ele>245.0</ele><time>2026-04-30T11:44:51Z</time></trkpt><trkpt lat="43.14638190837338" lon="-2.5556640799842554"><ele>245.0</ele><time>2026-04-30T11:44:52Z</time></trkpt><trkpt lat="43.14647168800632" lon="-2.555728848860504"><ele>245.0</ele><time>2026-04-30T11:44:53Z</time></trkpt><trkpt lat="43.14656368365005" lon="-2.5557864278324005"><ele>245.0</ele><time>2026-04-30T11:44:54Z</time></trkpt><trkpt lat="43.146653397181595" lon="-2.5558484987768155"><ele>245.0</ele><time>2026-04-30T11:44:55Z</time></trkpt><trkpt lat="43.14674428219637" lon="-2.555916203801082"><ele>245.0</ele><time>2026-04-30T11:44:56Z</time></trkpt><trkpt lat="43.1468348768898" lon="-2.555981842555851"><ele>245.0</ele><time>2026-04-30T11:44:57Z</time></trkpt><trkpt lat="43.14692296171687" lon="-2.556045593237066"><ele>245.0</ele><time>2026-04-30T11:44:58.001Z</time></trkpt><trkpt lat="43.14701480209874" lon="-2.5561089627145366"><ele>245.0</ele><time>2026-04-30T11:44:59.001Z</time></trkpt><trkpt lat="43.14710624463813" lon="-2.55617442203941"><ele>243.6</ele><time>2026-04-30T11:45:00.001Z</time></trkpt><trkpt lat="43.14720038216204" lon="-2.556240009585027"><ele>242.2</ele><time>2026-04-30T11:45:01.001Z</time></trkpt><trkpt lat="43.147295156796275" lon="-2.5563078726549358"><ele>240.8</ele><time>2026-04-30T11:45:02.001Z</time></trkpt><trkpt lat="43.14738786722759" lon="-2.5563731780813996"><ele>239.4</ele><time>2026-04-30T11:45:03.001Z</time></trkpt><trkpt lat="43.147480659035054" lon="-2.5564409394623397"><ele>238.0</ele><time>2026-04-30T11:45:04.001Z</time></trkpt><trkpt lat="43.147574823585934" lon="-2.5565131616350176"><ele>238.0</ele><time>2026-04-30T11:45:05.001Z</time></trkpt><trkpt lat="43.1476676144641" lon="-2.5565775372587964"><ele>238.0</ele><time>2026-04-30T11:45:06.001Z</time></trkpt><trkpt lat="43.147759367340754" lon="-2.5566503168683896"><ele>238.0</ele><time>2026-04-30T11:45:07.001Z</time></trkpt><trkpt lat="43.1478493806312" lon="-2.5567325309990103"><ele>238.0</ele><time>2026-04-30T11:45:08.001Z</time></trkpt><trkpt lat="43.14793318925625" lon="-2.5568194150703936"><ele>238.0</ele><time>2026-04-30T11:45:09.001Z</time></trkpt><trkpt lat="43.14801208366216" lon="-2.556920064259477"><ele>238.0</ele><time>2026-04-30T11:45:10.001Z</time></trkpt><trkpt lat="43.14808353071969" lon="-2.5570310866104906"><ele>238.0</ele><time>2026-04-30T11:45:11.001Z</time></trkpt><trkpt lat="43.14813419311018" lon="-2.5571433605078195"><ele>238.0</ele><time>2026-04-30T11:45:12.001Z</time></trkpt><trkpt lat="43.14820055599662" lon="-2.55725476521401"><ele>238.0</ele><time>2026-04-30T11:45:13.001Z</time></trkpt><trkpt lat="43.148274933332296" lon="-2.5573598784542986"><ele>238.0</ele><time>2026-04-30T11:45:14.001Z</time></trkpt><trkpt lat="43.14835080488497" lon="-2.5574595547340038"><ele>237.4</ele><time>2026-04-30T11:45:15.001Z</time></trkpt><trkpt lat="43.14843058446165" lon="-2.5575496082913696"><ele>236.8</ele><time>2026-04-30T11:45:16.001Z</time></trkpt><trkpt lat="43.14851379076025" lon="-2.5576338843410626"><ele>236.2</ele><time>2026-04-30T11:45:17.001Z</time></trkpt><trkpt lat="43.148600167746366" lon="-2.557710512196264"><ele>235.6</ele><time>2026-04-30T11:45:18.001Z</time></trkpt><trkpt lat="43.14868745230328" lon="-2.557789650481432"><ele>235.0</ele><time>2026-04-30T11:45:19.001Z</time></trkpt><trkpt lat="43.14877270289223" lon="-2.557865325453485"><ele>235.0</ele><time>2026-04-30T11:45:20.001Z</time></trkpt><trkpt lat="43.14886009329404" lon="-2.5579425616276614"><ele>235.0</ele><time>2026-04-30T11:45:21.001Z</time></trkpt><trkpt lat="43.14894962933782" lon="-2.558015863206774"><ele>235.0</ele><time>2026-04-30T11:45:22.001Z</time></trkpt><trkpt lat="43.149037008565585" lon="-2.5580940194312936"><ele>235.0</ele><time>2026-04-30T11:45:23.001Z</time></trkpt><trkpt lat="43.14912410997126" lon="-2.558170931359023"><ele>235.0</ele><time>2026-04-30T11:45:24.001Z</time></trkpt><trkpt lat="43.14921143320892" lon="-2.5582472148499935"><ele>235.0</ele><time>2026-04-30T11:45:25.001Z</time></trkpt><trkpt lat="43.14930193289913" lon="-2.5583193954251544"><ele>235.0</ele><time>2026-04-30T11:45:26.001Z</time></trkpt><trkpt lat="43.14938960715959" lon="-2.558392852483864"><ele>235.0</ele><time>2026-04-30T11:45:27.001Z</time></trkpt><trkpt lat="43.14947575990089" lon="-2.558470091825491"><ele>235.0</ele><time>2026-04-30T11:45:28.001Z</time></trkpt><trkpt lat="43.14956081486468" lon="-2.5585443277830042"><ele>235.0</ele><time>2026-04-30T11:45:29.001Z</time></trkpt><trkpt lat="43.14965156886813" lon="-2.558614758339227"><ele>235.0</ele><time>2026-04-30T11:45:30.001Z</time></trkpt><trkpt lat="43.149736892584954" lon="-2.558690540911061"><ele>235.0</ele><time>2026-04-30T11:45:31.001Z</time></trkpt><trkpt lat="43.14982255065702" lon="-2.5587632783442014"><ele>235.0</ele><time>2026-04-30T11:45:32.001Z</time></trkpt><trkpt lat="43.1499072746278" lon="-2.558838583134862"><ele>235.0</ele><time>2026-04-30T11:45:33.001Z</time></trkpt><trkpt lat="43.149993770524524" lon="-2.558913270529436"><ele>235.0</ele><time>2026-04-30T11:45:34.001Z</time></trkpt><trkpt lat="43.15007987358304" lon="-2.558989333611538"><ele>233.75</ele><time>2026-04-30T11:45:35.001Z</time></trkpt><trkpt lat="43.15016517657958" lon="-2.559069717254088"><ele>232.5</ele><time>2026-04-30T11:45:36.001Z</time></trkpt><trkpt lat="43.15024359671243" lon="-2.559169547985062"><ele>231.25</ele><time>2026-04-30T11:45:37.002Z</time></trkpt><trkpt lat="43.15031796881791" lon="-2.559307512970276"><ele>230.0</ele><time>2026-04-30T11:45:38.002Z</time></trkpt><trkpt lat="43.15041815951162" lon="-2.5594613506354933"><ele>230.0</ele><time>2026-04-30T11:45:39.002Z</time></trkpt><trkpt lat="43.150517207755755" lon="-2.5596657233782043"><ele>230.0</ele><time>2026-04-30T11:45:40.002Z</time></trkpt><trkpt lat="43.150579300233794" lon="-2.5595031311379355"><ele>230.0</ele><time>2026-04-30T11:45:41.002Z</time></trkpt><trkpt lat="43.150666594100514" lon="-2.559581516331969"><ele>230.0</ele><time>2026-04-30T11:45:42.002Z</time></trkpt><trkpt lat="43.15075880720713" lon="-2.5596559803557764"><ele>230.0</ele><time>2026-04-30T11:45:43.002Z</time></trkpt><trkpt lat="43.15084914337184" lon="-2.5597210908868626"><ele>230.0</ele><time>2026-04-30T11:45:44.002Z</time></trkpt><trkpt lat="43.15094671643578" lon="-2.5597821466787267"><ele>230.0</ele><time>2026-04-30T11:45:45.002Z</time></trkpt><trkpt lat="43.15104620511964" lon="-2.5598469432538042"><ele>230.0</ele><time>2026-04-30T11:45:46.002Z</time></trkpt><trkpt lat="43.151142771454566" lon="-2.5599181785955523"><ele>230.0</ele><time>2026-04-30T11:45:47.002Z</time></trkpt><trkpt lat="43.15123320644733" lon="-2.560007850424346"><ele>230.0</ele><time>2026-04-30T11:45:48.002Z</time></trkpt><trkpt lat="43.15130921863369" lon="-2.560114684090072"><ele>230.0</ele><time>2026-04-30T11:45:49.002Z</time></trkpt><trkpt lat="43.15136667794259" lon="-2.5602341751356748"><ele>230.0</ele><time>2026-04-30T11:45:50.002Z</time></trkpt><trkpt lat="43.15141613800108" lon="-2.560363667866492"><ele>230.0</ele><time>2026-04-30T11:45:51.002Z</time></trkpt><trkpt lat="43.151455511788285" lon="-2.5604983491989213"><ele>230.0</ele><time>2026-04-30T11:45:52.002Z</time></trkpt><trkpt lat="43.1514864102888" lon="-2.560641065841706"><ele>230.6</ele><time>2026-04-30T11:45:53.002Z</time></trkpt><trkpt lat="43.15151045798294" lon="-2.5607891579999933"><ele>231.2</ele><time>2026-04-30T11:45:54.002Z</time></trkpt><trkpt lat="43.15153281942598" lon="-2.5609346008185656"><ele>231.8</ele><time>2026-04-30T11:45:55.002Z</time></trkpt><trkpt lat="43.15156028036019" lon="-2.5610799500946637"><ele>232.4</ele><time>2026-04-30T11:45:56.002Z</time></trkpt><trkpt lat="43.15159222024595" lon="-2.56122485880304"><ele>233.0</ele><time>2026-04-30T11:45:57.002Z</time></trkpt><trkpt lat="43.151635374022256" lon="-2.5613661419742084"><ele>231.0</ele><time>2026-04-30T11:45:58.002Z</time></trkpt><trkpt lat="43.1516924096588" lon="-2.561494694375396"><ele>229.0</ele><time>2026-04-30T11:45:59.002Z</time></trkpt><trkpt lat="43.15176588244621" lon="-2.5616101610468522"><ele>227.0</ele><time>2026-04-30T11:46:00.002Z</time></trkpt><trkpt lat="43.15185652676965" lon="-2.5617008779584705"><ele>225.0</ele><time>2026-04-30T11:46:01.002Z</time></trkpt><trkpt lat="43.15195860482007" lon="-2.5617618633235812"><ele>223.0</ele><time>2026-04-30T11:46:02.002Z</time></trkpt><trkpt lat="43.15207558338465" lon="-2.561776457007748"><ele>223.0</ele><time>2026-04-30T11:46:03.002Z</time></trkpt><trkpt lat="43.15218277916842" lon="-2.561797762712475"><ele>223.0</ele><time>2026-04-30T11:46:04.002Z</time></trkpt><trkpt lat="43.15229003836684" lon="-2.561807618346195"><ele>223.0</ele><time>2026-04-30T11:46:05.002Z</time></trkpt><trkpt lat="43.15238464865518" lon="-2.5618323469157365"><ele>223.0</ele><time>2026-04-30T11:46:05.999Z</time></trkpt><trkpt lat="43.15245196962182" lon="-2.5618766381370253"><ele>223.0</ele><time>2026-04-30T11:46:06.999Z</time></trkpt><trkpt lat="43.15260433416689" lon="-2.561913596981044"><ele>222.66666666666666</ele><time>2026-04-30T11:46:07.999Z</time></trkpt><trkpt lat="43.152772577520594" lon="-2.5620092368418104"><ele>222.33333333333331</ele><time>2026-04-30T11:46:08.999Z</time></trkpt><trkpt lat="43.15296210251545" lon="-2.562131938709258"><ele>222.0</ele><time>2026-04-30T11:46:09.999Z</time></trkpt><trkpt lat="43.15287956382064" lon="-2.5620945564560964"><ele>222.0</ele><time>2026-04-30T11:46:10.999Z</time></trkpt><trkpt lat="43.15296175199365" lon="-2.5621809526709574"><ele>222.0</ele><time>2026-04-30T11:46:11.999Z</time></trkpt><trkpt lat="43.15303035234359" lon="-2.5622741085231397"><ele>222.0</ele><time>2026-04-30T11:46:12.999Z</time></trkpt><trkpt lat="43.15310162118272" lon="-2.5623745867699177"><ele>222.0</ele><time>2026-04-30T11:46:13.999Z</time></trkpt><trkpt lat="43.15317123221595" lon="-2.562477793983586"><ele>222.0</ele><time>2026-04-30T11:46:14.999Z</time></trkpt><trkpt lat="43.153244312884986" lon="-2.5625731927883963"><ele>220.8</ele><time>2026-04-30T11:46:15.999Z</time></trkpt><trkpt lat="43.15331759291557" lon="-2.5626679575909934"><ele>219.6</ele><time>2026-04-30T11:46:16.999Z</time></trkpt><trkpt lat="43.153387320564995" lon="-2.5627624803685585"><ele>218.40000000000003</ele><time>2026-04-30T11:46:17.999Z</time></trkpt><trkpt lat="43.15346203570947" lon="-2.5628587355137866"><ele>217.20000000000002</ele><time>2026-04-30T11:46:18.999Z</time></trkpt><trkpt lat="43.1535356603329" lon="-2.5629566921803244"><ele>216.0</ele><time>2026-04-30T11:46:19.999Z</time></trkpt><trkpt lat="43.15360959299766" lon="-2.5630534986786473"><ele>216.0</ele><time>2026-04-30T11:46:20.999Z</time></trkpt><trkpt lat="43.15368154739446" lon="-2.5631523852065534"><ele>216.00000000000003</ele><time>2026-04-30T11:46:21.999Z</time></trkpt><trkpt lat="43.15375071773676" lon="-2.563250473830743"><ele>216.00000000000003</ele><time>2026-04-30T11:46:22.999Z</time></trkpt><trkpt lat="43.153804262747" lon="-2.563367442801962"><ele>216.0</ele><time>2026-04-30T11:46:23.999Z</time></trkpt><trkpt lat="43.15383711302456" lon="-2.5635039461607447"><ele>216.0</ele><time>2026-04-30T11:46:24.999Z</time></trkpt><trkpt lat="43.15385623377883" lon="-2.5636464689432015"><ele>215.0</ele><time>2026-04-30T11:46:26Z</time></trkpt><trkpt lat="43.15385828733797" lon="-2.563793484653445"><ele>214.00000000000003</ele><time>2026-04-30T11:46:27Z</time></trkpt><trkpt lat="43.15384480899581" lon="-2.5639375407158633"><ele>213.0</ele><time>2026-04-30T11:46:28Z</time></trkpt><trkpt lat="43.15382191870576" lon="-2.5640797627958"><ele>212.0</ele><time>2026-04-30T11:46:29Z</time></trkpt><trkpt lat="43.153795371357496" lon="-2.5642168865422206"><ele>211.0</ele><time>2026-04-30T11:46:30Z</time></trkpt><trkpt lat="43.153771493837" lon="-2.564356353399588"><ele>211.0</ele><time>2026-04-30T11:46:31Z</time></trkpt><trkpt lat="43.15374970889363" lon="-2.564490313637343"><ele>211.0</ele><time>2026-04-30T11:46:32Z</time></trkpt><trkpt lat="43.15372824363325" lon="-2.564619324583765"><ele>211.0</ele><time>2026-04-30T11:46:33Z</time></trkpt><trkpt lat="43.15370369776775" lon="-2.5647517778682576"><ele>211.0</ele><time>2026-04-30T11:46:34Z</time></trkpt><trkpt lat="43.153678043406586" lon="-2.564881190032505"><ele>211.0</ele><time>2026-04-30T11:46:35Z</time></trkpt><trkpt lat="43.15366810438094" lon="-2.565014845909466"><ele>210.60000000000002</ele><time>2026-04-30T11:46:36Z</time></trkpt><trkpt lat="43.15367917307799" lon="-2.56514893555158"><ele>210.2</ele><time>2026-04-30T11:46:37Z</time></trkpt><trkpt lat="43.15372252299005" lon="-2.565277795568276"><ele>209.8</ele><time>2026-04-30T11:46:38Z</time></trkpt><trkpt lat="43.15378963314768" lon="-2.5653848258607637"><ele>209.39999999999998</ele><time>2026-04-30T11:46:39Z</time></trkpt><trkpt lat="43.15386898772916" lon="-2.565478187731597"><ele>209.0</ele><time>2026-04-30T11:46:40Z</time></trkpt><trkpt lat="43.153951299861205" lon="-2.565575276209549"><ele>208.39999999999998</ele><time>2026-04-30T11:46:41Z</time></trkpt><trkpt lat="43.15402883007769" lon="-2.565676335600296"><ele>207.8</ele><time>2026-04-30T11:46:42Z</time></trkpt><trkpt lat="43.15410576841063" lon="-2.5657818973244426"><ele>207.2</ele><time>2026-04-30T11:46:43Z</time></trkpt><trkpt lat="43.15418097598333" lon="-2.5658908624617434"><ele>206.60000000000002</ele><time>2026-04-30T11:46:44Z</time></trkpt><trkpt lat="43.15425275222527" lon="-2.5659971405943365"><ele>206.0</ele><time>2026-04-30T11:46:45Z</time></trkpt><trkpt lat="43.15432791568138" lon="-2.5661062123777985"><ele>207.4</ele><time>2026-04-30T11:46:46Z</time></trkpt><trkpt lat="43.15439731496901" lon="-2.5662171301145884"><ele>208.8</ele><time>2026-04-30T11:46:47Z</time></trkpt><trkpt lat="43.15446538109815" lon="-2.5663285111117373"><ele>210.20000000000002</ele><time>2026-04-30T11:46:48Z</time></trkpt><trkpt lat="43.15453190429505" lon="-2.5664480727571877"><ele>211.60000000000002</ele><time>2026-04-30T11:46:49Z</time></trkpt><trkpt lat="43.15459423526675" lon="-2.566562340914009"><ele>213.0</ele><time>2026-04-30T11:46:50Z</time></trkpt><trkpt lat="43.15465717304844" lon="-2.5666830255582593"><ele>213.0</ele><time>2026-04-30T11:46:51Z</time></trkpt><trkpt lat="43.154720622771656" lon="-2.5668008070537884"><ele>213.0</ele><time>2026-04-30T11:46:52.001Z</time></trkpt><trkpt lat="43.15478499848336" lon="-2.5669148132954573"><ele>213.0</ele><time>2026-04-30T11:46:53.001Z</time></trkpt><trkpt lat="43.154847797429596" lon="-2.5670322311550886"><ele>213.0</ele><time>2026-04-30T11:46:54.001Z</time></trkpt><trkpt lat="43.154912129111686" lon="-2.5671433890187276"><ele>213.0</ele><time>2026-04-30T11:46:55.001Z</time></trkpt><trkpt lat="43.154986457170295" lon="-2.5672391013985996"><ele>213.60000000000002</ele><time>2026-04-30T11:46:56.001Z</time></trkpt><trkpt lat="43.155074691327364" lon="-2.5673155080582695"><ele>214.20000000000002</ele><time>2026-04-30T11:46:57.001Z</time></trkpt><trkpt lat="43.15516871687306" lon="-2.5673616453198926"><ele>214.8</ele><time>2026-04-30T11:46:58.001Z</time></trkpt><trkpt lat="43.15527930071462" lon="-2.567389132204877"><ele>215.4</ele><time>2026-04-30T11:46:59.001Z</time></trkpt><trkpt lat="43.155386080893166" lon="-2.5674161065273533"><ele>216.0</ele><time>2026-04-30T11:47:00.001Z</time></trkpt><trkpt lat="43.155493097039304" lon="-2.567449229834189"><ele>216.0</ele><time>2026-04-30T11:47:01.001Z</time></trkpt><trkpt lat="43.15559743110488" lon="-2.567486919880658"><ele>216.00000000000003</ele><time>2026-04-30T11:47:02.001Z</time></trkpt><trkpt lat="43.155703844975044" lon="-2.567525026912498"><ele>216.00000000000003</ele><time>2026-04-30T11:47:03.001Z</time></trkpt><trkpt lat="43.155810044494835" lon="-2.567560356574127"><ele>216.0</ele><time>2026-04-30T11:47:04.001Z</time></trkpt><trkpt lat="43.155916303939925" lon="-2.56759649336613"><ele>216.0</ele><time>2026-04-30T11:47:05.001Z</time></trkpt><trkpt lat="43.156022690758334" lon="-2.56763068300027"><ele>216.4</ele><time>2026-04-30T11:47:06.001Z</time></trkpt><trkpt lat="43.15613024667002" lon="-2.5676643816504585"><ele>216.8</ele><time>2026-04-30T11:47:07.001Z</time></trkpt><trkpt lat="43.1562383850996" lon="-2.5677001138807793"><ele>217.20000000000002</ele><time>2026-04-30T11:47:08.001Z</time></trkpt><trkpt lat="43.156345558252184" lon="-2.567734480033385"><ele>217.60000000000002</ele><time>2026-04-30T11:47:09.001Z</time></trkpt><trkpt lat="43.15645250586494" lon="-2.567767796180183"><ele>218.0</ele><time>2026-04-30T11:47:10.001Z</time></trkpt><trkpt lat="43.156561276042886" lon="-2.567800360159801"><ele>218.60000000000002</ele><time>2026-04-30T11:47:11.001Z</time></trkpt><trkpt lat="43.15666990714167" lon="-2.5678304402108285"><ele>219.20000000000002</ele><time>2026-04-30T11:47:12.001Z</time></trkpt><trkpt lat="43.156777908251094" lon="-2.567858133833912"><ele>219.8</ele><time>2026-04-30T11:47:13.001Z</time></trkpt><trkpt lat="43.15688877517343" lon="-2.5678762471328"><ele>220.4</ele><time>2026-04-30T11:47:14.001Z</time></trkpt><trkpt lat="43.15699657380031" lon="-2.56788902835503"><ele>221.0</ele><time>2026-04-30T11:47:15.001Z</time></trkpt><trkpt lat="43.15710585014335" lon="-2.567890675678677"><ele>219.60000000000002</ele><time>2026-04-30T11:47:16.001Z</time></trkpt><trkpt lat="43.15721262852843" lon="-2.567880336471855"><ele>218.20000000000002</ele><time>2026-04-30T11:47:17.001Z</time></trkpt><trkpt lat="43.157320357503274" lon="-2.56786390722558"><ele>216.79999999999998</ele><time>2026-04-30T11:47:18.001Z</time></trkpt><trkpt lat="43.157421950793484" lon="-2.567844018955263"><ele>215.39999999999998</ele><time>2026-04-30T11:47:19.001Z</time></trkpt><trkpt lat="43.15752525625957" lon="-2.5678123731960754"><ele>214.0</ele><time>2026-04-30T11:47:20.001Z</time></trkpt><trkpt lat="43.15763245668556" lon="-2.5677639798064"><ele>214.0</ele><time>2026-04-30T11:47:21.001Z</time></trkpt><trkpt lat="43.15772017205992" lon="-2.567705445046227"><ele>213.99999999999997</ele><time>2026-04-30T11:47:22.001Z</time></trkpt><trkpt lat="43.15778717649735" lon="-2.567613480494228"><ele>213.99999999999997</ele><time>2026-04-30T11:47:23.001Z</time></trkpt><trkpt lat="43.15787080989012" lon="-2.567507372079331"><ele>214.0</ele><time>2026-04-30T11:47:24.001Z</time></trkpt><trkpt lat="43.15791524014731" lon="-2.5673537633080206"><ele>214.0</ele><time>2026-04-30T11:47:25.001Z</time></trkpt><trkpt lat="43.15794848821757" lon="-2.5672141211359167"><ele>214.0</ele><time>2026-04-30T11:47:26.001Z</time></trkpt><trkpt lat="43.15801546760473" lon="-2.5671095302732545"><ele>213.99999999999997</ele><time>2026-04-30T11:47:27.002Z</time></trkpt><trkpt lat="43.15806919176145" lon="-2.566993551909161"><ele>213.99999999999997</ele><time>2026-04-30T11:47:28.002Z</time></trkpt><trkpt lat="43.15812402663721" lon="-2.566889533943027"><ele>214.0</ele><time>2026-04-30T11:47:29.002Z</time></trkpt><trkpt lat="43.15819631404519" lon="-2.5668072720700756"><ele>214.0</ele><time>2026-04-30T11:47:30.002Z</time></trkpt><trkpt lat="43.15828163697458" lon="-2.5667518957690474"><ele>213.2</ele><time>2026-04-30T11:47:31.002Z</time></trkpt><trkpt lat="43.158374915124845" lon="-2.5667504028131156"><ele>212.39999999999998</ele><time>2026-04-30T11:47:32.002Z</time></trkpt><trkpt lat="43.15846538582133" lon="-2.566776923712131"><ele>211.6</ele><time>2026-04-30T11:47:33.002Z</time></trkpt><trkpt lat="43.158546153933614" lon="-2.5668548487105602"><ele>210.8</ele><time>2026-04-30T11:47:34.002Z</time></trkpt><trkpt lat="43.15859550625558" lon="-2.5669723026490203"><ele>210.0</ele><time>2026-04-30T11:47:35.002Z</time></trkpt><trkpt lat="43.15862052263338" lon="-2.567106994749252"><ele>207.8</ele><time>2026-04-30T11:47:36.002Z</time></trkpt><trkpt lat="43.15860561023367" lon="-2.567242539975358"><ele>205.6</ele><time>2026-04-30T11:47:37.002Z</time></trkpt><trkpt lat="43.1586985392388" lon="-2.567373677526704"><ele>203.39999999999998</ele><time>2026-04-30T11:47:38.002Z</time></trkpt><trkpt lat="43.15874586052559" lon="-2.567499382823115"><ele>201.2</ele><time>2026-04-30T11:47:39.002Z</time></trkpt><trkpt lat="43.158792531183" lon="-2.5676244314136834"><ele>199.0</ele><time>2026-04-30T11:47:40.002Z</time></trkpt><trkpt lat="43.15885390205401" lon="-2.5677356860881178"><ele>199.0</ele><time>2026-04-30T11:47:41.002Z</time></trkpt><trkpt lat="43.158925961445576" lon="-2.567832697185444"><ele>199.0</ele><time>2026-04-30T11:47:42.002Z</time></trkpt><trkpt lat="43.15900402089608" lon="-2.5679241552617342"><ele>199.0</ele><time>2026-04-30T11:47:43.002Z</time></trkpt><trkpt lat="43.15908411993128" lon="-2.5680129307868933"><ele>199.0</ele><time>2026-04-30T11:47:44.002Z</time></trkpt><trkpt lat="43.15916268650915" lon="-2.5681005321906047"><ele>199.0</ele><time>2026-04-30T11:47:45.002Z</time></trkpt><trkpt lat="43.15924109645123" lon="-2.5681867017891187"><ele>198.79999999999998</ele><time>2026-04-30T11:47:46.002Z</time></trkpt><trkpt lat="43.15932030532508" lon="-2.5682742052476843"><ele>198.6</ele><time>2026-04-30T11:47:47.002Z</time></trkpt><trkpt lat="43.15940300930062" lon="-2.5683553329406035"><ele>198.4</ele><time>2026-04-30T11:47:48.002Z</time></trkpt><trkpt lat="43.159489444874005" lon="-2.5684337477207033"><ele>198.2</ele><time>2026-04-30T11:47:49.002Z</time></trkpt><trkpt lat="43.15958010273545" lon="-2.568501504267966"><ele>198.0</ele><time>2026-04-30T11:47:50.002Z</time></trkpt><trkpt lat="43.1596751378894" lon="-2.5685579058840884"><ele>198.0</ele><time>2026-04-30T11:47:51.002Z</time></trkpt><trkpt lat="43.15977177129792" lon="-2.5686020353234658"><ele>198.0</ele><time>2026-04-30T11:47:52.002Z</time></trkpt><trkpt lat="43.159865742415974" lon="-2.568640617573055"><ele>198.0</ele><time>2026-04-30T11:47:53.002Z</time></trkpt><trkpt lat="43.159962726441606" lon="-2.5686751466338693"><ele>198.0</ele><time>2026-04-30T11:47:54.002Z</time></trkpt><trkpt lat="43.16006033848705" lon="-2.5687031779919827"><ele>198.0</ele><time>2026-04-30T11:47:55.002Z</time></trkpt><trkpt lat="43.16015806822706" lon="-2.5687328539669965"><ele>196.8</ele><time>2026-04-30T11:47:56.002Z</time></trkpt><trkpt lat="43.16025829909267" lon="-2.5687699568109474"><ele>195.60000000000002</ele><time>2026-04-30T11:47:57.002Z</time></trkpt><trkpt lat="43.1603552735139" lon="-2.5688032860662067"><ele>194.39999999999998</ele><time>2026-04-30T11:47:58.002Z</time></trkpt><trkpt lat="43.16045328313399" lon="-2.5688544268467246"><ele>193.2</ele><time>2026-04-30T11:47:59.002Z</time></trkpt><trkpt lat="43.1605444749678" lon="-2.568927251107385"><ele>192.0</ele><time>2026-04-30T11:48:00.002Z</time></trkpt><trkpt lat="43.16062357426651" lon="-2.5690276191784003"><ele>192.0</ele><time>2026-04-30T11:48:01.002Z</time></trkpt><trkpt lat="43.16068509110438" lon="-2.569149440180643"><ele>192.0</ele><time>2026-04-30T11:48:02.002Z</time></trkpt><trkpt lat="43.16073879054057" lon="-2.5692759269838543"><ele>192.0</ele><time>2026-04-30T11:48:03.003Z</time></trkpt><trkpt lat="43.160791274124186" lon="-2.569408215004612"><ele>192.0</ele><time>2026-04-30T11:48:04.003Z</time></trkpt><trkpt lat="43.16084647833099" lon="-2.5695330915677737"><ele>192.0</ele><time>2026-04-30T11:48:05.003Z</time></trkpt><trkpt lat="43.16090122952961" lon="-2.56965598559713"><ele>191.0</ele><time>2026-04-30T11:48:06.003Z</time></trkpt><trkpt lat="43.16096097610242" lon="-2.569775729515422"><ele>190.0</ele><time>2026-04-30T11:48:07.003Z</time></trkpt><trkpt lat="43.16102496787671" lon="-2.5698910427684347"><ele>189.0</ele><time>2026-04-30T11:48:08.003Z</time></trkpt><trkpt lat="43.16109824275643" lon="-2.5699970758108432"><ele>188.0</ele><time>2026-04-30T11:48:09.003Z</time></trkpt><trkpt lat="43.161182339590425" lon="-2.5700869467974545"><ele>187.0</ele><time>2026-04-30T11:48:10.003Z</time></trkpt><trkpt lat="43.161272669483374" lon="-2.5701642545131502"><ele>187.0</ele><time>2026-04-30T11:48:11.003Z</time></trkpt><trkpt lat="43.16136166721048" lon="-2.5702383010311745"><ele>187.0</ele><time>2026-04-30T11:48:12Z</time></trkpt><trkpt lat="43.16145685989911" lon="-2.570321478161054"><ele>187.0</ele><time>2026-04-30T11:48:13Z</time></trkpt><trkpt lat="43.16154477571281" lon="-2.570397840931174"><ele>187.0</ele><time>2026-04-30T11:48:14Z</time></trkpt><trkpt lat="43.161633037512395" lon="-2.5704856629206523"><ele>187.0</ele><time>2026-04-30T11:48:15Z</time></trkpt><trkpt lat="43.16173349244555" lon="-2.570576616739061"><ele>185.5</ele><time>2026-04-30T11:48:16Z</time></trkpt><trkpt lat="43.16186677526236" lon="-2.5706930170208926"><ele>184.0</ele><time>2026-04-30T11:48:17Z</time></trkpt><trkpt lat="43.16197468240946" lon="-2.5708042498770176"><ele>182.5</ele><time>2026-04-30T11:48:18Z</time></trkpt><trkpt lat="43.161928561696776" lon="-2.5709825954469228"><ele>181.0</ele><time>2026-04-30T11:48:20Z</time></trkpt><trkpt lat="43.16208780162221" lon="-2.5711218854595006"><ele>180.20000000000002</ele><time>2026-04-30T11:48:21Z</time></trkpt><trkpt lat="43.162140916825166" lon="-2.5712516386300286"><ele>179.4</ele><time>2026-04-30T11:48:22Z</time></trkpt><trkpt lat="43.162204004384975" lon="-2.571370005628034"><ele>178.6</ele><time>2026-04-30T11:48:23Z</time></trkpt><trkpt lat="43.16227473039858" lon="-2.57147198726061"><ele>177.8</ele><time>2026-04-30T11:48:24Z</time></trkpt><trkpt lat="43.16235705435564" lon="-2.5715568917652916"><ele>177.0</ele><time>2026-04-30T11:48:25Z</time></trkpt><trkpt lat="43.16244211289018" lon="-2.5716329630373678"><ele>177.0</ele><time>2026-04-30T11:48:26Z</time></trkpt><trkpt lat="43.1625303091655" lon="-2.5717016180557932"><ele>177.0</ele><time>2026-04-30T11:48:27Z</time></trkpt><trkpt lat="43.162619546684816" lon="-2.5717693361950733"><ele>177.0</ele><time>2026-04-30T11:48:28Z</time></trkpt><trkpt lat="43.16270907688568" lon="-2.5718351687614893"><ele>177.0</ele><time>2026-04-30T11:48:29Z</time></trkpt><trkpt lat="43.16279688558267" lon="-2.5719017705369898"><ele>177.0</ele><time>2026-04-30T11:48:30Z</time></trkpt><trkpt lat="43.1628932007095" lon="-2.571976168443839"><ele>176.2</ele><time>2026-04-30T11:48:31Z</time></trkpt><trkpt lat="43.162985887497065" lon="-2.572053838735044"><ele>175.39999999999998</ele><time>2026-04-30T11:48:32Z</time></trkpt><trkpt lat="43.163077927526594" lon="-2.5721331524881994"><ele>174.60000000000002</ele><time>2026-04-30T11:48:33Z</time></trkpt><trkpt lat="43.16316498579971" lon="-2.5722208761571284"><ele>173.8</ele><time>2026-04-30T11:48:34Z</time></trkpt><trkpt lat="43.16324693606906" lon="-2.5723092366127256"><ele>173.0</ele><time>2026-04-30T11:48:35Z</time></trkpt><trkpt lat="43.16332896032442" lon="-2.5723995560790933"><ele>173.0</ele><time>2026-04-30T11:48:36Z</time></trkpt><trkpt lat="43.163413330253285" lon="-2.5724858387176126"><ele>173.0</ele><time>2026-04-30T11:48:37Z</time></trkpt><trkpt lat="43.163501503348606" lon="-2.5725721196335574"><ele>173.0</ele><time>2026-04-30T11:48:38Z</time></trkpt><trkpt lat="43.16359175874967" lon="-2.572649049530205"><ele>173.0</ele><time>2026-04-30T11:48:39Z</time></trkpt><trkpt lat="43.16368653337579" lon="-2.5727200502810987"><ele>173.0</ele><time>2026-04-30T11:48:40Z</time></trkpt><trkpt lat="43.163784309524296" lon="-2.572791924935888"><ele>172.0</ele><time>2026-04-30T11:48:41Z</time></trkpt><trkpt lat="43.16387607371203" lon="-2.5728598381985304"><ele>171.0</ele><time>2026-04-30T11:48:42Z</time></trkpt><trkpt lat="43.16397031695257" lon="-2.572928909698822"><ele>170.0</ele><time>2026-04-30T11:48:43Z</time></trkpt><trkpt lat="43.16406569324764" lon="-2.5729879386959675"><ele>169.0</ele><time>2026-04-30T11:48:44Z</time></trkpt><trkpt lat="43.16416548376247" lon="-2.573036163943646"><ele>168.0</ele><time>2026-04-30T11:48:45.001Z</time></trkpt><trkpt lat="43.16426834054686" lon="-2.57306914416553"><ele>168.0</ele><time>2026-04-30T11:48:46.001Z</time></trkpt><trkpt lat="43.16437298174163" lon="-2.5730846658164235"><ele>168.0</ele><time>2026-04-30T11:48:47.001Z</time></trkpt><trkpt lat="43.1644791875966" lon="-2.573089622483811"><ele>168.0</ele><time>2026-04-30T11:48:48.001Z</time></trkpt><trkpt lat="43.16457972417574" lon="-2.5730921950133285"><ele>168.0</ele><time>2026-04-30T11:48:49.001Z</time></trkpt><trkpt lat="43.164682781396536" lon="-2.5730893767724945"><ele>168.0</ele><time>2026-04-30T11:48:50.001Z</time></trkpt><trkpt lat="43.164781271832595" lon="-2.573081016080788"><ele>167.8</ele><time>2026-04-30T11:48:51.001Z</time></trkpt><trkpt lat="43.164881692383" lon="-2.573091307072131"><ele>167.60000000000002</ele><time>2026-04-30T11:48:52.001Z</time></trkpt><trkpt lat="43.16497830345083" lon="-2.5731213558120243"><ele>167.39999999999998</ele><time>2026-04-30T11:48:53.001Z</time></trkpt><trkpt lat="43.16507015655787" lon="-2.5731584839852157"><ele>167.2</ele><time>2026-04-30T11:48:54.001Z</time></trkpt><trkpt lat="43.16516220419654" lon="-2.5732054386713963"><ele>167.0</ele><time>2026-04-30T11:48:55.001Z</time></trkpt><trkpt lat="43.16523989951619" lon="-2.5732770330389987"><ele>167.0</ele><time>2026-04-30T11:48:56.001Z</time></trkpt><trkpt lat="43.165313239006714" lon="-2.5733408179741897"><ele>167.0</ele><time>2026-04-30T11:48:57.001Z</time></trkpt><trkpt lat="43.16538909866575" lon="-2.5733954242497274"><ele>167.0</ele><time>2026-04-30T11:48:58.001Z</time></trkpt><trkpt lat="43.16546670066908" lon="-2.573443949326075"><ele>167.0</ele><time>2026-04-30T11:48:59.001Z</time></trkpt><trkpt lat="43.16555388731369" lon="-2.5734718572833906"><ele>167.0</ele><time>2026-04-30T11:49:00.001Z</time></trkpt><trkpt lat="43.165642963241446" lon="-2.5734924183086223"><ele>167.0</ele><time>2026-04-30T11:49:01.001Z</time></trkpt><trkpt lat="43.16573416875536" lon="-2.5735076410117914"><ele>168.0</ele><time>2026-04-30T11:49:02.001Z</time></trkpt><trkpt lat="43.16582902526294" lon="-2.5735098829627803"><ele>169.0</ele><time>2026-04-30T11:49:03.001Z</time></trkpt><trkpt lat="43.165923736008175" lon="-2.573506413015593"><ele>170.0</ele><time>2026-04-30T11:49:04.001Z</time></trkpt><trkpt lat="43.16602002360106" lon="-2.5734764702189765"><ele>171.0</ele><time>2026-04-30T11:49:05.001Z</time></trkpt><trkpt lat="43.16612136432781" lon="-2.573476824646977"><ele>172.0</ele><time>2026-04-30T11:49:06.001Z</time></trkpt><trkpt lat="43.16621737702366" lon="-2.5734619001091104"><ele>172.0</ele><time>2026-04-30T11:49:07.001Z</time></trkpt><trkpt lat="43.16631316665583" lon="-2.573447338107121"><ele>172.0</ele><time>2026-04-30T11:49:08.001Z</time></trkpt><trkpt lat="43.16640786122387" lon="-2.5734257038034425"><ele>172.0</ele><time>2026-04-30T11:49:09.001Z</time></trkpt><trkpt lat="43.16650197322104" lon="-2.5733993327649034"><ele>172.0</ele><time>2026-04-30T11:49:10.001Z</time></trkpt><trkpt lat="43.166597567732005" lon="-2.573372494340359"><ele>172.0</ele><time>2026-04-30T11:49:11.001Z</time></trkpt><trkpt lat="43.16668467719369" lon="-2.573342320862899"><ele>171.6</ele><time>2026-04-30T11:49:12.001Z</time></trkpt><trkpt lat="43.166782932275105" lon="-2.5733084835233044"><ele>171.2</ele><time>2026-04-30T11:49:13.001Z</time></trkpt><trkpt lat="43.16687522227311" lon="-2.573254410248541"><ele>170.8</ele><time>2026-04-30T11:49:14.001Z</time></trkpt><trkpt lat="43.1669605598396" lon="-2.573202506548932"><ele>170.4</ele><time>2026-04-30T11:49:15.001Z</time></trkpt><trkpt lat="43.167051235922955" lon="-2.5731447695421323"><ele>170.0</ele><time>2026-04-30T11:49:16.001Z</time></trkpt><trkpt lat="43.16712634242673" lon="-2.573087179349323"><ele>170.0</ele><time>2026-04-30T11:49:17.001Z</time></trkpt><trkpt lat="43.16722698484801" lon="-2.5730280834481243"><ele>170.0</ele><time>2026-04-30T11:49:18.001Z</time></trkpt><trkpt lat="43.16731634546413" lon="-2.5729718176892726"><ele>170.0</ele><time>2026-04-30T11:49:19.001Z</time></trkpt><trkpt lat="43.16740231045506" lon="-2.5729126748243747"><ele>170.0</ele><time>2026-04-30T11:49:20.002Z</time></trkpt><trkpt lat="43.16749038623368" lon="-2.572868665777194"><ele>170.0</ele><time>2026-04-30T11:49:21.002Z</time></trkpt><trkpt lat="43.16756615572171" lon="-2.572806476092578"><ele>170.85714285714286</ele><time>2026-04-30T11:49:22.002Z</time></trkpt><trkpt lat="43.16764157521196" lon="-2.572758758093824"><ele>171.7142857142857</ele><time>2026-04-30T11:49:23.002Z</time></trkpt><trkpt lat="43.16771400858415" lon="-2.5727104078799057"><ele>172.57142857142856</ele><time>2026-04-30T11:49:24.002Z</time></trkpt><trkpt lat="43.167786065581545" lon="-2.5726705004969888"><ele>173.42857142857144</ele><time>2026-04-30T11:49:25.002Z</time></trkpt><trkpt lat="43.167841152015285" lon="-2.572624678979457"><ele>174.28571428571428</ele><time>2026-04-30T11:49:26.002Z</time></trkpt><trkpt lat="43.16789978158757" lon="-2.5725720684279927"><ele>175.14285714285714</ele><time>2026-04-30T11:49:27.002Z</time></trkpt><trkpt lat="43.16796257320361" lon="-2.5725269043042505"><ele>176.0</ele><time>2026-04-30T11:49:28.002Z</time></trkpt><trkpt lat="43.16803714240311" lon="-2.5724964241560166"><ele>176.0</ele><time>2026-04-30T11:49:29.002Z</time></trkpt><trkpt lat="43.16811382184577" lon="-2.5724609532593643"><ele>176.0</ele><time>2026-04-30T11:49:30.002Z</time></trkpt><trkpt lat="43.168210145386546" lon="-2.5725791861701253"><ele>176.0</ele><time>2026-04-30T11:49:32.002Z</time></trkpt><trkpt lat="43.168290949276496" lon="-2.5726267943369683"><ele>176.0</ele><time>2026-04-30T11:49:34.002Z</time></trkpt><trkpt lat="43.16837301139525" lon="-2.5726198435080407"><ele>176.0</ele><time>2026-04-30T11:49:42.002Z</time></trkpt><trkpt lat="43.16845653850833" lon="-2.5725977901220625"><ele>173.33333333333331</ele><time>2026-04-30T11:49:44.002Z</time></trkpt><trkpt lat="43.168570090063554" lon="-2.5726283914728523"><ele>170.66666666666666</ele><time>2026-04-30T11:49:46.002Z</time></trkpt><trkpt lat="43.168608800820834" lon="-2.5726997720205085"><ele>168.0</ele><time>2026-04-30T11:49:47.002Z</time></trkpt><trkpt lat="43.16859546934717" lon="-2.572864512994144"><ele>165.33333333333334</ele><time>2026-04-30T11:49:49.002Z</time></trkpt><trkpt lat="43.16855433617882" lon="-2.57293578909996"><ele>162.66666666666669</ele><time>2026-04-30T11:49:50.002Z</time></trkpt><trkpt lat="43.168499283064726" lon="-2.5729802769847008"><ele>160.0</ele><time>2026-04-30T11:49:51.002Z</time></trkpt><trkpt lat="43.16843999668736" lon="-2.5730236328230136"><ele>160.0</ele><time>2026-04-30T11:49:52.002Z</time></trkpt><trkpt lat="43.16838678206373" lon="-2.5730838617383753"><ele>160.0</ele><time>2026-04-30T11:49:53.002Z</time></trkpt><trkpt lat="43.16834342594557" lon="-2.5731585949643683"><ele>160.0</ele><time>2026-04-30T11:49:54.002Z</time></trkpt><trkpt lat="43.1683082648383" lon="-2.5732400883373496"><ele>160.0</ele><time>2026-04-30T11:49:55.003Z</time></trkpt><trkpt lat="43.1682766176896" lon="-2.5733185793373967"><ele>160.0</ele><time>2026-04-30T11:49:56.003Z</time></trkpt><trkpt lat="43.168234453812545" lon="-2.573392508545197"><ele>160.0</ele><time>2026-04-30T11:49:57.003Z</time></trkpt><trkpt lat="43.16819977857996" lon="-2.573482654407343"><ele>160.0</ele><time>2026-04-30T11:49:58.003Z</time></trkpt><trkpt lat="43.16815315438224" lon="-2.5735603613130125"><ele>159.85714285714286</ele><time>2026-04-30T11:49:59.003Z</time></trkpt><trkpt lat="43.168106368911836" lon="-2.5736388475872296"><ele>159.71428571428572</ele><time>2026-04-30T11:50:00.003Z</time></trkpt><trkpt lat="43.168061545492655" lon="-2.5737145529415733"><ele>159.57142857142856</ele><time>2026-04-30T11:50:01.003Z</time></trkpt><trkpt lat="43.16800442185384" lon="-2.573787188549635"><ele>159.42857142857144</ele><time>2026-04-30T11:50:02.003Z</time></trkpt><trkpt lat="43.16795792659013" lon="-2.5738624232492158"><ele>159.2857142857143</ele><time>2026-04-30T11:50:03.003Z</time></trkpt><trkpt lat="43.1679108401548" lon="-2.5739457638920165"><ele>159.14285714285714</ele><time>2026-04-30T11:50:04.003Z</time></trkpt><trkpt lat="43.167863749814614" lon="-2.5740271469550455"><ele>159.0</ele><time>2026-04-30T11:50:05.003Z</time></trkpt><trkpt lat="43.16780850569156" lon="-2.5741184095328693"><ele>159.0</ele><time>2026-04-30T11:50:06.003Z</time></trkpt><trkpt lat="43.1677615892558" lon="-2.574198046730597"><ele>159.0</ele><time>2026-04-30T11:50:07.003Z</time></trkpt><trkpt lat="43.167709916541895" lon="-2.5742752428523463"><ele>159.0</ele><time>2026-04-30T11:50:08.003Z</time></trkpt><trkpt lat="43.16765030984883" lon="-2.574352058020838"><ele>159.0</ele><time>2026-04-30T11:50:09.003Z</time></trkpt><trkpt lat="43.16758671196717" lon="-2.574427311193723"><ele>159.0</ele><time>2026-04-30T11:50:10.003Z</time></trkpt><trkpt lat="43.16752511379695" lon="-2.57450548233099"><ele>159.0</ele><time>2026-04-30T11:50:11.003Z</time></trkpt><trkpt lat="43.16744814080676" lon="-2.5745803675291112"><ele>158.33333333333334</ele><time>2026-04-30T11:50:12.003Z</time></trkpt><trkpt lat="43.16737989295704" lon="-2.574647892983457"><ele>157.66666666666666</ele><time>2026-04-30T11:50:13.003Z</time></trkpt><trkpt lat="43.167306007847145" lon="-2.5747123508810774"><ele>157.0</ele><time>2026-04-30T11:50:14.003Z</time></trkpt><trkpt lat="43.16722500039478" lon="-2.574785914990434"><ele>156.33333333333331</ele><time>2026-04-30T11:50:15.003Z</time></trkpt><trkpt lat="43.16716154785901" lon="-2.5748576896513233"><ele>155.66666666666666</ele><time>2026-04-30T11:50:16.003Z</time></trkpt><trkpt lat="43.16708031577746" lon="-2.5749306752553074"><ele>155.0</ele><time>2026-04-30T11:50:17.003Z</time></trkpt><trkpt lat="43.166994318397506" lon="-2.574993973532934"><ele>155.0</ele><time>2026-04-30T11:50:18.001Z</time></trkpt><trkpt lat="43.166918025850194" lon="-2.575073595649763"><ele>155.0</ele><time>2026-04-30T11:50:19.001Z</time></trkpt><trkpt lat="43.166846476012765" lon="-2.5751547175811247"><ele>155.0</ele><time>2026-04-30T11:50:20.001Z</time></trkpt><trkpt lat="43.16677113521779" lon="-2.5752323402466892"><ele>155.0</ele><time>2026-04-30T11:50:21.001Z</time></trkpt><trkpt lat="43.16662526168082" lon="-2.57512170992389"><ele>154.75</ele><time>2026-04-30T11:50:22.001Z</time></trkpt><trkpt lat="43.16661703111279" lon="-2.5753910092768"><ele>154.5</ele><time>2026-04-30T11:50:23.001Z</time></trkpt><trkpt lat="43.166545382117604" lon="-2.575483583031382"><ele>154.25</ele><time>2026-04-30T11:50:24.001Z</time></trkpt><trkpt lat="43.166472594638286" lon="-2.575580513042648"><ele>154.0</ele><time>2026-04-30T11:50:25.001Z</time></trkpt><trkpt lat="43.16640478774302" lon="-2.5756769745484793"><ele>154.0</ele><time>2026-04-30T11:50:26.001Z</time></trkpt><trkpt lat="43.16633440002474" lon="-2.575794085269564"><ele>154.0</ele><time>2026-04-30T11:50:27.001Z</time></trkpt><trkpt lat="43.16626797762707" lon="-2.5758898155124994"><ele>154.0</ele><time>2026-04-30T11:50:28.001Z</time></trkpt><trkpt lat="43.16620008508431" lon="-2.5759964361864522"><ele>154.0</ele><time>2026-04-30T11:50:29.001Z</time></trkpt><trkpt lat="43.16613366892245" lon="-2.5761000015391002"><ele>154.0</ele><time>2026-04-30T11:50:30.001Z</time></trkpt><trkpt lat="43.166067925233776" lon="-2.5762078741404393"><ele>154.2</ele><time>2026-04-30T11:50:31.001Z</time></trkpt><trkpt lat="43.1660037244552" lon="-2.5763259921171415"><ele>154.4</ele><time>2026-04-30T11:50:32.001Z</time></trkpt><trkpt lat="43.165942965062406" lon="-2.5764388005226007"><ele>154.6</ele><time>2026-04-30T11:50:33.001Z</time></trkpt><trkpt lat="43.165888399653475" lon="-2.5765584653928864"><ele>154.8</ele><time>2026-04-30T11:50:34.001Z</time></trkpt><trkpt lat="43.16582983649932" lon="-2.5766814857544307"><ele>155.0</ele><time>2026-04-30T11:50:35.001Z</time></trkpt><trkpt lat="43.16577314342313" lon="-2.5768104077000187"><ele>155.0</ele><time>2026-04-30T11:50:36.001Z</time></trkpt><trkpt lat="43.16572136045668" lon="-2.576944087899572"><ele>155.0</ele><time>2026-04-30T11:50:37.001Z</time></trkpt><trkpt lat="43.165674568149576" lon="-2.5770757322571596"><ele>155.0</ele><time>2026-04-30T11:50:38.001Z</time></trkpt><trkpt lat="43.16563178639403" lon="-2.5772140595855735"><ele>155.0</ele><time>2026-04-30T11:50:39.001Z</time></trkpt><trkpt lat="43.16559018895039" lon="-2.5773540575083795"><ele>155.0</ele><time>2026-04-30T11:50:40.001Z</time></trkpt><trkpt lat="43.16554871218184" lon="-2.5774925692533084"><ele>154.4</ele><time>2026-04-30T11:50:41.001Z</time></trkpt><trkpt lat="43.16551343971073" lon="-2.57764058804847"><ele>153.8</ele><time>2026-04-30T11:50:42.001Z</time></trkpt><trkpt lat="43.16548149980138" lon="-2.577786341094004"><ele>153.2</ele><time>2026-04-30T11:50:43.001Z</time></trkpt><trkpt lat="43.165454565793326" lon="-2.5779290368428973"><ele>152.6</ele><time>2026-04-30T11:50:44.001Z</time></trkpt><trkpt lat="43.165430687269385" lon="-2.5780770449407346"><ele>152.0</ele><time>2026-04-30T11:50:45.001Z</time></trkpt><trkpt lat="43.16540209527729" lon="-2.5782322811453544"><ele>151.79999999999998</ele><time>2026-04-30T11:50:46.001Z</time></trkpt><trkpt lat="43.16537156875077" lon="-2.578379615183173"><ele>151.6</ele><time>2026-04-30T11:50:47.001Z</time></trkpt><trkpt lat="43.165339313999674" lon="-2.5785251735875416"><ele>151.39999999999998</ele><time>2026-04-30T11:50:48.001Z</time></trkpt><trkpt lat="43.16531349284374" lon="-2.5786712227445814"><ele>151.2</ele><time>2026-04-30T11:50:49.001Z</time></trkpt><trkpt lat="43.165282775782806" lon="-2.5788171016074695"><ele>151.0</ele><time>2026-04-30T11:50:50.001Z</time></trkpt><trkpt lat="43.1652535408575" lon="-2.5789609552823998"><ele>150.4</ele><time>2026-04-30T11:50:51.001Z</time></trkpt><trkpt lat="43.16522753868696" lon="-2.5791048559130876"><ele>149.8</ele><time>2026-04-30T11:50:52.001Z</time></trkpt><trkpt lat="43.16519927784262" lon="-2.5792411374983755"><ele>149.20000000000002</ele><time>2026-04-30T11:50:53.001Z</time></trkpt><trkpt lat="43.16517193819044" lon="-2.579373564014196"><ele>148.6</ele><time>2026-04-30T11:50:54.001Z</time></trkpt><trkpt lat="43.16514806456957" lon="-2.579502286879619"><ele>148.0</ele><time>2026-04-30T11:50:55.001Z</time></trkpt><trkpt lat="43.16512425787286" lon="-2.5796246164783434"><ele>147.6</ele><time>2026-04-30T11:50:56.001Z</time></trkpt><trkpt lat="43.16509451100958" lon="-2.5797425579728106"><ele>147.20000000000002</ele><time>2026-04-30T11:50:57.001Z</time></trkpt><trkpt lat="43.16507465846879" lon="-2.579860641736412"><ele>146.8</ele><time>2026-04-30T11:50:58.001Z</time></trkpt><trkpt lat="43.16508327821442" lon="-2.5799807926971345"><ele>146.4</ele><time>2026-04-30T11:50:59.001Z</time></trkpt><trkpt lat="43.16510824733371" lon="-2.58009787743911"><ele>146.0</ele><time>2026-04-30T11:51:00.001Z</time></trkpt><trkpt lat="43.165150998982284" lon="-2.5802436969361637"><ele>145.33333333333331</ele><time>2026-04-30T11:51:02.001Z</time></trkpt><trkpt lat="43.1651236689589" lon="-2.5804772253770785"><ele>144.66666666666666</ele><time>2026-04-30T11:51:03.001Z</time></trkpt><trkpt lat="43.165103221776796" lon="-2.580685632373216"><ele>144.0</ele><time>2026-04-30T11:51:04.001Z</time></trkpt><trkpt lat="43.165244324683385" lon="-2.5808056709732816"><ele>144.0</ele><time>2026-04-30T11:51:05.001Z</time></trkpt><trkpt lat="43.16532300412485" lon="-2.580943361782469"><ele>144.0</ele><time>2026-04-30T11:51:07.001Z</time></trkpt><trkpt lat="43.16538127876862" lon="-2.5810544726858806"><ele>144.0</ele><time>2026-04-30T11:51:08.001Z</time></trkpt><trkpt lat="43.16543219921782" lon="-2.5811680599557354"><ele>144.0</ele><time>2026-04-30T11:51:09.001Z</time></trkpt><trkpt lat="43.16548835573165" lon="-2.581283899279244"><ele>144.0</ele><time>2026-04-30T11:51:10.001Z</time></trkpt><trkpt lat="43.165542984024334" lon="-2.5813955903720727"><ele>143.8</ele><time>2026-04-30T11:51:11.001Z</time></trkpt><trkpt lat="43.16560036127446" lon="-2.5815112459814675"><ele>143.60000000000002</ele><time>2026-04-30T11:51:12.001Z</time></trkpt><trkpt lat="43.165654932243164" lon="-2.58162484475725"><ele>143.4</ele><time>2026-04-30T11:51:13.001Z</time></trkpt><trkpt lat="43.16571423022039" lon="-2.5817375514972105"><ele>143.20000000000002</ele><time>2026-04-30T11:51:14.001Z</time></trkpt><trkpt lat="43.16576894748597" lon="-2.581849730823215"><ele>143.0</ele><time>2026-04-30T11:51:15.002Z</time></trkpt><trkpt lat="43.16582285665197" lon="-2.5819641873497816"><ele>143.0</ele><time>2026-04-30T11:51:16.002Z</time></trkpt><trkpt lat="43.16587987919802" lon="-2.5820769992108366"><ele>143.0</ele><time>2026-04-30T11:51:17.002Z</time></trkpt><trkpt lat="43.165936179524635" lon="-2.5821916409017454"><ele>143.0</ele><time>2026-04-30T11:51:18.002Z</time></trkpt><trkpt lat="43.1659908045371" lon="-2.582308545245665"><ele>143.0</ele><time>2026-04-30T11:51:19.002Z</time></trkpt><trkpt lat="43.16605280704407" lon="-2.5824215830347708"><ele>143.0</ele><time>2026-04-30T11:51:20.002Z</time></trkpt><trkpt lat="43.16609832778479" lon="-2.5825476292033747"><ele>143.0</ele><time>2026-04-30T11:51:21.002Z</time></trkpt><trkpt lat="43.166155889748026" lon="-2.58266739689553"><ele>143.0</ele><time>2026-04-30T11:51:22.002Z</time></trkpt><trkpt lat="43.16622863796937" lon="-2.5827771054883004"><ele>143.0</ele><time>2026-04-30T11:51:23.002Z</time></trkpt><trkpt lat="43.166345376848106" lon="-2.5828945432306445"><ele>143.0</ele><time>2026-04-30T11:51:24.002Z</time></trkpt><trkpt lat="43.16642093176714" lon="-2.5830427434706107"><ele>142.8</ele><time>2026-04-30T11:51:25.002Z</time></trkpt><trkpt lat="43.16640138026546" lon="-2.583138448323271"><ele>142.60000000000002</ele><time>2026-04-30T11:51:26.002Z</time></trkpt><trkpt lat="43.16645674616783" lon="-2.583259688630818"><ele>142.39999999999998</ele><time>2026-04-30T11:51:27.002Z</time></trkpt><trkpt lat="43.1665140264713" lon="-2.5833826907566633"><ele>142.2</ele><time>2026-04-30T11:51:28.002Z</time></trkpt><trkpt lat="43.1665725360812" lon="-2.583502871541551"><ele>142.0</ele><time>2026-04-30T11:51:29.002Z</time></trkpt><trkpt lat="43.166628771521886" lon="-2.5836174514064583"><ele>142.0</ele><time>2026-04-30T11:51:30.002Z</time></trkpt><trkpt lat="43.16668645059096" lon="-2.5837167637941167"><ele>142.0</ele><time>2026-04-30T11:51:31.002Z</time></trkpt><trkpt lat="43.16674227305264" lon="-2.5838430658480287"><ele>142.0</ele><time>2026-04-30T11:51:32.002Z</time></trkpt><trkpt lat="43.16678928353775" lon="-2.583947470744557"><ele>142.0</ele><time>2026-04-30T11:51:33.002Z</time></trkpt><trkpt lat="43.16683459929633" lon="-2.5840457306874907"><ele>142.0</ele><time>2026-04-30T11:51:34.002Z</time></trkpt><trkpt lat="43.16688502461428" lon="-2.584135890110623"><ele>142.0</ele><time>2026-04-30T11:51:35.002Z</time></trkpt><trkpt lat="43.16695368265476" lon="-2.5842061530882448"><ele>142.0</ele><time>2026-04-30T11:51:36.002Z</time></trkpt><trkpt lat="43.167016115363815" lon="-2.584281659964329"><ele>142.0</ele><time>2026-04-30T11:51:37.002Z</time></trkpt><trkpt lat="43.16704680723594" lon="-2.584385837833679"><ele>142.0</ele><time>2026-04-30T11:51:38.002Z</time></trkpt><trkpt lat="43.16704715209471" lon="-2.584507151176052"><ele>142.0</ele><time>2026-04-30T11:51:39.002Z</time></trkpt><trkpt lat="43.16703884611774" lon="-2.58463404953871"><ele>142.0</ele><time>2026-04-30T11:51:40.002Z</time></trkpt><trkpt lat="43.16703866237333" lon="-2.5847628090326364"><ele>141.6</ele><time>2026-04-30T11:51:41.002Z</time></trkpt><trkpt lat="43.16704922464063" lon="-2.5848883697204954"><ele>141.2</ele><time>2026-04-30T11:51:42.002Z</time></trkpt><trkpt lat="43.1670673563846" lon="-2.5850206940129783"><ele>140.8</ele><time>2026-04-30T11:51:43.002Z</time></trkpt><trkpt lat="43.16708497765866" lon="-2.5851522384558128"><ele>140.4</ele><time>2026-04-30T11:51:44.002Z</time></trkpt><trkpt lat="43.16710372692292" lon="-2.58528714001369"><ele>140.0</ele><time>2026-04-30T11:51:45.002Z</time></trkpt><trkpt lat="43.167123777019896" lon="-2.5854145055147835"><ele>140.0</ele><time>2026-04-30T11:51:46.002Z</time></trkpt><trkpt lat="43.167147227163866" lon="-2.585549247417239"><ele>140.0</ele><time>2026-04-30T11:51:47.002Z</time></trkpt><trkpt lat="43.16717225064058" lon="-2.585681809682749"><ele>140.0</ele><time>2026-04-30T11:51:48.002Z</time></trkpt><trkpt lat="43.167193734768745" lon="-2.5858165654148286"><ele>140.0</ele><time>2026-04-30T11:51:49.002Z</time></trkpt><trkpt lat="43.1672118763649" lon="-2.5859458472485803"><ele>140.0</ele><time>2026-04-30T11:51:50.002Z</time></trkpt><trkpt lat="43.16722984790251" lon="-2.586079544926847"><ele>139.6</ele><time>2026-04-30T11:51:51.002Z</time></trkpt><trkpt lat="43.167246574021924" lon="-2.586217690579753"><ele>139.2</ele><time>2026-04-30T11:51:52.002Z</time></trkpt><trkpt lat="43.16726778006803" lon="-2.58635416967587"><ele>138.8</ele><time>2026-04-30T11:51:53.002Z</time></trkpt><trkpt lat="43.16728182953901" lon="-2.586493899765087"><ele>138.4</ele><time>2026-04-30T11:51:54.002Z</time></trkpt><trkpt lat="43.16730016423466" lon="-2.586634160925187"><ele>138.0</ele><time>2026-04-30T11:51:55.003Z</time></trkpt><trkpt lat="43.16731956442136" lon="-2.586769734843253"><ele>138.0</ele><time>2026-04-30T11:51:56.003Z</time></trkpt><trkpt lat="43.167339189820275" lon="-2.586911861604157"><ele>138.0</ele><time>2026-04-30T11:51:57.003Z</time></trkpt><trkpt lat="43.16736092846383" lon="-2.5870536444388907"><ele>138.0</ele><time>2026-04-30T11:51:58.003Z</time></trkpt><trkpt lat="43.16737655345271" lon="-2.587191444034064"><ele>138.0</ele><time>2026-04-30T11:51:59.003Z</time></trkpt><trkpt lat="43.16739483445238" lon="-2.5873319725309907"><ele>138.0</ele><time>2026-04-30T11:52:00.003Z</time></trkpt><trkpt lat="43.16740876130129" lon="-2.5874699917090016"><ele>138.25</ele><time>2026-04-30T11:52:01.003Z</time></trkpt><trkpt lat="43.16743410008" lon="-2.5876201987496827"><ele>138.5</ele><time>2026-04-30T11:52:02.003Z</time></trkpt><trkpt lat="43.167499512438404" lon="-2.5878054706328593"><ele>138.75</ele><time>2026-04-30T11:52:03.003Z</time></trkpt><trkpt lat="43.167544165934544" lon="-2.5880391109551284"><ele>139.0</ele><time>2026-04-30T11:52:04.003Z</time></trkpt><trkpt lat="43.167606321606705" lon="-2.5883007913596883"><ele>139.0</ele><time>2026-04-30T11:52:05.003Z</time></trkpt><trkpt lat="43.16747621087426" lon="-2.588184166806243"><ele>139.0</ele><time>2026-04-30T11:52:06.003Z</time></trkpt><trkpt lat="43.16747695453635" lon="-2.5883263738256024"><ele>139.0</ele><time>2026-04-30T11:52:07.003Z</time></trkpt><trkpt lat="43.167478726200684" lon="-2.5884744942179374"><ele>139.0</ele><time>2026-04-30T11:52:08.003Z</time></trkpt><trkpt lat="43.16747201031234" lon="-2.588621737280066"><ele>138.8</ele><time>2026-04-30T11:52:09.003Z</time></trkpt><trkpt lat="43.167464996577685" lon="-2.5887688207680286"><ele>138.60000000000002</ele><time>2026-04-30T11:52:10.003Z</time></trkpt><trkpt lat="43.16746214210055" lon="-2.5889161076148435"><ele>138.4</ele><time>2026-04-30T11:52:11.003Z</time></trkpt><trkpt lat="43.16745251558878" lon="-2.5890658826004165"><ele>138.20000000000002</ele><time>2026-04-30T11:52:12.003Z</time></trkpt><trkpt lat="43.16743843341572" lon="-2.5892123500055524"><ele>138.0</ele><time>2026-04-30T11:52:13.003Z</time></trkpt><trkpt lat="43.16742761573305" lon="-2.589355946246752"><ele>138.0</ele><time>2026-04-30T11:52:14.003Z</time></trkpt><trkpt lat="43.167415857353326" lon="-2.5895015529466057"><ele>138.0</ele><time>2026-04-30T11:52:15.003Z</time></trkpt><trkpt lat="43.16740512835421" lon="-2.5896472811141606"><ele>138.0</ele><time>2026-04-30T11:52:16.003Z</time></trkpt><trkpt lat="43.167398112720115" lon="-2.5897924578939584"><ele>138.0</ele><time>2026-04-30T11:52:17.003Z</time></trkpt><trkpt lat="43.16739292156252" lon="-2.5899366565108557"><ele>138.0</ele><time>2026-04-30T11:52:18.003Z</time></trkpt><trkpt lat="43.16738398762041" lon="-2.5900761998850785"><ele>138.20000000000002</ele><time>2026-04-30T11:52:19.003Z</time></trkpt><trkpt lat="43.16737705845868" lon="-2.5902203244518907"><ele>138.4</ele><time>2026-04-30T11:52:20.003Z</time></trkpt><trkpt lat="43.16736788069469" lon="-2.5903641449059975"><ele>138.60000000000002</ele><time>2026-04-30T11:52:21.003Z</time></trkpt><trkpt lat="43.167358502022644" lon="-2.5905069666761715"><ele>138.8</ele><time>2026-04-30T11:52:22.003Z</time></trkpt><trkpt lat="43.16735219221883" lon="-2.5906482018128485"><ele>139.0</ele><time>2026-04-30T11:52:23.003Z</time></trkpt><trkpt lat="43.16734429029177" lon="-2.59079184566311"><ele>137.8</ele><time>2026-04-30T11:52:24.001Z</time></trkpt><trkpt lat="43.16733662625701" lon="-2.590936218718136"><ele>136.60000000000002</ele><time>2026-04-30T11:52:25.001Z</time></trkpt><trkpt lat="43.1673286407527" lon="-2.5910795354441847"><ele>135.4</ele><time>2026-04-30T11:52:26.001Z</time></trkpt><trkpt lat="43.167318518365235" lon="-2.591221744386195"><ele>134.20000000000002</ele><time>2026-04-30T11:52:27.001Z</time></trkpt><trkpt lat="43.167309260572154" lon="-2.591364342586687"><ele>133.0</ele><time>2026-04-30T11:52:28.001Z</time></trkpt><trkpt lat="43.16730377317131" lon="-2.5915097205309294"><ele>133.0</ele><time>2026-04-30T11:52:29.001Z</time></trkpt><trkpt lat="43.167297557528954" lon="-2.591651146668541"><ele>133.0</ele><time>2026-04-30T11:52:30.001Z</time></trkpt><trkpt lat="43.167287772298884" lon="-2.591791721412344"><ele>133.0</ele><time>2026-04-30T11:52:31.001Z</time></trkpt><trkpt lat="43.167279776756935" lon="-2.5919385901804883"><ele>133.0</ele><time>2026-04-30T11:52:32.001Z</time></trkpt><trkpt lat="43.16727248626257" lon="-2.592077393194569"><ele>133.0</ele><time>2026-04-30T11:52:33.001Z</time></trkpt><trkpt lat="43.16726435497809" lon="-2.592215768863622"><ele>133.0</ele><time>2026-04-30T11:52:34.001Z</time></trkpt><trkpt lat="43.167256722763035" lon="-2.592362671993934"><ele>133.0</ele><time>2026-04-30T11:52:35.001Z</time></trkpt><trkpt lat="43.16724787025159" lon="-2.5925046195662578"><ele>133.0</ele><time>2026-04-30T11:52:36.001Z</time></trkpt><trkpt lat="43.167240729882614" lon="-2.5926466484083734"><ele>133.0</ele><time>2026-04-30T11:52:37.001Z</time></trkpt><trkpt lat="43.16723448503737" lon="-2.5927884702045656"><ele>133.0</ele><time>2026-04-30T11:52:38.001Z</time></trkpt><trkpt lat="43.167224256989854" lon="-2.592923659044549"><ele>132.83333333333334</ele><time>2026-04-30T11:52:39.001Z</time></trkpt><trkpt lat="43.16721445666708" lon="-2.5930419629404238"><ele>132.66666666666669</ele><time>2026-04-30T11:52:40.001Z</time></trkpt><trkpt lat="43.167206062209644" lon="-2.593153490503176"><ele>132.5</ele><time>2026-04-30T11:52:41.001Z</time></trkpt><trkpt lat="43.16720136613181" lon="-2.5932636575898345"><ele>132.33333333333334</ele><time>2026-04-30T11:52:42.001Z</time></trkpt><trkpt lat="43.167220780078885" lon="-2.5933727148221983"><ele>132.16666666666666</ele><time>2026-04-30T11:52:43.001Z</time></trkpt><trkpt lat="43.1672430291129" lon="-2.593482948136455"><ele>132.0</ele><time>2026-04-30T11:52:44.001Z</time></trkpt><trkpt lat="43.167234452883825" lon="-2.5935937157789506"><ele>132.0</ele><time>2026-04-30T11:52:45.001Z</time></trkpt><trkpt lat="43.16719973689511" lon="-2.5936980496270228"><ele>132.0</ele><time>2026-04-30T11:52:46.001Z</time></trkpt><trkpt lat="43.16715657863938" lon="-2.5938024406399633"><ele>132.0</ele><time>2026-04-30T11:52:47.001Z</time></trkpt><trkpt lat="43.1671144621558" lon="-2.593916999816702"><ele>132.0</ele><time>2026-04-30T11:52:48.001Z</time></trkpt><trkpt lat="43.167082999160584" lon="-2.5940381926631924"><ele>132.0</ele><time>2026-04-30T11:52:49.001Z</time></trkpt><trkpt lat="43.16705698923286" lon="-2.594168974990825"><ele>132.0</ele><time>2026-04-30T11:52:50.001Z</time></trkpt><trkpt lat="43.16703581317955" lon="-2.5942957345174866"><ele>132.0</ele><time>2026-04-30T11:52:51.001Z</time></trkpt><trkpt lat="43.167008162239284" lon="-2.5944197295196205"><ele>132.0</ele><time>2026-04-30T11:52:52.001Z</time></trkpt><trkpt lat="43.16697598553602" lon="-2.5945401514864126"><ele>132.0</ele><time>2026-04-30T11:52:53.001Z</time></trkpt><trkpt lat="43.166942992841825" lon="-2.594666861580081"><ele>132.0</ele><time>2026-04-30T11:52:54.001Z</time></trkpt><trkpt lat="43.16690947888956" lon="-2.5947917753680105"><ele>133.5</ele><time>2026-04-30T11:52:55.001Z</time></trkpt><trkpt lat="43.16687517546172" lon="-2.594919180908348"><ele>135.0</ele><time>2026-04-30T11:52:56.001Z</time></trkpt><trkpt lat="43.166834576037395" lon="-2.595060037771446"><ele>136.5</ele><time>2026-04-30T11:52:57.001Z</time></trkpt><trkpt lat="43.16678047220145" lon="-2.595256321790663"><ele>138.0</ele><time>2026-04-30T11:52:58.001Z</time></trkpt><trkpt lat="43.16672185127482" lon="-2.5953800945966665"><ele>138.0</ele><time>2026-04-30T11:52:59.001Z</time></trkpt><trkpt lat="43.1666803553441" lon="-2.595572599051207"><ele>138.0</ele><time>2026-04-30T11:53:01.001Z</time></trkpt><trkpt lat="43.16663786307893" lon="-2.595711752140574"><ele>138.0</ele><time>2026-04-30T11:53:02.001Z</time></trkpt><trkpt lat="43.16659391211893" lon="-2.5958519804351856"><ele>138.0</ele><time>2026-04-30T11:53:03.001Z</time></trkpt><trkpt lat="43.16654647740452" lon="-2.595989606175764"><ele>137.6</ele><time>2026-04-30T11:53:04.001Z</time></trkpt><trkpt lat="43.16649945607302" lon="-2.596125951330456"><ele>137.20000000000002</ele><time>2026-04-30T11:53:05.001Z</time></trkpt><trkpt lat="43.16645599955015" lon="-2.5962622134729934"><ele>136.8</ele><time>2026-04-30T11:53:06.001Z</time></trkpt><trkpt lat="43.16641039945334" lon="-2.5963979960084576"><ele>136.4</ele><time>2026-04-30T11:53:07.001Z</time></trkpt><trkpt lat="43.166366130320746" lon="-2.596534973986131"><ele>136.0</ele><time>2026-04-30T11:53:08.001Z</time></trkpt><trkpt lat="43.1663188225559" lon="-2.5966724057334307"><ele>136.0</ele><time>2026-04-30T11:53:09.001Z</time></trkpt><trkpt lat="43.16626928528957" lon="-2.5968091205782535"><ele>136.0</ele><time>2026-04-30T11:53:10.001Z</time></trkpt><trkpt lat="43.16624141717569" lon="-2.5969524245619735"><ele>136.0</ele><time>2026-04-30T11:53:11.001Z</time></trkpt><trkpt lat="43.16620969253812" lon="-2.597097516749495"><ele>136.0</ele><time>2026-04-30T11:53:12.001Z</time></trkpt><trkpt lat="43.16615045917025" lon="-2.5972051640116747"><ele>136.0</ele><time>2026-04-30T11:53:13.001Z</time></trkpt><trkpt lat="43.1661125476536" lon="-2.5973076991145607"><ele>136.0</ele><time>2026-04-30T11:53:14.001Z</time></trkpt><trkpt lat="43.16605642699932" lon="-2.5974804791534907"><ele>136.0</ele><time>2026-04-30T11:53:15.001Z</time></trkpt><trkpt lat="43.166015237848406" lon="-2.5976394240808847"><ele>136.0</ele><time>2026-04-30T11:53:16.001Z</time></trkpt><trkpt lat="43.16600845962065" lon="-2.597802347988155"><ele>136.0</ele><time>2026-04-30T11:53:17.001Z</time></trkpt><trkpt lat="43.16592937637972" lon="-2.5979299373549822"><ele>135.4</ele><time>2026-04-30T11:53:18.001Z</time></trkpt><trkpt lat="43.16588874031977" lon="-2.5980708870510325"><ele>134.8</ele><time>2026-04-30T11:53:19.001Z</time></trkpt><trkpt lat="43.16585674358928" lon="-2.598189812887078"><ele>134.20000000000002</ele><time>2026-04-30T11:53:20.001Z</time></trkpt><trkpt lat="43.16581909920856" lon="-2.5982724546128253"><ele>133.6</ele><time>2026-04-30T11:53:21.001Z</time></trkpt><trkpt lat="43.16576980231518" lon="-2.5984663353858375"><ele>133.0</ele><time>2026-04-30T11:53:22.001Z</time></trkpt><trkpt lat="43.16571788967776" lon="-2.598619852938536"><ele>132.4</ele><time>2026-04-30T11:53:23.002Z</time></trkpt><trkpt lat="43.16568709080712" lon="-2.5987353916118363"><ele>131.8</ele><time>2026-04-30T11:53:24.002Z</time></trkpt><trkpt lat="43.16566944734116" lon="-2.5988350757675867"><ele>131.2</ele><time>2026-04-30T11:53:25.002Z</time></trkpt><trkpt lat="43.165639025671325" lon="-2.598935097224827"><ele>130.6</ele><time>2026-04-30T11:53:26.002Z</time></trkpt><trkpt lat="43.16561050871081" lon="-2.599067925390038"><ele>130.0</ele><time>2026-04-30T11:53:27.002Z</time></trkpt><trkpt lat="43.165553638544814" lon="-2.5992450920956953"><ele>130.0</ele><time>2026-04-30T11:53:28.002Z</time></trkpt><trkpt lat="43.16552399070358" lon="-2.5993532768279066"><ele>130.0</ele><time>2026-04-30T11:53:29.002Z</time></trkpt><trkpt lat="43.1654508387414" lon="-2.599539265953308"><ele>130.0</ele><time>2026-04-30T11:53:30.002Z</time></trkpt><trkpt lat="43.16540675036765" lon="-2.599676492575107"><ele>130.0</ele><time>2026-04-30T11:53:31.002Z</time></trkpt><trkpt lat="43.165362713968456" lon="-2.5998118906001153"><ele>130.2</ele><time>2026-04-30T11:53:32.002Z</time></trkpt><trkpt lat="43.16531669266759" lon="-2.599949630928415"><ele>130.4</ele><time>2026-04-30T11:53:33.002Z</time></trkpt><trkpt lat="43.16527325849409" lon="-2.600083370428159"><ele>130.6</ele><time>2026-04-30T11:53:34.002Z</time></trkpt><trkpt lat="43.16522937324555" lon="-2.6002182679527635"><ele>130.8</ele><time>2026-04-30T11:53:35.002Z</time></trkpt><trkpt lat="43.165184002226354" lon="-2.6003579990321835"><ele>131.0</ele><time>2026-04-30T11:53:36.002Z</time></trkpt><trkpt lat="43.16514122806522" lon="-2.6004944278992577"><ele>131.0</ele><time>2026-04-30T11:53:37.002Z</time></trkpt><trkpt lat="43.165095028598685" lon="-2.600633182017385"><ele>131.0</ele><time>2026-04-30T11:53:38.002Z</time></trkpt><trkpt lat="43.165050810053245" lon="-2.6007685652904793"><ele>131.0</ele><time>2026-04-30T11:53:39.002Z</time></trkpt><trkpt lat="43.1650031370566" lon="-2.600904120223008"><ele>131.0</ele><time>2026-04-30T11:53:40.002Z</time></trkpt><trkpt lat="43.1649556300175" lon="-2.6010374184508627"><ele>131.0</ele><time>2026-04-30T11:53:41.002Z</time></trkpt><trkpt lat="43.164907424977216" lon="-2.6011703138274545"><ele>130.6</ele><time>2026-04-30T11:53:42.002Z</time></trkpt><trkpt lat="43.1648587260938" lon="-2.601306463198176"><ele>130.2</ele><time>2026-04-30T11:53:43.002Z</time></trkpt><trkpt lat="43.16480991154057" lon="-2.601439918728266"><ele>129.8</ele><time>2026-04-30T11:53:44.002Z</time></trkpt><trkpt lat="43.16476371953323" lon="-2.601576102409555"><ele>129.4</ele><time>2026-04-30T11:53:45.002Z</time></trkpt><trkpt lat="43.16471226035412" lon="-2.6017122170743394"><ele>129.0</ele><time>2026-04-30T11:53:46.002Z</time></trkpt><trkpt lat="43.164663720792184" lon="-2.6018439041624295"><ele>129.0</ele><time>2026-04-30T11:53:47.002Z</time></trkpt><trkpt lat="43.1646151768543" lon="-2.6019767621921854"><ele>129.0</ele><time>2026-04-30T11:53:48.002Z</time></trkpt><trkpt lat="43.16456706530271" lon="-2.6021086025150337"><ele>129.0</ele><time>2026-04-30T11:53:49.002Z</time></trkpt><trkpt lat="43.16452285027018" lon="-2.6022510013830042"><ele>129.0</ele><time>2026-04-30T11:53:50.002Z</time></trkpt><trkpt lat="43.16447665613458" lon="-2.6023878454501954"><ele>129.0</ele><time>2026-04-30T11:53:51.002Z</time></trkpt><trkpt lat="43.16442860830953" lon="-2.602527686247177"><ele>129.4</ele><time>2026-04-30T11:53:52.002Z</time></trkpt><trkpt lat="43.16437980063708" lon="-2.6026662753270715"><ele>129.8</ele><time>2026-04-30T11:53:53.002Z</time></trkpt><trkpt lat="43.164330326332454" lon="-2.602802796340584"><ele>130.2</ele><time>2026-04-30T11:53:54.002Z</time></trkpt><trkpt lat="43.164280211041536" lon="-2.6029344638362635"><ele>130.6</ele><time>2026-04-30T11:53:55.002Z</time></trkpt><trkpt lat="43.16422998741144" lon="-2.6030712775786133"><ele>131.0</ele><time>2026-04-30T11:53:56.002Z</time></trkpt><trkpt lat="43.16418053164774" lon="-2.6032057057713205"><ele>131.0</ele><time>2026-04-30T11:53:57.002Z</time></trkpt><trkpt lat="43.164137523005564" lon="-2.6033433263068932"><ele>131.0</ele><time>2026-04-30T11:53:58.002Z</time></trkpt><trkpt lat="43.164087645053755" lon="-2.6034803379193576"><ele>131.0</ele><time>2026-04-30T11:53:59.002Z</time></trkpt><trkpt lat="43.164039351670176" lon="-2.6036171891282565"><ele>131.0</ele><time>2026-04-30T11:54:00.002Z</time></trkpt><trkpt lat="43.16400399891073" lon="-2.6037545107657825"><ele>131.0</ele><time>2026-04-30T11:54:01.002Z</time></trkpt><trkpt lat="43.163960548706086" lon="-2.6038989472376364"><ele>131.0</ele><time>2026-04-30T11:54:02.002Z</time></trkpt><trkpt lat="43.16392390866264" lon="-2.604033920354109"><ele>131.0</ele><time>2026-04-30T11:54:03.002Z</time></trkpt><trkpt lat="43.16391196248815" lon="-2.6041796271447355"><ele>131.0</ele><time>2026-04-30T11:54:04.002Z</time></trkpt><trkpt lat="43.16391637045898" lon="-2.60432595450261"><ele>131.0</ele><time>2026-04-30T11:54:05.002Z</time></trkpt><trkpt lat="43.163938539831605" lon="-2.6044620061362016"><ele>131.0</ele><time>2026-04-30T11:54:06.003Z</time></trkpt><trkpt lat="43.16397631141258" lon="-2.604593508670366"><ele>130.2</ele><time>2026-04-30T11:54:07.003Z</time></trkpt><trkpt lat="43.16403109460538" lon="-2.6047119117818087"><ele>129.39999999999998</ele><time>2026-04-30T11:54:08.003Z</time></trkpt><trkpt lat="43.164103741467265" lon="-2.604821759190331"><ele>128.6</ele><time>2026-04-30T11:54:09.003Z</time></trkpt><trkpt lat="43.164184923807596" lon="-2.6049135823682485"><ele>127.8</ele><time>2026-04-30T11:54:10.003Z</time></trkpt><trkpt lat="43.164276083049224" lon="-2.6049965287363133"><ele>127.0</ele><time>2026-04-30T11:54:11.003Z</time></trkpt><trkpt lat="43.164375636082724" lon="-2.6050630784815705"><ele>127.0</ele><time>2026-04-30T11:54:12.003Z</time></trkpt><trkpt lat="43.16448686678073" lon="-2.6051048378359805"><ele>127.0</ele><time>2026-04-30T11:54:13.003Z</time></trkpt><trkpt lat="43.16460068269079" lon="-2.6051111469111663"><ele>127.0</ele><time>2026-04-30T11:54:14.003Z</time></trkpt><trkpt lat="43.164720612934026" lon="-2.6050980750532053"><ele>127.0</ele><time>2026-04-30T11:54:15.003Z</time></trkpt><trkpt lat="43.164843348901236" lon="-2.605057167625638"><ele>126.5</ele><time>2026-04-30T11:54:16.003Z</time></trkpt><trkpt lat="43.16495843788158" lon="-2.604999593841314"><ele>126.0</ele><time>2026-04-30T11:54:17.003Z</time></trkpt><trkpt lat="43.16506768252051" lon="-2.6049568567721275"><ele>125.5</ele><time>2026-04-30T11:54:18.003Z</time></trkpt><trkpt lat="43.165176538935704" lon="-2.604920473576887"><ele>125.0</ele><time>2026-04-30T11:54:19.003Z</time></trkpt><trkpt lat="43.165278006588075" lon="-2.604879140235203"><ele>125.0</ele><time>2026-04-30T11:54:20.003Z</time></trkpt><trkpt lat="43.165375341457235" lon="-2.6048390538154718"><ele>125.0</ele><time>2026-04-30T11:54:21.003Z</time></trkpt><trkpt lat="43.16546845935262" lon="-2.6047938608528565"><ele>125.0</ele><time>2026-04-30T11:54:22.003Z</time></trkpt><trkpt lat="43.165551978206665" lon="-2.6047483880892766"><ele>125.0</ele><time>2026-04-30T11:54:23.003Z</time></trkpt><trkpt lat="43.16560962403049" lon="-2.6046900334460483"><ele>125.0</ele><time>2026-04-30T11:54:24.003Z</time></trkpt><trkpt lat="43.165677379030335" lon="-2.604568762031451"><ele>125.83333333333333</ele><time>2026-04-30T11:54:28.003Z</time></trkpt><trkpt lat="43.16574048373159" lon="-2.6044340471793412"><ele>126.66666666666666</ele><time>2026-04-30T11:54:30.001Z</time></trkpt><trkpt lat="43.16578151028531" lon="-2.604368036548458"><ele>127.5</ele><time>2026-04-30T11:54:31.001Z</time></trkpt><trkpt lat="43.16584446676042" lon="-2.6043182115157486"><ele>128.33333333333334</ele><time>2026-04-30T11:54:32.001Z</time></trkpt><trkpt lat="43.165922901436254" lon="-2.604304932392818"><ele>129.16666666666669</ele><time>2026-04-30T11:54:33.001Z</time></trkpt><trkpt lat="43.1659842300281" lon="-2.6042784771560465"><ele>130.0</ele><time>2026-04-30T11:54:34.001Z</time></trkpt><trkpt lat="43.16606177214284" lon="-2.604417390521304"><ele>129.16666666666669</ele><time>2026-04-30T11:54:35.001Z</time></trkpt><trkpt lat="43.16610484724998" lon="-2.604508677697603"><ele>128.33333333333334</ele><time>2026-04-30T11:54:36.001Z</time></trkpt><trkpt lat="43.166131672665486" lon="-2.6046060403863938"><ele>127.5</ele><time>2026-04-30T11:54:37.001Z</time></trkpt><trkpt lat="43.16615366727394" lon="-2.6046990159817716"><ele>126.66666666666666</ele><time>2026-04-30T11:54:38.001Z</time></trkpt><trkpt lat="43.16618910281374" lon="-2.6047929283167934"><ele>125.83333333333333</ele><time>2026-04-30T11:54:39.001Z</time></trkpt><trkpt lat="43.16626455631583" lon="-2.6048801457765656"><ele>125.0</ele><time>2026-04-30T11:54:40.001Z</time></trkpt><trkpt lat="43.16637892395304" lon="-2.60496162112222"><ele>125.0</ele><time>2026-04-30T11:54:41.001Z</time></trkpt><trkpt lat="43.16649506543827" lon="-2.60509385792986"><ele>125.0</ele><time>2026-04-30T11:54:43.001Z</time></trkpt><trkpt lat="43.16653649970809" lon="-2.6051843477259586"><ele>125.0</ele><time>2026-04-30T11:54:44.001Z</time></trkpt><trkpt lat="43.16667602899982" lon="-2.605272350314136"><ele>125.0</ele><time>2026-04-30T11:54:45.001Z</time></trkpt><trkpt lat="43.166783016826244" lon="-2.60534178643097"><ele>125.0</ele><time>2026-04-30T11:54:46.001Z</time></trkpt><trkpt lat="43.16686005067829" lon="-2.605446862530229"><ele>125.0</ele><time>2026-04-30T11:54:47.001Z</time></trkpt><trkpt lat="43.166983616025924" lon="-2.6055608600288185"><ele>125.0</ele><time>2026-04-30T11:54:48.001Z</time></trkpt><trkpt lat="43.16711246552861" lon="-2.6056811759878995"><ele>125.0</ele><time>2026-04-30T11:54:49.001Z</time></trkpt><trkpt lat="43.16718355671392" lon="-2.6057498433002246"><ele>125.0</ele><time>2026-04-30T11:54:50.001Z</time></trkpt><trkpt lat="43.16726558134974" lon="-2.6058515732713845"><ele>125.0</ele><time>2026-04-30T11:54:52.001Z</time></trkpt><trkpt lat="43.167352321661475" lon="-2.605923626703548"><ele>125.0</ele><time>2026-04-30T11:54:53.001Z</time></trkpt><trkpt lat="43.167479916971075" lon="-2.6060530862165265"><ele>125.0</ele><time>2026-04-30T11:54:54.001Z</time></trkpt><trkpt lat="43.16757246807016" lon="-2.6061490523618014"><ele>124.75</ele><time>2026-04-30T11:54:55.001Z</time></trkpt><trkpt lat="43.16766388406634" lon="-2.6062316741881326"><ele>124.5</ele><time>2026-04-30T11:54:56.001Z</time></trkpt><trkpt lat="43.16775903784778" lon="-2.6063309176599145"><ele>124.25</ele><time>2026-04-30T11:54:57.001Z</time></trkpt><trkpt lat="43.167848581076576" lon="-2.606419357108333"><ele>124.0</ele><time>2026-04-30T11:54:58.001Z</time></trkpt><trkpt lat="43.167935929601974" lon="-2.606515312031997"><ele>124.0</ele><time>2026-04-30T11:54:59.001Z</time></trkpt><trkpt lat="43.168029241583795" lon="-2.6066041940959197"><ele>124.0</ele><time>2026-04-30T11:55:00.001Z</time></trkpt><trkpt lat="43.16811835398635" lon="-2.6066956515731228"><ele>124.0</ele><time>2026-04-30T11:55:01.001Z</time></trkpt><trkpt lat="43.168210139272276" lon="-2.606791460255244"><ele>124.0</ele><time>2026-04-30T11:55:02.001Z</time></trkpt><trkpt lat="43.168298428868766" lon="-2.6068829362831005"><ele>123.75</ele><time>2026-04-30T11:55:03.001Z</time></trkpt><trkpt lat="43.16839123251203" lon="-2.6069752431641247"><ele>123.5</ele><time>2026-04-30T11:55:04.001Z</time></trkpt><trkpt lat="43.16848299356363" lon="-2.607061669453447"><ele>123.25</ele><time>2026-04-30T11:55:05.001Z</time></trkpt><trkpt lat="43.16857418460694" lon="-2.607152267028416"><ele>123.0</ele><time>2026-04-30T11:55:06.001Z</time></trkpt><trkpt lat="43.1686637375857" lon="-2.6072427992398906"><ele>123.0</ele><time>2026-04-30T11:55:07.001Z</time></trkpt><trkpt lat="43.168750818961215" lon="-2.6073325453320697"><ele>123.00000000000001</ele><time>2026-04-30T11:55:08.001Z</time></trkpt><trkpt lat="43.16883929151062" lon="-2.6074201006204807"><ele>123.00000000000001</ele><time>2026-04-30T11:55:09.001Z</time></trkpt><trkpt lat="43.168923876517" lon="-2.607512083558684"><ele>123.0</ele><time>2026-04-30T11:55:10.001Z</time></trkpt><trkpt lat="43.169007343993364" lon="-2.6076039475123562"><ele>123.0</ele><time>2026-04-30T11:55:11.001Z</time></trkpt><trkpt lat="43.16909123430254" lon="-2.607692784966918"><ele>122.60000000000001</ele><time>2026-04-30T11:55:12.001Z</time></trkpt><trkpt lat="43.169176799050874" lon="-2.6077796488000535"><ele>122.20000000000002</ele><time>2026-04-30T11:55:13.001Z</time></trkpt><trkpt lat="43.16926049077345" lon="-2.607863509842767"><ele>121.8</ele><time>2026-04-30T11:55:14.001Z</time></trkpt><trkpt lat="43.16934381716784" lon="-2.6079517802129435"><ele>121.4</ele><time>2026-04-30T11:55:15.001Z</time></trkpt><trkpt lat="43.1694201424872" lon="-2.6080469935677812"><ele>121.0</ele><time>2026-04-30T11:55:16.001Z</time></trkpt><trkpt lat="43.1694976049121" lon="-2.6081342418748803"><ele>121.00000000000001</ele><time>2026-04-30T11:55:17.001Z</time></trkpt><trkpt lat="43.169576316284044" lon="-2.608221427888727"><ele>121.0</ele><time>2026-04-30T11:55:18.001Z</time></trkpt><trkpt lat="43.16964434779256" lon="-2.6083047404705253"><ele>121.0</ele><time>2026-04-30T11:55:19.001Z</time></trkpt><trkpt lat="43.16971197731659" lon="-2.608373146719202"><ele>121.0</ele><time>2026-04-30T11:55:20.001Z</time></trkpt><trkpt lat="43.16978544887228" lon="-2.6084211797813417"><ele>121.00000000000001</ele><time>2026-04-30T11:55:21.001Z</time></trkpt><trkpt lat="43.16987205688127" lon="-2.608435851656461"><ele>121.0</ele><time>2026-04-30T11:55:22.001Z</time></trkpt><trkpt lat="43.16991412574479" lon="-2.6085286109086137"><ele>122.0</ele><time>2026-04-30T11:55:24.001Z</time></trkpt><trkpt lat="43.169958078852325" lon="-2.6086366997473656"><ele>123.0</ele><time>2026-04-30T11:55:25.001Z</time></trkpt><trkpt lat="43.17007720942367" lon="-2.608817617536758"><ele>124.0</ele><time>2026-04-30T11:55:26.001Z</time></trkpt><trkpt lat="43.17015241919713" lon="-2.608917227963813"><ele>125.0</ele><time>2026-04-30T11:55:27.001Z</time></trkpt><trkpt lat="43.17025929497739" lon="-2.6089836395925374"><ele>125.0</ele><time>2026-04-30T11:55:28.001Z</time></trkpt><trkpt lat="43.17033931238034" lon="-2.6090787141906753"><ele>125.0</ele><time>2026-04-30T11:55:29.001Z</time></trkpt><trkpt lat="43.17043338907611" lon="-2.6091949414131195"><ele>125.0</ele><time>2026-04-30T11:55:30.001Z</time></trkpt><trkpt lat="43.17049235399981" lon="-2.6092723162864306"><ele>125.0</ele><time>2026-04-30T11:55:31.001Z</time></trkpt><trkpt lat="43.17054703741006" lon="-2.6093212631938867"><ele>125.0</ele><time>2026-04-30T11:55:32.001Z</time></trkpt><trkpt lat="43.170667455700766" lon="-2.6094740210403553"><ele>124.25</ele><time>2026-04-30T11:55:33.001Z</time></trkpt><trkpt lat="43.170813472235494" lon="-2.6095970911307833"><ele>123.5</ele><time>2026-04-30T11:55:34.001Z</time></trkpt><trkpt lat="43.17091029200867" lon="-2.609645720673336"><ele>122.75</ele><time>2026-04-30T11:55:35.001Z</time></trkpt><trkpt lat="43.170943232317555" lon="-2.6097867029835893"><ele>122.0</ele><time>2026-04-30T11:55:36.001Z</time></trkpt><trkpt lat="43.17103291295613" lon="-2.6098856135488515"><ele>122.0</ele><time>2026-04-30T11:55:37.001Z</time></trkpt><trkpt lat="43.17112182131635" lon="-2.6099828178440694"><ele>122.0</ele><time>2026-04-30T11:55:38.001Z</time></trkpt><trkpt lat="43.17120590598334" lon="-2.6100750817740574"><ele>122.0</ele><time>2026-04-30T11:55:39.002Z</time></trkpt><trkpt lat="43.171305657706625" lon="-2.610179100613591"><ele>122.0</ele><time>2026-04-30T11:55:40.002Z</time></trkpt><trkpt lat="43.17138986922172" lon="-2.6102679749991644"><ele>121.75</ele><time>2026-04-30T11:55:41.002Z</time></trkpt><trkpt lat="43.17147286670675" lon="-2.61037244267852"><ele>121.5</ele><time>2026-04-30T11:55:42.002Z</time></trkpt><trkpt lat="43.171558633684675" lon="-2.6104760142783765"><ele>121.25</ele><time>2026-04-30T11:55:43.002Z</time></trkpt><trkpt lat="43.17164761525537" lon="-2.6105762621682884"><ele>121.0</ele><time>2026-04-30T11:55:44.002Z</time></trkpt><trkpt lat="43.171728602710964" lon="-2.610679206087134"><ele>121.0</ele><time>2026-04-30T11:55:45.002Z</time></trkpt><trkpt lat="43.17180344746716" lon="-2.610794121281031"><ele>121.0</ele><time>2026-04-30T11:55:46.002Z</time></trkpt><trkpt lat="43.171868819851326" lon="-2.610918687315472"><ele>121.0</ele><time>2026-04-30T11:55:47.002Z</time></trkpt><trkpt lat="43.171932887681315" lon="-2.611047784203674"><ele>121.0</ele><time>2026-04-30T11:55:48.002Z</time></trkpt><trkpt lat="43.17198878821456" lon="-2.61118017764288"><ele>120.6</ele><time>2026-04-30T11:55:49.002Z</time></trkpt><trkpt lat="43.17203948287677" lon="-2.611315510916973"><ele>120.19999999999999</ele><time>2026-04-30T11:55:50.002Z</time></trkpt><trkpt lat="43.172084523728" lon="-2.611456790635655"><ele>119.80000000000001</ele><time>2026-04-30T11:55:51.002Z</time></trkpt><trkpt lat="43.17212135593876" lon="-2.611600907999071"><ele>119.4</ele><time>2026-04-30T11:55:52.002Z</time></trkpt><trkpt lat="43.1721552440064" lon="-2.6117494855513455"><ele>119.0</ele><time>2026-04-30T11:55:53.002Z</time></trkpt><trkpt lat="43.17218783289536" lon="-2.6118964650971135"><ele>118.0</ele><time>2026-04-30T11:55:54.002Z</time></trkpt><trkpt lat="43.17221884598055" lon="-2.6120449545628346"><ele>117.0</ele><time>2026-04-30T11:55:55.002Z</time></trkpt><trkpt lat="43.17224903986607" lon="-2.612190956630637"><ele>116.0</ele><time>2026-04-30T11:55:56.002Z</time></trkpt><trkpt lat="43.17228224238826" lon="-2.6123405291547197"><ele>115.0</ele><time>2026-04-30T11:55:57.002Z</time></trkpt><trkpt lat="43.17231285650386" lon="-2.612490398767806"><ele>115.0</ele><time>2026-04-30T11:55:58.002Z</time></trkpt><trkpt lat="43.172344463955056" lon="-2.6126348781756437"><ele>115.0</ele><time>2026-04-30T11:55:59.002Z</time></trkpt><trkpt lat="43.17237623808376" lon="-2.612784273464715"><ele>115.0</ele><time>2026-04-30T11:56:00.002Z</time></trkpt><trkpt lat="43.17240715773573" lon="-2.6129292102953716"><ele>115.0</ele><time>2026-04-30T11:56:01.002Z</time></trkpt><trkpt lat="43.17243886120583" lon="-2.6130739355491057"><ele>115.0</ele><time>2026-04-30T11:56:02.002Z</time></trkpt><trkpt lat="43.172469896993114" lon="-2.613220938093805"><ele>115.2</ele><time>2026-04-30T11:56:03.002Z</time></trkpt><trkpt lat="43.17250213626095" lon="-2.613365516079514"><ele>115.4</ele><time>2026-04-30T11:56:04.002Z</time></trkpt><trkpt lat="43.17253629849526" lon="-2.613511679111403"><ele>115.6</ele><time>2026-04-30T11:56:05.002Z</time></trkpt><trkpt lat="43.172567938405045" lon="-2.6136554476545713"><ele>115.8</ele><time>2026-04-30T11:56:06.002Z</time></trkpt><trkpt lat="43.172600943202774" lon="-2.613799837989786"><ele>116.0</ele><time>2026-04-30T11:56:07.002Z</time></trkpt><trkpt lat="43.17263027840102" lon="-2.6139456274607453"><ele>116.0</ele><time>2026-04-30T11:56:08.002Z</time></trkpt><trkpt lat="43.17266415306935" lon="-2.614090082716395"><ele>116.0</ele><time>2026-04-30T11:56:09.002Z</time></trkpt><trkpt lat="43.172695859305946" lon="-2.6142349713771806"><ele>116.0</ele><time>2026-04-30T11:56:10.002Z</time></trkpt><trkpt lat="43.172727444568615" lon="-2.6143753591528784"><ele>116.0</ele><time>2026-04-30T11:56:11.002Z</time></trkpt><trkpt lat="43.172759670820675" lon="-2.6145182738981094"><ele>116.0</ele><time>2026-04-30T11:56:12.002Z</time></trkpt><trkpt lat="43.172785761348244" lon="-2.614658828071126"><ele>115.8</ele><time>2026-04-30T11:56:13.002Z</time></trkpt><trkpt lat="43.17281287661415" lon="-2.6148017860354282"><ele>115.6</ele><time>2026-04-30T11:56:14.002Z</time></trkpt><trkpt lat="43.172840120051795" lon="-2.614943217553895"><ele>115.4</ele><time>2026-04-30T11:56:15.002Z</time></trkpt><trkpt lat="43.172863851172764" lon="-2.615086754696383"><ele>115.2</ele><time>2026-04-30T11:56:16.002Z</time></trkpt><trkpt lat="43.17288433960576" lon="-2.615229410958619"><ele>115.0</ele><time>2026-04-30T11:56:17.002Z</time></trkpt><trkpt lat="43.17289287323196" lon="-2.615372466436551"><ele>114.6</ele><time>2026-04-30T11:56:18.002Z</time></trkpt><trkpt lat="43.17289813705364" lon="-2.6155183379875924"><ele>114.2</ele><time>2026-04-30T11:56:19.002Z</time></trkpt><trkpt lat="43.172901369406326" lon="-2.615666306987941"><ele>113.80000000000001</ele><time>2026-04-30T11:56:20.002Z</time></trkpt><trkpt lat="43.17289718194776" lon="-2.6158146154442616"><ele>113.4</ele><time>2026-04-30T11:56:21.002Z</time></trkpt><trkpt lat="43.172888739334326" lon="-2.6159617280262912"><ele>113.0</ele><time>2026-04-30T11:56:22.002Z</time></trkpt><trkpt lat="43.172876014031104" lon="-2.616107149620441"><ele>113.4</ele><time>2026-04-30T11:56:23.002Z</time></trkpt><trkpt lat="43.17285858447772" lon="-2.616252926142663"><ele>113.80000000000001</ele><time>2026-04-30T11:56:24.002Z</time></trkpt><trkpt lat="43.172835862967595" lon="-2.6163981839677066"><ele>114.2</ele><time>2026-04-30T11:56:25.002Z</time></trkpt><trkpt lat="43.17281317526639" lon="-2.616544237422326"><ele>114.6</ele><time>2026-04-30T11:56:26.003Z</time></trkpt><trkpt lat="43.172787043108734" lon="-2.6166883924856457"><ele>115.0</ele><time>2026-04-30T11:56:27.003Z</time></trkpt><trkpt lat="43.17275870143485" lon="-2.616833793395672"><ele>115.0</ele><time>2026-04-30T11:56:28.003Z</time></trkpt><trkpt lat="43.17273366520901" lon="-2.616981635890935"><ele>115.0</ele><time>2026-04-30T11:56:29.003Z</time></trkpt><trkpt lat="43.172711074315934" lon="-2.6171248290908946"><ele>115.0</ele><time>2026-04-30T11:56:30.003Z</time></trkpt><trkpt lat="43.172688690028416" lon="-2.6172740564276604"><ele>115.0</ele><time>2026-04-30T11:56:31.003Z</time></trkpt><trkpt lat="43.172667824168364" lon="-2.617418567967887"><ele>115.0</ele><time>2026-04-30T11:56:32.003Z</time></trkpt><trkpt lat="43.17265066901328" lon="-2.6175666297947187"><ele>115.4</ele><time>2026-04-30T11:56:33.003Z</time></trkpt><trkpt lat="43.17263624218792" lon="-2.617715059352707"><ele>115.8</ele><time>2026-04-30T11:56:34.003Z</time></trkpt><trkpt lat="43.17262653068595" lon="-2.617864128315811"><ele>116.19999999999999</ele><time>2026-04-30T11:56:35.003Z</time></trkpt><trkpt lat="43.17261847241393" lon="-2.618013804530935"><ele>116.6</ele><time>2026-04-30T11:56:36Z</time></trkpt><trkpt lat="43.17261358708071" lon="-2.618163346312908"><ele>117.0</ele><time>2026-04-30T11:56:37Z</time></trkpt><trkpt lat="43.17261245601587" lon="-2.618310016001195"><ele>117.39999999999999</ele><time>2026-04-30T11:56:38Z</time></trkpt><trkpt lat="43.17261246147507" lon="-2.618457940788177"><ele>117.79999999999998</ele><time>2026-04-30T11:56:39Z</time></trkpt><trkpt lat="43.17261316115136" lon="-2.618604361589285"><ele>118.2</ele><time>2026-04-30T11:56:40Z</time></trkpt><trkpt lat="43.17261710000229" lon="-2.6187477861089987"><ele>118.6</ele><time>2026-04-30T11:56:41Z</time></trkpt><trkpt lat="43.17262609616417" lon="-2.6188888490663347"><ele>119.0</ele><time>2026-04-30T11:56:42Z</time></trkpt><trkpt lat="43.172636401415986" lon="-2.619031877126555"><ele>119.4</ele><time>2026-04-30T11:56:43Z</time></trkpt><trkpt lat="43.17264595482144" lon="-2.619178897964849"><ele>119.80000000000001</ele><time>2026-04-30T11:56:44Z</time></trkpt><trkpt lat="43.172656056583406" lon="-2.6193238546787714"><ele>120.19999999999999</ele><time>2026-04-30T11:56:45Z</time></trkpt><trkpt lat="43.1726666738087" lon="-2.619468296578552"><ele>120.6</ele><time>2026-04-30T11:56:46Z</time></trkpt><trkpt lat="43.17267400664267" lon="-2.61961421056755"><ele>121.0</ele><time>2026-04-30T11:56:47Z</time></trkpt><trkpt lat="43.172678958145454" lon="-2.6197592631710434"><ele>120.19999999999999</ele><time>2026-04-30T11:56:48Z</time></trkpt><trkpt lat="43.17268388856767" lon="-2.6199100081331363"><ele>119.39999999999999</ele><time>2026-04-30T11:56:49Z</time></trkpt><trkpt lat="43.17268882540837" lon="-2.620058005915724"><ele>118.6</ele><time>2026-04-30T11:56:50Z</time></trkpt><trkpt lat="43.17269465992264" lon="-2.6202027269575923"><ele>117.8</ele><time>2026-04-30T11:56:51Z</time></trkpt><trkpt lat="43.17269818477459" lon="-2.620349911800081"><ele>117.0</ele><time>2026-04-30T11:56:52Z</time></trkpt><trkpt lat="43.17270344936743" lon="-2.6204939630861146"><ele>116.6</ele><time>2026-04-30T11:56:53Z</time></trkpt><trkpt lat="43.17270946197514" lon="-2.6206412275304416"><ele>116.19999999999999</ele><time>2026-04-30T11:56:54Z</time></trkpt><trkpt lat="43.172715479005866" lon="-2.620791570943122"><ele>115.8</ele><time>2026-04-30T11:56:55Z</time></trkpt><trkpt lat="43.17272107482503" lon="-2.620939038104195"><ele>115.4</ele><time>2026-04-30T11:56:56Z</time></trkpt><trkpt lat="43.17272647115461" lon="-2.621087831809915"><ele>115.0</ele><time>2026-04-30T11:56:57Z</time></trkpt><trkpt lat="43.17273023949114" lon="-2.6212338542207503"><ele>114.8</ele><time>2026-04-30T11:56:58Z</time></trkpt><trkpt lat="43.1727338144083" lon="-2.621381026942282"><ele>114.6</ele><time>2026-04-30T11:56:59Z</time></trkpt><trkpt lat="43.172738126987355" lon="-2.621525861497454"><ele>114.4</ele><time>2026-04-30T11:57:00Z</time></trkpt><trkpt lat="43.172741933811245" lon="-2.6216749303000952"><ele>114.2</ele><time>2026-04-30T11:57:01Z</time></trkpt><trkpt lat="43.172746896284686" lon="-2.621820968876153"><ele>114.0</ele><time>2026-04-30T11:57:02Z</time></trkpt><trkpt lat="43.172751921682625" lon="-2.621968504628866"><ele>113.80000000000001</ele><time>2026-04-30T11:57:03Z</time></trkpt><trkpt lat="43.17275455653301" lon="-2.622114727547443"><ele>113.60000000000001</ele><time>2026-04-30T11:57:04Z</time></trkpt><trkpt lat="43.17275738980524" lon="-2.622265287035415"><ele>113.4</ele><time>2026-04-30T11:57:05Z</time></trkpt><trkpt lat="43.1727621576377" lon="-2.622414590712098"><ele>113.2</ele><time>2026-04-30T11:57:06Z</time></trkpt><trkpt lat="43.17276624554061" lon="-2.622561912194723"><ele>113.0</ele><time>2026-04-30T11:57:07Z</time></trkpt><trkpt lat="43.17277067016671" lon="-2.6227140719507314"><ele>113.0</ele><time>2026-04-30T11:57:08Z</time></trkpt><trkpt lat="43.172776210478474" lon="-2.6228651509928755"><ele>113.00000000000001</ele><time>2026-04-30T11:57:09Z</time></trkpt><trkpt lat="43.17277734463941" lon="-2.6230153035809765"><ele>113.00000000000001</ele><time>2026-04-30T11:57:10Z</time></trkpt><trkpt lat="43.17278317965514" lon="-2.623165961480188"><ele>113.0</ele><time>2026-04-30T11:57:11Z</time></trkpt><trkpt lat="43.17279037244059" lon="-2.623315866478638"><ele>113.0</ele><time>2026-04-30T11:57:12Z</time></trkpt><trkpt lat="43.172799937114675" lon="-2.6234649402321315"><ele>113.0</ele><time>2026-04-30T11:57:13Z</time></trkpt><trkpt lat="43.172814626654386" lon="-2.6236120964204086"><ele>113.00000000000001</ele><time>2026-04-30T11:57:14Z</time></trkpt><trkpt lat="43.17283418919475" lon="-2.623756662951561"><ele>113.00000000000001</ele><time>2026-04-30T11:57:15Z</time></trkpt><trkpt lat="43.17285837974346" lon="-2.6239020102592767"><ele>113.0</ele><time>2026-04-30T11:57:16Z</time></trkpt><trkpt lat="43.17288488614115" lon="-2.6240408268427657"><ele>113.0</ele><time>2026-04-30T11:57:17Z</time></trkpt><trkpt lat="43.17291571467021" lon="-2.62418092826847"><ele>112.80000000000001</ele><time>2026-04-30T11:57:18Z</time></trkpt><trkpt lat="43.172951347228704" lon="-2.6243211942122477"><ele>112.60000000000001</ele><time>2026-04-30T11:57:19.001Z</time></trkpt><trkpt lat="43.17298949012647" lon="-2.624457335243564"><ele>112.39999999999999</ele><time>2026-04-30T11:57:20.001Z</time></trkpt><trkpt lat="43.17302890349829" lon="-2.624589259121078"><ele>112.19999999999999</ele><time>2026-04-30T11:57:21.001Z</time></trkpt><trkpt lat="43.17307129497273" lon="-2.6247235500271624"><ele>112.0</ele><time>2026-04-30T11:57:22.001Z</time></trkpt><trkpt lat="43.17311811118097" lon="-2.624855653806212"><ele>111.8</ele><time>2026-04-30T11:57:23.001Z</time></trkpt><trkpt lat="43.17316959044435" lon="-2.6249858228053795"><ele>111.6</ele><time>2026-04-30T11:57:24.001Z</time></trkpt><trkpt lat="43.173221556217584" lon="-2.6251143917115205"><ele>111.39999999999999</ele><time>2026-04-30T11:57:25.001Z</time></trkpt><trkpt lat="43.17327753769024" lon="-2.6252405173325406"><ele>111.19999999999999</ele><time>2026-04-30T11:57:26.001Z</time></trkpt><trkpt lat="43.17333135084239" lon="-2.6253667099386324"><ele>111.0</ele><time>2026-04-30T11:57:27.001Z</time></trkpt><trkpt lat="43.17338740914208" lon="-2.625496702075474"><ele>111.0</ele><time>2026-04-30T11:57:28.001Z</time></trkpt><trkpt lat="43.17344338484135" lon="-2.6256233540946208"><ele>111.0</ele><time>2026-04-30T11:57:29.001Z</time></trkpt><trkpt lat="43.17349971804802" lon="-2.625751196467098"><ele>111.0</ele><time>2026-04-30T11:57:30.001Z</time></trkpt><trkpt lat="43.17355563032468" lon="-2.625879161677316"><ele>111.0</ele><time>2026-04-30T11:57:31.001Z</time></trkpt><trkpt lat="43.17361149732311" lon="-2.6260067877433158"><ele>111.0</ele><time>2026-04-30T11:57:32.001Z</time></trkpt><trkpt lat="43.17366780284959" lon="-2.626136227876281"><ele>110.6</ele><time>2026-04-30T11:57:33.001Z</time></trkpt><trkpt lat="43.17372350411003" lon="-2.6262650777891916"><ele>110.19999999999999</ele><time>2026-04-30T11:57:34.001Z</time></trkpt><trkpt lat="43.17377905122025" lon="-2.6263950477619895"><ele>109.80000000000001</ele><time>2026-04-30T11:57:35.001Z</time></trkpt><trkpt lat="43.1738369725374" lon="-2.6265229245294592"><ele>109.4</ele><time>2026-04-30T11:57:36.001Z</time></trkpt><trkpt lat="43.173897374655084" lon="-2.626651069706762"><ele>109.0</ele><time>2026-04-30T11:57:37.001Z</time></trkpt><trkpt lat="43.17395487035848" lon="-2.6267814906155835"><ele>109.0</ele><time>2026-04-30T11:57:38.001Z</time></trkpt><trkpt lat="43.17401325951436" lon="-2.6269121248920326"><ele>109.0</ele><time>2026-04-30T11:57:39.001Z</time></trkpt><trkpt lat="43.174072549761554" lon="-2.62704360928733"><ele>109.0</ele><time>2026-04-30T11:57:40.001Z</time></trkpt><trkpt lat="43.174129509007415" lon="-2.627175221595757"><ele>109.0</ele><time>2026-04-30T11:57:41.001Z</time></trkpt><trkpt lat="43.1741867610092" lon="-2.6273039430994705"><ele>109.0</ele><time>2026-04-30T11:57:42.001Z</time></trkpt><trkpt lat="43.17424524554924" lon="-2.6274352866611035"><ele>109.6</ele><time>2026-04-30T11:57:43.001Z</time></trkpt><trkpt lat="43.17430122190997" lon="-2.6275652079436083"><ele>110.2</ele><time>2026-04-30T11:57:44.001Z</time></trkpt><trkpt lat="43.1743568025419" lon="-2.627693951229482"><ele>110.79999999999998</ele><time>2026-04-30T11:57:45.001Z</time></trkpt><trkpt lat="43.17441079314959" lon="-2.627820927533544"><ele>111.39999999999999</ele><time>2026-04-30T11:57:46.001Z</time></trkpt><trkpt lat="43.17446452546271" lon="-2.6279463754042105"><ele>112.0</ele><time>2026-04-30T11:57:47.001Z</time></trkpt><trkpt lat="43.17451900799672" lon="-2.628074910545848"><ele>112.0</ele><time>2026-04-30T11:57:48.001Z</time></trkpt><trkpt lat="43.17457495158766" lon="-2.6282045692332203"><ele>111.99999999999999</ele><time>2026-04-30T11:57:49.001Z</time></trkpt><trkpt lat="43.17462852509361" lon="-2.6283324882677044"><ele>111.99999999999999</ele><time>2026-04-30T11:57:50.001Z</time></trkpt><trkpt lat="43.17468320882781" lon="-2.628459050163861"><ele>112.0</ele><time>2026-04-30T11:57:51.001Z</time></trkpt><trkpt lat="43.17473052380703" lon="-2.628585047921704"><ele>112.0</ele><time>2026-04-30T11:57:52.001Z</time></trkpt><trkpt lat="43.174781721636776" lon="-2.6287145523761493"><ele>112.19999999999999</ele><time>2026-04-30T11:57:53.001Z</time></trkpt><trkpt lat="43.17482822486487" lon="-2.628849764738493"><ele>112.39999999999999</ele><time>2026-04-30T11:57:54.001Z</time></trkpt><trkpt lat="43.17487142774203" lon="-2.6289858307365686"><ele>112.60000000000001</ele><time>2026-04-30T11:57:55.001Z</time></trkpt><trkpt lat="43.17491479334076" lon="-2.6291253953328027"><ele>112.80000000000001</ele><time>2026-04-30T11:57:56.001Z</time></trkpt><trkpt lat="43.174954278055885" lon="-2.6292679283472395"><ele>113.0</ele><time>2026-04-30T11:57:57.001Z</time></trkpt><trkpt lat="43.17499726014003" lon="-2.6294091811250833"><ele>112.60000000000001</ele><time>2026-04-30T11:57:58.001Z</time></trkpt><trkpt lat="43.17504645784543" lon="-2.6295456924627594"><ele>112.20000000000002</ele><time>2026-04-30T11:57:59.001Z</time></trkpt><trkpt lat="43.175082261803084" lon="-2.629690077867867"><ele>111.8</ele><time>2026-04-30T11:58:00.001Z</time></trkpt><trkpt lat="43.175116719689065" lon="-2.629831937193272"><ele>111.4</ele><time>2026-04-30T11:58:01.001Z</time></trkpt><trkpt lat="43.17514773570798" lon="-2.629972415446947"><ele>111.0</ele><time>2026-04-30T11:58:02.001Z</time></trkpt><trkpt lat="43.17517857504085" lon="-2.6301054951034897"><ele>111.0</ele><time>2026-04-30T11:58:03.001Z</time></trkpt><trkpt lat="43.17520400804117" lon="-2.6302433926431354"><ele>111.0</ele><time>2026-04-30T11:58:04.001Z</time></trkpt><trkpt lat="43.17523179950439" lon="-2.6303855523824082"><ele>111.0</ele><time>2026-04-30T11:58:05.001Z</time></trkpt><trkpt lat="43.1752627267222" lon="-2.6305234606146994"><ele>111.0</ele><time>2026-04-30T11:58:06.001Z</time></trkpt><trkpt lat="43.17529598877164" lon="-2.630656012330445"><ele>111.0</ele><time>2026-04-30T11:58:07.002Z</time></trkpt><trkpt lat="43.175350426305215" lon="-2.63076448169357"><ele>110.8</ele><time>2026-04-30T11:58:08.002Z</time></trkpt><trkpt lat="43.17540077229232" lon="-2.630872805195226"><ele>110.6</ele><time>2026-04-30T11:58:09.002Z</time></trkpt><trkpt lat="43.17545058720547" lon="-2.63098161337331"><ele>110.4</ele><time>2026-04-30T11:58:10.002Z</time></trkpt><trkpt lat="43.175451033094674" lon="-2.631129115221427"><ele>110.2</ele><time>2026-04-30T11:58:11.002Z</time></trkpt><trkpt lat="43.17550302811052" lon="-2.63123401534693"><ele>110.0</ele><time>2026-04-30T11:58:12.002Z</time></trkpt><trkpt lat="43.175559546373286" lon="-2.6313235140193303"><ele>110.0</ele><time>2026-04-30T11:58:13.002Z</time></trkpt><trkpt lat="43.17560353138475" lon="-2.6314140196257214"><ele>110.0</ele><time>2026-04-30T11:58:14.002Z</time></trkpt><trkpt lat="43.17562451492048" lon="-2.6315383409181514"><ele>110.0</ele><time>2026-04-30T11:58:15.002Z</time></trkpt><trkpt lat="43.17565398705173" lon="-2.6316649519194963"><ele>110.0</ele><time>2026-04-30T11:58:16.002Z</time></trkpt><trkpt lat="43.17558672711351" lon="-2.6317772447872034"><ele>110.0</ele><time>2026-04-30T11:58:17.002Z</time></trkpt><trkpt lat="43.17553506973939" lon="-2.6318821171046203"><ele>109.8</ele><time>2026-04-30T11:58:18.002Z</time></trkpt><trkpt lat="43.17548532412101" lon="-2.6319867449755474"><ele>109.6</ele><time>2026-04-30T11:58:19.002Z</time></trkpt><trkpt lat="43.17544310234759" lon="-2.6321031678827542"><ele>109.4</ele><time>2026-04-30T11:58:20.002Z</time></trkpt><trkpt lat="43.17541296061918" lon="-2.632232465420503"><ele>109.2</ele><time>2026-04-30T11:58:21.002Z</time></trkpt><trkpt lat="43.17540527450881" lon="-2.632373803641564"><ele>109.0</ele><time>2026-04-30T11:58:22.002Z</time></trkpt><trkpt lat="43.175405027519574" lon="-2.6325136262109003"><ele>109.0</ele><time>2026-04-30T11:58:23.002Z</time></trkpt><trkpt lat="43.1753999520861" lon="-2.632656066173582"><ele>109.0</ele><time>2026-04-30T11:58:24.002Z</time></trkpt><trkpt lat="43.17539266581712" lon="-2.6328009018162746"><ele>109.0</ele><time>2026-04-30T11:58:25.002Z</time></trkpt><trkpt lat="43.175385863949614" lon="-2.6329465580344293"><ele>109.0</ele><time>2026-04-30T11:58:26.002Z</time></trkpt><trkpt lat="43.175378879412705" lon="-2.6330931312787054"><ele>109.0</ele><time>2026-04-30T11:58:27.002Z</time></trkpt><trkpt lat="43.17537117404554" lon="-2.633240067494687"><ele>108.80000000000001</ele><time>2026-04-30T11:58:28.002Z</time></trkpt><trkpt lat="43.175364739496615" lon="-2.633381678520561"><ele>108.60000000000001</ele><time>2026-04-30T11:58:29.002Z</time></trkpt><trkpt lat="43.17535929861098" lon="-2.6335138106671305"><ele>108.4</ele><time>2026-04-30T11:58:30.002Z</time></trkpt><trkpt lat="43.17534976944413" lon="-2.6336390063902035"><ele>108.2</ele><time>2026-04-30T11:58:31.002Z</time></trkpt><trkpt lat="43.17534168040856" lon="-2.633765876527676"><ele>108.0</ele><time>2026-04-30T11:58:32.002Z</time></trkpt><trkpt lat="43.17533898810401" lon="-2.633895196749638"><ele>107.60000000000001</ele><time>2026-04-30T11:58:33.002Z</time></trkpt><trkpt lat="43.175338461151846" lon="-2.634023726596519"><ele>107.20000000000002</ele><time>2026-04-30T11:58:34.002Z</time></trkpt><trkpt lat="43.17534777375845" lon="-2.6341473015262507"><ele>106.8</ele><time>2026-04-30T11:58:35.002Z</time></trkpt><trkpt lat="43.175357116749296" lon="-2.634274242972794"><ele>106.4</ele><time>2026-04-30T11:58:36.002Z</time></trkpt><trkpt lat="43.1753426538534" lon="-2.6343994844774583"><ele>106.0</ele><time>2026-04-30T11:58:37.002Z</time></trkpt><trkpt lat="43.175304472948945" lon="-2.6345197076028515"><ele>105.8</ele><time>2026-04-30T11:58:38.002Z</time></trkpt><trkpt lat="43.1752642861678" lon="-2.6346431709234848"><ele>105.6</ele><time>2026-04-30T11:58:39.002Z</time></trkpt><trkpt lat="43.17523633333034" lon="-2.63477439187507"><ele>105.4</ele><time>2026-04-30T11:58:40.002Z</time></trkpt><trkpt lat="43.17521884261037" lon="-2.634910493702145"><ele>105.2</ele><time>2026-04-30T11:58:41.002Z</time></trkpt><trkpt lat="43.175205617729866" lon="-2.6350396830938245"><ele>105.0</ele><time>2026-04-30T11:58:42Z</time></trkpt><trkpt lat="43.17519171329003" lon="-2.6351669511785123"><ele>105.0</ele><time>2026-04-30T11:58:43Z</time></trkpt><trkpt lat="43.17517922036062" lon="-2.6352895864987684"><ele>105.0</ele><time>2026-04-30T11:58:44Z</time></trkpt><trkpt lat="43.175170366177376" lon="-2.6354099221054104"><ele>105.0</ele><time>2026-04-30T11:58:45Z</time></trkpt><trkpt lat="43.175159060840635" lon="-2.6355307380931325"><ele>105.0</ele><time>2026-04-30T11:58:46Z</time></trkpt><trkpt lat="43.17515165291113" lon="-2.635652500558563"><ele>105.0</ele><time>2026-04-30T11:58:47Z</time></trkpt><trkpt lat="43.175144019355145" lon="-2.635769824963634"><ele>105.0</ele><time>2026-04-30T11:58:48Z</time></trkpt><trkpt lat="43.17513926292356" lon="-2.6358871987390633"><ele>105.16666666666667</ele><time>2026-04-30T11:58:49Z</time></trkpt><trkpt lat="43.1751367861103" lon="-2.636006898316176"><ele>105.33333333333334</ele><time>2026-04-30T11:58:50Z</time></trkpt><trkpt lat="43.17515400882135" lon="-2.636121329800251"><ele>105.5</ele><time>2026-04-30T11:58:51Z</time></trkpt><trkpt lat="43.175158300123165" lon="-2.6362414756929797"><ele>105.66666666666667</ele><time>2026-04-30T11:58:52Z</time></trkpt><trkpt lat="43.17516465862742" lon="-2.636365261422138"><ele>105.83333333333334</ele><time>2026-04-30T11:58:53Z</time></trkpt><trkpt lat="43.175170747905184" lon="-2.636483805919961"><ele>106.0</ele><time>2026-04-30T11:58:54Z</time></trkpt><trkpt lat="43.175163318965886" lon="-2.6365952608338032"><ele>106.50000000000001</ele><time>2026-04-30T11:58:55Z</time></trkpt><trkpt lat="43.17517356778302" lon="-2.636703847511026"><ele>107.0</ele><time>2026-04-30T11:58:56Z</time></trkpt><trkpt lat="43.175182126187906" lon="-2.6368114611467193"><ele>107.5</ele><time>2026-04-30T11:58:57Z</time></trkpt><trkpt lat="43.175189212831526" lon="-2.6369201693208315"><ele>108.0</ele><time>2026-04-30T11:58:58Z</time></trkpt><trkpt lat="43.175202551144366" lon="-2.63702456242121"><ele>108.50000000000001</ele><time>2026-04-30T11:58:59Z</time></trkpt><trkpt lat="43.175219242084445" lon="-2.6371272943793778"><ele>109.0</ele><time>2026-04-30T11:59:00Z</time></trkpt><trkpt lat="43.17524389815928" lon="-2.6372280282760876"><ele>109.0</ele><time>2026-04-30T11:59:01Z</time></trkpt><trkpt lat="43.17528063335275" lon="-2.637323107545145"><ele>109.0</ele><time>2026-04-30T11:59:02Z</time></trkpt><trkpt lat="43.17532146015057" lon="-2.6374122469337196"><ele>109.0</ele><time>2026-04-30T11:59:03Z</time></trkpt><trkpt lat="43.17534562556873" lon="-2.6375059060301065"><ele>109.0</ele><time>2026-04-30T11:59:04Z</time></trkpt><trkpt lat="43.17534161830814" lon="-2.637605211019484"><ele>109.0</ele><time>2026-04-30T11:59:05Z</time></trkpt><trkpt lat="43.17532663464521" lon="-2.637709992116561"><ele>109.0</ele><time>2026-04-30T11:59:06Z</time></trkpt><trkpt lat="43.175290787567214" lon="-2.637792960439585"><ele>109.0</ele><time>2026-04-30T11:59:07Z</time></trkpt><trkpt lat="43.17528398604352" lon="-2.6379002025881757"><ele>109.00000000000001</ele><time>2026-04-30T11:59:08Z</time></trkpt><trkpt lat="43.175291442098775" lon="-2.6380005399494335"><ele>109.0</ele><time>2026-04-30T11:59:09Z</time></trkpt><trkpt lat="43.17529394558611" lon="-2.6380974095139145"><ele>109.0</ele><time>2026-04-30T11:59:10Z</time></trkpt><trkpt lat="43.17529685190589" lon="-2.6381968768025783"><ele>109.0</ele><time>2026-04-30T11:59:11Z</time></trkpt><trkpt lat="43.175291463110376" lon="-2.638300648611025"><ele>109.00000000000001</ele><time>2026-04-30T11:59:12Z</time></trkpt><trkpt lat="43.17530079308876" lon="-2.638412295795165"><ele>109.0</ele><time>2026-04-30T11:59:13Z</time></trkpt><trkpt lat="43.1753056783971" lon="-2.638528317111623"><ele>109.0</ele><time>2026-04-30T11:59:14Z</time></trkpt><trkpt lat="43.17531310412671" lon="-2.638646813819734"><ele>109.0</ele><time>2026-04-30T11:59:15Z</time></trkpt><trkpt lat="43.17531909618683" lon="-2.6387681665874134"><ele>109.0</ele><time>2026-04-30T11:59:16Z</time></trkpt><trkpt lat="43.175325796321644" lon="-2.6388914376682733"><ele>109.0</ele><time>2026-04-30T11:59:17Z</time></trkpt><trkpt lat="43.17533174786749" lon="-2.639017881452367"><ele>109.0</ele><time>2026-04-30T11:59:18Z</time></trkpt><trkpt lat="43.1753384403134" lon="-2.639146709653282"><ele>109.0</ele><time>2026-04-30T11:59:19Z</time></trkpt><trkpt lat="43.17534486073662" lon="-2.639278059678855"><ele>109.0</ele><time>2026-04-30T11:59:20Z</time></trkpt><trkpt lat="43.175351799479316" lon="-2.6394087010037035"><ele>109.0</ele><time>2026-04-30T11:59:21Z</time></trkpt><trkpt lat="43.17535661801656" lon="-2.639541470679833"><ele>109.0</ele><time>2026-04-30T11:59:22Z</time></trkpt><trkpt lat="43.175367496016705" lon="-2.6396757480086612"><ele>109.0</ele><time>2026-04-30T11:59:23Z</time></trkpt><trkpt lat="43.17537247384981" lon="-2.639811182636757"><ele>109.0</ele><time>2026-04-30T11:59:24Z</time></trkpt><trkpt lat="43.17538005035757" lon="-2.639944882741728"><ele>109.0</ele><time>2026-04-30T11:59:25.001Z</time></trkpt><trkpt lat="43.17538603889804" lon="-2.640079337856844"><ele>109.0</ele><time>2026-04-30T11:59:26.001Z</time></trkpt><trkpt lat="43.17539516322643" lon="-2.6402154857174103"><ele>109.0</ele><time>2026-04-30T11:59:27.001Z</time></trkpt><trkpt lat="43.175403270425576" lon="-2.6403493338119244"><ele>109.0</ele><time>2026-04-30T11:59:28.001Z</time></trkpt><trkpt lat="43.17541210927378" lon="-2.640483191886943"><ele>108.6</ele><time>2026-04-30T11:59:29.001Z</time></trkpt><trkpt lat="43.17542201927046" lon="-2.640616674819547"><ele>108.2</ele><time>2026-04-30T11:59:30.001Z</time></trkpt><trkpt lat="43.175431544587674" lon="-2.6407479636807034"><ele>107.79999999999998</ele><time>2026-04-30T11:59:31.001Z</time></trkpt><trkpt lat="43.17544462040612" lon="-2.6408804611638534"><ele>107.39999999999999</ele><time>2026-04-30T11:59:32.001Z</time></trkpt><trkpt lat="43.17546082427587" lon="-2.6410140511358295"><ele>107.0</ele><time>2026-04-30T11:59:33.001Z</time></trkpt><trkpt lat="43.17548077315096" lon="-2.641147659135056"><ele>106.6</ele><time>2026-04-30T11:59:34.001Z</time></trkpt><trkpt lat="43.175507479481155" lon="-2.6412799005125835"><ele>106.19999999999999</ele><time>2026-04-30T11:59:35.001Z</time></trkpt><trkpt lat="43.175533454570036" lon="-2.6414132145857048"><ele>105.8</ele><time>2026-04-30T11:59:36.001Z</time></trkpt><trkpt lat="43.17556337242445" lon="-2.6415436467420355"><ele>105.4</ele><time>2026-04-30T11:59:37.001Z</time></trkpt><trkpt lat="43.17559784180527" lon="-2.641676425446243"><ele>105.0</ele><time>2026-04-30T11:59:38.001Z</time></trkpt><trkpt lat="43.17563093029517" lon="-2.6418097365572235"><ele>105.0</ele><time>2026-04-30T11:59:39.001Z</time></trkpt><trkpt lat="43.17566573679883" lon="-2.641944377452822"><ele>105.0</ele><time>2026-04-30T11:59:40.001Z</time></trkpt><trkpt lat="43.175704908342134" lon="-2.6420812922628096"><ele>105.0</ele><time>2026-04-30T11:59:41.001Z</time></trkpt><trkpt lat="43.175747222871095" lon="-2.642212917951407"><ele>105.0</ele><time>2026-04-30T11:59:42.001Z</time></trkpt><trkpt lat="43.175791211257355" lon="-2.642344226005559"><ele>105.0</ele><time>2026-04-30T11:59:43.001Z</time></trkpt><trkpt lat="43.17583664910767" lon="-2.6424755222113054"><ele>104.8</ele><time>2026-04-30T11:59:44.001Z</time></trkpt><trkpt lat="43.17588359474037" lon="-2.6426055577096457"><ele>104.6</ele><time>2026-04-30T11:59:45.001Z</time></trkpt><trkpt lat="43.17593630457654" lon="-2.642732877730426"><ele>104.4</ele><time>2026-04-30T11:59:46.001Z</time></trkpt><trkpt lat="43.17599335514027" lon="-2.6428592907561126"><ele>104.2</ele><time>2026-04-30T11:59:47.001Z</time></trkpt><trkpt lat="43.17605346870383" lon="-2.6429808547156495"><ele>104.0</ele><time>2026-04-30T11:59:48.001Z</time></trkpt><trkpt lat="43.17611458405539" lon="-2.6431062966268732"><ele>104.0</ele><time>2026-04-30T11:59:49.001Z</time></trkpt><trkpt lat="43.176174136130506" lon="-2.643230392470869"><ele>104.0</ele><time>2026-04-30T11:59:50.001Z</time></trkpt><trkpt lat="43.17622968246339" lon="-2.6433554618858097"><ele>104.0</ele><time>2026-04-30T11:59:51.001Z</time></trkpt><trkpt lat="43.17628787194601" lon="-2.643477640095323"><ele>104.0</ele><time>2026-04-30T11:59:52.001Z</time></trkpt><trkpt lat="43.176355483805004" lon="-2.643598103751156"><ele>104.0</ele><time>2026-04-30T11:59:53.001Z</time></trkpt><trkpt lat="43.176418383312765" lon="-2.643719382218726"><ele>104.2</ele><time>2026-04-30T11:59:54.001Z</time></trkpt><trkpt lat="43.176472764733894" lon="-2.64385054581205"><ele>104.4</ele><time>2026-04-30T11:59:55.001Z</time></trkpt><trkpt lat="43.17652635312426" lon="-2.6439901595759863"><ele>104.6</ele><time>2026-04-30T11:59:56.001Z</time></trkpt><trkpt lat="43.176582862319" lon="-2.6441141094621154"><ele>104.8</ele><time>2026-04-30T11:59:57.001Z</time></trkpt><trkpt lat="43.17663682023465" lon="-2.644242736662395"><ele>105.0</ele><time>2026-04-30T11:59:58.001Z</time></trkpt><trkpt lat="43.17669728632003" lon="-2.644367988695711"><ele>104.4</ele><time>2026-04-30T11:59:59.001Z</time></trkpt><trkpt lat="43.17675977130661" lon="-2.6444897577132402"><ele>103.8</ele><time>2026-04-30T12:00:00.001Z</time></trkpt><trkpt lat="43.17682281455792" lon="-2.644613401557714"><ele>103.19999999999999</ele><time>2026-04-30T12:00:01.001Z</time></trkpt><trkpt lat="43.17688382532774" lon="-2.6447385196285014"><ele>102.6</ele><time>2026-04-30T12:00:02.001Z</time></trkpt><trkpt lat="43.17694910066715" lon="-2.644859604483207"><ele>102.0</ele><time>2026-04-30T12:00:03.001Z</time></trkpt><trkpt lat="43.17701255954026" lon="-2.6449784809413157"><ele>102.0</ele><time>2026-04-30T12:00:04.001Z</time></trkpt><trkpt lat="43.17707978135057" lon="-2.645098280514029"><ele>102.0</ele><time>2026-04-30T12:00:05.001Z</time></trkpt><trkpt lat="43.177145659490606" lon="-2.645217655733302"><ele>102.0</ele><time>2026-04-30T12:00:06.001Z</time></trkpt><trkpt lat="43.177213315891784" lon="-2.64533476068277"><ele>102.0</ele><time>2026-04-30T12:00:07.001Z</time></trkpt><trkpt lat="43.17727838890324" lon="-2.6454548595733223"><ele>102.0</ele><time>2026-04-30T12:00:08.001Z</time></trkpt><trkpt lat="43.177340918205225" lon="-2.6455758130753173"><ele>102.19999999999999</ele><time>2026-04-30T12:00:09.002Z</time></trkpt><trkpt lat="43.17740433226423" lon="-2.645698031411108"><ele>102.4</ele><time>2026-04-30T12:00:10.002Z</time></trkpt><trkpt lat="43.17746948636069" lon="-2.6458170285326696"><ele>102.6</ele><time>2026-04-30T12:00:11.002Z</time></trkpt><trkpt lat="43.17753466296587" lon="-2.6459365823802257"><ele>102.80000000000001</ele><time>2026-04-30T12:00:12.002Z</time></trkpt><trkpt lat="43.17759928483353" lon="-2.646055721155701"><ele>103.0</ele><time>2026-04-30T12:00:13.002Z</time></trkpt><trkpt lat="43.17766237426689" lon="-2.6461735798786856"><ele>103.0</ele><time>2026-04-30T12:00:14.002Z</time></trkpt><trkpt lat="43.17772671380267" lon="-2.646294043323157"><ele>103.0</ele><time>2026-04-30T12:00:15.002Z</time></trkpt><trkpt lat="43.17778975767441" lon="-2.646412044039348"><ele>103.0</ele><time>2026-04-30T12:00:16.002Z</time></trkpt><trkpt lat="43.17785356219772" lon="-2.646529311576121"><ele>103.0</ele><time>2026-04-30T12:00:17.002Z</time></trkpt><trkpt lat="43.17791877907086" lon="-2.646645043256953"><ele>103.0</ele><time>2026-04-30T12:00:18.002Z</time></trkpt><trkpt lat="43.17798167053681" lon="-2.6467628564681425"><ele>103.0</ele><time>2026-04-30T12:00:19.002Z</time></trkpt><trkpt lat="43.17804282175593" lon="-2.6468804832254658"><ele>103.0</ele><time>2026-04-30T12:00:20.002Z</time></trkpt><trkpt lat="43.17810461749718" lon="-2.6469998354556035"><ele>103.0</ele><time>2026-04-30T12:00:21.002Z</time></trkpt><trkpt lat="43.17816601931451" lon="-2.647117454205717"><ele>103.0</ele><time>2026-04-30T12:00:22.002Z</time></trkpt><trkpt lat="43.17822874396417" lon="-2.6472358950912493"><ele>103.0</ele><time>2026-04-30T12:00:23.002Z</time></trkpt><trkpt lat="43.1782931832339" lon="-2.6473555435031875"><ele>102.60000000000001</ele><time>2026-04-30T12:00:24.002Z</time></trkpt><trkpt lat="43.17835681033984" lon="-2.647477150683145"><ele>102.2</ele><time>2026-04-30T12:00:25.002Z</time></trkpt><trkpt lat="43.17842002501821" lon="-2.647599323206917"><ele>101.8</ele><time>2026-04-30T12:00:26.002Z</time></trkpt><trkpt lat="43.178483690874" lon="-2.647721515990156"><ele>101.4</ele><time>2026-04-30T12:00:27.002Z</time></trkpt><trkpt lat="43.17854788615339" lon="-2.6478441805628834"><ele>101.0</ele><time>2026-04-30T12:00:28.002Z</time></trkpt><trkpt lat="43.17861295842732" lon="-2.6479646990109114"><ele>100.6</ele><time>2026-04-30T12:00:29.002Z</time></trkpt><trkpt lat="43.17867908961903" lon="-2.6480824953153608"><ele>100.19999999999999</ele><time>2026-04-30T12:00:30.002Z</time></trkpt><trkpt lat="43.178745258606654" lon="-2.6481996005482773"><ele>99.80000000000001</ele><time>2026-04-30T12:00:31.002Z</time></trkpt><trkpt lat="43.178810685800194" lon="-2.6483193163200083"><ele>99.4</ele><time>2026-04-30T12:00:32.002Z</time></trkpt><trkpt lat="43.17887514599441" lon="-2.6484379858233322"><ele>99.0</ele><time>2026-04-30T12:00:33.002Z</time></trkpt><trkpt lat="43.178940919564525" lon="-2.6485565047819684"><ele>99.0</ele><time>2026-04-30T12:00:34.002Z</time></trkpt><trkpt lat="43.17900736367948" lon="-2.6486725937426554"><ele>99.0</ele><time>2026-04-30T12:00:35.002Z</time></trkpt><trkpt lat="43.17907294216507" lon="-2.6487869706086755"><ele>99.0</ele><time>2026-04-30T12:00:36.002Z</time></trkpt><trkpt lat="43.17913700779534" lon="-2.6489022121936103"><ele>99.0</ele><time>2026-04-30T12:00:37.002Z</time></trkpt><trkpt lat="43.179201131110275" lon="-2.6490159532946262"><ele>99.0</ele><time>2026-04-30T12:00:38.002Z</time></trkpt><trkpt lat="43.179263042530195" lon="-2.649128551111043"><ele>99.0</ele><time>2026-04-30T12:00:39.002Z</time></trkpt><trkpt lat="43.17932349501341" lon="-2.6492415707430617"><ele>99.0</ele><time>2026-04-30T12:00:40.002Z</time></trkpt><trkpt lat="43.17938003573771" lon="-2.6493558706247176"><ele>99.0</ele><time>2026-04-30T12:00:41.002Z</time></trkpt><trkpt lat="43.17943507547819" lon="-2.649472303259192"><ele>99.0</ele><time>2026-04-30T12:00:42.002Z</time></trkpt><trkpt lat="43.17948731834483" lon="-2.649589453676399"><ele>99.0</ele><time>2026-04-30T12:00:43.002Z</time></trkpt><trkpt lat="43.17953858232996" lon="-2.6497083351526993"><ele>99.0</ele><time>2026-04-30T12:00:44.002Z</time></trkpt><trkpt lat="43.17958715095031" lon="-2.649829719102284"><ele>99.0</ele><time>2026-04-30T12:00:45.002Z</time></trkpt><trkpt lat="43.17963270805132" lon="-2.6499501108666115"><ele>99.0</ele><time>2026-04-30T12:00:46.002Z</time></trkpt><trkpt lat="43.17967717251693" lon="-2.650073222021434"><ele>99.0</ele><time>2026-04-30T12:00:47.002Z</time></trkpt><trkpt lat="43.179718488764934" lon="-2.650197808648139"><ele>99.0</ele><time>2026-04-30T12:00:48Z</time></trkpt><trkpt lat="43.17976141465149" lon="-2.650319971712122"><ele>98.80000000000001</ele><time>2026-04-30T12:00:49Z</time></trkpt><trkpt lat="43.17980218120967" lon="-2.6504441992865466"><ele>98.60000000000001</ele><time>2026-04-30T12:00:50Z</time></trkpt><trkpt lat="43.17984211044441" lon="-2.6505671991980972"><ele>98.4</ele><time>2026-04-30T12:00:51Z</time></trkpt><trkpt lat="43.1798830794334" lon="-2.650690897749468"><ele>98.2</ele><time>2026-04-30T12:00:52Z</time></trkpt><trkpt lat="43.179923750694925" lon="-2.6508175247877013"><ele>98.0</ele><time>2026-04-30T12:00:53Z</time></trkpt><trkpt lat="43.1799652332117" lon="-2.6509449198931416"><ele>99.60000000000001</ele><time>2026-04-30T12:00:54Z</time></trkpt><trkpt lat="43.18000660014456" lon="-2.651070050065034"><ele>101.2</ele><time>2026-04-30T12:00:55Z</time></trkpt><trkpt lat="43.180050537166" lon="-2.6511968609719427"><ele>102.8</ele><time>2026-04-30T12:00:56Z</time></trkpt><trkpt lat="43.18009246511113" lon="-2.6513240413030292"><ele>104.4</ele><time>2026-04-30T12:00:57Z</time></trkpt><trkpt lat="43.180135502088866" lon="-2.6514536143944336"><ele>106.0</ele><time>2026-04-30T12:00:58Z</time></trkpt><trkpt lat="43.18017456581792" lon="-2.651587928831152"><ele>106.0</ele><time>2026-04-30T12:00:59Z</time></trkpt><trkpt lat="43.18021675775353" lon="-2.6517258348553945"><ele>106.0</ele><time>2026-04-30T12:01:00Z</time></trkpt><trkpt lat="43.18025790605028" lon="-2.651862934114899"><ele>106.0</ele><time>2026-04-30T12:01:01Z</time></trkpt><trkpt lat="43.180299978074984" lon="-2.65200082392654"><ele>106.0</ele><time>2026-04-30T12:01:02Z</time></trkpt><trkpt lat="43.18034238942634" lon="-2.652140131075505"><ele>106.0</ele><time>2026-04-30T12:01:03Z</time></trkpt><trkpt lat="43.18038372553695" lon="-2.652280859149855"><ele>106.4</ele><time>2026-04-30T12:01:04Z</time></trkpt><trkpt lat="43.18042579553523" lon="-2.6524221979687126"><ele>106.8</ele><time>2026-04-30T12:01:05Z</time></trkpt><trkpt lat="43.18046509288483" lon="-2.6525641079831375"><ele>107.20000000000002</ele><time>2026-04-30T12:01:06Z</time></trkpt><trkpt lat="43.18050584444541" lon="-2.6527058737782307"><ele>107.60000000000001</ele><time>2026-04-30T12:01:07Z</time></trkpt><trkpt lat="43.18054457867736" lon="-2.6528501328888994"><ele>108.0</ele><time>2026-04-30T12:01:08Z</time></trkpt><trkpt lat="43.18058356623644" lon="-2.652996101408198"><ele>107.60000000000001</ele><time>2026-04-30T12:01:09Z</time></trkpt><trkpt lat="43.1806252455415" lon="-2.6531373399141183"><ele>107.20000000000002</ele><time>2026-04-30T12:01:10Z</time></trkpt><trkpt lat="43.180666348041676" lon="-2.653277131029415"><ele>106.8</ele><time>2026-04-30T12:01:11Z</time></trkpt><trkpt lat="43.18070598614227" lon="-2.653417552704317"><ele>106.4</ele><time>2026-04-30T12:01:12Z</time></trkpt><trkpt lat="43.180744724461796" lon="-2.6535565697100085"><ele>106.0</ele><time>2026-04-30T12:01:13Z</time></trkpt><trkpt lat="43.18078782439318" lon="-2.653695827074379"><ele>105.8</ele><time>2026-04-30T12:01:14Z</time></trkpt><trkpt lat="43.18082841803778" lon="-2.6538363072402804"><ele>105.6</ele><time>2026-04-30T12:01:15Z</time></trkpt><trkpt lat="43.18086679188569" lon="-2.653977241494395"><ele>105.4</ele><time>2026-04-30T12:01:16Z</time></trkpt><trkpt lat="43.18090723543472" lon="-2.654116637389807"><ele>105.2</ele><time>2026-04-30T12:01:17Z</time></trkpt><trkpt lat="43.18094644332204" lon="-2.6542588622029206"><ele>105.0</ele><time>2026-04-30T12:01:18Z</time></trkpt><trkpt lat="43.18098553280251" lon="-2.6543985447135485"><ele>105.4</ele><time>2026-04-30T12:01:19Z</time></trkpt><trkpt lat="43.18102736037956" lon="-2.654535905921031"><ele>105.8</ele><time>2026-04-30T12:01:20Z</time></trkpt><trkpt lat="43.18106767679841" lon="-2.6546735451914536"><ele>106.19999999999999</ele><time>2026-04-30T12:01:21Z</time></trkpt><trkpt lat="43.1811078994456" lon="-2.6548133324968664"><ele>106.6</ele><time>2026-04-30T12:01:22Z</time></trkpt><trkpt lat="43.1811473435244" lon="-2.654950483297141"><ele>107.0</ele><time>2026-04-30T12:01:23Z</time></trkpt><trkpt lat="43.18118913357406" lon="-2.6550874473962187"><ele>107.0</ele><time>2026-04-30T12:01:24Z</time></trkpt><trkpt lat="43.181228102284386" lon="-2.6552242559649977"><ele>106.99999999999999</ele><time>2026-04-30T12:01:25Z</time></trkpt><trkpt lat="43.18126670793771" lon="-2.6553595984592375"><ele>106.99999999999999</ele><time>2026-04-30T12:01:26Z</time></trkpt><trkpt lat="43.18130628857652" lon="-2.655494507228984"><ele>107.0</ele><time>2026-04-30T12:01:27Z</time></trkpt><trkpt lat="43.18134645407962" lon="-2.6556271775912395"><ele>107.0</ele><time>2026-04-30T12:01:28.001Z</time></trkpt><trkpt lat="43.18138726590666" lon="-2.655760441465741"><ele>106.19999999999999</ele><time>2026-04-30T12:01:29.001Z</time></trkpt><trkpt lat="43.18142172740763" lon="-2.655899617670842"><ele>105.39999999999999</ele><time>2026-04-30T12:01:30.001Z</time></trkpt><trkpt lat="43.181462020386924" lon="-2.656035202397701"><ele>104.6</ele><time>2026-04-30T12:01:31.001Z</time></trkpt><trkpt lat="43.181504412218835" lon="-2.656173484582814"><ele>103.80000000000001</ele><time>2026-04-30T12:01:32.001Z</time></trkpt><trkpt lat="43.18154398448995" lon="-2.656312073321263"><ele>103.0</ele><time>2026-04-30T12:01:33.001Z</time></trkpt><trkpt lat="43.181583588390616" lon="-2.6564494634374363"><ele>102.80000000000001</ele><time>2026-04-30T12:01:34.001Z</time></trkpt><trkpt lat="43.181623411322875" lon="-2.6565875279268005"><ele>102.6</ele><time>2026-04-30T12:01:35.001Z</time></trkpt><trkpt lat="43.18166315065384" lon="-2.6567245073192023"><ele>102.4</ele><time>2026-04-30T12:01:36.001Z</time></trkpt><trkpt lat="43.18170185550862" lon="-2.656864838148851"><ele>102.19999999999999</ele><time>2026-04-30T12:01:37.001Z</time></trkpt><trkpt lat="43.18174275371606" lon="-2.6570028074190675"><ele>102.0</ele><time>2026-04-30T12:01:38.001Z</time></trkpt><trkpt lat="43.181783038136395" lon="-2.657139793274799"><ele>102.0</ele><time>2026-04-30T12:01:39.001Z</time></trkpt><trkpt lat="43.18182291061963" lon="-2.6572795479555635"><ele>102.0</ele><time>2026-04-30T12:01:40.001Z</time></trkpt><trkpt lat="43.181862950465714" lon="-2.6574194841605348"><ele>102.0</ele><time>2026-04-30T12:01:41.001Z</time></trkpt><trkpt lat="43.18190522260975" lon="-2.657557570015055"><ele>102.0</ele><time>2026-04-30T12:01:42.001Z</time></trkpt><trkpt lat="43.18194580782259" lon="-2.6576959809107232"><ele>102.0</ele><time>2026-04-30T12:01:43.001Z</time></trkpt><trkpt lat="43.181986728315955" lon="-2.6578326577228975"><ele>101.8</ele><time>2026-04-30T12:01:44.001Z</time></trkpt><trkpt lat="43.18202684533444" lon="-2.6579679331405623"><ele>101.6</ele><time>2026-04-30T12:01:45.001Z</time></trkpt><trkpt lat="43.182066582780706" lon="-2.6581020520449896"><ele>101.39999999999999</ele><time>2026-04-30T12:01:46.001Z</time></trkpt><trkpt lat="43.18210812282512" lon="-2.658237115004612"><ele>101.19999999999999</ele><time>2026-04-30T12:01:47.001Z</time></trkpt><trkpt lat="43.182150782362115" lon="-2.658370140296178"><ele>101.0</ele><time>2026-04-30T12:01:48.001Z</time></trkpt><trkpt lat="43.182192619726024" lon="-2.658506469652643"><ele>101.0</ele><time>2026-04-30T12:01:49.001Z</time></trkpt><trkpt lat="43.18223212051537" lon="-2.6586434485635086"><ele>101.0</ele><time>2026-04-30T12:01:50.001Z</time></trkpt><trkpt lat="43.18227154910383" lon="-2.6587789500864214"><ele>101.0</ele><time>2026-04-30T12:01:51.001Z</time></trkpt><trkpt lat="43.18231108731923" lon="-2.6589165080728594"><ele>101.0</ele><time>2026-04-30T12:01:52.001Z</time></trkpt><trkpt lat="43.182349884519915" lon="-2.6590554945883658"><ele>101.0</ele><time>2026-04-30T12:01:53.001Z</time></trkpt><trkpt lat="43.18239021912417" lon="-2.6591948407052723"><ele>101.0</ele><time>2026-04-30T12:01:54.001Z</time></trkpt><trkpt lat="43.182432112008286" lon="-2.659332978243925"><ele>101.0</ele><time>2026-04-30T12:01:55.001Z</time></trkpt><trkpt lat="43.18247437909475" lon="-2.659472117363519"><ele>101.0</ele><time>2026-04-30T12:01:56.001Z</time></trkpt><trkpt lat="43.18251597956571" lon="-2.6596130182639564"><ele>101.0</ele><time>2026-04-30T12:01:57.001Z</time></trkpt><trkpt lat="43.18255837228" lon="-2.6597568536507756"><ele>101.0</ele><time>2026-04-30T12:01:58.001Z</time></trkpt><trkpt lat="43.182600604628654" lon="-2.6598996462803415"><ele>101.0</ele><time>2026-04-30T12:01:59.001Z</time></trkpt><trkpt lat="43.18264450880311" lon="-2.660042380000151"><ele>101.0</ele><time>2026-04-30T12:02:00.001Z</time></trkpt><trkpt lat="43.18268753733638" lon="-2.6601864623444373"><ele>101.0</ele><time>2026-04-30T12:02:01.001Z</time></trkpt><trkpt lat="43.18272961133578" lon="-2.6603296470358924"><ele>101.0</ele><time>2026-04-30T12:02:02.001Z</time></trkpt><trkpt lat="43.18277078291985" lon="-2.6604729899794877"><ele>100.6</ele><time>2026-04-30T12:02:03.001Z</time></trkpt><trkpt lat="43.182810492048716" lon="-2.6606133404456727"><ele>100.19999999999999</ele><time>2026-04-30T12:02:04.001Z</time></trkpt><trkpt lat="43.18285161225881" lon="-2.6607494367520714"><ele>99.80000000000001</ele><time>2026-04-30T12:02:05.001Z</time></trkpt><trkpt lat="43.18289902965931" lon="-2.6608978493004867"><ele>99.4</ele><time>2026-04-30T12:02:06.001Z</time></trkpt><trkpt lat="43.18293923465226" lon="-2.6610380983074164"><ele>99.0</ele><time>2026-04-30T12:02:07.001Z</time></trkpt><trkpt lat="43.18297827775055" lon="-2.6611779547405896"><ele>99.0</ele><time>2026-04-30T12:02:08.001Z</time></trkpt><trkpt lat="43.18301625470227" lon="-2.661314774649852"><ele>99.0</ele><time>2026-04-30T12:02:09.001Z</time></trkpt><trkpt lat="43.1830563914334" lon="-2.661448796834907"><ele>99.0</ele><time>2026-04-30T12:02:10.001Z</time></trkpt><trkpt lat="43.18309410034928" lon="-2.6615843142792666"><ele>99.0</ele><time>2026-04-30T12:02:11.002Z</time></trkpt><trkpt lat="43.18313287465633" lon="-2.661716708096347"><ele>99.0</ele><time>2026-04-30T12:02:12.002Z</time></trkpt><trkpt lat="43.18317252191121" lon="-2.661846513514201"><ele>99.2</ele><time>2026-04-30T12:02:13.002Z</time></trkpt><trkpt lat="43.18321216056437" lon="-2.6619763113638664"><ele>99.4</ele><time>2026-04-30T12:02:14.002Z</time></trkpt><trkpt lat="43.18325014538976" lon="-2.662104836301109"><ele>99.6</ele><time>2026-04-30T12:02:15.002Z</time></trkpt><trkpt lat="43.18328869084874" lon="-2.6622342631015736"><ele>99.8</ele><time>2026-04-30T12:02:16.002Z</time></trkpt><trkpt lat="43.18332612319296" lon="-2.6623616778571537"><ele>100.0</ele><time>2026-04-30T12:02:17.002Z</time></trkpt><trkpt lat="43.1833637936132" lon="-2.6624901783608075"><ele>100.0</ele><time>2026-04-30T12:02:18.002Z</time></trkpt><trkpt lat="43.18340056709601" lon="-2.6626167781147205"><ele>100.0</ele><time>2026-04-30T12:02:19.002Z</time></trkpt><trkpt lat="43.18343933434112" lon="-2.662742795337102"><ele>100.0</ele><time>2026-04-30T12:02:20.002Z</time></trkpt><trkpt lat="43.18347567149909" lon="-2.662871969792261"><ele>100.0</ele><time>2026-04-30T12:02:21.002Z</time></trkpt><trkpt lat="43.183512766132395" lon="-2.6630009454104737"><ele>100.0</ele><time>2026-04-30T12:02:22.002Z</time></trkpt><trkpt lat="43.183552248685565" lon="-2.663130856373741"><ele>99.6</ele><time>2026-04-30T12:02:23.002Z</time></trkpt><trkpt lat="43.18359027110305" lon="-2.6632635461461027"><ele>99.2</ele><time>2026-04-30T12:02:24.002Z</time></trkpt><trkpt lat="43.18362821845272" lon="-2.663395374559459"><ele>98.80000000000001</ele><time>2026-04-30T12:02:25.002Z</time></trkpt><trkpt lat="43.183667257677655" lon="-2.663528179877384"><ele>98.4</ele><time>2026-04-30T12:02:26.002Z</time></trkpt><trkpt lat="43.1837050881137" lon="-2.6636652999930814"><ele>98.0</ele><time>2026-04-30T12:02:27.002Z</time></trkpt><trkpt lat="43.183745408156696" lon="-2.6637994056256447"><ele>97.60000000000001</ele><time>2026-04-30T12:02:28.002Z</time></trkpt><trkpt lat="43.18378611334655" lon="-2.6639352052257386"><ele>97.2</ele><time>2026-04-30T12:02:29.002Z</time></trkpt><trkpt lat="43.18382297080863" lon="-2.664074419856332"><ele>96.8</ele><time>2026-04-30T12:02:30.002Z</time></trkpt><trkpt lat="43.183864074097364" lon="-2.664211738115514"><ele>96.4</ele><time>2026-04-30T12:02:31.002Z</time></trkpt><trkpt lat="43.18390467476094" lon="-2.664350628724923"><ele>96.0</ele><time>2026-04-30T12:02:32.002Z</time></trkpt><trkpt lat="43.183947989593854" lon="-2.6644872621898923"><ele>96.0</ele><time>2026-04-30T12:02:33.002Z</time></trkpt><trkpt lat="43.18398807662981" lon="-2.664625804900513"><ele>96.0</ele><time>2026-04-30T12:02:34.002Z</time></trkpt><trkpt lat="43.18402850220165" lon="-2.6647650447356317"><ele>96.0</ele><time>2026-04-30T12:02:35.002Z</time></trkpt><trkpt lat="43.18406908747182" lon="-2.6649025955898105"><ele>96.0</ele><time>2026-04-30T12:02:36.002Z</time></trkpt><trkpt lat="43.18410965456363" lon="-2.665038896700484"><ele>96.0</ele><time>2026-04-30T12:02:37.002Z</time></trkpt><trkpt lat="43.184151224263516" lon="-2.665175508991733"><ele>95.8</ele><time>2026-04-30T12:02:38.002Z</time></trkpt><trkpt lat="43.18419349262329" lon="-2.6653129137049327"><ele>95.6</ele><time>2026-04-30T12:02:39.002Z</time></trkpt><trkpt lat="43.18423395348852" lon="-2.6654512231126604"><ele>95.4</ele><time>2026-04-30T12:02:40.002Z</time></trkpt><trkpt lat="43.18427534288187" lon="-2.6655881563773924"><ele>95.2</ele><time>2026-04-30T12:02:41.002Z</time></trkpt><trkpt lat="43.184315201851554" lon="-2.665724586000474"><ele>95.0</ele><time>2026-04-30T12:02:42.002Z</time></trkpt><trkpt lat="43.18435549112257" lon="-2.6658603859659067"><ele>95.0</ele><time>2026-04-30T12:02:43.002Z</time></trkpt><trkpt lat="43.18439572052987" lon="-2.6659967216187854"><ele>95.0</ele><time>2026-04-30T12:02:44.002Z</time></trkpt><trkpt lat="43.18443746000181" lon="-2.6661352202224817"><ele>95.0</ele><time>2026-04-30T12:02:45.002Z</time></trkpt><trkpt lat="43.18447883261618" lon="-2.666270974593152"><ele>95.0</ele><time>2026-04-30T12:02:46.002Z</time></trkpt><trkpt lat="43.18451902307418" lon="-2.6664067385118395"><ele>95.0</ele><time>2026-04-30T12:02:47.002Z</time></trkpt><trkpt lat="43.184560131002804" lon="-2.6665425090397035"><ele>95.0</ele><time>2026-04-30T12:02:48.002Z</time></trkpt><trkpt lat="43.1846025421903" lon="-2.6666781147462126"><ele>95.0</ele><time>2026-04-30T12:02:49.002Z</time></trkpt><trkpt lat="43.18464374815763" lon="-2.666811782672801"><ele>95.0</ele><time>2026-04-30T12:02:50.002Z</time></trkpt><trkpt lat="43.1846838775265" lon="-2.6669467056159677"><ele>95.0</ele><time>2026-04-30T12:02:51.002Z</time></trkpt><trkpt lat="43.18472357941142" lon="-2.6670820803205904"><ele>95.0</ele><time>2026-04-30T12:02:52.002Z</time></trkpt><trkpt lat="43.18476380966428" lon="-2.6672159233951405"><ele>95.0</ele><time>2026-04-30T12:02:53.002Z</time></trkpt><trkpt lat="43.18480355946428" lon="-2.667348378147227"><ele>95.0</ele><time>2026-04-30T12:02:54Z</time></trkpt><trkpt lat="43.18484466728873" lon="-2.667480712416648"><ele>95.0</ele><time>2026-04-30T12:02:55Z</time></trkpt><trkpt lat="43.184884918972365" lon="-2.667615222173415"><ele>95.0</ele><time>2026-04-30T12:02:56Z</time></trkpt><trkpt lat="43.18492580213742" lon="-2.667750405454899"><ele>95.0</ele><time>2026-04-30T12:02:57Z</time></trkpt><trkpt lat="43.18496653407988" lon="-2.667885308646227"><ele>94.2</ele><time>2026-04-30T12:02:58Z</time></trkpt><trkpt lat="43.185007568291844" lon="-2.668020563186884"><ele>93.4</ele><time>2026-04-30T12:02:59Z</time></trkpt><trkpt lat="43.185048177000695" lon="-2.6681527937267866"><ele>92.6</ele><time>2026-04-30T12:03:00Z</time></trkpt><trkpt lat="43.185088924549945" lon="-2.668287793571288"><ele>91.8</ele><time>2026-04-30T12:03:01Z</time></trkpt><trkpt lat="43.185128586557624" lon="-2.668422289993194"><ele>91.0</ele><time>2026-04-30T12:03:02Z</time></trkpt><trkpt lat="43.185168452482124" lon="-2.668558154707597"><ele>91.0</ele><time>2026-04-30T12:03:03Z</time></trkpt><trkpt lat="43.18520741508018" lon="-2.6686960741238606"><ele>91.0</ele><time>2026-04-30T12:03:04Z</time></trkpt><trkpt lat="43.185247038879595" lon="-2.66883026402469"><ele>91.0</ele><time>2026-04-30T12:03:05Z</time></trkpt><trkpt lat="43.185287207114996" lon="-2.668968146947055"><ele>91.0</ele><time>2026-04-30T12:03:06Z</time></trkpt><trkpt lat="43.185327453387245" lon="-2.6691044477975376"><ele>91.0</ele><time>2026-04-30T12:03:07Z</time></trkpt><trkpt lat="43.185368641764015" lon="-2.669239743158404"><ele>91.0</ele><time>2026-04-30T12:03:08Z</time></trkpt><trkpt lat="43.18540806140526" lon="-2.6693729413983056"><ele>91.0</ele><time>2026-04-30T12:03:09Z</time></trkpt><trkpt lat="43.18544834094176" lon="-2.669505833195961"><ele>91.0</ele><time>2026-04-30T12:03:10Z</time></trkpt><trkpt lat="43.18548776888014" lon="-2.669637985427511"><ele>91.0</ele><time>2026-04-30T12:03:11Z</time></trkpt><trkpt lat="43.18552969835668" lon="-2.6697713802009755"><ele>91.0</ele><time>2026-04-30T12:03:12Z</time></trkpt><trkpt lat="43.18557177122738" lon="-2.66990546972622"><ele>91.6</ele><time>2026-04-30T12:03:13Z</time></trkpt><trkpt lat="43.185610922219865" lon="-2.6700398231237665"><ele>92.19999999999999</ele><time>2026-04-30T12:03:14Z</time></trkpt><trkpt lat="43.1856494019457" lon="-2.6701720752496043"><ele>92.80000000000001</ele><time>2026-04-30T12:03:15Z</time></trkpt><trkpt lat="43.1856883228374" lon="-2.670304430117381"><ele>93.4</ele><time>2026-04-30T12:03:16Z</time></trkpt><trkpt lat="43.185726219491215" lon="-2.6704378654735446"><ele>94.0</ele><time>2026-04-30T12:03:17Z</time></trkpt><trkpt lat="43.185764421221435" lon="-2.6705715263805083"><ele>94.0</ele><time>2026-04-30T12:03:18Z</time></trkpt><trkpt lat="43.185804379831566" lon="-2.6707036895855274"><ele>94.0</ele><time>2026-04-30T12:03:19Z</time></trkpt><trkpt lat="43.18584591215578" lon="-2.6708388456211964"><ele>94.0</ele><time>2026-04-30T12:03:20Z</time></trkpt><trkpt lat="43.18588769850699" lon="-2.6709716143296247"><ele>94.0</ele><time>2026-04-30T12:03:21Z</time></trkpt><trkpt lat="43.18592607594183" lon="-2.6711051803907444"><ele>94.0</ele><time>2026-04-30T12:03:22Z</time></trkpt><trkpt lat="43.18596349095509" lon="-2.6712373333813706"><ele>93.4</ele><time>2026-04-30T12:03:23Z</time></trkpt><trkpt lat="43.186002132850405" lon="-2.671371054159827"><ele>92.80000000000001</ele><time>2026-04-30T12:03:24Z</time></trkpt><trkpt lat="43.18604284052669" lon="-2.671502093011826"><ele>92.19999999999999</ele><time>2026-04-30T12:03:25Z</time></trkpt><trkpt lat="43.18608520762639" lon="-2.671633492707048"><ele>91.6</ele><time>2026-04-30T12:03:26Z</time></trkpt><trkpt lat="43.18612905760495" lon="-2.671762341205228"><ele>91.0</ele><time>2026-04-30T12:03:27Z</time></trkpt><trkpt lat="43.18617174732847" lon="-2.6718930843752333"><ele>91.19999999999999</ele><time>2026-04-30T12:03:28Z</time></trkpt><trkpt lat="43.186209595256855" lon="-2.6720209827643804"><ele>91.39999999999999</ele><time>2026-04-30T12:03:29Z</time></trkpt><trkpt lat="43.18624383837084" lon="-2.672143835463817"><ele>91.6</ele><time>2026-04-30T12:03:30Z</time></trkpt><trkpt lat="43.18627334456837" lon="-2.6722732290346793"><ele>91.8</ele><time>2026-04-30T12:03:31.001Z</time></trkpt><trkpt lat="43.186302887650506" lon="-2.672397723768956"><ele>92.0</ele><time>2026-04-30T12:03:32.001Z</time></trkpt><trkpt lat="43.186332936003915" lon="-2.6725232822850202"><ele>92.0</ele><time>2026-04-30T12:03:33.001Z</time></trkpt><trkpt lat="43.186359434265924" lon="-2.6726504786265615"><ele>92.0</ele><time>2026-04-30T12:03:34.001Z</time></trkpt><trkpt lat="43.186381653475415" lon="-2.6727761738357194"><ele>92.0</ele><time>2026-04-30T12:03:35.001Z</time></trkpt><trkpt lat="43.18640282768366" lon="-2.6728998723714756"><ele>92.0</ele><time>2026-04-30T12:03:36.001Z</time></trkpt><trkpt lat="43.186422710675956" lon="-2.6730240507592815"><ele>92.0</ele><time>2026-04-30T12:03:37.001Z</time></trkpt><trkpt lat="43.18644183163565" lon="-2.673147386574256"><ele>92.0</ele><time>2026-04-30T12:03:38.001Z</time></trkpt><trkpt lat="43.18646609157256" lon="-2.6732657945064853"><ele>92.0</ele><time>2026-04-30T12:03:39.001Z</time></trkpt><trkpt lat="43.186510170896405" lon="-2.673373356381246"><ele>92.0</ele><time>2026-04-30T12:03:40.001Z</time></trkpt><trkpt lat="43.186565726545496" lon="-2.67347158026696"><ele>92.0</ele><time>2026-04-30T12:03:41.001Z</time></trkpt><trkpt lat="43.1866177611669" lon="-2.6735731126246622"><ele>92.0</ele><time>2026-04-30T12:03:42.001Z</time></trkpt><trkpt lat="43.18664601842759" lon="-2.6736863680059195"><ele>92.0</ele><time>2026-04-30T12:03:43.001Z</time></trkpt><trkpt lat="43.1866452829372" lon="-2.6737964161945387"><ele>93.0</ele><time>2026-04-30T12:03:44.001Z</time></trkpt><trkpt lat="43.1866321876068" lon="-2.673914865231035"><ele>94.0</ele><time>2026-04-30T12:03:45.001Z</time></trkpt><trkpt lat="43.186598720520664" lon="-2.674008033438537"><ele>95.0</ele><time>2026-04-30T12:03:46.001Z</time></trkpt><trkpt lat="43.18662670589338" lon="-2.6741554092136592"><ele>96.0</ele><time>2026-04-30T12:03:47.001Z</time></trkpt><trkpt lat="43.18663792918139" lon="-2.6742758339182995"><ele>97.0</ele><time>2026-04-30T12:03:48.001Z</time></trkpt><trkpt lat="43.186667557790855" lon="-2.6743965191667987"><ele>97.0</ele><time>2026-04-30T12:03:49.001Z</time></trkpt><trkpt lat="43.186695606492904" lon="-2.674518184553855"><ele>97.0</ele><time>2026-04-30T12:03:50.001Z</time></trkpt><trkpt lat="43.18671978509815" lon="-2.674641095885226"><ele>97.0</ele><time>2026-04-30T12:03:51.001Z</time></trkpt><trkpt lat="43.18674862844163" lon="-2.674771724386633"><ele>97.0</ele><time>2026-04-30T12:03:52.001Z</time></trkpt><trkpt lat="43.186806320979294" lon="-2.6749314432322584"><ele>97.0</ele><time>2026-04-30T12:03:53.001Z</time></trkpt><trkpt lat="43.18688456477143" lon="-2.6750810421423052"><ele>97.0</ele><time>2026-04-30T12:03:54.001Z</time></trkpt><trkpt lat="43.18681370241625" lon="-2.6751453489921047"><ele>97.0</ele><time>2026-04-30T12:03:55.001Z</time></trkpt><trkpt lat="43.18683789717175" lon="-2.675276802027731"><ele>97.0</ele><time>2026-04-30T12:03:56.001Z</time></trkpt><trkpt lat="43.18686120766346" lon="-2.6754079662300025"><ele>97.0</ele><time>2026-04-30T12:03:57.001Z</time></trkpt><trkpt lat="43.186885226796164" lon="-2.675543145055102"><ele>97.0</ele><time>2026-04-30T12:03:58.001Z</time></trkpt><trkpt lat="43.186905742978674" lon="-2.6756778979553144"><ele>96.6</ele><time>2026-04-30T12:03:59.001Z</time></trkpt><trkpt lat="43.18692946791952" lon="-2.6758129115690004"><ele>96.19999999999999</ele><time>2026-04-30T12:04:00.001Z</time></trkpt><trkpt lat="43.18695048111754" lon="-2.6759482398727608"><ele>95.8</ele><time>2026-04-30T12:04:01.001Z</time></trkpt><trkpt lat="43.186972506285606" lon="-2.6760829618270816"><ele>95.4</ele><time>2026-04-30T12:04:02.001Z</time></trkpt><trkpt lat="43.1869961872126" lon="-2.6762156133351347"><ele>95.0</ele><time>2026-04-30T12:04:03.001Z</time></trkpt><trkpt lat="43.187014007995366" lon="-2.6763527846587065"><ele>94.6</ele><time>2026-04-30T12:04:04.001Z</time></trkpt><trkpt lat="43.18703354160803" lon="-2.6764911178110324"><ele>94.2</ele><time>2026-04-30T12:04:05.001Z</time></trkpt><trkpt lat="43.18705144626949" lon="-2.6766329059759304"><ele>93.80000000000001</ele><time>2026-04-30T12:04:06.001Z</time></trkpt><trkpt lat="43.187072354689846" lon="-2.676770637215853"><ele>93.4</ele><time>2026-04-30T12:04:07.001Z</time></trkpt><trkpt lat="43.187091150277936" lon="-2.676908994150777"><ele>93.0</ele><time>2026-04-30T12:04:08.001Z</time></trkpt><trkpt lat="43.187109898670904" lon="-2.6770538121384595"><ele>92.80000000000001</ele><time>2026-04-30T12:04:09.001Z</time></trkpt><trkpt lat="43.18713022286056" lon="-2.6771987362027247"><ele>92.6</ele><time>2026-04-30T12:04:10.001Z</time></trkpt><trkpt lat="43.187151437874064" lon="-2.6773438361497535"><ele>92.4</ele><time>2026-04-30T12:04:11.001Z</time></trkpt><trkpt lat="43.187170570101024" lon="-2.6774909913828835"><ele>92.19999999999999</ele><time>2026-04-30T12:04:12.001Z</time></trkpt><trkpt lat="43.187188628893786" lon="-2.677633516952649"><ele>92.0</ele><time>2026-04-30T12:04:13.002Z</time></trkpt><trkpt lat="43.18720916589142" lon="-2.677784773866206"><ele>92.0</ele><time>2026-04-30T12:04:14.002Z</time></trkpt><trkpt lat="43.18722959152575" lon="-2.677932167885886"><ele>92.0</ele><time>2026-04-30T12:04:15.002Z</time></trkpt><trkpt lat="43.187248769707075" lon="-2.6780779941620936"><ele>92.0</ele><time>2026-04-30T12:04:16.002Z</time></trkpt><trkpt lat="43.18726606465718" lon="-2.678222486629282"><ele>92.0</ele><time>2026-04-30T12:04:17.002Z</time></trkpt><trkpt lat="43.187291645791134" lon="-2.6783667115468055"><ele>92.0</ele><time>2026-04-30T12:04:18.002Z</time></trkpt><trkpt lat="43.18730935423751" lon="-2.678513644508616"><ele>91.8</ele><time>2026-04-30T12:04:19.002Z</time></trkpt><trkpt lat="43.187328867495594" lon="-2.678657782037214"><ele>91.6</ele><time>2026-04-30T12:04:20.002Z</time></trkpt><trkpt lat="43.18734786462691" lon="-2.6788030187624043"><ele>91.39999999999999</ele><time>2026-04-30T12:04:21.002Z</time></trkpt><trkpt lat="43.18737004175221" lon="-2.6789522883089507"><ele>91.19999999999999</ele><time>2026-04-30T12:04:22.002Z</time></trkpt><trkpt lat="43.187390343869396" lon="-2.6790996632716837"><ele>91.0</ele><time>2026-04-30T12:04:23.002Z</time></trkpt><trkpt lat="43.187409626634604" lon="-2.6792502167498022"><ele>92.4</ele><time>2026-04-30T12:04:24.002Z</time></trkpt><trkpt lat="43.18742774609246" lon="-2.679398041696855"><ele>93.8</ele><time>2026-04-30T12:04:25.002Z</time></trkpt><trkpt lat="43.187446873688216" lon="-2.6795477499103515"><ele>95.2</ele><time>2026-04-30T12:04:26.002Z</time></trkpt><trkpt lat="43.187467290430156" lon="-2.6796940181359394"><ele>96.60000000000001</ele><time>2026-04-30T12:04:27.002Z</time></trkpt><trkpt lat="43.18748576504403" lon="-2.6798428176822324"><ele>98.0</ele><time>2026-04-30T12:04:28.002Z</time></trkpt><trkpt lat="43.18750519122179" lon="-2.6799905141100893"><ele>98.0</ele><time>2026-04-30T12:04:29.002Z</time></trkpt><trkpt lat="43.18752643030067" lon="-2.680136098694686"><ele>98.0</ele><time>2026-04-30T12:04:30.002Z</time></trkpt><trkpt lat="43.18754652840358" lon="-2.6802791840662437"><ele>98.0</ele><time>2026-04-30T12:04:31.002Z</time></trkpt><trkpt lat="43.187564389651804" lon="-2.680431407696641"><ele>98.0</ele><time>2026-04-30T12:04:32.002Z</time></trkpt><trkpt lat="43.18758277459783" lon="-2.680568470422074"><ele>98.0</ele><time>2026-04-30T12:04:33.002Z</time></trkpt><trkpt lat="43.18760408952993" lon="-2.680720114052066"><ele>97.80000000000001</ele><time>2026-04-30T12:04:34.002Z</time></trkpt><trkpt lat="43.18762534480422" lon="-2.680865830288885"><ele>97.6</ele><time>2026-04-30T12:04:35.002Z</time></trkpt><trkpt lat="43.18764689738343" lon="-2.6810126702724277"><ele>97.4</ele><time>2026-04-30T12:04:36.002Z</time></trkpt><trkpt lat="43.187666555964746" lon="-2.681161179014983"><ele>97.19999999999999</ele><time>2026-04-30T12:04:37.002Z</time></trkpt><trkpt lat="43.187683941787306" lon="-2.6813152588855895"><ele>97.0</ele><time>2026-04-30T12:04:38.002Z</time></trkpt><trkpt lat="43.18770426358193" lon="-2.6814677112042555"><ele>96.5</ele><time>2026-04-30T12:04:39.002Z</time></trkpt><trkpt lat="43.18772582254522" lon="-2.6816200949652362"><ele>96.0</ele><time>2026-04-30T12:04:40.002Z</time></trkpt><trkpt lat="43.18774803895124" lon="-2.6817781840078903"><ele>95.5</ele><time>2026-04-30T12:04:41.002Z</time></trkpt><trkpt lat="43.18777169158141" lon="-2.6819352822111138"><ele>95.0</ele><time>2026-04-30T12:04:42.002Z</time></trkpt><trkpt lat="43.18779150844631" lon="-2.6820953889716184"><ele>95.0</ele><time>2026-04-30T12:04:43.002Z</time></trkpt><trkpt lat="43.18781063258463" lon="-2.6822556818295413"><ele>95.0</ele><time>2026-04-30T12:04:44.002Z</time></trkpt><trkpt lat="43.18783188890724" lon="-2.682416502777076"><ele>95.0</ele><time>2026-04-30T12:04:45.002Z</time></trkpt><trkpt lat="43.18785364898651" lon="-2.682574578436121"><ele>95.0</ele><time>2026-04-30T12:04:46.002Z</time></trkpt><trkpt lat="43.18787754227019" lon="-2.682734103227809"><ele>94.25</ele><time>2026-04-30T12:04:47.002Z</time></trkpt><trkpt lat="43.18789760155959" lon="-2.682896991577799"><ele>93.5</ele><time>2026-04-30T12:04:48.002Z</time></trkpt><trkpt lat="43.18792010246802" lon="-2.6830586492376196"><ele>92.75</ele><time>2026-04-30T12:04:49.002Z</time></trkpt><trkpt lat="43.1879444928874" lon="-2.6832148667543105"><ele>92.0</ele><time>2026-04-30T12:04:50.002Z</time></trkpt><trkpt lat="43.187963316062664" lon="-2.683374048156861"><ele>92.0</ele><time>2026-04-30T12:04:51.002Z</time></trkpt><trkpt lat="43.18798303525973" lon="-2.683529968892691"><ele>92.0</ele><time>2026-04-30T12:04:52.002Z</time></trkpt><trkpt lat="43.18800416501148" lon="-2.683688141586083"><ele>92.0</ele><time>2026-04-30T12:04:53.002Z</time></trkpt><trkpt lat="43.18802431950795" lon="-2.6838433241532385"><ele>92.0</ele><time>2026-04-30T12:04:54.002Z</time></trkpt><trkpt lat="43.188044362172135" lon="-2.683998734358227"><ele>91.6</ele><time>2026-04-30T12:04:55.002Z</time></trkpt><trkpt lat="43.18806646139768" lon="-2.684144685621661"><ele>91.19999999999999</ele><time>2026-04-30T12:04:56.003Z</time></trkpt><trkpt lat="43.1880864842821" lon="-2.6842980120930333"><ele>90.8</ele><time>2026-04-30T12:04:57.003Z</time></trkpt><trkpt lat="43.18810559119968" lon="-2.684427126568886"><ele>90.4</ele><time>2026-04-30T12:04:58.003Z</time></trkpt><trkpt lat="43.18811578222528" lon="-2.684521838329156"><ele>90.0</ele><time>2026-04-30T12:04:59.003Z</time></trkpt><trkpt lat="43.18814556441911" lon="-2.6847387260146958"><ele>89.75</ele><time>2026-04-30T12:05:00Z</time></trkpt><trkpt lat="43.18815838122398" lon="-2.6848835791911667"><ele>89.5</ele><time>2026-04-30T12:05:01Z</time></trkpt><trkpt lat="43.188175940793684" lon="-2.685055389604938"><ele>89.25</ele><time>2026-04-30T12:05:02Z</time></trkpt><trkpt lat="43.188192483903094" lon="-2.685301047169938"><ele>89.0</ele><time>2026-04-30T12:05:03Z</time></trkpt><trkpt lat="43.18820379770656" lon="-2.685557664765429"><ele>89.80000000000001</ele><time>2026-04-30T12:05:04Z</time></trkpt><trkpt lat="43.18824525349406" lon="-2.6854826140741355"><ele>90.60000000000001</ele><time>2026-04-30T12:05:05Z</time></trkpt><trkpt lat="43.18827315003027" lon="-2.6856262919223344"><ele>91.4</ele><time>2026-04-30T12:05:06Z</time></trkpt><trkpt lat="43.18830347988863" lon="-2.6857680333221197"><ele>92.2</ele><time>2026-04-30T12:05:07Z</time></trkpt><trkpt lat="43.188338771858824" lon="-2.6859066422090696"><ele>93.0</ele><time>2026-04-30T12:05:08Z</time></trkpt><trkpt lat="43.188383382723686" lon="-2.68604518831766"><ele>93.0</ele><time>2026-04-30T12:05:09Z</time></trkpt><trkpt lat="43.1884346459162" lon="-2.686174851626737"><ele>93.0</ele><time>2026-04-30T12:05:10Z</time></trkpt><trkpt lat="43.188486711388165" lon="-2.6862998581907465"><ele>93.0</ele><time>2026-04-30T12:05:11Z</time></trkpt><trkpt lat="43.18855259321948" lon="-2.6864165865995555"><ele>93.0</ele><time>2026-04-30T12:05:12Z</time></trkpt><trkpt lat="43.188622575083215" lon="-2.686515997812486"><ele>93.0</ele><time>2026-04-30T12:05:13Z</time></trkpt><trkpt lat="43.18870532629122" lon="-2.686590484429002"><ele>93.0</ele><time>2026-04-30T12:05:14Z</time></trkpt><trkpt lat="43.188787118669474" lon="-2.6866676457757186"><ele>93.0</ele><time>2026-04-30T12:05:15Z</time></trkpt><trkpt lat="43.188853352695084" lon="-2.6867680079776295"><ele>93.0</ele><time>2026-04-30T12:05:16Z</time></trkpt><trkpt lat="43.18887826279877" lon="-2.686902378419769"><ele>93.0</ele><time>2026-04-30T12:05:17Z</time></trkpt><trkpt lat="43.188888166178984" lon="-2.6870491396464034"><ele>93.0</ele><time>2026-04-30T12:05:18Z</time></trkpt><trkpt lat="43.18889115580628" lon="-2.6871951739662086"><ele>93.0</ele><time>2026-04-30T12:05:19Z</time></trkpt><trkpt lat="43.18891448790693" lon="-2.6873408061198933"><ele>93.0</ele><time>2026-04-30T12:05:20Z</time></trkpt><trkpt lat="43.18895850478346" lon="-2.687478276887138"><ele>93.0</ele><time>2026-04-30T12:05:21Z</time></trkpt><trkpt lat="43.189001118746056" lon="-2.6876145372872235"><ele>93.0</ele><time>2026-04-30T12:05:22Z</time></trkpt><trkpt lat="43.189062011329455" lon="-2.6877321477554807"><ele>93.0</ele><time>2026-04-30T12:05:23Z</time></trkpt><trkpt lat="43.18912299419253" lon="-2.6878487017669763"><ele>93.0</ele><time>2026-04-30T12:05:24Z</time></trkpt><trkpt lat="43.18918871115198" lon="-2.687958029811615"><ele>93.0</ele><time>2026-04-30T12:05:25Z</time></trkpt><trkpt lat="43.18925381057943" lon="-2.688069148671247"><ele>93.0</ele><time>2026-04-30T12:05:26Z</time></trkpt><trkpt lat="43.189319474449974" lon="-2.6881792334697154"><ele>93.0</ele><time>2026-04-30T12:05:27Z</time></trkpt><trkpt lat="43.18938822957928" lon="-2.688290221910138"><ele>93.0</ele><time>2026-04-30T12:05:28Z</time></trkpt><trkpt lat="43.1894572656913" lon="-2.68839770174451"><ele>93.0</ele><time>2026-04-30T12:05:29Z</time></trkpt><trkpt lat="43.18952884347021" lon="-2.6885029502762348"><ele>93.0</ele><time>2026-04-30T12:05:30Z</time></trkpt><trkpt lat="43.189598434930275" lon="-2.6886063011421175"><ele>93.0</ele><time>2026-04-30T12:05:31Z</time></trkpt><trkpt lat="43.18966946814768" lon="-2.6887152086386954"><ele>93.0</ele><time>2026-04-30T12:05:32.001Z</time></trkpt><trkpt lat="43.18973727762986" lon="-2.688822724908209"><ele>93.0</ele><time>2026-04-30T12:05:33.001Z</time></trkpt><trkpt lat="43.18980662412277" lon="-2.688931185481459"><ele>93.0</ele><time>2026-04-30T12:05:34.001Z</time></trkpt><trkpt lat="43.1898772226984" lon="-2.689037934248164"><ele>93.0</ele><time>2026-04-30T12:05:35.001Z</time></trkpt><trkpt lat="43.18994914476508" lon="-2.6891476747738237"><ele>93.0</ele><time>2026-04-30T12:05:36.001Z</time></trkpt><trkpt lat="43.19001973444787" lon="-2.689257124391111"><ele>93.0</ele><time>2026-04-30T12:05:37.001Z</time></trkpt><trkpt lat="43.190092512843606" lon="-2.6893624887403695"><ele>93.0</ele><time>2026-04-30T12:05:38.001Z</time></trkpt><trkpt lat="43.190163752318156" lon="-2.6894699952423307"><ele>91.80000000000001</ele><time>2026-04-30T12:05:39.001Z</time></trkpt><trkpt lat="43.19023610188016" lon="-2.6895762735309754"><ele>90.6</ele><time>2026-04-30T12:05:40.001Z</time></trkpt><trkpt lat="43.190308771678644" lon="-2.6896807856451845"><ele>89.4</ele><time>2026-04-30T12:05:41.001Z</time></trkpt><trkpt lat="43.190376851941515" lon="-2.6897875977902808"><ele>88.19999999999999</ele><time>2026-04-30T12:05:42.001Z</time></trkpt><trkpt lat="43.19044518156329" lon="-2.689897913450853"><ele>87.0</ele><time>2026-04-30T12:05:43.001Z</time></trkpt><trkpt lat="43.19051330752427" lon="-2.690003405317598"><ele>87.0</ele><time>2026-04-30T12:05:44.001Z</time></trkpt><trkpt lat="43.19058882242736" lon="-2.69011210802915"><ele>87.0</ele><time>2026-04-30T12:05:45.001Z</time></trkpt><trkpt lat="43.19065614522857" lon="-2.690220569907921"><ele>87.0</ele><time>2026-04-30T12:05:46.001Z</time></trkpt><trkpt lat="43.19072563930974" lon="-2.6903299901397424"><ele>87.0</ele><time>2026-04-30T12:05:47.001Z</time></trkpt><trkpt lat="43.190794073671654" lon="-2.69043756108697"><ele>87.0</ele><time>2026-04-30T12:05:48.001Z</time></trkpt><trkpt lat="43.19086689631877" lon="-2.690547773261298"><ele>87.39999999999999</ele><time>2026-04-30T12:05:49.001Z</time></trkpt><trkpt lat="43.19093451174323" lon="-2.6906578643152734"><ele>87.8</ele><time>2026-04-30T12:05:50.001Z</time></trkpt><trkpt lat="43.19100474106393" lon="-2.69076684906782"><ele>88.2</ele><time>2026-04-30T12:05:51.001Z</time></trkpt><trkpt lat="43.19107427346244" lon="-2.6908761550172766"><ele>88.6</ele><time>2026-04-30T12:05:52.001Z</time></trkpt><trkpt lat="43.19114352557642" lon="-2.6909842679754075"><ele>89.0</ele><time>2026-04-30T12:05:53.001Z</time></trkpt><trkpt lat="43.19121280446885" lon="-2.6910878364697535"><ele>88.80000000000001</ele><time>2026-04-30T12:05:54.001Z</time></trkpt><trkpt lat="43.19128334090388" lon="-2.691195221680354"><ele>88.60000000000001</ele><time>2026-04-30T12:05:55.001Z</time></trkpt><trkpt lat="43.19135406506127" lon="-2.691300603371372"><ele>88.4</ele><time>2026-04-30T12:05:56.001Z</time></trkpt><trkpt lat="43.191424313521836" lon="-2.691406050122198"><ele>88.2</ele><time>2026-04-30T12:05:57.001Z</time></trkpt><trkpt lat="43.191497976113666" lon="-2.6915061913221128"><ele>88.0</ele><time>2026-04-30T12:05:58.001Z</time></trkpt><trkpt lat="43.19157130311383" lon="-2.6916064328009854"><ele>87.80000000000001</ele><time>2026-04-30T12:05:59.001Z</time></trkpt><trkpt lat="43.191644287217414" lon="-2.691709372401005"><ele>87.6</ele><time>2026-04-30T12:06:00.001Z</time></trkpt><trkpt lat="43.19171940903682" lon="-2.691809602192033"><ele>87.4</ele><time>2026-04-30T12:06:01.001Z</time></trkpt><trkpt lat="43.19179282230359" lon="-2.6919085358061774"><ele>87.19999999999999</ele><time>2026-04-30T12:06:02.001Z</time></trkpt><trkpt lat="43.19186891073348" lon="-2.692007673144844"><ele>87.0</ele><time>2026-04-30T12:06:03.001Z</time></trkpt><trkpt lat="43.191947440512614" lon="-2.6921053956000036"><ele>87.0</ele><time>2026-04-30T12:06:04.001Z</time></trkpt><trkpt lat="43.19202549364775" lon="-2.6921980140711055"><ele>87.0</ele><time>2026-04-30T12:06:05.001Z</time></trkpt><trkpt lat="43.19210570059537" lon="-2.692296353204198"><ele>87.0</ele><time>2026-04-30T12:06:06.001Z</time></trkpt><trkpt lat="43.19218671905555" lon="-2.692393748214638"><ele>87.0</ele><time>2026-04-30T12:06:07.001Z</time></trkpt><trkpt lat="43.192263295309736" lon="-2.6924923371942073"><ele>87.0</ele><time>2026-04-30T12:06:08.001Z</time></trkpt><trkpt lat="43.192341391075395" lon="-2.6925939486884047"><ele>86.8</ele><time>2026-04-30T12:06:09.001Z</time></trkpt><trkpt lat="43.192419728192895" lon="-2.692692219318423"><ele>86.6</ele><time>2026-04-30T12:06:10.001Z</time></trkpt><trkpt lat="43.19250054334492" lon="-2.6927891220394855"><ele>86.39999999999999</ele><time>2026-04-30T12:06:11.001Z</time></trkpt><trkpt lat="43.19257976399384" lon="-2.692883030726022"><ele>86.19999999999999</ele><time>2026-04-30T12:06:12.001Z</time></trkpt><trkpt lat="43.1926562965883" lon="-2.6929779931190905"><ele>86.0</ele><time>2026-04-30T12:06:13.001Z</time></trkpt><trkpt lat="43.192734867199654" lon="-2.6930751541301503"><ele>86.0</ele><time>2026-04-30T12:06:14.001Z</time></trkpt><trkpt lat="43.192816602135714" lon="-2.693169786436592"><ele>86.0</ele><time>2026-04-30T12:06:15.001Z</time></trkpt><trkpt lat="43.19289559591586" lon="-2.6932634786251013"><ele>86.0</ele><time>2026-04-30T12:06:16.001Z</time></trkpt><trkpt lat="43.19297425432292" lon="-2.6933607189439552"><ele>86.0</ele><time>2026-04-30T12:06:17.002Z</time></trkpt><trkpt lat="43.19304852892804" lon="-2.6934676661903603"><ele>86.0</ele><time>2026-04-30T12:06:18.002Z</time></trkpt><trkpt lat="43.19312990603595" lon="-2.6935532331163317"><ele>85.6</ele><time>2026-04-30T12:06:19.002Z</time></trkpt><trkpt lat="43.19321045419097" lon="-2.6936465667949996"><ele>85.19999999999999</ele><time>2026-04-30T12:06:20.002Z</time></trkpt><trkpt lat="43.19329160835829" lon="-2.6937381290238367"><ele>84.80000000000001</ele><time>2026-04-30T12:06:21.002Z</time></trkpt><trkpt lat="43.19337181797185" lon="-2.693829311611713"><ele>84.4</ele><time>2026-04-30T12:06:22.002Z</time></trkpt><trkpt lat="43.19345685438083" lon="-2.6939236006007348"><ele>84.0</ele><time>2026-04-30T12:06:23.002Z</time></trkpt><trkpt lat="43.19353663633316" lon="-2.694014445680138"><ele>84.0</ele><time>2026-04-30T12:06:24.002Z</time></trkpt><trkpt lat="43.19361507360614" lon="-2.6941044907272578"><ele>84.0</ele><time>2026-04-30T12:06:25.002Z</time></trkpt><trkpt lat="43.193694009906764" lon="-2.694195744216387"><ele>84.0</ele><time>2026-04-30T12:06:26.002Z</time></trkpt><trkpt lat="43.19377537270997" lon="-2.6942859014802396"><ele>84.0</ele><time>2026-04-30T12:06:27.002Z</time></trkpt><trkpt lat="43.193844154933494" lon="-2.6943695862020633"><ele>84.0</ele><time>2026-04-30T12:06:28.002Z</time></trkpt><trkpt lat="43.193918946240565" lon="-2.694455295571977"><ele>84.4</ele><time>2026-04-30T12:06:29.002Z</time></trkpt><trkpt lat="43.193994594960905" lon="-2.694544102602711"><ele>84.80000000000001</ele><time>2026-04-30T12:06:30.002Z</time></trkpt><trkpt lat="43.19406801496064" lon="-2.694632893599683"><ele>85.19999999999999</ele><time>2026-04-30T12:06:31.002Z</time></trkpt><trkpt lat="43.194137269428474" lon="-2.69472801865959"><ele>85.6</ele><time>2026-04-30T12:06:32.002Z</time></trkpt><trkpt lat="43.19419638426264" lon="-2.69480239813834"><ele>86.0</ele><time>2026-04-30T12:06:33.002Z</time></trkpt><trkpt lat="43.19426073108487" lon="-2.6948773624730213"><ele>86.8</ele><time>2026-04-30T12:06:34.002Z</time></trkpt><trkpt lat="43.1943732346342" lon="-2.694979205620341"><ele>87.6</ele><time>2026-04-30T12:06:35.002Z</time></trkpt><trkpt lat="43.19444852194001" lon="-2.695065400721327"><ele>88.4</ele><time>2026-04-30T12:06:36.002Z</time></trkpt><trkpt lat="43.19452376137568" lon="-2.695154217536407"><ele>89.2</ele><time>2026-04-30T12:06:37.002Z</time></trkpt><trkpt lat="43.19459736331391" lon="-2.695247424650288"><ele>90.0</ele><time>2026-04-30T12:06:38.002Z</time></trkpt><trkpt lat="43.19467346297511" lon="-2.6953385056699206"><ele>90.0</ele><time>2026-04-30T12:06:39.002Z</time></trkpt><trkpt lat="43.194745539566156" lon="-2.6954394578088845"><ele>90.0</ele><time>2026-04-30T12:06:40.002Z</time></trkpt><trkpt lat="43.19480997856001" lon="-2.695546441998236"><ele>90.0</ele><time>2026-04-30T12:06:41.002Z</time></trkpt><trkpt lat="43.19487281974705" lon="-2.6956604674923477"><ele>90.0</ele><time>2026-04-30T12:06:42.002Z</time></trkpt><trkpt lat="43.19493630094024" lon="-2.6957763774204317"><ele>90.0</ele><time>2026-04-30T12:06:43.002Z</time></trkpt><trkpt lat="43.19499779366184" lon="-2.695898527585509"><ele>89.2</ele><time>2026-04-30T12:06:44.002Z</time></trkpt><trkpt lat="43.19505928194032" lon="-2.6960205970180144"><ele>88.4</ele><time>2026-04-30T12:06:45.002Z</time></trkpt><trkpt lat="43.195121358298685" lon="-2.6961420217974386"><ele>87.6</ele><time>2026-04-30T12:06:46.002Z</time></trkpt><trkpt lat="43.19518473754699" lon="-2.696264641715678"><ele>86.8</ele><time>2026-04-30T12:06:47.002Z</time></trkpt><trkpt lat="43.195243841165954" lon="-2.696384349025473"><ele>86.0</ele><time>2026-04-30T12:06:48.002Z</time></trkpt><trkpt lat="43.19530637648505" lon="-2.6965054066622196"><ele>86.0</ele><time>2026-04-30T12:06:49.002Z</time></trkpt><trkpt lat="43.19537227998548" lon="-2.6966229951381697"><ele>86.0</ele><time>2026-04-30T12:06:50.002Z</time></trkpt><trkpt lat="43.19543641547969" lon="-2.696734760261117"><ele>86.0</ele><time>2026-04-30T12:06:51.002Z</time></trkpt><trkpt lat="43.19549889100909" lon="-2.6968483491193105"><ele>86.0</ele><time>2026-04-30T12:06:52.002Z</time></trkpt><trkpt lat="43.1955635855439" lon="-2.6969647178989016"><ele>86.0</ele><time>2026-04-30T12:06:53.002Z</time></trkpt><trkpt lat="43.195626128463644" lon="-2.69708347066741"><ele>86.6</ele><time>2026-04-30T12:06:54.002Z</time></trkpt><trkpt lat="43.19568811217751" lon="-2.6972060834955736"><ele>87.19999999999999</ele><time>2026-04-30T12:06:55.002Z</time></trkpt><trkpt lat="43.19575472809529" lon="-2.6973240996337697"><ele>87.80000000000001</ele><time>2026-04-30T12:06:56.002Z</time></trkpt><trkpt lat="43.195822153835834" lon="-2.6974387623083893"><ele>88.4</ele><time>2026-04-30T12:06:57.002Z</time></trkpt><trkpt lat="43.1958933056841" lon="-2.6975481679640088"><ele>89.0</ele><time>2026-04-30T12:06:58.002Z</time></trkpt><trkpt lat="43.19596636901319" lon="-2.697654531604477"><ele>90.6</ele><time>2026-04-30T12:06:59.002Z</time></trkpt><trkpt lat="43.196041900071265" lon="-2.697758447097376"><ele>92.2</ele><time>2026-04-30T12:07:00.002Z</time></trkpt><trkpt lat="43.196120823406424" lon="-2.697857886892828"><ele>93.8</ele><time>2026-04-30T12:07:01.003Z</time></trkpt><trkpt lat="43.19619761291576" lon="-2.6979539693671697"><ele>95.39999999999999</ele><time>2026-04-30T12:07:02.003Z</time></trkpt><trkpt lat="43.19627806687358" lon="-2.698053473568135"><ele>97.0</ele><time>2026-04-30T12:07:03.003Z</time></trkpt><trkpt lat="43.19635874060318" lon="-2.698148771810513"><ele>97.0</ele><time>2026-04-30T12:07:04.003Z</time></trkpt><trkpt lat="43.1964400729256" lon="-2.6982390782716212"><ele>97.0</ele><time>2026-04-30T12:07:05.003Z</time></trkpt><trkpt lat="43.19651824583263" lon="-2.698330406536849"><ele>97.0</ele><time>2026-04-30T12:07:06Z</time></trkpt><trkpt lat="43.19659582475219" lon="-2.698421023064107"><ele>97.0</ele><time>2026-04-30T12:07:07Z</time></trkpt><trkpt lat="43.19666103899436" lon="-2.698524458948699"><ele>97.0</ele><time>2026-04-30T12:07:08Z</time></trkpt><trkpt lat="43.19675058684127" lon="-2.6986067805227236"><ele>96.19999999999999</ele><time>2026-04-30T12:07:09Z</time></trkpt><trkpt lat="43.19682718679775" lon="-2.698697539400995"><ele>95.4</ele><time>2026-04-30T12:07:10Z</time></trkpt><trkpt lat="43.196884766374176" lon="-2.6987894933373364"><ele>94.6</ele><time>2026-04-30T12:07:11Z</time></trkpt><trkpt lat="43.196959319584515" lon="-2.6988850255606107"><ele>93.80000000000001</ele><time>2026-04-30T12:07:12Z</time></trkpt><trkpt lat="43.19703228447292" lon="-2.6989804544178564"><ele>93.0</ele><time>2026-04-30T12:07:13Z</time></trkpt><trkpt lat="43.19711644618231" lon="-2.6990695625677605"><ele>93.0</ele><time>2026-04-30T12:07:14Z</time></trkpt><trkpt lat="43.19716101034586" lon="-2.699139150685474"><ele>93.0</ele><time>2026-04-30T12:07:15Z</time></trkpt><trkpt lat="43.19729824939995" lon="-2.6993636964047742"><ele>93.0</ele><time>2026-04-30T12:07:17Z</time></trkpt><trkpt lat="43.19734387024624" lon="-2.699491717654761"><ele>93.0</ele><time>2026-04-30T12:07:18Z</time></trkpt><trkpt lat="43.19737992763133" lon="-2.6996154792397795"><ele>92.2</ele><time>2026-04-30T12:07:19Z</time></trkpt><trkpt lat="43.19741066484234" lon="-2.69974698532615"><ele>91.4</ele><time>2026-04-30T12:07:20Z</time></trkpt><trkpt lat="43.19743062080792" lon="-2.699885595129818"><ele>90.60000000000001</ele><time>2026-04-30T12:07:21Z</time></trkpt><trkpt lat="43.197470287363984" lon="-2.7000163405395052"><ele>89.80000000000001</ele><time>2026-04-30T12:07:22Z</time></trkpt><trkpt lat="43.197503743632296" lon="-2.70015159714693"><ele>89.0</ele><time>2026-04-30T12:07:23Z</time></trkpt><trkpt lat="43.197538843222254" lon="-2.700290728565901"><ele>89.0</ele><time>2026-04-30T12:07:24Z</time></trkpt><trkpt lat="43.19757180975341" lon="-2.700429563207414"><ele>89.0</ele><time>2026-04-30T12:07:25Z</time></trkpt><trkpt lat="43.19760821971685" lon="-2.7005729557945464"><ele>89.0</ele><time>2026-04-30T12:07:26Z</time></trkpt><trkpt lat="43.19764199425892" lon="-2.7007133414148097"><ele>89.0</ele><time>2026-04-30T12:07:27Z</time></trkpt><trkpt lat="43.19767907422137" lon="-2.700859519222034"><ele>89.0</ele><time>2026-04-30T12:07:28Z</time></trkpt><trkpt lat="43.19771338352861" lon="-2.701002232905833"><ele>88.2</ele><time>2026-04-30T12:07:29Z</time></trkpt><trkpt lat="43.19774881396135" lon="-2.7011484535064647"><ele>87.4</ele><time>2026-04-30T12:07:30Z</time></trkpt><trkpt lat="43.19778089140759" lon="-2.7012908028494604"><ele>86.6</ele><time>2026-04-30T12:07:31Z</time></trkpt><trkpt lat="43.197815106720476" lon="-2.7014390743367978"><ele>85.8</ele><time>2026-04-30T12:07:32Z</time></trkpt><trkpt lat="43.19784909843796" lon="-2.7015880027205728"><ele>85.0</ele><time>2026-04-30T12:07:33Z</time></trkpt><trkpt lat="43.19788014753713" lon="-2.701735615836177"><ele>85.0</ele><time>2026-04-30T12:07:34Z</time></trkpt><trkpt lat="43.19791276225074" lon="-2.7018809223089066"><ele>85.0</ele><time>2026-04-30T12:07:35Z</time></trkpt><trkpt lat="43.19794506141152" lon="-2.702024288553261"><ele>85.0</ele><time>2026-04-30T12:07:36Z</time></trkpt><trkpt lat="43.19797803816615" lon="-2.702172928803674"><ele>85.0</ele><time>2026-04-30T12:07:37Z</time></trkpt><trkpt lat="43.19800970314134" lon="-2.702316208976442"><ele>85.0</ele><time>2026-04-30T12:07:38Z</time></trkpt><trkpt lat="43.198039868891726" lon="-2.702460508969356"><ele>84.8</ele><time>2026-04-30T12:07:39.001Z</time></trkpt><trkpt lat="43.19807013561179" lon="-2.702604493933773"><ele>84.6</ele><time>2026-04-30T12:07:40.001Z</time></trkpt><trkpt lat="43.198099090147885" lon="-2.7027457275565534"><ele>84.4</ele><time>2026-04-30T12:07:41.001Z</time></trkpt><trkpt lat="43.19812040288352" lon="-2.7028841544236055"><ele>84.2</ele><time>2026-04-30T12:07:42.001Z</time></trkpt><trkpt lat="43.198138485818156" lon="-2.7030221117354296"><ele>84.0</ele><time>2026-04-30T12:07:43.001Z</time></trkpt><trkpt lat="43.198152004330396" lon="-2.7031592282647585"><ele>84.0</ele><time>2026-04-30T12:07:44.001Z</time></trkpt><trkpt lat="43.19816405524604" lon="-2.7032974690979685"><ele>84.0</ele><time>2026-04-30T12:07:45.001Z</time></trkpt><trkpt lat="43.198173197101646" lon="-2.703428292611097"><ele>84.0</ele><time>2026-04-30T12:07:46.001Z</time></trkpt><trkpt lat="43.19818483859143" lon="-2.703559540087834"><ele>84.0</ele><time>2026-04-30T12:07:47.001Z</time></trkpt><trkpt lat="43.19821225409154" lon="-2.7036931599593905"><ele>84.0</ele><time>2026-04-30T12:07:48.001Z</time></trkpt><trkpt lat="43.19826401905978" lon="-2.703816819868238"><ele>84.0</ele><time>2026-04-30T12:07:49.001Z</time></trkpt><trkpt lat="43.19833121792812" lon="-2.703917155148871"><ele>84.0</ele><time>2026-04-30T12:07:50.001Z</time></trkpt><trkpt lat="43.19840177066245" lon="-2.7040135340646274"><ele>84.0</ele><time>2026-04-30T12:07:51.001Z</time></trkpt><trkpt lat="43.198449396050144" lon="-2.704121033106977"><ele>84.0</ele><time>2026-04-30T12:07:52.001Z</time></trkpt><trkpt lat="43.19847447441945" lon="-2.704249612145693"><ele>84.0</ele><time>2026-04-30T12:07:53.001Z</time></trkpt><trkpt lat="43.19845249760194" lon="-2.704382471595308"><ele>83.6</ele><time>2026-04-30T12:07:54.001Z</time></trkpt><trkpt lat="43.19846252054687" lon="-2.7045257873636905"><ele>83.2</ele><time>2026-04-30T12:07:55.001Z</time></trkpt><trkpt lat="43.19845849424669" lon="-2.7046747395897177"><ele>82.8</ele><time>2026-04-30T12:07:56.001Z</time></trkpt><trkpt lat="43.19848251981074" lon="-2.704810998251395"><ele>82.39999999999999</ele><time>2026-04-30T12:07:57.001Z</time></trkpt><trkpt lat="43.19851740937669" lon="-2.704948525880228"><ele>82.0</ele><time>2026-04-30T12:07:58.001Z</time></trkpt><trkpt lat="43.19857256439465" lon="-2.7050698075462285"><ele>82.0</ele><time>2026-04-30T12:07:59.001Z</time></trkpt><trkpt lat="43.1986219790251" lon="-2.705201949069396"><ele>82.0</ele><time>2026-04-30T12:08:00.001Z</time></trkpt><trkpt lat="43.19866928771847" lon="-2.7053365562798706"><ele>82.0</ele><time>2026-04-30T12:08:01.001Z</time></trkpt><trkpt lat="43.19870836526562" lon="-2.70546921819042"><ele>82.0</ele><time>2026-04-30T12:08:02.001Z</time></trkpt><trkpt lat="43.19874437160647" lon="-2.705605131370577"><ele>82.0</ele><time>2026-04-30T12:08:03.001Z</time></trkpt><trkpt lat="43.198778608102856" lon="-2.7057426413373777"><ele>82.0</ele><time>2026-04-30T12:08:04.001Z</time></trkpt><trkpt lat="43.19881196617332" lon="-2.7058792581676996"><ele>82.0</ele><time>2026-04-30T12:08:05.001Z</time></trkpt><trkpt lat="43.198845158213395" lon="-2.706011087474051"><ele>82.0</ele><time>2026-04-30T12:08:06.001Z</time></trkpt><trkpt lat="43.19887567792078" lon="-2.706152874690773"><ele>82.0</ele><time>2026-04-30T12:08:07.001Z</time></trkpt><trkpt lat="43.19890692001262" lon="-2.706279450165225"><ele>82.0</ele><time>2026-04-30T12:08:08.001Z</time></trkpt><trkpt lat="43.19893967866457" lon="-2.7064383003372"><ele>82.0</ele><time>2026-04-30T12:08:09.001Z</time></trkpt><trkpt lat="43.19899047863398" lon="-2.7066404974440847"><ele>82.0</ele><time>2026-04-30T12:08:10.001Z</time></trkpt><trkpt lat="43.199043654156796" lon="-2.706867311257259"><ele>82.0</ele><time>2026-04-30T12:08:11.001Z</time></trkpt><trkpt lat="43.199099308710785" lon="-2.7070751955116084"><ele>81.6</ele><time>2026-04-30T12:08:14.001Z</time></trkpt><trkpt lat="43.19913083114796" lon="-2.7072091205867355"><ele>81.19999999999999</ele><time>2026-04-30T12:08:15.001Z</time></trkpt><trkpt lat="43.19916113118817" lon="-2.707342779047381"><ele>80.8</ele><time>2026-04-30T12:08:16.001Z</time></trkpt><trkpt lat="43.199192541958" lon="-2.707477298322861"><ele>80.4</ele><time>2026-04-30T12:08:17.001Z</time></trkpt><trkpt lat="43.19922572977772" lon="-2.7076134703493406"><ele>80.0</ele><time>2026-04-30T12:08:18.001Z</time></trkpt><trkpt lat="43.19925723237418" lon="-2.7077531763284446"><ele>80.0</ele><time>2026-04-30T12:08:19.001Z</time></trkpt><trkpt lat="43.199290555768506" lon="-2.707892636296657"><ele>80.0</ele><time>2026-04-30T12:08:20.001Z</time></trkpt><trkpt lat="43.19932495419953" lon="-2.708035765006379"><ele>80.0</ele><time>2026-04-30T12:08:21.001Z</time></trkpt><trkpt lat="43.19936046622793" lon="-2.7081743770851894"><ele>80.0</ele><time>2026-04-30T12:08:22.001Z</time></trkpt><trkpt lat="43.19939937788966" lon="-2.7083141488928537"><ele>80.0</ele><time>2026-04-30T12:08:23.001Z</time></trkpt><trkpt lat="43.199442986941285" lon="-2.70845388780262"><ele>80.2</ele><time>2026-04-30T12:08:24.001Z</time></trkpt><trkpt lat="43.1994879886796" lon="-2.7085897076470444"><ele>80.4</ele><time>2026-04-30T12:08:25.002Z</time></trkpt><trkpt lat="43.19954972832669" lon="-2.7087169326058564"><ele>80.6</ele><time>2026-04-30T12:08:26.002Z</time></trkpt><trkpt lat="43.19961202348254" lon="-2.708846859064994"><ele>80.8</ele><time>2026-04-30T12:08:27.002Z</time></trkpt><trkpt lat="43.199673823161945" lon="-2.7089698205858053"><ele>81.0</ele><time>2026-04-30T12:08:28.002Z</time></trkpt><trkpt lat="43.199743120897686" lon="-2.7090906302784146"><ele>81.0</ele><time>2026-04-30T12:08:29.002Z</time></trkpt><trkpt lat="43.199805611852724" lon="-2.709201651200719"><ele>81.0</ele><time>2026-04-30T12:08:30.002Z</time></trkpt><trkpt lat="43.1998772230642" lon="-2.7093069667337586"><ele>81.0</ele><time>2026-04-30T12:08:31.002Z</time></trkpt><trkpt lat="43.19996088600135" lon="-2.709399412391845"><ele>81.0</ele><time>2026-04-30T12:08:32.002Z</time></trkpt><trkpt lat="43.2000433163077" lon="-2.7094917182123743"><ele>81.0</ele><time>2026-04-30T12:08:33.002Z</time></trkpt><trkpt lat="43.20011558043101" lon="-2.709594670864565"><ele>81.6</ele><time>2026-04-30T12:08:34.002Z</time></trkpt><trkpt lat="43.2001984228387" lon="-2.709688017761277"><ele>82.19999999999999</ele><time>2026-04-30T12:08:35.002Z</time></trkpt><trkpt lat="43.20028654096805" lon="-2.7097679647569057"><ele>82.80000000000001</ele><time>2026-04-30T12:08:36.002Z</time></trkpt><trkpt lat="43.20037484241843" lon="-2.709848617275349"><ele>83.4</ele><time>2026-04-30T12:08:37.002Z</time></trkpt><trkpt lat="43.20046342989485" lon="-2.7099362242088096"><ele>84.0</ele><time>2026-04-30T12:08:38.002Z</time></trkpt><trkpt lat="43.20055296748394" lon="-2.7100229734716574"><ele>84.0</ele><time>2026-04-30T12:08:39.002Z</time></trkpt><trkpt lat="43.20064438146826" lon="-2.7101076309167094"><ele>84.0</ele><time>2026-04-30T12:08:40.002Z</time></trkpt><trkpt lat="43.200735517880496" lon="-2.710196717718491"><ele>84.0</ele><time>2026-04-30T12:08:41.002Z</time></trkpt><trkpt lat="43.20082947625339" lon="-2.710286685531593"><ele>84.0</ele><time>2026-04-30T12:08:42.002Z</time></trkpt><trkpt lat="43.200926073480524" lon="-2.710373826687037"><ele>84.0</ele><time>2026-04-30T12:08:43.002Z</time></trkpt><trkpt lat="43.201018182768614" lon="-2.7104672824790557"><ele>84.0</ele><time>2026-04-30T12:08:44.002Z</time></trkpt><trkpt lat="43.20111253638152" lon="-2.710551444550333"><ele>84.0</ele><time>2026-04-30T12:08:45.002Z</time></trkpt><trkpt lat="43.20120673916772" lon="-2.7106431806422493"><ele>84.0</ele><time>2026-04-30T12:08:46.002Z</time></trkpt><trkpt lat="43.20130167155333" lon="-2.710732112357225"><ele>84.0</ele><time>2026-04-30T12:08:47.002Z</time></trkpt><trkpt lat="43.20139259680762" lon="-2.710821156452414"><ele>84.0</ele><time>2026-04-30T12:08:48.002Z</time></trkpt><trkpt lat="43.20148496873468" lon="-2.71090868715213"><ele>84.0</ele><time>2026-04-30T12:08:49.002Z</time></trkpt><trkpt lat="43.20157673659908" lon="-2.7109989369098515"><ele>84.0</ele><time>2026-04-30T12:08:50.002Z</time></trkpt><trkpt lat="43.201668908868335" lon="-2.7110835935875386"><ele>84.0</ele><time>2026-04-30T12:08:51.002Z</time></trkpt><trkpt lat="43.20175663654128" lon="-2.711178394430582"><ele>83.80000000000001</ele><time>2026-04-30T12:08:52.002Z</time></trkpt><trkpt lat="43.201848463642264" lon="-2.7112587130142414"><ele>83.60000000000001</ele><time>2026-04-30T12:08:53.002Z</time></trkpt><trkpt lat="43.20193939128167" lon="-2.711354777359532"><ele>83.4</ele><time>2026-04-30T12:08:54.002Z</time></trkpt><trkpt lat="43.20203691855472" lon="-2.7114224874528094"><ele>83.2</ele><time>2026-04-30T12:08:55.002Z</time></trkpt><trkpt lat="43.20212518597964" lon="-2.7115008135865146"><ele>83.0</ele><time>2026-04-30T12:08:56.002Z</time></trkpt><trkpt lat="43.20221108185519" lon="-2.7115982649058123"><ele>83.0</ele><time>2026-04-30T12:08:57.002Z</time></trkpt><trkpt lat="43.20230554997956" lon="-2.7116771252133653"><ele>83.0</ele><time>2026-04-30T12:08:58.002Z</time></trkpt><trkpt lat="43.202389263501466" lon="-2.7117554499447283"><ele>83.0</ele><time>2026-04-30T12:08:59.002Z</time></trkpt><trkpt lat="43.202481259806966" lon="-2.7118396765913046"><ele>83.0</ele><time>2026-04-30T12:09:00.002Z</time></trkpt><trkpt lat="43.20256681781541" lon="-2.7119259163896174"><ele>83.0</ele><time>2026-04-30T12:09:01.002Z</time></trkpt><trkpt lat="43.2026551356622" lon="-2.7120143577325506"><ele>82.80000000000001</ele><time>2026-04-30T12:09:02.002Z</time></trkpt><trkpt lat="43.20274205465879" lon="-2.7120990786747288"><ele>82.6</ele><time>2026-04-30T12:09:03.002Z</time></trkpt><trkpt lat="43.20283425409321" lon="-2.712174315799006"><ele>82.4</ele><time>2026-04-30T12:09:04.002Z</time></trkpt><trkpt lat="43.20292427877494" lon="-2.712252710468366"><ele>82.19999999999999</ele><time>2026-04-30T12:09:05.002Z</time></trkpt><trkpt lat="43.20301176707716" lon="-2.712352545444881"><ele>82.0</ele><time>2026-04-30T12:09:06.002Z</time></trkpt><trkpt lat="43.20309789585924" lon="-2.7124421083736623"><ele>81.6</ele><time>2026-04-30T12:09:07.002Z</time></trkpt><trkpt lat="43.2031842589824" lon="-2.7125290399491386"><ele>81.19999999999999</ele><time>2026-04-30T12:09:08.002Z</time></trkpt><trkpt lat="43.20327362457044" lon="-2.712612302803596"><ele>80.8</ele><time>2026-04-30T12:09:09.003Z</time></trkpt><trkpt lat="43.203361244155" lon="-2.7126982528185"><ele>80.4</ele><time>2026-04-30T12:09:10.003Z</time></trkpt><trkpt lat="43.203447476739655" lon="-2.7127805608583593"><ele>80.0</ele><time>2026-04-30T12:09:11.003Z</time></trkpt><trkpt lat="43.20354230560177" lon="-2.7128428981248898"><ele>80.0</ele><time>2026-04-30T12:09:12Z</time></trkpt><trkpt lat="43.20363341349235" lon="-2.7129287184096955"><ele>80.0</ele><time>2026-04-30T12:09:13Z</time></trkpt><trkpt lat="43.20371492976842" lon="-2.7130210452359367"><ele>80.0</ele><time>2026-04-30T12:09:14Z</time></trkpt><trkpt lat="43.203801929587414" lon="-2.7131041046307938"><ele>80.0</ele><time>2026-04-30T12:09:15Z</time></trkpt><trkpt lat="43.20388541553909" lon="-2.713191130626748"><ele>80.0</ele><time>2026-04-30T12:09:16Z</time></trkpt><trkpt lat="43.2039746834602" lon="-2.7132744266224353"><ele>80.0</ele><time>2026-04-30T12:09:17Z</time></trkpt><trkpt lat="43.204059432278775" lon="-2.713354673108071"><ele>80.0</ele><time>2026-04-30T12:09:18Z</time></trkpt><trkpt lat="43.20414764720524" lon="-2.7134343252853457"><ele>80.0</ele><time>2026-04-30T12:09:19Z</time></trkpt><trkpt lat="43.20423475778648" lon="-2.7135101178135357"><ele>80.0</ele><time>2026-04-30T12:09:20Z</time></trkpt><trkpt lat="43.204319545673286" lon="-2.713590519837302"><ele>80.0</ele><time>2026-04-30T12:09:21Z</time></trkpt><trkpt lat="43.20439515292969" lon="-2.7136797998267204"><ele>81.0</ele><time>2026-04-30T12:09:22Z</time></trkpt><trkpt lat="43.204483297930246" lon="-2.713754906690398"><ele>82.0</ele><time>2026-04-30T12:09:23Z</time></trkpt><trkpt lat="43.20456250172599" lon="-2.7138307862928537"><ele>83.0</ele><time>2026-04-30T12:09:24Z</time></trkpt><trkpt lat="43.20465811005742" lon="-2.7138953883923134"><ele>84.0</ele><time>2026-04-30T12:09:25Z</time></trkpt><trkpt lat="43.20478690278265" lon="-2.713936665669636"><ele>85.0</ele><time>2026-04-30T12:09:26Z</time></trkpt><trkpt lat="43.2048129534811" lon="-2.714049092888947"><ele>84.0</ele><time>2026-04-30T12:09:27Z</time></trkpt><trkpt lat="43.20490066707143" lon="-2.714135049240963"><ele>83.0</ele><time>2026-04-30T12:09:28Z</time></trkpt><trkpt lat="43.20499002365341" lon="-2.714214104046963"><ele>82.0</ele><time>2026-04-30T12:09:29Z</time></trkpt><trkpt lat="43.2050635152715" lon="-2.7142709810888017"><ele>81.0</ele><time>2026-04-30T12:09:30Z</time></trkpt><trkpt lat="43.20514733965685" lon="-2.7143447098764786"><ele>80.0</ele><time>2026-04-30T12:09:31Z</time></trkpt><trkpt lat="43.20522840079825" lon="-2.7144179563849966"><ele>82.2</ele><time>2026-04-30T12:09:32Z</time></trkpt><trkpt lat="43.20530984587372" lon="-2.714490288080769"><ele>84.4</ele><time>2026-04-30T12:09:33Z</time></trkpt><trkpt lat="43.205396714460214" lon="-2.7145609791764214"><ele>86.6</ele><time>2026-04-30T12:09:34Z</time></trkpt><trkpt lat="43.20548265609216" lon="-2.714632488069819"><ele>88.8</ele><time>2026-04-30T12:09:35Z</time></trkpt><trkpt lat="43.20556569050899" lon="-2.7147035601253435"><ele>91.0</ele><time>2026-04-30T12:09:36Z</time></trkpt><trkpt lat="43.20565104664185" lon="-2.714778051499047"><ele>88.8</ele><time>2026-04-30T12:09:37Z</time></trkpt><trkpt lat="43.205729352043136" lon="-2.7148640726065367"><ele>86.6</ele><time>2026-04-30T12:09:38Z</time></trkpt><trkpt lat="43.20580705905263" lon="-2.714947019921295"><ele>84.4</ele><time>2026-04-30T12:09:39Z</time></trkpt><trkpt lat="43.20589067478624" lon="-2.715027285846395"><ele>82.2</ele><time>2026-04-30T12:09:40Z</time></trkpt><trkpt lat="43.20596885573512" lon="-2.7151025748951683"><ele>80.0</ele><time>2026-04-30T12:09:41Z</time></trkpt><trkpt lat="43.2060504063184" lon="-2.7151877544411396"><ele>82.0</ele><time>2026-04-30T12:09:42Z</time></trkpt><trkpt lat="43.20613284571661" lon="-2.715272314520427"><ele>84.0</ele><time>2026-04-30T12:09:43.001Z</time></trkpt><trkpt lat="43.20621363760547" lon="-2.7153586334474977"><ele>86.0</ele><time>2026-04-30T12:09:44.001Z</time></trkpt><trkpt lat="43.20629362990821" lon="-2.7154458040739624"><ele>88.0</ele><time>2026-04-30T12:09:45.001Z</time></trkpt><trkpt lat="43.206375098807044" lon="-2.7155292973837004"><ele>90.0</ele><time>2026-04-30T12:09:46.001Z</time></trkpt><trkpt lat="43.20645998415452" lon="-2.7156114022456634"><ele>88.0</ele><time>2026-04-30T12:09:47.001Z</time></trkpt><trkpt lat="43.20654248847608" lon="-2.715688602810789"><ele>86.0</ele><time>2026-04-30T12:09:48.001Z</time></trkpt><trkpt lat="43.206627401547756" lon="-2.7157638897358973"><ele>84.0</ele><time>2026-04-30T12:09:49.001Z</time></trkpt><trkpt lat="43.20671607214522" lon="-2.7158412060811856"><ele>82.0</ele><time>2026-04-30T12:09:50.001Z</time></trkpt><trkpt lat="43.2067984776811" lon="-2.7159152346626563"><ele>80.0</ele><time>2026-04-30T12:09:51.001Z</time></trkpt><trkpt lat="43.206880825934" lon="-2.715991819962855"><ele>80.0</ele><time>2026-04-30T12:09:52.001Z</time></trkpt><trkpt lat="43.20696161308724" lon="-2.7160665995017705"><ele>80.0</ele><time>2026-04-30T12:09:53.001Z</time></trkpt><trkpt lat="43.207036945548154" lon="-2.7161398229907685"><ele>80.0</ele><time>2026-04-30T12:09:54.001Z</time></trkpt><trkpt lat="43.20711129217458" lon="-2.71621210579103"><ele>80.0</ele><time>2026-04-30T12:09:55.001Z</time></trkpt><trkpt lat="43.207187377674536" lon="-2.7162830574359504"><ele>80.0</ele><time>2026-04-30T12:09:56.001Z</time></trkpt><trkpt lat="43.20726570246672" lon="-2.716356297848992"><ele>81.33333333333334</ele><time>2026-04-30T12:09:57.001Z</time></trkpt><trkpt lat="43.20734076867358" lon="-2.7164281685836995"><ele>82.66666666666667</ele><time>2026-04-30T12:09:58.001Z</time></trkpt><trkpt lat="43.20741279636039" lon="-2.716497094774661"><ele>84.0</ele><time>2026-04-30T12:09:59.001Z</time></trkpt><trkpt lat="43.207483766035146" lon="-2.7165652198204366"><ele>85.33333333333333</ele><time>2026-04-30T12:10:00.001Z</time></trkpt><trkpt lat="43.20755174075565" lon="-2.716634176008223"><ele>86.66666666666666</ele><time>2026-04-30T12:10:01.001Z</time></trkpt><trkpt lat="43.207619295728115" lon="-2.7167005738135943"><ele>88.0</ele><time>2026-04-30T12:10:02.001Z</time></trkpt><trkpt lat="43.20768284685967" lon="-2.7167820884100826"><ele>88.0</ele><time>2026-04-30T12:10:03.001Z</time></trkpt><trkpt lat="43.207744317335845" lon="-2.716865641221344"><ele>88.0</ele><time>2026-04-30T12:10:04.001Z</time></trkpt><trkpt lat="43.207802689049764" lon="-2.716953706050913"><ele>88.0</ele><time>2026-04-30T12:10:05.001Z</time></trkpt><trkpt lat="43.207864934166324" lon="-2.717055774927793"><ele>88.0</ele><time>2026-04-30T12:10:06.001Z</time></trkpt><trkpt lat="43.207928413075244" lon="-2.71714692149973"><ele>88.0</ele><time>2026-04-30T12:10:07.001Z</time></trkpt><trkpt lat="43.207990841247685" lon="-2.7172534529325674"><ele>87.75</ele><time>2026-04-30T12:10:08.001Z</time></trkpt><trkpt lat="43.20806354728704" lon="-2.717368592464065"><ele>87.5</ele><time>2026-04-30T12:10:09.001Z</time></trkpt><trkpt lat="43.20813911548199" lon="-2.7174820987607333"><ele>87.25</ele><time>2026-04-30T12:10:10.001Z</time></trkpt><trkpt lat="43.20821561776192" lon="-2.71760347074255"><ele>87.0</ele><time>2026-04-30T12:10:11.001Z</time></trkpt><trkpt lat="43.20829105377797" lon="-2.7177254132060904"><ele>86.75</ele><time>2026-04-30T12:10:12.001Z</time></trkpt><trkpt lat="43.20836777841409" lon="-2.717846853541292"><ele>86.5</ele><time>2026-04-30T12:10:13.001Z</time></trkpt><trkpt lat="43.208443459665325" lon="-2.7179741711510603"><ele>86.25</ele><time>2026-04-30T12:10:14.001Z</time></trkpt><trkpt lat="43.20852164239293" lon="-2.718096784073222"><ele>86.0</ele><time>2026-04-30T12:10:15.001Z</time></trkpt><trkpt lat="43.20859788213943" lon="-2.718223834576612"><ele>86.0</ele><time>2026-04-30T12:10:16.001Z</time></trkpt><trkpt lat="43.20867971768475" lon="-2.718348891299737"><ele>86.0</ele><time>2026-04-30T12:10:17.001Z</time></trkpt><trkpt lat="43.20876196479991" lon="-2.7184765881594104"><ele>86.0</ele><time>2026-04-30T12:10:18.001Z</time></trkpt><trkpt lat="43.20884419271409" lon="-2.7186034650826767"><ele>86.0</ele><time>2026-04-30T12:10:19.001Z</time></trkpt><trkpt lat="43.2089255805785" lon="-2.7187308198531444"><ele>85.25</ele><time>2026-04-30T12:10:20.001Z</time></trkpt><trkpt lat="43.209008252907125" lon="-2.71885332280045"><ele>84.5</ele><time>2026-04-30T12:10:21.001Z</time></trkpt><trkpt lat="43.20908854342482" lon="-2.718981041224646"><ele>83.75</ele><time>2026-04-30T12:10:22.001Z</time></trkpt><trkpt lat="43.20916605599528" lon="-2.7191078106866167"><ele>83.0</ele><time>2026-04-30T12:10:23.001Z</time></trkpt><trkpt lat="43.20924366720321" lon="-2.7192295729651312"><ele>83.0</ele><time>2026-04-30T12:10:24.001Z</time></trkpt><trkpt lat="43.20932193209046" lon="-2.719350891200059"><ele>83.0</ele><time>2026-04-30T12:10:25.001Z</time></trkpt><trkpt lat="43.209400587828576" lon="-2.7194715643105067"><ele>83.0</ele><time>2026-04-30T12:10:26.001Z</time></trkpt><trkpt lat="43.20947542311768" lon="-2.7195953030622477"><ele>83.0</ele><time>2026-04-30T12:10:27.001Z</time></trkpt><trkpt lat="43.209553481589886" lon="-2.719718030967558"><ele>83.25</ele><time>2026-04-30T12:10:28.002Z</time></trkpt><trkpt lat="43.209629558258186" lon="-2.7198376000869233"><ele>83.5</ele><time>2026-04-30T12:10:29.002Z</time></trkpt><trkpt lat="43.20970875554314" lon="-2.7199571701747343"><ele>83.75</ele><time>2026-04-30T12:10:30.002Z</time></trkpt><trkpt lat="43.20978638256117" lon="-2.7200766127078073"><ele>84.0</ele><time>2026-04-30T12:10:31.002Z</time></trkpt><trkpt lat="43.20986163503265" lon="-2.720196210667788"><ele>83.75</ele><time>2026-04-30T12:10:32.002Z</time></trkpt><trkpt lat="43.20993877156556" lon="-2.7203172746644033"><ele>83.5</ele><time>2026-04-30T12:10:33.002Z</time></trkpt><trkpt lat="43.210021430402406" lon="-2.720428275383513"><ele>83.25</ele><time>2026-04-30T12:10:34.002Z</time></trkpt><trkpt lat="43.21010499523256" lon="-2.7205447651181314"><ele>83.0</ele><time>2026-04-30T12:10:35.002Z</time></trkpt><trkpt lat="43.21018876200806" lon="-2.720665514750105"><ele>83.0</ele><time>2026-04-30T12:10:36.002Z</time></trkpt><trkpt lat="43.21027738053111" lon="-2.7207766245989244"><ele>83.0</ele><time>2026-04-30T12:10:37.002Z</time></trkpt><trkpt lat="43.210370790483076" lon="-2.72087510571316"><ele>83.0</ele><time>2026-04-30T12:10:38.002Z</time></trkpt><trkpt lat="43.210465369070555" lon="-2.720970159054906"><ele>83.0</ele><time>2026-04-30T12:10:39.002Z</time></trkpt><trkpt lat="43.210559165764316" lon="-2.721065325574813"><ele>82.25</ele><time>2026-04-30T12:10:40.002Z</time></trkpt><trkpt lat="43.21065562531105" lon="-2.721147666979648"><ele>81.5</ele><time>2026-04-30T12:10:41.002Z</time></trkpt><trkpt lat="43.21075699649413" lon="-2.721221422799682"><ele>80.75</ele><time>2026-04-30T12:10:42.002Z</time></trkpt><trkpt lat="43.210859684403836" lon="-2.721286917200667"><ele>80.0</ele><time>2026-04-30T12:10:43.002Z</time></trkpt><trkpt lat="43.210962423624025" lon="-2.721345261795133"><ele>79.6</ele><time>2026-04-30T12:10:44.002Z</time></trkpt><trkpt lat="43.21106660774059" lon="-2.721389062636798"><ele>79.2</ele><time>2026-04-30T12:10:45.002Z</time></trkpt><trkpt lat="43.21117436144442" lon="-2.721415428373961"><ele>78.8</ele><time>2026-04-30T12:10:46.002Z</time></trkpt><trkpt lat="43.21127348224698" lon="-2.72145847532779"><ele>78.4</ele><time>2026-04-30T12:10:47.002Z</time></trkpt><trkpt lat="43.21137118173415" lon="-2.7214948427165093"><ele>78.0</ele><time>2026-04-30T12:10:48.002Z</time></trkpt><trkpt lat="43.2114676334774" lon="-2.7215292110026574"><ele>77.8</ele><time>2026-04-30T12:10:49.002Z</time></trkpt><trkpt lat="43.211566448451435" lon="-2.7215625761501188"><ele>77.6</ele><time>2026-04-30T12:10:50.002Z</time></trkpt><trkpt lat="43.2116598590392" lon="-2.721586478706171"><ele>77.4</ele><time>2026-04-30T12:10:51.002Z</time></trkpt><trkpt lat="43.211756674086935" lon="-2.721606425171153"><ele>77.2</ele><time>2026-04-30T12:10:52.002Z</time></trkpt><trkpt lat="43.211846434026846" lon="-2.72162116580797"><ele>77.0</ele><time>2026-04-30T12:10:53.002Z</time></trkpt><trkpt lat="43.21194787585996" lon="-2.7216376050101485"><ele>77.0</ele><time>2026-04-30T12:10:54.002Z</time></trkpt><trkpt lat="43.212030304436084" lon="-2.721660119622646"><ele>77.0</ele><time>2026-04-30T12:10:55.002Z</time></trkpt><trkpt lat="43.21214131200553" lon="-2.7216664777428914"><ele>77.0</ele><time>2026-04-30T12:10:56.002Z</time></trkpt><trkpt lat="43.21223350885888" lon="-2.721672753684351"><ele>77.0</ele><time>2026-04-30T12:10:57.002Z</time></trkpt><trkpt lat="43.21232779702092" lon="-2.7216848413823502"><ele>77.0</ele><time>2026-04-30T12:10:58.002Z</time></trkpt><trkpt lat="43.212426414797186" lon="-2.7216897658704866"><ele>77.4</ele><time>2026-04-30T12:10:59.002Z</time></trkpt><trkpt lat="43.21252802736595" lon="-2.7216996895245207"><ele>77.80000000000001</ele><time>2026-04-30T12:11:00.002Z</time></trkpt><trkpt lat="43.212627624457056" lon="-2.7217085514647383"><ele>78.2</ele><time>2026-04-30T12:11:01.002Z</time></trkpt><trkpt lat="43.21272983602914" lon="-2.7217211506328076"><ele>78.60000000000001</ele><time>2026-04-30T12:11:02.002Z</time></trkpt><trkpt lat="43.21283267900149" lon="-2.7217394341228007"><ele>79.0</ele><time>2026-04-30T12:11:03.002Z</time></trkpt><trkpt lat="43.2129365824191" lon="-2.721763067919863"><ele>79.0</ele><time>2026-04-30T12:11:04.002Z</time></trkpt><trkpt lat="43.21303907494515" lon="-2.7217908504892168"><ele>79.0</ele><time>2026-04-30T12:11:05.002Z</time></trkpt><trkpt lat="43.21314332660345" lon="-2.721823215942706"><ele>79.0</ele><time>2026-04-30T12:11:06.002Z</time></trkpt><trkpt lat="43.213246758430415" lon="-2.7218656778304817"><ele>79.0</ele><time>2026-04-30T12:11:07.002Z</time></trkpt><trkpt lat="43.213349800256914" lon="-2.721911628857684"><ele>79.0</ele><time>2026-04-30T12:11:08.002Z</time></trkpt><trkpt lat="43.21345574627035" lon="-2.7219645893201925"><ele>79.25</ele><time>2026-04-30T12:11:09.002Z</time></trkpt><trkpt lat="43.213558387624474" lon="-2.7220280968762274"><ele>79.5</ele><time>2026-04-30T12:11:10.002Z</time></trkpt><trkpt lat="43.21366171252055" lon="-2.7220957308929714"><ele>79.75</ele><time>2026-04-30T12:11:11.002Z</time></trkpt><trkpt lat="43.21376558852167" lon="-2.722166638831217"><ele>80.0</ele><time>2026-04-30T12:11:12.002Z</time></trkpt><trkpt lat="43.21386527981241" lon="-2.7222461988806335"><ele>80.0</ele><time>2026-04-30T12:11:13.003Z</time></trkpt><trkpt lat="43.21396636190248" lon="-2.7223292961382772"><ele>80.0</ele><time>2026-04-30T12:11:14.003Z</time></trkpt><trkpt lat="43.21406423224209" lon="-2.7224191226452374"><ele>80.0</ele><time>2026-04-30T12:11:15.003Z</time></trkpt><trkpt lat="43.214155478631014" lon="-2.7225190871137697"><ele>80.0</ele><time>2026-04-30T12:11:16.003Z</time></trkpt><trkpt lat="43.214250299540375" lon="-2.722623932000488"><ele>80.75</ele><time>2026-04-30T12:11:17.003Z</time></trkpt><trkpt lat="43.214344888237605" lon="-2.722727947490979"><ele>81.5</ele><time>2026-04-30T12:11:18Z</time></trkpt><trkpt lat="43.21443318747739" lon="-2.7228376743594516"><ele>82.25</ele><time>2026-04-30T12:11:19Z</time></trkpt><trkpt lat="43.214520638084124" lon="-2.7229509689930045"><ele>83.0</ele><time>2026-04-30T12:11:20Z</time></trkpt><trkpt lat="43.214611774879586" lon="-2.723061934914916"><ele>83.0</ele><time>2026-04-30T12:11:21Z</time></trkpt><trkpt lat="43.21470224571075" lon="-2.723171881484387"><ele>83.0</ele><time>2026-04-30T12:11:22Z</time></trkpt><trkpt lat="43.214790631610605" lon="-2.723286917588848"><ele>83.0</ele><time>2026-04-30T12:11:23Z</time></trkpt><trkpt lat="43.214881111163045" lon="-2.7233987429829996"><ele>83.0</ele><time>2026-04-30T12:11:24Z</time></trkpt><trkpt lat="43.21497566994975" lon="-2.7235047511071198"><ele>84.0</ele><time>2026-04-30T12:11:25Z</time></trkpt><trkpt lat="43.21507032330885" lon="-2.723610555333472"><ele>85.0</ele><time>2026-04-30T12:11:26Z</time></trkpt><trkpt lat="43.215164442638546" lon="-2.7237118688111113"><ele>86.0</ele><time>2026-04-30T12:11:27Z</time></trkpt><trkpt lat="43.21526084859831" lon="-2.723808776418522"><ele>87.0</ele><time>2026-04-30T12:11:28Z</time></trkpt><trkpt lat="43.21536075702931" lon="-2.72390204645371"><ele>87.0</ele><time>2026-04-30T12:11:29Z</time></trkpt><trkpt lat="43.21546310407352" lon="-2.7239887776007423"><ele>87.0</ele><time>2026-04-30T12:11:30Z</time></trkpt><trkpt lat="43.21556615585309" lon="-2.7240727788897035"><ele>87.0</ele><time>2026-04-30T12:11:31Z</time></trkpt><trkpt lat="43.21567022097403" lon="-2.7241518750721023"><ele>87.0</ele><time>2026-04-30T12:11:32Z</time></trkpt><trkpt lat="43.21577786221314" lon="-2.7242267343864217"><ele>87.25</ele><time>2026-04-30T12:11:33Z</time></trkpt><trkpt lat="43.21588439998785" lon="-2.72429697027888"><ele>87.5</ele><time>2026-04-30T12:11:34Z</time></trkpt><trkpt lat="43.21599750599246" lon="-2.7243632640616258"><ele>87.75</ele><time>2026-04-30T12:11:35Z</time></trkpt><trkpt lat="43.21611154612942" lon="-2.724420712863598"><ele>88.0</ele><time>2026-04-30T12:11:36Z</time></trkpt><trkpt lat="43.216225327141295" lon="-2.724477271358699"><ele>86.0</ele><time>2026-04-30T12:11:37Z</time></trkpt><trkpt lat="43.216338207007546" lon="-2.7245317760806578"><ele>84.0</ele><time>2026-04-30T12:11:38Z</time></trkpt><trkpt lat="43.21645194174433" lon="-2.724582633119577"><ele>82.0</ele><time>2026-04-30T12:11:39Z</time></trkpt><trkpt lat="43.216570691298" lon="-2.7246273935788192"><ele>80.0</ele><time>2026-04-30T12:11:40Z</time></trkpt><trkpt lat="43.21668456129119" lon="-2.724664154746197"><ele>78.75</ele><time>2026-04-30T12:11:41Z</time></trkpt><trkpt lat="43.21680548218969" lon="-2.7246989278431846"><ele>77.5</ele><time>2026-04-30T12:11:42Z</time></trkpt><trkpt lat="43.21691752038337" lon="-2.7247374699057754"><ele>76.25</ele><time>2026-04-30T12:11:43Z</time></trkpt><trkpt lat="43.217030969927286" lon="-2.7247660047324906"><ele>75.0</ele><time>2026-04-30T12:11:44Z</time></trkpt><trkpt lat="43.21714741608903" lon="-2.7247930004995875"><ele>75.0</ele><time>2026-04-30T12:11:45Z</time></trkpt><trkpt lat="43.217257520277734" lon="-2.7248260975870844"><ele>75.0</ele><time>2026-04-30T12:11:46Z</time></trkpt><trkpt lat="43.21737202692106" lon="-2.724855519940991"><ele>75.0</ele><time>2026-04-30T12:11:47Z</time></trkpt><trkpt lat="43.217483062631025" lon="-2.7248893523615187"><ele>75.0</ele><time>2026-04-30T12:11:48Z</time></trkpt><trkpt lat="43.21759020960568" lon="-2.7249202525578577"><ele>75.2</ele><time>2026-04-30T12:11:49Z</time></trkpt><trkpt lat="43.21770122089583" lon="-2.724956972638657"><ele>75.4</ele><time>2026-04-30T12:11:50Z</time></trkpt><trkpt lat="43.21781219471891" lon="-2.724985150977029"><ele>75.6</ele><time>2026-04-30T12:11:51Z</time></trkpt><trkpt lat="43.21791791810779" lon="-2.7250204628880623"><ele>75.8</ele><time>2026-04-30T12:11:52Z</time></trkpt><trkpt lat="43.21802281130281" lon="-2.7250612634473743"><ele>76.0</ele><time>2026-04-30T12:11:53Z</time></trkpt><trkpt lat="43.21812921173197" lon="-2.7250905265399807"><ele>75.8</ele><time>2026-04-30T12:11:54Z</time></trkpt><trkpt lat="43.21823245746051" lon="-2.7251328493567994"><ele>75.6</ele><time>2026-04-30T12:11:55Z</time></trkpt><trkpt lat="43.21833427734344" lon="-2.7251704906223715"><ele>75.4</ele><time>2026-04-30T12:11:56Z</time></trkpt><trkpt lat="43.2184347661783" lon="-2.7252087708313697"><ele>75.2</ele><time>2026-04-30T12:11:57Z</time></trkpt><trkpt lat="43.21853634045095" lon="-2.7252466812762646"><ele>75.0</ele><time>2026-04-30T12:11:58Z</time></trkpt><trkpt lat="43.21863588063808" lon="-2.7252898840290345"><ele>76.0</ele><time>2026-04-30T12:11:59.001Z</time></trkpt><trkpt lat="43.218736057500756" lon="-2.725331195307201"><ele>77.0</ele><time>2026-04-30T12:12:00.001Z</time></trkpt><trkpt lat="43.218834970518095" lon="-2.7253788407834474"><ele>78.0</ele><time>2026-04-30T12:12:01.001Z</time></trkpt><trkpt lat="43.218934008538135" lon="-2.7254235637572495"><ele>79.0</ele><time>2026-04-30T12:12:02.001Z</time></trkpt><trkpt lat="43.21903482220774" lon="-2.7254652149186036"><ele>80.0</ele><time>2026-04-30T12:12:03.001Z</time></trkpt><trkpt lat="43.21913530340816" lon="-2.725506730459408"><ele>81.4</ele><time>2026-04-30T12:12:04.001Z</time></trkpt><trkpt lat="43.21923147579319" lon="-2.7255549557022927"><ele>82.8</ele><time>2026-04-30T12:12:05.001Z</time></trkpt><trkpt lat="43.21933217828427" lon="-2.725600217842337"><ele>84.19999999999999</ele><time>2026-04-30T12:12:06.001Z</time></trkpt><trkpt lat="43.21943347301349" lon="-2.7256443761453846"><ele>85.6</ele><time>2026-04-30T12:12:07.001Z</time></trkpt><trkpt lat="43.219531702914374" lon="-2.7256907231103953"><ele>87.0</ele><time>2026-04-30T12:12:08.001Z</time></trkpt><trkpt lat="43.219630278735" lon="-2.7257362437782557"><ele>87.0</ele><time>2026-04-30T12:12:09.001Z</time></trkpt><trkpt lat="43.21973687099755" lon="-2.725776847167787"><ele>87.0</ele><time>2026-04-30T12:12:10.001Z</time></trkpt><trkpt lat="43.21983262083605" lon="-2.725823376982915"><ele>87.0</ele><time>2026-04-30T12:12:11.001Z</time></trkpt><trkpt lat="43.21993017562112" lon="-2.7258699913970363"><ele>87.0</ele><time>2026-04-30T12:12:12.001Z</time></trkpt><trkpt lat="43.220031660988305" lon="-2.7259226910947687"><ele>87.0</ele><time>2026-04-30T12:12:13.001Z</time></trkpt><trkpt lat="43.22013666226871" lon="-2.7259631054481126"><ele>87.39999999999999</ele><time>2026-04-30T12:12:14.001Z</time></trkpt><trkpt lat="43.22023423451987" lon="-2.7260062286719333"><ele>87.8</ele><time>2026-04-30T12:12:15.001Z</time></trkpt><trkpt lat="43.220337135479525" lon="-2.726053114739489"><ele>88.2</ele><time>2026-04-30T12:12:16.001Z</time></trkpt><trkpt lat="43.22043489444495" lon="-2.726096745918913"><ele>88.6</ele><time>2026-04-30T12:12:17.001Z</time></trkpt><trkpt lat="43.22053329998657" lon="-2.726144686049957"><ele>89.0</ele><time>2026-04-30T12:12:18.001Z</time></trkpt><trkpt lat="43.22063036344561" lon="-2.726189709285069"><ele>88.4</ele><time>2026-04-30T12:12:19.001Z</time></trkpt><trkpt lat="43.22073220782396" lon="-2.7262320962589044"><ele>87.80000000000001</ele><time>2026-04-30T12:12:20.001Z</time></trkpt><trkpt lat="43.220830217377696" lon="-2.726270832320636"><ele>87.19999999999999</ele><time>2026-04-30T12:12:21.001Z</time></trkpt><trkpt lat="43.22092582412319" lon="-2.7263167872621326"><ele>86.6</ele><time>2026-04-30T12:12:22.001Z</time></trkpt><trkpt lat="43.2210205717185" lon="-2.7263652951473643"><ele>86.0</ele><time>2026-04-30T12:12:23.001Z</time></trkpt><trkpt lat="43.221115407968824" lon="-2.7264096857321594"><ele>86.0</ele><time>2026-04-30T12:12:24.001Z</time></trkpt><trkpt lat="43.22121432085116" lon="-2.726449978464187"><ele>86.0</ele><time>2026-04-30T12:12:25.001Z</time></trkpt><trkpt lat="43.221311723784865" lon="-2.7264928544321823"><ele>86.0</ele><time>2026-04-30T12:12:26.001Z</time></trkpt><trkpt lat="43.22140485912539" lon="-2.7265364121028064"><ele>86.0</ele><time>2026-04-30T12:12:27.001Z</time></trkpt><trkpt lat="43.22149841429048" lon="-2.7265872055915072"><ele>86.0</ele><time>2026-04-30T12:12:28.001Z</time></trkpt><trkpt lat="43.221593144855774" lon="-2.7266423712558088"><ele>86.0</ele><time>2026-04-30T12:12:29.001Z</time></trkpt><trkpt lat="43.221684788477646" lon="-2.7266938299241015"><ele>86.0</ele><time>2026-04-30T12:12:30.001Z</time></trkpt><trkpt lat="43.221778168792945" lon="-2.726748360775163"><ele>86.0</ele><time>2026-04-30T12:12:31.001Z</time></trkpt><trkpt lat="43.221869730537485" lon="-2.7268061952277347"><ele>86.0</ele><time>2026-04-30T12:12:32.001Z</time></trkpt><trkpt lat="43.22196009110523" lon="-2.7268689747163375"><ele>86.0</ele><time>2026-04-30T12:12:33.001Z</time></trkpt><trkpt lat="43.22205186912435" lon="-2.726933473805932"><ele>85.8</ele><time>2026-04-30T12:12:34.001Z</time></trkpt><trkpt lat="43.22213842128417" lon="-2.7270026397114733"><ele>85.6</ele><time>2026-04-30T12:12:35.001Z</time></trkpt><trkpt lat="43.22222325476199" lon="-2.72707523015961"><ele>85.4</ele><time>2026-04-30T12:12:36.001Z</time></trkpt><trkpt lat="43.22230736544952" lon="-2.727150110921926"><ele>85.2</ele><time>2026-04-30T12:12:37.001Z</time></trkpt><trkpt lat="43.22238799672101" lon="-2.7272271741742"><ele>85.0</ele><time>2026-04-30T12:12:38.001Z</time></trkpt><trkpt lat="43.222466973827835" lon="-2.727307909051811"><ele>85.0</ele><time>2026-04-30T12:12:39.001Z</time></trkpt><trkpt lat="43.22254699682352" lon="-2.7273884814851765"><ele>85.0</ele><time>2026-04-30T12:12:40.001Z</time></trkpt><trkpt lat="43.22262377671409" lon="-2.7274753930251356"><ele>85.0</ele><time>2026-04-30T12:12:41.001Z</time></trkpt><trkpt lat="43.22270048156484" lon="-2.727565019738236"><ele>85.0</ele><time>2026-04-30T12:12:42.001Z</time></trkpt><trkpt lat="43.222774284148024" lon="-2.727651771731069"><ele>85.0</ele><time>2026-04-30T12:12:43.002Z</time></trkpt><trkpt lat="43.222843520208556" lon="-2.727741122377062"><ele>85.0</ele><time>2026-04-30T12:12:44.002Z</time></trkpt><trkpt lat="43.22291063812286" lon="-2.7278357010568866"><ele>85.0</ele><time>2026-04-30T12:12:45.002Z</time></trkpt><trkpt lat="43.22297668456256" lon="-2.727933273550151"><ele>85.0</ele><time>2026-04-30T12:12:46.002Z</time></trkpt><trkpt lat="43.22304101866123" lon="-2.7280324124929485"><ele>85.0</ele><time>2026-04-30T12:12:47.002Z</time></trkpt><trkpt lat="43.223104119996556" lon="-2.7281373494529975"><ele>85.0</ele><time>2026-04-30T12:12:48.002Z</time></trkpt><trkpt lat="43.223166013356746" lon="-2.728244714897423"><ele>85.0</ele><time>2026-04-30T12:12:49.002Z</time></trkpt><trkpt lat="43.22322711509647" lon="-2.7283544789755387"><ele>85.0</ele><time>2026-04-30T12:12:50.002Z</time></trkpt><trkpt lat="43.22328847321958" lon="-2.728466928360346"><ele>85.0</ele><time>2026-04-30T12:12:51.002Z</time></trkpt><trkpt lat="43.223345785980904" lon="-2.728584443778259"><ele>85.0</ele><time>2026-04-30T12:12:52.002Z</time></trkpt><trkpt lat="43.22340138301499" lon="-2.7287024834575297"><ele>85.0</ele><time>2026-04-30T12:12:53.002Z</time></trkpt><trkpt lat="43.22345227680301" lon="-2.7288286947497635"><ele>85.0</ele><time>2026-04-30T12:12:54.002Z</time></trkpt><trkpt lat="43.22350378203834" lon="-2.7289574822541183"><ele>85.0</ele><time>2026-04-30T12:12:55.002Z</time></trkpt><trkpt lat="43.22355554604177" lon="-2.729087701548886"><ele>85.0</ele><time>2026-04-30T12:12:56.002Z</time></trkpt><trkpt lat="43.22360408449886" lon="-2.7292245613557355"><ele>85.0</ele><time>2026-04-30T12:12:57.002Z</time></trkpt><trkpt lat="43.223655129331924" lon="-2.729363410700356"><ele>85.0</ele><time>2026-04-30T12:12:58.002Z</time></trkpt><trkpt lat="43.223694418512174" lon="-2.729508580610847"><ele>85.25</ele><time>2026-04-30T12:12:59.002Z</time></trkpt><trkpt lat="43.22373510030039" lon="-2.7296542594263693"><ele>85.5</ele><time>2026-04-30T12:13:00.002Z</time></trkpt><trkpt lat="43.22377810606616" lon="-2.7298038563806855"><ele>85.75</ele><time>2026-04-30T12:13:01.002Z</time></trkpt><trkpt lat="43.22382358204821" lon="-2.729956194818129"><ele>86.0</ele><time>2026-04-30T12:13:02.002Z</time></trkpt><trkpt lat="43.22386431371327" lon="-2.7301124691121283"><ele>86.5</ele><time>2026-04-30T12:13:03.002Z</time></trkpt><trkpt lat="43.22390506220821" lon="-2.7302712731697576"><ele>87.0</ele><time>2026-04-30T12:13:04.002Z</time></trkpt><trkpt lat="43.22394477937612" lon="-2.7304289310677636"><ele>87.5</ele><time>2026-04-30T12:13:05.002Z</time></trkpt><trkpt lat="43.2239907290181" lon="-2.730582827685922"><ele>88.0</ele><time>2026-04-30T12:13:06.002Z</time></trkpt><trkpt lat="43.22403599069328" lon="-2.7307368632237266"><ele>88.5</ele><time>2026-04-30T12:13:07.002Z</time></trkpt><trkpt lat="43.22407205005184" lon="-2.730896668400565"><ele>89.0</ele><time>2026-04-30T12:13:08.002Z</time></trkpt><trkpt lat="43.22411020097195" lon="-2.731052928447503"><ele>89.5</ele><time>2026-04-30T12:13:09.002Z</time></trkpt><trkpt lat="43.22415300909149" lon="-2.731205052053338"><ele>90.0</ele><time>2026-04-30T12:13:10.002Z</time></trkpt><trkpt lat="43.22419904027094" lon="-2.7313546445318972"><ele>88.75</ele><time>2026-04-30T12:13:11.002Z</time></trkpt><trkpt lat="43.224236668810335" lon="-2.731507798874288"><ele>87.5</ele><time>2026-04-30T12:13:12.002Z</time></trkpt><trkpt lat="43.224273384084825" lon="-2.7316670855234846"><ele>86.25</ele><time>2026-04-30T12:13:13.002Z</time></trkpt><trkpt lat="43.22430179453486" lon="-2.7318270894434264"><ele>85.0</ele><time>2026-04-30T12:13:14.002Z</time></trkpt><trkpt lat="43.22434831912522" lon="-2.731975978242543"><ele>83.0</ele><time>2026-04-30T12:13:15.002Z</time></trkpt><trkpt lat="43.22439154477102" lon="-2.7321262221275338"><ele>81.0</ele><time>2026-04-30T12:13:16.002Z</time></trkpt><trkpt lat="43.224433638622294" lon="-2.732283125180015"><ele>79.0</ele><time>2026-04-30T12:13:17.002Z</time></trkpt><trkpt lat="43.22446566402445" lon="-2.732443913026942"><ele>77.0</ele><time>2026-04-30T12:13:18.002Z</time></trkpt><trkpt lat="43.22450009864213" lon="-2.732602591695194"><ele>76.5</ele><time>2026-04-30T12:13:19.002Z</time></trkpt><trkpt lat="43.22453160007976" lon="-2.7327595950032593"><ele>76.0</ele><time>2026-04-30T12:13:20.002Z</time></trkpt><trkpt lat="43.224568801169745" lon="-2.732913994331836"><ele>75.5</ele><time>2026-04-30T12:13:21.002Z</time></trkpt><trkpt lat="43.22460257840531" lon="-2.733073749042277"><ele>75.0</ele><time>2026-04-30T12:13:22.002Z</time></trkpt><trkpt lat="43.22463435344824" lon="-2.7332354323615524"><ele>75.0</ele><time>2026-04-30T12:13:23.002Z</time></trkpt><trkpt lat="43.22466663055348" lon="-2.7333956426484556"><ele>75.0</ele><time>2026-04-30T12:13:24Z</time></trkpt><trkpt lat="43.22469800858562" lon="-2.7335531038289886"><ele>75.0</ele><time>2026-04-30T12:13:25Z</time></trkpt><trkpt lat="43.22473150331025" lon="-2.733712851588727"><ele>75.0</ele><time>2026-04-30T12:13:26Z</time></trkpt><trkpt lat="43.22476316157644" lon="-2.733873138721747"><ele>75.0</ele><time>2026-04-30T12:13:27Z</time></trkpt><trkpt lat="43.2247909967151" lon="-2.7340370015595252"><ele>75.0</ele><time>2026-04-30T12:13:28Z</time></trkpt><trkpt lat="43.22482228142052" lon="-2.7341993587413222"><ele>75.0</ele><time>2026-04-30T12:13:29Z</time></trkpt><trkpt lat="43.224856512693954" lon="-2.734365997210095"><ele>75.0</ele><time>2026-04-30T12:13:30Z</time></trkpt><trkpt lat="43.22489743384503" lon="-2.7345245865434316"><ele>75.25</ele><time>2026-04-30T12:13:31Z</time></trkpt><trkpt lat="43.22493606261026" lon="-2.7346790226701536"><ele>75.5</ele><time>2026-04-30T12:13:32Z</time></trkpt><trkpt lat="43.22497489051975" lon="-2.734842133155546"><ele>75.75</ele><time>2026-04-30T12:13:33Z</time></trkpt><trkpt lat="43.22501692917588" lon="-2.7349932285760112"><ele>76.0</ele><time>2026-04-30T12:13:34Z</time></trkpt><trkpt lat="43.225063375599404" lon="-2.7351423026155928"><ele>76.25</ele><time>2026-04-30T12:13:35Z</time></trkpt><trkpt lat="43.225109286776416" lon="-2.73529594741367"><ele>76.5</ele><time>2026-04-30T12:13:36Z</time></trkpt><trkpt lat="43.22515863680867" lon="-2.7354413267526327"><ele>76.75</ele><time>2026-04-30T12:13:37Z</time></trkpt><trkpt lat="43.225214485949344" lon="-2.7355804549008713"><ele>77.0</ele><time>2026-04-30T12:13:38Z</time></trkpt><trkpt lat="43.22526651319367" lon="-2.7357185191270177"><ele>77.0</ele><time>2026-04-30T12:13:39Z</time></trkpt><trkpt lat="43.22532623343614" lon="-2.7358535679681464"><ele>77.0</ele><time>2026-04-30T12:13:40Z</time></trkpt><trkpt lat="43.22537856407643" lon="-2.735990219279354"><ele>77.0</ele><time>2026-04-30T12:13:41Z</time></trkpt><trkpt lat="43.2254277409749" lon="-2.736119058650181"><ele>77.0</ele><time>2026-04-30T12:13:42Z</time></trkpt><trkpt lat="43.2254883862368" lon="-2.736246128859441"><ele>77.0</ele><time>2026-04-30T12:13:43Z</time></trkpt><trkpt lat="43.22554401168025" lon="-2.7363700218138867"><ele>77.0</ele><time>2026-04-30T12:13:44Z</time></trkpt><trkpt lat="43.22560178987099" lon="-2.73648612628642"><ele>77.0</ele><time>2026-04-30T12:13:45Z</time></trkpt><trkpt lat="43.225655885803505" lon="-2.7366085036821572"><ele>77.0</ele><time>2026-04-30T12:13:46Z</time></trkpt><trkpt lat="43.22571556932239" lon="-2.736728617400862"><ele>77.0</ele><time>2026-04-30T12:13:47Z</time></trkpt><trkpt lat="43.22575800751456" lon="-2.7368548909711286"><ele>77.0</ele><time>2026-04-30T12:13:48Z</time></trkpt><trkpt lat="43.22580331558551" lon="-2.7369767791184767"><ele>78.8</ele><time>2026-04-30T12:13:49Z</time></trkpt><trkpt lat="43.225856260836714" lon="-2.7370915548595054"><ele>80.6</ele><time>2026-04-30T12:13:50Z</time></trkpt><trkpt lat="43.22590313719753" lon="-2.737219562197449"><ele>82.39999999999999</ele><time>2026-04-30T12:13:51Z</time></trkpt><trkpt lat="43.22594817070478" lon="-2.7373344912545146"><ele>84.2</ele><time>2026-04-30T12:13:52Z</time></trkpt><trkpt lat="43.2260008623195" lon="-2.737448252684834"><ele>86.0</ele><time>2026-04-30T12:13:53Z</time></trkpt><trkpt lat="43.22604265741506" lon="-2.7375743437866533"><ele>86.0</ele><time>2026-04-30T12:13:54Z</time></trkpt><trkpt lat="43.22608325041233" lon="-2.737701575004649"><ele>86.0</ele><time>2026-04-30T12:13:55Z</time></trkpt><trkpt lat="43.22612498311328" lon="-2.737818626601625"><ele>86.0</ele><time>2026-04-30T12:13:56Z</time></trkpt><trkpt lat="43.22616626161475" lon="-2.737936226911217"><ele>86.0</ele><time>2026-04-30T12:13:57Z</time></trkpt><trkpt lat="43.22620245751516" lon="-2.738063531376163"><ele>86.0</ele><time>2026-04-30T12:13:58Z</time></trkpt><trkpt lat="43.22624069401506" lon="-2.738182992175816"><ele>86.8</ele><time>2026-04-30T12:13:59Z</time></trkpt><trkpt lat="43.22627490223583" lon="-2.738306691373082"><ele>87.6</ele><time>2026-04-30T12:14:00Z</time></trkpt><trkpt lat="43.226307691991146" lon="-2.738433645889281"><ele>88.4</ele><time>2026-04-30T12:14:01Z</time></trkpt><trkpt lat="43.22634275651596" lon="-2.738551012972166"><ele>89.2</ele><time>2026-04-30T12:14:02Z</time></trkpt><trkpt lat="43.22637453492002" lon="-2.7386787706065885"><ele>90.0</ele><time>2026-04-30T12:14:03Z</time></trkpt><trkpt lat="43.22640649974142" lon="-2.7388027052782506"><ele>90.0</ele><time>2026-04-30T12:14:04Z</time></trkpt><trkpt lat="43.2264370003794" lon="-2.7389251709141282"><ele>90.0</ele><time>2026-04-30T12:14:05Z</time></trkpt><trkpt lat="43.22646573504105" lon="-2.7390522311654184"><ele>90.0</ele><time>2026-04-30T12:14:06.001Z</time></trkpt><trkpt lat="43.226492277157575" lon="-2.7391772645509236"><ele>90.0</ele><time>2026-04-30T12:14:07.001Z</time></trkpt><trkpt lat="43.22651748380957" lon="-2.739306199734837"><ele>90.0</ele><time>2026-04-30T12:14:08.001Z</time></trkpt><trkpt lat="43.22654109221643" lon="-2.739433889845595"><ele>90.8</ele><time>2026-04-30T12:14:09.001Z</time></trkpt><trkpt lat="43.2265666187992" lon="-2.7395588267133446"><ele>91.6</ele><time>2026-04-30T12:14:10.001Z</time></trkpt><trkpt lat="43.22659119177339" lon="-2.7396864083560564"><ele>92.4</ele><time>2026-04-30T12:14:11.001Z</time></trkpt><trkpt lat="43.22661446961171" lon="-2.7398133985352535"><ele>93.2</ele><time>2026-04-30T12:14:12.001Z</time></trkpt><trkpt lat="43.22663489068904" lon="-2.7399439617831836"><ele>94.0</ele><time>2026-04-30T12:14:13.001Z</time></trkpt><trkpt lat="43.2266556415975" lon="-2.7400729518063662"><ele>94.0</ele><time>2026-04-30T12:14:14.001Z</time></trkpt><trkpt lat="43.22667653522811" lon="-2.740198478040393"><ele>94.0</ele><time>2026-04-30T12:14:15.001Z</time></trkpt><trkpt lat="43.22669756593186" lon="-2.7403281708734477"><ele>94.0</ele><time>2026-04-30T12:14:16.001Z</time></trkpt><trkpt lat="43.22671895924059" lon="-2.740459950821952"><ele>94.0</ele><time>2026-04-30T12:14:17.001Z</time></trkpt><trkpt lat="43.226742322110844" lon="-2.740581986290697"><ele>94.0</ele><time>2026-04-30T12:14:18.001Z</time></trkpt><trkpt lat="43.22676331117389" lon="-2.7407113510485708"><ele>94.4</ele><time>2026-04-30T12:14:19.001Z</time></trkpt><trkpt lat="43.226785032435885" lon="-2.7408405789955466"><ele>94.80000000000001</ele><time>2026-04-30T12:14:20.001Z</time></trkpt><trkpt lat="43.22681027721419" lon="-2.7409646814858344"><ele>95.19999999999999</ele><time>2026-04-30T12:14:21.001Z</time></trkpt><trkpt lat="43.22683169119755" lon="-2.7410869889121465"><ele>95.6</ele><time>2026-04-30T12:14:22.001Z</time></trkpt><trkpt lat="43.22685628727906" lon="-2.741214262055519"><ele>96.0</ele><time>2026-04-30T12:14:23.001Z</time></trkpt><trkpt lat="43.22688424447725" lon="-2.7413371360498"><ele>96.0</ele><time>2026-04-30T12:14:24.001Z</time></trkpt><trkpt lat="43.22691082282802" lon="-2.741460773948241"><ele>96.0</ele><time>2026-04-30T12:14:25.001Z</time></trkpt><trkpt lat="43.22693912764635" lon="-2.7415853429358763"><ele>96.0</ele><time>2026-04-30T12:14:26.001Z</time></trkpt><trkpt lat="43.22697013092453" lon="-2.7417065693382474"><ele>96.0</ele><time>2026-04-30T12:14:27.001Z</time></trkpt><trkpt lat="43.227003122507156" lon="-2.741825676901777"><ele>96.0</ele><time>2026-04-30T12:14:28.001Z</time></trkpt><trkpt lat="43.22703482397422" lon="-2.7419442052729797"><ele>96.0</ele><time>2026-04-30T12:14:29.001Z</time></trkpt><trkpt lat="43.22707030509817" lon="-2.7420660038487075"><ele>96.0</ele><time>2026-04-30T12:14:30.001Z</time></trkpt><trkpt lat="43.22710877074547" lon="-2.7421834636042233"><ele>96.0</ele><time>2026-04-30T12:14:31.001Z</time></trkpt><trkpt lat="43.22714519114223" lon="-2.7423002511246826"><ele>96.0</ele><time>2026-04-30T12:14:32.001Z</time></trkpt><trkpt lat="43.227185666241084" lon="-2.742415998725978"><ele>96.0</ele><time>2026-04-30T12:14:33.001Z</time></trkpt><trkpt lat="43.22722655116091" lon="-2.742527937038811"><ele>96.0</ele><time>2026-04-30T12:14:34.001Z</time></trkpt><trkpt lat="43.2272660172973" lon="-2.742645624557909"><ele>96.0</ele><time>2026-04-30T12:14:35.001Z</time></trkpt><trkpt lat="43.227312569560155" lon="-2.742767550119115"><ele>96.0</ele><time>2026-04-30T12:14:36.001Z</time></trkpt><trkpt lat="43.22735575026956" lon="-2.7428765215182724"><ele>96.0</ele><time>2026-04-30T12:14:37.001Z</time></trkpt><trkpt lat="43.227403849130646" lon="-2.742993471341038"><ele>96.0</ele><time>2026-04-30T12:14:38.001Z</time></trkpt><trkpt lat="43.22745123182445" lon="-2.7431010536914937"><ele>96.0</ele><time>2026-04-30T12:14:39.001Z</time></trkpt><trkpt lat="43.22749920309035" lon="-2.7432192119311956"><ele>96.0</ele><time>2026-04-30T12:14:40.001Z</time></trkpt><trkpt lat="43.22754887774173" lon="-2.7433338305724155"><ele>96.0</ele><time>2026-04-30T12:14:41.001Z</time></trkpt><trkpt lat="43.227598258620475" lon="-2.743447806742527"><ele>96.0</ele><time>2026-04-30T12:14:42.001Z</time></trkpt><trkpt lat="43.22765035502266" lon="-2.743563716335296"><ele>96.0</ele><time>2026-04-30T12:14:43.001Z</time></trkpt><trkpt lat="43.22770304646398" lon="-2.743677963646485"><ele>96.0</ele><time>2026-04-30T12:14:44.002Z</time></trkpt><trkpt lat="43.227753657247206" lon="-2.7437955572845176"><ele>96.0</ele><time>2026-04-30T12:14:45.001Z</time></trkpt><trkpt lat="43.22780880566263" lon="-2.7439120826478876"><ele>96.0</ele><time>2026-04-30T12:14:46.002Z</time></trkpt><trkpt lat="43.22786276683534" lon="-2.7440273646314775"><ele>96.0</ele><time>2026-04-30T12:14:47.002Z</time></trkpt><trkpt lat="43.227914924034536" lon="-2.744148516958225"><ele>96.0</ele><time>2026-04-30T12:14:48.002Z</time></trkpt><trkpt lat="43.227966173733435" lon="-2.7442727667067053"><ele>95.6</ele><time>2026-04-30T12:14:49.002Z</time></trkpt><trkpt lat="43.22801405297086" lon="-2.7443997426146702"><ele>95.19999999999999</ele><time>2026-04-30T12:14:50.002Z</time></trkpt><trkpt lat="43.228060070077774" lon="-2.7445247087469498"><ele>94.80000000000001</ele><time>2026-04-30T12:14:51.002Z</time></trkpt><trkpt lat="43.22810356852157" lon="-2.744656069888165"><ele>94.4</ele><time>2026-04-30T12:14:52.002Z</time></trkpt><trkpt lat="43.228149674596295" lon="-2.7447877474190254"><ele>94.0</ele><time>2026-04-30T12:14:53.002Z</time></trkpt><trkpt lat="43.22818575731108" lon="-2.744922808499548"><ele>94.0</ele><time>2026-04-30T12:14:54.002Z</time></trkpt><trkpt lat="43.22821702088964" lon="-2.7450637231864063"><ele>94.0</ele><time>2026-04-30T12:14:55.002Z</time></trkpt><trkpt lat="43.22824904327992" lon="-2.745203684558005"><ele>94.0</ele><time>2026-04-30T12:14:56.002Z</time></trkpt><trkpt lat="43.228276761841215" lon="-2.745344935138186"><ele>94.0</ele><time>2026-04-30T12:14:57.002Z</time></trkpt><trkpt lat="43.22829905571863" lon="-2.7454876945495417"><ele>94.0</ele><time>2026-04-30T12:14:58.002Z</time></trkpt><trkpt lat="43.22831933262893" lon="-2.7456268367269803"><ele>94.0</ele><time>2026-04-30T12:14:59.002Z</time></trkpt><trkpt lat="43.22833380901239" lon="-2.745772782794553"><ele>94.0</ele><time>2026-04-30T12:15:00.002Z</time></trkpt><trkpt lat="43.22834913006476" lon="-2.7459175891389034"><ele>94.0</ele><time>2026-04-30T12:15:01.002Z</time></trkpt><trkpt lat="43.228362001119635" lon="-2.7460639968654696"><ele>94.0</ele><time>2026-04-30T12:15:02.002Z</time></trkpt><trkpt lat="43.22836429965288" lon="-2.7462061191177716"><ele>94.0</ele><time>2026-04-30T12:15:03.002Z</time></trkpt><trkpt lat="43.22836769803506" lon="-2.746345523778014"><ele>94.0</ele><time>2026-04-30T12:15:04.002Z</time></trkpt><trkpt lat="43.22836717227754" lon="-2.7464875981779078"><ele>94.0</ele><time>2026-04-30T12:15:05.002Z</time></trkpt><trkpt lat="43.22836345020903" lon="-2.7466274559331736"><ele>94.0</ele><time>2026-04-30T12:15:06.002Z</time></trkpt><trkpt lat="43.2283568374324" lon="-2.746770503636241"><ele>94.0</ele><time>2026-04-30T12:15:07.002Z</time></trkpt><trkpt lat="43.2283453537411" lon="-2.746912241853043"><ele>94.0</ele><time>2026-04-30T12:15:08.002Z</time></trkpt><trkpt lat="43.22833090862668" lon="-2.747053912834404"><ele>94.0</ele><time>2026-04-30T12:15:09.002Z</time></trkpt><trkpt lat="43.22831722539839" lon="-2.747197569470819"><ele>94.0</ele><time>2026-04-30T12:15:10.002Z</time></trkpt><trkpt lat="43.228304158694264" lon="-2.7473428353594453"><ele>94.0</ele><time>2026-04-30T12:15:11.002Z</time></trkpt><trkpt lat="43.228287783590446" lon="-2.7474853003093185"><ele>94.0</ele><time>2026-04-30T12:15:12.002Z</time></trkpt><trkpt lat="43.22827133037909" lon="-2.7476246429685696"><ele>94.0</ele><time>2026-04-30T12:15:13.002Z</time></trkpt><trkpt lat="43.22824921896257" lon="-2.7477691805937665"><ele>94.80000000000001</ele><time>2026-04-30T12:15:14.002Z</time></trkpt><trkpt lat="43.22823017515263" lon="-2.747909058164745"><ele>95.60000000000001</ele><time>2026-04-30T12:15:15.002Z</time></trkpt><trkpt lat="43.228211591877894" lon="-2.7480521163863667"><ele>96.4</ele><time>2026-04-30T12:15:16.002Z</time></trkpt><trkpt lat="43.2281944322466" lon="-2.748195532899016"><ele>97.2</ele><time>2026-04-30T12:15:17.002Z</time></trkpt><trkpt lat="43.22818133134136" lon="-2.7483402720923276"><ele>98.0</ele><time>2026-04-30T12:15:18.002Z</time></trkpt><trkpt lat="43.22816966367888" lon="-2.748484482713451"><ele>98.0</ele><time>2026-04-30T12:15:19.002Z</time></trkpt><trkpt lat="43.22815994921625" lon="-2.7486298547175534"><ele>98.0</ele><time>2026-04-30T12:15:20.002Z</time></trkpt><trkpt lat="43.22815044672989" lon="-2.7487749979535256"><ele>98.0</ele><time>2026-04-30T12:15:21.002Z</time></trkpt><trkpt lat="43.22814371609896" lon="-2.7489197069813134"><ele>98.0</ele><time>2026-04-30T12:15:22.002Z</time></trkpt><trkpt lat="43.228139121228175" lon="-2.7490593276682063"><ele>98.0</ele><time>2026-04-30T12:15:23.002Z</time></trkpt><trkpt lat="43.22813800596312" lon="-2.7492015493323625"><ele>98.0</ele><time>2026-04-30T12:15:24.002Z</time></trkpt><trkpt lat="43.22814058931298" lon="-2.7493446296285815"><ele>98.0</ele><time>2026-04-30T12:15:25.002Z</time></trkpt><trkpt lat="43.22814535514251" lon="-2.7494904893542294"><ele>98.0</ele><time>2026-04-30T12:15:26.002Z</time></trkpt><trkpt lat="43.22815905577556" lon="-2.7496373394502513"><ele>98.0</ele><time>2026-04-30T12:15:27.003Z</time></trkpt><trkpt lat="43.22817436325841" lon="-2.7497823022192396"><ele>98.0</ele><time>2026-04-30T12:15:28.003Z</time></trkpt><trkpt lat="43.228193332890505" lon="-2.7499281519680907"><ele>99.4</ele><time>2026-04-30T12:15:29.003Z</time></trkpt><trkpt lat="43.228214952791504" lon="-2.7500697303350785"><ele>100.80000000000001</ele><time>2026-04-30T12:15:30Z</time></trkpt><trkpt lat="43.228235421899285" lon="-2.7502170382118236"><ele>102.2</ele><time>2026-04-30T12:15:31Z</time></trkpt><trkpt lat="43.22825942332691" lon="-2.7503628063153376"><ele>103.6</ele><time>2026-04-30T12:15:32Z</time></trkpt><trkpt lat="43.22828310084703" lon="-2.750503620565883"><ele>105.0</ele><time>2026-04-30T12:15:33Z</time></trkpt><trkpt lat="43.22830830128289" lon="-2.750646110178701"><ele>105.4</ele><time>2026-04-30T12:15:34Z</time></trkpt><trkpt lat="43.2283345682847" lon="-2.7507877956293942"><ele>105.8</ele><time>2026-04-30T12:15:35Z</time></trkpt><trkpt lat="43.22836227805598" lon="-2.750930351912837"><ele>106.19999999999999</ele><time>2026-04-30T12:15:36Z</time></trkpt><trkpt lat="43.22839163375524" lon="-2.7510719283340355"><ele>106.6</ele><time>2026-04-30T12:15:37Z</time></trkpt><trkpt lat="43.22841905066961" lon="-2.751213871320374"><ele>107.0</ele><time>2026-04-30T12:15:38Z</time></trkpt><trkpt lat="43.228446052648934" lon="-2.7513559573751425"><ele>107.0</ele><time>2026-04-30T12:15:39Z</time></trkpt><trkpt lat="43.228476461394095" lon="-2.7514991830265703"><ele>106.99999999999999</ele><time>2026-04-30T12:15:40Z</time></trkpt><trkpt lat="43.22850125471032" lon="-2.751640379642431"><ele>106.99999999999999</ele><time>2026-04-30T12:15:41Z</time></trkpt><trkpt lat="43.22852818678916" lon="-2.751784571053459"><ele>107.0</ele><time>2026-04-30T12:15:42Z</time></trkpt><trkpt lat="43.22855384884052" lon="-2.75192815212191"><ele>107.0</ele><time>2026-04-30T12:15:43Z</time></trkpt><trkpt lat="43.228578168221" lon="-2.7520705974582524"><ele>107.19999999999999</ele><time>2026-04-30T12:15:44Z</time></trkpt><trkpt lat="43.22860457936896" lon="-2.7522168378654297"><ele>107.39999999999999</ele><time>2026-04-30T12:15:45Z</time></trkpt><trkpt lat="43.2286251583795" lon="-2.7523650548808662"><ele>107.60000000000001</ele><time>2026-04-30T12:15:46Z</time></trkpt><trkpt lat="43.22864769418407" lon="-2.752512352497319"><ele>107.80000000000001</ele><time>2026-04-30T12:15:47Z</time></trkpt><trkpt lat="43.228670706115494" lon="-2.7526634257149527"><ele>108.0</ele><time>2026-04-30T12:15:48Z</time></trkpt><trkpt lat="43.228694178701794" lon="-2.7528148969390247"><ele>107.5</ele><time>2026-04-30T12:15:49Z</time></trkpt><trkpt lat="43.22871586390659" lon="-2.752965629884633"><ele>107.0</ele><time>2026-04-30T12:15:50Z</time></trkpt><trkpt lat="43.22873878596171" lon="-2.7531174463613746"><ele>106.5</ele><time>2026-04-30T12:15:51Z</time></trkpt><trkpt lat="43.22876340946234" lon="-2.753270638858592"><ele>106.0</ele><time>2026-04-30T12:15:52Z</time></trkpt><trkpt lat="43.22878877220056" lon="-2.7534253416719525"><ele>105.6</ele><time>2026-04-30T12:15:53Z</time></trkpt><trkpt lat="43.22881209106574" lon="-2.7535769685211067"><ele>105.19999999999999</ele><time>2026-04-30T12:15:54Z</time></trkpt><trkpt lat="43.22883759987706" lon="-2.7537279884023524"><ele>104.80000000000001</ele><time>2026-04-30T12:15:55Z</time></trkpt><trkpt lat="43.228846562378926" lon="-2.75388394429339"><ele>104.4</ele><time>2026-04-30T12:15:56Z</time></trkpt><trkpt lat="43.228879159061606" lon="-2.7540271843454835"><ele>104.0</ele><time>2026-04-30T12:15:57Z</time></trkpt><trkpt lat="43.22890152442016" lon="-2.754170737752817"><ele>104.0</ele><time>2026-04-30T12:15:58Z</time></trkpt><trkpt lat="43.22892271657387" lon="-2.754315334384874"><ele>104.0</ele><time>2026-04-30T12:15:59Z</time></trkpt><trkpt lat="43.228946554883244" lon="-2.754460572704111"><ele>104.0</ele><time>2026-04-30T12:16:00Z</time></trkpt><trkpt lat="43.22896697384344" lon="-2.75460757809688"><ele>104.0</ele><time>2026-04-30T12:16:01Z</time></trkpt><trkpt lat="43.2289870490692" lon="-2.754751111852806"><ele>104.0</ele><time>2026-04-30T12:16:02Z</time></trkpt><trkpt lat="43.22901042488601" lon="-2.754896435883264"><ele>103.4</ele><time>2026-04-30T12:16:03Z</time></trkpt><trkpt lat="43.22903202339991" lon="-2.755038988264634"><ele>102.80000000000001</ele><time>2026-04-30T12:16:04Z</time></trkpt><trkpt lat="43.2290518767522" lon="-2.755179742292357"><ele>102.19999999999999</ele><time>2026-04-30T12:16:05Z</time></trkpt><trkpt lat="43.229071696498366" lon="-2.7553161417675147"><ele>101.6</ele><time>2026-04-30T12:16:06Z</time></trkpt><trkpt lat="43.22909299462807" lon="-2.7554528809344987"><ele>101.0</ele><time>2026-04-30T12:16:07Z</time></trkpt><trkpt lat="43.2291116681549" lon="-2.755585751102623"><ele>100.6</ele><time>2026-04-30T12:16:08Z</time></trkpt><trkpt lat="43.22913387555253" lon="-2.7557206266704695"><ele>100.19999999999999</ele><time>2026-04-30T12:16:09.001Z</time></trkpt><trkpt lat="43.22915322943473" lon="-2.755853387435813"><ele>99.80000000000001</ele><time>2026-04-30T12:16:10.001Z</time></trkpt><trkpt lat="43.2291699975666" lon="-2.755982386315899"><ele>99.4</ele><time>2026-04-30T12:16:11.001Z</time></trkpt><trkpt lat="43.2291879566534" lon="-2.7561074186628334"><ele>99.0</ele><time>2026-04-30T12:16:12.001Z</time></trkpt><trkpt lat="43.22920742099409" lon="-2.756230488713607"><ele>98.83333333333333</ele><time>2026-04-30T12:16:13.001Z</time></trkpt><trkpt lat="43.22922754497427" lon="-2.7563425920441653"><ele>98.66666666666666</ele><time>2026-04-30T12:16:14.001Z</time></trkpt><trkpt lat="43.22924234944064" lon="-2.7564414043049474"><ele>98.5</ele><time>2026-04-30T12:16:15.001Z</time></trkpt><trkpt lat="43.229256545351035" lon="-2.756531448666314"><ele>98.33333333333333</ele><time>2026-04-30T12:16:16.001Z</time></trkpt><trkpt lat="43.229286576852836" lon="-2.7566581354765156"><ele>98.16666666666666</ele><time>2026-04-30T12:16:18.001Z</time></trkpt><trkpt lat="43.22931994068894" lon="-2.756772983599528"><ele>98.0</ele><time>2026-04-30T12:16:20.001Z</time></trkpt><trkpt lat="43.22939552215456" lon="-2.756908858979536"><ele>98.0</ele><time>2026-04-30T12:16:22.001Z</time></trkpt><trkpt lat="43.229444947498266" lon="-2.756972945108467"><ele>98.0</ele><time>2026-04-30T12:16:23.001Z</time></trkpt><trkpt lat="43.22948672265547" lon="-2.757046261195312"><ele>98.0</ele><time>2026-04-30T12:16:24.001Z</time></trkpt><trkpt lat="43.22952021878405" lon="-2.757134421261866"><ele>98.0</ele><time>2026-04-30T12:16:25.001Z</time></trkpt><trkpt lat="43.22953805559917" lon="-2.757235127430329"><ele>98.0</ele><time>2026-04-30T12:16:26.001Z</time></trkpt><trkpt lat="43.22953651159552" lon="-2.7573445307226825"><ele>98.0</ele><time>2026-04-30T12:16:27.001Z</time></trkpt><trkpt lat="43.22952081174593" lon="-2.757455899743272"><ele>98.0</ele><time>2026-04-30T12:16:28.001Z</time></trkpt><trkpt lat="43.22950229551082" lon="-2.7575671013608547"><ele>97.99999999999999</ele><time>2026-04-30T12:16:29.001Z</time></trkpt><trkpt lat="43.22948831133047" lon="-2.7576821837499312"><ele>98.0</ele><time>2026-04-30T12:16:30.001Z</time></trkpt><trkpt lat="43.229479310986605" lon="-2.7577978878607006"><ele>98.0</ele><time>2026-04-30T12:16:31.001Z</time></trkpt><trkpt lat="43.22947804851993" lon="-2.757917544564524"><ele>98.0</ele><time>2026-04-30T12:16:32.001Z</time></trkpt><trkpt lat="43.229487014284864" lon="-2.758039386579581"><ele>97.99999999999999</ele><time>2026-04-30T12:16:33.001Z</time></trkpt><trkpt lat="43.22950959167435" lon="-2.7581601858170193"><ele>98.0</ele><time>2026-04-30T12:16:34.001Z</time></trkpt><trkpt lat="43.22953571624906" lon="-2.758278352969316"><ele>97.60000000000001</ele><time>2026-04-30T12:16:35.001Z</time></trkpt><trkpt lat="43.22955454362527" lon="-2.758403079987762"><ele>97.2</ele><time>2026-04-30T12:16:36.001Z</time></trkpt><trkpt lat="43.22957252297045" lon="-2.7585280131237915"><ele>96.8</ele><time>2026-04-30T12:16:37.001Z</time></trkpt><trkpt lat="43.229591142565674" lon="-2.758647413401316"><ele>96.4</ele><time>2026-04-30T12:16:38.001Z</time></trkpt><trkpt lat="43.22961399565053" lon="-2.75877744936923"><ele>96.0</ele><time>2026-04-30T12:16:39.001Z</time></trkpt><trkpt lat="43.22963350672917" lon="-2.758903426646988"><ele>95.6</ele><time>2026-04-30T12:16:40.001Z</time></trkpt><trkpt lat="43.22965193298251" lon="-2.759029397712577"><ele>95.19999999999999</ele><time>2026-04-30T12:16:41.001Z</time></trkpt><trkpt lat="43.22967063119154" lon="-2.7591575270608333"><ele>94.80000000000001</ele><time>2026-04-30T12:16:42.001Z</time></trkpt><trkpt lat="43.22969146230387" lon="-2.759286978720685"><ele>94.4</ele><time>2026-04-30T12:16:43.001Z</time></trkpt><trkpt lat="43.22971066831454" lon="-2.7594207350799675"><ele>94.0</ele><time>2026-04-30T12:16:44.001Z</time></trkpt><trkpt lat="43.229731427279326" lon="-2.759555692995796"><ele>93.80000000000001</ele><time>2026-04-30T12:16:45.001Z</time></trkpt><trkpt lat="43.229748129467815" lon="-2.759691486715121"><ele>93.60000000000001</ele><time>2026-04-30T12:16:46.001Z</time></trkpt><trkpt lat="43.229770639680666" lon="-2.759831280069582"><ele>93.4</ele><time>2026-04-30T12:16:47.001Z</time></trkpt><trkpt lat="43.22979164126511" lon="-2.7599687248331795"><ele>93.2</ele><time>2026-04-30T12:16:48.001Z</time></trkpt><trkpt lat="43.22981227666082" lon="-2.760108523352853"><ele>93.0</ele><time>2026-04-30T12:16:49.002Z</time></trkpt><trkpt lat="43.229834331927805" lon="-2.760249979663457"><ele>94.0</ele><time>2026-04-30T12:16:50.002Z</time></trkpt><trkpt lat="43.229854058383296" lon="-2.760389103663041"><ele>95.0</ele><time>2026-04-30T12:16:51.002Z</time></trkpt><trkpt lat="43.22986546253912" lon="-2.760514422711664"><ele>96.0</ele><time>2026-04-30T12:16:52.002Z</time></trkpt><trkpt lat="43.22988237082476" lon="-2.7606063514257912"><ele>97.0</ele><time>2026-04-30T12:16:53.002Z</time></trkpt><trkpt lat="43.22990423177536" lon="-2.7608053776898682"><ele>98.0</ele><time>2026-04-30T12:16:54.002Z</time></trkpt><trkpt lat="43.229926913335916" lon="-2.760954061761982"><ele>97.60000000000001</ele><time>2026-04-30T12:16:55.002Z</time></trkpt><trkpt lat="43.2299512948024" lon="-2.7610947636478733"><ele>97.2</ele><time>2026-04-30T12:16:56.002Z</time></trkpt><trkpt lat="43.22997180469659" lon="-2.7612363623001555"><ele>96.8</ele><time>2026-04-30T12:16:57.002Z</time></trkpt><trkpt lat="43.22999646040207" lon="-2.7613770288395383"><ele>96.4</ele><time>2026-04-30T12:16:58.002Z</time></trkpt><trkpt lat="43.23001961193286" lon="-2.7615216970943983"><ele>96.0</ele><time>2026-04-30T12:16:59.002Z</time></trkpt><trkpt lat="43.23003889736509" lon="-2.7616672960849047"><ele>96.0</ele><time>2026-04-30T12:17:00.002Z</time></trkpt><trkpt lat="43.23006990352523" lon="-2.7618118451735576"><ele>96.0</ele><time>2026-04-30T12:17:01.002Z</time></trkpt><trkpt lat="43.23008900300126" lon="-2.7619599274570903"><ele>96.0</ele><time>2026-04-30T12:17:02.002Z</time></trkpt><trkpt lat="43.23011180457752" lon="-2.7621064469441294"><ele>96.0</ele><time>2026-04-30T12:17:03.002Z</time></trkpt><trkpt lat="43.23013461920299" lon="-2.762256052373571"><ele>96.0</ele><time>2026-04-30T12:17:04.002Z</time></trkpt><trkpt lat="43.23015919575736" lon="-2.7623990975412687"><ele>96.0</ele><time>2026-04-30T12:17:05.002Z</time></trkpt><trkpt lat="43.23017546054978" lon="-2.7625521416860384"><ele>96.0</ele><time>2026-04-30T12:17:06.002Z</time></trkpt><trkpt lat="43.23020069323202" lon="-2.762697484719281"><ele>96.0</ele><time>2026-04-30T12:17:07.002Z</time></trkpt><trkpt lat="43.23022475904989" lon="-2.762847961269447"><ele>96.0</ele><time>2026-04-30T12:17:08.002Z</time></trkpt><trkpt lat="43.230247781670194" lon="-2.7630005034707312"><ele>96.0</ele><time>2026-04-30T12:17:09.002Z</time></trkpt><trkpt lat="43.23027017768962" lon="-2.7631512474453563"><ele>96.4</ele><time>2026-04-30T12:17:10.002Z</time></trkpt><trkpt lat="43.230293033840134" lon="-2.763298934162642"><ele>96.8</ele><time>2026-04-30T12:17:11.002Z</time></trkpt><trkpt lat="43.23032474511754" lon="-2.76344702438029"><ele>97.2</ele><time>2026-04-30T12:17:12.002Z</time></trkpt><trkpt lat="43.230346869566134" lon="-2.76359300384663"><ele>97.60000000000001</ele><time>2026-04-30T12:17:13.002Z</time></trkpt><trkpt lat="43.23036441170704" lon="-2.763742977938523"><ele>98.0</ele><time>2026-04-30T12:17:14.002Z</time></trkpt><trkpt lat="43.23038260835006" lon="-2.763884309405847"><ele>98.80000000000001</ele><time>2026-04-30T12:17:15.002Z</time></trkpt><trkpt lat="43.23041079522588" lon="-2.7639915817315295"><ele>99.6</ele><time>2026-04-30T12:17:16.002Z</time></trkpt><trkpt lat="43.23043946161005" lon="-2.7641763256761043"><ele>100.4</ele><time>2026-04-30T12:17:17.002Z</time></trkpt><trkpt lat="43.230458169598265" lon="-2.7643279073285307"><ele>101.19999999999999</ele><time>2026-04-30T12:17:18.002Z</time></trkpt><trkpt lat="43.230474416410736" lon="-2.7644772586598902"><ele>102.0</ele><time>2026-04-30T12:17:19.002Z</time></trkpt><trkpt lat="43.230499860607814" lon="-2.764625732906528"><ele>102.19999999999999</ele><time>2026-04-30T12:17:20.002Z</time></trkpt><trkpt lat="43.230522472274146" lon="-2.764772471696771"><ele>102.4</ele><time>2026-04-30T12:17:21.002Z</time></trkpt><trkpt lat="43.23054273350052" lon="-2.7649204489763504"><ele>102.6</ele><time>2026-04-30T12:17:22.002Z</time></trkpt><trkpt lat="43.23057184997008" lon="-2.765064731494129"><ele>102.80000000000001</ele><time>2026-04-30T12:17:23.002Z</time></trkpt><trkpt lat="43.23059835196058" lon="-2.765208367313587"><ele>103.0</ele><time>2026-04-30T12:17:24.002Z</time></trkpt><trkpt lat="43.230623073893575" lon="-2.765355913658899"><ele>100.75</ele><time>2026-04-30T12:17:25.002Z</time></trkpt><trkpt lat="43.23064808662983" lon="-2.7655054602432654"><ele>98.5</ele><time>2026-04-30T12:17:26.002Z</time></trkpt><trkpt lat="43.23067320378698" lon="-2.765654000264225"><ele>96.25</ele><time>2026-04-30T12:17:27.002Z</time></trkpt><trkpt lat="43.230696323477844" lon="-2.7658062256689373"><ele>94.0</ele><time>2026-04-30T12:17:28.002Z</time></trkpt><trkpt lat="43.23071990789089" lon="-2.7659586092726074"><ele>93.5</ele><time>2026-04-30T12:17:29.003Z</time></trkpt><trkpt lat="43.23074361272176" lon="-2.7661099861282"><ele>93.0</ele><time>2026-04-30T12:17:30.003Z</time></trkpt><trkpt lat="43.23076846962047" lon="-2.766263996705103"><ele>92.5</ele><time>2026-04-30T12:17:31.003Z</time></trkpt><trkpt lat="43.23079178740001" lon="-2.7664149700054224"><ele>92.0</ele><time>2026-04-30T12:17:32.003Z</time></trkpt><trkpt lat="43.230812917294635" lon="-2.7665650983643344"><ele>92.0</ele><time>2026-04-30T12:17:33.003Z</time></trkpt><trkpt lat="43.23083171049992" lon="-2.7667118667978317"><ele>92.0</ele><time>2026-04-30T12:17:34.003Z</time></trkpt><trkpt lat="43.23085036568835" lon="-2.7668640448744832"><ele>92.0</ele><time>2026-04-30T12:17:35.003Z</time></trkpt><trkpt lat="43.230869533088686" lon="-2.767013093153771"><ele>92.0</ele><time>2026-04-30T12:17:35.999Z</time></trkpt><trkpt lat="43.23088896115779" lon="-2.7671622252056745"><ele>92.0</ele><time>2026-04-30T12:17:36.999Z</time></trkpt><trkpt lat="43.230904494156" lon="-2.7673056317118467"><ele>92.39999999999999</ele><time>2026-04-30T12:17:37.999Z</time></trkpt><trkpt lat="43.230923773908295" lon="-2.767452350416817"><ele>92.8</ele><time>2026-04-30T12:17:38.999Z</time></trkpt><trkpt lat="43.23094928247991" lon="-2.767601552902056"><ele>93.2</ele><time>2026-04-30T12:17:39.999Z</time></trkpt><trkpt lat="43.23097440340985" lon="-2.7677481876201253"><ele>93.6</ele><time>2026-04-30T12:17:40.999Z</time></trkpt><trkpt lat="43.23099804286899" lon="-2.767897005977735"><ele>94.0</ele><time>2026-04-30T12:17:41.999Z</time></trkpt><trkpt lat="43.231022845013214" lon="-2.7680406880035666"><ele>94.2</ele><time>2026-04-30T12:17:42.999Z</time></trkpt><trkpt lat="43.23103583374996" lon="-2.7681899979942615"><ele>94.4</ele><time>2026-04-30T12:17:43.999Z</time></trkpt><trkpt lat="43.23104794876798" lon="-2.7683356032817565"><ele>94.6</ele><time>2026-04-30T12:17:44.999Z</time></trkpt><trkpt lat="43.231056516607275" lon="-2.768482785091623"><ele>94.8</ele><time>2026-04-30T12:17:45.999Z</time></trkpt><trkpt lat="43.231051268548555" lon="-2.768631880001149"><ele>95.0</ele><time>2026-04-30T12:17:46.999Z</time></trkpt><trkpt lat="43.231033143285224" lon="-2.768779026143269"><ele>94.6</ele><time>2026-04-30T12:17:47.999Z</time></trkpt><trkpt lat="43.23101281877392" lon="-2.768924590179895"><ele>94.2</ele><time>2026-04-30T12:17:48.999Z</time></trkpt><trkpt lat="43.23099174608026" lon="-2.769067315042697"><ele>93.80000000000001</ele><time>2026-04-30T12:17:49.999Z</time></trkpt><trkpt lat="43.230971973103486" lon="-2.769212270039211"><ele>93.4</ele><time>2026-04-30T12:17:50.999Z</time></trkpt><trkpt lat="43.23094459605122" lon="-2.7693491203989233"><ele>93.0</ele><time>2026-04-30T12:17:52Z</time></trkpt><trkpt lat="43.23091454837961" lon="-2.769486986117624"><ele>93.0</ele><time>2026-04-30T12:17:53Z</time></trkpt><trkpt lat="43.23089775363067" lon="-2.769632491622329"><ele>93.0</ele><time>2026-04-30T12:17:54Z</time></trkpt><trkpt lat="43.230875755479325" lon="-2.76977512788487"><ele>93.0</ele><time>2026-04-30T12:17:55Z</time></trkpt><trkpt lat="43.23084764391324" lon="-2.7699140709894614"><ele>93.0</ele><time>2026-04-30T12:17:56Z</time></trkpt><trkpt lat="43.23082371697117" lon="-2.7700555346142535"><ele>93.0</ele><time>2026-04-30T12:17:57Z</time></trkpt><trkpt lat="43.23080153771466" lon="-2.7701996960826976"><ele>94.2</ele><time>2026-04-30T12:17:58Z</time></trkpt><trkpt lat="43.23077551880852" lon="-2.770340489984445"><ele>95.4</ele><time>2026-04-30T12:17:59Z</time></trkpt><trkpt lat="43.23074861719908" lon="-2.770486255965642"><ele>96.60000000000001</ele><time>2026-04-30T12:18:00Z</time></trkpt><trkpt lat="43.23072419874493" lon="-2.770632805644987"><ele>97.80000000000001</ele><time>2026-04-30T12:18:01Z</time></trkpt><trkpt lat="43.23070753933555" lon="-2.7707809968405694"><ele>99.0</ele><time>2026-04-30T12:18:02Z</time></trkpt><trkpt lat="43.23069195257782" lon="-2.770931462007368"><ele>99.25</ele><time>2026-04-30T12:18:03Z</time></trkpt><trkpt lat="43.230677694143495" lon="-2.7710833970901367"><ele>99.5</ele><time>2026-04-30T12:18:04Z</time></trkpt><trkpt lat="43.23066655724723" lon="-2.7712386758930916"><ele>99.75</ele><time>2026-04-30T12:18:05Z</time></trkpt><trkpt lat="43.23065622987929" lon="-2.7713958184884855"><ele>100.0</ele><time>2026-04-30T12:18:06Z</time></trkpt><trkpt lat="43.23064549349905" lon="-2.7715545424597012"><ele>97.5</ele><time>2026-04-30T12:18:07Z</time></trkpt><trkpt lat="43.230636335958685" lon="-2.771709806911957"><ele>95.0</ele><time>2026-04-30T12:18:08Z</time></trkpt><trkpt lat="43.23062900251047" lon="-2.7718690291905865"><ele>92.5</ele><time>2026-04-30T12:18:09Z</time></trkpt><trkpt lat="43.23062906963219" lon="-2.7720298646587564"><ele>90.0</ele><time>2026-04-30T12:18:10Z</time></trkpt><trkpt lat="43.23063526163779" lon="-2.772193062834342"><ele>89.25</ele><time>2026-04-30T12:18:11Z</time></trkpt><trkpt lat="43.230635182645024" lon="-2.772356593674559"><ele>88.5</ele><time>2026-04-30T12:18:12Z</time></trkpt><trkpt lat="43.2306359498552" lon="-2.772526207928753"><ele>87.75</ele><time>2026-04-30T12:18:13Z</time></trkpt><trkpt lat="43.23064082500194" lon="-2.772690360997226"><ele>87.0</ele><time>2026-04-30T12:18:14Z</time></trkpt><trkpt lat="43.23064932408315" lon="-2.7728558601887716"><ele>87.0</ele><time>2026-04-30T12:18:15Z</time></trkpt><trkpt lat="43.23066565885996" lon="-2.7730260557528745"><ele>87.0</ele><time>2026-04-30T12:18:16Z</time></trkpt><trkpt lat="43.23067921432078" lon="-2.7731924292203263"><ele>87.0</ele><time>2026-04-30T12:18:17Z</time></trkpt><trkpt lat="43.230696035285206" lon="-2.773360269110548"><ele>87.0</ele><time>2026-04-30T12:18:18Z</time></trkpt><trkpt lat="43.23071482487198" lon="-2.7735247065809085"><ele>86.5</ele><time>2026-04-30T12:18:19Z</time></trkpt><trkpt lat="43.23072910309891" lon="-2.7736877859165414"><ele>86.0</ele><time>2026-04-30T12:18:20Z</time></trkpt><trkpt lat="43.2307453951965" lon="-2.773849627849146"><ele>85.5</ele><time>2026-04-30T12:18:21.001Z</time></trkpt><trkpt lat="43.23076523292218" lon="-2.7740071668314474"><ele>85.0</ele><time>2026-04-30T12:18:22.001Z</time></trkpt><trkpt lat="43.23078139390652" lon="-2.7741635086856715"><ele>85.0</ele><time>2026-04-30T12:18:23.001Z</time></trkpt><trkpt lat="43.230791471494136" lon="-2.7743137967334164"><ele>85.0</ele><time>2026-04-30T12:18:24.001Z</time></trkpt><trkpt lat="43.23082223554366" lon="-2.77447745727353"><ele>85.0</ele><time>2026-04-30T12:18:25.001Z</time></trkpt><trkpt lat="43.23083513540831" lon="-2.7746183482767717"><ele>85.0</ele><time>2026-04-30T12:18:26.001Z</time></trkpt><trkpt lat="43.230846844711806" lon="-2.774766423822322"><ele>85.0</ele><time>2026-04-30T12:18:27.001Z</time></trkpt><trkpt lat="43.23084221384297" lon="-2.7748940249785368"><ele>85.0</ele><time>2026-04-30T12:18:28.001Z</time></trkpt><trkpt lat="43.230884755029834" lon="-2.7750874651755297"><ele>85.0</ele><time>2026-04-30T12:18:29.001Z</time></trkpt><trkpt lat="43.23090850217948" lon="-2.7753017005727516"><ele>85.0</ele><time>2026-04-30T12:18:30.001Z</time></trkpt><trkpt lat="43.230933856936744" lon="-2.7755230018211803"><ele>85.0</ele><time>2026-04-30T12:18:31.001Z</time></trkpt><trkpt lat="43.230958401319164" lon="-2.775687340576821"><ele>85.0</ele><time>2026-04-30T12:18:33.001Z</time></trkpt><trkpt lat="43.23097720561864" lon="-2.775837572337651"><ele>85.0</ele><time>2026-04-30T12:18:34.001Z</time></trkpt><trkpt lat="43.230995493048184" lon="-2.775990884595831"><ele>85.0</ele><time>2026-04-30T12:18:35.001Z</time></trkpt><trkpt lat="43.23101277991405" lon="-2.7761416215561225"><ele>85.0</ele><time>2026-04-30T12:18:36.001Z</time></trkpt><trkpt lat="43.23103277260834" lon="-2.7762903825941163"><ele>85.0</ele><time>2026-04-30T12:18:37.001Z</time></trkpt><trkpt lat="43.23105130961168" lon="-2.7764398804865107"><ele>85.0</ele><time>2026-04-30T12:18:38.001Z</time></trkpt><trkpt lat="43.23106750316197" lon="-2.776589809060644"><ele>85.0</ele><time>2026-04-30T12:18:39.001Z</time></trkpt><trkpt lat="43.23108638455682" lon="-2.7767383389510676"><ele>85.0</ele><time>2026-04-30T12:18:40.001Z</time></trkpt><trkpt lat="43.23110164492665" lon="-2.7768857382346974"><ele>84.6</ele><time>2026-04-30T12:18:41.001Z</time></trkpt><trkpt lat="43.23112005111242" lon="-2.7770344600564965"><ele>84.2</ele><time>2026-04-30T12:18:42.001Z</time></trkpt><trkpt lat="43.23113679074026" lon="-2.7771819600298735"><ele>83.80000000000001</ele><time>2026-04-30T12:18:43.001Z</time></trkpt><trkpt lat="43.23115495281544" lon="-2.777326665389345"><ele>83.4</ele><time>2026-04-30T12:18:44.001Z</time></trkpt><trkpt lat="43.23116718797084" lon="-2.7774713228936476"><ele>83.0</ele><time>2026-04-30T12:18:45.001Z</time></trkpt><trkpt lat="43.23117386098455" lon="-2.777613798376228"><ele>81.80000000000001</ele><time>2026-04-30T12:18:46.001Z</time></trkpt><trkpt lat="43.23116947814933" lon="-2.777741784033112"><ele>80.60000000000001</ele><time>2026-04-30T12:18:47.001Z</time></trkpt><trkpt lat="43.231166601105265" lon="-2.777856928174194"><ele>79.4</ele><time>2026-04-30T12:18:48.001Z</time></trkpt><trkpt lat="43.231172325382985" lon="-2.7779750276901196"><ele>78.2</ele><time>2026-04-30T12:18:49.001Z</time></trkpt><trkpt lat="43.23120018208238" lon="-2.7781018550708256"><ele>77.0</ele><time>2026-04-30T12:18:50.001Z</time></trkpt><trkpt lat="43.23122940324238" lon="-2.778223347316921"><ele>77.0</ele><time>2026-04-30T12:18:51.001Z</time></trkpt><trkpt lat="43.23123768927759" lon="-2.7783505122955447"><ele>77.0</ele><time>2026-04-30T12:18:52.001Z</time></trkpt><trkpt lat="43.231215711465694" lon="-2.778485471779333"><ele>77.0</ele><time>2026-04-30T12:18:53.001Z</time></trkpt><trkpt lat="43.2311033929873" lon="-2.778588834615025"><ele>77.0</ele><time>2026-04-30T12:18:54.001Z</time></trkpt><trkpt lat="43.23108607609696" lon="-2.7787433355432887"><ele>77.0</ele><time>2026-04-30T12:18:55.001Z</time></trkpt><trkpt lat="43.23106069995399" lon="-2.7789474232175726"><ele>77.0</ele><time>2026-04-30T12:18:56.001Z</time></trkpt><trkpt lat="43.23101962034478" lon="-2.7791417022527516"><ele>77.0</ele><time>2026-04-30T12:18:58.002Z</time></trkpt><trkpt lat="43.23099939324225" lon="-2.779284223559983"><ele>77.0</ele><time>2026-04-30T12:18:59.002Z</time></trkpt><trkpt lat="43.23097905543922" lon="-2.779424193191269"><ele>77.0</ele><time>2026-04-30T12:19:00.002Z</time></trkpt><trkpt lat="43.230959398948166" lon="-2.779565066321877"><ele>77.6</ele><time>2026-04-30T12:19:01.002Z</time></trkpt><trkpt lat="43.23094107019416" lon="-2.7797083370741644"><ele>78.2</ele><time>2026-04-30T12:19:02.002Z</time></trkpt><trkpt lat="43.230924600092" lon="-2.7798515424928283"><ele>78.8</ele><time>2026-04-30T12:19:03.002Z</time></trkpt><trkpt lat="43.23090470403209" lon="-2.7799929333776157"><ele>79.4</ele><time>2026-04-30T12:19:04.002Z</time></trkpt><trkpt lat="43.230883906809105" lon="-2.780136738762124"><ele>80.0</ele><time>2026-04-30T12:19:05.002Z</time></trkpt><trkpt lat="43.230863580745336" lon="-2.7802820148118714"><ele>80.0</ele><time>2026-04-30T12:19:06.002Z</time></trkpt><trkpt lat="43.23084141689884" lon="-2.780424560258066"><ele>80.0</ele><time>2026-04-30T12:19:07.002Z</time></trkpt><trkpt lat="43.230821344477555" lon="-2.7805668518307516"><ele>80.0</ele><time>2026-04-30T12:19:08.002Z</time></trkpt><trkpt lat="43.2308021159993" lon="-2.780709954749402"><ele>80.0</ele><time>2026-04-30T12:19:09.002Z</time></trkpt><trkpt lat="43.230778964172295" lon="-2.7808521732066076"><ele>80.0</ele><time>2026-04-30T12:19:10.002Z</time></trkpt><trkpt lat="43.230758810008645" lon="-2.7809987461394554"><ele>80.4</ele><time>2026-04-30T12:19:11.002Z</time></trkpt><trkpt lat="43.23073903888928" lon="-2.7811443855083295"><ele>80.8</ele><time>2026-04-30T12:19:12.002Z</time></trkpt><trkpt lat="43.23071873601206" lon="-2.781294214780961"><ele>81.19999999999999</ele><time>2026-04-30T12:19:13.002Z</time></trkpt><trkpt lat="43.2306985863833" lon="-2.7814454388877357"><ele>81.6</ele><time>2026-04-30T12:19:14.002Z</time></trkpt><trkpt lat="43.230679826464595" lon="-2.7815915234317665"><ele>82.0</ele><time>2026-04-30T12:19:15.002Z</time></trkpt><trkpt lat="43.23066487920131" lon="-2.7817405929456247"><ele>82.0</ele><time>2026-04-30T12:19:16.002Z</time></trkpt><trkpt lat="43.2306554744939" lon="-2.7818896864192624"><ele>82.0</ele><time>2026-04-30T12:19:17.002Z</time></trkpt><trkpt lat="43.23065239302496" lon="-2.7820377275768484"><ele>82.0</ele><time>2026-04-30T12:19:18.002Z</time></trkpt><trkpt lat="43.23065755470438" lon="-2.782183938939036"><ele>82.0</ele><time>2026-04-30T12:19:19.002Z</time></trkpt><trkpt lat="43.23068365081117" lon="-2.7823182447766053"><ele>82.0</ele><time>2026-04-30T12:19:20.002Z</time></trkpt><trkpt lat="43.23072628912962" lon="-2.7824123182639373"><ele>82.0</ele><time>2026-04-30T12:19:21.002Z</time></trkpt><trkpt lat="43.230741977404556" lon="-2.7825326584450543"><ele>82.0</ele><time>2026-04-30T12:19:22.002Z</time></trkpt><trkpt lat="43.2307537455924" lon="-2.7826468059380973"><ele>82.0</ele><time>2026-04-30T12:19:23.002Z</time></trkpt><trkpt lat="43.23073155699913" lon="-2.7829349449839693"><ele>82.0</ele><time>2026-04-30T12:19:24.002Z</time></trkpt><trkpt lat="43.23074744664605" lon="-2.783091864634912"><ele>81.0</ele><time>2026-04-30T12:19:25.002Z</time></trkpt><trkpt lat="43.23076247753531" lon="-2.7832514424333445"><ele>80.0</ele><time>2026-04-30T12:19:26.002Z</time></trkpt><trkpt lat="43.23077814537218" lon="-2.783410639797001"><ele>79.0</ele><time>2026-04-30T12:19:27.002Z</time></trkpt><trkpt lat="43.230794623194335" lon="-2.783569953703868"><ele>78.0</ele><time>2026-04-30T12:19:28.002Z</time></trkpt><trkpt lat="43.23081358463391" lon="-2.783730945584727"><ele>77.5</ele><time>2026-04-30T12:19:29.002Z</time></trkpt><trkpt lat="43.23083016807288" lon="-2.7838888726840434"><ele>77.0</ele><time>2026-04-30T12:19:30.002Z</time></trkpt><trkpt lat="43.23084650402819" lon="-2.784050376125155"><ele>76.5</ele><time>2026-04-30T12:19:31.002Z</time></trkpt><trkpt lat="43.230861838510236" lon="-2.784209864164862"><ele>76.0</ele><time>2026-04-30T12:19:32.002Z</time></trkpt><trkpt lat="43.230879914057525" lon="-2.7843700397851427"><ele>75.75</ele><time>2026-04-30T12:19:33.002Z</time></trkpt><trkpt lat="43.23089670088153" lon="-2.784530561187747"><ele>75.5</ele><time>2026-04-30T12:19:34.003Z</time></trkpt><trkpt lat="43.230912778872224" lon="-2.784689286551643"><ele>75.25</ele><time>2026-04-30T12:19:35.003Z</time></trkpt><trkpt lat="43.230926031163136" lon="-2.7848461312175976"><ele>75.0</ele><time>2026-04-30T12:19:36.003Z</time></trkpt><trkpt lat="43.23093797365587" lon="-2.7849998175380053"><ele>75.0</ele><time>2026-04-30T12:19:37.003Z</time></trkpt><trkpt lat="43.230954289211425" lon="-2.785151236265807"><ele>75.0</ele><time>2026-04-30T12:19:38.003Z</time></trkpt><trkpt lat="43.23096713384013" lon="-2.7852964913162217"><ele>75.0</ele><time>2026-04-30T12:19:39.003Z</time></trkpt><trkpt lat="43.230980006059724" lon="-2.7854380967673302"><ele>75.0</ele><time>2026-04-30T12:19:40.003Z</time></trkpt><trkpt lat="43.23099332484831" lon="-2.785580471944174"><ele>75.0</ele><time>2026-04-30T12:19:41.003Z</time></trkpt><trkpt lat="43.23100384591593" lon="-2.7857196532635045"><ele>74.8</ele><time>2026-04-30T12:19:41.999Z</time></trkpt><trkpt lat="43.23101624766782" lon="-2.785861712953173"><ele>74.6</ele><time>2026-04-30T12:19:42.999Z</time></trkpt><trkpt lat="43.23102747292183" lon="-2.7860001457764887"><ele>74.4</ele><time>2026-04-30T12:19:43.999Z</time></trkpt><trkpt lat="43.23103770035301" lon="-2.7861422674546303"><ele>74.2</ele><time>2026-04-30T12:19:44.999Z</time></trkpt><trkpt lat="43.231050786299065" lon="-2.7862912208987636"><ele>74.0</ele><time>2026-04-30T12:19:45.999Z</time></trkpt><trkpt lat="43.23106398188261" lon="-2.786441739183888"><ele>74.0</ele><time>2026-04-30T12:19:46.999Z</time></trkpt><trkpt lat="43.23108045695036" lon="-2.7865982295992175"><ele>74.0</ele><time>2026-04-30T12:19:47.999Z</time></trkpt><trkpt lat="43.231097938748775" lon="-2.7867609253053005"><ele>74.0</ele><time>2026-04-30T12:19:48.999Z</time></trkpt><trkpt lat="43.23112221360497" lon="-2.786920612028288"><ele>74.0</ele><time>2026-04-30T12:19:49.999Z</time></trkpt><trkpt lat="43.23118190603956" lon="-2.78710272412099"><ele>74.25</ele><time>2026-04-30T12:19:50.999Z</time></trkpt><trkpt lat="43.23121303969918" lon="-2.7873083558243708"><ele>74.5</ele><time>2026-04-30T12:19:51.999Z</time></trkpt><trkpt lat="43.23116435671061" lon="-2.7873946354138623"><ele>74.75</ele><time>2026-04-30T12:19:52.999Z</time></trkpt><trkpt lat="43.2311813132085" lon="-2.78755327399392"><ele>75.0</ele><time>2026-04-30T12:19:53.999Z</time></trkpt><trkpt lat="43.23119776979381" lon="-2.787714455521677"><ele>75.0</ele><time>2026-04-30T12:19:54.999Z</time></trkpt><trkpt lat="43.23121191176462" lon="-2.7878744222039664"><ele>75.0</ele><time>2026-04-30T12:19:55.999Z</time></trkpt><trkpt lat="43.23122865428699" lon="-2.7880370954423808"><ele>75.0</ele><time>2026-04-30T12:19:57Z</time></trkpt><trkpt lat="43.231244610761806" lon="-2.788197926234628"><ele>75.0</ele><time>2026-04-30T12:19:58Z</time></trkpt><trkpt lat="43.231260225816335" lon="-2.7883566561199062"><ele>74.25</ele><time>2026-04-30T12:19:59Z</time></trkpt><trkpt lat="43.23127920936965" lon="-2.788517268053179"><ele>73.5</ele><time>2026-04-30T12:20:00Z</time></trkpt><trkpt lat="43.23129736605229" lon="-2.788672121993471"><ele>72.75</ele><time>2026-04-30T12:20:01Z</time></trkpt><trkpt lat="43.23131338297684" lon="-2.78882806644857"><ele>72.0</ele><time>2026-04-30T12:20:02Z</time></trkpt><trkpt lat="43.23132694495591" lon="-2.7889805992500594"><ele>72.0</ele><time>2026-04-30T12:20:03Z</time></trkpt><trkpt lat="43.231339646810625" lon="-2.789132462971009"><ele>72.0</ele><time>2026-04-30T12:20:04Z</time></trkpt><trkpt lat="43.23135195840391" lon="-2.7892803957975913"><ele>72.0</ele><time>2026-04-30T12:20:05Z</time></trkpt><trkpt lat="43.23136533190978" lon="-2.7894311052241996"><ele>72.0</ele><time>2026-04-30T12:20:06Z</time></trkpt><trkpt lat="43.23137950874465" lon="-2.7895837595219746"><ele>72.0</ele><time>2026-04-30T12:20:07Z</time></trkpt><trkpt lat="43.231398370713094" lon="-2.78974694756182"><ele>72.0</ele><time>2026-04-30T12:20:08Z</time></trkpt><trkpt lat="43.231413996307126" lon="-2.789886967284853"><ele>72.0</ele><time>2026-04-30T12:20:09Z</time></trkpt><trkpt lat="43.23143088705601" lon="-2.7900339420753713"><ele>72.0</ele><time>2026-04-30T12:20:10Z</time></trkpt><trkpt lat="43.23145029524282" lon="-2.7901848372800093"><ele>72.0</ele><time>2026-04-30T12:20:11Z</time></trkpt><trkpt lat="43.2314725544081" lon="-2.79033831407892"><ele>72.0</ele><time>2026-04-30T12:20:12Z</time></trkpt><trkpt lat="43.23149447769092" lon="-2.790495141393876"><ele>72.0</ele><time>2026-04-30T12:20:13Z</time></trkpt><trkpt lat="43.23151848662392" lon="-2.7906471535832647"><ele>72.0</ele><time>2026-04-30T12:20:14Z</time></trkpt><trkpt lat="43.23154549568686" lon="-2.790800382706519"><ele>72.0</ele><time>2026-04-30T12:20:15Z</time></trkpt><trkpt lat="43.231573991007934" lon="-2.7909419287210393"><ele>72.0</ele><time>2026-04-30T12:20:16Z</time></trkpt><trkpt lat="43.231617491246446" lon="-2.79108937948181"><ele>71.0</ele><time>2026-04-30T12:20:17Z</time></trkpt><trkpt lat="43.23165667018812" lon="-2.7912176408637026"><ele>70.0</ele><time>2026-04-30T12:20:18Z</time></trkpt><trkpt lat="43.23171142273802" lon="-2.7913594998857034"><ele>69.0</ele><time>2026-04-30T12:20:19Z</time></trkpt><trkpt lat="43.23176152011158" lon="-2.7914824259049285"><ele>68.0</ele><time>2026-04-30T12:20:20Z</time></trkpt><trkpt lat="43.231814958356864" lon="-2.7916179902705136"><ele>67.0</ele><time>2026-04-30T12:20:21Z</time></trkpt><trkpt lat="43.23187058488468" lon="-2.791753178263479"><ele>66.25</ele><time>2026-04-30T12:20:22Z</time></trkpt><trkpt lat="43.23192811737753" lon="-2.791891429163762"><ele>65.5</ele><time>2026-04-30T12:20:23Z</time></trkpt><trkpt lat="43.23198696854604" lon="-2.7920305053703953"><ele>64.75</ele><time>2026-04-30T12:20:24Z</time></trkpt><trkpt lat="43.232043699433824" lon="-2.792168578758195"><ele>64.0</ele><time>2026-04-30T12:20:25.001Z</time></trkpt><trkpt lat="43.23209791591719" lon="-2.792304470677028"><ele>64.0</ele><time>2026-04-30T12:20:26.001Z</time></trkpt><trkpt lat="43.23215376000013" lon="-2.7924407988345306"><ele>64.0</ele><time>2026-04-30T12:20:27.001Z</time></trkpt><trkpt lat="43.23220953228174" lon="-2.792575443984816"><ele>64.0</ele><time>2026-04-30T12:20:28.001Z</time></trkpt><trkpt lat="43.23226822032653" lon="-2.7927049078568675"><ele>64.0</ele><time>2026-04-30T12:20:29.001Z</time></trkpt><trkpt lat="43.23232419624677" lon="-2.7928402894261466"><ele>64.4</ele><time>2026-04-30T12:20:30.001Z</time></trkpt><trkpt lat="43.23238103680294" lon="-2.792973179646671"><ele>64.80000000000001</ele><time>2026-04-30T12:20:31.001Z</time></trkpt><trkpt lat="43.23243704390225" lon="-2.793107945248436"><ele>65.19999999999999</ele><time>2026-04-30T12:20:32.001Z</time></trkpt><trkpt lat="43.23249329758444" lon="-2.7932323842308495"><ele>65.6</ele><time>2026-04-30T12:20:33.001Z</time></trkpt><trkpt lat="43.23254965550645" lon="-2.793369569291408"><ele>66.0</ele><time>2026-04-30T12:20:34.001Z</time></trkpt><trkpt lat="43.23260556379896" lon="-2.7935021638192614"><ele>66.0</ele><time>2026-04-30T12:20:35.001Z</time></trkpt><trkpt lat="43.23266471827038" lon="-2.793630641095292"><ele>66.0</ele><time>2026-04-30T12:20:36.001Z</time></trkpt><trkpt lat="43.23272260092193" lon="-2.793760288777872"><ele>66.0</ele><time>2026-04-30T12:20:37.001Z</time></trkpt><trkpt lat="43.232775462233164" lon="-2.793895636860261"><ele>66.0</ele><time>2026-04-30T12:20:38.001Z</time></trkpt><trkpt lat="43.232829439988365" lon="-2.7940280842622625"><ele>66.0</ele><time>2026-04-30T12:20:39.001Z</time></trkpt><trkpt lat="43.232886299852424" lon="-2.7941565589136608"><ele>66.0</ele><time>2026-04-30T12:20:40.001Z</time></trkpt><trkpt lat="43.232940436575106" lon="-2.794287318871457"><ele>66.0</ele><time>2026-04-30T12:20:41.001Z</time></trkpt><trkpt lat="43.23299142760794" lon="-2.794422934871267"><ele>66.0</ele><time>2026-04-30T12:20:42.001Z</time></trkpt><trkpt lat="43.233045460687265" lon="-2.7945515836361556"><ele>66.0</ele><time>2026-04-30T12:20:43.001Z</time></trkpt><trkpt lat="43.233100578581926" lon="-2.794681957444057"><ele>66.0</ele><time>2026-04-30T12:20:44.001Z</time></trkpt><trkpt lat="43.233152643423594" lon="-2.794812349095506"><ele>66.2</ele><time>2026-04-30T12:20:45.001Z</time></trkpt><trkpt lat="43.23320655426104" lon="-2.7949444721692056"><ele>66.39999999999999</ele><time>2026-04-30T12:20:46.001Z</time></trkpt><trkpt lat="43.23325937384388" lon="-2.795077067833403"><ele>66.6</ele><time>2026-04-30T12:20:47.001Z</time></trkpt><trkpt lat="43.233314646059355" lon="-2.795208613330714"><ele>66.8</ele><time>2026-04-30T12:20:48.001Z</time></trkpt><trkpt lat="43.23337137089915" lon="-2.7953415933025942"><ele>67.0</ele><time>2026-04-30T12:20:49.001Z</time></trkpt><trkpt lat="43.23342310993549" lon="-2.795477620769102"><ele>67.0</ele><time>2026-04-30T12:20:50.001Z</time></trkpt><trkpt lat="43.2334792550101" lon="-2.7956067814903856"><ele>67.0</ele><time>2026-04-30T12:20:51.001Z</time></trkpt><trkpt lat="43.23353378612991" lon="-2.79573746000593"><ele>67.0</ele><time>2026-04-30T12:20:52.001Z</time></trkpt><trkpt lat="43.23358831307436" lon="-2.795867320434984"><ele>67.0</ele><time>2026-04-30T12:20:53.001Z</time></trkpt><trkpt lat="43.23364094308665" lon="-2.7959956039601113"><ele>67.0</ele><time>2026-04-30T12:20:54.001Z</time></trkpt><trkpt lat="43.23369482177403" lon="-2.79611984361803"><ele>67.4</ele><time>2026-04-30T12:20:55.001Z</time></trkpt><trkpt lat="43.233747061812814" lon="-2.796244933023089"><ele>67.80000000000001</ele><time>2026-04-30T12:20:56.001Z</time></trkpt><trkpt lat="43.233797414272644" lon="-2.7963741726562525"><ele>68.2</ele><time>2026-04-30T12:20:57.001Z</time></trkpt><trkpt lat="43.23384814674954" lon="-2.7965018881799857"><ele>68.60000000000001</ele><time>2026-04-30T12:20:58.002Z</time></trkpt><trkpt lat="43.23390011123793" lon="-2.796627321315809"><ele>69.0</ele><time>2026-04-30T12:20:59.002Z</time></trkpt><trkpt lat="43.23395398763285" lon="-2.7967533923798515"><ele>68.0</ele><time>2026-04-30T12:21:00.002Z</time></trkpt><trkpt lat="43.234004928954604" lon="-2.7968912802012196"><ele>67.0</ele><time>2026-04-30T12:21:01.002Z</time></trkpt><trkpt lat="43.23406133247096" lon="-2.7970138275626177"><ele>66.0</ele><time>2026-04-30T12:21:02.002Z</time></trkpt><trkpt lat="43.23412186929091" lon="-2.797143395467135"><ele>65.0</ele><time>2026-04-30T12:21:03.002Z</time></trkpt><trkpt lat="43.23418328103615" lon="-2.7972726762624474"><ele>64.0</ele><time>2026-04-30T12:21:04.002Z</time></trkpt><trkpt lat="43.23425181423699" lon="-2.797395257274322"><ele>64.0</ele><time>2026-04-30T12:21:05.002Z</time></trkpt><trkpt lat="43.234332140746545" lon="-2.797487743032758"><ele>64.0</ele><time>2026-04-30T12:21:06.002Z</time></trkpt><trkpt lat="43.23444132680244" lon="-2.7975059951506065"><ele>64.0</ele><time>2026-04-30T12:21:07.002Z</time></trkpt><trkpt lat="43.234516484270564" lon="-2.797670392830114"><ele>64.0</ele><time>2026-04-30T12:21:08.002Z</time></trkpt><trkpt lat="43.23462301508566" lon="-2.7977294543297244"><ele>63.25</ele><time>2026-04-30T12:21:09.002Z</time></trkpt><trkpt lat="43.23472783746437" lon="-2.797789712508954"><ele>62.5</ele><time>2026-04-30T12:21:10.002Z</time></trkpt><trkpt lat="43.23482551589242" lon="-2.797843737024372"><ele>61.75</ele><time>2026-04-30T12:21:11.002Z</time></trkpt><trkpt lat="43.234924387865675" lon="-2.7979149231811844"><ele>61.0</ele><time>2026-04-30T12:21:12.002Z</time></trkpt><trkpt lat="43.23505632048799" lon="-2.7979286217181385"><ele>61.0</ele><time>2026-04-30T12:21:13.002Z</time></trkpt><trkpt lat="43.23516538971781" lon="-2.797974536836496"><ele>61.0</ele><time>2026-04-30T12:21:14.002Z</time></trkpt><trkpt lat="43.23529186044397" lon="-2.798026006515881"><ele>61.0</ele><time>2026-04-30T12:21:15.002Z</time></trkpt><trkpt lat="43.235409773955105" lon="-2.798074503905511"><ele>61.0</ele><time>2026-04-30T12:21:16.002Z</time></trkpt><trkpt lat="43.235493024977096" lon="-2.7981493658843455"><ele>61.0</ele><time>2026-04-30T12:21:17.002Z</time></trkpt><trkpt lat="43.23557462629619" lon="-2.7982244236070963"><ele>60.99999999999999</ele><time>2026-04-30T12:21:18.002Z</time></trkpt><trkpt lat="43.235652657667636" lon="-2.7983173303748736"><ele>60.99999999999999</ele><time>2026-04-30T12:21:19.002Z</time></trkpt><trkpt lat="43.235726849194236" lon="-2.798415409723598"><ele>61.0</ele><time>2026-04-30T12:21:20.002Z</time></trkpt><trkpt lat="43.23579338121749" lon="-2.798529783206433"><ele>61.0</ele><time>2026-04-30T12:21:21.002Z</time></trkpt><trkpt lat="43.23584884039625" lon="-2.798647261484958"><ele>61.0</ele><time>2026-04-30T12:21:22.002Z</time></trkpt><trkpt lat="43.23589674119497" lon="-2.79877113429613"><ele>60.99999999999999</ele><time>2026-04-30T12:21:23.002Z</time></trkpt><trkpt lat="43.23593910447185" lon="-2.7989093690789"><ele>60.99999999999999</ele><time>2026-04-30T12:21:24.002Z</time></trkpt><trkpt lat="43.23597061392605" lon="-2.799044128674772"><ele>61.0</ele><time>2026-04-30T12:21:25.002Z</time></trkpt><trkpt lat="43.23599098031693" lon="-2.7991813223272866"><ele>61.0</ele><time>2026-04-30T12:21:26.002Z</time></trkpt><trkpt lat="43.23599739944705" lon="-2.7993243061060444"><ele>60.199999999999996</ele><time>2026-04-30T12:21:27.002Z</time></trkpt><trkpt lat="43.23600678808347" lon="-2.799467409107831"><ele>59.39999999999999</ele><time>2026-04-30T12:21:28.002Z</time></trkpt><trkpt lat="43.23602120588837" lon="-2.7996136077884555"><ele>58.6</ele><time>2026-04-30T12:21:29.002Z</time></trkpt><trkpt lat="43.236037033702864" lon="-2.799755265309959"><ele>57.8</ele><time>2026-04-30T12:21:30.002Z</time></trkpt><trkpt lat="43.236049761158995" lon="-2.799903861749853"><ele>57.0</ele><time>2026-04-30T12:21:31.002Z</time></trkpt><trkpt lat="43.236058205392865" lon="-2.8000358878686864"><ele>57.0</ele><time>2026-04-30T12:21:32.002Z</time></trkpt><trkpt lat="43.236070710629505" lon="-2.8001938635050543"><ele>57.0</ele><time>2026-04-30T12:21:33.003Z</time></trkpt><trkpt lat="43.2360774729652" lon="-2.800335387546348"><ele>57.0</ele><time>2026-04-30T12:21:34.003Z</time></trkpt><trkpt lat="43.23608484735062" lon="-2.8004824663341914"><ele>57.0</ele><time>2026-04-30T12:21:35.003Z</time></trkpt><trkpt lat="43.23609167227883" lon="-2.8006268182245195"><ele>57.0</ele><time>2026-04-30T12:21:36.003Z</time></trkpt><trkpt lat="43.23610061561929" lon="-2.8007729122889686"><ele>57.0</ele><time>2026-04-30T12:21:37.003Z</time></trkpt><trkpt lat="43.23611469912012" lon="-2.8009177836756463"><ele>57.0</ele><time>2026-04-30T12:21:38.003Z</time></trkpt><trkpt lat="43.23612990015391" lon="-2.8010619373555503"><ele>57.0</ele><time>2026-04-30T12:21:39.003Z</time></trkpt><trkpt lat="43.23613421133785" lon="-2.801202234307483"><ele>57.0</ele><time>2026-04-30T12:21:40.003Z</time></trkpt><trkpt lat="43.23613639883183" lon="-2.8013518186566033"><ele>57.0</ele><time>2026-04-30T12:21:41.003Z</time></trkpt><trkpt lat="43.23614726590001" lon="-2.801498249511599"><ele>57.6</ele><time>2026-04-30T12:21:42.003Z</time></trkpt><trkpt lat="43.23615766182443" lon="-2.801640186571233"><ele>58.2</ele><time>2026-04-30T12:21:43.003Z</time></trkpt><trkpt lat="43.23616405980501" lon="-2.8017871714196634"><ele>58.8</ele><time>2026-04-30T12:21:44.003Z</time></trkpt><trkpt lat="43.23617304681352" lon="-2.8019339343885306"><ele>59.4</ele><time>2026-04-30T12:21:45.003Z</time></trkpt><trkpt lat="43.23617900024518" lon="-2.8020801500749646"><ele>60.0</ele><time>2026-04-30T12:21:46.003Z</time></trkpt><trkpt lat="43.23618326885692" lon="-2.8022302054086032"><ele>60.0</ele><time>2026-04-30T12:21:47.003Z</time></trkpt><trkpt lat="43.23618688112839" lon="-2.80237182858791"><ele>60.0</ele><time>2026-04-30T12:21:48Z</time></trkpt><trkpt lat="43.236194282872454" lon="-2.8025211093753253"><ele>60.0</ele><time>2026-04-30T12:21:49Z</time></trkpt><trkpt lat="43.23620140030053" lon="-2.802659321708754"><ele>60.0</ele><time>2026-04-30T12:21:50Z</time></trkpt><trkpt lat="43.236208122201916" lon="-2.802796740125449"><ele>60.0</ele><time>2026-04-30T12:21:51Z</time></trkpt><trkpt lat="43.236224154538974" lon="-2.802917516094217"><ele>59.6</ele><time>2026-04-30T12:21:52Z</time></trkpt><trkpt lat="43.23623686425559" lon="-2.803035692118088"><ele>59.2</ele><time>2026-04-30T12:21:53Z</time></trkpt><trkpt lat="43.236270737969" lon="-2.803141346048415"><ele>58.8</ele><time>2026-04-30T12:21:54Z</time></trkpt><trkpt lat="43.23634178031514" lon="-2.803249641331424"><ele>58.4</ele><time>2026-04-30T12:21:55Z</time></trkpt><trkpt lat="43.23641792137742" lon="-2.803328725953866"><ele>58.0</ele><time>2026-04-30T12:21:56Z</time></trkpt><trkpt lat="43.23650377026831" lon="-2.8034096141948632"><ele>57.599999999999994</ele><time>2026-04-30T12:21:57Z</time></trkpt><trkpt lat="43.2365804167749" lon="-2.8034765955605407"><ele>57.199999999999996</ele><time>2026-04-30T12:21:58Z</time></trkpt><trkpt lat="43.23663635345461" lon="-2.8035536940828165"><ele>56.8</ele><time>2026-04-30T12:21:59Z</time></trkpt><trkpt lat="43.236668995257425" lon="-2.8036724705192073"><ele>56.4</ele><time>2026-04-30T12:22:00Z</time></trkpt><trkpt lat="43.23667997571053" lon="-2.803808254898581"><ele>56.0</ele><time>2026-04-30T12:22:01Z</time></trkpt><trkpt lat="43.236653525372176" lon="-2.803925661104118"><ele>56.0</ele><time>2026-04-30T12:22:02Z</time></trkpt><trkpt lat="43.23660236782884" lon="-2.804042351894208"><ele>55.99999999999999</ele><time>2026-04-30T12:22:03Z</time></trkpt><trkpt lat="43.23655308298452" lon="-2.8041595353868725"><ele>55.99999999999999</ele><time>2026-04-30T12:22:04Z</time></trkpt><trkpt lat="43.236507018463556" lon="-2.804282911513705"><ele>56.0</ele><time>2026-04-30T12:22:05Z</time></trkpt><trkpt lat="43.236468100713296" lon="-2.8044164181940636"><ele>56.0</ele><time>2026-04-30T12:22:06Z</time></trkpt><trkpt lat="43.23643621580009" lon="-2.8045557502623444"><ele>56.0</ele><time>2026-04-30T12:22:07Z</time></trkpt><trkpt lat="43.23641280699119" lon="-2.8047005444758413"><ele>55.99999999999999</ele><time>2026-04-30T12:22:08Z</time></trkpt><trkpt lat="43.23639689733772" lon="-2.8048462492121837"><ele>55.99999999999999</ele><time>2026-04-30T12:22:09Z</time></trkpt><trkpt lat="43.236391949182334" lon="-2.8049966773629387"><ele>56.0</ele><time>2026-04-30T12:22:10Z</time></trkpt><trkpt lat="43.23638965154692" lon="-2.805143723235543"><ele>56.0</ele><time>2026-04-30T12:22:11Z</time></trkpt><trkpt lat="43.23639227183449" lon="-2.8052938935638005"><ele>55.599999999999994</ele><time>2026-04-30T12:22:12Z</time></trkpt><trkpt lat="43.23639288924207" lon="-2.80544165853675"><ele>55.199999999999996</ele><time>2026-04-30T12:22:13Z</time></trkpt><trkpt lat="43.23639288867979" lon="-2.8055884503316775"><ele>54.800000000000004</ele><time>2026-04-30T12:22:14Z</time></trkpt><trkpt lat="43.23639924267806" lon="-2.8057334742267943"><ele>54.400000000000006</ele><time>2026-04-30T12:22:15Z</time></trkpt><trkpt lat="43.236399744341554" lon="-2.805877697863561"><ele>54.0</ele><time>2026-04-30T12:22:16.001Z</time></trkpt><trkpt lat="43.23639810378392" lon="-2.8060194134725025"><ele>53.800000000000004</ele><time>2026-04-30T12:22:17.001Z</time></trkpt><trkpt lat="43.23639530735779" lon="-2.8061584762334975"><ele>53.60000000000001</ele><time>2026-04-30T12:22:18.001Z</time></trkpt><trkpt lat="43.236393291409804" lon="-2.806296607935677"><ele>53.4</ele><time>2026-04-30T12:22:19.001Z</time></trkpt><trkpt lat="43.236389614226226" lon="-2.8064305582494504"><ele>53.2</ele><time>2026-04-30T12:22:20.001Z</time></trkpt><trkpt lat="43.236390544066424" lon="-2.806561606434828"><ele>53.0</ele><time>2026-04-30T12:22:21.001Z</time></trkpt><trkpt lat="43.23638994892624" lon="-2.8066888234540133"><ele>53.0</ele><time>2026-04-30T12:22:22.001Z</time></trkpt><trkpt lat="43.23639228246674" lon="-2.80681895847934"><ele>53.0</ele><time>2026-04-30T12:22:23.001Z</time></trkpt><trkpt lat="43.236385732184246" lon="-2.8069426835902713"><ele>53.0</ele><time>2026-04-30T12:22:24.001Z</time></trkpt><trkpt lat="43.23637671157856" lon="-2.807072520474142"><ele>53.0</ele><time>2026-04-30T12:22:25.001Z</time></trkpt><trkpt lat="43.23635696996817" lon="-2.807196104182329"><ele>53.0</ele><time>2026-04-30T12:22:26.001Z</time></trkpt><trkpt lat="43.23633240277215" lon="-2.807324138733446"><ele>53.4</ele><time>2026-04-30T12:22:27.001Z</time></trkpt><trkpt lat="43.236295820481295" lon="-2.8074516401022214"><ele>53.8</ele><time>2026-04-30T12:22:28.001Z</time></trkpt><trkpt lat="43.23625859247401" lon="-2.807575186604464"><ele>54.2</ele><time>2026-04-30T12:22:29.001Z</time></trkpt><trkpt lat="43.23621147597524" lon="-2.8077026307630524"><ele>54.6</ele><time>2026-04-30T12:22:30.001Z</time></trkpt><trkpt lat="43.23616245715045" lon="-2.807827313906266"><ele>55.0</ele><time>2026-04-30T12:22:31.001Z</time></trkpt><trkpt lat="43.236105114230384" lon="-2.80795126192361"><ele>55.6</ele><time>2026-04-30T12:22:32.001Z</time></trkpt><trkpt lat="43.23603976322344" lon="-2.8080676162670515"><ele>56.2</ele><time>2026-04-30T12:22:33.001Z</time></trkpt><trkpt lat="43.235967341772465" lon="-2.808177445506859"><ele>56.8</ele><time>2026-04-30T12:22:34.001Z</time></trkpt><trkpt lat="43.23589116638052" lon="-2.8082865929544956"><ele>57.4</ele><time>2026-04-30T12:22:35.001Z</time></trkpt><trkpt lat="43.2358118677312" lon="-2.808394952682005"><ele>58.0</ele><time>2026-04-30T12:22:36.001Z</time></trkpt><trkpt lat="43.23573227701806" lon="-2.8085029919690645"><ele>57.4</ele><time>2026-04-30T12:22:37.001Z</time></trkpt><trkpt lat="43.235654593133866" lon="-2.808616954610195"><ele>56.8</ele><time>2026-04-30T12:22:38.001Z</time></trkpt><trkpt lat="43.2355808292373" lon="-2.8087285710768053"><ele>56.2</ele><time>2026-04-30T12:22:39.001Z</time></trkpt><trkpt lat="43.2355054414077" lon="-2.808841138960981"><ele>55.6</ele><time>2026-04-30T12:22:40.001Z</time></trkpt><trkpt lat="43.2354314672895" lon="-2.8089547126047014"><ele>55.0</ele><time>2026-04-30T12:22:41.001Z</time></trkpt><trkpt lat="43.235360111849175" lon="-2.809072826291861"><ele>55.0</ele><time>2026-04-30T12:22:42.001Z</time></trkpt><trkpt lat="43.23529412875355" lon="-2.8091942777358754"><ele>55.0</ele><time>2026-04-30T12:22:43.001Z</time></trkpt><trkpt lat="43.235232698607795" lon="-2.809318089283694"><ele>55.0</ele><time>2026-04-30T12:22:44.001Z</time></trkpt><trkpt lat="43.2351724487411" lon="-2.809443029487534"><ele>55.0</ele><time>2026-04-30T12:22:45.001Z</time></trkpt><trkpt lat="43.23511512353137" lon="-2.8095726388850744"><ele>55.0</ele><time>2026-04-30T12:22:46.001Z</time></trkpt><trkpt lat="43.23506206826808" lon="-2.809700858566725"><ele>56.0</ele><time>2026-04-30T12:22:47.001Z</time></trkpt><trkpt lat="43.23501294247431" lon="-2.8098299543271934"><ele>57.0</ele><time>2026-04-30T12:22:48.001Z</time></trkpt><trkpt lat="43.234965981532234" lon="-2.809965329154679"><ele>58.0</ele><time>2026-04-30T12:22:49.001Z</time></trkpt><trkpt lat="43.234917727603126" lon="-2.810098988105512"><ele>59.0</ele><time>2026-04-30T12:22:50.001Z</time></trkpt><trkpt lat="43.234868241957834" lon="-2.8102349308226033"><ele>60.0</ele><time>2026-04-30T12:22:51.002Z</time></trkpt><trkpt lat="43.234818949706195" lon="-2.8103693447941125"><ele>59.2</ele><time>2026-04-30T12:22:52.002Z</time></trkpt><trkpt lat="43.234769179822266" lon="-2.8105073339617483"><ele>58.4</ele><time>2026-04-30T12:22:53.002Z</time></trkpt><trkpt lat="43.234715854751364" lon="-2.810641396100512"><ele>57.599999999999994</ele><time>2026-04-30T12:22:54.002Z</time></trkpt><trkpt lat="43.234670865340306" lon="-2.8107782297176183"><ele>56.8</ele><time>2026-04-30T12:22:55.002Z</time></trkpt><trkpt lat="43.234617584051016" lon="-2.8109180511054372"><ele>56.0</ele><time>2026-04-30T12:22:56.002Z</time></trkpt><trkpt lat="43.2345688777093" lon="-2.811058161463865"><ele>55.599999999999994</ele><time>2026-04-30T12:22:57.002Z</time></trkpt><trkpt lat="43.234516858453105" lon="-2.8111959627463916"><ele>55.199999999999996</ele><time>2026-04-30T12:22:58.002Z</time></trkpt><trkpt lat="43.234468689950084" lon="-2.8113315211889023"><ele>54.800000000000004</ele><time>2026-04-30T12:22:59.002Z</time></trkpt><trkpt lat="43.234416495267894" lon="-2.811468278158576"><ele>54.400000000000006</ele><time>2026-04-30T12:23:00.002Z</time></trkpt><trkpt lat="43.23436851434768" lon="-2.8116036522095245"><ele>54.0</ele><time>2026-04-30T12:23:01.002Z</time></trkpt><trkpt lat="43.234320290283215" lon="-2.8117370672173685"><ele>55.0</ele><time>2026-04-30T12:23:02.002Z</time></trkpt><trkpt lat="43.234275984893486" lon="-2.811868964503925"><ele>56.00000000000001</ele><time>2026-04-30T12:23:03.002Z</time></trkpt><trkpt lat="43.2342266737371" lon="-2.8119995592076017"><ele>57.00000000000001</ele><time>2026-04-30T12:23:04.002Z</time></trkpt><trkpt lat="43.23417629268744" lon="-2.812129144272515"><ele>58.0</ele><time>2026-04-30T12:23:05.002Z</time></trkpt><trkpt lat="43.23412976356418" lon="-2.8122629045131897"><ele>59.0</ele><time>2026-04-30T12:23:06.002Z</time></trkpt><trkpt lat="43.23408282759022" lon="-2.8123932646668925"><ele>59.0</ele><time>2026-04-30T12:23:07.002Z</time></trkpt><trkpt lat="43.2340377940371" lon="-2.8125233895092703"><ele>59.00000000000001</ele><time>2026-04-30T12:23:08.002Z</time></trkpt><trkpt lat="43.233988204203435" lon="-2.8126574318084843"><ele>59.00000000000001</ele><time>2026-04-30T12:23:09.002Z</time></trkpt><trkpt lat="43.23393840885918" lon="-2.8127846555632043"><ele>59.0</ele><time>2026-04-30T12:23:10.002Z</time></trkpt><trkpt lat="43.233891018774116" lon="-2.8129216889033852"><ele>59.0</ele><time>2026-04-30T12:23:11.002Z</time></trkpt><trkpt lat="43.23384227362153" lon="-2.813053729285306"><ele>58.25</ele><time>2026-04-30T12:23:12.002Z</time></trkpt><trkpt lat="43.233792146991455" lon="-2.813190084580888"><ele>57.5</ele><time>2026-04-30T12:23:13.002Z</time></trkpt><trkpt lat="43.233738754557145" lon="-2.813326721025462"><ele>56.75</ele><time>2026-04-30T12:23:14.002Z</time></trkpt><trkpt lat="43.23368664207318" lon="-2.813465378875473"><ele>56.0</ele><time>2026-04-30T12:23:15.002Z</time></trkpt><trkpt lat="43.23363303225687" lon="-2.813602275393075"><ele>55.75</ele><time>2026-04-30T12:23:16.002Z</time></trkpt><trkpt lat="43.23358032944102" lon="-2.813738329628698"><ele>55.5</ele><time>2026-04-30T12:23:17.002Z</time></trkpt><trkpt lat="43.233527018444704" lon="-2.813878404406977"><ele>55.25</ele><time>2026-04-30T12:23:18.002Z</time></trkpt><trkpt lat="43.23347494703036" lon="-2.8140209690974887"><ele>55.0</ele><time>2026-04-30T12:23:19.002Z</time></trkpt><trkpt lat="43.233415229255314" lon="-2.81415899771558"><ele>55.0</ele><time>2026-04-30T12:23:20.002Z</time></trkpt><trkpt lat="43.233364603179815" lon="-2.814300058553165"><ele>55.0</ele><time>2026-04-30T12:23:21.002Z</time></trkpt><trkpt lat="43.233313207038634" lon="-2.8144393793856146"><ele>55.0</ele><time>2026-04-30T12:23:22.002Z</time></trkpt><trkpt lat="43.23325670712041" lon="-2.81457595886988"><ele>55.0</ele><time>2026-04-30T12:23:23.002Z</time></trkpt><trkpt lat="43.23320349183724" lon="-2.81471509654285"><ele>55.0</ele><time>2026-04-30T12:23:24.002Z</time></trkpt><trkpt lat="43.233151761651605" lon="-2.8148503815279695"><ele>55.0</ele><time>2026-04-30T12:23:25.002Z</time></trkpt><trkpt lat="43.23309882089337" lon="-2.8149887307230776"><ele>55.0</ele><time>2026-04-30T12:23:26.003Z</time></trkpt><trkpt lat="43.23304859933754" lon="-2.815124854103707"><ele>55.0</ele><time>2026-04-30T12:23:27.003Z</time></trkpt><trkpt lat="43.232998146726985" lon="-2.8152608527339456"><ele>55.0</ele><time>2026-04-30T12:23:28.003Z</time></trkpt><trkpt lat="43.23294913753638" lon="-2.815398832306975"><ele>54.25</ele><time>2026-04-30T12:23:29.003Z</time></trkpt><trkpt lat="43.23289196468564" lon="-2.815534663463609"><ele>53.5</ele><time>2026-04-30T12:23:30.003Z</time></trkpt><trkpt lat="43.23284072194057" lon="-2.815670646661279"><ele>52.75</ele><time>2026-04-30T12:23:31.003Z</time></trkpt><trkpt lat="43.23278751270986" lon="-2.8158084728408146"><ele>52.0</ele><time>2026-04-30T12:23:32.003Z</time></trkpt><trkpt lat="43.232736603200166" lon="-2.815947054536408"><ele>53.5</ele><time>2026-04-30T12:23:33.003Z</time></trkpt><trkpt lat="43.23268443960052" lon="-2.8160853895574833"><ele>55.0</ele><time>2026-04-30T12:23:34.003Z</time></trkpt><trkpt lat="43.23262946690274" lon="-2.816222453385938"><ele>56.5</ele><time>2026-04-30T12:23:35.003Z</time></trkpt><trkpt lat="43.23257767302703" lon="-2.8163587215876236"><ele>58.0</ele><time>2026-04-30T12:23:36.003Z</time></trkpt><trkpt lat="43.23252460740932" lon="-2.8164959356279473"><ele>58.0</ele><time>2026-04-30T12:23:37.003Z</time></trkpt><trkpt lat="43.23246630630073" lon="-2.816630584387717"><ele>58.0</ele><time>2026-04-30T12:23:38.003Z</time></trkpt><trkpt lat="43.23240680340374" lon="-2.8167590281513553"><ele>58.0</ele><time>2026-04-30T12:23:39.003Z</time></trkpt><trkpt lat="43.23234306682087" lon="-2.816885606749519"><ele>58.0</ele><time>2026-04-30T12:23:40.003Z</time></trkpt><trkpt lat="43.23227508914522" lon="-2.8170034285415415"><ele>58.0</ele><time>2026-04-30T12:23:41.003Z</time></trkpt><trkpt lat="43.232200779172906" lon="-2.817120414580331"><ele>57.0</ele><time>2026-04-30T12:23:42.003Z</time></trkpt><trkpt lat="43.232124327460795" lon="-2.8172249678804886"><ele>56.0</ele><time>2026-04-30T12:23:43.003Z</time></trkpt><trkpt lat="43.232042226923795" lon="-2.8173188547861283"><ele>55.0</ele><time>2026-04-30T12:23:44.003Z</time></trkpt><trkpt lat="43.23195200706642" lon="-2.8174131795502486"><ele>54.0</ele><time>2026-04-30T12:23:45.003Z</time></trkpt><trkpt lat="43.23186739200732" lon="-2.8175043073897577"><ele>53.0</ele><time>2026-04-30T12:23:46.003Z</time></trkpt><trkpt lat="43.23177374966716" lon="-2.817584108761627"><ele>53.599999999999994</ele><time>2026-04-30T12:23:47.003Z</time></trkpt><trkpt lat="43.231679501935105" lon="-2.8176561369830027"><ele>54.199999999999996</ele><time>2026-04-30T12:23:48.003Z</time></trkpt><trkpt lat="43.2315836701491" lon="-2.8177218481999575"><ele>54.8</ele><time>2026-04-30T12:23:49.003Z</time></trkpt><trkpt lat="43.231486475558675" lon="-2.8177822512437065"><ele>55.4</ele><time>2026-04-30T12:23:50.003Z</time></trkpt><trkpt lat="43.23138856831562" lon="-2.817839725736435"><ele>56.0</ele><time>2026-04-30T12:23:51.003Z</time></trkpt><trkpt lat="43.23129075643098" lon="-2.817896856385252"><ele>56.0</ele><time>2026-04-30T12:23:52.003Z</time></trkpt><trkpt lat="43.23119200949723" lon="-2.81795173888185"><ele>55.99999999999999</ele><time>2026-04-30T12:23:53.003Z</time></trkpt><trkpt lat="43.231094236731934" lon="-2.818008715745566"><ele>55.99999999999999</ele><time>2026-04-30T12:23:54.001Z</time></trkpt><trkpt lat="43.23099661270643" lon="-2.8180738861630497"><ele>56.0</ele><time>2026-04-30T12:23:55.001Z</time></trkpt><trkpt lat="43.23090699559571" lon="-2.8181533032390442"><ele>56.0</ele><time>2026-04-30T12:23:56.001Z</time></trkpt><trkpt lat="43.23082472097241" lon="-2.8182449523552973"><ele>56.0</ele><time>2026-04-30T12:23:57.001Z</time></trkpt><trkpt lat="43.230750925109696" lon="-2.818347839026003"><ele>55.99999999999999</ele><time>2026-04-30T12:23:58.001Z</time></trkpt><trkpt lat="43.23068921059574" lon="-2.8184678641958936"><ele>55.99999999999999</ele><time>2026-04-30T12:23:59.001Z</time></trkpt><trkpt lat="43.23063694727683" lon="-2.8185961175642253"><ele>56.0</ele><time>2026-04-30T12:24:00.001Z</time></trkpt><trkpt lat="43.23059229969887" lon="-2.8187331832325335"><ele>56.0</ele><time>2026-04-30T12:24:01.001Z</time></trkpt><trkpt lat="43.230561161321646" lon="-2.818874977228792"><ele>54.199999999999996</ele><time>2026-04-30T12:24:02.001Z</time></trkpt><trkpt lat="43.23054468528536" lon="-2.8190188132622467"><ele>52.39999999999999</ele><time>2026-04-30T12:24:03.001Z</time></trkpt><trkpt lat="43.23054650647972" lon="-2.819165161101492"><ele>50.6</ele><time>2026-04-30T12:24:04.001Z</time></trkpt><trkpt lat="43.230563533888464" lon="-2.819310196426227"><ele>48.8</ele><time>2026-04-30T12:24:05.001Z</time></trkpt><trkpt lat="43.23059278625968" lon="-2.819452458626601"><ele>47.0</ele><time>2026-04-30T12:24:06.001Z</time></trkpt><trkpt lat="43.230629311855" lon="-2.819592322790993"><ele>47.0</ele><time>2026-04-30T12:24:07.001Z</time></trkpt><trkpt lat="43.23067969808915" lon="-2.8197260340583967"><ele>47.0</ele><time>2026-04-30T12:24:08.001Z</time></trkpt><trkpt lat="43.230745404662656" lon="-2.819852927184658"><ele>47.0</ele><time>2026-04-30T12:24:09.001Z</time></trkpt><trkpt lat="43.23082148866776" lon="-2.8199642186288107"><ele>47.0</ele><time>2026-04-30T12:24:10.001Z</time></trkpt><trkpt lat="43.230906948212684" lon="-2.8200614293813833"><ele>47.0</ele><time>2026-04-30T12:24:11.001Z</time></trkpt><trkpt lat="43.23099845309901" lon="-2.820153149527533"><ele>47.25</ele><time>2026-04-30T12:24:12.001Z</time></trkpt><trkpt lat="43.23108808317538" lon="-2.8202439642054786"><ele>47.5</ele><time>2026-04-30T12:24:13.001Z</time></trkpt><trkpt lat="43.23117775860396" lon="-2.820337340355404"><ele>47.75</ele><time>2026-04-30T12:24:14.001Z</time></trkpt><trkpt lat="43.23126712003511" lon="-2.820438573546407"><ele>48.0</ele><time>2026-04-30T12:24:15.001Z</time></trkpt><trkpt lat="43.23135095880509" lon="-2.8205518175097066"><ele>48.0</ele><time>2026-04-30T12:24:16.001Z</time></trkpt><trkpt lat="43.23142865147008" lon="-2.8206769700957497"><ele>48.0</ele><time>2026-04-30T12:24:17.001Z</time></trkpt><trkpt lat="43.23149426359711" lon="-2.820813942941098"><ele>48.0</ele><time>2026-04-30T12:24:18.001Z</time></trkpt><trkpt lat="43.23154611662111" lon="-2.820962615440634"><ele>48.0</ele><time>2026-04-30T12:24:19.001Z</time></trkpt><trkpt lat="43.23158714348255" lon="-2.821119145714677"><ele>50.0</ele><time>2026-04-30T12:24:20.001Z</time></trkpt><trkpt lat="43.231617126249986" lon="-2.82128270258732"><ele>52.0</ele><time>2026-04-30T12:24:21.001Z</time></trkpt><trkpt lat="43.23163995924267" lon="-2.821450582060159"><ele>54.0</ele><time>2026-04-30T12:24:22.001Z</time></trkpt><trkpt lat="43.231660930231946" lon="-2.8216164859714623"><ele>56.0</ele><time>2026-04-30T12:24:23.001Z</time></trkpt><trkpt lat="43.23168047963519" lon="-2.8217820200138863"><ele>55.0</ele><time>2026-04-30T12:24:24.001Z</time></trkpt><trkpt lat="43.23169939846277" lon="-2.8219485648304468"><ele>54.0</ele><time>2026-04-30T12:24:25.001Z</time></trkpt><trkpt lat="43.23171723054074" lon="-2.8221139584686292"><ele>53.0</ele><time>2026-04-30T12:24:26.001Z</time></trkpt><trkpt lat="43.23173463716631" lon="-2.8222768363350585"><ele>52.0</ele><time>2026-04-30T12:24:27.001Z</time></trkpt><trkpt lat="43.231748290984775" lon="-2.8224384028818585"><ele>52.0</ele><time>2026-04-30T12:24:28.001Z</time></trkpt><trkpt lat="43.23176110448466" lon="-2.8225986494664466"><ele>52.0</ele><time>2026-04-30T12:24:29.001Z</time></trkpt><trkpt lat="43.231776079848636" lon="-2.82275483283735"><ele>52.0</ele><time>2026-04-30T12:24:30.001Z</time></trkpt><trkpt lat="43.231789663348735" lon="-2.822910819604615"><ele>52.0</ele><time>2026-04-30T12:24:31.001Z</time></trkpt><trkpt lat="43.23180658877238" lon="-2.823062446230495"><ele>51.2</ele><time>2026-04-30T12:24:32.001Z</time></trkpt><trkpt lat="43.23181874774779" lon="-2.82320893811287"><ele>50.400000000000006</ele><time>2026-04-30T12:24:33.001Z</time></trkpt><trkpt lat="43.23183020722325" lon="-2.823362081433687"><ele>49.599999999999994</ele><time>2026-04-30T12:24:34.001Z</time></trkpt><trkpt lat="43.231849016093264" lon="-2.8235308926121245"><ele>48.8</ele><time>2026-04-30T12:24:35.001Z</time></trkpt><trkpt lat="43.231859316028526" lon="-2.823652414029791"><ele>48.0</ele><time>2026-04-30T12:24:36.001Z</time></trkpt><trkpt lat="43.23187382603293" lon="-2.8237957158904265"><ele>47.4</ele><time>2026-04-30T12:24:37.001Z</time></trkpt><trkpt lat="43.23188769356407" lon="-2.8239408296304673"><ele>46.8</ele><time>2026-04-30T12:24:38.001Z</time></trkpt><trkpt lat="43.231898039207096" lon="-2.8240863296139507"><ele>46.2</ele><time>2026-04-30T12:24:39.001Z</time></trkpt><trkpt lat="43.23191200856477" lon="-2.824230810974245"><ele>45.6</ele><time>2026-04-30T12:24:40.001Z</time></trkpt><trkpt lat="43.231929394974195" lon="-2.824377397994513"><ele>45.0</ele><time>2026-04-30T12:24:41.001Z</time></trkpt><trkpt lat="43.23194899283683" lon="-2.8245217496604993"><ele>44.8</ele><time>2026-04-30T12:24:42.001Z</time></trkpt><trkpt lat="43.231966966468526" lon="-2.824665197958787"><ele>44.6</ele><time>2026-04-30T12:24:43.001Z</time></trkpt><trkpt lat="43.231984053979325" lon="-2.8248135395705276"><ele>44.400000000000006</ele><time>2026-04-30T12:24:44.001Z</time></trkpt><trkpt lat="43.23200359800519" lon="-2.824962271715158"><ele>44.2</ele><time>2026-04-30T12:24:45.001Z</time></trkpt><trkpt lat="43.23201939679008" lon="-2.8251081066664945"><ele>44.0</ele><time>2026-04-30T12:24:46.001Z</time></trkpt><trkpt lat="43.23203267306732" lon="-2.8252557367572395"><ele>44.0</ele><time>2026-04-30T12:24:47.001Z</time></trkpt><trkpt lat="43.23204173941005" lon="-2.8254073243338436"><ele>44.0</ele><time>2026-04-30T12:24:48.001Z</time></trkpt><trkpt lat="43.23205186284927" lon="-2.825560181223653"><ele>44.0</ele><time>2026-04-30T12:24:49.001Z</time></trkpt><trkpt lat="43.23206586795629" lon="-2.8257122532846646"><ele>44.0</ele><time>2026-04-30T12:24:50.001Z</time></trkpt><trkpt lat="43.23207949711576" lon="-2.8258608773734633"><ele>44.0</ele><time>2026-04-30T12:24:51.002Z</time></trkpt><trkpt lat="43.23210084140985" lon="-2.8260105804873614"><ele>44.0</ele><time>2026-04-30T12:24:52.002Z</time></trkpt><trkpt lat="43.23211666599393" lon="-2.826157275144116"><ele>44.0</ele><time>2026-04-30T12:24:53.002Z</time></trkpt><trkpt lat="43.232132839897176" lon="-2.8263037549526575"><ele>44.0</ele><time>2026-04-30T12:24:54.002Z</time></trkpt><trkpt lat="43.23214493631882" lon="-2.8264461652150477"><ele>44.0</ele><time>2026-04-30T12:24:55.002Z</time></trkpt><trkpt lat="43.23215837141302" lon="-2.8265868576426505"><ele>44.0</ele><time>2026-04-30T12:24:56.002Z</time></trkpt><trkpt lat="43.232169460968535" lon="-2.826726311314714"><ele>43.800000000000004</ele><time>2026-04-30T12:24:57.002Z</time></trkpt><trkpt lat="43.23217591418759" lon="-2.826869372855574"><ele>43.6</ele><time>2026-04-30T12:24:58.002Z</time></trkpt><trkpt lat="43.232179015980606" lon="-2.827003891338408"><ele>43.4</ele><time>2026-04-30T12:24:59.002Z</time></trkpt><trkpt lat="43.23217258660817" lon="-2.827146825410128"><ele>43.2</ele><time>2026-04-30T12:25:00.002Z</time></trkpt><trkpt lat="43.23215985490559" lon="-2.8272849916203118"><ele>43.0</ele><time>2026-04-30T12:25:01.002Z</time></trkpt><trkpt lat="43.23214103107047" lon="-2.8274278699176985"><ele>43.0</ele><time>2026-04-30T12:25:02.002Z</time></trkpt><trkpt lat="43.23211396036217" lon="-2.8275664796328717"><ele>43.0</ele><time>2026-04-30T12:25:03.002Z</time></trkpt><trkpt lat="43.232080243269536" lon="-2.8277009094854404"><ele>43.0</ele><time>2026-04-30T12:25:04.002Z</time></trkpt><trkpt lat="43.23204808355105" lon="-2.827837936438152"><ele>43.0</ele><time>2026-04-30T12:25:05.002Z</time></trkpt><trkpt lat="43.23200964501704" lon="-2.82797004462854"><ele>43.0</ele><time>2026-04-30T12:25:06.002Z</time></trkpt><trkpt lat="43.23196660274979" lon="-2.828099573297759"><ele>43.333333333333336</ele><time>2026-04-30T12:25:07.002Z</time></trkpt><trkpt lat="43.231925276482116" lon="-2.8282272451617994"><ele>43.66666666666667</ele><time>2026-04-30T12:25:08.002Z</time></trkpt><trkpt lat="43.23188201219983" lon="-2.8283446617914962"><ele>44.0</ele><time>2026-04-30T12:25:09.002Z</time></trkpt><trkpt lat="43.231844979719185" lon="-2.8284539894277905"><ele>44.333333333333336</ele><time>2026-04-30T12:25:10.002Z</time></trkpt><trkpt lat="43.23180492967759" lon="-2.828554825808822"><ele>44.666666666666664</ele><time>2026-04-30T12:25:11.002Z</time></trkpt><trkpt lat="43.23176214284178" lon="-2.828642355198473"><ele>45.0</ele><time>2026-04-30T12:25:12.002Z</time></trkpt><trkpt lat="43.23172742700293" lon="-2.8287409544034956"><ele>45.833333333333336</ele><time>2026-04-30T12:25:13.002Z</time></trkpt><trkpt lat="43.23169379844912" lon="-2.8288463555644365"><ele>46.66666666666667</ele><time>2026-04-30T12:25:14.002Z</time></trkpt><trkpt lat="43.231656775405774" lon="-2.828942318277112"><ele>47.5</ele><time>2026-04-30T12:25:15.002Z</time></trkpt><trkpt lat="43.231614484535854" lon="-2.829039714577282"><ele>48.333333333333336</ele><time>2026-04-30T12:25:16.002Z</time></trkpt><trkpt lat="43.231579256421185" lon="-2.829146046315784"><ele>49.16666666666667</ele><time>2026-04-30T12:25:17.002Z</time></trkpt><trkpt lat="43.231544011101484" lon="-2.829258119319962"><ele>50.0</ele><time>2026-04-30T12:25:18.002Z</time></trkpt><trkpt lat="43.23150511074565" lon="-2.829368898780637"><ele>51.6</ele><time>2026-04-30T12:25:19.002Z</time></trkpt><trkpt lat="43.23147503876001" lon="-2.829487312831859"><ele>53.2</ele><time>2026-04-30T12:25:20.002Z</time></trkpt><trkpt lat="43.23145130487579" lon="-2.8296265379408787"><ele>54.8</ele><time>2026-04-30T12:25:21.002Z</time></trkpt><trkpt lat="43.23139664247553" lon="-2.8297243610536342"><ele>56.4</ele><time>2026-04-30T12:25:22.002Z</time></trkpt><trkpt lat="43.23134564342446" lon="-2.8298423936744825"><ele>58.0</ele><time>2026-04-30T12:25:23.002Z</time></trkpt><trkpt lat="43.23129789184055" lon="-2.829958082519783"><ele>55.4</ele><time>2026-04-30T12:25:24.002Z</time></trkpt><trkpt lat="43.231257731369034" lon="-2.8300804201909613"><ele>52.8</ele><time>2026-04-30T12:25:25.002Z</time></trkpt><trkpt lat="43.23121630126206" lon="-2.8302039966528234"><ele>50.2</ele><time>2026-04-30T12:25:26.002Z</time></trkpt><trkpt lat="43.23117287462147" lon="-2.8303250965151907"><ele>47.6</ele><time>2026-04-30T12:25:27.002Z</time></trkpt><trkpt lat="43.231131457092786" lon="-2.8304506544984793"><ele>45.0</ele><time>2026-04-30T12:25:28.003Z</time></trkpt><trkpt lat="43.2310889015535" lon="-2.8305772624052197"><ele>45.0</ele><time>2026-04-30T12:25:29.003Z</time></trkpt><trkpt lat="43.23104736057441" lon="-2.8307074669153653"><ele>45.0</ele><time>2026-04-30T12:25:30.003Z</time></trkpt><trkpt lat="43.23100870312863" lon="-2.8308373391807273"><ele>45.0</ele><time>2026-04-30T12:25:31.003Z</time></trkpt><trkpt lat="43.230966177746915" lon="-2.8309655899946726"><ele>45.0</ele><time>2026-04-30T12:25:32.003Z</time></trkpt><trkpt lat="43.23092192988514" lon="-2.8310916300552"><ele>45.0</ele><time>2026-04-30T12:25:33.003Z</time></trkpt><trkpt lat="43.23087659984943" lon="-2.831218136381447"><ele>46.4</ele><time>2026-04-30T12:25:34.003Z</time></trkpt><trkpt lat="43.230833805999964" lon="-2.831343908587396"><ele>47.8</ele><time>2026-04-30T12:25:35.003Z</time></trkpt><trkpt lat="43.23079093566456" lon="-2.831470508498855"><ele>49.2</ele><time>2026-04-30T12:25:36.003Z</time></trkpt><trkpt lat="43.23074665547548" lon="-2.831595239142259"><ele>50.6</ele><time>2026-04-30T12:25:37.003Z</time></trkpt><trkpt lat="43.230699603721376" lon="-2.83171929181864"><ele>52.0</ele><time>2026-04-30T12:25:38.003Z</time></trkpt><trkpt lat="43.23065224498712" lon="-2.8318434286244862"><ele>51.2</ele><time>2026-04-30T12:25:39.003Z</time></trkpt><trkpt lat="43.23059999334021" lon="-2.8319644906169863"><ele>50.400000000000006</ele><time>2026-04-30T12:25:40.003Z</time></trkpt><trkpt lat="43.23054318916724" lon="-2.8320801369305144"><ele>49.599999999999994</ele><time>2026-04-30T12:25:41.003Z</time></trkpt><trkpt lat="43.230483231404854" lon="-2.8321947275637043"><ele>48.8</ele><time>2026-04-30T12:25:42.003Z</time></trkpt><trkpt lat="43.23042278442128" lon="-2.8323093899048435"><ele>48.0</ele><time>2026-04-30T12:25:43.003Z</time></trkpt><trkpt lat="43.230358486059856" lon="-2.8324184058610524"><ele>48.0</ele><time>2026-04-30T12:25:44.003Z</time></trkpt><trkpt lat="43.2302924507601" lon="-2.832526414989133"><ele>48.0</ele><time>2026-04-30T12:25:45.003Z</time></trkpt><trkpt lat="43.230225604319344" lon="-2.832631914667425"><ele>48.0</ele><time>2026-04-30T12:25:46.003Z</time></trkpt><trkpt lat="43.23015742240811" lon="-2.8327389525224027"><ele>48.0</ele><time>2026-04-30T12:25:47.003Z</time></trkpt><trkpt lat="43.2300871281978" lon="-2.8328437914815066"><ele>48.0</ele><time>2026-04-30T12:25:48.003Z</time></trkpt><trkpt lat="43.23001247203996" lon="-2.8329477289990743"><ele>47.8</ele><time>2026-04-30T12:25:49.003Z</time></trkpt><trkpt lat="43.22994062655119" lon="-2.8330531210093617"><ele>47.599999999999994</ele><time>2026-04-30T12:25:50.003Z</time></trkpt><trkpt lat="43.22986834978763" lon="-2.833159347940917"><ele>47.400000000000006</ele><time>2026-04-30T12:25:51.003Z</time></trkpt><trkpt lat="43.229798890221886" lon="-2.833265457359406"><ele>47.2</ele><time>2026-04-30T12:25:52.003Z</time></trkpt><trkpt lat="43.22972989398775" lon="-2.83337429899133"><ele>47.0</ele><time>2026-04-30T12:25:53.003Z</time></trkpt><trkpt lat="43.229661015160495" lon="-2.83348192931154"><ele>47.0</ele><time>2026-04-30T12:25:54.003Z</time></trkpt><trkpt lat="43.22959484285877" lon="-2.8335936919765707"><ele>47.0</ele><time>2026-04-30T12:25:55.003Z</time></trkpt><trkpt lat="43.22953111137563" lon="-2.833704145354771"><ele>47.0</ele><time>2026-04-30T12:25:56.003Z</time></trkpt><trkpt lat="43.22947458314368" lon="-2.833825016469444"><ele>47.0</ele><time>2026-04-30T12:25:57.003Z</time></trkpt><trkpt lat="43.22941954661285" lon="-2.833942305393839"><ele>47.0</ele><time>2026-04-30T12:25:58.003Z</time></trkpt><trkpt lat="43.22936794436747" lon="-2.834063753630472"><ele>47.0</ele><time>2026-04-30T12:25:59.003Z</time></trkpt><trkpt lat="43.229316307288556" lon="-2.8341833592684256"><ele>47.0</ele><time>2026-04-30T12:26:00.001Z</time></trkpt><trkpt lat="43.22928790245996" lon="-2.8343359233940753"><ele>47.0</ele><time>2026-04-30T12:26:01.001Z</time></trkpt><trkpt lat="43.22925011378169" lon="-2.8344651799989524"><ele>47.0</ele><time>2026-04-30T12:26:02.001Z</time></trkpt><trkpt lat="43.22922018057717" lon="-2.8346031165561407"><ele>47.0</ele><time>2026-04-30T12:26:03.001Z</time></trkpt><trkpt lat="43.229199187914396" lon="-2.834741243989627"><ele>47.2</ele><time>2026-04-30T12:26:04.001Z</time></trkpt><trkpt lat="43.22917792093649" lon="-2.834881797956214"><ele>47.400000000000006</ele><time>2026-04-30T12:26:05.001Z</time></trkpt><trkpt lat="43.22916366106547" lon="-2.8350261027493486"><ele>47.599999999999994</ele><time>2026-04-30T12:26:06.001Z</time></trkpt><trkpt lat="43.22914979619866" lon="-2.8351674798435926"><ele>47.8</ele><time>2026-04-30T12:26:07Z</time></trkpt><trkpt lat="43.22913682731949" lon="-2.8353126673191653"><ele>48.0</ele><time>2026-04-30T12:26:08Z</time></trkpt><trkpt lat="43.22912218804476" lon="-2.835455883268725"><ele>48.8</ele><time>2026-04-30T12:26:09Z</time></trkpt><trkpt lat="43.22910461182878" lon="-2.835596154839004"><ele>49.599999999999994</ele><time>2026-04-30T12:26:10Z</time></trkpt><trkpt lat="43.22908430693332" lon="-2.8357378043839905"><ele>50.400000000000006</ele><time>2026-04-30T12:26:11Z</time></trkpt><trkpt lat="43.22906739974275" lon="-2.8358834598422926"><ele>51.2</ele><time>2026-04-30T12:26:12Z</time></trkpt><trkpt lat="43.22905121079085" lon="-2.836023459695457"><ele>52.0</ele><time>2026-04-30T12:26:13Z</time></trkpt><trkpt lat="43.22903125350523" lon="-2.8361664593047453"><ele>52.0</ele><time>2026-04-30T12:26:14Z</time></trkpt><trkpt lat="43.22900750896351" lon="-2.8363037602016075"><ele>52.0</ele><time>2026-04-30T12:26:15Z</time></trkpt><trkpt lat="43.22898030399946" lon="-2.836445485014346"><ele>52.0</ele><time>2026-04-30T12:26:16Z</time></trkpt><trkpt lat="43.22894292342233" lon="-2.8365831066179914"><ele>52.0</ele><time>2026-04-30T12:26:17Z</time></trkpt><trkpt lat="43.22890329244148" lon="-2.83671929578054"><ele>52.0</ele><time>2026-04-30T12:26:18Z</time></trkpt><trkpt lat="43.22885665739238" lon="-2.836855421363904"><ele>52.0</ele><time>2026-04-30T12:26:19Z</time></trkpt><trkpt lat="43.22880216777801" lon="-2.8369849733973664"><ele>52.0</ele><time>2026-04-30T12:26:20Z</time></trkpt><trkpt lat="43.228739968717264" lon="-2.8371096120401873"><ele>52.0</ele><time>2026-04-30T12:26:21Z</time></trkpt><trkpt lat="43.228673546842735" lon="-2.837230656753488"><ele>52.0</ele><time>2026-04-30T12:26:22Z</time></trkpt><trkpt lat="43.22859863578985" lon="-2.837344126156023"><ele>52.0</ele><time>2026-04-30T12:26:23Z</time></trkpt><trkpt lat="43.228520984424044" lon="-2.8374555825979604"><ele>52.0</ele><time>2026-04-30T12:26:24.001Z</time></trkpt><trkpt lat="43.22844477694314" lon="-2.8375655338839385"><ele>52.0</ele><time>2026-04-30T12:26:25.001Z</time></trkpt><trkpt lat="43.22836838220199" lon="-2.8376777846025676"><ele>52.0</ele><time>2026-04-30T12:26:26.001Z</time></trkpt><trkpt lat="43.228292641336175" lon="-2.8377908525525237"><ele>52.0</ele><time>2026-04-30T12:26:27.001Z</time></trkpt><trkpt lat="43.22821331859" lon="-2.837903917300561"><ele>52.0</ele><time>2026-04-30T12:26:28.001Z</time></trkpt><trkpt lat="43.2281346398809" lon="-2.8380149186367567"><ele>51.8</ele><time>2026-04-30T12:26:29.001Z</time></trkpt><trkpt lat="43.2280593614949" lon="-2.8381199186190846"><ele>51.6</ele><time>2026-04-30T12:26:30.001Z</time></trkpt><trkpt lat="43.22798252371507" lon="-2.8382145419889553"><ele>51.4</ele><time>2026-04-30T12:26:31.001Z</time></trkpt><trkpt lat="43.22790088143901" lon="-2.838290654316042"><ele>51.199999999999996</ele><time>2026-04-30T12:26:32.001Z</time></trkpt><trkpt lat="43.22783523984289" lon="-2.8384287259385586"><ele>51.0</ele><time>2026-04-30T12:26:33.001Z</time></trkpt><trkpt lat="43.22776114616797" lon="-2.8385232418729243"><ele>51.0</ele><time>2026-04-30T12:26:34.001Z</time></trkpt><trkpt lat="43.2276954254808" lon="-2.8386275903229503"><ele>51.0</ele><time>2026-04-30T12:26:35.001Z</time></trkpt><trkpt lat="43.227641796604324" lon="-2.8387461647684087"><ele>51.0</ele><time>2026-04-30T12:26:36.001Z</time></trkpt><trkpt lat="43.22760222743514" lon="-2.8388744546450977"><ele>51.0</ele><time>2026-04-30T12:26:37.001Z</time></trkpt><trkpt lat="43.22756434166576" lon="-2.839002480426677"><ele>51.0</ele><time>2026-04-30T12:26:38.001Z</time></trkpt><trkpt lat="43.22751080678982" lon="-2.839112524819494"><ele>51.0</ele><time>2026-04-30T12:26:39.001Z</time></trkpt><trkpt lat="43.227435826619406" lon="-2.8391947747267734"><ele>51.0</ele><time>2026-04-30T12:26:40.001Z</time></trkpt><trkpt lat="43.22735176618007" lon="-2.8392642328222077"><ele>51.0</ele><time>2026-04-30T12:26:41.001Z</time></trkpt><trkpt lat="43.22727219214584" lon="-2.8393410050698016"><ele>51.0</ele><time>2026-04-30T12:26:42.001Z</time></trkpt><trkpt lat="43.2272061422716" lon="-2.8394392189112443"><ele>51.0</ele><time>2026-04-30T12:26:43.001Z</time></trkpt><trkpt lat="43.22715426314393" lon="-2.8395582493773746"><ele>50.4</ele><time>2026-04-30T12:26:44.001Z</time></trkpt><trkpt lat="43.227114880156286" lon="-2.8396931891157666"><ele>49.8</ele><time>2026-04-30T12:26:45.001Z</time></trkpt><trkpt lat="43.22707384044771" lon="-2.839824136914235"><ele>49.199999999999996</ele><time>2026-04-30T12:26:46.001Z</time></trkpt><trkpt lat="43.2270320898141" lon="-2.839955115122427"><ele>48.599999999999994</ele><time>2026-04-30T12:26:47.001Z</time></trkpt><trkpt lat="43.22699241165932" lon="-2.8400905111799486"><ele>48.0</ele><time>2026-04-30T12:26:48.001Z</time></trkpt><trkpt lat="43.22695573295068" lon="-2.840227209295382"><ele>48.0</ele><time>2026-04-30T12:26:49.001Z</time></trkpt><trkpt lat="43.226921545894655" lon="-2.8403648154291656"><ele>48.0</ele><time>2026-04-30T12:26:50.001Z</time></trkpt><trkpt lat="43.22688917579033" lon="-2.8405012295913785"><ele>48.0</ele><time>2026-04-30T12:26:51.001Z</time></trkpt><trkpt lat="43.22686138428331" lon="-2.8406431915352304"><ele>48.0</ele><time>2026-04-30T12:26:52.001Z</time></trkpt><trkpt lat="43.22683495580837" lon="-2.840785643588753"><ele>48.0</ele><time>2026-04-30T12:26:53.001Z</time></trkpt><trkpt lat="43.22680929002718" lon="-2.840931032648598"><ele>48.599999999999994</ele><time>2026-04-30T12:26:54.001Z</time></trkpt><trkpt lat="43.22678412282677" lon="-2.841075587859196"><ele>49.199999999999996</ele><time>2026-04-30T12:26:55.001Z</time></trkpt><trkpt lat="43.22675883853077" lon="-2.841214984777462"><ele>49.8</ele><time>2026-04-30T12:26:56.001Z</time></trkpt><trkpt lat="43.22673075390183" lon="-2.841355449474312"><ele>50.4</ele><time>2026-04-30T12:26:57.001Z</time></trkpt><trkpt lat="43.22670710417329" lon="-2.8414926366160635"><ele>51.0</ele><time>2026-04-30T12:26:58.001Z</time></trkpt><trkpt lat="43.22668092040982" lon="-2.841629502331747"><ele>51.0</ele><time>2026-04-30T12:26:59.001Z</time></trkpt><trkpt lat="43.22665327520397" lon="-2.8417688626113375"><ele>51.0</ele><time>2026-04-30T12:27:00.001Z</time></trkpt><trkpt lat="43.226623597847805" lon="-2.841907783023753"><ele>51.0</ele><time>2026-04-30T12:27:01.001Z</time></trkpt><trkpt lat="43.22659731063426" lon="-2.8420445309596456"><ele>51.0</ele><time>2026-04-30T12:27:02.001Z</time></trkpt><trkpt lat="43.2265777795885" lon="-2.842181599733513"><ele>51.0</ele><time>2026-04-30T12:27:03.001Z</time></trkpt><trkpt lat="43.226555004659375" lon="-2.842316598500901"><ele>51.199999999999996</ele><time>2026-04-30T12:27:04.001Z</time></trkpt><trkpt lat="43.22653013633584" lon="-2.8424521887107757"><ele>51.4</ele><time>2026-04-30T12:27:05.001Z</time></trkpt><trkpt lat="43.2265081130791" lon="-2.8425928793022184"><ele>51.6</ele><time>2026-04-30T12:27:06.001Z</time></trkpt><trkpt lat="43.22648058485212" lon="-2.8427256158436416"><ele>51.8</ele><time>2026-04-30T12:27:07.002Z</time></trkpt><trkpt lat="43.226457039081005" lon="-2.8428677864123557"><ele>52.0</ele><time>2026-04-30T12:27:08.002Z</time></trkpt><trkpt lat="43.22642979136368" lon="-2.842998437669525"><ele>50.400000000000006</ele><time>2026-04-30T12:27:09.002Z</time></trkpt><trkpt lat="43.226401974167565" lon="-2.8431294642009757"><ele>48.800000000000004</ele><time>2026-04-30T12:27:10.002Z</time></trkpt><trkpt lat="43.22637551948624" lon="-2.843267465764541"><ele>47.2</ele><time>2026-04-30T12:27:11.002Z</time></trkpt><trkpt lat="43.226352457540266" lon="-2.8434078204249933"><ele>45.6</ele><time>2026-04-30T12:27:12.002Z</time></trkpt><trkpt lat="43.22633016882691" lon="-2.8435302064714367"><ele>44.0</ele><time>2026-04-30T12:27:13.002Z</time></trkpt><trkpt lat="43.22630731374206" lon="-2.8436718013562663"><ele>43.800000000000004</ele><time>2026-04-30T12:27:14.002Z</time></trkpt><trkpt lat="43.226293139262985" lon="-2.8438131114492813"><ele>43.6</ele><time>2026-04-30T12:27:15.002Z</time></trkpt><trkpt lat="43.226265360199335" lon="-2.8439352441146952"><ele>43.4</ele><time>2026-04-30T12:27:16.002Z</time></trkpt><trkpt lat="43.22623725402821" lon="-2.8440832325368732"><ele>43.2</ele><time>2026-04-30T12:27:17.002Z</time></trkpt><trkpt lat="43.22621636784089" lon="-2.8442178664723925"><ele>43.0</ele><time>2026-04-30T12:27:18.002Z</time></trkpt><trkpt lat="43.22619308270956" lon="-2.844348565260677"><ele>42.599999999999994</ele><time>2026-04-30T12:27:19.002Z</time></trkpt><trkpt lat="43.22617534265014" lon="-2.844489942302766"><ele>42.199999999999996</ele><time>2026-04-30T12:27:20.002Z</time></trkpt><trkpt lat="43.226166728536" lon="-2.844632302730901"><ele>41.8</ele><time>2026-04-30T12:27:21.002Z</time></trkpt><trkpt lat="43.22616561213069" lon="-2.844768381206245"><ele>41.4</ele><time>2026-04-30T12:27:22.002Z</time></trkpt><trkpt lat="43.22617146473754" lon="-2.844911567047598"><ele>41.0</ele><time>2026-04-30T12:27:23.002Z</time></trkpt><trkpt lat="43.22618309873686" lon="-2.8450554812849838"><ele>40.8</ele><time>2026-04-30T12:27:24.002Z</time></trkpt><trkpt lat="43.22619838118521" lon="-2.845192852102093"><ele>40.599999999999994</ele><time>2026-04-30T12:27:25.002Z</time></trkpt><trkpt lat="43.22621962247228" lon="-2.8453310177967963"><ele>40.4</ele><time>2026-04-30T12:27:26.002Z</time></trkpt><trkpt lat="43.22624962069824" lon="-2.8454657256006577"><ele>40.2</ele><time>2026-04-30T12:27:27.002Z</time></trkpt><trkpt lat="43.22628275161918" lon="-2.8455980945207497"><ele>40.0</ele><time>2026-04-30T12:27:28.002Z</time></trkpt><trkpt lat="43.22632119649972" lon="-2.84572858489035"><ele>40.0</ele><time>2026-04-30T12:27:29.002Z</time></trkpt><trkpt lat="43.22636497801295" lon="-2.845855892264117"><ele>40.0</ele><time>2026-04-30T12:27:30.002Z</time></trkpt><trkpt lat="43.22641232511794" lon="-2.8459768775051177"><ele>40.0</ele><time>2026-04-30T12:27:31.002Z</time></trkpt><trkpt lat="43.22646665182129" lon="-2.846086871291444"><ele>40.0</ele><time>2026-04-30T12:27:32.002Z</time></trkpt><trkpt lat="43.22652586618089" lon="-2.846213242285271"><ele>40.0</ele><time>2026-04-30T12:27:33.002Z</time></trkpt><trkpt lat="43.22658530317107" lon="-2.846304531611443"><ele>41.0</ele><time>2026-04-30T12:27:34.002Z</time></trkpt><trkpt lat="43.22665656732116" lon="-2.8464203927475933"><ele>42.0</ele><time>2026-04-30T12:27:35.002Z</time></trkpt><trkpt lat="43.22672213942229" lon="-2.846518884154847"><ele>43.0</ele><time>2026-04-30T12:27:36.002Z</time></trkpt><trkpt lat="43.22679616684331" lon="-2.8466049658219306"><ele>44.0</ele><time>2026-04-30T12:27:37.002Z</time></trkpt><trkpt lat="43.22687555076468" lon="-2.8466899944741164"><ele>45.0</ele><time>2026-04-30T12:27:38.002Z</time></trkpt><trkpt lat="43.22695064304705" lon="-2.8467837708813755"><ele>44.6</ele><time>2026-04-30T12:27:39.002Z</time></trkpt><trkpt lat="43.22705052236971" lon="-2.846848502620753"><ele>44.2</ele><time>2026-04-30T12:27:40.002Z</time></trkpt><trkpt lat="43.22713825318616" lon="-2.8468963301011283"><ele>43.8</ele><time>2026-04-30T12:27:41.002Z</time></trkpt><trkpt lat="43.22723292159488" lon="-2.8469496387649373"><ele>43.4</ele><time>2026-04-30T12:27:42.002Z</time></trkpt><trkpt lat="43.227307327806265" lon="-2.8470291294779155"><ele>43.0</ele><time>2026-04-30T12:27:43.002Z</time></trkpt><trkpt lat="43.227405052116204" lon="-2.847074336915283"><ele>43.0</ele><time>2026-04-30T12:27:44.002Z</time></trkpt><trkpt lat="43.22750144285244" lon="-2.847127577547635"><ele>43.0</ele><time>2026-04-30T12:27:45.002Z</time></trkpt><trkpt lat="43.22759268024858" lon="-2.847185589492513"><ele>43.0</ele><time>2026-04-30T12:27:46.003Z</time></trkpt><trkpt lat="43.227684674035146" lon="-2.847242481613269"><ele>43.0</ele><time>2026-04-30T12:27:47.003Z</time></trkpt><trkpt lat="43.227778757793196" lon="-2.847299829469193"><ele>43.0</ele><time>2026-04-30T12:27:48.003Z</time></trkpt><trkpt lat="43.227873345676485" lon="-2.8473596348451755"><ele>43.0</ele><time>2026-04-30T12:27:49.003Z</time></trkpt><trkpt lat="43.227969207968215" lon="-2.8474145897166108"><ele>43.0</ele><time>2026-04-30T12:27:50.003Z</time></trkpt><trkpt lat="43.228064909187424" lon="-2.8474695602651536"><ele>43.0</ele><time>2026-04-30T12:27:51.003Z</time></trkpt><trkpt lat="43.22816088805547" lon="-2.847524607227868"><ele>43.0</ele><time>2026-04-30T12:27:52.003Z</time></trkpt><trkpt lat="43.228257410357195" lon="-2.847578786376324"><ele>43.0</ele><time>2026-04-30T12:27:53.003Z</time></trkpt><trkpt lat="43.22835172715289" lon="-2.847636909307616"><ele>42.599999999999994</ele><time>2026-04-30T12:27:54.003Z</time></trkpt><trkpt lat="43.22844578907706" lon="-2.847697895231162"><ele>42.199999999999996</ele><time>2026-04-30T12:27:55.003Z</time></trkpt><trkpt lat="43.228537966565646" lon="-2.8477590460649447"><ele>41.8</ele><time>2026-04-30T12:27:56.003Z</time></trkpt><trkpt lat="43.22863289847141" lon="-2.847818586763759"><ele>41.4</ele><time>2026-04-30T12:27:57.003Z</time></trkpt><trkpt lat="43.22872569254824" lon="-2.847873324972592"><ele>41.0</ele><time>2026-04-30T12:27:58.003Z</time></trkpt><trkpt lat="43.22881176555971" lon="-2.847929944623903"><ele>41.0</ele><time>2026-04-30T12:27:59.003Z</time></trkpt><trkpt lat="43.228901393255626" lon="-2.8479804574048684"><ele>41.0</ele><time>2026-04-30T12:28:00.003Z</time></trkpt><trkpt lat="43.228986026078275" lon="-2.848023457005306"><ele>41.0</ele><time>2026-04-30T12:28:01.003Z</time></trkpt><trkpt lat="43.229059841600645" lon="-2.848062253450176"><ele>41.0</ele><time>2026-04-30T12:28:02.003Z</time></trkpt><trkpt lat="43.22913623664046" lon="-2.8481030350834304"><ele>41.0</ele><time>2026-04-30T12:28:03.003Z</time></trkpt><trkpt lat="43.22921418303327" lon="-2.848146460557232"><ele>41.0</ele><time>2026-04-30T12:28:04.003Z</time></trkpt><trkpt lat="43.229284403782984" lon="-2.8481804798384047"><ele>41.5</ele><time>2026-04-30T12:28:05.003Z</time></trkpt><trkpt lat="43.22934878207057" lon="-2.848209820906797"><ele>42.0</ele><time>2026-04-30T12:28:05.999Z</time></trkpt><trkpt lat="43.229444959905564" lon="-2.8482472765472537"><ele>42.5</ele><time>2026-04-30T12:28:07.999Z</time></trkpt><trkpt lat="43.22953102543656" lon="-2.8482456413074293"><ele>43.0</ele><time>2026-04-30T12:28:11.999Z</time></trkpt><trkpt lat="43.22964587235942" lon="-2.848251456933521"><ele>43.5</ele><time>2026-04-30T12:28:13.999Z</time></trkpt><trkpt lat="43.22971151136462" lon="-2.848279915465051"><ele>44.0</ele><time>2026-04-30T12:28:14.999Z</time></trkpt><trkpt lat="43.229771168647325" lon="-2.8483349697556775"><ele>44.166666666666664</ele><time>2026-04-30T12:28:15.999Z</time></trkpt><trkpt lat="43.22981832818704" lon="-2.848420999841393"><ele>44.33333333333333</ele><time>2026-04-30T12:28:16.999Z</time></trkpt><trkpt lat="43.22986628494869" lon="-2.8485077026861463"><ele>44.5</ele><time>2026-04-30T12:28:17.999Z</time></trkpt><trkpt lat="43.22991980460456" lon="-2.848580068895892"><ele>44.666666666666664</ele><time>2026-04-30T12:28:18.999Z</time></trkpt><trkpt lat="43.229980811564836" lon="-2.84864796838285"><ele>44.833333333333336</ele><time>2026-04-30T12:28:19.999Z</time></trkpt><trkpt lat="43.23004757962544" lon="-2.848709488517852"><ele>45.0</ele><time>2026-04-30T12:28:20.999Z</time></trkpt><trkpt lat="43.23011252480171" lon="-2.848772801306814"><ele>44.5</ele><time>2026-04-30T12:28:21.999Z</time></trkpt><trkpt lat="43.23017461989415" lon="-2.848850132100332"><ele>44.0</ele><time>2026-04-30T12:28:22.999Z</time></trkpt><trkpt lat="43.23024195468698" lon="-2.8489287325511197"><ele>43.5</ele><time>2026-04-30T12:28:23.999Z</time></trkpt><trkpt lat="43.23030642739381" lon="-2.8490145672033065"><ele>43.0</ele><time>2026-04-30T12:28:24.999Z</time></trkpt><trkpt lat="43.23037461894466" lon="-2.8491008589532694"><ele>42.5</ele><time>2026-04-30T12:28:25.999Z</time></trkpt><trkpt lat="43.230434819713466" lon="-2.8491971905353752"><ele>42.0</ele><time>2026-04-30T12:28:26.999Z</time></trkpt><trkpt lat="43.230507640704715" lon="-2.8492830544340197"><ele>41.833333333333336</ele><time>2026-04-30T12:28:27.999Z</time></trkpt><trkpt lat="43.23056365442696" lon="-2.849375853893343"><ele>41.666666666666664</ele><time>2026-04-30T12:28:29Z</time></trkpt><trkpt lat="43.23060373653966" lon="-2.8494537541320226"><ele>41.5</ele><time>2026-04-30T12:28:30Z</time></trkpt><trkpt lat="43.23065770793097" lon="-2.849522910519479"><ele>41.33333333333333</ele><time>2026-04-30T12:28:31Z</time></trkpt><trkpt lat="43.230724255625276" lon="-2.849608181683007"><ele>41.166666666666664</ele><time>2026-04-30T12:28:32Z</time></trkpt><trkpt lat="43.230804996244096" lon="-2.849711638971454"><ele>41.0</ele><time>2026-04-30T12:28:33Z</time></trkpt><trkpt lat="43.230897288943105" lon="-2.849829898661869"><ele>41.0</ele><time>2026-04-30T12:28:34Z</time></trkpt><trkpt lat="43.23098629562238" lon="-2.849906853079734"><ele>41.0</ele><time>2026-04-30T12:28:35Z</time></trkpt><trkpt lat="43.23107258949265" lon="-2.849945193268205"><ele>41.0</ele><time>2026-04-30T12:28:36Z</time></trkpt><trkpt lat="43.231131203205294" lon="-2.8501195440387255"><ele>41.0</ele><time>2026-04-30T12:28:37Z</time></trkpt><trkpt lat="43.23121702560459" lon="-2.8502637559160697"><ele>41.0</ele><time>2026-04-30T12:28:38Z</time></trkpt><trkpt lat="43.23128287928638" lon="-2.85030662896531"><ele>41.0</ele><time>2026-04-30T12:28:39Z</time></trkpt><trkpt lat="43.231355097759305" lon="-2.850399345209895"><ele>41.0</ele><time>2026-04-30T12:28:40Z</time></trkpt><trkpt lat="43.2314219582574" lon="-2.8504972361639194"><ele>41.0</ele><time>2026-04-30T12:28:41Z</time></trkpt><trkpt lat="43.23149394625308" lon="-2.8505892357179836"><ele>41.0</ele><time>2026-04-30T12:28:42Z</time></trkpt><trkpt lat="43.23156321221873" lon="-2.850680230973598"><ele>41.0</ele><time>2026-04-30T12:28:43Z</time></trkpt><trkpt lat="43.231632877427785" lon="-2.8507746526089646"><ele>41.0</ele><time>2026-04-30T12:28:44Z</time></trkpt><trkpt lat="43.23170137155623" lon="-2.850867550155159"><ele>41.0</ele><time>2026-04-30T12:28:45Z</time></trkpt><trkpt lat="43.23176857180467" lon="-2.850962395315081"><ele>41.0</ele><time>2026-04-30T12:28:46Z</time></trkpt><trkpt lat="43.23182430047508" lon="-2.8510682703651"><ele>41.0</ele><time>2026-04-30T12:28:47Z</time></trkpt><trkpt lat="43.23187796240018" lon="-2.851174519510948"><ele>40.599999999999994</ele><time>2026-04-30T12:28:48Z</time></trkpt><trkpt lat="43.23191867935429" lon="-2.8512960903826863"><ele>40.199999999999996</ele><time>2026-04-30T12:28:49Z</time></trkpt><trkpt lat="43.23195067723843" lon="-2.8514157994296476"><ele>39.8</ele><time>2026-04-30T12:28:50Z</time></trkpt><trkpt lat="43.23198251223002" lon="-2.851534657926582"><ele>39.4</ele><time>2026-04-30T12:28:51Z</time></trkpt><trkpt lat="43.232004333552474" lon="-2.8516589433859005"><ele>39.0</ele><time>2026-04-30T12:28:52Z</time></trkpt><trkpt lat="43.23202548650045" lon="-2.8517834342154065"><ele>39.4</ele><time>2026-04-30T12:28:53Z</time></trkpt><trkpt lat="43.23203305407607" lon="-2.8519068759265247"><ele>39.8</ele><time>2026-04-30T12:28:54Z</time></trkpt><trkpt lat="43.232042473045865" lon="-2.8520389925911163"><ele>40.199999999999996</ele><time>2026-04-30T12:28:55Z</time></trkpt><trkpt lat="43.23204227325216" lon="-2.852169254232334"><ele>40.599999999999994</ele><time>2026-04-30T12:28:56Z</time></trkpt><trkpt lat="43.232040473581186" lon="-2.852300341894553"><ele>41.0</ele><time>2026-04-30T12:28:57.001Z</time></trkpt><trkpt lat="43.232034772523676" lon="-2.8524355586431724"><ele>41.0</ele><time>2026-04-30T12:28:58.001Z</time></trkpt><trkpt lat="43.23201972370927" lon="-2.852567160457392"><ele>41.0</ele><time>2026-04-30T12:28:59.001Z</time></trkpt><trkpt lat="43.232001590403755" lon="-2.8527006612624595"><ele>41.0</ele><time>2026-04-30T12:29:00.001Z</time></trkpt><trkpt lat="43.231976872631435" lon="-2.8528281876865607"><ele>41.0</ele><time>2026-04-30T12:29:01.001Z</time></trkpt><trkpt lat="43.23194228489835" lon="-2.8529528017599213"><ele>41.0</ele><time>2026-04-30T12:29:02.001Z</time></trkpt><trkpt lat="43.23190453472688" lon="-2.85307380496503"><ele>41.5</ele><time>2026-04-30T12:29:03.001Z</time></trkpt><trkpt lat="43.2318668973363" lon="-2.853189477909643"><ele>42.0</ele><time>2026-04-30T12:29:04.001Z</time></trkpt><trkpt lat="43.23183268065934" lon="-2.8532984790547706"><ele>42.5</ele><time>2026-04-30T12:29:05.001Z</time></trkpt><trkpt lat="43.231804407739595" lon="-2.85339724749229"><ele>43.0</ele><time>2026-04-30T12:29:06.001Z</time></trkpt><trkpt lat="43.231781723987865" lon="-2.8535005239238296"><ele>43.5</ele><time>2026-04-30T12:29:07.001Z</time></trkpt><trkpt lat="43.23178788512809" lon="-2.853617819738546"><ele>44.0</ele><time>2026-04-30T12:29:08.001Z</time></trkpt><trkpt lat="43.23181831251922" lon="-2.853736102451679"><ele>44.0</ele><time>2026-04-30T12:29:09.001Z</time></trkpt><trkpt lat="43.231831449311414" lon="-2.853853802504271"><ele>44.0</ele><time>2026-04-30T12:29:10.001Z</time></trkpt><trkpt lat="43.23181199978403" lon="-2.854004964359368"><ele>44.0</ele><time>2026-04-30T12:29:11.001Z</time></trkpt><trkpt lat="43.23176268595405" lon="-2.8540922410103247"><ele>44.0</ele><time>2026-04-30T12:29:12.001Z</time></trkpt><trkpt lat="43.231711280768955" lon="-2.8541892305273007"><ele>44.0</ele><time>2026-04-30T12:29:13.001Z</time></trkpt><trkpt lat="43.231675076755074" lon="-2.85430151205898"><ele>43.400000000000006</ele><time>2026-04-30T12:29:14.001Z</time></trkpt><trkpt lat="43.23166079535896" lon="-2.854424823142994"><ele>42.8</ele><time>2026-04-30T12:29:15.001Z</time></trkpt><trkpt lat="43.2316567711459" lon="-2.85455282522927"><ele>42.2</ele><time>2026-04-30T12:29:16.001Z</time></trkpt><trkpt lat="43.231663446426595" lon="-2.8546877588615214"><ele>41.599999999999994</ele><time>2026-04-30T12:29:17.001Z</time></trkpt><trkpt lat="43.231668618705626" lon="-2.85482098818985"><ele>41.0</ele><time>2026-04-30T12:29:18.001Z</time></trkpt><trkpt lat="43.231672390291074" lon="-2.8549537398129643"><ele>41.0</ele><time>2026-04-30T12:29:19.001Z</time></trkpt><trkpt lat="43.231686049921" lon="-2.855087523946826"><ele>41.0</ele><time>2026-04-30T12:29:20.001Z</time></trkpt><trkpt lat="43.23170262633151" lon="-2.8552250059376836"><ele>41.0</ele><time>2026-04-30T12:29:21.001Z</time></trkpt><trkpt lat="43.23171862278856" lon="-2.8553640073293676"><ele>41.0</ele><time>2026-04-30T12:29:22.001Z</time></trkpt><trkpt lat="43.231744665256336" lon="-2.8555093608207636"><ele>41.0</ele><time>2026-04-30T12:29:23.001Z</time></trkpt><trkpt lat="43.23176393059469" lon="-2.8556477243696055"><ele>41.199999999999996</ele><time>2026-04-30T12:29:24.001Z</time></trkpt><trkpt lat="43.23178367590604" lon="-2.855784842441732"><ele>41.4</ele><time>2026-04-30T12:29:25.001Z</time></trkpt><trkpt lat="43.231805466850375" lon="-2.8559245570250287"><ele>41.6</ele><time>2026-04-30T12:29:26.001Z</time></trkpt><trkpt lat="43.23182855257269" lon="-2.8560622566517075"><ele>41.8</ele><time>2026-04-30T12:29:27.001Z</time></trkpt><trkpt lat="43.23184936355836" lon="-2.8562025083054725"><ele>42.0</ele><time>2026-04-30T12:29:28.001Z</time></trkpt><trkpt lat="43.23187596577922" lon="-2.856339837449943"><ele>42.0</ele><time>2026-04-30T12:29:29.001Z</time></trkpt><trkpt lat="43.23190655521213" lon="-2.8564781719044126"><ele>42.0</ele><time>2026-04-30T12:29:30.002Z</time></trkpt><trkpt lat="43.231933992718176" lon="-2.856614458020421"><ele>42.0</ele><time>2026-04-30T12:29:31.002Z</time></trkpt><trkpt lat="43.23195772014294" lon="-2.856752928310205"><ele>42.0</ele><time>2026-04-30T12:29:32.002Z</time></trkpt><trkpt lat="43.2319819443721" lon="-2.856891264845468"><ele>42.0</ele><time>2026-04-30T12:29:33.002Z</time></trkpt><trkpt lat="43.231998250540514" lon="-2.8570287796139247"><ele>41.2</ele><time>2026-04-30T12:29:34.002Z</time></trkpt><trkpt lat="43.23203198576304" lon="-2.8571549418999793"><ele>40.400000000000006</ele><time>2026-04-30T12:29:35.002Z</time></trkpt><trkpt lat="43.23207784441704" lon="-2.8572798138758797"><ele>39.599999999999994</ele><time>2026-04-30T12:29:36.002Z</time></trkpt><trkpt lat="43.23208787868351" lon="-2.8574082549429853"><ele>38.8</ele><time>2026-04-30T12:29:37.002Z</time></trkpt><trkpt lat="43.23209515646925" lon="-2.8575791330004128"><ele>38.0</ele><time>2026-04-30T12:29:38.002Z</time></trkpt><trkpt lat="43.23209676518672" lon="-2.8577926212167966"><ele>38.0</ele><time>2026-04-30T12:29:39.002Z</time></trkpt><trkpt lat="43.23212908380801" lon="-2.8579708034852835"><ele>38.0</ele><time>2026-04-30T12:29:40.002Z</time></trkpt><trkpt lat="43.232177174089436" lon="-2.8581053905630767"><ele>38.0</ele><time>2026-04-30T12:29:42.002Z</time></trkpt><trkpt lat="43.23219773631265" lon="-2.858237165588406"><ele>38.0</ele><time>2026-04-30T12:29:43.002Z</time></trkpt><trkpt lat="43.23221765102019" lon="-2.858365057401257"><ele>38.0</ele><time>2026-04-30T12:29:44.002Z</time></trkpt><trkpt lat="43.23223413325545" lon="-2.8584797829536503"><ele>38.0</ele><time>2026-04-30T12:29:45.002Z</time></trkpt><trkpt lat="43.232248026089586" lon="-2.858583330970313"><ele>38.0</ele><time>2026-04-30T12:29:46.002Z</time></trkpt><trkpt lat="43.232258604934266" lon="-2.858673997627574"><ele>38.0</ele><time>2026-04-30T12:29:47.002Z</time></trkpt><trkpt lat="43.23227775298774" lon="-2.8588256118003317"><ele>38.0</ele><time>2026-04-30T12:29:49.002Z</time></trkpt><trkpt lat="43.2322900776613" lon="-2.8589336137367143"><ele>38.0</ele><time>2026-04-30T12:29:51.002Z</time></trkpt><trkpt lat="43.23230761262959" lon="-2.859045464184278"><ele>38.0</ele><time>2026-04-30T12:30:17.999Z</time></trkpt><trkpt lat="43.23231968760636" lon="-2.8591828827233527"><ele>38.42857142857142</ele><time>2026-04-30T12:30:19.999Z</time></trkpt><trkpt lat="43.23233218821326" lon="-2.859268165367676"><ele>38.85714285714286</ele><time>2026-04-30T12:30:20.999Z</time></trkpt><trkpt lat="43.232342813489076" lon="-2.8593591403150125"><ele>39.285714285714285</ele><time>2026-04-30T12:30:21.999Z</time></trkpt><trkpt lat="43.23235549525165" lon="-2.859458781291057"><ele>39.71428571428571</ele><time>2026-04-30T12:30:22.999Z</time></trkpt><trkpt lat="43.23236912986771" lon="-2.8595586263292745"><ele>40.14285714285714</ele><time>2026-04-30T12:30:23.999Z</time></trkpt><trkpt lat="43.23238642346896" lon="-2.8596649547830273"><ele>40.57142857142857</ele><time>2026-04-30T12:30:24.999Z</time></trkpt><trkpt lat="43.232399535311345" lon="-2.8597765106537287"><ele>41.0</ele><time>2026-04-30T12:30:25.999Z</time></trkpt><trkpt lat="43.232414938155515" lon="-2.859888040190709"><ele>41.0</ele><time>2026-04-30T12:30:26.999Z</time></trkpt><trkpt lat="43.23242879545633" lon="-2.8600033371382905"><ele>41.0</ele><time>2026-04-30T12:30:27.999Z</time></trkpt><trkpt lat="43.232442441551825" lon="-2.8601193849206363"><ele>41.0</ele><time>2026-04-30T12:30:29Z</time></trkpt><trkpt lat="43.23245719791559" lon="-2.860239293525199"><ele>41.0</ele><time>2026-04-30T12:30:30Z</time></trkpt><trkpt lat="43.23247412444598" lon="-2.8603552156193084"><ele>41.0</ele><time>2026-04-30T12:30:31Z</time></trkpt><trkpt lat="43.232491237956104" lon="-2.8604757472533913"><ele>41.0</ele><time>2026-04-30T12:30:32Z</time></trkpt><trkpt lat="43.23250711506934" lon="-2.8605954679851933"><ele>40.8</ele><time>2026-04-30T12:30:33Z</time></trkpt><trkpt lat="43.2325216529887" lon="-2.860718431263354"><ele>40.599999999999994</ele><time>2026-04-30T12:30:34Z</time></trkpt><trkpt lat="43.232535084325036" lon="-2.860837326454348"><ele>40.4</ele><time>2026-04-30T12:30:35Z</time></trkpt><trkpt lat="43.23254873815237" lon="-2.8609641498246883"><ele>40.2</ele><time>2026-04-30T12:30:36Z</time></trkpt><trkpt lat="43.232565750561875" lon="-2.8610870626961344"><ele>40.0</ele><time>2026-04-30T12:30:37Z</time></trkpt><trkpt lat="43.23258231415413" lon="-2.861214652383259"><ele>40.4</ele><time>2026-04-30T12:30:38Z</time></trkpt><trkpt lat="43.23260082838974" lon="-2.8613417714354084"><ele>40.8</ele><time>2026-04-30T12:30:39Z</time></trkpt><trkpt lat="43.23261675120187" lon="-2.861467294995146"><ele>41.2</ele><time>2026-04-30T12:30:40Z</time></trkpt><trkpt lat="43.23263238570995" lon="-2.8615955147309733"><ele>41.6</ele><time>2026-04-30T12:30:41Z</time></trkpt><trkpt lat="43.23264907239997" lon="-2.861722662170173"><ele>42.0</ele><time>2026-04-30T12:30:42Z</time></trkpt><trkpt lat="43.23266804333648" lon="-2.8618504908712867"><ele>42.0</ele><time>2026-04-30T12:30:43Z</time></trkpt><trkpt lat="43.23268518802432" lon="-2.861980487368732"><ele>42.0</ele><time>2026-04-30T12:30:44Z</time></trkpt><trkpt lat="43.23269149595828" lon="-2.862109598834657"><ele>42.0</ele><time>2026-04-30T12:30:45Z</time></trkpt><trkpt lat="43.23271925936241" lon="-2.862249231609103"><ele>42.0</ele><time>2026-04-30T12:30:46Z</time></trkpt><trkpt lat="43.23273035158437" lon="-2.862375620021825"><ele>42.0</ele><time>2026-04-30T12:30:47Z</time></trkpt><trkpt lat="43.232741115284554" lon="-2.8625043122532703"><ele>41.833333333333336</ele><time>2026-04-30T12:30:48Z</time></trkpt><trkpt lat="43.23275673097867" lon="-2.862626857524406"><ele>41.666666666666664</ele><time>2026-04-30T12:30:49Z</time></trkpt><trkpt lat="43.232770943079196" lon="-2.862738936997769"><ele>41.5</ele><time>2026-04-30T12:30:50Z</time></trkpt><trkpt lat="43.2327887554775" lon="-2.862839746928298"><ele>41.33333333333333</ele><time>2026-04-30T12:30:51Z</time></trkpt><trkpt lat="43.232813159523495" lon="-2.862935658095987"><ele>41.166666666666664</ele><time>2026-04-30T12:30:52Z</time></trkpt><trkpt lat="43.23284605094597" lon="-2.8630342342141724"><ele>41.0</ele><time>2026-04-30T12:30:53Z</time></trkpt><trkpt lat="43.23289176864055" lon="-2.8631294251754955"><ele>41.0</ele><time>2026-04-30T12:30:54.001Z</time></trkpt><trkpt lat="43.232946688742" lon="-2.8632189164201605"><ele>41.0</ele><time>2026-04-30T12:30:55.001Z</time></trkpt><trkpt lat="43.23298749642826" lon="-2.863318668819479"><ele>41.0</ele><time>2026-04-30T12:30:56.001Z</time></trkpt><trkpt lat="43.23299261390383" lon="-2.8634396086329286"><ele>41.0</ele><time>2026-04-30T12:30:57.001Z</time></trkpt><trkpt lat="43.23296470236264" lon="-2.863563136373588"><ele>41.0</ele><time>2026-04-30T12:30:58.001Z</time></trkpt><trkpt lat="43.23292643551442" lon="-2.863681056598682"><ele>41.0</ele><time>2026-04-30T12:30:59.001Z</time></trkpt><trkpt lat="43.23288375508762" lon="-2.8637901014388683"><ele>40.8</ele><time>2026-04-30T12:31:00.001Z</time></trkpt><trkpt lat="43.232907444884205" lon="-2.863927205225597"><ele>40.599999999999994</ele><time>2026-04-30T12:31:01.001Z</time></trkpt><trkpt lat="43.23293108046563" lon="-2.8640542303603365"><ele>40.4</ele><time>2026-04-30T12:31:02.001Z</time></trkpt><trkpt lat="43.2329558046844" lon="-2.864177860641476"><ele>40.2</ele><time>2026-04-30T12:31:03.001Z</time></trkpt><trkpt lat="43.23298158002856" lon="-2.8642994120320444"><ele>40.0</ele><time>2026-04-30T12:31:04.001Z</time></trkpt><trkpt lat="43.23301250973074" lon="-2.864433036942115"><ele>39.75</ele><time>2026-04-30T12:31:05.001Z</time></trkpt><trkpt lat="43.23306435588093" lon="-2.8645963377051693"><ele>39.5</ele><time>2026-04-30T12:31:06.001Z</time></trkpt><trkpt lat="43.233092553339674" lon="-2.864802073518155"><ele>39.25</ele><time>2026-04-30T12:31:08.001Z</time></trkpt><trkpt lat="43.23312615621507" lon="-2.8649290510505687"><ele>39.0</ele><time>2026-04-30T12:31:09.001Z</time></trkpt><trkpt lat="43.23316470651497" lon="-2.8650542525515172"><ele>39.8</ele><time>2026-04-30T12:31:10.001Z</time></trkpt><trkpt lat="43.23320212945164" lon="-2.865181289327403"><ele>40.599999999999994</ele><time>2026-04-30T12:31:11.001Z</time></trkpt><trkpt lat="43.23324285543144" lon="-2.8653043635468465"><ele>41.4</ele><time>2026-04-30T12:31:12.001Z</time></trkpt><trkpt lat="43.23328300794579" lon="-2.865424689216151"><ele>42.199999999999996</ele><time>2026-04-30T12:31:13.001Z</time></trkpt><trkpt lat="43.2333134381575" lon="-2.86552587989628"><ele>43.0</ele><time>2026-04-30T12:31:14.001Z</time></trkpt><trkpt lat="43.233362825858585" lon="-2.8656564331173953"><ele>43.0</ele><time>2026-04-30T12:31:15.001Z</time></trkpt><trkpt lat="43.23341722275729" lon="-2.865787481644524"><ele>43.0</ele><time>2026-04-30T12:31:16.001Z</time></trkpt><trkpt lat="43.23346938248408" lon="-2.865922581929091"><ele>43.0</ele><time>2026-04-30T12:31:17.001Z</time></trkpt><trkpt lat="43.23352559235027" lon="-2.866033867749246"><ele>43.0</ele><time>2026-04-30T12:31:18.001Z</time></trkpt><trkpt lat="43.2335812328941" lon="-2.866151205158384"><ele>43.0</ele><time>2026-04-30T12:31:19.001Z</time></trkpt><trkpt lat="43.23364068365653" lon="-2.866266196455225"><ele>42.4</ele><time>2026-04-30T12:31:20.001Z</time></trkpt><trkpt lat="43.23370004887552" lon="-2.866379062549318"><ele>41.8</ele><time>2026-04-30T12:31:21.001Z</time></trkpt><trkpt lat="43.23375945463127" lon="-2.8664897836520735"><ele>41.2</ele><time>2026-04-30T12:31:22.001Z</time></trkpt><trkpt lat="43.23382299080871" lon="-2.8666029151723325"><ele>40.6</ele><time>2026-04-30T12:31:23.001Z</time></trkpt><trkpt lat="43.233886092669636" lon="-2.866709912730706"><ele>40.0</ele><time>2026-04-30T12:31:24.001Z</time></trkpt><trkpt lat="43.23394338934964" lon="-2.8667976550584777"><ele>40.0</ele><time>2026-04-30T12:31:25.002Z</time></trkpt><trkpt lat="43.23399478163554" lon="-2.866882455534956"><ele>40.0</ele><time>2026-04-30T12:31:26.002Z</time></trkpt><trkpt lat="43.23403983558673" lon="-2.8669555285234516"><ele>40.0</ele><time>2026-04-30T12:31:27.002Z</time></trkpt><trkpt lat="43.234081371276815" lon="-2.8670263550855775"><ele>40.0</ele><time>2026-04-30T12:31:28.002Z</time></trkpt><trkpt lat="43.2341454847758" lon="-2.8671315716255523"><ele>40.0</ele><time>2026-04-30T12:31:30.002Z</time></trkpt><trkpt lat="43.23420134949388" lon="-2.867219103647702"><ele>40.0</ele><time>2026-04-30T12:31:32.002Z</time></trkpt><trkpt lat="43.234242199294975" lon="-2.8672856375372584"><ele>40.0</ele><time>2026-04-30T12:32:06.003Z</time></trkpt><trkpt lat="43.234305095041826" lon="-2.867380576868805"><ele>40.0</ele><time>2026-04-30T12:32:09.003Z</time></trkpt><trkpt lat="43.23437882469908" lon="-2.867498511836116"><ele>40.0</ele><time>2026-04-30T12:32:11.003Z</time></trkpt><trkpt lat="43.23442253016084" lon="-2.8675705783293064"><ele>40.0</ele><time>2026-04-30T12:32:12.003Z</time></trkpt><trkpt lat="43.23447042295215" lon="-2.8676455409903188"><ele>40.0</ele><time>2026-04-30T12:32:13.003Z</time></trkpt><trkpt lat="43.23452234541774" lon="-2.86771998374064"><ele>40.0</ele><time>2026-04-30T12:32:14.003Z</time></trkpt><trkpt lat="43.234574800443156" lon="-2.867799567535494"><ele>39.5</ele><time>2026-04-30T12:32:15.003Z</time></trkpt><trkpt lat="43.234627468457134" lon="-2.86788413567292"><ele>39.0</ele><time>2026-04-30T12:32:16.003Z</time></trkpt><trkpt lat="43.234684299980024" lon="-2.8679720652739036"><ele>38.5</ele><time>2026-04-30T12:32:17.003Z</time></trkpt><trkpt lat="43.23473984148526" lon="-2.868060906922001"><ele>38.0</ele><time>2026-04-30T12:32:18Z</time></trkpt><trkpt lat="43.23479525341526" lon="-2.8681562256611235"><ele>37.5</ele><time>2026-04-30T12:32:19Z</time></trkpt><trkpt lat="43.23485832987436" lon="-2.86824664641055"><ele>37.0</ele><time>2026-04-30T12:32:20Z</time></trkpt><trkpt lat="43.23491759119462" lon="-2.8683420856321677"><ele>37.6</ele><time>2026-04-30T12:32:21Z</time></trkpt><trkpt lat="43.234979984772025" lon="-2.868435238041427"><ele>38.2</ele><time>2026-04-30T12:32:22Z</time></trkpt><trkpt lat="43.235040201629374" lon="-2.868528053815768"><ele>38.8</ele><time>2026-04-30T12:32:23Z</time></trkpt><trkpt lat="43.235104205197686" lon="-2.868626782121207"><ele>39.4</ele><time>2026-04-30T12:32:24Z</time></trkpt><trkpt lat="43.23518224812004" lon="-2.8687183632144353"><ele>40.0</ele><time>2026-04-30T12:32:25Z</time></trkpt><trkpt lat="43.23524760524377" lon="-2.868803459904458"><ele>40.0</ele><time>2026-04-30T12:32:26Z</time></trkpt><trkpt lat="43.235311158682805" lon="-2.868889313406624"><ele>40.0</ele><time>2026-04-30T12:32:27Z</time></trkpt><trkpt lat="43.23537639535567" lon="-2.8689746862475967"><ele>40.0</ele><time>2026-04-30T12:32:28Z</time></trkpt><trkpt lat="43.23544239778958" lon="-2.8690558387818568"><ele>40.0</ele><time>2026-04-30T12:32:29Z</time></trkpt><trkpt lat="43.23550746410197" lon="-2.869132150227508"><ele>40.0</ele><time>2026-04-30T12:32:30Z</time></trkpt><trkpt lat="43.23557065358778" lon="-2.869201921447342"><ele>40.0</ele><time>2026-04-30T12:32:31Z</time></trkpt><trkpt lat="43.23563340734108" lon="-2.8692690336307343"><ele>39.833333333333336</ele><time>2026-04-30T12:32:32Z</time></trkpt><trkpt lat="43.235699286747085" lon="-2.869326436447763"><ele>39.66666666666667</ele><time>2026-04-30T12:32:33Z</time></trkpt><trkpt lat="43.235773140291435" lon="-2.869376064906734"><ele>39.5</ele><time>2026-04-30T12:32:34Z</time></trkpt><trkpt lat="43.235854065867116" lon="-2.8694031824477757"><ele>39.333333333333336</ele><time>2026-04-30T12:32:35Z</time></trkpt><trkpt lat="43.235935920231086" lon="-2.869435642473834"><ele>39.166666666666664</ele><time>2026-04-30T12:32:36Z</time></trkpt><trkpt lat="43.2360041066601" lon="-2.8695039595454372"><ele>39.0</ele><time>2026-04-30T12:32:37Z</time></trkpt><trkpt lat="43.236059882613844" lon="-2.869597163662839"><ele>39.0</ele><time>2026-04-30T12:32:38Z</time></trkpt><trkpt lat="43.236110471085" lon="-2.869695656895124"><ele>39.0</ele><time>2026-04-30T12:32:39Z</time></trkpt><trkpt lat="43.236160083003405" lon="-2.869796735692972"><ele>39.0</ele><time>2026-04-30T12:32:40Z</time></trkpt><trkpt lat="43.23621367971252" lon="-2.8698917726832933"><ele>39.0</ele><time>2026-04-30T12:32:41Z</time></trkpt><trkpt lat="43.23627325586878" lon="-2.869984376468119"><ele>39.0</ele><time>2026-04-30T12:32:42Z</time></trkpt><trkpt lat="43.236337847300945" lon="-2.870068859342025"><ele>39.0</ele><time>2026-04-30T12:32:43Z</time></trkpt><trkpt lat="43.236411214849944" lon="-2.8701458759789653"><ele>39.4</ele><time>2026-04-30T12:32:44Z</time></trkpt><trkpt lat="43.2364858659515" lon="-2.870215919500305"><ele>39.8</ele><time>2026-04-30T12:32:45Z</time></trkpt><trkpt lat="43.236559488464195" lon="-2.8702817544931687"><ele>40.199999999999996</ele><time>2026-04-30T12:32:46Z</time></trkpt><trkpt lat="43.236651091110794" lon="-2.8703381453029633"><ele>40.599999999999994</ele><time>2026-04-30T12:32:47Z</time></trkpt><trkpt lat="43.23672638729024" lon="-2.870390120323168"><ele>41.0</ele><time>2026-04-30T12:32:48.001Z</time></trkpt><trkpt lat="43.23679728387566" lon="-2.87045938488868"><ele>41.0</ele><time>2026-04-30T12:32:49.001Z</time></trkpt><trkpt lat="43.23685533243325" lon="-2.870554881925851"><ele>41.0</ele><time>2026-04-30T12:32:51.001Z</time></trkpt><trkpt lat="43.237026330193764" lon="-2.870693302510022"><ele>41.0</ele><time>2026-04-30T12:32:52.001Z</time></trkpt><trkpt lat="43.237105082549085" lon="-2.870766174775676"><ele>41.0</ele><time>2026-04-30T12:32:53.001Z</time></trkpt><trkpt lat="43.23718398345761" lon="-2.870836936061773"><ele>41.0</ele><time>2026-04-30T12:32:54.001Z</time></trkpt><trkpt lat="43.237264671697496" lon="-2.870904544659509"><ele>41.0</ele><time>2026-04-30T12:32:55.001Z</time></trkpt><trkpt lat="43.2373408883729" lon="-2.870972281295185"><ele>41.0</ele><time>2026-04-30T12:32:56.001Z</time></trkpt><trkpt lat="43.237422398372146" lon="-2.8710505937686603"><ele>41.0</ele><time>2026-04-30T12:32:57.001Z</time></trkpt><trkpt lat="43.23750095245527" lon="-2.871121813355294"><ele>41.0</ele><time>2026-04-30T12:32:58.001Z</time></trkpt><trkpt lat="43.2375779210102" lon="-2.871193174629175"><ele>41.0</ele><time>2026-04-30T12:32:59.001Z</time></trkpt><trkpt lat="43.237654105213636" lon="-2.871269386734251"><ele>41.0</ele><time>2026-04-30T12:33:00.001Z</time></trkpt><trkpt lat="43.23773464876671" lon="-2.871344185873752"><ele>41.0</ele><time>2026-04-30T12:33:01.001Z</time></trkpt><trkpt lat="43.23781150012666" lon="-2.871426159174708"><ele>41.0</ele><time>2026-04-30T12:33:02.001Z</time></trkpt><trkpt lat="43.23788802933041" lon="-2.871502671916811"><ele>41.0</ele><time>2026-04-30T12:33:03.001Z</time></trkpt><trkpt lat="43.23796666312025" lon="-2.871581501647712"><ele>41.0</ele><time>2026-04-30T12:33:04.001Z</time></trkpt><trkpt lat="43.23804607929127" lon="-2.871656422728308"><ele>41.0</ele><time>2026-04-30T12:33:05.001Z</time></trkpt><trkpt lat="43.23812600835623" lon="-2.8717317646615017"><ele>41.0</ele><time>2026-04-30T12:33:06.001Z</time></trkpt><trkpt lat="43.23820164272009" lon="-2.871810375257903"><ele>41.0</ele><time>2026-04-30T12:33:07.001Z</time></trkpt><trkpt lat="43.23827763923849" lon="-2.8718829956319305"><ele>41.0</ele><time>2026-04-30T12:33:08.001Z</time></trkpt><trkpt lat="43.238350290758994" lon="-2.8719505929755877"><ele>40.33333333333333</ele><time>2026-04-30T12:33:09.001Z</time></trkpt><trkpt lat="43.238421690281626" lon="-2.872014065365941"><ele>39.666666666666664</ele><time>2026-04-30T12:33:10.001Z</time></trkpt><trkpt lat="43.23848942090399" lon="-2.872080946509901"><ele>39.0</ele><time>2026-04-30T12:33:11.001Z</time></trkpt><trkpt lat="43.23855440013789" lon="-2.872142694083023"><ele>38.333333333333336</ele><time>2026-04-30T12:33:12.001Z</time></trkpt><trkpt lat="43.23862162204997" lon="-2.872207115197737"><ele>37.66666666666667</ele><time>2026-04-30T12:33:13.001Z</time></trkpt><trkpt lat="43.2386844738926" lon="-2.872267727179438"><ele>37.0</ele><time>2026-04-30T12:33:14.001Z</time></trkpt><trkpt lat="43.23873902562881" lon="-2.8723238316571598"><ele>37.0</ele><time>2026-04-30T12:33:15.001Z</time></trkpt><trkpt lat="43.238800236148606" lon="-2.8723808564995585"><ele>37.0</ele><time>2026-04-30T12:33:16.001Z</time></trkpt><trkpt lat="43.23886250312561" lon="-2.872436242201163"><ele>37.0</ele><time>2026-04-30T12:33:17.001Z</time></trkpt><trkpt lat="43.23892092490431" lon="-2.872495081078118"><ele>37.0</ele><time>2026-04-30T12:33:18.001Z</time></trkpt><trkpt lat="43.238976658763654" lon="-2.8725513487188357"><ele>37.0</ele><time>2026-04-30T12:33:19.001Z</time></trkpt><trkpt lat="43.23903111168499" lon="-2.872598124414777"><ele>37.0</ele><time>2026-04-30T12:33:20.001Z</time></trkpt><trkpt lat="43.239121634035605" lon="-2.8727059449090335"><ele>37.6</ele><time>2026-04-30T12:33:22.001Z</time></trkpt><trkpt lat="43.23921858019834" lon="-2.8728081192125305"><ele>38.2</ele><time>2026-04-30T12:33:24.002Z</time></trkpt><trkpt lat="43.23930620129293" lon="-2.87288888797135"><ele>38.8</ele><time>2026-04-30T12:33:26.002Z</time></trkpt><trkpt lat="43.239377000505016" lon="-2.872961924356507"><ele>39.4</ele><time>2026-04-30T12:33:28.002Z</time></trkpt><trkpt lat="43.23945442729494" lon="-2.87299713068777"><ele>40.0</ele><time>2026-04-30T12:33:34.002Z</time></trkpt><trkpt lat="43.23953157833118" lon="-2.8730669912944875"><ele>40.0</ele><time>2026-04-30T12:33:36.002Z</time></trkpt><trkpt lat="43.23963638334092" lon="-2.873168112503692"><ele>40.0</ele><time>2026-04-30T12:33:38.002Z</time></trkpt><trkpt lat="43.239699016780335" lon="-2.873221907976473"><ele>40.0</ele><time>2026-04-30T12:33:39.002Z</time></trkpt><trkpt lat="43.23976769270405" lon="-2.873275920370807"><ele>40.0</ele><time>2026-04-30T12:33:40.002Z</time></trkpt><trkpt lat="43.239837938699495" lon="-2.8733402776615056"><ele>40.0</ele><time>2026-04-30T12:33:41.002Z</time></trkpt><trkpt lat="43.23990886482405" lon="-2.8734068102070727"><ele>39.4</ele><time>2026-04-30T12:33:42.002Z</time></trkpt><trkpt lat="43.23998378222211" lon="-2.87347735431961"><ele>38.8</ele><time>2026-04-30T12:33:43.002Z</time></trkpt><trkpt lat="43.24005863603762" lon="-2.873546609853012"><ele>38.2</ele><time>2026-04-30T12:33:44.002Z</time></trkpt><trkpt lat="43.24013429906005" lon="-2.8736175529466137"><ele>37.6</ele><time>2026-04-30T12:33:45.002Z</time></trkpt><trkpt lat="43.2402105460293" lon="-2.8736919740786013"><ele>37.0</ele><time>2026-04-30T12:33:46.002Z</time></trkpt><trkpt lat="43.24028504780133" lon="-2.873767307170733"><ele>37.0</ele><time>2026-04-30T12:33:47.002Z</time></trkpt><trkpt lat="43.24035972106418" lon="-2.873841515378942"><ele>37.0</ele><time>2026-04-30T12:33:48.002Z</time></trkpt><trkpt lat="43.24043862583062" lon="-2.8739157387166254"><ele>37.0</ele><time>2026-04-30T12:33:49.002Z</time></trkpt><trkpt lat="43.240519300122514" lon="-2.8739819750146136"><ele>37.0</ele><time>2026-04-30T12:33:50.002Z</time></trkpt><trkpt lat="43.2405927552086" lon="-2.874048599135482"><ele>37.0</ele><time>2026-04-30T12:33:51.002Z</time></trkpt><trkpt lat="43.240654967162214" lon="-2.8741111561461703"><ele>37.0</ele><time>2026-04-30T12:33:52.002Z</time></trkpt><trkpt lat="43.24071777313515" lon="-2.874172844857709"><ele>37.2</ele><time>2026-04-30T12:33:53.002Z</time></trkpt><trkpt lat="43.24083110716821" lon="-2.8742897535507757"><ele>37.400000000000006</ele><time>2026-04-30T12:33:54.002Z</time></trkpt><trkpt lat="43.2409067448237" lon="-2.8743739888449356"><ele>37.599999999999994</ele><time>2026-04-30T12:33:55.002Z</time></trkpt><trkpt lat="43.24098519579942" lon="-2.874460676721818"><ele>37.8</ele><time>2026-04-30T12:33:56.002Z</time></trkpt><trkpt lat="43.241073243188154" lon="-2.8745310994474447"><ele>38.0</ele><time>2026-04-30T12:33:57.003Z</time></trkpt><trkpt lat="43.241162506817815" lon="-2.8745952073196777"><ele>38.0</ele><time>2026-04-30T12:33:58.003Z</time></trkpt><trkpt lat="43.24124726855536" lon="-2.8746750148345552"><ele>38.0</ele><time>2026-04-30T12:33:59.003Z</time></trkpt><trkpt lat="43.241326879065134" lon="-2.8747616357418195"><ele>38.0</ele><time>2026-04-30T12:34:00.003Z</time></trkpt><trkpt lat="43.24140887584749" lon="-2.874842519560402"><ele>38.0</ele><time>2026-04-30T12:34:01.003Z</time></trkpt><trkpt lat="43.24149030583745" lon="-2.8749220067470307"><ele>38.0</ele><time>2026-04-30T12:34:02.003Z</time></trkpt><trkpt lat="43.24157105955231" lon="-2.875001292911104"><ele>37.4</ele><time>2026-04-30T12:34:03.003Z</time></trkpt><trkpt lat="43.24165388186287" lon="-2.8750770499796414"><ele>36.8</ele><time>2026-04-30T12:34:04.003Z</time></trkpt><trkpt lat="43.24173728299418" lon="-2.8751529504395434"><ele>36.2</ele><time>2026-04-30T12:34:05.003Z</time></trkpt><trkpt lat="43.24181996779591" lon="-2.8752289887649773"><ele>35.6</ele><time>2026-04-30T12:34:06.003Z</time></trkpt><trkpt lat="43.24189957890504" lon="-2.875307307854286"><ele>35.0</ele><time>2026-04-30T12:34:07.003Z</time></trkpt><trkpt lat="43.241979984039055" lon="-2.8753838155512463"><ele>34.8</ele><time>2026-04-30T12:34:08.003Z</time></trkpt><trkpt lat="43.242058351669634" lon="-2.875466572188109"><ele>34.6</ele><time>2026-04-30T12:34:09.003Z</time></trkpt><trkpt lat="43.242138095667855" lon="-2.8755414129603025"><ele>34.4</ele><time>2026-04-30T12:34:10.003Z</time></trkpt><trkpt lat="43.242218951099915" lon="-2.8756176193869667"><ele>34.2</ele><time>2026-04-30T12:34:11.003Z</time></trkpt><trkpt lat="43.242297562476985" lon="-2.8756951101526886"><ele>34.0</ele><time>2026-04-30T12:34:12.003Z</time></trkpt><trkpt lat="43.242377312509795" lon="-2.8757717835288954"><ele>34.6</ele><time>2026-04-30T12:34:13.003Z</time></trkpt><trkpt lat="43.242457190245474" lon="-2.8758490162935364"><ele>35.2</ele><time>2026-04-30T12:34:14.003Z</time></trkpt><trkpt lat="43.24253649524977" lon="-2.8759249280244545"><ele>35.800000000000004</ele><time>2026-04-30T12:34:15.003Z</time></trkpt><trkpt lat="43.242614972715245" lon="-2.876003027587609"><ele>36.4</ele><time>2026-04-30T12:34:16.003Z</time></trkpt><trkpt lat="43.24269182087523" lon="-2.8760829851221867"><ele>37.0</ele><time>2026-04-30T12:34:17.003Z</time></trkpt><trkpt lat="43.24276562269995" lon="-2.8761687131808045"><ele>37.0</ele><time>2026-04-30T12:34:18.003Z</time></trkpt><trkpt lat="43.24283616345843" lon="-2.8762628203477996"><ele>37.0</ele><time>2026-04-30T12:34:19.003Z</time></trkpt><trkpt lat="43.24290611302218" lon="-2.876359355841301"><ele>37.0</ele><time>2026-04-30T12:34:20.003Z</time></trkpt><trkpt lat="43.24297196447627" lon="-2.876452248297162"><ele>37.0</ele><time>2026-04-30T12:34:21.003Z</time></trkpt><trkpt lat="43.243029732300585" lon="-2.8765586757137456"><ele>37.0</ele><time>2026-04-30T12:34:22.003Z</time></trkpt><trkpt lat="43.24308810306337" lon="-2.8766700497588227"><ele>37.0</ele><time>2026-04-30T12:34:23.003Z</time></trkpt><trkpt lat="43.24313324455397" lon="-2.8767830131690566"><ele>37.0</ele><time>2026-04-30T12:34:24Z</time></trkpt><trkpt lat="43.24322772543345" lon="-2.8768871156176314"><ele>37.0</ele><time>2026-04-30T12:34:25Z</time></trkpt><trkpt lat="43.24329453240688" lon="-2.8769969497846297"><ele>37.0</ele><time>2026-04-30T12:34:26Z</time></trkpt><trkpt lat="43.24335927120113" lon="-2.877106495585049"><ele>37.0</ele><time>2026-04-30T12:34:27Z</time></trkpt><trkpt lat="43.243423671733574" lon="-2.877218719613284"><ele>37.0</ele><time>2026-04-30T12:34:28Z</time></trkpt><trkpt lat="43.243490611064345" lon="-2.8773284755585298"><ele>37.0</ele><time>2026-04-30T12:34:29Z</time></trkpt><trkpt lat="43.243554478977046" lon="-2.8774407872023535"><ele>37.0</ele><time>2026-04-30T12:34:30Z</time></trkpt><trkpt lat="43.24362001073658" lon="-2.877551243648993"><ele>37.0</ele><time>2026-04-30T12:34:31Z</time></trkpt><trkpt lat="43.24368485471215" lon="-2.8776609567380573"><ele>37.0</ele><time>2026-04-30T12:34:32Z</time></trkpt><trkpt lat="43.2437508929151" lon="-2.877772883146374"><ele>37.6</ele><time>2026-04-30T12:34:33Z</time></trkpt><trkpt lat="43.24381640197932" lon="-2.877880432374059"><ele>38.2</ele><time>2026-04-30T12:34:34Z</time></trkpt><trkpt lat="43.24388191623607" lon="-2.877992775897476"><ele>38.8</ele><time>2026-04-30T12:34:35Z</time></trkpt><trkpt lat="43.243948187338866" lon="-2.878106457823795"><ele>39.4</ele><time>2026-04-30T12:34:36Z</time></trkpt><trkpt lat="43.24401418012899" lon="-2.8782172535974766"><ele>40.0</ele><time>2026-04-30T12:34:37Z</time></trkpt><trkpt lat="43.24408179730153" lon="-2.8783281686900586"><ele>40.2</ele><time>2026-04-30T12:34:38Z</time></trkpt><trkpt lat="43.244146655761426" lon="-2.8784396500962313"><ele>40.4</ele><time>2026-04-30T12:34:39Z</time></trkpt><trkpt lat="43.244212191430584" lon="-2.8785474718667463"><ele>40.599999999999994</ele><time>2026-04-30T12:34:40Z</time></trkpt><trkpt lat="43.24427808314899" lon="-2.8786562725641107"><ele>40.8</ele><time>2026-04-30T12:34:41Z</time></trkpt><trkpt lat="43.244343229852234" lon="-2.878765075437252"><ele>41.0</ele><time>2026-04-30T12:34:42Z</time></trkpt><trkpt lat="43.24440708603404" lon="-2.8788706942175106"><ele>41.0</ele><time>2026-04-30T12:34:43Z</time></trkpt><trkpt lat="43.244471437537584" lon="-2.878976063281765"><ele>41.0</ele><time>2026-04-30T12:34:44Z</time></trkpt><trkpt lat="43.24453739071362" lon="-2.8790821391916355"><ele>41.0</ele><time>2026-04-30T12:34:45Z</time></trkpt><trkpt lat="43.24460168456306" lon="-2.8791844791823387"><ele>41.0</ele><time>2026-04-30T12:34:46Z</time></trkpt><trkpt lat="43.24465865740033" lon="-2.879286954505235"><ele>41.0</ele><time>2026-04-30T12:34:47Z</time></trkpt><trkpt lat="43.24472411787193" lon="-2.8793897133821975"><ele>41.599999999999994</ele><time>2026-04-30T12:34:48Z</time></trkpt><trkpt lat="43.24479033267915" lon="-2.8794919508783647"><ele>42.2</ele><time>2026-04-30T12:34:49Z</time></trkpt><trkpt lat="43.244852737133264" lon="-2.879597956632415"><ele>42.8</ele><time>2026-04-30T12:34:50Z</time></trkpt><trkpt lat="43.24490955803377" lon="-2.8797093674730925"><ele>43.400000000000006</ele><time>2026-04-30T12:34:51Z</time></trkpt><trkpt lat="43.24496256550268" lon="-2.879822854750414"><ele>44.0</ele><time>2026-04-30T12:34:52Z</time></trkpt><trkpt lat="43.24501355900497" lon="-2.8799431421192883"><ele>44.2</ele><time>2026-04-30T12:34:53.001Z</time></trkpt><trkpt lat="43.24506247535126" lon="-2.8800632274382085"><ele>44.400000000000006</ele><time>2026-04-30T12:34:54.001Z</time></trkpt><trkpt lat="43.24511125177298" lon="-2.880186144089429"><ele>44.6</ele><time>2026-04-30T12:34:55.001Z</time></trkpt><trkpt lat="43.24515852859463" lon="-2.880306979987324"><ele>44.8</ele><time>2026-04-30T12:34:56.001Z</time></trkpt><trkpt lat="43.24519354117509" lon="-2.8804271407600943"><ele>45.0</ele><time>2026-04-30T12:34:57.001Z</time></trkpt><trkpt lat="43.24523540161849" lon="-2.8805636989232744"><ele>43.8</ele><time>2026-04-30T12:34:58.001Z</time></trkpt><trkpt lat="43.245269519134915" lon="-2.8806904089799934"><ele>42.6</ele><time>2026-04-30T12:34:59.001Z</time></trkpt><trkpt lat="43.24530144223807" lon="-2.880820144047785"><ele>41.4</ele><time>2026-04-30T12:35:00.001Z</time></trkpt><trkpt lat="43.245329342625176" lon="-2.880951939182162"><ele>40.2</ele><time>2026-04-30T12:35:01.001Z</time></trkpt><trkpt lat="43.245352581416206" lon="-2.8810821160583044"><ele>39.0</ele><time>2026-04-30T12:35:02.001Z</time></trkpt><trkpt lat="43.24537686383664" lon="-2.8812164230838615"><ele>38.2</ele><time>2026-04-30T12:35:03.001Z</time></trkpt><trkpt lat="43.24539914522107" lon="-2.881341115277966"><ele>37.4</ele><time>2026-04-30T12:35:04.001Z</time></trkpt><trkpt lat="43.24541527525172" lon="-2.8814713788470647"><ele>36.6</ele><time>2026-04-30T12:35:05.001Z</time></trkpt><trkpt lat="43.24543791623286" lon="-2.881603148952561"><ele>35.8</ele><time>2026-04-30T12:35:06.001Z</time></trkpt><trkpt lat="43.24545723688118" lon="-2.8817196122274797"><ele>35.0</ele><time>2026-04-30T12:35:07.001Z</time></trkpt><trkpt lat="43.24547500132547" lon="-2.881831202392541"><ele>35.0</ele><time>2026-04-30T12:35:08.001Z</time></trkpt><trkpt lat="43.24549224332791" lon="-2.8819465803614492"><ele>35.0</ele><time>2026-04-30T12:35:09.001Z</time></trkpt><trkpt lat="43.245509981086165" lon="-2.88206107636895"><ele>35.0</ele><time>2026-04-30T12:35:10.001Z</time></trkpt><trkpt lat="43.245529332775135" lon="-2.8821712503144585"><ele>35.0</ele><time>2026-04-30T12:35:11.001Z</time></trkpt><trkpt lat="43.245550880890875" lon="-2.882272679548303"><ele>35.0</ele><time>2026-04-30T12:35:12.001Z</time></trkpt><trkpt lat="43.24557097515907" lon="-2.8823813857153495"><ele>35.0</ele><time>2026-04-30T12:35:13.001Z</time></trkpt><trkpt lat="43.24558741987284" lon="-2.882484424858659"><ele>35.0</ele><time>2026-04-30T12:35:14.001Z</time></trkpt><trkpt lat="43.24560545902378" lon="-2.88258271819764"><ele>35.0</ele><time>2026-04-30T12:35:15.001Z</time></trkpt><trkpt lat="43.24562185256779" lon="-2.8826793784452227"><ele>35.0</ele><time>2026-04-30T12:35:16.001Z</time></trkpt><trkpt lat="43.24563869781325" lon="-2.8827729822385377"><ele>35.0</ele><time>2026-04-30T12:35:17.001Z</time></trkpt><trkpt lat="43.245657672463366" lon="-2.8828667205178693"><ele>35.0</ele><time>2026-04-30T12:35:18.001Z</time></trkpt><trkpt lat="43.2456751615714" lon="-2.882962325371215"><ele>35.0</ele><time>2026-04-30T12:35:19.001Z</time></trkpt><trkpt lat="43.245691735128275" lon="-2.883053155256802"><ele>35.0</ele><time>2026-04-30T12:35:20.001Z</time></trkpt><trkpt lat="43.24570572067627" lon="-2.883152446685759"><ele>35.166666666666664</ele><time>2026-04-30T12:35:21.001Z</time></trkpt><trkpt lat="43.24572170118724" lon="-2.883243755755938"><ele>35.33333333333333</ele><time>2026-04-30T12:35:22.001Z</time></trkpt><trkpt lat="43.2457367447425" lon="-2.8833343763432104"><ele>35.5</ele><time>2026-04-30T12:35:23.001Z</time></trkpt><trkpt lat="43.24575394844371" lon="-2.883433710081873"><ele>35.666666666666664</ele><time>2026-04-30T12:35:24.001Z</time></trkpt><trkpt lat="43.24577009563635" lon="-2.8835403907877786"><ele>35.833333333333336</ele><time>2026-04-30T12:35:25.002Z</time></trkpt><trkpt lat="43.245789110263715" lon="-2.883648777887411"><ele>36.0</ele><time>2026-04-30T12:35:26.002Z</time></trkpt><trkpt lat="43.24580795002854" lon="-2.8837578484497888"><ele>36.0</ele><time>2026-04-30T12:35:27.002Z</time></trkpt><trkpt lat="43.245827380661105" lon="-2.883867720425354"><ele>36.0</ele><time>2026-04-30T12:35:28.002Z</time></trkpt><trkpt lat="43.24584493510133" lon="-2.883980473791805"><ele>36.0</ele><time>2026-04-30T12:35:29.002Z</time></trkpt><trkpt lat="43.245860632756255" lon="-2.8840930779749163"><ele>36.0</ele><time>2026-04-30T12:35:30.002Z</time></trkpt><trkpt lat="43.24588165583589" lon="-2.8842059814835204"><ele>36.0</ele><time>2026-04-30T12:35:31.002Z</time></trkpt><trkpt lat="43.24589785788295" lon="-2.88431847373861"><ele>36.0</ele><time>2026-04-30T12:35:32.002Z</time></trkpt><trkpt lat="43.245915896003375" lon="-2.8844307440205217"><ele>35.666666666666664</ele><time>2026-04-30T12:35:33.002Z</time></trkpt><trkpt lat="43.245934618469285" lon="-2.8845456496142097"><ele>35.333333333333336</ele><time>2026-04-30T12:35:34.002Z</time></trkpt><trkpt lat="43.24595267641065" lon="-2.8846530030449116"><ele>35.0</ele><time>2026-04-30T12:35:35.002Z</time></trkpt><trkpt lat="43.24596904573531" lon="-2.8847509421188997"><ele>34.66666666666667</ele><time>2026-04-30T12:35:36.002Z</time></trkpt><trkpt lat="43.245990368466636" lon="-2.8848490196475134"><ele>34.333333333333336</ele><time>2026-04-30T12:35:37.002Z</time></trkpt><trkpt lat="43.24600442536349" lon="-2.884946419432514"><ele>34.0</ele><time>2026-04-30T12:35:38.002Z</time></trkpt><trkpt lat="43.246017867998084" lon="-2.8850432424657186"><ele>34.4</ele><time>2026-04-30T12:35:39.002Z</time></trkpt><trkpt lat="43.246033305826685" lon="-2.88513242824357"><ele>34.8</ele><time>2026-04-30T12:35:40.002Z</time></trkpt><trkpt lat="43.24606538875522" lon="-2.8852881206155803"><ele>35.2</ele><time>2026-04-30T12:35:42.002Z</time></trkpt><trkpt lat="43.24608844187906" lon="-2.8854350600235588"><ele>35.6</ele><time>2026-04-30T12:35:44.002Z</time></trkpt><trkpt lat="43.246111776716745" lon="-2.8855633171834185"><ele>36.0</ele><time>2026-04-30T12:35:46.002Z</time></trkpt><trkpt lat="43.24613572416245" lon="-2.8856905508426696"><ele>36.0</ele><time>2026-04-30T12:35:48.002Z</time></trkpt><trkpt lat="43.2461572728235" lon="-2.885834149397755"><ele>36.0</ele><time>2026-04-30T12:35:50.002Z</time></trkpt><trkpt lat="43.24618570814031" lon="-2.8859899855693647"><ele>36.0</ele><time>2026-04-30T12:35:52.002Z</time></trkpt><trkpt lat="43.24621252281715" lon="-2.8861600105099043"><ele>36.0</ele><time>2026-04-30T12:35:54.002Z</time></trkpt><trkpt lat="43.24622748301814" lon="-2.886255789030311"><ele>36.0</ele><time>2026-04-30T12:35:55.002Z</time></trkpt><trkpt lat="43.246245309702125" lon="-2.886347993017329"><ele>36.166666666666664</ele><time>2026-04-30T12:35:56.002Z</time></trkpt><trkpt lat="43.24626019483282" lon="-2.8864501819340003"><ele>36.333333333333336</ele><time>2026-04-30T12:35:57.002Z</time></trkpt><trkpt lat="43.24627673025857" lon="-2.886557997227063"><ele>36.5</ele><time>2026-04-30T12:35:58.003Z</time></trkpt><trkpt lat="43.24629468927505" lon="-2.886664491337213"><ele>36.66666666666667</ele><time>2026-04-30T12:35:59.003Z</time></trkpt><trkpt lat="43.24631341663749" lon="-2.8867782814613268"><ele>36.833333333333336</ele><time>2026-04-30T12:36:00.003Z</time></trkpt><trkpt lat="43.246332476944765" lon="-2.886889771963861"><ele>37.0</ele><time>2026-04-30T12:36:01.003Z</time></trkpt><trkpt lat="43.24634981272311" lon="-2.8870051451768255"><ele>37.16666666666667</ele><time>2026-04-30T12:36:02.003Z</time></trkpt><trkpt lat="43.24636981278348" lon="-2.8871160514552487"><ele>37.333333333333336</ele><time>2026-04-30T12:36:03.003Z</time></trkpt><trkpt lat="43.2463904537111" lon="-2.887235043168007"><ele>37.5</ele><time>2026-04-30T12:36:04.003Z</time></trkpt><trkpt lat="43.246405359994725" lon="-2.887352907843661"><ele>37.666666666666664</ele><time>2026-04-30T12:36:05.003Z</time></trkpt><trkpt lat="43.24644206342377" lon="-2.8874707878552264"><ele>37.83333333333333</ele><time>2026-04-30T12:36:06.003Z</time></trkpt><trkpt lat="43.24645938774363" lon="-2.887590584532689"><ele>38.0</ele><time>2026-04-30T12:36:07.003Z</time></trkpt><trkpt lat="43.24647013184122" lon="-2.887719107381181"><ele>38.599999999999994</ele><time>2026-04-30T12:36:08.003Z</time></trkpt><trkpt lat="43.24649679652514" lon="-2.887846641849769"><ele>39.199999999999996</ele><time>2026-04-30T12:36:09.003Z</time></trkpt><trkpt lat="43.24653139817215" lon="-2.8879714715197524"><ele>39.8</ele><time>2026-04-30T12:36:10.003Z</time></trkpt><trkpt lat="43.2465706383616" lon="-2.8880984413360613"><ele>40.4</ele><time>2026-04-30T12:36:11.003Z</time></trkpt><trkpt lat="43.24661233646492" lon="-2.888221662507832"><ele>41.0</ele><time>2026-04-30T12:36:12.003Z</time></trkpt><trkpt lat="43.246656815169686" lon="-2.888335514142364"><ele>41.0</ele><time>2026-04-30T12:36:13.003Z</time></trkpt><trkpt lat="43.24671075747989" lon="-2.888441923940629"><ele>41.0</ele><time>2026-04-30T12:36:14.003Z</time></trkpt><trkpt lat="43.24677346216237" lon="-2.88854372257012"><ele>41.0</ele><time>2026-04-30T12:36:15.003Z</time></trkpt><trkpt lat="43.24683910747542" lon="-2.8886458507478556"><ele>41.0</ele><time>2026-04-30T12:36:16.003Z</time></trkpt><trkpt lat="43.24691811881653" lon="-2.888735135399819"><ele>41.0</ele><time>2026-04-30T12:36:17.003Z</time></trkpt><trkpt lat="43.24699805271289" lon="-2.8888189806599067"><ele>41.0</ele><time>2026-04-30T12:36:18.003Z</time></trkpt><trkpt lat="43.24708903390388" lon="-2.888890370168747"><ele>41.0</ele><time>2026-04-30T12:36:19.003Z</time></trkpt><trkpt lat="43.24718095906238" lon="-2.8889495414377766"><ele>41.0</ele><time>2026-04-30T12:36:20.003Z</time></trkpt><trkpt lat="43.247275622791264" lon="-2.889001758298414"><ele>41.0</ele><time>2026-04-30T12:36:21.003Z</time></trkpt><trkpt lat="43.24737015095353" lon="-2.8890495467547535"><ele>41.0</ele><time>2026-04-30T12:36:22.003Z</time></trkpt><trkpt lat="43.24746359588543" lon="-2.8890933287391425"><ele>40.8</ele><time>2026-04-30T12:36:23.003Z</time></trkpt><trkpt lat="43.24755830256485" lon="-2.8891270759901166"><ele>40.599999999999994</ele><time>2026-04-30T12:36:24.003Z</time></trkpt><trkpt lat="43.24765629277507" lon="-2.8891514724815917"><ele>40.4</ele><time>2026-04-30T12:36:25.003Z</time></trkpt><trkpt lat="43.247754245359666" lon="-2.889166804006871"><ele>40.2</ele><time>2026-04-30T12:36:26.003Z</time></trkpt><trkpt lat="43.24785486894834" lon="-2.8891644631586066"><ele>40.0</ele><time>2026-04-30T12:36:27.003Z</time></trkpt><trkpt lat="43.247951647061406" lon="-2.889157561767477"><ele>40.0</ele><time>2026-04-30T12:36:28.003Z</time></trkpt><trkpt lat="43.24804838712016" lon="-2.8891297296682343"><ele>40.0</ele><time>2026-04-30T12:36:29.003Z</time></trkpt><trkpt lat="43.2481458005426" lon="-2.889086220922895"><ele>40.0</ele><time>2026-04-30T12:36:30Z</time></trkpt><trkpt lat="43.248238089826785" lon="-2.8890373053667995"><ele>40.0</ele><time>2026-04-30T12:36:31Z</time></trkpt><trkpt lat="43.24832849804797" lon="-2.88898018625562"><ele>40.0</ele><time>2026-04-30T12:36:32Z</time></trkpt><trkpt lat="43.24841997634698" lon="-2.8889124733284484"><ele>41.2</ele><time>2026-04-30T12:36:33Z</time></trkpt><trkpt lat="43.24850817117049" lon="-2.8888506579035966"><ele>42.4</ele><time>2026-04-30T12:36:34Z</time></trkpt><trkpt lat="43.248600467851084" lon="-2.888781581738265"><ele>43.599999999999994</ele><time>2026-04-30T12:36:35Z</time></trkpt><trkpt lat="43.24868573251768" lon="-2.8887194189586456"><ele>44.8</ele><time>2026-04-30T12:36:36Z</time></trkpt><trkpt lat="43.24877180666183" lon="-2.8886572287556116"><ele>46.0</ele><time>2026-04-30T12:36:37Z</time></trkpt><trkpt lat="43.2488611089322" lon="-2.8885919725187668"><ele>46.0</ele><time>2026-04-30T12:36:38Z</time></trkpt><trkpt lat="43.24895096942541" lon="-2.8885278848632487"><ele>46.0</ele><time>2026-04-30T12:36:39Z</time></trkpt><trkpt lat="43.24904191518484" lon="-2.888469370931125"><ele>46.0</ele><time>2026-04-30T12:36:40Z</time></trkpt><trkpt lat="43.24913437058344" lon="-2.8884168450870082"><ele>46.0</ele><time>2026-04-30T12:36:41Z</time></trkpt><trkpt lat="43.249228873959225" lon="-2.8883667016624295"><ele>46.0</ele><time>2026-04-30T12:36:42Z</time></trkpt><trkpt lat="43.249324025765254" lon="-2.888326593196728"><ele>46.8</ele><time>2026-04-30T12:36:43Z</time></trkpt><trkpt lat="43.24942388614382" lon="-2.8883019213128747"><ele>47.599999999999994</ele><time>2026-04-30T12:36:44Z</time></trkpt><trkpt lat="43.249524922924536" lon="-2.8882895685856274"><ele>48.4</ele><time>2026-04-30T12:36:45Z</time></trkpt><trkpt lat="43.249626098994945" lon="-2.8882804080560187"><ele>49.2</ele><time>2026-04-30T12:36:46Z</time></trkpt><trkpt lat="43.24972665501422" lon="-2.88827039742591"><ele>50.0</ele><time>2026-04-30T12:36:47Z</time></trkpt><trkpt lat="43.24982821892034" lon="-2.8882820975107593"><ele>50.0</ele><time>2026-04-30T12:36:48Z</time></trkpt><trkpt lat="43.249930222967485" lon="-2.8883032086463074"><ele>50.0</ele><time>2026-04-30T12:36:49Z</time></trkpt><trkpt lat="43.25003134659385" lon="-2.8883303775727267"><ele>50.0</ele><time>2026-04-30T12:36:50Z</time></trkpt><trkpt lat="43.25013508435846" lon="-2.8883682705725233"><ele>50.0</ele><time>2026-04-30T12:36:51Z</time></trkpt><trkpt lat="43.25023529623501" lon="-2.8883956502405974"><ele>50.0</ele><time>2026-04-30T12:36:52Z</time></trkpt><trkpt lat="43.250336088917905" lon="-2.8884307010101784"><ele>48.4</ele><time>2026-04-30T12:36:53Z</time></trkpt><trkpt lat="43.25043684335638" lon="-2.8884751921859575"><ele>46.8</ele><time>2026-04-30T12:36:54Z</time></trkpt><trkpt lat="43.25053726052036" lon="-2.8885184052627544"><ele>45.2</ele><time>2026-04-30T12:36:55Z</time></trkpt><trkpt lat="43.25063942688584" lon="-2.888557518768941"><ele>43.6</ele><time>2026-04-30T12:36:56Z</time></trkpt><trkpt lat="43.25073965245484" lon="-2.8885916191773404"><ele>42.0</ele><time>2026-04-30T12:36:57Z</time></trkpt><trkpt lat="43.250840894449006" lon="-2.8886371471205474"><ele>40.800000000000004</ele><time>2026-04-30T12:36:58Z</time></trkpt><trkpt lat="43.25094102112813" lon="-2.8886782483663103"><ele>39.6</ele><time>2026-04-30T12:36:59Z</time></trkpt><trkpt lat="43.2510355716253" lon="-2.8887139396216024"><ele>38.400000000000006</ele><time>2026-04-30T12:37:00Z</time></trkpt><trkpt lat="43.25113411155978" lon="-2.888764268452519"><ele>37.2</ele><time>2026-04-30T12:37:01Z</time></trkpt><trkpt lat="43.2512330239699" lon="-2.888801848113473"><ele>36.0</ele><time>2026-04-30T12:37:02Z</time></trkpt><trkpt lat="43.25132904687358" lon="-2.888838150272722"><ele>36.0</ele><time>2026-04-30T12:37:03.001Z</time></trkpt><trkpt lat="43.251425983919034" lon="-2.888872721337983"><ele>36.0</ele><time>2026-04-30T12:37:04.001Z</time></trkpt><trkpt lat="43.251523242025506" lon="-2.888906870848334"><ele>36.0</ele><time>2026-04-30T12:37:05.001Z</time></trkpt><trkpt lat="43.25162352975847" lon="-2.888936017227226"><ele>36.0</ele><time>2026-04-30T12:37:06.001Z</time></trkpt><trkpt lat="43.25172189484451" lon="-2.888953063792534"><ele>36.0</ele><time>2026-04-30T12:37:07.001Z</time></trkpt><trkpt lat="43.2518209579833" lon="-2.8889638860195372"><ele>36.8</ele><time>2026-04-30T12:37:08.001Z</time></trkpt><trkpt lat="43.25191799709405" lon="-2.8889659877529414"><ele>37.6</ele><time>2026-04-30T12:37:09.001Z</time></trkpt><trkpt lat="43.252017195640825" lon="-2.8889716147735967"><ele>38.4</ele><time>2026-04-30T12:37:10.001Z</time></trkpt><trkpt lat="43.25211803712637" lon="-2.8889801761668346"><ele>39.2</ele><time>2026-04-30T12:37:11.001Z</time></trkpt><trkpt lat="43.252213908097865" lon="-2.888994332879136"><ele>40.0</ele><time>2026-04-30T12:37:12.001Z</time></trkpt><trkpt lat="43.25231115072653" lon="-2.889013334394751"><ele>41.6</ele><time>2026-04-30T12:37:13.001Z</time></trkpt><trkpt lat="43.25240774377098" lon="-2.8890337405542867"><ele>43.2</ele><time>2026-04-30T12:37:14.001Z</time></trkpt><trkpt lat="43.252504407551896" lon="-2.8890547042480685"><ele>44.8</ele><time>2026-04-30T12:37:15.001Z</time></trkpt><trkpt lat="43.25259991163928" lon="-2.8890805376262594"><ele>46.4</ele><time>2026-04-30T12:37:16.001Z</time></trkpt><trkpt lat="43.252696231092585" lon="-2.8891155564194912"><ele>48.0</ele><time>2026-04-30T12:37:17.001Z</time></trkpt><trkpt lat="43.25279140621929" lon="-2.8891585594890836"><ele>48.0</ele><time>2026-04-30T12:37:18.001Z</time></trkpt><trkpt lat="43.252883713993334" lon="-2.88920841470049"><ele>48.0</ele><time>2026-04-30T12:37:19.001Z</time></trkpt><trkpt lat="43.25297571038419" lon="-2.889259077270472"><ele>48.0</ele><time>2026-04-30T12:37:20.001Z</time></trkpt><trkpt lat="43.253066863090886" lon="-2.8893132080109036"><ele>48.0</ele><time>2026-04-30T12:37:21.001Z</time></trkpt><trkpt lat="43.25315584905995" lon="-2.889371724441337"><ele>48.0</ele><time>2026-04-30T12:37:22.001Z</time></trkpt><trkpt lat="43.253243401323296" lon="-2.8894432482420713"><ele>45.4</ele><time>2026-04-30T12:37:23.001Z</time></trkpt><trkpt lat="43.25333123681128" lon="-2.889518219841596"><ele>42.8</ele><time>2026-04-30T12:37:24.001Z</time></trkpt><trkpt lat="43.25341587980155" lon="-2.8896020070148274"><ele>40.2</ele><time>2026-04-30T12:37:25.001Z</time></trkpt><trkpt lat="43.25349895458799" lon="-2.8896883660115003"><ele>37.6</ele><time>2026-04-30T12:37:26.001Z</time></trkpt><trkpt lat="43.25358007416473" lon="-2.8897746974745218"><ele>35.0</ele><time>2026-04-30T12:37:27.001Z</time></trkpt><trkpt lat="43.25365863544357" lon="-2.8898702021004805"><ele>35.0</ele><time>2026-04-30T12:37:28.001Z</time></trkpt><trkpt lat="43.25372931257474" lon="-2.8899712808723166"><ele>35.0</ele><time>2026-04-30T12:37:29.001Z</time></trkpt><trkpt lat="43.25379833558952" lon="-2.890076112954907"><ele>35.0</ele><time>2026-04-30T12:37:30.001Z</time></trkpt><trkpt lat="43.2538612984873" lon="-2.8901821979082287"><ele>35.0</ele><time>2026-04-30T12:37:31.001Z</time></trkpt><trkpt lat="43.25392183474764" lon="-2.8902898855957835"><ele>35.0</ele><time>2026-04-30T12:37:32.001Z</time></trkpt><trkpt lat="43.25397812228739" lon="-2.8904044542973426"><ele>36.4</ele><time>2026-04-30T12:37:33.001Z</time></trkpt><trkpt lat="43.25403408363689" lon="-2.8905204068601935"><ele>37.8</ele><time>2026-04-30T12:37:34.001Z</time></trkpt><trkpt lat="43.25408742942745" lon="-2.8906387585019853"><ele>39.2</ele><time>2026-04-30T12:37:35.002Z</time></trkpt><trkpt lat="43.25414203554795" lon="-2.890755986260121"><ele>40.6</ele><time>2026-04-30T12:37:36.002Z</time></trkpt><trkpt lat="43.2541866315242" lon="-2.89088187738294"><ele>42.0</ele><time>2026-04-30T12:37:37.002Z</time></trkpt><trkpt lat="43.254231537716166" lon="-2.891006490896768"><ele>42.0</ele><time>2026-04-30T12:37:38.002Z</time></trkpt><trkpt lat="43.2542735011281" lon="-2.8911337616059978"><ele>42.0</ele><time>2026-04-30T12:37:39.002Z</time></trkpt><trkpt lat="43.25431194758206" lon="-2.891262385760527"><ele>42.0</ele><time>2026-04-30T12:37:40.002Z</time></trkpt><trkpt lat="43.25435027158886" lon="-2.891389076505619"><ele>42.0</ele><time>2026-04-30T12:37:41.002Z</time></trkpt><trkpt lat="43.254386771844096" lon="-2.8915191327107177"><ele>42.0</ele><time>2026-04-30T12:37:42.002Z</time></trkpt><trkpt lat="43.254421286931596" lon="-2.8916494342662395"><ele>40.2</ele><time>2026-04-30T12:37:43.002Z</time></trkpt><trkpt lat="43.25445142848061" lon="-2.891779631950532"><ele>38.400000000000006</ele><time>2026-04-30T12:37:44.002Z</time></trkpt><trkpt lat="43.25447615672195" lon="-2.8919149284839603"><ele>36.599999999999994</ele><time>2026-04-30T12:37:45.002Z</time></trkpt><trkpt lat="43.254501734411114" lon="-2.8920484593122247"><ele>34.8</ele><time>2026-04-30T12:37:46.002Z</time></trkpt><trkpt lat="43.25452484031678" lon="-2.892180335247031"><ele>33.0</ele><time>2026-04-30T12:37:47.002Z</time></trkpt><trkpt lat="43.25454493517403" lon="-2.8923142243178854"><ele>33.0</ele><time>2026-04-30T12:37:48.002Z</time></trkpt><trkpt lat="43.254560439013346" lon="-2.892451619274923"><ele>33.0</ele><time>2026-04-30T12:37:49.002Z</time></trkpt><trkpt lat="43.254570318018324" lon="-2.8925882633968993"><ele>33.0</ele><time>2026-04-30T12:37:50.002Z</time></trkpt><trkpt lat="43.25457194625304" lon="-2.892726316952562"><ele>33.0</ele><time>2026-04-30T12:37:51.002Z</time></trkpt><trkpt lat="43.254568376189226" lon="-2.892863100280694"><ele>33.0</ele><time>2026-04-30T12:37:52.002Z</time></trkpt><trkpt lat="43.25455982010673" lon="-2.893001435793843"><ele>33.199999999999996</ele><time>2026-04-30T12:37:53.002Z</time></trkpt><trkpt lat="43.25455183812461" lon="-2.8931345468806318"><ele>33.4</ele><time>2026-04-30T12:37:54.002Z</time></trkpt><trkpt lat="43.25453245517581" lon="-2.8932648218388035"><ele>33.599999999999994</ele><time>2026-04-30T12:37:55.002Z</time></trkpt><trkpt lat="43.254511480324865" lon="-2.8933972807479877"><ele>33.8</ele><time>2026-04-30T12:37:56.002Z</time></trkpt><trkpt lat="43.25448226403498" lon="-2.8935252374410103"><ele>34.0</ele><time>2026-04-30T12:37:57.002Z</time></trkpt><trkpt lat="43.254453250842865" lon="-2.8936548450365724"><ele>36.4</ele><time>2026-04-30T12:37:58.002Z</time></trkpt><trkpt lat="43.25441711521369" lon="-2.8937822319337125"><ele>38.8</ele><time>2026-04-30T12:37:59.002Z</time></trkpt><trkpt lat="43.254378140742844" lon="-2.8939067132891694"><ele>41.199999999999996</ele><time>2026-04-30T12:38:00.002Z</time></trkpt><trkpt lat="43.254332512121024" lon="-2.8940291841959986"><ele>43.599999999999994</ele><time>2026-04-30T12:38:01.002Z</time></trkpt><trkpt lat="43.25429254602363" lon="-2.8941536529708354"><ele>46.0</ele><time>2026-04-30T12:38:02.002Z</time></trkpt><trkpt lat="43.25424772810443" lon="-2.89427902848167"><ele>48.0</ele><time>2026-04-30T12:38:03.002Z</time></trkpt><trkpt lat="43.25420248884234" lon="-2.894404392905489"><ele>50.0</ele><time>2026-04-30T12:38:04.002Z</time></trkpt><trkpt lat="43.25416097117938" lon="-2.894529750365818"><ele>51.99999999999999</ele><time>2026-04-30T12:38:05.002Z</time></trkpt><trkpt lat="43.25411746040649" lon="-2.8946561876469077"><ele>54.0</ele><time>2026-04-30T12:38:06.002Z</time></trkpt><trkpt lat="43.25406802933877" lon="-2.8947838440454956"><ele>56.0</ele><time>2026-04-30T12:38:07.002Z</time></trkpt><trkpt lat="43.25402976105302" lon="-2.8949206143482282"><ele>56.0</ele><time>2026-04-30T12:38:08.003Z</time></trkpt><trkpt lat="43.253987774814696" lon="-2.895043995940471"><ele>55.99999999999999</ele><time>2026-04-30T12:38:09.003Z</time></trkpt><trkpt lat="43.25393925579195" lon="-2.895174330096174"><ele>55.99999999999999</ele><time>2026-04-30T12:38:10.003Z</time></trkpt><trkpt lat="43.25389234356654" lon="-2.89530820215765"><ele>56.0</ele><time>2026-04-30T12:38:11.003Z</time></trkpt><trkpt lat="43.25384920429613" lon="-2.8954395428356725"><ele>56.0</ele><time>2026-04-30T12:38:12.003Z</time></trkpt><trkpt lat="43.2538044455561" lon="-2.8955709291178384"><ele>54.0</ele><time>2026-04-30T12:38:13.003Z</time></trkpt><trkpt lat="43.253758873682145" lon="-2.895704912533041"><ele>51.99999999999999</ele><time>2026-04-30T12:38:14.003Z</time></trkpt><trkpt lat="43.25371267863739" lon="-2.8958405401396283"><ele>50.0</ele><time>2026-04-30T12:38:15.003Z</time></trkpt><trkpt lat="43.25366815311401" lon="-2.8959782402258174"><ele>48.0</ele><time>2026-04-30T12:38:16.003Z</time></trkpt><trkpt lat="43.253621815115046" lon="-2.896113185759403"><ele>46.0</ele><time>2026-04-30T12:38:17.003Z</time></trkpt><trkpt lat="43.25357192422188" lon="-2.896254411891754"><ele>46.0</ele><time>2026-04-30T12:38:18.003Z</time></trkpt><trkpt lat="43.253524598261166" lon="-2.896394534660791"><ele>46.0</ele><time>2026-04-30T12:38:19.003Z</time></trkpt><trkpt lat="43.2534755028777" lon="-2.8965320401104755"><ele>46.0</ele><time>2026-04-30T12:38:20.003Z</time></trkpt><trkpt lat="43.2534266477287" lon="-2.8966672863879337"><ele>46.0</ele><time>2026-04-30T12:38:21.003Z</time></trkpt><trkpt lat="43.25337886839967" lon="-2.896806243062053"><ele>46.0</ele><time>2026-04-30T12:38:22.003Z</time></trkpt><trkpt lat="43.2533292383785" lon="-2.8969507258409952"><ele>44.599999999999994</ele><time>2026-04-30T12:38:23.003Z</time></trkpt><trkpt lat="43.25328264853928" lon="-2.897081512361496"><ele>43.199999999999996</ele><time>2026-04-30T12:38:24.003Z</time></trkpt><trkpt lat="43.253230117484186" lon="-2.8972105331806914"><ele>41.8</ele><time>2026-04-30T12:38:25.003Z</time></trkpt><trkpt lat="43.253176627381585" lon="-2.897340724024592"><ele>40.4</ele><time>2026-04-30T12:38:26.003Z</time></trkpt><trkpt lat="43.25311875014066" lon="-2.8974674559403"><ele>39.0</ele><time>2026-04-30T12:38:27.003Z</time></trkpt><trkpt lat="43.25305708724931" lon="-2.897594594993644"><ele>39.0</ele><time>2026-04-30T12:38:28.003Z</time></trkpt><trkpt lat="43.2529944309394" lon="-2.897713755811746"><ele>39.0</ele><time>2026-04-30T12:38:29.003Z</time></trkpt><trkpt lat="43.252925851565436" lon="-2.8978339693809585"><ele>39.0</ele><time>2026-04-30T12:38:30.003Z</time></trkpt><trkpt lat="43.252857285030245" lon="-2.897957169098333"><ele>39.0</ele><time>2026-04-30T12:38:31.003Z</time></trkpt><trkpt lat="43.252791866208085" lon="-2.898073390642163"><ele>39.0</ele><time>2026-04-30T12:38:32.003Z</time></trkpt><trkpt lat="43.25271861679849" lon="-2.8981915822150337"><ele>39.0</ele><time>2026-04-30T12:38:33.003Z</time></trkpt><trkpt lat="43.25264396348711" lon="-2.8983075545982517"><ele>39.0</ele><time>2026-04-30T12:38:34.003Z</time></trkpt><trkpt lat="43.2525700096823" lon="-2.8984213152734815"><ele>39.0</ele><time>2026-04-30T12:38:35.003Z</time></trkpt><trkpt lat="43.252498970743545" lon="-2.8985401969606057"><ele>39.0</ele><time>2026-04-30T12:38:36Z</time></trkpt><trkpt lat="43.25242625994978" lon="-2.898659960912125"><ele>39.0</ele><time>2026-04-30T12:38:37Z</time></trkpt><trkpt lat="43.252356853383134" lon="-2.898778425880341"><ele>39.0</ele><time>2026-04-30T12:38:38Z</time></trkpt><trkpt lat="43.25228654702989" lon="-2.8988968111952618"><ele>39.0</ele><time>2026-04-30T12:38:39Z</time></trkpt><trkpt lat="43.252213227592065" lon="-2.8990179886585214"><ele>39.0</ele><time>2026-04-30T12:38:40Z</time></trkpt><trkpt lat="43.25214046193387" lon="-2.8991350301794836"><ele>39.0</ele><time>2026-04-30T12:38:41Z</time></trkpt><trkpt lat="43.25206819175579" lon="-2.899250382721968"><ele>39.0</ele><time>2026-04-30T12:38:42Z</time></trkpt><trkpt lat="43.251995516056425" lon="-2.8993678882933707"><ele>39.0</ele><time>2026-04-30T12:38:43Z</time></trkpt><trkpt lat="43.2519235813146" lon="-2.8994596182867274"><ele>39.0</ele><time>2026-04-30T12:38:44Z</time></trkpt><trkpt lat="43.251860329239946" lon="-2.8995592940494808"><ele>39.0</ele><time>2026-04-30T12:38:45Z</time></trkpt><trkpt lat="43.25178858293202" lon="-2.8996723547626044"><ele>39.0</ele><time>2026-04-30T12:38:46Z</time></trkpt><trkpt lat="43.25176551956879" lon="-2.899818753445399"><ele>39.0</ele><time>2026-04-30T12:38:47Z</time></trkpt><trkpt lat="43.251701105143994" lon="-2.8999277030046198"><ele>39.0</ele><time>2026-04-30T12:38:48Z</time></trkpt><trkpt lat="43.25163871730574" lon="-2.9000318220532604"><ele>39.0</ele><time>2026-04-30T12:38:49Z</time></trkpt><trkpt lat="43.25157889507435" lon="-2.9001409589190135"><ele>39.0</ele><time>2026-04-30T12:38:50Z</time></trkpt><trkpt lat="43.2515140598908" lon="-2.9002377074220957"><ele>39.0</ele><time>2026-04-30T12:38:51Z</time></trkpt><trkpt lat="43.25145121507492" lon="-2.9003302671724427"><ele>39.0</ele><time>2026-04-30T12:38:52Z</time></trkpt><trkpt lat="43.25138906748614" lon="-2.900420123356631"><ele>38.833333333333336</ele><time>2026-04-30T12:38:53Z</time></trkpt><trkpt lat="43.25132846414386" lon="-2.9005059810357174"><ele>38.666666666666664</ele><time>2026-04-30T12:38:54Z</time></trkpt><trkpt lat="43.25127111397232" lon="-2.9005879875043656"><ele>38.5</ele><time>2026-04-30T12:38:55Z</time></trkpt><trkpt lat="43.25121865512271" lon="-2.900658355160461"><ele>38.33333333333333</ele><time>2026-04-30T12:38:56Z</time></trkpt><trkpt lat="43.25116674095378" lon="-2.90072860126225"><ele>38.166666666666664</ele><time>2026-04-30T12:38:57Z</time></trkpt><trkpt lat="43.25111464464471" lon="-2.900800844471253"><ele>38.0</ele><time>2026-04-30T12:38:58Z</time></trkpt><trkpt lat="43.25106854108622" lon="-2.9008717529322214"><ele>39.5</ele><time>2026-04-30T12:38:59Z</time></trkpt><trkpt lat="43.25102633555178" lon="-2.9009385745005805"><ele>41.0</ele><time>2026-04-30T12:39:00Z</time></trkpt><trkpt lat="43.2509491538027" lon="-2.9010681052483442"><ele>42.5</ele><time>2026-04-30T12:39:02Z</time></trkpt><trkpt lat="43.25091520891488" lon="-2.9011444439705882"><ele>44.0</ele><time>2026-04-30T12:39:03Z</time></trkpt><trkpt lat="43.25088411458471" lon="-2.9012273957840273"><ele>45.5</ele><time>2026-04-30T12:39:04Z</time></trkpt><trkpt lat="43.25085696603806" lon="-2.9013250843719813"><ele>47.0</ele><time>2026-04-30T12:39:05Z</time></trkpt><trkpt lat="43.25082650275137" lon="-2.9014133680577303"><ele>47.0</ele><time>2026-04-30T12:39:06Z</time></trkpt><trkpt lat="43.250790408641485" lon="-2.9014979444582605"><ele>47.0</ele><time>2026-04-30T12:39:07Z</time></trkpt><trkpt lat="43.25073556559548" lon="-2.901561404273229"><ele>47.0</ele><time>2026-04-30T12:39:08.001Z</time></trkpt><trkpt lat="43.25066350898391" lon="-2.9015914664860536"><ele>47.0</ele><time>2026-04-30T12:39:09.001Z</time></trkpt><trkpt lat="43.250583033812575" lon="-2.9015912396192203"><ele>47.0</ele><time>2026-04-30T12:39:10.001Z</time></trkpt><trkpt lat="43.25050250242483" lon="-2.9015189965708648"><ele>47.0</ele><time>2026-04-30T12:39:11.001Z</time></trkpt><trkpt lat="43.250431940937034" lon="-2.9014745627908156"><ele>46.83333333333333</ele><time>2026-04-30T12:39:12.001Z</time></trkpt><trkpt lat="43.2503562519173" lon="-2.9014527136149177"><ele>46.666666666666664</ele><time>2026-04-30T12:39:13.001Z</time></trkpt><trkpt lat="43.250284438475845" lon="-2.901466574623208"><ele>46.5</ele><time>2026-04-30T12:39:14.001Z</time></trkpt><trkpt lat="43.25021919885217" lon="-2.9014965169764797"><ele>46.333333333333336</ele><time>2026-04-30T12:39:15.001Z</time></trkpt><trkpt lat="43.250163554515254" lon="-2.9015492066414637"><ele>46.16666666666667</ele><time>2026-04-30T12:39:16.001Z</time></trkpt><trkpt lat="43.250098630215184" lon="-2.901657895679668"><ele>46.0</ele><time>2026-04-30T12:39:18.001Z</time></trkpt><trkpt lat="43.25007015910839" lon="-2.901776372246215"><ele>46.0</ele><time>2026-04-30T12:39:20.001Z</time></trkpt><trkpt lat="43.25003757541287" lon="-2.9018508114565544"><ele>46.0</ele><time>2026-04-30T12:39:21.001Z</time></trkpt><trkpt lat="43.24998266234835" lon="-2.9020075400760947"><ele>46.0</ele><time>2026-04-30T12:39:23.001Z</time></trkpt><trkpt lat="43.24995323248794" lon="-2.902087967227051"><ele>46.0</ele><time>2026-04-30T12:39:24.001Z</time></trkpt><trkpt lat="43.24992375954267" lon="-2.9021686177748873"><ele>46.0</ele><time>2026-04-30T12:39:25.001Z</time></trkpt><trkpt lat="43.24984864352204" lon="-2.9023090648107384"><ele>46.0</ele><time>2026-04-30T12:39:27.001Z</time></trkpt><trkpt lat="43.249803668594176" lon="-2.9023722717379323"><ele>45.8</ele><time>2026-04-30T12:39:28.001Z</time></trkpt><trkpt lat="43.24971388572437" lon="-2.9024735757972335"><ele>45.599999999999994</ele><time>2026-04-30T12:39:30.001Z</time></trkpt><trkpt lat="43.249621697613335" lon="-2.9025562651908494"><ele>45.4</ele><time>2026-04-30T12:39:32.001Z</time></trkpt><trkpt lat="43.249537116346914" lon="-2.9026127636861925"><ele>45.2</ele><time>2026-04-30T12:39:34.001Z</time></trkpt><trkpt lat="43.24945171072094" lon="-2.902668524716371"><ele>45.0</ele><time>2026-04-30T12:39:37.001Z</time></trkpt><trkpt lat="43.24936882459041" lon="-2.902704276103416"><ele>45.0</ele><time>2026-04-30T12:39:39.001Z</time></trkpt><trkpt lat="43.24926543403427" lon="-2.902754489703502"><ele>45.0</ele><time>2026-04-30T12:39:41.002Z</time></trkpt><trkpt lat="43.24915725030258" lon="-2.902819706823349"><ele>45.0</ele><time>2026-04-30T12:39:43.002Z</time></trkpt><trkpt lat="43.24904991770438" lon="-2.9029005389438893"><ele>45.0</ele><time>2026-04-30T12:39:45.002Z</time></trkpt><trkpt lat="43.24895490793611" lon="-2.9029962778172336"><ele>43.8</ele><time>2026-04-30T12:39:47.002Z</time></trkpt><trkpt lat="43.24888373333208" lon="-2.903095799425713"><ele>42.6</ele><time>2026-04-30T12:39:49.002Z</time></trkpt><trkpt lat="43.248820284796686" lon="-2.9032173681917057"><ele>41.4</ele><time>2026-04-30T12:39:51.002Z</time></trkpt><trkpt lat="43.248773607775675" lon="-2.9033621613524567"><ele>40.2</ele><time>2026-04-30T12:39:53.002Z</time></trkpt><trkpt lat="43.248731536013366" lon="-2.90351904462806"><ele>39.0</ele><time>2026-04-30T12:39:55.002Z</time></trkpt><trkpt lat="43.24871718836088" lon="-2.9036159625855404"><ele>39.0</ele><time>2026-04-30T12:39:56.002Z</time></trkpt><trkpt lat="43.248693963700354" lon="-2.903717832220522"><ele>39.0</ele><time>2026-04-30T12:39:57.002Z</time></trkpt><trkpt lat="43.24868907127979" lon="-2.9038285352123863"><ele>39.0</ele><time>2026-04-30T12:39:58.002Z</time></trkpt><trkpt lat="43.24865880091649" lon="-2.903949781202573"><ele>39.0</ele><time>2026-04-30T12:39:59.002Z</time></trkpt><trkpt lat="43.24863604822439" lon="-2.9040585412338284"><ele>39.0</ele><time>2026-04-30T12:40:00.002Z</time></trkpt><trkpt lat="43.248624900953985" lon="-2.904175694911718"><ele>39.0</ele><time>2026-04-30T12:40:01.002Z</time></trkpt><trkpt lat="43.248608039668774" lon="-2.9042875419233987"><ele>39.666666666666664</ele><time>2026-04-30T12:40:02.002Z</time></trkpt><trkpt lat="43.24858753452845" lon="-2.9043998622348854"><ele>40.333333333333336</ele><time>2026-04-30T12:40:03.002Z</time></trkpt><trkpt lat="43.24856469639118" lon="-2.9045100059372597"><ele>41.0</ele><time>2026-04-30T12:40:04.002Z</time></trkpt><trkpt lat="43.24854641653605" lon="-2.9046086650715703"><ele>41.66666666666667</ele><time>2026-04-30T12:40:05.002Z</time></trkpt><trkpt lat="43.24852883238713" lon="-2.904705260777282"><ele>42.333333333333336</ele><time>2026-04-30T12:40:06.002Z</time></trkpt><trkpt lat="43.24851386911632" lon="-2.904790829055483"><ele>43.0</ele><time>2026-04-30T12:40:07.002Z</time></trkpt><trkpt lat="43.24848905330495" lon="-2.9049398384137315"><ele>43.0</ele><time>2026-04-30T12:40:09.002Z</time></trkpt><trkpt lat="43.248466626166625" lon="-2.905077946631099"><ele>43.0</ele><time>2026-04-30T12:40:11.002Z</time></trkpt><trkpt lat="43.24843665170049" lon="-2.9052081320410945"><ele>43.0</ele><time>2026-04-30T12:40:13.003Z</time></trkpt><trkpt lat="43.24840699708457" lon="-2.9053393995960644"><ele>43.0</ele><time>2026-04-30T12:40:15.003Z</time></trkpt><trkpt lat="43.248380925677544" lon="-2.9054718095852565"><ele>43.0</ele><time>2026-04-30T12:40:17.003Z</time></trkpt><trkpt lat="43.24835463458331" lon="-2.9056072439098077"><ele>43.0</ele><time>2026-04-30T12:40:19.003Z</time></trkpt><trkpt lat="43.24832318380919" lon="-2.9057595079068466"><ele>43.0</ele><time>2026-04-30T12:40:21.003Z</time></trkpt><trkpt lat="43.24828887132941" lon="-2.9059013233066935"><ele>43.0</ele><time>2026-04-30T12:40:23.003Z</time></trkpt><trkpt lat="43.248272026794844" lon="-2.9060220296479358"><ele>43.0</ele><time>2026-04-30T12:40:25.003Z</time></trkpt><trkpt lat="43.248248580058196" lon="-2.906116578608223"><ele>43.0</ele><time>2026-04-30T12:40:27.003Z</time></trkpt><trkpt lat="43.24822928496134" lon="-2.906203319633583"><ele>42.0</ele><time>2026-04-30T12:40:29.003Z</time></trkpt><trkpt lat="43.24820757764447" lon="-2.9063113910636686"><ele>41.0</ele><time>2026-04-30T12:40:32.003Z</time></trkpt><trkpt lat="43.24818348053426" lon="-2.9064189383600394"><ele>40.0</ele><time>2026-04-30T12:40:34.003Z</time></trkpt><trkpt lat="43.24815118603385" lon="-2.906559711452866"><ele>39.0</ele><time>2026-04-30T12:40:36.003Z</time></trkpt><trkpt lat="43.24811640014755" lon="-2.9067259945430295"><ele>38.0</ele><time>2026-04-30T12:40:38.003Z</time></trkpt><trkpt lat="43.24809149253723" lon="-2.9068153029907844"><ele>37.42857142857142</ele><time>2026-04-30T12:40:39.003Z</time></trkpt><trkpt lat="43.24807083988158" lon="-2.906906525336754"><ele>36.85714285714286</ele><time>2026-04-30T12:40:40.003Z</time></trkpt><trkpt lat="43.248044685772676" lon="-2.9070034397939026"><ele>36.285714285714285</ele><time>2026-04-30T12:40:41.003Z</time></trkpt><trkpt lat="43.24801943978069" lon="-2.9070978387029"><ele>35.71428571428571</ele><time>2026-04-30T12:40:42Z</time></trkpt><trkpt lat="43.24799361766779" lon="-2.907190860843481"><ele>35.14285714285714</ele><time>2026-04-30T12:40:43Z</time></trkpt><trkpt lat="43.247969611123914" lon="-2.9072750170770276"><ele>34.57142857142857</ele><time>2026-04-30T12:40:44Z</time></trkpt><trkpt lat="43.24794494855894" lon="-2.907357588447393"><ele>34.0</ele><time>2026-04-30T12:40:45Z</time></trkpt><trkpt lat="43.2479232276421" lon="-2.907451329910762"><ele>34.0</ele><time>2026-04-30T12:40:46Z</time></trkpt><trkpt lat="43.24789794411735" lon="-2.907545171619027"><ele>34.0</ele><time>2026-04-30T12:40:47Z</time></trkpt><trkpt lat="43.247871986117254" lon="-2.907643617230761"><ele>34.0</ele><time>2026-04-30T12:40:48Z</time></trkpt><trkpt lat="43.24784892771575" lon="-2.9077438980984116"><ele>34.0</ele><time>2026-04-30T12:40:49Z</time></trkpt><trkpt lat="43.24782040900145" lon="-2.9078492951537904"><ele>34.0</ele><time>2026-04-30T12:40:50Z</time></trkpt><trkpt lat="43.247791797505506" lon="-2.907953458941474"><ele>34.0</ele><time>2026-04-30T12:40:51Z</time></trkpt><trkpt lat="43.24776406705021" lon="-2.908062957568023"><ele>34.16666666666667</ele><time>2026-04-30T12:40:52Z</time></trkpt><trkpt lat="43.24773819700218" lon="-2.9081712361802112"><ele>34.333333333333336</ele><time>2026-04-30T12:40:53Z</time></trkpt><trkpt lat="43.24771214950396" lon="-2.908282777544179"><ele>34.5</ele><time>2026-04-30T12:40:54Z</time></trkpt><trkpt lat="43.24768336990727" lon="-2.908388323118468"><ele>34.666666666666664</ele><time>2026-04-30T12:40:55Z</time></trkpt><trkpt lat="43.24765489297605" lon="-2.908496480393625"><ele>34.83333333333333</ele><time>2026-04-30T12:40:56Z</time></trkpt><trkpt lat="43.24762873371851" lon="-2.9086002218628355"><ele>35.0</ele><time>2026-04-30T12:40:57Z</time></trkpt><trkpt lat="43.247606248470234" lon="-2.9086965871996835"><ele>35.8</ele><time>2026-04-30T12:40:58Z</time></trkpt><trkpt lat="43.24757668470539" lon="-2.908857676922887"><ele>36.6</ele><time>2026-04-30T12:41:00Z</time></trkpt><trkpt lat="43.24753879910502" lon="-2.9089988024326803"><ele>37.4</ele><time>2026-04-30T12:41:02Z</time></trkpt><trkpt lat="43.24750444041727" lon="-2.909144548125491"><ele>38.2</ele><time>2026-04-30T12:41:04Z</time></trkpt><trkpt lat="43.24746651785246" lon="-2.909281227561387"><ele>39.0</ele><time>2026-04-30T12:41:06Z</time></trkpt><trkpt lat="43.24742822787618" lon="-2.909411240894201"><ele>39.833333333333336</ele><time>2026-04-30T12:41:08Z</time></trkpt><trkpt lat="43.247390252590215" lon="-2.909521509809501"><ele>40.666666666666664</ele><time>2026-04-30T12:41:10Z</time></trkpt><trkpt lat="43.247347160862205" lon="-2.9096163931466066"><ele>41.5</ele><time>2026-04-30T12:41:12.001Z</time></trkpt><trkpt lat="43.24729583351132" lon="-2.9097000020642505"><ele>42.33333333333333</ele><time>2026-04-30T12:41:14.001Z</time></trkpt><trkpt lat="43.247236263574855" lon="-2.9097889951425335"><ele>43.166666666666664</ele><time>2026-04-30T12:41:16.001Z</time></trkpt><trkpt lat="43.24717660546418" lon="-2.909874123221079"><ele>44.0</ele><time>2026-04-30T12:41:19.001Z</time></trkpt><trkpt lat="43.24711286374697" lon="-2.9099903833208756"><ele>42.57142857142857</ele><time>2026-04-30T12:41:21.001Z</time></trkpt><trkpt lat="43.2470730429485" lon="-2.9100626563784924"><ele>41.14285714285714</ele><time>2026-04-30T12:41:22.001Z</time></trkpt><trkpt lat="43.247029520725725" lon="-2.9101386412326216"><ele>39.71428571428571</ele><time>2026-04-30T12:41:23.001Z</time></trkpt><trkpt lat="43.246985576133284" lon="-2.9102294658629257"><ele>38.285714285714285</ele><time>2026-04-30T12:41:24.001Z</time></trkpt><trkpt lat="43.24694441928297" lon="-2.9103092882429165"><ele>36.857142857142854</ele><time>2026-04-30T12:41:25.001Z</time></trkpt><trkpt lat="43.2469104136152" lon="-2.910394182067221"><ele>35.42857142857142</ele><time>2026-04-30T12:41:26.001Z</time></trkpt><trkpt lat="43.246893167654626" lon="-2.9104880566605287"><ele>34.0</ele><time>2026-04-30T12:41:27.001Z</time></trkpt><trkpt lat="43.246873282521186" lon="-2.910584507392105"><ele>34.0</ele><time>2026-04-30T12:41:28.001Z</time></trkpt><trkpt lat="43.246860991689296" lon="-2.910685576468691"><ele>34.0</ele><time>2026-04-30T12:41:29.001Z</time></trkpt><trkpt lat="43.24684943679722" lon="-2.9107858464625296"><ele>34.0</ele><time>2026-04-30T12:41:30.001Z</time></trkpt><trkpt lat="43.24684081757136" lon="-2.910873443701931"><ele>34.0</ele><time>2026-04-30T12:41:31.001Z</time></trkpt><trkpt lat="43.24682336888087" lon="-2.9110329753538586"><ele>34.0</ele><time>2026-04-30T12:41:33.001Z</time></trkpt><trkpt lat="43.24682371377735" lon="-2.911126724878113"><ele>34.0</ele><time>2026-04-30T12:41:34.001Z</time></trkpt><trkpt lat="43.24682499874172" lon="-2.9112241265615744"><ele>34.16666666666667</ele><time>2026-04-30T12:41:35.001Z</time></trkpt><trkpt lat="43.24683210686671" lon="-2.91132634765076"><ele>34.333333333333336</ele><time>2026-04-30T12:41:36.001Z</time></trkpt><trkpt lat="43.24684185765975" lon="-2.9114157445770394"><ele>34.5</ele><time>2026-04-30T12:41:37.001Z</time></trkpt><trkpt lat="43.24685974864619" lon="-2.911576390873198"><ele>34.666666666666664</ele><time>2026-04-30T12:41:39.001Z</time></trkpt><trkpt lat="43.24686900112424" lon="-2.9117092744157524"><ele>34.83333333333333</ele><time>2026-04-30T12:41:41.001Z</time></trkpt><trkpt lat="43.2468757327681" lon="-2.9117972186332253"><ele>35.0</ele><time>2026-04-30T12:42:17.002Z</time></trkpt><trkpt lat="43.246872198967445" lon="-2.911897829462996"><ele>35.166666666666664</ele><time>2026-04-30T12:42:19.003Z</time></trkpt><trkpt lat="43.24687661636601" lon="-2.9120552926775938"><ele>35.33333333333333</ele><time>2026-04-30T12:42:21.003Z</time></trkpt><trkpt lat="43.24687827269428" lon="-2.912146975024848"><ele>35.5</ele><time>2026-04-30T12:42:22.003Z</time></trkpt><trkpt lat="43.246879519641006" lon="-2.9122459277008423"><ele>35.666666666666664</ele><time>2026-04-30T12:42:23.003Z</time></trkpt><trkpt lat="43.246878477371084" lon="-2.9123470103044986"><ele>35.833333333333336</ele><time>2026-04-30T12:42:24.003Z</time></trkpt><trkpt lat="43.24687571837184" lon="-2.9124531612306845"><ele>36.0</ele><time>2026-04-30T12:42:25.003Z</time></trkpt><trkpt lat="43.24687206229643" lon="-2.912558856400024"><ele>36.0</ele><time>2026-04-30T12:42:26.003Z</time></trkpt><trkpt lat="43.246867932578404" lon="-2.9126643904491694"><ele>36.0</ele><time>2026-04-30T12:42:27.003Z</time></trkpt><trkpt lat="43.24686198178293" lon="-2.91276957169788"><ele>36.0</ele><time>2026-04-30T12:42:28.003Z</time></trkpt><trkpt lat="43.24685728488066" lon="-2.9128763350646913"><ele>36.0</ele><time>2026-04-30T12:42:29.003Z</time></trkpt><trkpt lat="43.246832894582475" lon="-2.91299863303988"><ele>36.0</ele><time>2026-04-30T12:42:30.003Z</time></trkpt><trkpt lat="43.24681841944488" lon="-2.913112336782264"><ele>36.0</ele><time>2026-04-30T12:42:31.003Z</time></trkpt><trkpt lat="43.2468115626828" lon="-2.913229153329307"><ele>36.0</ele><time>2026-04-30T12:42:32.003Z</time></trkpt><trkpt lat="43.24680651074036" lon="-2.9133488311951736"><ele>36.0</ele><time>2026-04-30T12:42:33.003Z</time></trkpt><trkpt lat="43.24679790553496" lon="-2.9134640948834365"><ele>36.0</ele><time>2026-04-30T12:42:34.003Z</time></trkpt><trkpt lat="43.24678828415571" lon="-2.913580925109651"><ele>36.0</ele><time>2026-04-30T12:42:35.003Z</time></trkpt><trkpt lat="43.24678168121412" lon="-2.9136985724900972"><ele>36.0</ele><time>2026-04-30T12:42:36.003Z</time></trkpt><trkpt lat="43.246776745567814" lon="-2.913818895922862"><ele>36.0</ele><time>2026-04-30T12:42:37.003Z</time></trkpt><trkpt lat="43.246770669313854" lon="-2.9139380662031065"><ele>36.333333333333336</ele><time>2026-04-30T12:42:38.003Z</time></trkpt><trkpt lat="43.246763376915865" lon="-2.9140528418581773"><ele>36.666666666666664</ele><time>2026-04-30T12:42:39.003Z</time></trkpt><trkpt lat="43.24675974843465" lon="-2.91417143853136"><ele>37.0</ele><time>2026-04-30T12:42:40.003Z</time></trkpt><trkpt lat="43.24675435690418" lon="-2.9142928320870367"><ele>37.33333333333333</ele><time>2026-04-30T12:42:41.003Z</time></trkpt><trkpt lat="43.246753315127265" lon="-2.91441444565197"><ele>37.666666666666664</ele><time>2026-04-30T12:42:42.003Z</time></trkpt><trkpt lat="43.2467496788612" lon="-2.914535156269963"><ele>38.0</ele><time>2026-04-30T12:42:43.003Z</time></trkpt><trkpt lat="43.246744440026184" lon="-2.9146530265358863"><ele>40.0</ele><time>2026-04-30T12:42:44.003Z</time></trkpt><trkpt lat="43.24673320040597" lon="-2.914772201671967"><ele>42.0</ele><time>2026-04-30T12:42:45.003Z</time></trkpt><trkpt lat="43.24671948777314" lon="-2.914886229036666"><ele>44.0</ele><time>2026-04-30T12:42:46.003Z</time></trkpt><trkpt lat="43.24669461163777" lon="-2.915000171866768"><ele>46.0</ele><time>2026-04-30T12:42:47.003Z</time></trkpt><trkpt lat="43.246657835588145" lon="-2.915107026563182"><ele>48.00000000000001</ele><time>2026-04-30T12:42:48Z</time></trkpt><trkpt lat="43.24662039125544" lon="-2.915208849484953"><ele>50.0</ele><time>2026-04-30T12:42:49Z</time></trkpt><trkpt lat="43.24658376529717" lon="-2.9153167408230063"><ele>50.16666666666667</ele><time>2026-04-30T12:42:50Z</time></trkpt><trkpt lat="43.24654078915674" lon="-2.915423346054052"><ele>50.333333333333336</ele><time>2026-04-30T12:42:51Z</time></trkpt><trkpt lat="43.24649726816058" lon="-2.915527186682908"><ele>50.5</ele><time>2026-04-30T12:42:52Z</time></trkpt><trkpt lat="43.24645041266841" lon="-2.915632901417396"><ele>50.66666666666667</ele><time>2026-04-30T12:42:53Z</time></trkpt><trkpt lat="43.24640981784213" lon="-2.9157391451228736"><ele>50.833333333333336</ele><time>2026-04-30T12:42:54Z</time></trkpt><trkpt lat="43.246369981206534" lon="-2.915844304281926"><ele>51.0</ele><time>2026-04-30T12:42:55Z</time></trkpt><trkpt lat="43.24632878722599" lon="-2.915949494405429"><ele>51.0</ele><time>2026-04-30T12:42:56Z</time></trkpt><trkpt lat="43.24628669303262" lon="-2.9160523260796194"><ele>51.0</ele><time>2026-04-30T12:42:57Z</time></trkpt><trkpt lat="43.24624581257395" lon="-2.916157662808753"><ele>51.0</ele><time>2026-04-30T12:42:58Z</time></trkpt><trkpt lat="43.24620353673732" lon="-2.9162617645817854"><ele>51.0</ele><time>2026-04-30T12:42:59Z</time></trkpt><trkpt lat="43.246161040320224" lon="-2.9163674738455887"><ele>51.0</ele><time>2026-04-30T12:43:00Z</time></trkpt><trkpt lat="43.24612321451397" lon="-2.916478115547222"><ele>51.0</ele><time>2026-04-30T12:43:01Z</time></trkpt><trkpt lat="43.24608613567995" lon="-2.916583693012961"><ele>51.0</ele><time>2026-04-30T12:43:02Z</time></trkpt><trkpt lat="43.24604267355016" lon="-2.9166855636387505"><ele>51.0</ele><time>2026-04-30T12:43:03Z</time></trkpt><trkpt lat="43.24599823385611" lon="-2.9167877731554555"><ele>51.0</ele><time>2026-04-30T12:43:04Z</time></trkpt><trkpt lat="43.24595019471244" lon="-2.916887742353144"><ele>51.0</ele><time>2026-04-30T12:43:05Z</time></trkpt><trkpt lat="43.24589554063197" lon="-2.9169878068867896"><ele>51.0</ele><time>2026-04-30T12:43:06Z</time></trkpt><trkpt lat="43.24583650799448" lon="-2.9170831940105333"><ele>51.0</ele><time>2026-04-30T12:43:07Z</time></trkpt><trkpt lat="43.24577935657661" lon="-2.9171818623975945"><ele>51.599999999999994</ele><time>2026-04-30T12:43:08Z</time></trkpt><trkpt lat="43.24572159016725" lon="-2.9172809096149606"><ele>52.2</ele><time>2026-04-30T12:43:09Z</time></trkpt><trkpt lat="43.24565935563882" lon="-2.9173803296811682"><ele>52.800000000000004</ele><time>2026-04-30T12:43:10Z</time></trkpt><trkpt lat="43.24559876474617" lon="-2.9174811636770808"><ele>53.400000000000006</ele><time>2026-04-30T12:43:11Z</time></trkpt><trkpt lat="43.24554863739435" lon="-2.917590739699511"><ele>54.0</ele><time>2026-04-30T12:43:12Z</time></trkpt><trkpt lat="43.24551118683767" lon="-2.9177122425136632"><ele>54.0</ele><time>2026-04-30T12:43:13Z</time></trkpt><trkpt lat="43.245494951329356" lon="-2.9178418182551056"><ele>54.00000000000001</ele><time>2026-04-30T12:43:14Z</time></trkpt><trkpt lat="43.24550442195827" lon="-2.9179777761322576"><ele>54.00000000000001</ele><time>2026-04-30T12:43:15Z</time></trkpt><trkpt lat="43.24552656784143" lon="-2.9181061957222183"><ele>54.0</ele><time>2026-04-30T12:43:16Z</time></trkpt><trkpt lat="43.24555700804434" lon="-2.9182307054553602"><ele>54.0</ele><time>2026-04-30T12:43:17.001Z</time></trkpt><trkpt lat="43.24560050456868" lon="-2.9183439959263078"><ele>54.800000000000004</ele><time>2026-04-30T12:43:18.001Z</time></trkpt><trkpt lat="43.24562975917234" lon="-2.918462217080705"><ele>55.60000000000001</ele><time>2026-04-30T12:43:19.001Z</time></trkpt><trkpt lat="43.24565397851392" lon="-2.918582438738628"><ele>56.4</ele><time>2026-04-30T12:43:20.001Z</time></trkpt><trkpt lat="43.245676137512355" lon="-2.918700912289151"><ele>57.2</ele><time>2026-04-30T12:43:21.001Z</time></trkpt><trkpt lat="43.24569049879569" lon="-2.918812799397231"><ele>58.0</ele><time>2026-04-30T12:43:22.001Z</time></trkpt><trkpt lat="43.2457145967956" lon="-2.918940270148036"><ele>58.0</ele><time>2026-04-30T12:43:23.001Z</time></trkpt><trkpt lat="43.24575128418537" lon="-2.9190589064655525"><ele>58.0</ele><time>2026-04-30T12:43:24.001Z</time></trkpt><trkpt lat="43.24580634005152" lon="-2.9191651699819503"><ele>58.0</ele><time>2026-04-30T12:43:25.001Z</time></trkpt><trkpt lat="43.24586570766711" lon="-2.9192684125454718"><ele>58.0</ele><time>2026-04-30T12:43:26.001Z</time></trkpt><trkpt lat="43.24593347344988" lon="-2.919379879110273"><ele>58.0</ele><time>2026-04-30T12:43:27.001Z</time></trkpt><trkpt lat="43.24600823374706" lon="-2.919487875352395"><ele>55.4</ele><time>2026-04-30T12:43:28.001Z</time></trkpt><trkpt lat="43.24608007899026" lon="-2.9196038628380876"><ele>52.8</ele><time>2026-04-30T12:43:29.001Z</time></trkpt><trkpt lat="43.24615198719863" lon="-2.9197176937782348"><ele>50.2</ele><time>2026-04-30T12:43:30.001Z</time></trkpt><trkpt lat="43.246219355037844" lon="-2.919833363922583"><ele>47.6</ele><time>2026-04-30T12:43:31.001Z</time></trkpt><trkpt lat="43.24628062597162" lon="-2.919949781302213"><ele>45.0</ele><time>2026-04-30T12:43:32.001Z</time></trkpt><trkpt lat="43.24633423756041" lon="-2.9200719888565225"><ele>40.4</ele><time>2026-04-30T12:43:33.001Z</time></trkpt><trkpt lat="43.24638657777763" lon="-2.9201891155242357"><ele>35.8</ele><time>2026-04-30T12:43:34.001Z</time></trkpt><trkpt lat="43.24644199037088" lon="-2.920304011358209"><ele>31.200000000000003</ele><time>2026-04-30T12:43:35.001Z</time></trkpt><trkpt lat="43.246499804912176" lon="-2.9204145753068707"><ele>26.6</ele><time>2026-04-30T12:43:36.001Z</time></trkpt><trkpt lat="43.246563794954966" lon="-2.920519493089461"><ele>22.0</ele><time>2026-04-30T12:43:37.001Z</time></trkpt><trkpt lat="43.2466295920945" lon="-2.9206194741708438"><ele>21.6</ele><time>2026-04-30T12:43:38.001Z</time></trkpt><trkpt lat="43.24669417035471" lon="-2.920719551245301"><ele>21.200000000000003</ele><time>2026-04-30T12:43:39.001Z</time></trkpt><trkpt lat="43.246760902640716" lon="-2.92081848878199"><ele>20.8</ele><time>2026-04-30T12:43:40.001Z</time></trkpt><trkpt lat="43.246827365954964" lon="-2.9209179605156894"><ele>20.4</ele><time>2026-04-30T12:43:41.001Z</time></trkpt><trkpt lat="43.24689357820552" lon="-2.921019270078806"><ele>20.0</ele><time>2026-04-30T12:43:42.001Z</time></trkpt><trkpt lat="43.24695828811907" lon="-2.9211195055483525"><ele>20.0</ele><time>2026-04-30T12:43:43.001Z</time></trkpt><trkpt lat="43.247022710934914" lon="-2.9212189134799114"><ele>20.0</ele><time>2026-04-30T12:43:44.001Z</time></trkpt><trkpt lat="43.24709011750333" lon="-2.9213212149018464"><ele>20.0</ele><time>2026-04-30T12:43:45.001Z</time></trkpt><trkpt lat="43.24715359592099" lon="-2.921420729432093"><ele>20.0</ele><time>2026-04-30T12:43:46.001Z</time></trkpt><trkpt lat="43.24721771498075" lon="-2.9215231746015293"><ele>20.0</ele><time>2026-04-30T12:43:47.001Z</time></trkpt><trkpt lat="43.247282489440394" lon="-2.9216217473432633"><ele>20.2</ele><time>2026-04-30T12:43:48.001Z</time></trkpt><trkpt lat="43.24734509122508" lon="-2.9217219366846305"><ele>20.4</ele><time>2026-04-30T12:43:49.001Z</time></trkpt><trkpt lat="43.24741006850542" lon="-2.9218250453981245"><ele>20.6</ele><time>2026-04-30T12:43:50.001Z</time></trkpt><trkpt lat="43.24747377703572" lon="-2.9219245174426174"><ele>20.8</ele><time>2026-04-30T12:43:51.001Z</time></trkpt><trkpt lat="43.24753648181766" lon="-2.922025340753137"><ele>21.0</ele><time>2026-04-30T12:43:52.001Z</time></trkpt><trkpt lat="43.247599071881574" lon="-2.922128971298319"><ele>27.200000000000003</ele><time>2026-04-30T12:43:53.002Z</time></trkpt><trkpt lat="43.2476580634131" lon="-2.922232637660687"><ele>33.400000000000006</ele><time>2026-04-30T12:43:54.002Z</time></trkpt><trkpt lat="43.247714916065384" lon="-2.922341087873777"><ele>39.6</ele><time>2026-04-30T12:43:55.002Z</time></trkpt><trkpt lat="43.24776809684799" lon="-2.92244910029728"><ele>45.800000000000004</ele><time>2026-04-30T12:43:56.002Z</time></trkpt><trkpt lat="43.247820599463594" lon="-2.9225589928092903"><ele>52.0</ele><time>2026-04-30T12:43:57.002Z</time></trkpt><trkpt lat="43.24787184270004" lon="-2.9226698816549317"><ele>56.2</ele><time>2026-04-30T12:43:58.002Z</time></trkpt><trkpt lat="43.24792052023635" lon="-2.922782261936213"><ele>60.400000000000006</ele><time>2026-04-30T12:43:59.002Z</time></trkpt><trkpt lat="43.24796709167642" lon="-2.9228993608378264"><ele>64.6</ele><time>2026-04-30T12:44:00.002Z</time></trkpt><trkpt lat="43.24801016057277" lon="-2.9230167876322093"><ele>68.8</ele><time>2026-04-30T12:44:01.002Z</time></trkpt><trkpt lat="43.248054075362134" lon="-2.9231379944371785"><ele>73.0</ele><time>2026-04-30T12:44:02.002Z</time></trkpt><trkpt lat="43.24809538664445" lon="-2.9232564567922843"><ele>73.6</ele><time>2026-04-30T12:44:03.002Z</time></trkpt><trkpt lat="43.2481340349188" lon="-2.9233775097348076"><ele>74.19999999999999</ele><time>2026-04-30T12:44:04.002Z</time></trkpt><trkpt lat="43.2481643250168" lon="-2.9234985883783677"><ele>74.8</ele><time>2026-04-30T12:44:05.002Z</time></trkpt><trkpt lat="43.248190858182525" lon="-2.92362290013587"><ele>75.39999999999999</ele><time>2026-04-30T12:44:06.002Z</time></trkpt><trkpt lat="43.248211737606724" lon="-2.9237445243334905"><ele>76.0</ele><time>2026-04-30T12:44:07.002Z</time></trkpt><trkpt lat="43.248227741230636" lon="-2.9238705606216926"><ele>76.0</ele><time>2026-04-30T12:44:08.002Z</time></trkpt><trkpt lat="43.24823873295425" lon="-2.923993698546747"><ele>76.0</ele><time>2026-04-30T12:44:09.002Z</time></trkpt><trkpt lat="43.248248795001395" lon="-2.92411401341281"><ele>76.0</ele><time>2026-04-30T12:44:10.002Z</time></trkpt><trkpt lat="43.248252407660566" lon="-2.9242348325261562"><ele>76.0</ele><time>2026-04-30T12:44:11.002Z</time></trkpt><trkpt lat="43.24825170525386" lon="-2.9243541385735123"><ele>76.0</ele><time>2026-04-30T12:44:12.002Z</time></trkpt><trkpt lat="43.24824616836835" lon="-2.9244694264928235"><ele>76.0</ele><time>2026-04-30T12:44:13.002Z</time></trkpt><trkpt lat="43.2482392624934" lon="-2.9245828218891416"><ele>76.33333333333333</ele><time>2026-04-30T12:44:14.002Z</time></trkpt><trkpt lat="43.24823016129041" lon="-2.924693052515279"><ele>76.66666666666666</ele><time>2026-04-30T12:44:15.002Z</time></trkpt><trkpt lat="43.248219706314565" lon="-2.924800847769032"><ele>77.0</ele><time>2026-04-30T12:44:16.002Z</time></trkpt><trkpt lat="43.24820999763608" lon="-2.9249050048830885"><ele>77.33333333333333</ele><time>2026-04-30T12:44:17.002Z</time></trkpt><trkpt lat="43.24819076872651" lon="-2.925000608724006"><ele>77.66666666666667</ele><time>2026-04-30T12:44:18.002Z</time></trkpt><trkpt lat="43.24818377586913" lon="-2.925107690369095"><ele>78.0</ele><time>2026-04-30T12:44:19.002Z</time></trkpt><trkpt lat="43.2481589840257" lon="-2.9252001316782525"><ele>78.33333333333333</ele><time>2026-04-30T12:44:20.002Z</time></trkpt><trkpt lat="43.2481388420284" lon="-2.925296342183651"><ele>78.66666666666667</ele><time>2026-04-30T12:44:21.002Z</time></trkpt><trkpt lat="43.24811495909615" lon="-2.925387088811795"><ele>79.0</ele><time>2026-04-30T12:44:22.002Z</time></trkpt><trkpt lat="43.248091680633394" lon="-2.9254749302820806"><ele>79.33333333333334</ele><time>2026-04-30T12:44:23.002Z</time></trkpt><trkpt lat="43.248049691117714" lon="-2.9256079979722935"><ele>79.66666666666667</ele><time>2026-04-30T12:44:25.002Z</time></trkpt><trkpt lat="43.24802133021011" lon="-2.9256926822493865"><ele>80.0</ele><time>2026-04-30T12:44:27.002Z</time></trkpt><trkpt lat="43.24797181892216" lon="-2.9257568647141805"><ele>80.0</ele><time>2026-04-30T12:45:02Z</time></trkpt><trkpt lat="43.24794232216976" lon="-2.9258433376718482"><ele>80.0</ele><time>2026-04-30T12:45:04Z</time></trkpt><trkpt lat="43.24796383457596" lon="-2.9259251093325482"><ele>80.0</ele><time>2026-04-30T12:45:05Z</time></trkpt><trkpt lat="43.24801776353478" lon="-2.9260484838798293"><ele>80.0</ele><time>2026-04-30T12:45:07Z</time></trkpt><trkpt lat="43.248108913625444" lon="-2.9261428559188034"><ele>80.0</ele><time>2026-04-30T12:45:09Z</time></trkpt><trkpt lat="43.24818603173298" lon="-2.9261392395618016"><ele>80.0</ele><time>2026-04-30T12:45:11Z</time></trkpt><trkpt lat="43.24825262385195" lon="-2.926126283531563"><ele>80.0</ele><time>2026-04-30T12:45:13Z</time></trkpt><trkpt lat="43.24833724970136" lon="-2.9260995506283813"><ele>80.0</ele><time>2026-04-30T12:45:15Z</time></trkpt><trkpt lat="43.24837708521346" lon="-2.926028645784544"><ele>80.0</ele><time>2026-04-30T12:45:16Z</time></trkpt><trkpt lat="43.24844900324522" lon="-2.925980901791656"><ele>80.0</ele><time>2026-04-30T12:45:18Z</time></trkpt><trkpt lat="43.24852732845548" lon="-2.925973452142426"><ele>80.0</ele><time>2026-04-30T12:45:22Z</time></trkpt><trkpt lat="43.24858639538307" lon="-2.9260302339660713"><ele>80.0</ele><time>2026-04-30T12:45:24Z</time></trkpt><trkpt lat="43.248661211368116" lon="-2.92607720945981"><ele>80.0</ele><time>2026-04-30T12:45:27Z</time></trkpt><trkpt lat="43.24873039276758" lon="-2.925930400959699"><ele>80.0</ele><time>2026-04-30T12:45:28Z</time></trkpt><trkpt lat="43.24880087247741" lon="-2.9258533708677814"><ele>80.0</ele><time>2026-04-30T12:45:30.001Z</time></trkpt><trkpt lat="43.24886969336895" lon="-2.925787294610732"><ele>80.0</ele><time>2026-04-30T12:45:32.001Z</time></trkpt><trkpt lat="43.24894136244057" lon="-2.9257237493095425"><ele>80.0</ele><time>2026-04-30T12:45:34.001Z</time></trkpt><trkpt lat="43.24900780785147" lon="-2.9256641133634425"><ele>80.0</ele><time>2026-04-30T12:45:36.001Z</time></trkpt><trkpt lat="43.24908847662209" lon="-2.9255882208892183"><ele>80.0</ele><time>2026-04-30T12:45:38.001Z</time></trkpt><trkpt lat="43.24918314222664" lon="-2.925506193281179"><ele>80.0</ele><time>2026-04-30T12:45:40.001Z</time></trkpt><trkpt lat="43.24929071064231" lon="-2.925420544740541"><ele>80.0</ele><time>2026-04-30T12:45:42.001Z</time></trkpt><trkpt lat="43.249351702747326" lon="-2.9253789917726807"><ele>80.0</ele><time>2026-04-30T12:45:43.001Z</time></trkpt><trkpt lat="43.24941037491586" lon="-2.925343147060859"><ele>80.0</ele><time>2026-04-30T12:45:44.001Z</time></trkpt><trkpt lat="43.24947061401595" lon="-2.925312071928376"><ele>80.0</ele><time>2026-04-30T12:45:45.001Z</time></trkpt><trkpt lat="43.24958542501751" lon="-2.925279207434244"><ele>80.0</ele><time>2026-04-30T12:45:47.001Z</time></trkpt><trkpt lat="43.24969834965786" lon="-2.925259709350817"><ele>80.0</ele><time>2026-04-30T12:45:49.001Z</time></trkpt><trkpt lat="43.24980995436541" lon="-2.925240465549106"><ele>80.0</ele><time>2026-04-30T12:45:51.001Z</time></trkpt><trkpt lat="43.24991022638812" lon="-2.925230386431833"><ele>78.8</ele><time>2026-04-30T12:45:53.001Z</time></trkpt><trkpt lat="43.25001463253598" lon="-2.9252459273532696"><ele>77.6</ele><time>2026-04-30T12:45:55.001Z</time></trkpt><trkpt lat="43.25012487158193" lon="-2.9252892675729996"><ele>76.4</ele><time>2026-04-30T12:45:57.001Z</time></trkpt><trkpt lat="43.25022518092607" lon="-2.9253370289525806"><ele>75.2</ele><time>2026-04-30T12:45:59.001Z</time></trkpt><trkpt lat="43.250325119126686" lon="-2.9253998557007472"><ele>74.0</ele><time>2026-04-30T12:46:01.002Z</time></trkpt><trkpt lat="43.25043131846535" lon="-2.925491282050425"><ele>74.0</ele><time>2026-04-30T12:46:03.002Z</time></trkpt><trkpt lat="43.250497820967134" lon="-2.9255115879414997"><ele>74.0</ele><time>2026-04-30T12:46:04.002Z</time></trkpt><trkpt lat="43.25055407023158" lon="-2.9255672521460925"><ele>74.0</ele><time>2026-04-30T12:46:05.002Z</time></trkpt><trkpt lat="43.25060622629654" lon="-2.925628876390276"><ele>74.0</ele><time>2026-04-30T12:46:06.002Z</time></trkpt><trkpt lat="43.25065287534013" lon="-2.925687707753819"><ele>74.0</ele><time>2026-04-30T12:46:07.002Z</time></trkpt><trkpt lat="43.250722908458656" lon="-2.9258177537949077"><ele>74.0</ele><time>2026-04-30T12:46:09.002Z</time></trkpt><trkpt lat="43.25080706795111" lon="-2.925921670552961"><ele>72.75</ele><time>2026-04-30T12:46:11.002Z</time></trkpt><trkpt lat="43.25087745548012" lon="-2.926043982179399"><ele>71.5</ele><time>2026-04-30T12:46:13.002Z</time></trkpt><trkpt lat="43.25093364497587" lon="-2.926186278202323"><ele>70.25</ele><time>2026-04-30T12:46:15.002Z</time></trkpt><trkpt lat="43.25098967611775" lon="-2.9263293736970364"><ele>69.0</ele><time>2026-04-30T12:46:17.002Z</time></trkpt><trkpt lat="43.25105515717057" lon="-2.926482899237064"><ele>69.0</ele><time>2026-04-30T12:46:19.002Z</time></trkpt><trkpt lat="43.25109133194929" lon="-2.926567873296472"><ele>69.0</ele><time>2026-04-30T12:46:20.002Z</time></trkpt><trkpt lat="43.25112496696037" lon="-2.9266566546099275"><ele>69.0</ele><time>2026-04-30T12:46:21.002Z</time></trkpt><trkpt lat="43.25115957289923" lon="-2.926751469678533"><ele>69.0</ele><time>2026-04-30T12:46:22.002Z</time></trkpt><trkpt lat="43.2511994602759" lon="-2.9268429444810034"><ele>69.0</ele><time>2026-04-30T12:46:23.002Z</time></trkpt><trkpt lat="43.25124018157737" lon="-2.926939396309913"><ele>69.0</ele><time>2026-04-30T12:46:24.002Z</time></trkpt><trkpt lat="43.25127627162899" lon="-2.9270327387775774"><ele>69.0</ele><time>2026-04-30T12:46:25.002Z</time></trkpt><trkpt lat="43.25131202804135" lon="-2.927122922734748"><ele>69.0</ele><time>2026-04-30T12:46:26.002Z</time></trkpt><trkpt lat="43.25134721497962" lon="-2.927206488775386"><ele>69.0</ele><time>2026-04-30T12:46:27.002Z</time></trkpt><trkpt lat="43.25138149464406" lon="-2.9272849864189054"><ele>69.0</ele><time>2026-04-30T12:46:28.002Z</time></trkpt><trkpt lat="43.251412606038" lon="-2.9273602633756544"><ele>69.0</ele><time>2026-04-30T12:46:29.002Z</time></trkpt><trkpt lat="43.25146780038258" lon="-2.9275020388749953"><ele>69.0</ele><time>2026-04-30T12:46:31.002Z</time></trkpt><trkpt lat="43.251525877683704" lon="-2.9276314597289472"><ele>67.83333333333333</ele><time>2026-04-30T12:46:33.003Z</time></trkpt><trkpt lat="43.25157333262598" lon="-2.927744101350782"><ele>66.66666666666667</ele><time>2026-04-30T12:46:35.003Z</time></trkpt><trkpt lat="43.251609575791015" lon="-2.9278368753792274"><ele>65.5</ele><time>2026-04-30T12:46:37.003Z</time></trkpt><trkpt lat="43.25167226387587" lon="-2.9279256394785396"><ele>64.33333333333334</ele><time>2026-04-30T12:46:40.003Z</time></trkpt><trkpt lat="43.2517517617899" lon="-2.9278879415334176"><ele>63.16666666666667</ele><time>2026-04-30T12:46:42.003Z</time></trkpt><trkpt lat="43.25178996607569" lon="-2.9277777882381986"><ele>62.0</ele><time>2026-04-30T12:46:44.003Z</time></trkpt><trkpt lat="43.251788146161665" lon="-2.9276691977546423"><ele>62.0</ele><time>2026-04-30T12:46:46.003Z</time></trkpt><trkpt lat="43.251800288521515" lon="-2.927562291091214"><ele>62.0</ele><time>2026-04-30T12:46:49.003Z</time></trkpt><trkpt lat="43.25180478379564" lon="-2.9274596004007223"><ele>62.0</ele><time>2026-04-30T12:47:02Z</time></trkpt><trkpt lat="43.251822541563804" lon="-2.9273048840324005"><ele>62.0</ele><time>2026-04-30T12:47:05Z</time></trkpt><trkpt lat="43.25181371502567" lon="-2.9271378937156345"><ele>62.0</ele><time>2026-04-30T12:47:07Z</time></trkpt><trkpt lat="43.251805355149564" lon="-2.927047095652925"><ele>61.16666666666667</ele><time>2026-04-30T12:47:08Z</time></trkpt><trkpt lat="43.251795657478254" lon="-2.926946744246445"><ele>60.333333333333336</ele><time>2026-04-30T12:47:09Z</time></trkpt><trkpt lat="43.25178313610594" lon="-2.9268498644318424"><ele>59.5</ele><time>2026-04-30T12:47:10Z</time></trkpt><trkpt lat="43.251760072162625" lon="-2.9267519420597"><ele>58.66666666666667</ele><time>2026-04-30T12:47:11Z</time></trkpt><trkpt lat="43.25173971823988" lon="-2.926650959815519"><ele>57.833333333333336</ele><time>2026-04-30T12:47:12Z</time></trkpt><trkpt lat="43.251707305940606" lon="-2.9265489330450785"><ele>57.0</ele><time>2026-04-30T12:47:13Z</time></trkpt><trkpt lat="43.2516725543213" lon="-2.9264419179468852"><ele>55.400000000000006</ele><time>2026-04-30T12:47:14Z</time></trkpt><trkpt lat="43.25163541693887" lon="-2.9263311911442593"><ele>53.800000000000004</ele><time>2026-04-30T12:47:15Z</time></trkpt><trkpt lat="43.25159595463975" lon="-2.9262241976909236"><ele>52.2</ele><time>2026-04-30T12:47:16Z</time></trkpt><trkpt lat="43.25155507695907" lon="-2.9261099324251325"><ele>50.6</ele><time>2026-04-30T12:47:17Z</time></trkpt><trkpt lat="43.25151274741446" lon="-2.925992196100804"><ele>49.0</ele><time>2026-04-30T12:47:18Z</time></trkpt><trkpt lat="43.25147423339532" lon="-2.9258765496602934"><ele>51.166666666666664</ele><time>2026-04-30T12:47:19Z</time></trkpt><trkpt lat="43.25143679412229" lon="-2.92576265169382"><ele>53.33333333333333</ele><time>2026-04-30T12:47:20Z</time></trkpt><trkpt lat="43.25140134244216" lon="-2.925658803114287"><ele>55.5</ele><time>2026-04-30T12:47:21Z</time></trkpt><trkpt lat="43.25136441290635" lon="-2.925563399585274"><ele>57.66666666666667</ele><time>2026-04-30T12:47:22Z</time></trkpt><trkpt lat="43.25133774103991" lon="-2.925473955640325"><ele>59.833333333333336</ele><time>2026-04-30T12:47:23Z</time></trkpt><trkpt lat="43.251320356403525" lon="-2.92538795593376"><ele>62.0</ele><time>2026-04-30T12:47:24Z</time></trkpt><trkpt lat="43.25127507598454" lon="-2.925305436886501"><ele>62.0</ele><time>2026-04-30T12:47:26Z</time></trkpt><trkpt lat="43.25140923786385" lon="-2.9252090020027928"><ele>62.0</ele><time>2026-04-30T12:47:27Z</time></trkpt><trkpt lat="43.251468746180706" lon="-2.925177909044281"><ele>62.0</ele><time>2026-04-30T12:47:28.001Z</time></trkpt><trkpt lat="43.25165137708087" lon="-2.925054972548355"><ele>62.0</ele><time>2026-04-30T12:47:31.001Z</time></trkpt><trkpt lat="43.25172240183544" lon="-2.9250078093325684"><ele>57.66666666666667</ele><time>2026-04-30T12:47:32.001Z</time></trkpt><trkpt lat="43.251790242984654" lon="-2.9249602156448735"><ele>53.333333333333336</ele><time>2026-04-30T12:47:33.001Z</time></trkpt><trkpt lat="43.25186006614015" lon="-2.9249158379011915"><ele>49.0</ele><time>2026-04-30T12:47:34.001Z</time></trkpt><trkpt lat="43.25192893219367" lon="-2.924867429344308"><ele>44.66666666666667</ele><time>2026-04-30T12:47:35.001Z</time></trkpt><trkpt lat="43.25199125932872" lon="-2.9248253516176184"><ele>40.333333333333336</ele><time>2026-04-30T12:47:36.001Z</time></trkpt><trkpt lat="43.252061786892355" lon="-2.9247819289492827"><ele>36.0</ele><time>2026-04-30T12:47:37.001Z</time></trkpt><trkpt lat="43.25213570104677" lon="-2.9247352925789896"><ele>36.0</ele><time>2026-04-30T12:47:38.001Z</time></trkpt><trkpt lat="43.252213615886006" lon="-2.9246866791577975"><ele>36.0</ele><time>2026-04-30T12:47:39.001Z</time></trkpt><trkpt lat="43.252288579513404" lon="-2.9246323905416998"><ele>36.0</ele><time>2026-04-30T12:47:40.001Z</time></trkpt><trkpt lat="43.25235992012024" lon="-2.9245849738584613"><ele>36.0</ele><time>2026-04-30T12:47:41.001Z</time></trkpt><trkpt lat="43.25243143185457" lon="-2.9245352920920036"><ele>36.0</ele><time>2026-04-30T12:47:42.001Z</time></trkpt><trkpt lat="43.25249809198266" lon="-2.9244906139154896"><ele>36.0</ele><time>2026-04-30T12:47:43.001Z</time></trkpt><trkpt lat="43.252595377749984" lon="-2.924403562474066"><ele>35.25</ele><time>2026-04-30T12:47:45.001Z</time></trkpt><trkpt lat="43.25265443937649" lon="-2.924367332210776"><ele>34.5</ele><time>2026-04-30T12:47:47.001Z</time></trkpt><trkpt lat="43.25260220961807" lon="-2.924178929934588"><ele>33.75</ele><time>2026-04-30T12:47:48.001Z</time></trkpt><trkpt lat="43.25254916698388" lon="-2.924025912098382"><ele>33.0</ele><time>2026-04-30T12:47:50.001Z</time></trkpt><trkpt lat="43.25249899914732" lon="-2.9238739817288795"><ele>31.333333333333332</ele><time>2026-04-30T12:47:52.001Z</time></trkpt><trkpt lat="43.25246168362222" lon="-2.923726563476082"><ele>29.666666666666668</ele><time>2026-04-30T12:47:54.001Z</time></trkpt><trkpt lat="43.25251922458481" lon="-2.923571257078744"><ele>28.0</ele><time>2026-04-30T12:47:56.001Z</time></trkpt><trkpt lat="43.2525782049294" lon="-2.9235258256760988"><ele>26.333333333333336</ele><time>2026-04-30T12:47:57.001Z</time></trkpt><trkpt lat="43.25264268679518" lon="-2.923503069777106"><ele>24.666666666666668</ele><time>2026-04-30T12:47:58.001Z</time></trkpt><trkpt lat="43.25271011151997" lon="-2.9235101431073565"><ele>23.0</ele><time>2026-04-30T12:47:59.001Z</time></trkpt><trkpt lat="43.25283173714655" lon="-2.9235328793061477"><ele>23.0</ele><time>2026-04-30T12:48:01.001Z</time></trkpt><trkpt lat="43.25289895920793" lon="-2.923536918528639"><ele>23.0</ele><time>2026-04-30T12:48:02.001Z</time></trkpt><trkpt lat="43.252968946757065" lon="-2.9235508183616927"><ele>23.0</ele><time>2026-04-30T12:48:03.002Z</time></trkpt><trkpt lat="43.25303997241402" lon="-2.9235682639082885"><ele>23.0</ele><time>2026-04-30T12:48:04.002Z</time></trkpt><trkpt lat="43.25311130910426" lon="-2.9235935611175186"><ele>23.0</ele><time>2026-04-30T12:48:05.002Z</time></trkpt><trkpt lat="43.25318086099032" lon="-2.923634164450387"><ele>23.0</ele><time>2026-04-30T12:48:06.002Z</time></trkpt><trkpt lat="43.25325055084871" lon="-2.9236712876272106"><ele>23.0</ele><time>2026-04-30T12:48:07.002Z</time></trkpt><trkpt lat="43.253320527591505" lon="-2.923705459383494"><ele>23.0</ele><time>2026-04-30T12:48:08.002Z</time></trkpt><trkpt lat="43.25338574338552" lon="-2.92373807967711"><ele>23.0</ele><time>2026-04-30T12:48:09.002Z</time></trkpt><trkpt lat="43.253448532175774" lon="-2.923766589612798"><ele>23.0</ele><time>2026-04-30T12:48:10.002Z</time></trkpt><trkpt lat="43.25357307926654" lon="-2.9237802288647203"><ele>23.0</ele><time>2026-04-30T12:48:12.002Z</time></trkpt><trkpt lat="43.253636438400264" lon="-2.9237649155456102"><ele>23.0</ele><time>2026-04-30T12:48:13.002Z</time></trkpt><trkpt lat="43.2537547436144" lon="-2.9236987293531222"><ele>23.0</ele><time>2026-04-30T12:48:15.002Z</time></trkpt><trkpt lat="43.25381431765725" lon="-2.9236547218604305"><ele>23.0</ele><time>2026-04-30T12:48:16.002Z</time></trkpt><trkpt lat="43.25391260548496" lon="-2.9235983319841057"><ele>23.0</ele><time>2026-04-30T12:48:18.002Z</time></trkpt><trkpt lat="43.2540761006361" lon="-2.9234919389220178"><ele>23.0</ele><time>2026-04-30T12:48:48.003Z</time></trkpt><trkpt lat="43.254173343298476" lon="-2.923421396392604"><ele>22.25</ele><time>2026-04-30T12:48:50.003Z</time></trkpt><trkpt lat="43.25428735360929" lon="-2.9235959492518964"><ele>21.5</ele><time>2026-04-30T12:48:54.003Z</time></trkpt><trkpt lat="43.25432530083772" lon="-2.923740104195818"><ele>20.75</ele><time>2026-04-30T12:48:56.003Z</time></trkpt><trkpt lat="43.254383734373384" lon="-2.9238935088865836"><ele>20.0</ele><time>2026-04-30T12:48:58.003Z</time></trkpt><trkpt lat="43.25442340368374" lon="-2.923977767608273"><ele>20.0</ele><time>2026-04-30T12:48:59.003Z</time></trkpt><trkpt lat="43.25445421231272" lon="-2.9240586831379094"><ele>20.0</ele><time>2026-04-30T12:49:00.003Z</time></trkpt><trkpt lat="43.254496998665026" lon="-2.924135474974951"><ele>20.0</ele><time>2026-04-30T12:49:01.003Z</time></trkpt><trkpt lat="43.254533169948076" lon="-2.9242121203763753"><ele>20.0</ele><time>2026-04-30T12:49:02.003Z</time></trkpt><trkpt lat="43.254561579113115" lon="-2.9242955829806365"><ele>20.0</ele><time>2026-04-30T12:49:03.003Z</time></trkpt><trkpt lat="43.254593920054766" lon="-2.924371108773735"><ele>20.0</ele><time>2026-04-30T12:49:04.003Z</time></trkpt><trkpt lat="43.254655813070904" lon="-2.924510470741624"><ele>20.75</ele><time>2026-04-30T12:49:06.001Z</time></trkpt><trkpt lat="43.25471600827154" lon="-2.9246466989350024"><ele>21.5</ele><time>2026-04-30T12:49:08.001Z</time></trkpt><trkpt lat="43.254767014016664" lon="-2.9247895169647293"><ele>22.25</ele><time>2026-04-30T12:49:10.001Z</time></trkpt><trkpt lat="43.2548213750255" lon="-2.9249188272184665"><ele>23.0</ele><time>2026-04-30T12:49:12.001Z</time></trkpt><trkpt lat="43.25488126765604" lon="-2.9250479671660843"><ele>24.0</ele><time>2026-04-30T12:49:14Z</time></trkpt><trkpt lat="43.25494355998761" lon="-2.9251747706762763"><ele>25.0</ele><time>2026-04-30T12:49:16Z</time></trkpt><trkpt lat="43.25499784574313" lon="-2.925329609352727"><ele>26.0</ele><time>2026-04-30T12:49:18Z</time></trkpt><trkpt lat="43.25502897683948" lon="-2.9254077892278536"><ele>27.0</ele><time>2026-04-30T12:49:19Z</time></trkpt><trkpt lat="43.255061332140386" lon="-2.9254831622325397"><ele>27.999999999999996</ele><time>2026-04-30T12:49:20Z</time></trkpt><trkpt lat="43.255075274202916" lon="-2.9255701659376068"><ele>29.0</ele><time>2026-04-30T12:49:21Z</time></trkpt><trkpt lat="43.25510135764372" lon="-2.9256518374196667"><ele>29.000000000000004</ele><time>2026-04-30T12:49:22Z</time></trkpt><trkpt lat="43.25512278490064" lon="-2.925742450565559"><ele>29.0</ele><time>2026-04-30T12:49:23Z</time></trkpt><trkpt lat="43.25514210915328" lon="-2.925832524505144"><ele>29.000000000000004</ele><time>2026-04-30T12:49:24Z</time></trkpt><trkpt lat="43.25515416624051" lon="-2.925924198661936"><ele>29.000000000000004</ele><time>2026-04-30T12:49:25Z</time></trkpt><trkpt lat="43.255166960523844" lon="-2.9260194655287357"><ele>29.0</ele><time>2026-04-30T12:49:26Z</time></trkpt><trkpt lat="43.25518811831462" lon="-2.926102606680605"><ele>29.000000000000004</ele><time>2026-04-30T12:49:27Z</time></trkpt><trkpt lat="43.25520831991657" lon="-2.9261900803715895"><ele>29.000000000000004</ele><time>2026-04-30T12:49:28Z</time></trkpt><trkpt lat="43.25522158479525" lon="-2.926280584239152"><ele>29.6</ele><time>2026-04-30T12:49:29Z</time></trkpt><trkpt lat="43.25526271501032" lon="-2.926432270092235"><ele>30.2</ele><time>2026-04-30T12:49:31Z</time></trkpt><trkpt lat="43.25530141673917" lon="-2.9265637522754364"><ele>30.800000000000004</ele><time>2026-04-30T12:49:33.001Z</time></trkpt><trkpt lat="43.2553254438992" lon="-2.9266882115771846"><ele>31.400000000000002</ele><time>2026-04-30T12:49:35.001Z</time></trkpt><trkpt lat="43.25535508838183" lon="-2.926769067011494"><ele>32.0</ele><time>2026-04-30T12:49:37.001Z</time></trkpt><trkpt lat="43.255391433037346" lon="-2.9268603579256216"><ele>32.4</ele><time>2026-04-30T12:49:40.001Z</time></trkpt><trkpt lat="43.25542196121505" lon="-2.9269871948338575"><ele>32.800000000000004</ele><time>2026-04-30T12:49:42.001Z</time></trkpt><trkpt lat="43.25546103662186" lon="-2.9271226988119095"><ele>33.2</ele><time>2026-04-30T12:49:44.001Z</time></trkpt><trkpt lat="43.25550834855962" lon="-2.9272700385826376"><ele>33.6</ele><time>2026-04-30T12:49:46.001Z</time></trkpt><trkpt lat="43.255556846336574" lon="-2.927415099697126"><ele>34.0</ele><time>2026-04-30T12:49:48.001Z</time></trkpt><trkpt lat="43.25560789855777" lon="-2.927566163231538"><ele>34.5</ele><time>2026-04-30T12:49:50.001Z</time></trkpt><trkpt lat="43.25566226784563" lon="-2.9277123050352394"><ele>35.0</ele><time>2026-04-30T12:49:52.001Z</time></trkpt><trkpt lat="43.255686891190045" lon="-2.9278612249909997"><ele>35.5</ele><time>2026-04-30T12:49:54.001Z</time></trkpt><trkpt lat="43.25571352341054" lon="-2.9280071701210098"><ele>36.0</ele><time>2026-04-30T12:49:56.001Z</time></trkpt><trkpt lat="43.255770881604825" lon="-2.928142654034155"><ele>36.0</ele><time>2026-04-30T12:49:58.001Z</time></trkpt><trkpt lat="43.255816194121756" lon="-2.9282751050075704"><ele>36.0</ele><time>2026-04-30T12:50:00.001Z</time></trkpt><trkpt lat="43.255863695003974" lon="-2.9284028317299033"><ele>36.0</ele><time>2026-04-30T12:50:02.001Z</time></trkpt><trkpt lat="43.255909934056014" lon="-2.9285315443351543"><ele>36.0</ele><time>2026-04-30T12:50:04.001Z</time></trkpt><trkpt lat="43.25595261092033" lon="-2.9286630248189707"><ele>36.0</ele><time>2026-04-30T12:50:06.001Z</time></trkpt><trkpt lat="43.25600215761597" lon="-2.9287962244331487"><ele>37.0</ele><time>2026-04-30T12:50:08.001Z</time></trkpt><trkpt lat="43.25605113728569" lon="-2.9289338136220415"><ele>38.0</ele><time>2026-04-30T12:50:10.001Z</time></trkpt><trkpt lat="43.256101891858485" lon="-2.929073619637985"><ele>39.0</ele><time>2026-04-30T12:50:12.001Z</time></trkpt><trkpt lat="43.25615121397463" lon="-2.9292169470094542"><ele>40.0</ele><time>2026-04-30T12:50:14.001Z</time></trkpt><trkpt lat="43.25620065590853" lon="-2.9293597377960605"><ele>41.75</ele><time>2026-04-30T12:50:16.002Z</time></trkpt><trkpt lat="43.256253879261905" lon="-2.9295015226778314"><ele>43.5</ele><time>2026-04-30T12:50:18.002Z</time></trkpt><trkpt lat="43.256311346100745" lon="-2.929638121290731"><ele>45.25</ele><time>2026-04-30T12:50:20.002Z</time></trkpt><trkpt lat="43.256373636614086" lon="-2.9297720231778177"><ele>47.0</ele><time>2026-04-30T12:50:22.002Z</time></trkpt><trkpt lat="43.256421907601556" lon="-2.929908524399231"><ele>45.2</ele><time>2026-04-30T12:50:24.002Z</time></trkpt><trkpt lat="43.25646302293665" lon="-2.930043551492745"><ele>43.400000000000006</ele><time>2026-04-30T12:50:26.002Z</time></trkpt><trkpt lat="43.25650848362902" lon="-2.9301706292512137"><ele>41.599999999999994</ele><time>2026-04-30T12:50:28.002Z</time></trkpt><trkpt lat="43.25654671228419" lon="-2.9302871053162143"><ele>39.8</ele><time>2026-04-30T12:50:30.002Z</time></trkpt><trkpt lat="43.256592597708156" lon="-2.9303840645299157"><ele>38.0</ele><time>2026-04-30T12:50:32.002Z</time></trkpt><trkpt lat="43.25664273571566" lon="-2.9304808052115625"><ele>38.0</ele><time>2026-04-30T12:50:34.002Z</time></trkpt><trkpt lat="43.25668272504916" lon="-2.930610890346729"><ele>38.0</ele><time>2026-04-30T12:50:36.002Z</time></trkpt><trkpt lat="43.25673337021529" lon="-2.9307449444015217"><ele>38.0</ele><time>2026-04-30T12:50:38.002Z</time></trkpt><trkpt lat="43.25678429727355" lon="-2.9308833406381742"><ele>38.0</ele><time>2026-04-30T12:50:40.002Z</time></trkpt><trkpt lat="43.25683242048839" lon="-2.931016306196654"><ele>38.0</ele><time>2026-04-30T12:50:42.002Z</time></trkpt><trkpt lat="43.256877637583486" lon="-2.9311414675238088"><ele>38.166666666666664</ele><time>2026-04-30T12:50:44.002Z</time></trkpt><trkpt lat="43.256915981340086" lon="-2.931244610554421"><ele>38.33333333333333</ele><time>2026-04-30T12:50:46.002Z</time></trkpt><trkpt lat="43.256954318769886" lon="-2.9313514353170462"><ele>38.5</ele><time>2026-04-30T12:50:49.002Z</time></trkpt><trkpt lat="43.25698317308079" lon="-2.9314403584020576"><ele>38.666666666666664</ele><time>2026-04-30T12:50:54.003Z</time></trkpt><trkpt lat="43.25701455264623" lon="-2.9315346543543166"><ele>38.833333333333336</ele><time>2026-04-30T12:50:57.003Z</time></trkpt><trkpt lat="43.25704192435154" lon="-2.9316186445841224"><ele>39.0</ele><time>2026-04-30T12:50:59.003Z</time></trkpt><trkpt lat="43.25705676912602" lon="-2.931711776141848"><ele>38.8</ele><time>2026-04-30T12:51:01.003Z</time></trkpt><trkpt lat="43.257063744404654" lon="-2.931817958360327"><ele>38.599999999999994</ele><time>2026-04-30T12:51:03.003Z</time></trkpt><trkpt lat="43.25707275081098" lon="-2.931940998759999"><ele>38.4</ele><time>2026-04-30T12:51:05.003Z</time></trkpt><trkpt lat="43.25707694619966" lon="-2.932079807023954"><ele>38.199999999999996</ele><time>2026-04-30T12:51:07.003Z</time></trkpt><trkpt lat="43.25708434159673" lon="-2.9322136889644232"><ele>38.0</ele><time>2026-04-30T12:51:09.003Z</time></trkpt><trkpt lat="43.257094326755976" lon="-2.9323660069343713"><ele>38.0</ele><time>2026-04-30T12:51:11.003Z</time></trkpt><trkpt lat="43.25710265644486" lon="-2.932527921450455"><ele>38.0</ele><time>2026-04-30T12:51:12.997Z</time></trkpt><trkpt lat="43.25711110633571" lon="-2.932682023740053"><ele>38.0</ele><time>2026-04-30T12:51:14.997Z</time></trkpt><trkpt lat="43.25712991172982" lon="-2.932815605999229"><ele>38.0</ele><time>2026-04-30T12:51:16.998Z</time></trkpt><trkpt lat="43.257150109162325" lon="-2.932920235292013"><ele>38.0</ele><time>2026-04-30T12:51:18.998Z</time></trkpt><trkpt lat="43.257153108775334" lon="-2.9330225710367728"><ele>38.0</ele><time>2026-04-30T12:51:21.998Z</time></trkpt><trkpt lat="43.2571499026632" lon="-2.9331468674336865"><ele>38.0</ele><time>2026-04-30T12:52:22.001Z</time></trkpt><trkpt lat="43.25715254419842" lon="-2.933248208147431"><ele>38.0</ele><time>2026-04-30T12:52:27.001Z</time></trkpt><trkpt lat="43.2571567717109" lon="-2.9333543306874894"><ele>38.0</ele><time>2026-04-30T12:52:37.001Z</time></trkpt><trkpt lat="43.25716590275154" lon="-2.9334613902671864"><ele>38.0</ele><time>2026-04-30T12:52:39.001Z</time></trkpt><trkpt lat="43.25717290602508" lon="-2.933583027957144"><ele>38.0</ele><time>2026-04-30T12:52:41.001Z</time></trkpt><trkpt lat="43.25718069711116" lon="-2.933715247283459"><ele>38.0</ele><time>2026-04-30T12:52:43.001Z</time></trkpt><trkpt lat="43.25719856835099" lon="-2.933856896035394"><ele>38.0</ele><time>2026-04-30T12:52:45.001Z</time></trkpt><trkpt lat="43.257232848149336" lon="-2.9340118182436794"><ele>38.0</ele><time>2026-04-30T12:52:47.001Z</time></trkpt><trkpt lat="43.25727601207703" lon="-2.9341602263814215"><ele>38.0</ele><time>2026-04-30T12:52:49.002Z</time></trkpt><trkpt lat="43.25731940738923" lon="-2.9343038449242487"><ele>37.714285714285715</ele><time>2026-04-30T12:52:51.002Z</time></trkpt><trkpt lat="43.257298999350496" lon="-2.934412779718413"><ele>37.42857142857143</ele><time>2026-04-30T12:52:52.002Z</time></trkpt><trkpt lat="43.25730111424692" lon="-2.9345037922940795"><ele>37.142857142857146</ele><time>2026-04-30T12:52:53.002Z</time></trkpt><trkpt lat="43.25730312993414" lon="-2.9345943188606074"><ele>36.85714285714286</ele><time>2026-04-30T12:52:54.002Z</time></trkpt><trkpt lat="43.25730465088665" lon="-2.9346823733575658"><ele>36.57142857142857</ele><time>2026-04-30T12:52:55.002Z</time></trkpt><trkpt lat="43.25730676290821" lon="-2.934776381239185"><ele>36.28571428571429</ele><time>2026-04-30T12:52:56.002Z</time></trkpt><trkpt lat="43.257308981687885" lon="-2.934868516397932"><ele>36.0</ele><time>2026-04-30T12:52:57.002Z</time></trkpt><trkpt lat="43.25731080626413" lon="-2.9349597845825017"><ele>36.0</ele><time>2026-04-30T12:52:58.002Z</time></trkpt><trkpt lat="43.25731316739696" lon="-2.9350475458814436"><ele>36.0</ele><time>2026-04-30T12:52:59.002Z</time></trkpt><trkpt lat="43.257319700812374" lon="-2.9352145096122224"><ele>36.0</ele><time>2026-04-30T12:53:01.002Z</time></trkpt><trkpt lat="43.25732718381504" lon="-2.9353561785563076"><ele>36.0</ele><time>2026-04-30T12:53:03.002Z</time></trkpt><trkpt lat="43.25732983588979" lon="-2.9354470976950204"><ele>36.0</ele><time>2026-04-30T12:53:05.002Z</time></trkpt><trkpt lat="43.257331509572936" lon="-2.9355347036102915"><ele>36.0</ele><time>2026-04-30T12:54:10.001Z</time></trkpt><trkpt lat="43.25733688690503" lon="-2.935624878453522"><ele>35.833333333333336</ele><time>2026-04-30T12:54:12.001Z</time></trkpt><trkpt lat="43.257347407698596" lon="-2.9357547395501493"><ele>35.666666666666664</ele><time>2026-04-30T12:54:14.001Z</time></trkpt><trkpt lat="43.25736017260444" lon="-2.9359241130869034"><ele>35.5</ele><time>2026-04-30T12:54:16.001Z</time></trkpt><trkpt lat="43.257369398914044" lon="-2.9360213334218064"><ele>35.33333333333333</ele><time>2026-04-30T12:54:17.001Z</time></trkpt><trkpt lat="43.257376912530844" lon="-2.936122246283343"><ele>35.166666666666664</ele><time>2026-04-30T12:54:18.001Z</time></trkpt><trkpt lat="43.25738193402328" lon="-2.9362238160480354"><ele>35.0</ele><time>2026-04-30T12:54:19.001Z</time></trkpt><trkpt lat="43.257391146460776" lon="-2.9363275990647857"><ele>34.666666666666664</ele><time>2026-04-30T12:54:20.001Z</time></trkpt><trkpt lat="43.25740124017286" lon="-2.9364366007708944"><ele>34.33333333333333</ele><time>2026-04-30T12:54:21.001Z</time></trkpt><trkpt lat="43.25741166905956" lon="-2.9365415744816845"><ele>34.0</ele><time>2026-04-30T12:54:22.001Z</time></trkpt><trkpt lat="43.2574177645032" lon="-2.9366456959303733"><ele>33.666666666666664</ele><time>2026-04-30T12:54:23.002Z</time></trkpt><trkpt lat="43.25742263012311" lon="-2.9367514134545956"><ele>33.333333333333336</ele><time>2026-04-30T12:54:24.002Z</time></trkpt><trkpt lat="43.257428616365466" lon="-2.9368589188844636"><ele>33.0</ele><time>2026-04-30T12:54:25.002Z</time></trkpt><trkpt lat="43.25743207275591" lon="-2.936969353369201"><ele>33.0</ele><time>2026-04-30T12:54:26.002Z</time></trkpt><trkpt lat="43.257436004587696" lon="-2.9370840747369478"><ele>33.0</ele><time>2026-04-30T12:54:27.002Z</time></trkpt><trkpt lat="43.25744549184575" lon="-2.9371929342101337"><ele>33.0</ele><time>2026-04-30T12:54:28.002Z</time></trkpt><trkpt lat="43.25745223553093" lon="-2.9373067946947238"><ele>33.0</ele><time>2026-04-30T12:54:29.002Z</time></trkpt><trkpt lat="43.25745562243589" lon="-2.9374188062123445"><ele>33.0</ele><time>2026-04-30T12:54:30.002Z</time></trkpt><trkpt lat="43.25745962474229" lon="-2.937528158875614"><ele>33.0</ele><time>2026-04-30T12:54:31.002Z</time></trkpt><trkpt lat="43.25746716226846" lon="-2.937637883993047"><ele>33.666666666666664</ele><time>2026-04-30T12:54:32.002Z</time></trkpt><trkpt lat="43.25747783073775" lon="-2.9377456864065215"><ele>34.333333333333336</ele><time>2026-04-30T12:54:33.002Z</time></trkpt><trkpt lat="43.25748227594357" lon="-2.9378501544060858"><ele>35.0</ele><time>2026-04-30T12:54:34.002Z</time></trkpt><trkpt lat="43.25748825573131" lon="-2.9379589971092632"><ele>35.66666666666667</ele><time>2026-04-30T12:54:35.002Z</time></trkpt><trkpt lat="43.25749428745898" lon="-2.9380627569547575"><ele>36.333333333333336</ele><time>2026-04-30T12:54:36.002Z</time></trkpt><trkpt lat="43.25750102801901" lon="-2.9381670360522647"><ele>37.0</ele><time>2026-04-30T12:54:37.002Z</time></trkpt><trkpt lat="43.257507542971794" lon="-2.9382689815971155"><ele>37.0</ele><time>2026-04-30T12:54:38.002Z</time></trkpt><trkpt lat="43.257513508484166" lon="-2.93837140913871"><ele>37.0</ele><time>2026-04-30T12:54:39.002Z</time></trkpt><trkpt lat="43.25751688605231" lon="-2.938476236505906"><ele>37.0</ele><time>2026-04-30T12:54:40.002Z</time></trkpt><trkpt lat="43.257521395587624" lon="-2.9385842877920405"><ele>37.0</ele><time>2026-04-30T12:54:41.002Z</time></trkpt><trkpt lat="43.25753312788438" lon="-2.9386904782876897"><ele>37.0</ele><time>2026-04-30T12:54:42.002Z</time></trkpt><trkpt lat="43.25753650640797" lon="-2.9387981317013963"><ele>37.0</ele><time>2026-04-30T12:54:43.002Z</time></trkpt><trkpt lat="43.25753884270583" lon="-2.9389061372332317"><ele>38.0</ele><time>2026-04-30T12:54:44.002Z</time></trkpt><trkpt lat="43.257537633983674" lon="-2.9390124454789204"><ele>39.0</ele><time>2026-04-30T12:54:45.002Z</time></trkpt><trkpt lat="43.25754286478128" lon="-2.9391197775460554"><ele>40.0</ele><time>2026-04-30T12:54:46.002Z</time></trkpt><trkpt lat="43.25755318690536" lon="-2.939228757917038"><ele>41.0</ele><time>2026-04-30T12:54:47.002Z</time></trkpt><trkpt lat="43.257562067200155" lon="-2.939339344363599"><ele>42.0</ele><time>2026-04-30T12:54:48.002Z</time></trkpt><trkpt lat="43.257567849061004" lon="-2.9394500312123193"><ele>43.0</ele><time>2026-04-30T12:54:49.002Z</time></trkpt><trkpt lat="43.25757615776682" lon="-2.93956055239456"><ele>43.16666666666667</ele><time>2026-04-30T12:54:50.002Z</time></trkpt><trkpt lat="43.257583849007666" lon="-2.9396737153353856"><ele>43.333333333333336</ele><time>2026-04-30T12:54:51.002Z</time></trkpt><trkpt lat="43.257587798373734" lon="-2.9397866782044058"><ele>43.5</ele><time>2026-04-30T12:54:52.002Z</time></trkpt><trkpt lat="43.257582352207635" lon="-2.9398979012345445"><ele>43.666666666666664</ele><time>2026-04-30T12:54:53.002Z</time></trkpt><trkpt lat="43.25758860258659" lon="-2.940007921701225"><ele>43.83333333333333</ele><time>2026-04-30T12:54:54.002Z</time></trkpt><trkpt lat="43.25759958448338" lon="-2.94011450835448"><ele>44.0</ele><time>2026-04-30T12:54:55.003Z</time></trkpt><trkpt lat="43.257602975822664" lon="-2.9402276863789085"><ele>43.42857142857143</ele><time>2026-04-30T12:54:56.003Z</time></trkpt><trkpt lat="43.25760779494179" lon="-2.9403307680410813"><ele>42.857142857142854</ele><time>2026-04-30T12:54:57.003Z</time></trkpt><trkpt lat="43.25761899146023" lon="-2.9404395060045783"><ele>42.285714285714285</ele><time>2026-04-30T12:54:58.003Z</time></trkpt><trkpt lat="43.25762794185832" lon="-2.940542625238539"><ele>41.714285714285715</ele><time>2026-04-30T12:54:59.003Z</time></trkpt><trkpt lat="43.257637905422435" lon="-2.9406478296476224"><ele>41.142857142857146</ele><time>2026-04-30T12:55:00.003Z</time></trkpt><trkpt lat="43.25764499174602" lon="-2.940751853040206"><ele>40.57142857142857</ele><time>2026-04-30T12:55:01.003Z</time></trkpt><trkpt lat="43.25764990311535" lon="-2.940839899945752"><ele>40.0</ele><time>2026-04-30T12:55:02.003Z</time></trkpt><trkpt lat="43.257652351353336" lon="-2.9409828641280824"><ele>39.16666666666667</ele><time>2026-04-30T12:55:04.003Z</time></trkpt><trkpt lat="43.25765363626976" lon="-2.941081236868858"><ele>38.333333333333336</ele><time>2026-04-30T12:55:07.003Z</time></trkpt><trkpt lat="43.25766155958939" lon="-2.941192978448651"><ele>37.5</ele><time>2026-04-30T12:55:59.001Z</time></trkpt><trkpt lat="43.257669388616065" lon="-2.9413160809355636"><ele>36.666666666666664</ele><time>2026-04-30T12:56:01.001Z</time></trkpt><trkpt lat="43.25767469400043" lon="-2.941448037308511"><ele>35.83333333333333</ele><time>2026-04-30T12:56:03.001Z</time></trkpt><trkpt lat="43.25767616633073" lon="-2.9415779572357006"><ele>35.0</ele><time>2026-04-30T12:56:05.001Z</time></trkpt><trkpt lat="43.25767306665931" lon="-2.9417103596812635"><ele>35.2</ele><time>2026-04-30T12:56:07.001Z</time></trkpt><trkpt lat="43.25767814669733" lon="-2.9418491455945217"><ele>35.4</ele><time>2026-04-30T12:56:09.001Z</time></trkpt><trkpt lat="43.257683572090755" lon="-2.9419942020076713"><ele>35.6</ele><time>2026-04-30T12:56:11.001Z</time></trkpt><trkpt lat="43.257698420600605" lon="-2.9421493710505295"><ele>35.8</ele><time>2026-04-30T12:56:13.001Z</time></trkpt><trkpt lat="43.25770595002659" lon="-2.9422899433917"><ele>36.0</ele><time>2026-04-30T12:56:15.001Z</time></trkpt><trkpt lat="43.25770932910269" lon="-2.9424172716437482"><ele>36.4</ele><time>2026-04-30T12:56:17.001Z</time></trkpt><trkpt lat="43.2577118730276" lon="-2.9425532790713294"><ele>36.8</ele><time>2026-04-30T12:56:19.001Z</time></trkpt><trkpt lat="43.25771810011669" lon="-2.94268574691367"><ele>37.199999999999996</ele><time>2026-04-30T12:56:21.001Z</time></trkpt><trkpt lat="43.25772228554469" lon="-2.942827424739004"><ele>37.6</ele><time>2026-04-30T12:56:23.001Z</time></trkpt><trkpt lat="43.25773454865067" lon="-2.943004799712071"><ele>38.0</ele><time>2026-04-30T12:56:25.001Z</time></trkpt><trkpt lat="43.257740047572135" lon="-2.943101146586691"><ele>38.0</ele><time>2026-04-30T12:56:26.001Z</time></trkpt><trkpt lat="43.25774813974581" lon="-2.9431999900707253"><ele>38.0</ele><time>2026-04-30T12:56:27.001Z</time></trkpt><trkpt lat="43.257755342268105" lon="-2.943301725343526"><ele>38.0</ele><time>2026-04-30T12:56:28.001Z</time></trkpt><trkpt lat="43.257759797987624" lon="-2.9433987930054166"><ele>38.0</ele><time>2026-04-30T12:56:29.002Z</time></trkpt><trkpt lat="43.25776608716388" lon="-2.9434896843905425"><ele>38.0</ele><time>2026-04-30T12:56:30.002Z</time></trkpt><trkpt lat="43.25777249606153" lon="-2.943584098601784"><ele>38.0</ele><time>2026-04-30T12:56:31.002Z</time></trkpt><trkpt lat="43.257780411486195" lon="-2.9436785745493026"><ele>38.0</ele><time>2026-04-30T12:56:32.002Z</time></trkpt><trkpt lat="43.25778917472407" lon="-2.9437798901573395"><ele>38.5</ele><time>2026-04-30T12:56:33.002Z</time></trkpt><trkpt lat="43.25779623778852" lon="-2.9438792664265065"><ele>39.0</ele><time>2026-04-30T12:56:34.002Z</time></trkpt><trkpt lat="43.25780235227509" lon="-2.9439835667149334"><ele>39.5</ele><time>2026-04-30T12:56:35.002Z</time></trkpt><trkpt lat="43.257808069871636" lon="-2.9440897580340972"><ele>40.0</ele><time>2026-04-30T12:56:36.002Z</time></trkpt><trkpt lat="43.25781649030353" lon="-2.944195346514818"><ele>40.5</ele><time>2026-04-30T12:56:37.002Z</time></trkpt><trkpt lat="43.257822523006105" lon="-2.944301484026204"><ele>41.0</ele><time>2026-04-30T12:56:38.002Z</time></trkpt><trkpt lat="43.2578329115107" lon="-2.944401656682922"><ele>42.0</ele><time>2026-04-30T12:56:39.002Z</time></trkpt><trkpt lat="43.25783679301022" lon="-2.944503164300398"><ele>43.0</ele><time>2026-04-30T12:56:40.002Z</time></trkpt><trkpt lat="43.257842871651214" lon="-2.9446034359964273"><ele>44.0</ele><time>2026-04-30T12:56:41.002Z</time></trkpt><trkpt lat="43.25785478299191" lon="-2.944704188055717"><ele>45.0</ele><time>2026-04-30T12:56:42.002Z</time></trkpt><trkpt lat="43.25785616674442" lon="-2.9447990641602058"><ele>46.0</ele><time>2026-04-30T12:56:43.002Z</time></trkpt><trkpt lat="43.257860317612526" lon="-2.944948322953439"><ele>47.0</ele><time>2026-04-30T12:56:45.002Z</time></trkpt><trkpt lat="43.257856431729714" lon="-2.9450554724107603"><ele>47.2</ele><time>2026-04-30T12:56:47.002Z</time></trkpt><trkpt lat="43.25780115720032" lon="-2.945140867815692"><ele>47.400000000000006</ele><time>2026-04-30T12:57:56Z</time></trkpt><trkpt lat="43.257827642611986" lon="-2.9452802473827466"><ele>47.599999999999994</ele><time>2026-04-30T12:57:59Z</time></trkpt><trkpt lat="43.25784152320599" lon="-2.9454241186896692"><ele>47.8</ele><time>2026-04-30T12:58:01.001Z</time></trkpt><trkpt lat="43.25784219884792" lon="-2.9455766286925464"><ele>48.0</ele><time>2026-04-30T12:58:03.001Z</time></trkpt><trkpt lat="43.25786166240604" lon="-2.945736727242748"><ele>47.5</ele><time>2026-04-30T12:58:05.001Z</time></trkpt><trkpt lat="43.25787538097795" lon="-2.9459092146898587"><ele>47.0</ele><time>2026-04-30T12:58:07.001Z</time></trkpt><trkpt lat="43.25788120205583" lon="-2.9460012716648722"><ele>46.5</ele><time>2026-04-30T12:58:08.001Z</time></trkpt><trkpt lat="43.257887729064166" lon="-2.9460958477455437"><ele>46.0</ele><time>2026-04-30T12:58:09.001Z</time></trkpt><trkpt lat="43.257894727372125" lon="-2.946198084268245"><ele>45.5</ele><time>2026-04-30T12:58:10.001Z</time></trkpt><trkpt lat="43.257901308980635" lon="-2.94629742698266"><ele>45.0</ele><time>2026-04-30T12:58:11.001Z</time></trkpt><trkpt lat="43.25790704042782" lon="-2.946397165443833"><ele>45.0</ele><time>2026-04-30T12:58:12.001Z</time></trkpt><trkpt lat="43.257913218189316" lon="-2.9465049053171892"><ele>45.0</ele><time>2026-04-30T12:58:13.001Z</time></trkpt><trkpt lat="43.257918155585244" lon="-2.946613699826226"><ele>45.0</ele><time>2026-04-30T12:58:14.001Z</time></trkpt><trkpt lat="43.25792846447" lon="-2.946725372202037"><ele>45.0</ele><time>2026-04-30T12:58:15.001Z</time></trkpt><trkpt lat="43.25793993376518" lon="-2.946841060810705"><ele>45.0</ele><time>2026-04-30T12:58:16.001Z</time></trkpt><trkpt lat="43.25795232323294" lon="-2.946950731477272"><ele>45.0</ele><time>2026-04-30T12:58:17.001Z</time></trkpt><trkpt lat="43.25796127810993" lon="-2.9470637948828413"><ele>45.0</ele><time>2026-04-30T12:58:18.001Z</time></trkpt><trkpt lat="43.257964944417836" lon="-2.9471797739538808"><ele>45.0</ele><time>2026-04-30T12:58:19.001Z</time></trkpt><trkpt lat="43.25797923813759" lon="-2.9472955622588644"><ele>45.0</ele><time>2026-04-30T12:58:20.001Z</time></trkpt><trkpt lat="43.2579891876027" lon="-2.9474035231728446"><ele>45.0</ele><time>2026-04-30T12:58:21.001Z</time></trkpt><trkpt lat="43.25800613350899" lon="-2.9475043466942874"><ele>45.0</ele><time>2026-04-30T12:58:22.001Z</time></trkpt><trkpt lat="43.25800157834533" lon="-2.94761191193466"><ele>45.0</ele><time>2026-04-30T12:58:23.001Z</time></trkpt><trkpt lat="43.25800625098065" lon="-2.9477205504675776"><ele>45.0</ele><time>2026-04-30T12:58:24.001Z</time></trkpt><trkpt lat="43.25801147123313" lon="-2.9478313433496393"><ele>45.0</ele><time>2026-04-30T12:58:25.001Z</time></trkpt><trkpt lat="43.25799836158484" lon="-2.9479504480952503"><ele>45.0</ele><time>2026-04-30T12:58:26.001Z</time></trkpt><trkpt lat="43.25799312616962" lon="-2.9480603865748614"><ele>45.0</ele><time>2026-04-30T12:58:27.001Z</time></trkpt><trkpt lat="43.257992298933445" lon="-2.9481678221184255"><ele>45.0</ele><time>2026-04-30T12:58:28.001Z</time></trkpt><trkpt lat="43.25800033333246" lon="-2.9482750556611554"><ele>45.0</ele><time>2026-04-30T12:58:29.001Z</time></trkpt><trkpt lat="43.2580041389398" lon="-2.948385717458035"><ele>45.666666666666664</ele><time>2026-04-30T12:58:30.001Z</time></trkpt><trkpt lat="43.258015905687834" lon="-2.9484912691263605"><ele>46.33333333333333</ele><time>2026-04-30T12:58:31.001Z</time></trkpt><trkpt lat="43.25802656542224" lon="-2.94859659220301"><ele>47.0</ele><time>2026-04-30T12:58:32.001Z</time></trkpt><trkpt lat="43.25803930445582" lon="-2.9486999202934463"><ele>47.666666666666664</ele><time>2026-04-30T12:58:33.001Z</time></trkpt><trkpt lat="43.2580488422757" lon="-2.948801952236312"><ele>48.33333333333333</ele><time>2026-04-30T12:58:34.001Z</time></trkpt><trkpt lat="43.25805604457482" lon="-2.948906262430734"><ele>49.0</ele><time>2026-04-30T12:58:35.002Z</time></trkpt><trkpt lat="43.25805821537373" lon="-2.9490070079252306"><ele>48.99999999999999</ele><time>2026-04-30T12:58:36.002Z</time></trkpt><trkpt lat="43.25805967059813" lon="-2.949101563698451"><ele>49.0</ele><time>2026-04-30T12:58:37.002Z</time></trkpt><trkpt lat="43.25806622740509" lon="-2.949244392644309"><ele>49.0</ele><time>2026-04-30T12:58:39.002Z</time></trkpt><trkpt lat="43.2580662682737" lon="-2.9493427558237006"><ele>49.0</ele><time>2026-04-30T12:58:41.002Z</time></trkpt><trkpt lat="43.258047573685374" lon="-2.949446404376445"><ele>48.99999999999999</ele><time>2026-04-30T12:59:33.003Z</time></trkpt><trkpt lat="43.2580471038513" lon="-2.949565279455086"><ele>49.0</ele><time>2026-04-30T12:59:36.001Z</time></trkpt><trkpt lat="43.258047395089804" lon="-2.94970410435944"><ele>49.33333333333333</ele><time>2026-04-30T12:59:38.001Z</time></trkpt><trkpt lat="43.25806679468178" lon="-2.949867169970386"><ele>49.666666666666664</ele><time>2026-04-30T12:59:40.001Z</time></trkpt><trkpt lat="43.25809532184302" lon="-2.9499547203503123"><ele>50.0</ele><time>2026-04-30T12:59:41.001Z</time></trkpt><trkpt lat="43.25812325037949" lon="-2.9500428891369883"><ele>50.33333333333333</ele><time>2026-04-30T12:59:42.001Z</time></trkpt><trkpt lat="43.258161724135334" lon="-2.9501327202901737"><ele>50.666666666666664</ele><time>2026-04-30T12:59:43.001Z</time></trkpt><trkpt lat="43.25821278751333" lon="-2.950216707236065"><ele>51.0</ele><time>2026-04-30T12:59:44.001Z</time></trkpt><trkpt lat="43.258272338933274" lon="-2.9502956235031808"><ele>51.0</ele><time>2026-04-30T12:59:45.001Z</time></trkpt><trkpt lat="43.25833326710397" lon="-2.9503722486311386"><ele>51.0</ele><time>2026-04-30T12:59:46.001Z</time></trkpt><trkpt lat="43.25840173530979" lon="-2.950447458714786"><ele>51.0</ele><time>2026-04-30T12:59:47.001Z</time></trkpt><trkpt lat="43.25847210834942" lon="-2.950516789351001"><ele>51.0</ele><time>2026-04-30T12:59:48.001Z</time></trkpt><trkpt lat="43.25851257931212" lon="-2.950611480724792"><ele>51.0</ele><time>2026-04-30T12:59:49.001Z</time></trkpt><trkpt lat="43.25856092177266" lon="-2.9506905968335944"><ele>51.0</ele><time>2026-04-30T12:59:50.001Z</time></trkpt><trkpt lat="43.25860978319674" lon="-2.9507693712923326"><ele>51.0</ele><time>2026-04-30T12:59:51.001Z</time></trkpt><trkpt lat="43.258651691208485" lon="-2.9508453722664125"><ele>51.0</ele><time>2026-04-30T12:59:52.001Z</time></trkpt><trkpt lat="43.25869321914968" lon="-2.950920670969641"><ele>51.0</ele><time>2026-04-30T12:59:53.001Z</time></trkpt><trkpt lat="43.25872851062657" lon="-2.9510090867811405"><ele>51.0</ele><time>2026-04-30T12:59:54.001Z</time></trkpt><trkpt lat="43.25876638901488" lon="-2.951088324116684"><ele>51.0</ele><time>2026-04-30T12:59:55.001Z</time></trkpt><trkpt lat="43.25880354439183" lon="-2.95117019269874"><ele>51.0</ele><time>2026-04-30T12:59:56.001Z</time></trkpt><trkpt lat="43.25883684685703" lon="-2.951259794106587"><ele>51.0</ele><time>2026-04-30T12:59:57.001Z</time></trkpt><trkpt lat="43.25887261696497" lon="-2.951349386457861"><ele>51.0</ele><time>2026-04-30T12:59:58.001Z</time></trkpt><trkpt lat="43.25890889193706" lon="-2.9514327264888087"><ele>51.0</ele><time>2026-04-30T12:59:59.001Z</time></trkpt><trkpt lat="43.258948295997804" lon="-2.95150540751887"><ele>51.0</ele><time>2026-04-30T13:00:00.001Z</time></trkpt><trkpt lat="43.25899069246179" lon="-2.951576898845446"><ele>51.0</ele><time>2026-04-30T13:00:01.001Z</time></trkpt><trkpt lat="43.259044797326474" lon="-2.951634718582791"><ele>51.0</ele><time>2026-04-30T13:00:02.001Z</time></trkpt><trkpt lat="43.259108289730385" lon="-2.9516875405322653"><ele>51.0</ele><time>2026-04-30T13:00:03.001Z</time></trkpt><trkpt lat="43.2591756676895" lon="-2.9517443739324487"><ele>51.0</ele><time>2026-04-30T13:00:04.001Z</time></trkpt><trkpt lat="43.259241694549175" lon="-2.951810881466269"><ele>50.833333333333336</ele><time>2026-04-30T13:00:05.001Z</time></trkpt><trkpt lat="43.259305458940744" lon="-2.9518816989388745"><ele>50.66666666666667</ele><time>2026-04-30T13:00:06.001Z</time></trkpt><trkpt lat="43.25936630456828" lon="-2.9519619924104568"><ele>50.5</ele><time>2026-04-30T13:00:07.001Z</time></trkpt><trkpt lat="43.25942474478985" lon="-2.952041396942808"><ele>50.333333333333336</ele><time>2026-04-30T13:00:08.001Z</time></trkpt><trkpt lat="43.2594778115832" lon="-2.9521220546840774"><ele>50.16666666666667</ele><time>2026-04-30T13:00:09.001Z</time></trkpt><trkpt lat="43.259535427794454" lon="-2.952207781053051"><ele>50.0</ele><time>2026-04-30T13:00:10.001Z</time></trkpt><trkpt lat="43.259589413111975" lon="-2.9522926519336656"><ele>50.00000000000001</ele><time>2026-04-30T13:00:11.001Z</time></trkpt><trkpt lat="43.259641297992005" lon="-2.9523734617954593"><ele>50.0</ele><time>2026-04-30T13:00:12.001Z</time></trkpt><trkpt lat="43.25969370641018" lon="-2.952454958766702"><ele>50.0</ele><time>2026-04-30T13:00:13.001Z</time></trkpt><trkpt lat="43.259748261323146" lon="-2.952540557613894"><ele>50.0</ele><time>2026-04-30T13:00:14.001Z</time></trkpt><trkpt lat="43.25980293782349" lon="-2.952624995613597"><ele>50.00000000000001</ele><time>2026-04-30T13:00:15.001Z</time></trkpt><trkpt lat="43.25985839347976" lon="-2.952709877912681"><ele>50.0</ele><time>2026-04-30T13:00:16.001Z</time></trkpt><trkpt lat="43.25991431131088" lon="-2.952795626093649"><ele>48.833333333333336</ele><time>2026-04-30T13:00:17.001Z</time></trkpt><trkpt lat="43.25996914866501" lon="-2.952881602025438"><ele>47.66666666666667</ele><time>2026-04-30T13:00:18.001Z</time></trkpt><trkpt lat="43.260024770986774" lon="-2.9529661446675406"><ele>46.5</ele><time>2026-04-30T13:00:19.001Z</time></trkpt><trkpt lat="43.26007341127237" lon="-2.953045106840245"><ele>45.333333333333336</ele><time>2026-04-30T13:00:20.001Z</time></trkpt><trkpt lat="43.26011660895497" lon="-2.9531165879395616"><ele>44.16666666666667</ele><time>2026-04-30T13:00:21.001Z</time></trkpt><trkpt lat="43.26015578775945" lon="-2.9531845135589214"><ele>43.0</ele><time>2026-04-30T13:00:22.001Z</time></trkpt><trkpt lat="43.26023109767599" lon="-2.9533176989534557"><ele>43.66666666666667</ele><time>2026-04-30T13:00:24.001Z</time></trkpt><trkpt lat="43.26026735971299" lon="-2.9533884897930482"><ele>44.333333333333336</ele><time>2026-04-30T13:00:25.001Z</time></trkpt><trkpt lat="43.26030056931935" lon="-2.9534621076957497"><ele>45.0</ele><time>2026-04-30T13:00:26.001Z</time></trkpt><trkpt lat="43.260369520562904" lon="-2.953610324531278"><ele>45.666666666666664</ele><time>2026-04-30T13:00:28.001Z</time></trkpt><trkpt lat="43.26040441360157" lon="-2.953689413528489"><ele>46.33333333333333</ele><time>2026-04-30T13:00:29.001Z</time></trkpt><trkpt lat="43.26043622852541" lon="-2.9537741286545796"><ele>47.0</ele><time>2026-04-30T13:00:30.001Z</time></trkpt><trkpt lat="43.26046835051623" lon="-2.9538600151572822"><ele>47.0</ele><time>2026-04-30T13:00:31.001Z</time></trkpt><trkpt lat="43.260504198808114" lon="-2.9539473756531196"><ele>47.0</ele><time>2026-04-30T13:00:32.001Z</time></trkpt><trkpt lat="43.26053818288156" lon="-2.9540308942456894"><ele>47.0</ele><time>2026-04-30T13:00:33.001Z</time></trkpt><trkpt lat="43.260586137631066" lon="-2.9540937260227733"><ele>47.0</ele><time>2026-04-30T13:01:08.002Z</time></trkpt><trkpt lat="43.26063004983327" lon="-2.9542188206355506"><ele>47.0</ele><time>2026-04-30T13:01:10.002Z</time></trkpt><trkpt lat="43.26067078249409" lon="-2.954340504530561"><ele>47.0</ele><time>2026-04-30T13:01:12.002Z</time></trkpt><trkpt lat="43.260697702652095" lon="-2.9544198326396205"><ele>46.666666666666664</ele><time>2026-04-30T13:01:14.002Z</time></trkpt><trkpt lat="43.26073512747813" lon="-2.954528909124603"><ele>46.33333333333333</ele><time>2026-04-30T13:01:21.003Z</time></trkpt><trkpt lat="43.260784563858074" lon="-2.9546633508306557"><ele>46.0</ele><time>2026-04-30T13:01:23.003Z</time></trkpt><trkpt lat="43.260846629311835" lon="-2.9548027876166683"><ele>45.666666666666664</ele><time>2026-04-30T13:01:25.003Z</time></trkpt><trkpt lat="43.260889453903275" lon="-2.9548694860665488"><ele>45.333333333333336</ele><time>2026-04-30T13:01:26.003Z</time></trkpt><trkpt lat="43.26094618282934" lon="-2.954917088041488"><ele>45.0</ele><time>2026-04-30T13:01:27.003Z</time></trkpt><trkpt lat="43.260994996779154" lon="-2.954980958561151"><ele>46.333333333333336</ele><time>2026-04-30T13:01:28.003Z</time></trkpt><trkpt lat="43.26104983444952" lon="-2.9550468345792384"><ele>47.66666666666667</ele><time>2026-04-30T13:01:29.003Z</time></trkpt><trkpt lat="43.26110955932652" lon="-2.9551079969581617"><ele>49.0</ele><time>2026-04-30T13:01:30.003Z</time></trkpt><trkpt lat="43.261171669945206" lon="-2.955170657144165"><ele>50.333333333333336</ele><time>2026-04-30T13:01:31.003Z</time></trkpt><trkpt lat="43.26122729370774" lon="-2.9552529862543286"><ele>51.66666666666667</ele><time>2026-04-30T13:01:32.003Z</time></trkpt><trkpt lat="43.2613012302047" lon="-2.955314756453346"><ele>53.0</ele><time>2026-04-30T13:01:33.003Z</time></trkpt><trkpt lat="43.26136972068031" lon="-2.9553851326222524"><ele>53.00000000000001</ele><time>2026-04-30T13:01:34.003Z</time></trkpt><trkpt lat="43.26143966571211" lon="-2.955452819556514"><ele>53.0</ele><time>2026-04-30T13:01:35.003Z</time></trkpt><trkpt lat="43.26150989043433" lon="-2.9555208467181253"><ele>53.0</ele><time>2026-04-30T13:01:36.003Z</time></trkpt><trkpt lat="43.26158483739227" lon="-2.9555861262277396"><ele>53.0</ele><time>2026-04-30T13:01:37.003Z</time></trkpt><trkpt lat="43.26166199295259" lon="-2.9556469062020283"><ele>53.00000000000001</ele><time>2026-04-30T13:01:38.003Z</time></trkpt><trkpt lat="43.26173970185818" lon="-2.9557063950082445"><ele>53.0</ele><time>2026-04-30T13:01:39.003Z</time></trkpt><trkpt lat="43.261817680871346" lon="-2.9557647105469425"><ele>52.2</ele><time>2026-04-30T13:01:40.003Z</time></trkpt><trkpt lat="43.26189777621782" lon="-2.9558209364503196"><ele>51.4</ele><time>2026-04-30T13:01:41.003Z</time></trkpt><trkpt lat="43.26198206483272" lon="-2.9558714532530925"><ele>50.6</ele><time>2026-04-30T13:01:42Z</time></trkpt><trkpt lat="43.26206553987156" lon="-2.955920601832658"><ele>49.800000000000004</ele><time>2026-04-30T13:01:43Z</time></trkpt><trkpt lat="43.26215026293414" lon="-2.9559708276264827"><ele>49.0</ele><time>2026-04-30T13:01:44Z</time></trkpt><trkpt lat="43.26223520696059" lon="-2.956021386001949"><ele>47.400000000000006</ele><time>2026-04-30T13:01:45Z</time></trkpt><trkpt lat="43.26231858383813" lon="-2.9560732616963814"><ele>45.8</ele><time>2026-04-30T13:01:46Z</time></trkpt><trkpt lat="43.26240039941537" lon="-2.9561286278486785"><ele>44.2</ele><time>2026-04-30T13:01:47Z</time></trkpt><trkpt lat="43.26248290392041" lon="-2.956183774606307"><ele>42.599999999999994</ele><time>2026-04-30T13:01:48Z</time></trkpt><trkpt lat="43.26256435077881" lon="-2.956241695573451"><ele>41.0</ele><time>2026-04-30T13:01:49Z</time></trkpt><trkpt lat="43.26264350748237" lon="-2.956303964067211"><ele>41.0</ele><time>2026-04-30T13:01:50Z</time></trkpt><trkpt lat="43.2627197162554" lon="-2.956372052073518"><ele>41.0</ele><time>2026-04-30T13:01:51Z</time></trkpt><trkpt lat="43.26279320878301" lon="-2.9564441456214055"><ele>41.0</ele><time>2026-04-30T13:01:52Z</time></trkpt><trkpt lat="43.26286231710869" lon="-2.956522935659417"><ele>41.0</ele><time>2026-04-30T13:01:53Z</time></trkpt><trkpt lat="43.26292390667568" lon="-2.9566134104247697"><ele>41.0</ele><time>2026-04-30T13:01:54Z</time></trkpt><trkpt lat="43.26298320253565" lon="-2.956707856837986"><ele>39.599999999999994</ele><time>2026-04-30T13:01:55Z</time></trkpt><trkpt lat="43.263040941552156" lon="-2.9568064532649543"><ele>38.199999999999996</ele><time>2026-04-30T13:01:56Z</time></trkpt><trkpt lat="43.26309389006648" lon="-2.95691165947059"><ele>36.8</ele><time>2026-04-30T13:01:57Z</time></trkpt><trkpt lat="43.26314060531531" lon="-2.9570250892114047"><ele>35.4</ele><time>2026-04-30T13:01:58Z</time></trkpt><trkpt lat="43.26318242823408" lon="-2.9571418142083785"><ele>34.0</ele><time>2026-04-30T13:01:59Z</time></trkpt><trkpt lat="43.26321776922094" lon="-2.9572637112704068"><ele>34.0</ele><time>2026-04-30T13:02:00Z</time></trkpt><trkpt lat="43.263248645944394" lon="-2.9573912484185607"><ele>34.0</ele><time>2026-04-30T13:02:01Z</time></trkpt><trkpt lat="43.26327127636349" lon="-2.9575240255238078"><ele>34.0</ele><time>2026-04-30T13:02:02Z</time></trkpt><trkpt lat="43.26328682912418" lon="-2.95766021319323"><ele>34.0</ele><time>2026-04-30T13:02:03Z</time></trkpt><trkpt lat="43.263297532987636" lon="-2.95779674249649"><ele>34.0</ele><time>2026-04-30T13:02:04Z</time></trkpt><trkpt lat="43.263304251950466" lon="-2.957932196131635"><ele>35.2</ele><time>2026-04-30T13:02:05Z</time></trkpt><trkpt lat="43.26330771966917" lon="-2.958067329116824"><ele>36.4</ele><time>2026-04-30T13:02:06Z</time></trkpt><trkpt lat="43.26331248935411" lon="-2.958200271196333"><ele>37.6</ele><time>2026-04-30T13:02:07.001Z</time></trkpt><trkpt lat="43.26331799273772" lon="-2.9583356955500517"><ele>38.8</ele><time>2026-04-30T13:02:08.001Z</time></trkpt><trkpt lat="43.26332567574886" lon="-2.9584698585859335"><ele>40.0</ele><time>2026-04-30T13:02:09.001Z</time></trkpt><trkpt lat="43.26333652081166" lon="-2.9586017642637557"><ele>40.2</ele><time>2026-04-30T13:02:10.001Z</time></trkpt><trkpt lat="43.26335568039025" lon="-2.9587340408188063"><ele>40.4</ele><time>2026-04-30T13:02:11.001Z</time></trkpt><trkpt lat="43.26338567526454" lon="-2.958862189065046"><ele>40.599999999999994</ele><time>2026-04-30T13:02:12.001Z</time></trkpt><trkpt lat="43.263421798805275" lon="-2.958989565743769"><ele>40.8</ele><time>2026-04-30T13:02:13.001Z</time></trkpt><trkpt lat="43.26346410739947" lon="-2.959112320613923"><ele>41.0</ele><time>2026-04-30T13:02:14.001Z</time></trkpt><trkpt lat="43.263516364824106" lon="-2.9592255517789017"><ele>43.0</ele><time>2026-04-30T13:02:15.001Z</time></trkpt><trkpt lat="43.263571445313296" lon="-2.959337209590306"><ele>45.0</ele><time>2026-04-30T13:02:16.001Z</time></trkpt><trkpt lat="43.2636288334337" lon="-2.959448010756716"><ele>47.0</ele><time>2026-04-30T13:02:17.001Z</time></trkpt><trkpt lat="43.26369045305567" lon="-2.9595549305198734"><ele>49.0</ele><time>2026-04-30T13:02:18.001Z</time></trkpt><trkpt lat="43.26375046532077" lon="-2.9596650701893528"><ele>51.0</ele><time>2026-04-30T13:02:19.001Z</time></trkpt><trkpt lat="43.26380860774252" lon="-2.9597755947893987"><ele>51.0</ele><time>2026-04-30T13:02:20.001Z</time></trkpt><trkpt lat="43.26386603920149" lon="-2.959886923328473"><ele>51.0</ele><time>2026-04-30T13:02:21.001Z</time></trkpt><trkpt lat="43.26392378150201" lon="-2.9599964027675005"><ele>51.0</ele><time>2026-04-30T13:02:22.001Z</time></trkpt><trkpt lat="43.26398492722172" lon="-2.960103601553916"><ele>51.0</ele><time>2026-04-30T13:02:23.001Z</time></trkpt><trkpt lat="43.264044627611646" lon="-2.9602110459662105"><ele>51.0</ele><time>2026-04-30T13:02:24.001Z</time></trkpt><trkpt lat="43.26410419736439" lon="-2.9603200585610603"><ele>49.599999999999994</ele><time>2026-04-30T13:02:25.001Z</time></trkpt><trkpt lat="43.26416366754318" lon="-2.960428658136116"><ele>48.2</ele><time>2026-04-30T13:02:26.001Z</time></trkpt><trkpt lat="43.26422205302952" lon="-2.9605380551506015"><ele>46.8</ele><time>2026-04-30T13:02:27.001Z</time></trkpt><trkpt lat="43.26428558931139" lon="-2.960641186764111"><ele>45.400000000000006</ele><time>2026-04-30T13:02:28.001Z</time></trkpt><trkpt lat="43.264354162476785" lon="-2.9607386913410347"><ele>44.0</ele><time>2026-04-30T13:02:29.001Z</time></trkpt><trkpt lat="43.264427492584446" lon="-2.960828046088101"><ele>44.0</ele><time>2026-04-30T13:02:30.001Z</time></trkpt><trkpt lat="43.26450471222345" lon="-2.9609127310187846"><ele>44.0</ele><time>2026-04-30T13:02:31.001Z</time></trkpt><trkpt lat="43.264589340096485" lon="-2.9609836828887377"><ele>44.0</ele><time>2026-04-30T13:02:32.001Z</time></trkpt><trkpt lat="43.2646726476663" lon="-2.9610500081132165"><ele>44.0</ele><time>2026-04-30T13:02:33.001Z</time></trkpt><trkpt lat="43.26475350398029" lon="-2.9611155488237855"><ele>44.0</ele><time>2026-04-30T13:02:34.001Z</time></trkpt><trkpt lat="43.26483354091959" lon="-2.961182957926834"><ele>44.0</ele><time>2026-04-30T13:02:35.001Z</time></trkpt><trkpt lat="43.26491462528035" lon="-2.9612499781395734"><ele>44.0</ele><time>2026-04-30T13:02:36.001Z</time></trkpt><trkpt lat="43.26499332242516" lon="-2.961317819536402"><ele>44.0</ele><time>2026-04-30T13:02:37.001Z</time></trkpt><trkpt lat="43.26507612849091" lon="-2.961381535134669"><ele>44.0</ele><time>2026-04-30T13:02:38.001Z</time></trkpt><trkpt lat="43.265158774571944" lon="-2.961443014640177"><ele>44.0</ele><time>2026-04-30T13:02:39.001Z</time></trkpt><trkpt lat="43.265242338770236" lon="-2.9615067394719037"><ele>44.0</ele><time>2026-04-30T13:02:40.001Z</time></trkpt><trkpt lat="43.265324564227704" lon="-2.9615735930738056"><ele>44.0</ele><time>2026-04-30T13:02:41.001Z</time></trkpt><trkpt lat="43.26540692807641" lon="-2.9616397750532193"><ele>44.0</ele><time>2026-04-30T13:02:42.001Z</time></trkpt><trkpt lat="43.265491557204385" lon="-2.9617038463671954"><ele>44.0</ele><time>2026-04-30T13:02:43.001Z</time></trkpt><trkpt lat="43.26557324434292" lon="-2.9617670327131282"><ele>44.0</ele><time>2026-04-30T13:02:44.001Z</time></trkpt><trkpt lat="43.26565373325983" lon="-2.961831132317475"><ele>43.6</ele><time>2026-04-30T13:02:45.001Z</time></trkpt><trkpt lat="43.265734430315796" lon="-2.9618974642219316"><ele>43.2</ele><time>2026-04-30T13:02:46.001Z</time></trkpt><trkpt lat="43.265814600189" lon="-2.9619627412480827"><ele>42.800000000000004</ele><time>2026-04-30T13:02:47.001Z</time></trkpt><trkpt lat="43.26589393906204" lon="-2.9620276366346467"><ele>42.400000000000006</ele><time>2026-04-30T13:02:48.001Z</time></trkpt><trkpt lat="43.265972936181555" lon="-2.9620966137255738"><ele>42.0</ele><time>2026-04-30T13:02:49.001Z</time></trkpt><trkpt lat="43.26605212524647" lon="-2.9621634864312707"><ele>42.0</ele><time>2026-04-30T13:02:50.002Z</time></trkpt><trkpt lat="43.266130068896736" lon="-2.9622307608932985"><ele>42.0</ele><time>2026-04-30T13:02:51.002Z</time></trkpt><trkpt lat="43.26620757789393" lon="-2.962298848118658"><ele>42.0</ele><time>2026-04-30T13:02:52.002Z</time></trkpt><trkpt lat="43.266285828487426" lon="-2.9623677041746257"><ele>42.0</ele><time>2026-04-30T13:02:53.002Z</time></trkpt><trkpt lat="43.266363609575166" lon="-2.962435367521994"><ele>42.0</ele><time>2026-04-30T13:02:54.002Z</time></trkpt><trkpt lat="43.266442931664805" lon="-2.962504426195254"><ele>43.8</ele><time>2026-04-30T13:02:55.002Z</time></trkpt><trkpt lat="43.266522051388264" lon="-2.962574441459206"><ele>45.6</ele><time>2026-04-30T13:02:56.002Z</time></trkpt><trkpt lat="43.26660161263591" lon="-2.9626448426039866"><ele>47.4</ele><time>2026-04-30T13:02:57.002Z</time></trkpt><trkpt lat="43.26668206261789" lon="-2.9627152518697764"><ele>49.199999999999996</ele><time>2026-04-30T13:02:58.002Z</time></trkpt><trkpt lat="43.26676141865856" lon="-2.962785324810297"><ele>51.0</ele><time>2026-04-30T13:02:59.002Z</time></trkpt><trkpt lat="43.26684197122616" lon="-2.9628543092361257"><ele>51.0</ele><time>2026-04-30T13:03:00.002Z</time></trkpt><trkpt lat="43.26692198380798" lon="-2.9629238445682518"><ele>51.0</ele><time>2026-04-30T13:03:01.002Z</time></trkpt><trkpt lat="43.267005344606126" lon="-2.962988008568571"><ele>51.0</ele><time>2026-04-30T13:03:02.002Z</time></trkpt><trkpt lat="43.26708817151502" lon="-2.9630494694335257"><ele>51.0</ele><time>2026-04-30T13:03:03.002Z</time></trkpt><trkpt lat="43.267171977393694" lon="-2.9631097082857742"><ele>51.0</ele><time>2026-04-30T13:03:04.002Z</time></trkpt><trkpt lat="43.267254024903735" lon="-2.9631662716912683"><ele>51.4</ele><time>2026-04-30T13:03:05.002Z</time></trkpt><trkpt lat="43.26733483306815" lon="-2.9632206176947893"><ele>51.8</ele><time>2026-04-30T13:03:06.002Z</time></trkpt><trkpt lat="43.26741429429067" lon="-2.963275955948781"><ele>52.199999999999996</ele><time>2026-04-30T13:03:07.002Z</time></trkpt><trkpt lat="43.26749591554552" lon="-2.963329160196332"><ele>52.599999999999994</ele><time>2026-04-30T13:03:08.002Z</time></trkpt><trkpt lat="43.267578560810215" lon="-2.963383817636147"><ele>53.0</ele><time>2026-04-30T13:03:09.002Z</time></trkpt><trkpt lat="43.26766140460037" lon="-2.9634374453834322"><ele>53.00000000000001</ele><time>2026-04-30T13:03:10.002Z</time></trkpt><trkpt lat="43.267742442142975" lon="-2.963491054779519"><ele>53.0</ele><time>2026-04-30T13:03:11.002Z</time></trkpt><trkpt lat="43.267822073061154" lon="-2.9635452396628525"><ele>53.0</ele><time>2026-04-30T13:03:12.002Z</time></trkpt><trkpt lat="43.26789920222978" lon="-2.963601334248931"><ele>53.0</ele><time>2026-04-30T13:03:13.002Z</time></trkpt><trkpt lat="43.26797676493672" lon="-2.963656368182755"><ele>53.00000000000001</ele><time>2026-04-30T13:03:14.002Z</time></trkpt><trkpt lat="43.26805454016193" lon="-2.9637102858944533"><ele>53.0</ele><time>2026-04-30T13:03:15.002Z</time></trkpt><trkpt lat="43.26813239821646" lon="-2.9637647318518496"><ele>51.00000000000001</ele><time>2026-04-30T13:03:16.002Z</time></trkpt><trkpt lat="43.26820652555398" lon="-2.963824471865587"><ele>49.0</ele><time>2026-04-30T13:03:17.002Z</time></trkpt><trkpt lat="43.26827571681099" lon="-2.9638855749353663"><ele>47.0</ele><time>2026-04-30T13:03:18.002Z</time></trkpt><trkpt lat="43.268342277880386" lon="-2.963949487347371"><ele>45.0</ele><time>2026-04-30T13:03:19.002Z</time></trkpt><trkpt lat="43.26840438939917" lon="-2.9640138832526755"><ele>43.0</ele><time>2026-04-30T13:03:20.002Z</time></trkpt><trkpt lat="43.26846612035528" lon="-2.964079299547017"><ele>41.0</ele><time>2026-04-30T13:03:21.002Z</time></trkpt><trkpt lat="43.26853020357803" lon="-2.964145169824631"><ele>43.666666666666664</ele><time>2026-04-30T13:03:22.002Z</time></trkpt><trkpt lat="43.26859003085249" lon="-2.9642108743394906"><ele>46.33333333333333</ele><time>2026-04-30T13:03:23.002Z</time></trkpt><trkpt lat="43.26864997772018" lon="-2.964275427206219"><ele>49.0</ele><time>2026-04-30T13:03:24.002Z</time></trkpt><trkpt lat="43.26871376223218" lon="-2.9643381618786666"><ele>51.666666666666664</ele><time>2026-04-30T13:03:25.002Z</time></trkpt><trkpt lat="43.26877492025492" lon="-2.9644038661105965"><ele>54.333333333333336</ele><time>2026-04-30T13:03:26.002Z</time></trkpt><trkpt lat="43.26883437500244" lon="-2.964466717916161"><ele>57.0</ele><time>2026-04-30T13:03:27.002Z</time></trkpt><trkpt lat="43.26889227680888" lon="-2.9645296576919478"><ele>53.333333333333336</ele><time>2026-04-30T13:03:28.002Z</time></trkpt><trkpt lat="43.26895125390555" lon="-2.964593357176703"><ele>49.666666666666664</ele><time>2026-04-30T13:03:29.002Z</time></trkpt><trkpt lat="43.26901225075355" lon="-2.9646575467721274"><ele>46.0</ele><time>2026-04-30T13:03:30.002Z</time></trkpt><trkpt lat="43.26907728360653" lon="-2.964722276999899"><ele>42.33333333333333</ele><time>2026-04-30T13:03:31.003Z</time></trkpt><trkpt lat="43.26914437234348" lon="-2.964790609332709"><ele>38.666666666666664</ele><time>2026-04-30T13:03:32.003Z</time></trkpt><trkpt lat="43.26921449890839" lon="-2.9648590268792767"><ele>35.0</ele><time>2026-04-30T13:03:33.003Z</time></trkpt><trkpt lat="43.269287382784526" lon="-2.9649242061968195"><ele>35.0</ele><time>2026-04-30T13:03:34.003Z</time></trkpt><trkpt lat="43.26936690905213" lon="-2.9649854871634367"><ele>35.0</ele><time>2026-04-30T13:03:35.003Z</time></trkpt><trkpt lat="43.26944725578753" lon="-2.965046532061366"><ele>35.0</ele><time>2026-04-30T13:03:36.003Z</time></trkpt><trkpt lat="43.269530566709705" lon="-2.9651050078140777"><ele>35.0</ele><time>2026-04-30T13:03:37.003Z</time></trkpt><trkpt lat="43.269616022643454" lon="-2.965162244331892"><ele>35.0</ele><time>2026-04-30T13:03:38.003Z</time></trkpt><trkpt lat="43.269699959068184" lon="-2.965221964722387"><ele>34.6</ele><time>2026-04-30T13:03:39.003Z</time></trkpt><trkpt lat="43.26978495843962" lon="-2.96528549569881"><ele>34.2</ele><time>2026-04-30T13:03:40.003Z</time></trkpt><trkpt lat="43.269871498285184" lon="-2.96534560594659"><ele>33.8</ele><time>2026-04-30T13:03:41.003Z</time></trkpt><trkpt lat="43.26995740154726" lon="-2.965405360521691"><ele>33.4</ele><time>2026-04-30T13:03:42.003Z</time></trkpt><trkpt lat="43.27004766078545" lon="-2.965461274262208"><ele>33.0</ele><time>2026-04-30T13:03:43.003Z</time></trkpt><trkpt lat="43.270136758455195" lon="-2.9655231041872554"><ele>33.0</ele><time>2026-04-30T13:03:44.003Z</time></trkpt><trkpt lat="43.27022117474588" lon="-2.9655854823892276"><ele>33.0</ele><time>2026-04-30T13:03:45.003Z</time></trkpt><trkpt lat="43.27030896226356" lon="-2.965647291404549"><ele>33.0</ele><time>2026-04-30T13:03:46.003Z</time></trkpt><trkpt lat="43.270399706269174" lon="-2.9657035501537585"><ele>33.0</ele><time>2026-04-30T13:03:47.003Z</time></trkpt><trkpt lat="43.27049001579779" lon="-2.965760125675254"><ele>33.0</ele><time>2026-04-30T13:03:48Z</time></trkpt><trkpt lat="43.27057737944901" lon="-2.965818830285265"><ele>34.199999999999996</ele><time>2026-04-30T13:03:49Z</time></trkpt><trkpt lat="43.27066906576529" lon="-2.9658769275266783"><ele>35.4</ele><time>2026-04-30T13:03:50Z</time></trkpt><trkpt lat="43.270758763829434" lon="-2.965934920956708"><ele>36.599999999999994</ele><time>2026-04-30T13:03:51Z</time></trkpt><trkpt lat="43.27084748034373" lon="-2.965990881696719"><ele>37.8</ele><time>2026-04-30T13:03:52Z</time></trkpt><trkpt lat="43.27094121893756" lon="-2.9660490310047827"><ele>39.0</ele><time>2026-04-30T13:03:53Z</time></trkpt><trkpt lat="43.27103205424825" lon="-2.966103457994421"><ele>39.0</ele><time>2026-04-30T13:03:54Z</time></trkpt><trkpt lat="43.271122470882005" lon="-2.9661577266436012"><ele>39.0</ele><time>2026-04-30T13:03:55Z</time></trkpt><trkpt lat="43.27121201764544" lon="-2.966214469049327"><ele>39.0</ele><time>2026-04-30T13:03:56Z</time></trkpt><trkpt lat="43.271304216993265" lon="-2.966271724219269"><ele>39.0</ele><time>2026-04-30T13:03:57Z</time></trkpt><trkpt lat="43.27139426782864" lon="-2.9663250144439743"><ele>39.0</ele><time>2026-04-30T13:03:58Z</time></trkpt><trkpt lat="43.271482241805934" lon="-2.966379914312037"><ele>36.0</ele><time>2026-04-30T13:03:59Z</time></trkpt><trkpt lat="43.27156846169942" lon="-2.9664353693263696"><ele>33.0</ele><time>2026-04-30T13:04:00Z</time></trkpt><trkpt lat="43.27165568196965" lon="-2.9664900467106046"><ele>30.0</ele><time>2026-04-30T13:04:01Z</time></trkpt><trkpt lat="43.27173893206407" lon="-2.966546001427429"><ele>27.0</ele><time>2026-04-30T13:04:02Z</time></trkpt><trkpt lat="43.27182109044947" lon="-2.9666008827735526"><ele>24.0</ele><time>2026-04-30T13:04:03Z</time></trkpt><trkpt lat="43.27190324830552" lon="-2.9666568681581373"><ele>24.333333333333332</ele><time>2026-04-30T13:04:04Z</time></trkpt><trkpt lat="43.27198503827156" lon="-2.966711715035218"><ele>24.666666666666664</ele><time>2026-04-30T13:04:05Z</time></trkpt><trkpt lat="43.272064951459065" lon="-2.966765498038629"><ele>25.0</ele><time>2026-04-30T13:04:06Z</time></trkpt><trkpt lat="43.272144669103895" lon="-2.966824379752502"><ele>25.333333333333332</ele><time>2026-04-30T13:04:07Z</time></trkpt><trkpt lat="43.27221563216799" lon="-2.9668844510030734"><ele>25.666666666666664</ele><time>2026-04-30T13:04:08Z</time></trkpt><trkpt lat="43.27228266040311" lon="-2.9669401465047667"><ele>26.0</ele><time>2026-04-30T13:04:09Z</time></trkpt><trkpt lat="43.27234567082849" lon="-2.966996059821991"><ele>25.999999999999996</ele><time>2026-04-30T13:04:10Z</time></trkpt><trkpt lat="43.27240846300665" lon="-2.9670541919886975"><ele>26.0</ele><time>2026-04-30T13:04:11Z</time></trkpt><trkpt lat="43.272469697786526" lon="-2.9671119372499177"><ele>26.0</ele><time>2026-04-30T13:04:12Z</time></trkpt><trkpt lat="43.272532166336546" lon="-2.967170429525273"><ele>26.0</ele><time>2026-04-30T13:04:13Z</time></trkpt><trkpt lat="43.27259522328902" lon="-2.9672318263091357"><ele>25.999999999999996</ele><time>2026-04-30T13:04:14Z</time></trkpt><trkpt lat="43.27265930393183" lon="-2.9673045542098277"><ele>26.0</ele><time>2026-04-30T13:04:15Z</time></trkpt><trkpt lat="43.272725764680516" lon="-2.967382158439973"><ele>25.999999999999996</ele><time>2026-04-30T13:04:16Z</time></trkpt><trkpt lat="43.27279737210303" lon="-2.9674689009609962"><ele>26.0</ele><time>2026-04-30T13:04:17Z</time></trkpt><trkpt lat="43.27287615437418" lon="-2.9675472190466987"><ele>26.0</ele><time>2026-04-30T13:04:18Z</time></trkpt><trkpt lat="43.27293860980018" lon="-2.967620647009196"><ele>26.0</ele><time>2026-04-30T13:04:19Z</time></trkpt><trkpt lat="43.27301674575345" lon="-2.967676334434198"><ele>25.999999999999996</ele><time>2026-04-30T13:04:20Z</time></trkpt><trkpt lat="43.27308990754996" lon="-2.9677277492196046"><ele>26.0</ele><time>2026-04-30T13:04:21Z</time></trkpt><trkpt lat="43.27316126678248" lon="-2.9677657267153967"><ele>24.6</ele><time>2026-04-30T13:04:22.001Z</time></trkpt><trkpt lat="43.273206085958414" lon="-2.9679406470077656"><ele>23.200000000000003</ele><time>2026-04-30T13:04:23.001Z</time></trkpt><trkpt lat="43.27326600453097" lon="-2.9680327536098106"><ele>21.799999999999997</ele><time>2026-04-30T13:04:24.001Z</time></trkpt><trkpt lat="43.27332983595611" lon="-2.968123361028849"><ele>20.4</ele><time>2026-04-30T13:04:25.001Z</time></trkpt><trkpt lat="43.27339466731375" lon="-2.968211650372384"><ele>19.0</ele><time>2026-04-30T13:04:26.001Z</time></trkpt><trkpt lat="43.27345696476528" lon="-2.968296921250983"><ele>22.166666666666664</ele><time>2026-04-30T13:04:27.001Z</time></trkpt><trkpt lat="43.273520674132016" lon="-2.9683821603735048"><ele>25.333333333333332</ele><time>2026-04-30T13:04:28.001Z</time></trkpt><trkpt lat="43.27358329182169" lon="-2.9684666088937717"><ele>28.5</ele><time>2026-04-30T13:04:29.001Z</time></trkpt><trkpt lat="43.273646000817706" lon="-2.9685515475913036"><ele>31.666666666666664</ele><time>2026-04-30T13:04:30.001Z</time></trkpt><trkpt lat="43.273711907777084" lon="-2.9686375802162472"><ele>34.83333333333333</ele><time>2026-04-30T13:04:31.001Z</time></trkpt><trkpt lat="43.27377786952593" lon="-2.9687233589773854"><ele>38.0</ele><time>2026-04-30T13:04:32.001Z</time></trkpt><trkpt lat="43.2738488223206" lon="-2.9688074109631937"><ele>38.0</ele><time>2026-04-30T13:04:33.001Z</time></trkpt><trkpt lat="43.27391701559683" lon="-2.968891009749378"><ele>38.0</ele><time>2026-04-30T13:04:34.001Z</time></trkpt><trkpt lat="43.27398455888774" lon="-2.9689778753685285"><ele>38.0</ele><time>2026-04-30T13:04:35.001Z</time></trkpt><trkpt lat="43.27405026074172" lon="-2.9690619064839043"><ele>38.0</ele><time>2026-04-30T13:04:36.001Z</time></trkpt><trkpt lat="43.274128166865175" lon="-2.969126345577096"><ele>38.0</ele><time>2026-04-30T13:04:37.001Z</time></trkpt><trkpt lat="43.2741927951745" lon="-2.9692187560874697"><ele>36.6</ele><time>2026-04-30T13:04:38.001Z</time></trkpt><trkpt lat="43.27427316391706" lon="-2.969288481830351"><ele>35.199999999999996</ele><time>2026-04-30T13:04:39.001Z</time></trkpt><trkpt lat="43.274353870846376" lon="-2.9693548312507807"><ele>33.8</ele><time>2026-04-30T13:04:40.001Z</time></trkpt><trkpt lat="43.274437003949345" lon="-2.969419918099746"><ele>32.4</ele><time>2026-04-30T13:04:41.001Z</time></trkpt><trkpt lat="43.274519408691376" lon="-2.969480357918347"><ele>31.0</ele><time>2026-04-30T13:04:42.001Z</time></trkpt><trkpt lat="43.27460084357773" lon="-2.9695339804957"><ele>31.0</ele><time>2026-04-30T13:04:43.001Z</time></trkpt><trkpt lat="43.27468213190239" lon="-2.9695845076120033"><ele>31.0</ele><time>2026-04-30T13:04:44.001Z</time></trkpt><trkpt lat="43.274766854361054" lon="-2.9696296556384114"><ele>31.0</ele><time>2026-04-30T13:04:45.001Z</time></trkpt><trkpt lat="43.27485393881536" lon="-2.9696724661079967"><ele>31.0</ele><time>2026-04-30T13:04:46.001Z</time></trkpt><trkpt lat="43.2749415460743" lon="-2.9697153971195274"><ele>31.0</ele><time>2026-04-30T13:04:47.001Z</time></trkpt><trkpt lat="43.27502913571679" lon="-2.9697583809131136"><ele>29.666666666666668</ele><time>2026-04-30T13:04:48.001Z</time></trkpt><trkpt lat="43.275114331674516" lon="-2.969799549942636"><ele>28.333333333333336</ele><time>2026-04-30T13:04:49.001Z</time></trkpt><trkpt lat="43.275193853475784" lon="-2.969839406111007"><ele>27.0</ele><time>2026-04-30T13:04:50.001Z</time></trkpt><trkpt lat="43.275270587253964" lon="-2.9698727451581535"><ele>25.666666666666668</ele><time>2026-04-30T13:04:51.001Z</time></trkpt><trkpt lat="43.27534462306531" lon="-2.969907432621681"><ele>24.333333333333336</ele><time>2026-04-30T13:04:52.001Z</time></trkpt><trkpt lat="43.27541228524783" lon="-2.96994020366396"><ele>23.0</ele><time>2026-04-30T13:04:53.001Z</time></trkpt><trkpt lat="43.27547475850662" lon="-2.969971264283789"><ele>23.0</ele><time>2026-04-30T13:04:54.001Z</time></trkpt><trkpt lat="43.275535364819454" lon="-2.9699948500548317"><ele>23.0</ele><time>2026-04-30T13:04:55.001Z</time></trkpt><trkpt lat="43.275637931774355" lon="-2.970045756657695"><ele>23.0</ele><time>2026-04-30T13:04:57.001Z</time></trkpt><trkpt lat="43.275720193510445" lon="-2.9700817881704724"><ele>23.0</ele><time>2026-04-30T13:04:59.001Z</time></trkpt><trkpt lat="43.27578906734683" lon="-2.970113127527299"><ele>23.0</ele><time>2026-04-30T13:05:02.002Z</time></trkpt><trkpt lat="43.275862133974584" lon="-2.97015823194419"><ele>23.0</ele><time>2026-04-30T13:05:08.002Z</time></trkpt><trkpt lat="43.27597051772717" lon="-2.9702132139156245"><ele>22.857142857142858</ele><time>2026-04-30T13:05:10.002Z</time></trkpt><trkpt lat="43.27602777036281" lon="-2.970256161258793"><ele>22.71428571428571</ele><time>2026-04-30T13:05:11.002Z</time></trkpt><trkpt lat="43.27608152938617" lon="-2.970320655849144"><ele>22.57142857142857</ele><time>2026-04-30T13:05:12.002Z</time></trkpt><trkpt lat="43.276128416374235" lon="-2.970388549670562"><ele>22.42857142857143</ele><time>2026-04-30T13:05:13.002Z</time></trkpt><trkpt lat="43.27616623490708" lon="-2.9704604731714737"><ele>22.285714285714285</ele><time>2026-04-30T13:05:14.002Z</time></trkpt><trkpt lat="43.2761960974383" lon="-2.9705370675584"><ele>22.142857142857142</ele><time>2026-04-30T13:05:15.002Z</time></trkpt><trkpt lat="43.276221439266585" lon="-2.9706165013432524"><ele>22.0</ele><time>2026-04-30T13:05:16.002Z</time></trkpt><trkpt lat="43.27624737826011" lon="-2.970698901190141"><ele>22.0</ele><time>2026-04-30T13:05:17.002Z</time></trkpt><trkpt lat="43.276277664365985" lon="-2.970780745614945"><ele>22.0</ele><time>2026-04-30T13:05:18.002Z</time></trkpt><trkpt lat="43.276312894650545" lon="-2.9708628416021035"><ele>22.0</ele><time>2026-04-30T13:05:19.002Z</time></trkpt><trkpt lat="43.276347100174384" lon="-2.970942785938194"><ele>22.0</ele><time>2026-04-30T13:05:20.002Z</time></trkpt><trkpt lat="43.276378242225746" lon="-2.971018654587989"><ele>22.0</ele><time>2026-04-30T13:05:21.002Z</time></trkpt><trkpt lat="43.27640975043829" lon="-2.971098016810613"><ele>22.0</ele><time>2026-04-30T13:05:22.002Z</time></trkpt><trkpt lat="43.276434540169554" lon="-2.971183522018036"><ele>22.0</ele><time>2026-04-30T13:05:23.002Z</time></trkpt><trkpt lat="43.276427890907044" lon="-2.971274669023157"><ele>21.200000000000003</ele><time>2026-04-30T13:05:24.002Z</time></trkpt><trkpt lat="43.276487607511996" lon="-2.9713514999964974"><ele>20.400000000000002</ele><time>2026-04-30T13:05:25.002Z</time></trkpt><trkpt lat="43.276541274744346" lon="-2.971504540805272"><ele>19.6</ele><time>2026-04-30T13:05:27.002Z</time></trkpt><trkpt lat="43.27656839162388" lon="-2.971584861909381"><ele>18.8</ele><time>2026-04-30T13:05:28.002Z</time></trkpt><trkpt lat="43.27661207825044" lon="-2.9717431525652303"><ele>18.0</ele><time>2026-04-30T13:05:30.002Z</time></trkpt><trkpt lat="43.276652465746594" lon="-2.971886122080585"><ele>18.0</ele><time>2026-04-30T13:05:32.002Z</time></trkpt><trkpt lat="43.27668504008404" lon="-2.972000235217931"><ele>18.0</ele><time>2026-04-30T13:05:34.002Z</time></trkpt><trkpt lat="43.27671256414055" lon="-2.9720938682830202"><ele>18.0</ele><time>2026-04-30T13:05:36.002Z</time></trkpt><trkpt lat="43.27673466996585" lon="-2.9721981258488976"><ele>18.0</ele><time>2026-04-30T13:05:38.002Z</time></trkpt><trkpt lat="43.27676104040959" lon="-2.9723208943545796"><ele>18.0</ele><time>2026-04-30T13:05:40.002Z</time></trkpt><trkpt lat="43.27679883077386" lon="-2.972454884919783"><ele>18.0</ele><time>2026-04-30T13:05:42.003Z</time></trkpt><trkpt lat="43.27684396971723" lon="-2.9726024800060524"><ele>17.5</ele><time>2026-04-30T13:05:44.003Z</time></trkpt><trkpt lat="43.2768929623712" lon="-2.9727567744718653"><ele>17.0</ele><time>2026-04-30T13:05:46.003Z</time></trkpt><trkpt lat="43.27691445727486" lon="-2.972839151630361"><ele>16.5</ele><time>2026-04-30T13:05:47.003Z</time></trkpt><trkpt lat="43.27694030894486" lon="-2.9729219431439944"><ele>16.0</ele><time>2026-04-30T13:05:48.003Z</time></trkpt><trkpt lat="43.27696163997365" lon="-2.9730083352207224"><ele>15.5</ele><time>2026-04-30T13:05:49.003Z</time></trkpt><trkpt lat="43.27698632971879" lon="-2.9730948967211965"><ele>15.0</ele><time>2026-04-30T13:05:50.003Z</time></trkpt><trkpt lat="43.277018106883574" lon="-2.9731788451174634"><ele>15.0</ele><time>2026-04-30T13:05:51.003Z</time></trkpt><trkpt lat="43.277041910632825" lon="-2.9732703562995844"><ele>15.0</ele><time>2026-04-30T13:05:52.003Z</time></trkpt><trkpt lat="43.27706559590929" lon="-2.9733614614708044"><ele>15.0</ele><time>2026-04-30T13:05:53.003Z</time></trkpt><trkpt lat="43.277089961415584" lon="-2.9734469676838065"><ele>15.0</ele><time>2026-04-30T13:05:54Z</time></trkpt><trkpt lat="43.27712401843962" lon="-2.973532155881069"><ele>15.0</ele><time>2026-04-30T13:05:55Z</time></trkpt><trkpt lat="43.27714741133309" lon="-2.973630521393956"><ele>15.0</ele><time>2026-04-30T13:05:56Z</time></trkpt><trkpt lat="43.277175274454414" lon="-2.973732299654514"><ele>15.0</ele><time>2026-04-30T13:05:57Z</time></trkpt><trkpt lat="43.27720626497599" lon="-2.973832761458117"><ele>14.5</ele><time>2026-04-30T13:05:58Z</time></trkpt><trkpt lat="43.277249607957096" lon="-2.9739270643733473"><ele>14.0</ele><time>2026-04-30T13:05:59Z</time></trkpt><trkpt lat="43.27728210483163" lon="-2.9740318771144922"><ele>13.5</ele><time>2026-04-30T13:06:00Z</time></trkpt><trkpt lat="43.277315054914986" lon="-2.974138151606961"><ele>13.0</ele><time>2026-04-30T13:06:01Z</time></trkpt><trkpt lat="43.277339147045915" lon="-2.974254463308111"><ele>12.5</ele><time>2026-04-30T13:06:02Z</time></trkpt><trkpt lat="43.277372587058544" lon="-2.974365553803175"><ele>12.0</ele><time>2026-04-30T13:06:03Z</time></trkpt><trkpt lat="43.27740767355965" lon="-2.9744672342817617"><ele>10.714285714285714</ele><time>2026-04-30T13:06:04Z</time></trkpt><trkpt lat="43.27743681742321" lon="-2.974569747205619"><ele>9.428571428571429</ele><time>2026-04-30T13:06:05Z</time></trkpt><trkpt lat="43.27746429001454" lon="-2.9746689033747864"><ele>8.142857142857142</ele><time>2026-04-30T13:06:06Z</time></trkpt><trkpt lat="43.27749513385555" lon="-2.974762568199974"><ele>6.857142857142857</ele><time>2026-04-30T13:06:07Z</time></trkpt><trkpt lat="43.27752183919067" lon="-2.9748555152158382"><ele>5.571428571428571</ele><time>2026-04-30T13:06:08Z</time></trkpt><trkpt lat="43.27754790317469" lon="-2.974945395711855"><ele>4.285714285714286</ele><time>2026-04-30T13:06:09Z</time></trkpt><trkpt lat="43.27757161999188" lon="-2.975032258199866"><ele>3.0</ele><time>2026-04-30T13:06:10Z</time></trkpt><trkpt lat="43.277595799470156" lon="-2.9751147844251835"><ele>2.6</ele><time>2026-04-30T13:06:11Z</time></trkpt><trkpt lat="43.27763757248967" lon="-2.975267175674446"><ele>2.1999999999999997</ele><time>2026-04-30T13:06:13Z</time></trkpt><trkpt lat="43.27768254061719" lon="-2.9754024076276426"><ele>1.8</ele><time>2026-04-30T13:06:15Z</time></trkpt><trkpt lat="43.27774438280052" lon="-2.9755020083345345"><ele>1.4</ele><time>2026-04-30T13:06:17Z</time></trkpt><trkpt lat="43.277824739636266" lon="-2.9755942867890237"><ele>1.0</ele><time>2026-04-30T13:06:19Z</time></trkpt><trkpt lat="43.27785901331576" lon="-2.975745442125705"><ele>0.6666666666666666</ele><time>2026-04-30T13:06:21Z</time></trkpt><trkpt lat="43.277861594056745" lon="-2.975920679787918"><ele>0.3333333333333333</ele><time>2026-04-30T13:06:23Z</time></trkpt><trkpt lat="43.27786501177302" lon="-2.9760156811107636"><ele>0.0</ele><time>2026-04-30T13:06:24Z</time></trkpt><trkpt lat="43.27788422050984" lon="-2.976114683321365"><ele>-0.3333333333333333</ele><time>2026-04-30T13:06:25Z</time></trkpt><trkpt lat="43.27791289528066" lon="-2.9762095704285314"><ele>-0.6666666666666666</ele><time>2026-04-30T13:06:26Z</time></trkpt><trkpt lat="43.27794386599715" lon="-2.9763049838977653"><ele>-1.0</ele><time>2026-04-30T13:06:27Z</time></trkpt><trkpt lat="43.27797760178087" lon="-2.9764006298497967"><ele>-0.9999999999999999</ele><time>2026-04-30T13:06:28Z</time></trkpt><trkpt lat="43.27801259659103" lon="-2.976496874525246"><ele>-1.0</ele><time>2026-04-30T13:06:29Z</time></trkpt><trkpt lat="43.27804631220075" lon="-2.976594527481694"><ele>-1.0</ele><time>2026-04-30T13:06:30Z</time></trkpt><trkpt lat="43.27807937339223" lon="-2.976695629248144"><ele>-1.0</ele><time>2026-04-30T13:06:31Z</time></trkpt><trkpt lat="43.27811225370856" lon="-2.9767981183617813"><ele>-0.9999999999999999</ele><time>2026-04-30T13:06:32.001Z</time></trkpt><trkpt lat="43.27814525534168" lon="-2.976901754192098"><ele>-1.0</ele><time>2026-04-30T13:06:33.001Z</time></trkpt><trkpt lat="43.27817941906744" lon="-2.977007894455031"><ele>-0.33333333333333326</ele><time>2026-04-30T13:06:34.001Z</time></trkpt><trkpt lat="43.27821367732575" lon="-2.9771172246183646"><ele>0.33333333333333337</ele><time>2026-04-30T13:06:35.001Z</time></trkpt><trkpt lat="43.278247878550296" lon="-2.977226958097025"><ele>1.0</ele><time>2026-04-30T13:06:36.001Z</time></trkpt><trkpt lat="43.27828099914633" lon="-2.977336588318113"><ele>1.6666666666666667</ele><time>2026-04-30T13:06:37.001Z</time></trkpt><trkpt lat="43.27831415382863" lon="-2.9774471489084493"><ele>2.3333333333333335</ele><time>2026-04-30T13:06:38.001Z</time></trkpt><trkpt lat="43.27834870798141" lon="-2.9775575250855844"><ele>3.0</ele><time>2026-04-30T13:06:39.001Z</time></trkpt><trkpt lat="43.27838282244936" lon="-2.977665269472811"><ele>3.833333333333333</ele><time>2026-04-30T13:06:40.001Z</time></trkpt><trkpt lat="43.278413158796525" lon="-2.977765650254149"><ele>4.666666666666666</ele><time>2026-04-30T13:06:41.001Z</time></trkpt><trkpt lat="43.278442734553565" lon="-2.9778633640941687"><ele>5.5</ele><time>2026-04-30T13:06:42.001Z</time></trkpt><trkpt lat="43.27847202902524" lon="-2.9779597667741085"><ele>6.333333333333333</ele><time>2026-04-30T13:06:43.001Z</time></trkpt><trkpt lat="43.27850461334465" lon="-2.9780563127200628"><ele>7.166666666666666</ele><time>2026-04-30T13:06:44.001Z</time></trkpt><trkpt lat="43.278537614476406" lon="-2.9781513790777114"><ele>8.0</ele><time>2026-04-30T13:06:45.001Z</time></trkpt><trkpt lat="43.278568541937204" lon="-2.9782373738320915"><ele>11.2</ele><time>2026-04-30T13:06:46.001Z</time></trkpt><trkpt lat="43.27862037499692" lon="-2.978362736950892"><ele>14.4</ele><time>2026-04-30T13:06:48.001Z</time></trkpt><trkpt lat="43.27867434535411" lon="-2.978457781883196"><ele>17.599999999999998</ele><time>2026-04-30T13:06:51.001Z</time></trkpt><trkpt lat="43.27871848000339" lon="-2.978550110374558"><ele>20.8</ele><time>2026-04-30T13:06:54.001Z</time></trkpt><trkpt lat="43.278791404603275" lon="-2.9786277297513535"><ele>24.0</ele><time>2026-04-30T13:06:56.001Z</time></trkpt><trkpt lat="43.27890054192717" lon="-2.978691304490926"><ele>23.0</ele><time>2026-04-30T13:06:58.001Z</time></trkpt><trkpt lat="43.27900805825639" lon="-2.9787397599468672"><ele>22.0</ele><time>2026-04-30T13:07:00.001Z</time></trkpt><trkpt lat="43.27908974541443" lon="-2.978776321744387"><ele>21.0</ele><time>2026-04-30T13:07:02.001Z</time></trkpt><trkpt lat="43.27914953138705" lon="-2.978805921383871"><ele>20.0</ele><time>2026-04-30T13:07:04.001Z</time></trkpt><trkpt lat="43.27921532899905" lon="-2.978845178755142"><ele>19.0</ele><time>2026-04-30T13:07:07.001Z</time></trkpt><trkpt lat="43.27928558114328" lon="-2.9788790444841995"><ele>18.0</ele><time>2026-04-30T13:07:09.001Z</time></trkpt><trkpt lat="43.27938593459506" lon="-2.9789216617025733"><ele>18.0</ele><time>2026-04-30T13:07:11.002Z</time></trkpt><trkpt lat="43.27949771949009" lon="-2.9789666852460326"><ele>18.0</ele><time>2026-04-30T13:07:13.002Z</time></trkpt><trkpt lat="43.279559807662714" lon="-2.978991226961347"><ele>18.0</ele><time>2026-04-30T13:07:14.002Z</time></trkpt><trkpt lat="43.27962582305051" lon="-2.979017955470126"><ele>18.0</ele><time>2026-04-30T13:07:15.002Z</time></trkpt><trkpt lat="43.279691732558724" lon="-2.979043965073638"><ele>18.0</ele><time>2026-04-30T13:07:16.002Z</time></trkpt><trkpt lat="43.27976132792023" lon="-2.979071085360853"><ele>18.0</ele><time>2026-04-30T13:07:17.002Z</time></trkpt><trkpt lat="43.279830423781185" lon="-2.9791029988908257"><ele>18.0</ele><time>2026-04-30T13:07:18.002Z</time></trkpt><trkpt lat="43.27990579370836" lon="-2.97913413367141"><ele>18.0</ele><time>2026-04-30T13:07:19.002Z</time></trkpt><trkpt lat="43.279978808647655" lon="-2.9791697202678025"><ele>18.0</ele><time>2026-04-30T13:07:20.002Z</time></trkpt><trkpt lat="43.28005751852021" lon="-2.979204355293816"><ele>18.0</ele><time>2026-04-30T13:07:21.002Z</time></trkpt><trkpt lat="43.28013268027098" lon="-2.9792394205842516"><ele>18.0</ele><time>2026-04-30T13:07:22.002Z</time></trkpt><trkpt lat="43.28020942611621" lon="-2.979273414835465"><ele>18.0</ele><time>2026-04-30T13:07:23.002Z</time></trkpt><trkpt lat="43.280288732998976" lon="-2.9793051572845073"><ele>19.833333333333332</ele><time>2026-04-30T13:07:24.002Z</time></trkpt><trkpt lat="43.28036880299752" lon="-2.979341222706522"><ele>21.666666666666664</ele><time>2026-04-30T13:07:25.002Z</time></trkpt><trkpt lat="43.2804465920624" lon="-2.9793750764402778"><ele>23.5</ele><time>2026-04-30T13:07:26.002Z</time></trkpt><trkpt lat="43.2805280830636" lon="-2.9794099375289003"><ele>25.333333333333332</ele><time>2026-04-30T13:07:27.002Z</time></trkpt><trkpt lat="43.28061018661487" lon="-2.9794427640406638"><ele>27.166666666666664</ele><time>2026-04-30T13:07:28.002Z</time></trkpt><trkpt lat="43.28069563217193" lon="-2.9794733697624545"><ele>29.0</ele><time>2026-04-30T13:07:29.002Z</time></trkpt><trkpt lat="43.28077839017507" lon="-2.9795065551867124"><ele>28.999999999999996</ele><time>2026-04-30T13:07:30.002Z</time></trkpt><trkpt lat="43.28086106340353" lon="-2.979540607887642"><ele>29.0</ele><time>2026-04-30T13:07:31.002Z</time></trkpt><trkpt lat="43.28094312743902" lon="-2.9795747790189724"><ele>29.0</ele><time>2026-04-30T13:07:32.002Z</time></trkpt><trkpt lat="43.281030624148364" lon="-2.9796046830269067"><ele>29.0</ele><time>2026-04-30T13:07:33.002Z</time></trkpt><trkpt lat="43.281112023737755" lon="-2.979634519566407"><ele>28.999999999999996</ele><time>2026-04-30T13:07:34.002Z</time></trkpt><trkpt lat="43.28120771670939" lon="-2.9796649693232085"><ele>29.0</ele><time>2026-04-30T13:07:35.002Z</time></trkpt><trkpt lat="43.28128176378765" lon="-2.9796853341186105"><ele>29.25</ele><time>2026-04-30T13:07:36.002Z</time></trkpt><trkpt lat="43.28147800647399" lon="-2.979730696577343"><ele>29.5</ele><time>2026-04-30T13:07:38.002Z</time></trkpt><trkpt lat="43.281569212879354" lon="-2.979751643832962"><ele>29.75</ele><time>2026-04-30T13:07:39.002Z</time></trkpt><trkpt lat="43.281664679868165" lon="-2.979767518562308"><ele>30.0</ele><time>2026-04-30T13:07:40.002Z</time></trkpt><trkpt lat="43.28176014000086" lon="-2.9797850440805407"><ele>30.0</ele><time>2026-04-30T13:07:41.002Z</time></trkpt><trkpt lat="43.281853373337675" lon="-2.9797961555532724"><ele>30.0</ele><time>2026-04-30T13:07:42.002Z</time></trkpt><trkpt lat="43.28194492981812" lon="-2.979811102460996"><ele>30.0</ele><time>2026-04-30T13:07:43.002Z</time></trkpt><trkpt lat="43.28203413468987" lon="-2.979827678480597"><ele>30.0</ele><time>2026-04-30T13:07:44.002Z</time></trkpt><trkpt lat="43.28211841912585" lon="-2.979841261669406"><ele>30.0</ele><time>2026-04-30T13:07:45.002Z</time></trkpt><trkpt lat="43.28219248678067" lon="-2.979854732284799"><ele>30.0</ele><time>2026-04-30T13:07:46.002Z</time></trkpt><trkpt lat="43.28226645782429" lon="-2.9798648680139554"><ele>30.333333333333332</ele><time>2026-04-30T13:07:47.002Z</time></trkpt><trkpt lat="43.282339952363955" lon="-2.9798758325919934"><ele>30.666666666666664</ele><time>2026-04-30T13:07:48.002Z</time></trkpt><trkpt lat="43.2824112157071" lon="-2.979896333552954"><ele>31.0</ele><time>2026-04-30T13:07:49.002Z</time></trkpt><trkpt lat="43.28248101911387" lon="-2.9799161656523663"><ele>31.333333333333332</ele><time>2026-04-30T13:07:50.003Z</time></trkpt><trkpt lat="43.282549629500146" lon="-2.979931705118695"><ele>31.666666666666664</ele><time>2026-04-30T13:07:51.003Z</time></trkpt><trkpt lat="43.282660180322786" lon="-2.9799570314694437"><ele>32.0</ele><time>2026-04-30T13:07:53.003Z</time></trkpt><trkpt lat="43.28275642861006" lon="-2.979976373626596"><ele>31.999999999999996</ele><time>2026-04-30T13:07:55.003Z</time></trkpt><trkpt lat="43.282833452579474" lon="-2.979988185191922"><ele>32.0</ele><time>2026-04-30T13:07:57.003Z</time></trkpt><trkpt lat="43.28289676050639" lon="-2.979918051681514"><ele>32.0</ele><time>2026-04-30T13:07:59Z</time></trkpt><trkpt lat="43.28296651288327" lon="-2.9800298207457088"><ele>32.0</ele><time>2026-04-30T13:08:01Z</time></trkpt><trkpt lat="43.28302130741832" lon="-2.980078748000071"><ele>31.999999999999996</ele><time>2026-04-30T13:08:03Z</time></trkpt><trkpt lat="43.28308564695704" lon="-2.9800892265742305"><ele>32.0</ele><time>2026-04-30T13:08:38.001Z</time></trkpt><trkpt lat="43.28316518354429" lon="-2.9801185558207086"><ele>33.2</ele><time>2026-04-30T13:08:40.001Z</time></trkpt><trkpt lat="43.2832664744872" lon="-2.980166798909718"><ele>34.400000000000006</ele><time>2026-04-30T13:08:42.001Z</time></trkpt><trkpt lat="43.283379004951065" lon="-2.980233981286508"><ele>35.599999999999994</ele><time>2026-04-30T13:08:44.001Z</time></trkpt><trkpt lat="43.28344412413437" lon="-2.98027317653245"><ele>36.8</ele><time>2026-04-30T13:08:45.001Z</time></trkpt><trkpt lat="43.28351046763203" lon="-2.980317543476095"><ele>38.0</ele><time>2026-04-30T13:08:46.001Z</time></trkpt><trkpt lat="43.2835801522117" lon="-2.980369390734335"><ele>38.0</ele><time>2026-04-30T13:08:47.001Z</time></trkpt><trkpt lat="43.28365277746067" lon="-2.9804150933439226"><ele>38.0</ele><time>2026-04-30T13:08:48.001Z</time></trkpt><trkpt lat="43.283730665385306" lon="-2.9804596905996013"><ele>38.0</ele><time>2026-04-30T13:08:49.001Z</time></trkpt><trkpt lat="43.283807813441726" lon="-2.980513417647947"><ele>38.0</ele><time>2026-04-30T13:08:50.001Z</time></trkpt><trkpt lat="43.28388589910736" lon="-2.9805625523945545"><ele>38.0</ele><time>2026-04-30T13:08:51.001Z</time></trkpt><trkpt lat="43.28396402827031" lon="-2.980627288253493"><ele>38.0</ele><time>2026-04-30T13:08:52.001Z</time></trkpt><trkpt lat="43.28405123808134" lon="-2.980675582956996"><ele>38.599999999999994</ele><time>2026-04-30T13:08:53.001Z</time></trkpt><trkpt lat="43.28414508663508" lon="-2.9807225004368694"><ele>39.199999999999996</ele><time>2026-04-30T13:08:54.001Z</time></trkpt><trkpt lat="43.284228650482504" lon="-2.9807726167984874"><ele>39.8</ele><time>2026-04-30T13:08:55.001Z</time></trkpt><trkpt lat="43.28431847606466" lon="-2.980822763927816"><ele>40.4</ele><time>2026-04-30T13:08:56.001Z</time></trkpt><trkpt lat="43.284427770167476" lon="-2.980869728185297"><ele>41.0</ele><time>2026-04-30T13:08:57.001Z</time></trkpt><trkpt lat="43.28452369983505" lon="-2.9810156665527785"><ele>41.4</ele><time>2026-04-30T13:08:58.001Z</time></trkpt><trkpt lat="43.28462585810788" lon="-2.9811131941924343"><ele>41.8</ele><time>2026-04-30T13:08:59.001Z</time></trkpt><trkpt lat="43.28472645654807" lon="-2.9811969713229005"><ele>42.199999999999996</ele><time>2026-04-30T13:09:00.001Z</time></trkpt><trkpt lat="43.28480741362568" lon="-2.9812721516029725"><ele>42.599999999999994</ele><time>2026-04-30T13:09:01.001Z</time></trkpt><trkpt lat="43.28489251040258" lon="-2.9813264465596996"><ele>43.0</ele><time>2026-04-30T13:09:02.001Z</time></trkpt><trkpt lat="43.28484324250731" lon="-2.981201356242036"><ele>43.0</ele><time>2026-04-30T13:09:03.001Z</time></trkpt><trkpt lat="43.285116114117685" lon="-2.9814385385675077"><ele>43.0</ele><time>2026-04-30T13:09:06.001Z</time></trkpt><trkpt lat="43.28520069146447" lon="-2.981592112008269"><ele>43.2</ele><time>2026-04-30T13:09:07.001Z</time></trkpt><trkpt lat="43.28526152698529" lon="-2.9817051916203514"><ele>43.4</ele><time>2026-04-30T13:09:08.001Z</time></trkpt><trkpt lat="43.28534185230236" lon="-2.9817898435842674"><ele>43.6</ele><time>2026-04-30T13:09:09.001Z</time></trkpt><trkpt lat="43.28542246070363" lon="-2.9818622955544196"><ele>43.800000000000004</ele><time>2026-04-30T13:09:10.001Z</time></trkpt><trkpt lat="43.28549774773307" lon="-2.981999354744931"><ele>44.0</ele><time>2026-04-30T13:09:11.001Z</time></trkpt><trkpt lat="43.28556164063989" lon="-2.9820980793098295"><ele>43.2</ele><time>2026-04-30T13:09:12.001Z</time></trkpt><trkpt lat="43.285622500707596" lon="-2.982209875984608"><ele>42.400000000000006</ele><time>2026-04-30T13:09:13.002Z</time></trkpt><trkpt lat="43.285676083356435" lon="-2.982324763560925"><ele>41.6</ele><time>2026-04-30T13:09:14.002Z</time></trkpt><trkpt lat="43.28572749332196" lon="-2.9824439104686284"><ele>40.8</ele><time>2026-04-30T13:09:15.002Z</time></trkpt><trkpt lat="43.28578195482152" lon="-2.9825607426498255"><ele>40.0</ele><time>2026-04-30T13:09:16.002Z</time></trkpt><trkpt lat="43.28583232432353" lon="-2.982683321636824"><ele>39.0</ele><time>2026-04-30T13:09:17.002Z</time></trkpt><trkpt lat="43.28587726148107" lon="-2.982805269464881"><ele>38.0</ele><time>2026-04-30T13:09:18.002Z</time></trkpt><trkpt lat="43.28591714270493" lon="-2.9829209604679336"><ele>37.0</ele><time>2026-04-30T13:09:19.002Z</time></trkpt><trkpt lat="43.285957312737395" lon="-2.983046130380389"><ele>36.0</ele><time>2026-04-30T13:09:20.002Z</time></trkpt><trkpt lat="43.285988612431716" lon="-2.9831817738743234"><ele>35.0</ele><time>2026-04-30T13:09:21.002Z</time></trkpt><trkpt lat="43.286025171934035" lon="-2.9833585791255604"><ele>35.0</ele><time>2026-04-30T13:09:22.002Z</time></trkpt><trkpt lat="43.28604380613764" lon="-2.983486651630959"><ele>35.0</ele><time>2026-04-30T13:09:23.002Z</time></trkpt><trkpt lat="43.286057603043055" lon="-2.983619457484304"><ele>35.0</ele><time>2026-04-30T13:09:24.002Z</time></trkpt><trkpt lat="43.28606896061848" lon="-2.98374861581307"><ele>35.0</ele><time>2026-04-30T13:09:25.002Z</time></trkpt><trkpt lat="43.28607394792786" lon="-2.9838852749956306"><ele>35.0</ele><time>2026-04-30T13:09:26.002Z</time></trkpt><trkpt lat="43.28607643699931" lon="-2.9840194069701336"><ele>35.0</ele><time>2026-04-30T13:09:27.002Z</time></trkpt><trkpt lat="43.28607497833484" lon="-2.9841607278615894"><ele>35.0</ele><time>2026-04-30T13:09:28.002Z</time></trkpt><trkpt lat="43.28607210455882" lon="-2.9843020850276494"><ele>35.0</ele><time>2026-04-30T13:09:29.002Z</time></trkpt><trkpt lat="43.28606411676018" lon="-2.984445916201587"><ele>35.0</ele><time>2026-04-30T13:09:30.002Z</time></trkpt><trkpt lat="43.2860500742329" lon="-2.9845866293824943"><ele>35.0</ele><time>2026-04-30T13:09:31.002Z</time></trkpt><trkpt lat="43.28602904755773" lon="-2.9847214630603767"><ele>34.2</ele><time>2026-04-30T13:09:32.002Z</time></trkpt><trkpt lat="43.28600826099557" lon="-2.9848570871490088"><ele>33.4</ele><time>2026-04-30T13:09:33.002Z</time></trkpt><trkpt lat="43.28598712805175" lon="-2.9849932010354356"><ele>32.6</ele><time>2026-04-30T13:09:34.002Z</time></trkpt><trkpt lat="43.28596637946151" lon="-2.985129778853039"><ele>31.8</ele><time>2026-04-30T13:09:35.002Z</time></trkpt><trkpt lat="43.28593019141323" lon="-2.9852557663561767"><ele>31.0</ele><time>2026-04-30T13:09:36.002Z</time></trkpt><trkpt lat="43.28589524961795" lon="-2.9853781562545674"><ele>30.200000000000003</ele><time>2026-04-30T13:09:37.002Z</time></trkpt><trkpt lat="43.285861051831205" lon="-2.98550798872825"><ele>29.400000000000002</ele><time>2026-04-30T13:09:38.002Z</time></trkpt><trkpt lat="43.285825412444865" lon="-2.9856240323694228"><ele>28.6</ele><time>2026-04-30T13:09:39.002Z</time></trkpt><trkpt lat="43.28578658646735" lon="-2.98574346285385"><ele>27.8</ele><time>2026-04-30T13:09:40.002Z</time></trkpt><trkpt lat="43.28574455516702" lon="-2.9858652919508333"><ele>27.0</ele><time>2026-04-30T13:09:41.002Z</time></trkpt><trkpt lat="43.28570182727809" lon="-2.9859846414058104"><ele>27.200000000000003</ele><time>2026-04-30T13:09:42.002Z</time></trkpt><trkpt lat="43.28566262004939" lon="-2.9861016852493827"><ele>27.400000000000002</ele><time>2026-04-30T13:09:43.002Z</time></trkpt><trkpt lat="43.28561899885125" lon="-2.9862209889727973"><ele>27.599999999999998</ele><time>2026-04-30T13:09:44.002Z</time></trkpt><trkpt lat="43.285572171280464" lon="-2.9863377831450117"><ele>27.799999999999997</ele><time>2026-04-30T13:09:45.002Z</time></trkpt><trkpt lat="43.285522804387526" lon="-2.9864519230409563"><ele>28.0</ele><time>2026-04-30T13:09:46.002Z</time></trkpt><trkpt lat="43.285475445106286" lon="-2.986566110117104"><ele>27.599999999999998</ele><time>2026-04-30T13:09:47.002Z</time></trkpt><trkpt lat="43.28542917910785" lon="-2.986680704431639"><ele>27.199999999999996</ele><time>2026-04-30T13:09:48.002Z</time></trkpt><trkpt lat="43.28538550005366" lon="-2.986792896602813"><ele>26.8</ele><time>2026-04-30T13:09:49.002Z</time></trkpt><trkpt lat="43.28533914112934" lon="-2.9869088408962976"><ele>26.4</ele><time>2026-04-30T13:09:50.002Z</time></trkpt><trkpt lat="43.28529377987842" lon="-2.987027503225338"><ele>26.0</ele><time>2026-04-30T13:09:51.003Z</time></trkpt><trkpt lat="43.285248423763626" lon="-2.987144924846124"><ele>26.0</ele><time>2026-04-30T13:09:52.003Z</time></trkpt><trkpt lat="43.28520151970269" lon="-2.987260689488965"><ele>26.0</ele><time>2026-04-30T13:09:53.003Z</time></trkpt><trkpt lat="43.28515319125469" lon="-2.987377692706345"><ele>26.0</ele><time>2026-04-30T13:09:54.003Z</time></trkpt><trkpt lat="43.28510674434897" lon="-2.9874960723065116"><ele>26.0</ele><time>2026-04-30T13:09:55.003Z</time></trkpt><trkpt lat="43.2850635257021" lon="-2.9876170757258076"><ele>26.0</ele><time>2026-04-30T13:09:56.003Z</time></trkpt><trkpt lat="43.2850133345464" lon="-2.9877413603484495"><ele>24.666666666666664</ele><time>2026-04-30T13:09:57.003Z</time></trkpt><trkpt lat="43.28496629659214" lon="-2.987862061932826"><ele>23.333333333333332</ele><time>2026-04-30T13:09:58.003Z</time></trkpt><trkpt lat="43.28492098005394" lon="-2.987978511041426"><ele>22.0</ele><time>2026-04-30T13:09:59.003Z</time></trkpt><trkpt lat="43.284874812777254" lon="-2.9880829647272193"><ele>20.666666666666664</ele><time>2026-04-30T13:10:00.003Z</time></trkpt><trkpt lat="43.28483908899093" lon="-2.988183743268513"><ele>19.333333333333332</ele><time>2026-04-30T13:10:01.003Z</time></trkpt><trkpt lat="43.28480310334721" lon="-2.9882810311089485"><ele>18.0</ele><time>2026-04-30T13:10:02.003Z</time></trkpt><trkpt lat="43.28476727014747" lon="-2.988370550125879"><ele>18.714285714285715</ele><time>2026-04-30T13:10:03.003Z</time></trkpt><trkpt lat="43.284733232612936" lon="-2.9884565787136297"><ele>19.42857142857143</ele><time>2026-04-30T13:10:04.003Z</time></trkpt><trkpt lat="43.284706427031686" lon="-2.9885395511871016"><ele>20.142857142857146</ele><time>2026-04-30T13:10:05Z</time></trkpt><trkpt lat="43.28469015601513" lon="-2.988625796856139"><ele>20.857142857142858</ele><time>2026-04-30T13:10:06Z</time></trkpt><trkpt lat="43.284678992844974" lon="-2.9887198370048047"><ele>21.57142857142857</ele><time>2026-04-30T13:10:07Z</time></trkpt><trkpt lat="43.28465278868748" lon="-2.9888107970540876"><ele>22.28571428571429</ele><time>2026-04-30T13:10:08Z</time></trkpt><trkpt lat="43.28459915421171" lon="-2.988879283061417"><ele>23.0</ele><time>2026-04-30T13:10:09Z</time></trkpt><trkpt lat="43.28453743029414" lon="-2.9889447242409815"><ele>23.0</ele><time>2026-04-30T13:10:10Z</time></trkpt><trkpt lat="43.28449475343522" lon="-2.9890337117397587"><ele>23.0</ele><time>2026-04-30T13:10:11Z</time></trkpt><trkpt lat="43.284457916343094" lon="-2.9891401456250755"><ele>23.0</ele><time>2026-04-30T13:10:12Z</time></trkpt><trkpt lat="43.28442095627946" lon="-2.9892427792810725"><ele>23.0</ele><time>2026-04-30T13:10:13Z</time></trkpt><trkpt lat="43.284383162664895" lon="-2.989349218579677"><ele>23.0</ele><time>2026-04-30T13:10:14Z</time></trkpt><trkpt lat="43.28433965505248" lon="-2.98946327679909"><ele>23.0</ele><time>2026-04-30T13:10:15Z</time></trkpt><trkpt lat="43.284294939128074" lon="-2.989566014340779"><ele>22.333333333333336</ele><time>2026-04-30T13:10:16Z</time></trkpt><trkpt lat="43.28425233047654" lon="-2.989669853556393"><ele>21.666666666666668</ele><time>2026-04-30T13:10:17Z</time></trkpt><trkpt lat="43.284211375290944" lon="-2.9897731872683146"><ele>21.0</ele><time>2026-04-30T13:10:18Z</time></trkpt><trkpt lat="43.28417155785498" lon="-2.989875200111882"><ele>20.333333333333332</ele><time>2026-04-30T13:10:19Z</time></trkpt><trkpt lat="43.28413110222046" lon="-2.9899777207104195"><ele>19.666666666666664</ele><time>2026-04-30T13:10:20Z</time></trkpt><trkpt lat="43.28409387202318" lon="-2.990076517577209"><ele>19.0</ele><time>2026-04-30T13:10:21Z</time></trkpt><trkpt lat="43.28405651860065" lon="-2.9901687170293836"><ele>19.166666666666664</ele><time>2026-04-30T13:10:22Z</time></trkpt><trkpt lat="43.28401837225571" lon="-2.9902642286362724"><ele>19.333333333333332</ele><time>2026-04-30T13:10:23Z</time></trkpt><trkpt lat="43.2839792725089" lon="-2.9903629640191887"><ele>19.5</ele><time>2026-04-30T13:10:24.001Z</time></trkpt><trkpt lat="43.28393820172453" lon="-2.990464050304336"><ele>19.666666666666668</ele><time>2026-04-30T13:10:25Z</time></trkpt><trkpt lat="43.28390019487836" lon="-2.9905655405754565"><ele>19.833333333333336</ele><time>2026-04-30T13:10:26Z</time></trkpt><trkpt lat="43.283859874187854" lon="-2.9906618805688843"><ele>20.0</ele><time>2026-04-30T13:10:27Z</time></trkpt><trkpt lat="43.28382570723184" lon="-2.9907569931709346"><ele>19.166666666666668</ele><time>2026-04-30T13:10:28Z</time></trkpt><trkpt lat="43.28379202945829" lon="-2.990846903360828"><ele>18.333333333333336</ele><time>2026-04-30T13:10:29Z</time></trkpt><trkpt lat="43.283758112787524" lon="-2.990935798600398"><ele>17.5</ele><time>2026-04-30T13:10:30Z</time></trkpt><trkpt lat="43.283721036165986" lon="-2.99102371770667"><ele>16.666666666666668</ele><time>2026-04-30T13:10:31Z</time></trkpt><trkpt lat="43.283685547355375" lon="-2.9911167381433805"><ele>15.833333333333334</ele><time>2026-04-30T13:10:32.001Z</time></trkpt><trkpt lat="43.28365145826749" lon="-2.991211999446407"><ele>15.0</ele><time>2026-04-30T13:10:33.001Z</time></trkpt><trkpt lat="43.28361614287227" lon="-2.9913119423700802"><ele>15.0</ele><time>2026-04-30T13:10:34.001Z</time></trkpt><trkpt lat="43.283578334685686" lon="-2.991413454497074"><ele>15.0</ele><time>2026-04-30T13:10:35.001Z</time></trkpt><trkpt lat="43.2835388315439" lon="-2.9915173064281957"><ele>15.0</ele><time>2026-04-30T13:10:36.001Z</time></trkpt><trkpt lat="43.28349779843884" lon="-2.991620127929235"><ele>15.0</ele><time>2026-04-30T13:10:37.001Z</time></trkpt><trkpt lat="43.283457751134584" lon="-2.9917222818911147"><ele>15.0</ele><time>2026-04-30T13:10:38.001Z</time></trkpt><trkpt lat="43.28341796778307" lon="-2.9918302590126395"><ele>15.0</ele><time>2026-04-30T13:10:39.001Z</time></trkpt><trkpt lat="43.28337758804164" lon="-2.9919378136322314"><ele>14.166666666666666</ele><time>2026-04-30T13:10:40.001Z</time></trkpt><trkpt lat="43.28333743803248" lon="-2.9920468627552426"><ele>13.333333333333334</ele><time>2026-04-30T13:10:41.001Z</time></trkpt><trkpt lat="43.283300419812925" lon="-2.9921485796208764"><ele>12.5</ele><time>2026-04-30T13:10:42.001Z</time></trkpt><trkpt lat="43.28326178971129" lon="-2.992246743843936"><ele>11.666666666666668</ele><time>2026-04-30T13:10:43.001Z</time></trkpt><trkpt lat="43.28322124936543" lon="-2.9923443661564866"><ele>10.833333333333334</ele><time>2026-04-30T13:10:44.001Z</time></trkpt><trkpt lat="43.2831824379449" lon="-2.9924441332214946"><ele>10.0</ele><time>2026-04-30T13:10:45.001Z</time></trkpt><trkpt lat="43.28314461561401" lon="-2.9925434534072197"><ele>10.166666666666668</ele><time>2026-04-30T13:10:46.001Z</time></trkpt><trkpt lat="43.283105923060354" lon="-2.9926418046569903"><ele>10.333333333333334</ele><time>2026-04-30T13:10:47.001Z</time></trkpt><trkpt lat="43.28306931976471" lon="-2.9927346832923476"><ele>10.5</ele><time>2026-04-30T13:10:48.001Z</time></trkpt><trkpt lat="43.28303251664522" lon="-2.9928245252211005"><ele>10.666666666666666</ele><time>2026-04-30T13:10:49.001Z</time></trkpt><trkpt lat="43.282995972299275" lon="-2.9929113877008175"><ele>10.833333333333332</ele><time>2026-04-30T13:10:50.001Z</time></trkpt><trkpt lat="43.282937557573895" lon="-2.9930549630287984"><ele>11.0</ele><time>2026-04-30T13:10:52.001Z</time></trkpt><trkpt lat="43.282887102724" lon="-2.99319923323989"><ele>10.333333333333332</ele><time>2026-04-30T13:10:54.001Z</time></trkpt><trkpt lat="43.282854275039206" lon="-2.99333906885173"><ele>9.666666666666666</ele><time>2026-04-30T13:10:56.001Z</time></trkpt><trkpt lat="43.28285138212028" lon="-2.9934296653849444"><ele>9.0</ele><time>2026-04-30T13:10:58.001Z</time></trkpt><trkpt lat="43.28283978928305" lon="-2.993529332772355"><ele>8.333333333333334</ele><time>2026-04-30T13:11:02.001Z</time></trkpt><trkpt lat="43.28285069754799" lon="-2.9936482819106067"><ele>7.666666666666667</ele><time>2026-04-30T13:11:05.001Z</time></trkpt><trkpt lat="43.282859516270456" lon="-2.9937867464882673"><ele>7.0</ele><time>2026-04-30T13:11:07.001Z</time></trkpt><trkpt lat="43.28284161348935" lon="-2.9939108018596308"><ele>7.0</ele><time>2026-04-30T13:11:09.001Z</time></trkpt><trkpt lat="43.282878722028244" lon="-2.9939921529793683"><ele>6.999999999999999</ele><time>2026-04-30T13:11:10.001Z</time></trkpt><trkpt lat="43.28290329862999" lon="-2.994128796037071"><ele>6.999999999999999</ele><time>2026-04-30T13:11:12.001Z</time></trkpt><trkpt lat="43.28295467462287" lon="-2.9942537890973324"><ele>7.0</ele><time>2026-04-30T13:11:14.002Z</time></trkpt><trkpt lat="43.28300029838288" lon="-2.9944180166954038"><ele>7.0</ele><time>2026-04-30T13:11:16.002Z</time></trkpt><trkpt lat="43.28301955435514" lon="-2.994507700477392"><ele>7.0</ele><time>2026-04-30T13:11:17.002Z</time></trkpt><trkpt lat="43.28303904355083" lon="-2.9945997412010175"><ele>6.999999999999999</ele><time>2026-04-30T13:11:18.002Z</time></trkpt><trkpt lat="43.28305781463679" lon="-2.994689384838762"><ele>6.999999999999999</ele><time>2026-04-30T13:11:19.002Z</time></trkpt><trkpt lat="43.28309160685448" lon="-2.994850763730897"><ele>7.0</ele><time>2026-04-30T13:11:21.002Z</time></trkpt><trkpt lat="43.283125364304155" lon="-2.9949805396350926"><ele>7.0</ele><time>2026-04-30T13:11:23.002Z</time></trkpt><trkpt lat="43.283166727621015" lon="-2.9950988648087753"><ele>7.0</ele><time>2026-04-30T13:11:25.002Z</time></trkpt><trkpt lat="43.28321385289231" lon="-2.9951972992978706"><ele>6.999999999999999</ele><time>2026-04-30T13:11:27.002Z</time></trkpt><trkpt lat="43.28327113983606" lon="-2.995290223417832"><ele>6.999999999999999</ele><time>2026-04-30T13:11:29.002Z</time></trkpt><trkpt lat="43.283297155802" lon="-2.995456817929334"><ele>7.0</ele><time>2026-04-30T13:11:31.002Z</time></trkpt><trkpt lat="43.28328987058052" lon="-2.995586437492899"><ele>7.0</ele><time>2026-04-30T13:11:33.002Z</time></trkpt><trkpt lat="43.283285620043955" lon="-2.9956902004169703"><ele>7.0</ele><time>2026-04-30T13:11:35.002Z</time></trkpt><trkpt lat="43.28328184303846" lon="-2.995807868221781"><ele>6.999999999999999</ele><time>2026-04-30T13:11:37.002Z</time></trkpt><trkpt lat="43.28328842048834" lon="-2.9959323162122478"><ele>6.999999999999999</ele><time>2026-04-30T13:11:39.002Z</time></trkpt><trkpt lat="43.28331033313639" lon="-2.9960749709110543"><ele>7.0</ele><time>2026-04-30T13:11:41.002Z</time></trkpt><trkpt lat="43.28333675769336" lon="-2.9962137794453128"><ele>7.0</ele><time>2026-04-30T13:11:43.002Z</time></trkpt><trkpt lat="43.283362253623906" lon="-2.9963622761335027"><ele>6.833333333333334</ele><time>2026-04-30T13:11:45.002Z</time></trkpt><trkpt lat="43.28339157577137" lon="-2.996529905098007"><ele>6.666666666666667</ele><time>2026-04-30T13:11:47.002Z</time></trkpt><trkpt lat="43.28340849808864" lon="-2.996624084538887"><ele>6.5</ele><time>2026-04-30T13:11:48.002Z</time></trkpt><trkpt lat="43.28342614296678" lon="-2.996721610529032"><ele>6.333333333333334</ele><time>2026-04-30T13:11:49.002Z</time></trkpt><trkpt lat="43.283444077446596" lon="-2.996822053371446"><ele>6.166666666666667</ele><time>2026-04-30T13:11:50.002Z</time></trkpt><trkpt lat="43.28346284735215" lon="-2.9969258008440796"><ele>6.0</ele><time>2026-04-30T13:11:51.002Z</time></trkpt><trkpt lat="43.28348175753712" lon="-2.997028544330414"><ele>5.857142857142857</ele><time>2026-04-30T13:11:52.002Z</time></trkpt><trkpt lat="43.28349985279131" lon="-2.9971268600800407"><ele>5.714285714285714</ele><time>2026-04-30T13:11:53.003Z</time></trkpt><trkpt lat="43.28351820272696" lon="-2.9972265595668985"><ele>5.571428571428571</ele><time>2026-04-30T13:11:54.003Z</time></trkpt><trkpt lat="43.28353684496596" lon="-2.9973210894591444"><ele>5.428571428571429</ele><time>2026-04-30T13:11:55.003Z</time></trkpt><trkpt lat="43.28355832385489" lon="-2.997411121561951"><ele>5.285714285714286</ele><time>2026-04-30T13:11:56.003Z</time></trkpt><trkpt lat="43.28358324149757" lon="-2.997503025158822"><ele>5.142857142857142</ele><time>2026-04-30T13:11:57.003Z</time></trkpt><trkpt lat="43.28361305267115" lon="-2.9975918066982206"><ele>5.0</ele><time>2026-04-30T13:11:58.003Z</time></trkpt><trkpt lat="43.28364733694958" lon="-2.9976773250020896"><ele>5.0</ele><time>2026-04-30T13:11:59.003Z</time></trkpt><trkpt lat="43.28368331960401" lon="-2.997764532293257"><ele>5.0</ele><time>2026-04-30T13:12:00.003Z</time></trkpt><trkpt lat="43.283721194140256" lon="-2.9978496396004393"><ele>5.0</ele><time>2026-04-30T13:12:01.003Z</time></trkpt><trkpt lat="43.28376126104116" lon="-2.9979390333794647"><ele>5.0</ele><time>2026-04-30T13:12:02.003Z</time></trkpt><trkpt lat="43.28380398083452" lon="-2.998034303663205"><ele>5.0</ele><time>2026-04-30T13:12:03.003Z</time></trkpt><trkpt lat="43.283846480500735" lon="-2.998129082909264"><ele>5.0</ele><time>2026-04-30T13:12:04.003Z</time></trkpt><trkpt lat="43.28388798164952" lon="-2.9982220725882636"><ele>5.0</ele><time>2026-04-30T13:12:05.003Z</time></trkpt><trkpt lat="43.28392958946487" lon="-2.9983159209593384"><ele>5.0</ele><time>2026-04-30T13:12:06.003Z</time></trkpt><trkpt lat="43.283972265289485" lon="-2.9984119415610913"><ele>5.0</ele><time>2026-04-30T13:12:07.003Z</time></trkpt><trkpt lat="43.28401468926817" lon="-2.99850715676379"><ele>5.0</ele><time>2026-04-30T13:12:08.003Z</time></trkpt><trkpt lat="43.28405998758251" lon="-2.998608636030455"><ele>5.0</ele><time>2026-04-30T13:12:09.003Z</time></trkpt><trkpt lat="43.28410492634418" lon="-2.998709826296316"><ele>5.0</ele><time>2026-04-30T13:12:10.003Z</time></trkpt><trkpt lat="43.28414935766152" lon="-2.998810064974462"><ele>4.6</ele><time>2026-04-30T13:12:11Z</time></trkpt><trkpt lat="43.2841944360109" lon="-2.9989117633791285"><ele>4.2</ele><time>2026-04-30T13:12:12Z</time></trkpt><trkpt lat="43.28424092687657" lon="-2.9990166484653478"><ele>3.8</ele><time>2026-04-30T13:12:13Z</time></trkpt><trkpt lat="43.28428944568775" lon="-2.999126108691574"><ele>3.4</ele><time>2026-04-30T13:12:14Z</time></trkpt><trkpt lat="43.284338056527815" lon="-2.999235776330284"><ele>3.0</ele><time>2026-04-30T13:12:15Z</time></trkpt><trkpt lat="43.2843806683844" lon="-2.9993528512639833"><ele>3.0</ele><time>2026-04-30T13:12:16Z</time></trkpt><trkpt lat="43.284428880839066" lon="-2.999465062823471"><ele>3.0</ele><time>2026-04-30T13:12:17Z</time></trkpt><trkpt lat="43.28447846772722" lon="-2.9995764945435726"><ele>3.0</ele><time>2026-04-30T13:12:18Z</time></trkpt><trkpt lat="43.28452886910342" lon="-2.9996870087554437"><ele>3.0</ele><time>2026-04-30T13:12:19Z</time></trkpt><trkpt lat="43.28458088693441" lon="-2.9997977724539386"><ele>3.0</ele><time>2026-04-30T13:12:20Z</time></trkpt><trkpt lat="43.28462790452443" lon="-2.999911181841539"><ele>3.0</ele><time>2026-04-30T13:12:21Z</time></trkpt><trkpt lat="43.284675707577556" lon="-3.000025173257758"><ele>3.0</ele><time>2026-04-30T13:12:22Z</time></trkpt><trkpt lat="43.28472647002951" lon="-3.0001390082177037"><ele>3.0</ele><time>2026-04-30T13:12:23Z</time></trkpt><trkpt lat="43.284775433621746" lon="-3.0002495442104156"><ele>3.0</ele><time>2026-04-30T13:12:24Z</time></trkpt><trkpt lat="43.28482467769624" lon="-3.000362517465364"><ele>3.0</ele><time>2026-04-30T13:12:25Z</time></trkpt><trkpt lat="43.28487420661924" lon="-3.0004711945771647"><ele>3.0</ele><time>2026-04-30T13:12:26Z</time></trkpt><trkpt lat="43.284924124786556" lon="-3.0005826421586472"><ele>3.0</ele><time>2026-04-30T13:12:27Z</time></trkpt><trkpt lat="43.28497438583767" lon="-3.000692297432312"><ele>3.0</ele><time>2026-04-30T13:12:28Z</time></trkpt><trkpt lat="43.285020194841906" lon="-3.000803169475874"><ele>3.0</ele><time>2026-04-30T13:12:29Z</time></trkpt><trkpt lat="43.285065262492985" lon="-3.000911922481012"><ele>3.0</ele><time>2026-04-30T13:12:30Z</time></trkpt><trkpt lat="43.28511159102487" lon="-3.00101675945546"><ele>3.0</ele><time>2026-04-30T13:12:31Z</time></trkpt><trkpt lat="43.2851574830579" lon="-3.0011227867208516"><ele>3.0</ele><time>2026-04-30T13:12:32Z</time></trkpt><trkpt lat="43.28520318041067" lon="-3.001227664951305"><ele>3.0</ele><time>2026-04-30T13:12:33Z</time></trkpt><trkpt lat="43.28524777585366" lon="-3.0013286698279167"><ele>3.0</ele><time>2026-04-30T13:12:34.001Z</time></trkpt><trkpt lat="43.285292667147445" lon="-3.00141778068855"><ele>3.0</ele><time>2026-04-30T13:12:35.001Z</time></trkpt><trkpt lat="43.285328076555864" lon="-3.0015027764886413"><ele>3.0</ele><time>2026-04-30T13:12:36.001Z</time></trkpt><trkpt lat="43.2853637438497" lon="-3.0015780020630825"><ele>3.0</ele><time>2026-04-30T13:12:37.001Z</time></trkpt><trkpt lat="43.285423737223915" lon="-3.0017129449339968"><ele>3.0</ele><time>2026-04-30T13:12:39.001Z</time></trkpt><trkpt lat="43.28547910340439" lon="-3.001834089774381"><ele>3.0</ele><time>2026-04-30T13:12:41.001Z</time></trkpt><trkpt lat="43.28552537631048" lon="-3.001934003006837"><ele>3.0</ele><time>2026-04-30T13:12:43.001Z</time></trkpt><trkpt lat="43.28556605505039" lon="-3.0020215383823077"><ele>3.0</ele><time>2026-04-30T13:12:45.001Z</time></trkpt><trkpt lat="43.28560866326755" lon="-3.002107544577835"><ele>3.0</ele><time>2026-04-30T13:12:48.001Z</time></trkpt><trkpt lat="43.285651615356244" lon="-3.0021866770862413"><ele>3.0</ele><time>2026-04-30T13:12:59.001Z</time></trkpt><trkpt lat="43.28570493521649" lon="-3.002305377012679"><ele>3.0</ele><time>2026-04-30T13:13:01.001Z</time></trkpt><trkpt lat="43.28576973643876" lon="-3.002457178935644"><ele>3.0</ele><time>2026-04-30T13:13:03.001Z</time></trkpt><trkpt lat="43.28580608550794" lon="-3.002541916764245"><ele>3.0</ele><time>2026-04-30T13:13:04.001Z</time></trkpt><trkpt lat="43.28584287546928" lon="-3.002629762592145"><ele>3.0</ele><time>2026-04-30T13:13:05.001Z</time></trkpt><trkpt lat="43.28588229076557" lon="-3.0027182059407345"><ele>3.0</ele><time>2026-04-30T13:13:06.001Z</time></trkpt><trkpt lat="43.28592220174088" lon="-3.0028062155226984"><ele>3.0</ele><time>2026-04-30T13:13:07.001Z</time></trkpt><trkpt lat="43.28596169461124" lon="-3.002893550504613"><ele>3.0</ele><time>2026-04-30T13:13:08.001Z</time></trkpt><trkpt lat="43.28599908148163" lon="-3.0029781827306716"><ele>3.0</ele><time>2026-04-30T13:13:09.001Z</time></trkpt><trkpt lat="43.28603566703455" lon="-3.0030582298739055"><ele>3.0</ele><time>2026-04-30T13:13:10.001Z</time></trkpt><trkpt lat="43.286099303278995" lon="-3.003188510293174"><ele>3.0</ele><time>2026-04-30T13:13:12.001Z</time></trkpt><trkpt lat="43.2861496459032" lon="-3.0032941803668836"><ele>3.0</ele><time>2026-04-30T13:13:14.001Z</time></trkpt><trkpt lat="43.2862205670455" lon="-3.0033682703801254"><ele>3.0</ele><time>2026-04-30T13:13:16.001Z</time></trkpt><trkpt lat="43.286319637832015" lon="-3.0034043061771083"><ele>3.0</ele><time>2026-04-30T13:13:18.001Z</time></trkpt><trkpt lat="43.28638233855124" lon="-3.003483609310876"><ele>3.0</ele><time>2026-04-30T13:13:20.002Z</time></trkpt><trkpt lat="43.28646114686095" lon="-3.0033785332706624"><ele>3.0</ele><time>2026-04-30T13:13:21.002Z</time></trkpt><trkpt lat="43.286542280551274" lon="-3.003301895554842"><ele>3.5</ele><time>2026-04-30T13:13:23.002Z</time></trkpt><trkpt lat="43.28660636622864" lon="-3.003246276058152"><ele>4.0</ele><time>2026-04-30T13:13:25.002Z</time></trkpt><trkpt lat="43.28666813007749" lon="-3.0031819460159848"><ele>4.5</ele><time>2026-04-30T13:13:28.002Z</time></trkpt><trkpt lat="43.286692196339715" lon="-3.0030743379834752"><ele>5.0</ele><time>2026-04-30T13:13:31.002Z</time></trkpt><trkpt lat="43.28659315590704" lon="-3.0029467325755297"><ele>5.5</ele><time>2026-04-30T13:13:36.002Z</time></trkpt><trkpt lat="43.28653204003002" lon="-3.002912559520651"><ele>6.0</ele><time>2026-04-30T13:16:54.001Z</time></trkpt><trkpt lat="43.28648509210761" lon="-3.002854488368208"><ele>6.0</ele><time>2026-04-30T13:17:01.001Z</time></trkpt><trkpt lat="43.286436772130614" lon="-3.0027966616009993"><ele>6.0</ele><time>2026-04-30T13:17:16.001Z</time></trkpt><trkpt lat="43.286412485820655" lon="-3.0028837535275525"><ele>6.0</ele><time>2026-04-30T13:17:23.002Z</time></trkpt><trkpt lat="43.28660823620729" lon="-3.003244328378581"><ele>6.0</ele><time>2026-04-30T13:17:31.002Z</time></trkpt><trkpt lat="43.28650867889896" lon="-3.0028189582558302"><ele>6.0</ele><time>2026-04-30T13:19:06.001Z</time></trkpt><trkpt lat="43.286656118052306" lon="-3.0027544144445297"><ele>6.0</ele><time>2026-04-30T13:19:37.001Z</time></trkpt><trkpt lat="43.28664742112403" lon="-3.0024796126487217"><ele>6.0</ele><time>2026-04-30T13:19:41.001Z</time></trkpt><trkpt lat="43.286722153616545" lon="-3.002583477949059"><ele>6.0</ele><time>2026-04-30T13:19:42.001Z</time></trkpt><trkpt lat="43.28669273417641" lon="-3.002705390663842"><ele>6.0</ele><time>2026-04-30T13:19:43.001Z</time></trkpt><trkpt lat="43.28658936800584" lon="-3.002805993871221"><ele>6.0</ele><time>2026-04-30T13:19:47.001Z</time></trkpt><trkpt lat="43.286492809219524" lon="-3.002891187676527"><ele>6.0</ele><time>2026-04-30T13:19:48.001Z</time></trkpt><trkpt lat="43.28654024758939" lon="-3.002813196069139"><ele>6.0</ele><time>2026-04-30T13:19:58.001Z</time></trkpt><trkpt lat="43.28662390824736" lon="-3.0028126202551673"><ele>6.0</ele><time>2026-04-30T13:20:05.002Z</time></trkpt><trkpt lat="43.28667327765703" lon="-3.002730561423117"><ele>6.0</ele><time>2026-04-30T13:20:10.002Z</time></trkpt><trkpt lat="43.28674213499158" lon="-3.0026812758324692"><ele>6.0</ele><time>2026-04-30T13:20:13.002Z</time></trkpt><trkpt lat="43.28678329248212" lon="-3.0025975084942047"><ele>6.0</ele><time>2026-04-30T13:20:15.002Z</time></trkpt><trkpt lat="43.2867500977996" lon="-3.0025143921403235"><ele>6.0</ele><time>2026-04-30T13:20:18.002Z</time></trkpt><trkpt lat="43.28649612613349" lon="-3.0026181601015876"><ele>6.0</ele><time>2026-04-30T13:20:22.002Z</time></trkpt><trkpt lat="43.28640740368843" lon="-3.0025696288822243"><ele>6.0</ele><time>2026-04-30T13:20:26.002Z</time></trkpt><trkpt lat="43.28644549142407" lon="-3.0026513938964543"><ele>6.0</ele><time>2026-04-30T13:21:01Z</time></trkpt><trkpt lat="43.28664083969176" lon="-3.002619920301254"><ele>6.0</ele><time>2026-04-30T13:22:36.002Z</time></trkpt><trkpt lat="43.28670588795181" lon="-3.002616639805074"><ele>6.0</ele><time>2026-04-30T13:22:39.002Z</time></trkpt><trkpt lat="43.286553629909804" lon="-3.002745975228156"><ele>6.0</ele><time>2026-04-30T13:22:46.001Z</time></trkpt><trkpt lat="43.286503363159405" lon="-3.0027982846343"><ele>6.0</ele><time>2026-04-30T13:22:51.001Z</time></trkpt><trkpt lat="43.28644780421863" lon="-3.0028570894581854"><ele>6.0</ele><time>2026-04-30T13:23:16.001Z</time></trkpt><trkpt lat="43.28653959016586" lon="-3.002846047314061"><ele>6.0</ele><time>2026-04-30T13:29:08.999Z</time></trkpt><trkpt lat="43.28661565607478" lon="-3.002816419610851"><ele>6.0</ele><time>2026-04-30T13:52:15.999Z</time></trkpt><trkpt lat="43.286682158779996" lon="-3.0027620884641846"><ele>6.0</ele><time>2026-04-30T13:52:18.999Z</time></trkpt><trkpt lat="43.28676421716709" lon="-3.0028008397133776"><ele>6.0</ele><time>2026-04-30T13:52:23.999Z</time></trkpt><trkpt lat="43.28680204645709" lon="-3.002893800389822"><ele>6.0</ele><time>2026-04-30T13:52:27Z</time></trkpt><trkpt lat="43.28676682248145" lon="-3.0029664529173568"><ele>6.0</ele><time>2026-04-30T13:52:30Z</time></trkpt><trkpt lat="43.286831232134965" lon="-3.0029224649263755"><ele>6.0</ele><time>2026-04-30T13:53:23Z</time></trkpt><trkpt lat="43.2869036941533" lon="-3.0028517146615044"><ele>6.0</ele><time>2026-04-30T13:53:25Z</time></trkpt><trkpt lat="43.28699342806009" lon="-3.0027762662600757"><ele>6.0</ele><time>2026-04-30T13:53:27Z</time></trkpt><trkpt lat="43.287091916175434" lon="-3.0026968717686735"><ele>6.0</ele><time>2026-04-30T13:53:29Z</time></trkpt><trkpt lat="43.2871659412956" lon="-3.0026281010698175"><ele>6.0</ele><time>2026-04-30T13:53:31Z</time></trkpt><trkpt lat="43.28725545222683" lon="-3.0026802207760457"><ele>6.0</ele><time>2026-04-30T13:53:34Z</time></trkpt><trkpt lat="43.28727537265531" lon="-3.002795650780762"><ele>6.0</ele><time>2026-04-30T13:53:36Z</time></trkpt><trkpt lat="43.28722429386056" lon="-3.0029030406834925"><ele>6.0</ele><time>2026-04-30T13:53:38.001Z</time></trkpt><trkpt lat="43.28713948984898" lon="-3.002965795549712"><ele>6.0</ele><time>2026-04-30T13:53:40.001Z</time></trkpt><trkpt lat="43.287063058601824" lon="-3.00305475297203"><ele>6.0</ele><time>2026-04-30T13:53:42.001Z</time></trkpt><trkpt lat="43.28698468093932" lon="-3.003131035789316"><ele>6.0</ele><time>2026-04-30T13:53:44.001Z</time></trkpt><trkpt lat="43.28692983916216" lon="-3.0031806589908254"><ele>6.0</ele><time>2026-04-30T13:53:46.001Z</time></trkpt><trkpt lat="43.28684551039571" lon="-3.003205378666812"><ele>6.0</ele><time>2026-04-30T13:54:02.001Z</time></trkpt><trkpt lat="43.28676929987024" lon="-3.0032457401216717"><ele>6.0</ele><time>2026-04-30T13:54:05.001Z</time></trkpt><trkpt lat="43.28670369602776" lon="-3.003272859679709"><ele>6.0</ele><time>2026-04-30T13:54:09.001Z</time></trkpt><trkpt lat="43.286642478402314" lon="-3.0033130563879737"><ele>5.6</ele><time>2026-04-30T13:54:10.998Z</time></trkpt><trkpt lat="43.28656530184559" lon="-3.0033845480888286"><ele>5.199999999999999</ele><time>2026-04-30T13:54:12.998Z</time></trkpt><trkpt lat="43.28648382634602" lon="-3.0034508101480446"><ele>4.800000000000001</ele><time>2026-04-30T13:54:14.998Z</time></trkpt><trkpt lat="43.286401383253235" lon="-3.003510825268781"><ele>4.4</ele><time>2026-04-30T13:54:16.998Z</time></trkpt><trkpt lat="43.28634388876291" lon="-3.003641744776174"><ele>4.0</ele><time>2026-04-30T13:54:18.998Z</time></trkpt><trkpt lat="43.28637820045589" lon="-3.003816971079467"><ele>3.9999999999999996</ele><time>2026-04-30T13:54:20.998Z</time></trkpt><trkpt lat="43.286413045456904" lon="-3.0038955105766485"><ele>4.0</ele><time>2026-04-30T13:54:21.998Z</time></trkpt><trkpt lat="43.286455616095665" lon="-3.0039758842726587"><ele>4.0</ele><time>2026-04-30T13:54:22.998Z</time></trkpt><trkpt lat="43.28649918604398" lon="-3.004061310702313"><ele>4.0</ele><time>2026-04-30T13:54:23.998Z</time></trkpt><trkpt lat="43.28653936404691" lon="-3.004155338390671"><ele>3.9999999999999996</ele><time>2026-04-30T13:54:24.998Z</time></trkpt><trkpt lat="43.28657624361374" lon="-3.004247950482686"><ele>4.0</ele><time>2026-04-30T13:54:25.999Z</time></trkpt><trkpt lat="43.286614880794026" lon="-3.0043411728923757"><ele>3.4999999999999996</ele><time>2026-04-30T13:54:26.999Z</time></trkpt><trkpt lat="43.28665350686244" lon="-3.004435471498064"><ele>3.0</ele><time>2026-04-30T13:54:27.999Z</time></trkpt><trkpt lat="43.286689901432474" lon="-3.0045315546676035"><ele>2.5</ele><time>2026-04-30T13:54:28.999Z</time></trkpt><trkpt lat="43.28673091734596" lon="-3.0046242619815158"><ele>2.0</ele><time>2026-04-30T13:54:29.999Z</time></trkpt><trkpt lat="43.286775101148905" lon="-3.0047135579957955"><ele>1.5</ele><time>2026-04-30T13:54:30.999Z</time></trkpt><trkpt lat="43.2868175629313" lon="-3.0048031760081018"><ele>1.0</ele><time>2026-04-30T13:54:31.999Z</time></trkpt><trkpt lat="43.28685944531538" lon="-3.0048940755101166"><ele>0.9999999999999999</ele><time>2026-04-30T13:54:32.999Z</time></trkpt><trkpt lat="43.28690473398917" lon="-3.0049862875955227"><ele>1.0</ele><time>2026-04-30T13:54:33.999Z</time></trkpt><trkpt lat="43.28694968736087" lon="-3.005077756107872"><ele>1.0</ele><time>2026-04-30T13:54:34.999Z</time></trkpt><trkpt lat="43.28700191249612" lon="-3.0051629849259203"><ele>1.0</ele><time>2026-04-30T13:54:35.999Z</time></trkpt><trkpt lat="43.28705825519641" lon="-3.005242976756019"><ele>0.9999999999999999</ele><time>2026-04-30T13:54:36.999Z</time></trkpt><trkpt lat="43.28712172937662" lon="-3.0053042907363428"><ele>1.0</ele><time>2026-04-30T13:54:37.999Z</time></trkpt><trkpt lat="43.28720772401123" lon="-3.005369465502128"><ele>1.6666666666666665</ele><time>2026-04-30T13:54:39.999Z</time></trkpt><trkpt lat="43.28727681741099" lon="-3.0054082720287685"><ele>2.3333333333333335</ele><time>2026-04-30T13:54:44.999Z</time></trkpt><trkpt lat="43.28734998953514" lon="-3.005458700629015"><ele>3.0</ele><time>2026-04-30T13:54:46.999Z</time></trkpt><trkpt lat="43.28743639927251" lon="-3.005552377412934"><ele>3.666666666666667</ele><time>2026-04-30T13:54:48.999Z</time></trkpt><trkpt lat="43.28744797307961" lon="-3.0056642544883636"><ele>4.333333333333334</ele><time>2026-04-30T13:54:49.999Z</time></trkpt><trkpt lat="43.287450308664816" lon="-3.005761925950623"><ele>5.0</ele><time>2026-04-30T13:54:51Z</time></trkpt><trkpt lat="43.28742044632358" lon="-3.005838984620491"><ele>5.0</ele><time>2026-04-30T13:54:52Z</time></trkpt><trkpt lat="43.287469327488154" lon="-3.00596982896006"><ele>5.0</ele><time>2026-04-30T13:54:53Z</time></trkpt><trkpt lat="43.28749883985383" lon="-3.0060712647652355"><ele>5.0</ele><time>2026-04-30T13:54:54Z</time></trkpt><trkpt lat="43.28753078763376" lon="-3.006174157168108"><ele>5.0</ele><time>2026-04-30T13:54:55Z</time></trkpt><trkpt lat="43.287567338572146" lon="-3.0062771863648794"><ele>5.0</ele><time>2026-04-30T13:54:56Z</time></trkpt><trkpt lat="43.287604950566525" lon="-3.0063800201187827"><ele>5.0</ele><time>2026-04-30T13:54:57Z</time></trkpt><trkpt lat="43.28764288726749" lon="-3.0064851692317283"><ele>5.0</ele><time>2026-04-30T13:54:58Z</time></trkpt><trkpt lat="43.2876823028964" lon="-3.006587574473895"><ele>5.0</ele><time>2026-04-30T13:54:59Z</time></trkpt><trkpt lat="43.28772531728725" lon="-3.006689160360318"><ele>5.0</ele><time>2026-04-30T13:55:00Z</time></trkpt><trkpt lat="43.287769757114305" lon="-3.006789180663557"><ele>5.0</ele><time>2026-04-30T13:55:01Z</time></trkpt><trkpt lat="43.28781439230137" lon="-3.006889758620223"><ele>5.0</ele><time>2026-04-30T13:55:02Z</time></trkpt><trkpt lat="43.28785900068227" lon="-3.0069914981289494"><ele>5.0</ele><time>2026-04-30T13:55:03Z</time></trkpt><trkpt lat="43.28790479171031" lon="-3.007095588794235"><ele>5.0</ele><time>2026-04-30T13:55:04Z</time></trkpt><trkpt lat="43.28794920538762" lon="-3.007198413371287"><ele>5.0</ele><time>2026-04-30T13:55:05Z</time></trkpt><trkpt lat="43.28799351369018" lon="-3.0073014122634043"><ele>5.0</ele><time>2026-04-30T13:55:06Z</time></trkpt><trkpt lat="43.28803961374834" lon="-3.0074041988728477"><ele>5.0</ele><time>2026-04-30T13:55:07Z</time></trkpt><trkpt lat="43.288084457077" lon="-3.0075052498442703"><ele>5.0</ele><time>2026-04-30T13:55:08Z</time></trkpt><trkpt lat="43.288129406023906" lon="-3.007607300493768"><ele>5.0</ele><time>2026-04-30T13:55:09Z</time></trkpt><trkpt lat="43.28817435072665" lon="-3.0077100416873916"><ele>5.166666666666667</ele><time>2026-04-30T13:55:10Z</time></trkpt><trkpt lat="43.28821768354911" lon="-3.007814593191847"><ele>5.333333333333334</ele><time>2026-04-30T13:55:11Z</time></trkpt><trkpt lat="43.28826261652776" lon="-3.007921659220946"><ele>5.5</ele><time>2026-04-30T13:55:12Z</time></trkpt><trkpt lat="43.28830570056521" lon="-3.008026855801208"><ele>5.666666666666667</ele><time>2026-04-30T13:55:13Z</time></trkpt><trkpt lat="43.288350732562726" lon="-3.008133115672172"><ele>5.833333333333333</ele><time>2026-04-30T13:55:14Z</time></trkpt><trkpt lat="43.28839725129954" lon="-3.008238583512666"><ele>6.0</ele><time>2026-04-30T13:55:15Z</time></trkpt><trkpt lat="43.28844245413032" lon="-3.008345606769953"><ele>5.6</ele><time>2026-04-30T13:55:16Z</time></trkpt><trkpt lat="43.288488462099444" lon="-3.0084542223276936"><ele>5.199999999999999</ele><time>2026-04-30T13:55:17Z</time></trkpt><trkpt lat="43.288535014785346" lon="-3.0085609649858043"><ele>4.800000000000001</ele><time>2026-04-30T13:55:18Z</time></trkpt><trkpt lat="43.288581196198024" lon="-3.008666799764442"><ele>4.4</ele><time>2026-04-30T13:55:19Z</time></trkpt><trkpt lat="43.288629310804104" lon="-3.0087743222377736"><ele>4.0</ele><time>2026-04-30T13:55:20Z</time></trkpt><trkpt lat="43.28867621051632" lon="-3.008881594759365"><ele>4.0</ele><time>2026-04-30T13:55:21Z</time></trkpt><trkpt lat="43.28872383802749" lon="-3.0089885995125942"><ele>4.0</ele><time>2026-04-30T13:55:22Z</time></trkpt><trkpt lat="43.28877253714316" lon="-3.009096646003154"><ele>4.0</ele><time>2026-04-30T13:55:23Z</time></trkpt><trkpt lat="43.28882086064426" lon="-3.0092045092031445"><ele>4.0</ele><time>2026-04-30T13:55:24Z</time></trkpt><trkpt lat="43.288869596217296" lon="-3.0093114984894402"><ele>4.0</ele><time>2026-04-30T13:55:25Z</time></trkpt><trkpt lat="43.28891705016326" lon="-3.009416821629493"><ele>4.4</ele><time>2026-04-30T13:55:26Z</time></trkpt><trkpt lat="43.28896478803026" lon="-3.0095236385971456"><ele>4.800000000000001</ele><time>2026-04-30T13:55:27Z</time></trkpt><trkpt lat="43.28901159872006" lon="-3.0096305533089738"><ele>5.199999999999999</ele><time>2026-04-30T13:55:28Z</time></trkpt><trkpt lat="43.28906054644471" lon="-3.0097376551343644"><ele>5.6</ele><time>2026-04-30T13:55:29Z</time></trkpt><trkpt lat="43.28910772338086" lon="-3.0098430762174573"><ele>6.0</ele><time>2026-04-30T13:55:30Z</time></trkpt><trkpt lat="43.28915504393918" lon="-3.0099501739189436"><ele>5.6</ele><time>2026-04-30T13:55:31Z</time></trkpt><trkpt lat="43.28920397054664" lon="-3.0100592183539514"><ele>5.199999999999999</ele><time>2026-04-30T13:55:32Z</time></trkpt><trkpt lat="43.289251817233975" lon="-3.010169161382503"><ele>4.800000000000001</ele><time>2026-04-30T13:55:33Z</time></trkpt><trkpt lat="43.28930007533341" lon="-3.010276633303286"><ele>4.4</ele><time>2026-04-30T13:55:34Z</time></trkpt><trkpt lat="43.28934727467175" lon="-3.0103842366443962"><ele>4.0</ele><time>2026-04-30T13:55:35Z</time></trkpt><trkpt lat="43.289394402427774" lon="-3.0104925658296158"><ele>3.9999999999999996</ele><time>2026-04-30T13:55:36Z</time></trkpt><trkpt lat="43.289441817683226" lon="-3.0105998284502276"><ele>4.0</ele><time>2026-04-30T13:55:37Z</time></trkpt><trkpt lat="43.28948716293458" lon="-3.0107011006412496"><ele>4.0</ele><time>2026-04-30T13:55:38Z</time></trkpt><trkpt lat="43.28953449229683" lon="-3.0107881849169242"><ele>4.0</ele><time>2026-04-30T13:55:39Z</time></trkpt><trkpt lat="43.28958532370665" lon="-3.0108621299874017"><ele>3.9999999999999996</ele><time>2026-04-30T13:55:40Z</time></trkpt><trkpt lat="43.28962535523278" lon="-3.0109348454545954"><ele>4.0</ele><time>2026-04-30T13:55:42.001Z</time></trkpt><trkpt lat="43.28969231183132" lon="-3.010937718881009"><ele>3.9999999999999996</ele><time>2026-04-30T13:55:46.001Z</time></trkpt><trkpt lat="43.28976214872007" lon="-3.0110073177607743"><ele>4.0</ele><time>2026-04-30T13:55:48.001Z</time></trkpt><trkpt lat="43.28983206598424" lon="-3.0111390474377595"><ele>4.0</ele><time>2026-04-30T13:55:50.001Z</time></trkpt><trkpt lat="43.28984742620119" lon="-3.0112305905260413"><ele>4.0</ele><time>2026-04-30T13:55:51.001Z</time></trkpt><trkpt lat="43.28984890558701" lon="-3.0113265491043744"><ele>3.9999999999999996</ele><time>2026-04-30T13:55:52.001Z</time></trkpt><trkpt lat="43.28984612421069" lon="-3.0114226082766686"><ele>4.0</ele><time>2026-04-30T13:55:53.001Z</time></trkpt><trkpt lat="43.289854036534024" lon="-3.011525192107607"><ele>3.9999999999999996</ele><time>2026-04-30T13:55:54.001Z</time></trkpt><trkpt lat="43.289878415548536" lon="-3.0116276530529213"><ele>4.0</ele><time>2026-04-30T13:55:55.001Z</time></trkpt><trkpt lat="43.28991327905827" lon="-3.011728142366732"><ele>4.0</ele><time>2026-04-30T13:55:56.001Z</time></trkpt><trkpt lat="43.289953570099236" lon="-3.0118308243450063"><ele>4.0</ele><time>2026-04-30T13:55:57.001Z</time></trkpt><trkpt lat="43.28999513678915" lon="-3.011932689401434"><ele>3.9999999999999996</ele><time>2026-04-30T13:55:58.001Z</time></trkpt><trkpt lat="43.2900375458762" lon="-3.0120305357169426"><ele>4.0</ele><time>2026-04-30T13:55:59.001Z</time></trkpt><trkpt lat="43.29008055976404" lon="-3.0121325109242427"><ele>3.833333333333333</ele><time>2026-04-30T13:56:00.001Z</time></trkpt><trkpt lat="43.29012048745603" lon="-3.0122388884085347"><ele>3.6666666666666665</ele><time>2026-04-30T13:56:01.001Z</time></trkpt><trkpt lat="43.29015662836042" lon="-3.0123425525301997"><ele>3.5</ele><time>2026-04-30T13:56:02.001Z</time></trkpt><trkpt lat="43.290193636873695" lon="-3.0124444612155497"><ele>3.333333333333333</ele><time>2026-04-30T13:56:03.001Z</time></trkpt><trkpt lat="43.290235351438916" lon="-3.0125460281657186"><ele>3.1666666666666665</ele><time>2026-04-30T13:56:04.001Z</time></trkpt><trkpt lat="43.29027813725084" lon="-3.012646777435717"><ele>3.0</ele><time>2026-04-30T13:56:05.001Z</time></trkpt><trkpt lat="43.29032067652872" lon="-3.0127502813611398"><ele>3.0</ele><time>2026-04-30T13:56:06.001Z</time></trkpt><trkpt lat="43.29036304388352" lon="-3.012856652240798"><ele>3.0</ele><time>2026-04-30T13:56:07.001Z</time></trkpt><trkpt lat="43.290406092916356" lon="-3.01295942149642"><ele>3.0</ele><time>2026-04-30T13:56:08.001Z</time></trkpt><trkpt lat="43.290451254428355" lon="-3.013062230297412"><ele>3.0</ele><time>2026-04-30T13:56:09.001Z</time></trkpt><trkpt lat="43.29049550952096" lon="-3.0131628996727207"><ele>3.0</ele><time>2026-04-30T13:56:10.001Z</time></trkpt><trkpt lat="43.290539435483545" lon="-3.013264045880648"><ele>3.0</ele><time>2026-04-30T13:56:11.001Z</time></trkpt><trkpt lat="43.290583627803954" lon="-3.0133652901871524"><ele>2.8333333333333335</ele><time>2026-04-30T13:56:12.001Z</time></trkpt><trkpt lat="43.29062665131904" lon="-3.013469727213847"><ele>2.6666666666666665</ele><time>2026-04-30T13:56:13.001Z</time></trkpt><trkpt lat="43.29067117781851" lon="-3.0135716601916394"><ele>2.5</ele><time>2026-04-30T13:56:14.001Z</time></trkpt><trkpt lat="43.290715816642084" lon="-3.0136747827490287"><ele>2.333333333333333</ele><time>2026-04-30T13:56:15.001Z</time></trkpt><trkpt lat="43.29076149955938" lon="-3.013775354220802"><ele>2.1666666666666665</ele><time>2026-04-30T13:56:16.001Z</time></trkpt><trkpt lat="43.29080723351045" lon="-3.0138751553011227"><ele>2.0</ele><time>2026-04-30T13:56:16.997Z</time></trkpt><trkpt lat="43.29085252718324" lon="-3.013976392562107"><ele>1.9999999999999998</ele><time>2026-04-30T13:56:17.997Z</time></trkpt><trkpt lat="43.29089767393081" lon="-3.014078003524796"><ele>2.0</ele><time>2026-04-30T13:56:18.997Z</time></trkpt><trkpt lat="43.29094264190933" lon="-3.0141796640677248"><ele>2.0</ele><time>2026-04-30T13:56:19.997Z</time></trkpt><trkpt lat="43.29098656607141" lon="-3.0142809490670817"><ele>2.0</ele><time>2026-04-30T13:56:20.997Z</time></trkpt><trkpt lat="43.29102997233172" lon="-3.0143804913322385"><ele>1.9999999999999998</ele><time>2026-04-30T13:56:21.998Z</time></trkpt><trkpt lat="43.29107348444491" lon="-3.0144821944919373"><ele>2.0</ele><time>2026-04-30T13:56:22.998Z</time></trkpt><trkpt lat="43.29111705510602" lon="-3.01458323919111"><ele>2.1666666666666665</ele><time>2026-04-30T13:56:23.998Z</time></trkpt><trkpt lat="43.29116126353203" lon="-3.0146803565105356"><ele>2.333333333333333</ele><time>2026-04-30T13:56:24.998Z</time></trkpt><trkpt lat="43.29120536354828" lon="-3.014779956830949"><ele>2.5</ele><time>2026-04-30T13:56:25.998Z</time></trkpt><trkpt lat="43.29124873350728" lon="-3.0148741605377993"><ele>2.6666666666666665</ele><time>2026-04-30T13:56:26.998Z</time></trkpt><trkpt lat="43.29128749645795" lon="-3.014963800217464"><ele>2.8333333333333335</ele><time>2026-04-30T13:56:27.998Z</time></trkpt><trkpt lat="43.291324370291164" lon="-3.015051790940299"><ele>3.0</ele><time>2026-04-30T13:56:28.998Z</time></trkpt><trkpt lat="43.2913607786489" lon="-3.015135701452594"><ele>3.1666666666666665</ele><time>2026-04-30T13:56:29.998Z</time></trkpt><trkpt lat="43.29139554133903" lon="-3.0152147492690475"><ele>3.333333333333333</ele><time>2026-04-30T13:56:30.998Z</time></trkpt><trkpt lat="43.29142978376599" lon="-3.0152896093395465"><ele>3.5</ele><time>2026-04-30T13:56:31.998Z</time></trkpt><trkpt lat="43.29148838302511" lon="-3.015419397854313"><ele>3.6666666666666665</ele><time>2026-04-30T13:56:33.998Z</time></trkpt><trkpt lat="43.29153449075532" lon="-3.015521615905256"><ele>3.833333333333333</ele><time>2026-04-30T13:56:35.998Z</time></trkpt><trkpt lat="43.291568888702386" lon="-3.01559640688397"><ele>4.0</ele><time>2026-04-30T13:56:37.999Z</time></trkpt><trkpt lat="43.29160139331545" lon="-3.015687032364898"><ele>3.6666666666666665</ele><time>2026-04-30T13:56:54.999Z</time></trkpt><trkpt lat="43.2916402864714" lon="-3.0157654128426366"><ele>3.333333333333333</ele><time>2026-04-30T13:56:56.999Z</time></trkpt><trkpt lat="43.2916995527017" lon="-3.0158920923438255"><ele>3.0</ele><time>2026-04-30T13:56:59Z</time></trkpt><trkpt lat="43.29173117730246" lon="-3.0159714409533924"><ele>2.6666666666666665</ele><time>2026-04-30T13:57:00Z</time></trkpt><trkpt lat="43.29176510951973" lon="-3.0160556479833853"><ele>2.333333333333333</ele><time>2026-04-30T13:57:01Z</time></trkpt><trkpt lat="43.291804921050264" lon="-3.016138550270328"><ele>2.0</ele><time>2026-04-30T13:57:02Z</time></trkpt><trkpt lat="43.29184586648985" lon="-3.016225698366498"><ele>2.6666666666666665</ele><time>2026-04-30T13:57:03Z</time></trkpt><trkpt lat="43.29188725830804" lon="-3.016315623788945"><ele>3.333333333333333</ele><time>2026-04-30T13:57:04Z</time></trkpt><trkpt lat="43.291930353198744" lon="-3.016409591521779"><ele>4.0</ele><time>2026-04-30T13:57:05Z</time></trkpt><trkpt lat="43.291973704633165" lon="-3.016505275487067"><ele>4.666666666666667</ele><time>2026-04-30T13:57:06Z</time></trkpt><trkpt lat="43.29201763633472" lon="-3.016600356874091"><ele>5.333333333333333</ele><time>2026-04-30T13:57:07Z</time></trkpt><trkpt lat="43.29205828364882" lon="-3.0167007827217107"><ele>6.0</ele><time>2026-04-30T13:57:08Z</time></trkpt><trkpt lat="43.29209899834684" lon="-3.016801708276297"><ele>6.0</ele><time>2026-04-30T13:57:09Z</time></trkpt><trkpt lat="43.29214281758501" lon="-3.016900399863"><ele>6.0</ele><time>2026-04-30T13:57:10Z</time></trkpt><trkpt lat="43.29219029964465" lon="-3.0169963454722613"><ele>6.0</ele><time>2026-04-30T13:57:11Z</time></trkpt><trkpt lat="43.29223710550288" lon="-3.017093213489532"><ele>6.0</ele><time>2026-04-30T13:57:12Z</time></trkpt><trkpt lat="43.29228311773293" lon="-3.0171929853481205"><ele>6.0</ele><time>2026-04-30T13:57:13Z</time></trkpt><trkpt lat="43.2923275781869" lon="-3.017295130343384"><ele>6.0</ele><time>2026-04-30T13:57:14Z</time></trkpt><trkpt lat="43.29237146675086" lon="-3.017397594692841"><ele>6.166666666666667</ele><time>2026-04-30T13:57:15Z</time></trkpt><trkpt lat="43.29241644102349" lon="-3.017499722242878"><ele>6.333333333333334</ele><time>2026-04-30T13:57:16Z</time></trkpt><trkpt lat="43.29246522709665" lon="-3.017599927550599"><ele>6.5</ele><time>2026-04-30T13:57:17Z</time></trkpt><trkpt lat="43.29251573483093" lon="-3.0176986037962212"><ele>6.666666666666667</ele><time>2026-04-30T13:57:18Z</time></trkpt><trkpt lat="43.29256843402685" lon="-3.0177962246538304"><ele>6.833333333333334</ele><time>2026-04-30T13:57:19Z</time></trkpt><trkpt lat="43.292619359908706" lon="-3.0178910503571865"><ele>7.0</ele><time>2026-04-30T13:57:20Z</time></trkpt><trkpt lat="43.2926701754093" lon="-3.0179877004284883"><ele>7.000000000000001</ele><time>2026-04-30T13:57:21Z</time></trkpt><trkpt lat="43.29272244214604" lon="-3.018083745040522"><ele>7.0</ele><time>2026-04-30T13:57:22Z</time></trkpt><trkpt lat="43.2927775854848" lon="-3.0181785234150107"><ele>7.0</ele><time>2026-04-30T13:57:23Z</time></trkpt><trkpt lat="43.29283342084211" lon="-3.018272719986148"><ele>7.0</ele><time>2026-04-30T13:57:24Z</time></trkpt><trkpt lat="43.29289460807314" lon="-3.0183606751927226"><ele>7.000000000000001</ele><time>2026-04-30T13:57:25Z</time></trkpt><trkpt lat="43.29295742125921" lon="-3.018446962665885"><ele>7.0</ele><time>2026-04-30T13:57:26Z</time></trkpt><trkpt lat="43.29301905701707" lon="-3.0185320131204585"><ele>6.500000000000001</ele><time>2026-04-30T13:57:27Z</time></trkpt><trkpt lat="43.293080731737255" lon="-3.0186151974115276"><ele>6.0</ele><time>2026-04-30T13:57:28Z</time></trkpt><trkpt lat="43.293144182765765" lon="-3.0186983010763586"><ele>5.5</ele><time>2026-04-30T13:57:29Z</time></trkpt><trkpt lat="43.29320699249745" lon="-3.018780099159215"><ele>5.0</ele><time>2026-04-30T13:57:30Z</time></trkpt><trkpt lat="43.29327089245974" lon="-3.018860097418088"><ele>4.5</ele><time>2026-04-30T13:57:31Z</time></trkpt><trkpt lat="43.293334813080925" lon="-3.0189355476213957"><ele>4.0</ele><time>2026-04-30T13:57:32Z</time></trkpt><trkpt lat="43.29339630102766" lon="-3.019012783275781"><ele>3.9999999999999996</ele><time>2026-04-30T13:57:33.001Z</time></trkpt><trkpt lat="43.293458722518984" lon="-3.019090359609155"><ele>4.0</ele><time>2026-04-30T13:57:34.001Z</time></trkpt><trkpt lat="43.293522200012475" lon="-3.0191657102620186"><ele>4.0</ele><time>2026-04-30T13:57:35.001Z</time></trkpt><trkpt lat="43.29358941288226" lon="-3.019238570777771"><ele>4.0</ele><time>2026-04-30T13:57:36.001Z</time></trkpt><trkpt lat="43.29365621740793" lon="-3.0193114394965845"><ele>3.9999999999999996</ele><time>2026-04-30T13:57:37.001Z</time></trkpt><trkpt lat="43.29372358752744" lon="-3.019379511291276"><ele>4.0</ele><time>2026-04-30T13:57:38.001Z</time></trkpt><trkpt lat="43.29378881406719" lon="-3.0194507598901885"><ele>4.166666666666666</ele><time>2026-04-30T13:57:39.001Z</time></trkpt><trkpt lat="43.2938529615455" lon="-3.019520985652392"><ele>4.333333333333333</ele><time>2026-04-30T13:57:40.001Z</time></trkpt><trkpt lat="43.29391640409393" lon="-3.0195975001812876"><ele>4.5</ele><time>2026-04-30T13:57:41.001Z</time></trkpt><trkpt lat="43.29398090969459" lon="-3.019669521048347"><ele>4.666666666666667</ele><time>2026-04-30T13:57:42.001Z</time></trkpt><trkpt lat="43.29404319159095" lon="-3.0197438626523123"><ele>4.833333333333334</ele><time>2026-04-30T13:57:43.001Z</time></trkpt><trkpt lat="43.294102938454394" lon="-3.019823329676928"><ele>5.0</ele><time>2026-04-30T13:57:44.001Z</time></trkpt><trkpt lat="43.29415989040199" lon="-3.0199089155634486"><ele>6.166666666666667</ele><time>2026-04-30T13:57:45.001Z</time></trkpt><trkpt lat="43.29421660809793" lon="-3.0199965467127003"><ele>7.333333333333334</ele><time>2026-04-30T13:57:46.001Z</time></trkpt><trkpt lat="43.29427070677342" lon="-3.02008662522543"><ele>8.5</ele><time>2026-04-30T13:57:47.001Z</time></trkpt><trkpt lat="43.294324448317596" lon="-3.0201812439259905"><ele>9.666666666666666</ele><time>2026-04-30T13:57:48.001Z</time></trkpt><trkpt lat="43.29437585123986" lon="-3.020276089728167"><ele>10.833333333333334</ele><time>2026-04-30T13:57:49.001Z</time></trkpt><trkpt lat="43.294424268344834" lon="-3.020374110444933"><ele>12.0</ele><time>2026-04-30T13:57:50.001Z</time></trkpt><trkpt lat="43.29447458366174" lon="-3.020473614653244"><ele>12.0</ele><time>2026-04-30T13:57:51.001Z</time></trkpt><trkpt lat="43.29452781750584" lon="-3.0205746437128966"><ele>12.0</ele><time>2026-04-30T13:57:52.001Z</time></trkpt><trkpt lat="43.2945826601302" lon="-3.020673162528176"><ele>12.0</ele><time>2026-04-30T13:57:53.001Z</time></trkpt><trkpt lat="43.29464001011599" lon="-3.020765298998965"><ele>12.0</ele><time>2026-04-30T13:57:54.001Z</time></trkpt><trkpt lat="43.29470497967168" lon="-3.0208478786306947"><ele>12.0</ele><time>2026-04-30T13:57:55.001Z</time></trkpt><trkpt lat="43.29477152982562" lon="-3.0209250471587987"><ele>12.0</ele><time>2026-04-30T13:57:56.001Z</time></trkpt><trkpt lat="43.294845973645025" lon="-3.0209864018821646"><ele>12.166666666666666</ele><time>2026-04-30T13:57:57.001Z</time></trkpt><trkpt lat="43.29492389255514" lon="-3.021039393501358"><ele>12.333333333333332</ele><time>2026-04-30T13:57:58.001Z</time></trkpt><trkpt lat="43.29500274136596" lon="-3.021086245136756"><ele>12.5</ele><time>2026-04-30T13:57:59.001Z</time></trkpt><trkpt lat="43.29508154582439" lon="-3.0211336355455294"><ele>12.666666666666666</ele><time>2026-04-30T13:58:00.001Z</time></trkpt><trkpt lat="43.29516030214634" lon="-3.0211806750685386"><ele>12.833333333333332</ele><time>2026-04-30T13:58:01.001Z</time></trkpt><trkpt lat="43.295236680317394" lon="-3.0212295313195012"><ele>13.0</ele><time>2026-04-30T13:58:02.001Z</time></trkpt><trkpt lat="43.29531557060803" lon="-3.021275620739107"><ele>12.999999999999998</ele><time>2026-04-30T13:58:03.001Z</time></trkpt><trkpt lat="43.295395168193316" lon="-3.021322367938213"><ele>13.0</ele><time>2026-04-30T13:58:04.001Z</time></trkpt><trkpt lat="43.295473610607836" lon="-3.0213698991452373"><ele>13.0</ele><time>2026-04-30T13:58:05.001Z</time></trkpt><trkpt lat="43.29555252827689" lon="-3.0214189395372055"><ele>13.0</ele><time>2026-04-30T13:58:06.001Z</time></trkpt><trkpt lat="43.29563219096526" lon="-3.0214659432409197"><ele>12.999999999999998</ele><time>2026-04-30T13:58:07.001Z</time></trkpt><trkpt lat="43.2957129737596" lon="-3.021511151367269"><ele>13.0</ele><time>2026-04-30T13:58:08.001Z</time></trkpt><trkpt lat="43.29579260779367" lon="-3.0215530286728263"><ele>12.428571428571429</ele><time>2026-04-30T13:58:09.001Z</time></trkpt><trkpt lat="43.29586768603654" lon="-3.0215950200624353"><ele>11.857142857142858</ele><time>2026-04-30T13:58:10.001Z</time></trkpt><trkpt lat="43.29593911372393" lon="-3.021629825283097"><ele>11.285714285714286</ele><time>2026-04-30T13:58:11.001Z</time></trkpt><trkpt lat="43.296011145066046" lon="-3.0216558226957217"><ele>10.714285714285715</ele><time>2026-04-30T13:58:12.001Z</time></trkpt><trkpt lat="43.29608179829526" lon="-3.021679224611776"><ele>10.142857142857142</ele><time>2026-04-30T13:58:13.001Z</time></trkpt><trkpt lat="43.296149121879665" lon="-3.021702196533064"><ele>9.571428571428573</ele><time>2026-04-30T13:58:14.001Z</time></trkpt><trkpt lat="43.29621244975437" lon="-3.0217260858024786"><ele>9.0</ele><time>2026-04-30T13:58:15.002Z</time></trkpt><trkpt lat="43.296281971441594" lon="-3.0217435749282315"><ele>10.571428571428573</ele><time>2026-04-30T13:58:16.002Z</time></trkpt><trkpt lat="43.29634901027952" lon="-3.021756836215575"><ele>12.142857142857142</ele><time>2026-04-30T13:58:17.002Z</time></trkpt><trkpt lat="43.296409609203835" lon="-3.0217898188679038"><ele>13.714285714285715</ele><time>2026-04-30T13:58:18.002Z</time></trkpt><trkpt lat="43.2964563245146" lon="-3.021860506307257"><ele>15.285714285714286</ele><time>2026-04-30T13:58:19.002Z</time></trkpt><trkpt lat="43.296480615327646" lon="-3.0219487649061954"><ele>16.857142857142858</ele><time>2026-04-30T13:58:20.002Z</time></trkpt><trkpt lat="43.29648208429813" lon="-3.022045527596758"><ele>18.428571428571427</ele><time>2026-04-30T13:58:21.002Z</time></trkpt><trkpt lat="43.296461026928895" lon="-3.022145487640466"><ele>20.0</ele><time>2026-04-30T13:58:22.002Z</time></trkpt><trkpt lat="43.29644551521019" lon="-3.022245983820768"><ele>20.0</ele><time>2026-04-30T13:58:22.998Z</time></trkpt><trkpt lat="43.296442151896315" lon="-3.022361469153183"><ele>20.0</ele><time>2026-04-30T13:58:23.998Z</time></trkpt><trkpt lat="43.29644615074265" lon="-3.0224773565771486"><ele>20.0</ele><time>2026-04-30T13:58:24.998Z</time></trkpt><trkpt lat="43.29644874107646" lon="-3.0225964021428187"><ele>20.0</ele><time>2026-04-30T13:58:25.998Z</time></trkpt><trkpt lat="43.29645129364978" lon="-3.022717023122763"><ele>20.0</ele><time>2026-04-30T13:58:26.998Z</time></trkpt><trkpt lat="43.296453379303024" lon="-3.022840484106076"><ele>20.0</ele><time>2026-04-30T13:58:27.998Z</time></trkpt><trkpt lat="43.29645539232299" lon="-3.022965779989083"><ele>20.0</ele><time>2026-04-30T13:58:28.998Z</time></trkpt><trkpt lat="43.29645971438474" lon="-3.023089608484993"><ele>20.0</ele><time>2026-04-30T13:58:29.998Z</time></trkpt><trkpt lat="43.29646535207203" lon="-3.023215320847743"><ele>20.0</ele><time>2026-04-30T13:58:30.998Z</time></trkpt><trkpt lat="43.29647008319049" lon="-3.0233431648616644"><ele>20.0</ele><time>2026-04-30T13:58:31.998Z</time></trkpt><trkpt lat="43.296473564326234" lon="-3.023474818326215"><ele>20.0</ele><time>2026-04-30T13:58:32.998Z</time></trkpt><trkpt lat="43.29648108362059" lon="-3.023605956089217"><ele>19.4</ele><time>2026-04-30T13:58:33.998Z</time></trkpt><trkpt lat="43.29648584908113" lon="-3.0237364913138283"><ele>18.8</ele><time>2026-04-30T13:58:34.998Z</time></trkpt><trkpt lat="43.29648984500821" lon="-3.023868939312889"><ele>18.2</ele><time>2026-04-30T13:58:35.998Z</time></trkpt><trkpt lat="43.29649618900109" lon="-3.0240021429656023"><ele>17.6</ele><time>2026-04-30T13:58:36.998Z</time></trkpt><trkpt lat="43.29650257955593" lon="-3.0241338423439927"><ele>17.0</ele><time>2026-04-30T13:58:37.999Z</time></trkpt><trkpt lat="43.29651025109933" lon="-3.024266620966685"><ele>17.0</ele><time>2026-04-30T13:58:38.999Z</time></trkpt><trkpt lat="43.29651618619969" lon="-3.024399902750135"><ele>17.0</ele><time>2026-04-30T13:58:39.999Z</time></trkpt><trkpt lat="43.29652175216015" lon="-3.024533204685397"><ele>17.0</ele><time>2026-04-30T13:58:40.999Z</time></trkpt><trkpt lat="43.2965244056606" lon="-3.0246656358812634"><ele>17.0</ele><time>2026-04-30T13:58:41.999Z</time></trkpt><trkpt lat="43.29652953874794" lon="-3.0247984954317606"><ele>17.0</ele><time>2026-04-30T13:58:42.999Z</time></trkpt><trkpt lat="43.296539216217504" lon="-3.0249304450027505"><ele>17.6</ele><time>2026-04-30T13:58:43.999Z</time></trkpt><trkpt lat="43.29654991100197" lon="-3.025058251716629"><ele>18.2</ele><time>2026-04-30T13:58:44.999Z</time></trkpt><trkpt lat="43.296554954030306" lon="-3.025191141151389"><ele>18.8</ele><time>2026-04-30T13:58:45.999Z</time></trkpt><trkpt lat="43.29656648827713" lon="-3.025321487319717"><ele>19.4</ele><time>2026-04-30T13:58:46.999Z</time></trkpt><trkpt lat="43.296584115132184" lon="-3.0254509102778138"><ele>20.0</ele><time>2026-04-30T13:58:47.999Z</time></trkpt><trkpt lat="43.29661209688076" lon="-3.025579515944069"><ele>20.0</ele><time>2026-04-30T13:58:48.999Z</time></trkpt><trkpt lat="43.296653686095176" lon="-3.0257022473494617"><ele>20.0</ele><time>2026-04-30T13:58:49.999Z</time></trkpt><trkpt lat="43.296705369125" lon="-3.025819608787584"><ele>20.0</ele><time>2026-04-30T13:58:50.999Z</time></trkpt><trkpt lat="43.29675024963157" lon="-3.0259396860565118"><ele>20.0</ele><time>2026-04-30T13:58:51.999Z</time></trkpt><trkpt lat="43.296792296599364" lon="-3.026061353647981"><ele>20.0</ele><time>2026-04-30T13:58:52.999Z</time></trkpt><trkpt lat="43.296837888393696" lon="-3.026182866489963"><ele>20.6</ele><time>2026-04-30T13:58:53.999Z</time></trkpt><trkpt lat="43.29688776285256" lon="-3.026302978924428"><ele>21.2</ele><time>2026-04-30T13:58:55Z</time></trkpt><trkpt lat="43.29693440445709" lon="-3.026424523665025"><ele>21.799999999999997</ele><time>2026-04-30T13:58:56Z</time></trkpt><trkpt lat="43.296979081656985" lon="-3.026549265291275"><ele>22.4</ele><time>2026-04-30T13:58:57Z</time></trkpt><trkpt lat="43.29702520418262" lon="-3.0266724913847307"><ele>23.0</ele><time>2026-04-30T13:58:58Z</time></trkpt><trkpt lat="43.29707752071339" lon="-3.026789783751503"><ele>23.4</ele><time>2026-04-30T13:58:59Z</time></trkpt><trkpt lat="43.297136314688714" lon="-3.026899031278856"><ele>23.799999999999997</ele><time>2026-04-30T13:59:00Z</time></trkpt><trkpt lat="43.29720370473045" lon="-3.0269989972884392"><ele>24.2</ele><time>2026-04-30T13:59:01Z</time></trkpt><trkpt lat="43.29727699419536" lon="-3.0270905629820715"><ele>24.6</ele><time>2026-04-30T13:59:02Z</time></trkpt><trkpt lat="43.29735286887689" lon="-3.0271759994917646"><ele>25.0</ele><time>2026-04-30T13:59:03Z</time></trkpt><trkpt lat="43.2974249766596" lon="-3.0272547125867577"><ele>23.000000000000004</ele><time>2026-04-30T13:59:04Z</time></trkpt><trkpt lat="43.29749677824403" lon="-3.0273350052803596"><ele>21.0</ele><time>2026-04-30T13:59:05Z</time></trkpt><trkpt lat="43.29756629867337" lon="-3.0274143914765297"><ele>19.0</ele><time>2026-04-30T13:59:06Z</time></trkpt><trkpt lat="43.29763459164568" lon="-3.027493900979064"><ele>17.0</ele><time>2026-04-30T13:59:07Z</time></trkpt><trkpt lat="43.29770046246914" lon="-3.0275724836346107"><ele>15.0</ele><time>2026-04-30T13:59:08Z</time></trkpt><trkpt lat="43.297764914061254" lon="-3.027647092371315"><ele>13.0</ele><time>2026-04-30T13:59:09Z</time></trkpt><trkpt lat="43.29782488516545" lon="-3.027716249529883"><ele>12.999999999999998</ele><time>2026-04-30T13:59:10Z</time></trkpt><trkpt lat="43.29788550386235" lon="-3.0277827827929022"><ele>13.0</ele><time>2026-04-30T13:59:11Z</time></trkpt><trkpt lat="43.29794468021001" lon="-3.0278484664968466"><ele>13.0</ele><time>2026-04-30T13:59:12Z</time></trkpt><trkpt lat="43.298001783893824" lon="-3.0279177425893993"><ele>13.0</ele><time>2026-04-30T13:59:13Z</time></trkpt><trkpt lat="43.29806121608944" lon="-3.027986226310596"><ele>12.999999999999998</ele><time>2026-04-30T13:59:14Z</time></trkpt><trkpt lat="43.29811877023994" lon="-3.0280549494746096"><ele>13.0</ele><time>2026-04-30T13:59:15Z</time></trkpt><trkpt lat="43.29817640993075" lon="-3.0281246878915504"><ele>12.666666666666666</ele><time>2026-04-30T13:59:16Z</time></trkpt><trkpt lat="43.298234800009624" lon="-3.028195457261628"><ele>12.333333333333332</ele><time>2026-04-30T13:59:17Z</time></trkpt><trkpt lat="43.29829359192344" lon="-3.028265117051102"><ele>12.0</ele><time>2026-04-30T13:59:18Z</time></trkpt><trkpt lat="43.29835373204673" lon="-3.02833231784894"><ele>11.666666666666666</ele><time>2026-04-30T13:59:19Z</time></trkpt><trkpt lat="43.29841383217065" lon="-3.0284043344535156"><ele>11.333333333333332</ele><time>2026-04-30T13:59:20Z</time></trkpt><trkpt lat="43.298472045821114" lon="-3.0284752838613027"><ele>11.0</ele><time>2026-04-30T13:59:21Z</time></trkpt><trkpt lat="43.29853108258315" lon="-3.028544130596602"><ele>12.0</ele><time>2026-04-30T13:59:22.001Z</time></trkpt><trkpt lat="43.298589323421076" lon="-3.0286132268719266"><ele>13.0</ele><time>2026-04-30T13:59:23.001Z</time></trkpt><trkpt lat="43.298649836230034" lon="-3.028683155768563"><ele>14.0</ele><time>2026-04-30T13:59:24.001Z</time></trkpt><trkpt lat="43.29871024599077" lon="-3.028753408744873"><ele>15.0</ele><time>2026-04-30T13:59:25.001Z</time></trkpt><trkpt lat="43.29877084839937" lon="-3.028823625890568"><ele>16.0</ele><time>2026-04-30T13:59:26.001Z</time></trkpt><trkpt lat="43.298830640885654" lon="-3.0288922645626686"><ele>17.0</ele><time>2026-04-30T13:59:27.001Z</time></trkpt><trkpt lat="43.29888945198489" lon="-3.0289591012084567"><ele>16.5</ele><time>2026-04-30T13:59:28.001Z</time></trkpt><trkpt lat="43.2989423865195" lon="-3.0290318698117358"><ele>16.0</ele><time>2026-04-30T13:59:29.001Z</time></trkpt><trkpt lat="43.29900100446842" lon="-3.029099322729708"><ele>15.5</ele><time>2026-04-30T13:59:30.001Z</time></trkpt><trkpt lat="43.29905591412882" lon="-3.029171516145185"><ele>15.0</ele><time>2026-04-30T13:59:31.001Z</time></trkpt><trkpt lat="43.29910502898566" lon="-3.0292472369963614"><ele>14.500000000000002</ele><time>2026-04-30T13:59:32.001Z</time></trkpt><trkpt lat="43.2991487439514" lon="-3.02933059368982"><ele>14.0</ele><time>2026-04-30T13:59:33.001Z</time></trkpt><trkpt lat="43.29919260820762" lon="-3.029422663431598"><ele>15.166666666666668</ele><time>2026-04-30T13:59:34.001Z</time></trkpt><trkpt lat="43.29923551191333" lon="-3.029520789851401"><ele>16.333333333333336</ele><time>2026-04-30T13:59:35.001Z</time></trkpt><trkpt lat="43.29927746692586" lon="-3.0296228098591387"><ele>17.5</ele><time>2026-04-30T13:59:36.001Z</time></trkpt><trkpt lat="43.29932258735641" lon="-3.0297263500458587"><ele>18.666666666666668</ele><time>2026-04-30T13:59:37.001Z</time></trkpt><trkpt lat="43.29936780854067" lon="-3.0298259544053123"><ele>19.833333333333332</ele><time>2026-04-30T13:59:38.001Z</time></trkpt><trkpt lat="43.29941635983713" lon="-3.029928000037405"><ele>21.0</ele><time>2026-04-30T13:59:39.001Z</time></trkpt><trkpt lat="43.299465604236694" lon="-3.0300268683042337"><ele>21.833333333333332</ele><time>2026-04-30T13:59:40.001Z</time></trkpt><trkpt lat="43.299511966338834" lon="-3.030125986710541"><ele>22.666666666666664</ele><time>2026-04-30T13:59:41.001Z</time></trkpt><trkpt lat="43.299556336156115" lon="-3.0302242393421945"><ele>23.5</ele><time>2026-04-30T13:59:42.001Z</time></trkpt><trkpt lat="43.29960185988279" lon="-3.0303263482432183"><ele>24.333333333333332</ele><time>2026-04-30T13:59:43.001Z</time></trkpt><trkpt lat="43.29964991773181" lon="-3.0304301423103643"><ele>25.166666666666664</ele><time>2026-04-30T13:59:44.001Z</time></trkpt><trkpt lat="43.29969901896662" lon="-3.030535484077028"><ele>26.0</ele><time>2026-04-30T13:59:45.001Z</time></trkpt><trkpt lat="43.299747990140155" lon="-3.0306380368129875"><ele>24.166666666666664</ele><time>2026-04-30T13:59:46.001Z</time></trkpt><trkpt lat="43.299797615484884" lon="-3.0307417193630943"><ele>22.333333333333332</ele><time>2026-04-30T13:59:47.001Z</time></trkpt><trkpt lat="43.29984485662442" lon="-3.030848527131751"><ele>20.5</ele><time>2026-04-30T13:59:48.001Z</time></trkpt><trkpt lat="43.29989191071623" lon="-3.0309539695486847"><ele>18.666666666666664</ele><time>2026-04-30T13:59:49.001Z</time></trkpt><trkpt lat="43.29993865837344" lon="-3.0310574583127154"><ele>16.833333333333332</ele><time>2026-04-30T13:59:50.001Z</time></trkpt><trkpt lat="43.299986517707026" lon="-3.031156878004134"><ele>15.0</ele><time>2026-04-30T13:59:51.001Z</time></trkpt><trkpt lat="43.30003162799423" lon="-3.0312565021313156"><ele>15.0</ele><time>2026-04-30T13:59:52.001Z</time></trkpt><trkpt lat="43.30007581402282" lon="-3.0313533098944863"><ele>15.0</ele><time>2026-04-30T13:59:53.001Z</time></trkpt><trkpt lat="43.30011819903105" lon="-3.03145038968414"><ele>15.0</ele><time>2026-04-30T13:59:54.002Z</time></trkpt><trkpt lat="43.300159726042864" lon="-3.0315435282453365"><ele>15.0</ele><time>2026-04-30T13:59:55.002Z</time></trkpt><trkpt lat="43.30020237173634" lon="-3.0316371880077773"><ele>15.0</ele><time>2026-04-30T13:59:56.002Z</time></trkpt><trkpt lat="43.300244312989555" lon="-3.031728092403694"><ele>15.0</ele><time>2026-04-30T13:59:57.002Z</time></trkpt><trkpt lat="43.300287946545374" lon="-3.0318254899046146"><ele>16.0</ele><time>2026-04-30T13:59:58.002Z</time></trkpt><trkpt lat="43.300336565457016" lon="-3.031923912116951"><ele>17.0</ele><time>2026-04-30T13:59:59.002Z</time></trkpt><trkpt lat="43.300384295905545" lon="-3.032017522100877"><ele>18.0</ele><time>2026-04-30T14:00:00.002Z</time></trkpt><trkpt lat="43.300428560738915" lon="-3.032111416633902"><ele>19.0</ele><time>2026-04-30T14:00:01.002Z</time></trkpt><trkpt lat="43.30046884131589" lon="-3.032204018077273"><ele>20.0</ele><time>2026-04-30T14:00:02.002Z</time></trkpt><trkpt lat="43.3005089676113" lon="-3.0322983191192794"><ele>21.0</ele><time>2026-04-30T14:00:03.002Z</time></trkpt><trkpt lat="43.30055320520957" lon="-3.032388478245326"><ele>20.666666666666668</ele><time>2026-04-30T14:00:04.002Z</time></trkpt><trkpt lat="43.30060296754347" lon="-3.032472669031735"><ele>20.333333333333332</ele><time>2026-04-30T14:00:05.002Z</time></trkpt><trkpt lat="43.30065764578678" lon="-3.0325507564689724"><ele>20.0</ele><time>2026-04-30T14:00:06.002Z</time></trkpt><trkpt lat="43.300714284682925" lon="-3.032625207760521"><ele>19.666666666666664</ele><time>2026-04-30T14:00:07.002Z</time></trkpt><trkpt lat="43.300770903456666" lon="-3.032699491902065"><ele>19.333333333333332</ele><time>2026-04-30T14:00:08.002Z</time></trkpt><trkpt lat="43.30082804301235" lon="-3.0327723067742016"><ele>19.0</ele><time>2026-04-30T14:00:09.002Z</time></trkpt><trkpt lat="43.3008849341011" lon="-3.0328433539841684"><ele>19.0</ele><time>2026-04-30T14:00:10.002Z</time></trkpt><trkpt lat="43.30094269032837" lon="-3.0329148362119303"><ele>19.0</ele><time>2026-04-30T14:00:11.002Z</time></trkpt><trkpt lat="43.300999062454025" lon="-3.032986687635706"><ele>19.0</ele><time>2026-04-30T14:00:12.002Z</time></trkpt><trkpt lat="43.30105322579294" lon="-3.0330547398217695"><ele>19.0</ele><time>2026-04-30T14:00:13.002Z</time></trkpt><trkpt lat="43.30111220062875" lon="-3.033122199986281"><ele>19.0</ele><time>2026-04-30T14:00:14.002Z</time></trkpt><trkpt lat="43.30116893528165" lon="-3.0331910588856217"><ele>19.0</ele><time>2026-04-30T14:00:15.002Z</time></trkpt><trkpt lat="43.30121840298178" lon="-3.033272206144847"><ele>18.833333333333332</ele><time>2026-04-30T14:00:16.002Z</time></trkpt><trkpt lat="43.301275336253404" lon="-3.033345801613829"><ele>18.666666666666664</ele><time>2026-04-30T14:00:17.002Z</time></trkpt><trkpt lat="43.30133567719247" lon="-3.033416508718978"><ele>18.5</ele><time>2026-04-30T14:00:18.002Z</time></trkpt><trkpt lat="43.30139591670243" lon="-3.0334909057709027"><ele>18.333333333333332</ele><time>2026-04-30T14:00:19.002Z</time></trkpt><trkpt lat="43.30145347069018" lon="-3.0335585163614684"><ele>18.166666666666668</ele><time>2026-04-30T14:00:20.002Z</time></trkpt><trkpt lat="43.301504920578694" lon="-3.0336241246099527"><ele>18.0</ele><time>2026-04-30T14:00:21.002Z</time></trkpt><trkpt lat="43.3015527137379" lon="-3.03368921495962"><ele>17.833333333333332</ele><time>2026-04-30T14:00:22.002Z</time></trkpt><trkpt lat="43.30163443441935" lon="-3.0337877123465713"><ele>17.666666666666668</ele><time>2026-04-30T14:00:24.002Z</time></trkpt><trkpt lat="43.30169619581337" lon="-3.0338663382407227"><ele>17.5</ele><time>2026-04-30T14:00:26.002Z</time></trkpt><trkpt lat="43.30174478369658" lon="-3.033926647562586"><ele>17.333333333333336</ele><time>2026-04-30T14:00:29Z</time></trkpt><trkpt lat="43.301802907716784" lon="-3.0339748531904913"><ele>17.166666666666668</ele><time>2026-04-30T14:00:38Z</time></trkpt><trkpt lat="43.30186922783348" lon="-3.0340430635530438"><ele>17.0</ele><time>2026-04-30T14:00:40Z</time></trkpt><trkpt lat="43.301953812102674" lon="-3.0341556477319394"><ele>16.999999999999996</ele><time>2026-04-30T14:00:42Z</time></trkpt><trkpt lat="43.301997678335056" lon="-3.0342186776898616"><ele>17.0</ele><time>2026-04-30T14:00:43Z</time></trkpt><trkpt lat="43.302048441483784" lon="-3.034284082613485"><ele>17.0</ele><time>2026-04-30T14:00:44Z</time></trkpt><trkpt lat="43.302099763359855" lon="-3.034352204261881"><ele>17.0</ele><time>2026-04-30T14:00:45Z</time></trkpt><trkpt lat="43.30215233367496" lon="-3.0344197464221905"><ele>17.0</ele><time>2026-04-30T14:00:46Z</time></trkpt><trkpt lat="43.30220764079208" lon="-3.0344881991246053"><ele>16.999999999999996</ele><time>2026-04-30T14:00:47Z</time></trkpt><trkpt lat="43.30226214288214" lon="-3.0345548907331388"><ele>17.0</ele><time>2026-04-30T14:00:48Z</time></trkpt><trkpt lat="43.30231846472599" lon="-3.034620136909383"><ele>17.333333333333336</ele><time>2026-04-30T14:00:49Z</time></trkpt><trkpt lat="43.30237421264023" lon="-3.0346870634598497"><ele>17.666666666666668</ele><time>2026-04-30T14:00:50Z</time></trkpt><trkpt lat="43.30242692819288" lon="-3.0347590100831"><ele>18.0</ele><time>2026-04-30T14:00:51Z</time></trkpt><trkpt lat="43.30248013632942" lon="-3.0348276860856576"><ele>18.333333333333332</ele><time>2026-04-30T14:00:52Z</time></trkpt><trkpt lat="43.30253220346729" lon="-3.0348943311228633"><ele>18.666666666666664</ele><time>2026-04-30T14:00:53Z</time></trkpt><trkpt lat="43.30258018655251" lon="-3.034959095341956"><ele>19.0</ele><time>2026-04-30T14:00:54Z</time></trkpt><trkpt lat="43.30266780797869" lon="-3.0350636428096296"><ele>19.166666666666664</ele><time>2026-04-30T14:00:56Z</time></trkpt><trkpt lat="43.30273858207552" lon="-3.0351492786969816"><ele>19.333333333333332</ele><time>2026-04-30T14:00:58Z</time></trkpt><trkpt lat="43.30279733546325" lon="-3.035207643747158"><ele>19.5</ele><time>2026-04-30T14:01:00Z</time></trkpt><trkpt lat="43.30286813191264" lon="-3.03527701035591"><ele>19.666666666666668</ele><time>2026-04-30T14:01:03Z</time></trkpt><trkpt lat="43.30293594303576" lon="-3.035321729528042"><ele>19.833333333333336</ele><time>2026-04-30T14:01:08.001Z</time></trkpt><trkpt lat="43.30300447369475" lon="-3.0353671174295043"><ele>20.0</ele><time>2026-04-30T14:01:10.001Z</time></trkpt><trkpt lat="43.30308899635854" lon="-3.0354622139190806"><ele>20.666666666666668</ele><time>2026-04-30T14:01:12.001Z</time></trkpt><trkpt lat="43.303198525038155" lon="-3.035539722277301"><ele>21.333333333333336</ele><time>2026-04-30T14:01:14.001Z</time></trkpt><trkpt lat="43.303254019296766" lon="-3.035586810666274"><ele>22.0</ele><time>2026-04-30T14:01:15.001Z</time></trkpt><trkpt lat="43.303309754342735" lon="-3.0356423406924873"><ele>22.666666666666668</ele><time>2026-04-30T14:01:16.001Z</time></trkpt><trkpt lat="43.30336657959599" lon="-3.0356971498358267"><ele>23.333333333333332</ele><time>2026-04-30T14:01:17.001Z</time></trkpt><trkpt lat="43.30342498296933" lon="-3.035748941561333"><ele>24.0</ele><time>2026-04-30T14:01:18.001Z</time></trkpt><trkpt lat="43.303480171704436" lon="-3.035799757667823"><ele>24.428571428571427</ele><time>2026-04-30T14:01:19.001Z</time></trkpt><trkpt lat="43.30352701046958" lon="-3.0358632191583523"><ele>24.857142857142858</ele><time>2026-04-30T14:01:20.001Z</time></trkpt><trkpt lat="43.303589135437356" lon="-3.0359102062144436"><ele>25.285714285714285</ele><time>2026-04-30T14:01:21.001Z</time></trkpt><trkpt lat="43.303643275821535" lon="-3.0359725980870347"><ele>25.714285714285715</ele><time>2026-04-30T14:01:22.001Z</time></trkpt><trkpt lat="43.303706165433596" lon="-3.0360206081023926"><ele>26.142857142857142</ele><time>2026-04-30T14:01:23.001Z</time></trkpt><trkpt lat="43.30376780520561" lon="-3.0360716686731886"><ele>26.57142857142857</ele><time>2026-04-30T14:01:24.001Z</time></trkpt><trkpt lat="43.30382473965515" lon="-3.036127417219989"><ele>27.0</ele><time>2026-04-30T14:01:25.001Z</time></trkpt><trkpt lat="43.30388624090082" lon="-3.0361758744464638"><ele>27.0</ele><time>2026-04-30T14:01:26.001Z</time></trkpt><trkpt lat="43.30394065905955" lon="-3.036240426718948"><ele>27.0</ele><time>2026-04-30T14:01:27.001Z</time></trkpt><trkpt lat="43.30400240368531" lon="-3.036285057220473"><ele>27.0</ele><time>2026-04-30T14:01:28.001Z</time></trkpt><trkpt lat="43.304062259215314" lon="-3.036334789414822"><ele>27.0</ele><time>2026-04-30T14:01:29.001Z</time></trkpt><trkpt lat="43.30412094789438" lon="-3.036386539156923"><ele>27.0</ele><time>2026-04-30T14:01:30.001Z</time></trkpt><trkpt lat="43.30418214947156" lon="-3.036436531549377"><ele>27.0</ele><time>2026-04-30T14:01:31.001Z</time></trkpt><trkpt lat="43.30424412582623" lon="-3.0364816973173494"><ele>27.0</ele><time>2026-04-30T14:01:32.001Z</time></trkpt><trkpt lat="43.30430439272585" lon="-3.0365337807708723"><ele>27.0</ele><time>2026-04-30T14:01:33.001Z</time></trkpt><trkpt lat="43.3043615090513" lon="-3.0365869134583816"><ele>27.0</ele><time>2026-04-30T14:01:34.001Z</time></trkpt><trkpt lat="43.304421959055574" lon="-3.036646069207909"><ele>27.0</ele><time>2026-04-30T14:01:35.001Z</time></trkpt><trkpt lat="43.30448393041499" lon="-3.0367002687052698"><ele>27.0</ele><time>2026-04-30T14:01:36.001Z</time></trkpt><trkpt lat="43.30454503570953" lon="-3.0367539065527303"><ele>27.0</ele><time>2026-04-30T14:01:37.001Z</time></trkpt><trkpt lat="43.30460838777375" lon="-3.0368019444966023"><ele>27.0</ele><time>2026-04-30T14:01:38.001Z</time></trkpt><trkpt lat="43.30467015466606" lon="-3.0368583862957097"><ele>27.0</ele><time>2026-04-30T14:01:39.001Z</time></trkpt><trkpt lat="43.304729221529634" lon="-3.0369204907034573"><ele>27.8</ele><time>2026-04-30T14:01:40.001Z</time></trkpt><trkpt lat="43.30479089502399" lon="-3.0369762449627973"><ele>28.6</ele><time>2026-04-30T14:01:41.002Z</time></trkpt><trkpt lat="43.30484786179155" lon="-3.037030111766923"><ele>29.400000000000002</ele><time>2026-04-30T14:01:42.002Z</time></trkpt><trkpt lat="43.30490453405991" lon="-3.0370706232137694"><ele>30.200000000000003</ele><time>2026-04-30T14:01:43.002Z</time></trkpt><trkpt lat="43.30501211425616" lon="-3.037138856287969"><ele>31.0</ele><time>2026-04-30T14:01:45.002Z</time></trkpt><trkpt lat="43.30512867926719" lon="-3.0372133296286514"><ele>31.0</ele><time>2026-04-30T14:01:47.002Z</time></trkpt><trkpt lat="43.30520471878337" lon="-3.0373469683325"><ele>31.0</ele><time>2026-04-30T14:01:49.002Z</time></trkpt><trkpt lat="43.305287678998496" lon="-3.037457960272481"><ele>31.0</ele><time>2026-04-30T14:01:51.002Z</time></trkpt><trkpt lat="43.30534529435683" lon="-3.0375230897658265"><ele>31.0</ele><time>2026-04-30T14:02:11.002Z</time></trkpt><trkpt lat="43.305387316958665" lon="-3.037590703930062"><ele>31.0</ele><time>2026-04-30T14:02:13.002Z</time></trkpt><trkpt lat="43.30545271836441" lon="-3.037688985867895"><ele>31.333333333333336</ele><time>2026-04-30T14:02:15.003Z</time></trkpt><trkpt lat="43.30553609007264" lon="-3.0378066107131825"><ele>31.666666666666668</ele><time>2026-04-30T14:02:17.003Z</time></trkpt><trkpt lat="43.30557602016173" lon="-3.0378759663440573"><ele>32.0</ele><time>2026-04-30T14:02:18.003Z</time></trkpt><trkpt lat="43.305616108574064" lon="-3.037951334203012"><ele>32.333333333333336</ele><time>2026-04-30T14:02:19.003Z</time></trkpt><trkpt lat="43.305655028608804" lon="-3.0380312923270627"><ele>32.666666666666664</ele><time>2026-04-30T14:02:20.003Z</time></trkpt><trkpt lat="43.30568865344422" lon="-3.0381187358246025"><ele>33.0</ele><time>2026-04-30T14:02:21.003Z</time></trkpt><trkpt lat="43.30570987415161" lon="-3.0382170235329085"><ele>32.333333333333336</ele><time>2026-04-30T14:02:22.003Z</time></trkpt><trkpt lat="43.305728583448925" lon="-3.0383154249606767"><ele>31.666666666666664</ele><time>2026-04-30T14:02:23.003Z</time></trkpt><trkpt lat="43.30574519269274" lon="-3.0384178099323167"><ele>31.0</ele><time>2026-04-30T14:02:24.003Z</time></trkpt><trkpt lat="43.305759968152486" lon="-3.038521201806612"><ele>30.333333333333332</ele><time>2026-04-30T14:02:25.003Z</time></trkpt><trkpt lat="43.30576992423746" lon="-3.0386315680985687"><ele>29.666666666666664</ele><time>2026-04-30T14:02:26.003Z</time></trkpt><trkpt lat="43.30576654663497" lon="-3.0387441793924026"><ele>29.0</ele><time>2026-04-30T14:02:27.003Z</time></trkpt><trkpt lat="43.30575664107796" lon="-3.0388578660470142"><ele>28.999999999999996</ele><time>2026-04-30T14:02:28.003Z</time></trkpt><trkpt lat="43.30573654549125" lon="-3.038965487629578"><ele>29.0</ele><time>2026-04-30T14:02:29.003Z</time></trkpt><trkpt lat="43.30572051836735" lon="-3.039075970079718"><ele>29.0</ele><time>2026-04-30T14:02:30.003Z</time></trkpt><trkpt lat="43.30570078744104" lon="-3.0391867880965067"><ele>29.0</ele><time>2026-04-30T14:02:31.003Z</time></trkpt><trkpt lat="43.30567865731216" lon="-3.039299361556628"><ele>28.999999999999996</ele><time>2026-04-30T14:02:32.003Z</time></trkpt><trkpt lat="43.30566008965766" lon="-3.0394159414840285"><ele>29.0</ele><time>2026-04-30T14:02:33.003Z</time></trkpt><trkpt lat="43.305642155822625" lon="-3.039527932597139"><ele>28.833333333333332</ele><time>2026-04-30T14:02:34.003Z</time></trkpt><trkpt lat="43.30562969594805" lon="-3.0396459556273747"><ele>28.666666666666664</ele><time>2026-04-30T14:02:35.001Z</time></trkpt><trkpt lat="43.30562528400548" lon="-3.0397661519439083"><ele>28.5</ele><time>2026-04-30T14:02:36Z</time></trkpt><trkpt lat="43.30563221872936" lon="-3.0398844990474796"><ele>28.333333333333336</ele><time>2026-04-30T14:02:37Z</time></trkpt><trkpt lat="43.30564420733887" lon="-3.039998856816529"><ele>28.166666666666668</ele><time>2026-04-30T14:02:38Z</time></trkpt><trkpt lat="43.30567275310019" lon="-3.04011355727571"><ele>28.0</ele><time>2026-04-30T14:02:39Z</time></trkpt><trkpt lat="43.30571333094493" lon="-3.040224049691114"><ele>28.000000000000004</ele><time>2026-04-30T14:02:40Z</time></trkpt><trkpt lat="43.305760973863705" lon="-3.0403289950627497"><ele>28.0</ele><time>2026-04-30T14:02:41Z</time></trkpt><trkpt lat="43.305816313537676" lon="-3.0404213874804045"><ele>28.0</ele><time>2026-04-30T14:02:42Z</time></trkpt><trkpt lat="43.30588180777748" lon="-3.0405015959819606"><ele>28.0</ele><time>2026-04-30T14:02:43Z</time></trkpt><trkpt lat="43.30594800341111" lon="-3.040566925246243"><ele>28.000000000000004</ele><time>2026-04-30T14:02:44Z</time></trkpt><trkpt lat="43.306008337235944" lon="-3.040626792550879"><ele>28.0</ele><time>2026-04-30T14:02:45Z</time></trkpt><trkpt lat="43.306066943672704" lon="-3.040672317003862"><ele>28.0</ele><time>2026-04-30T14:02:46Z</time></trkpt><trkpt lat="43.30614828470385" lon="-3.0407361985893506"><ele>27.999999999999996</ele><time>2026-04-30T14:02:48Z</time></trkpt><trkpt lat="43.30622565126793" lon="-3.0408033959861136"><ele>27.999999999999996</ele><time>2026-04-30T14:03:14.001Z</time></trkpt><trkpt lat="43.306304162315975" lon="-3.0408617765396913"><ele>28.0</ele><time>2026-04-30T14:03:16.001Z</time></trkpt><trkpt lat="43.306408217797205" lon="-3.040935873719829"><ele>28.0</ele><time>2026-04-30T14:03:18.001Z</time></trkpt><trkpt lat="43.30646573268531" lon="-3.0409795565938653"><ele>28.0</ele><time>2026-04-30T14:03:19.001Z</time></trkpt><trkpt lat="43.30652622868331" lon="-3.041024940584442"><ele>28.0</ele><time>2026-04-30T14:03:20.001Z</time></trkpt><trkpt lat="43.30658639575849" lon="-3.041073647563925"><ele>28.0</ele><time>2026-04-30T14:03:21.001Z</time></trkpt><trkpt lat="43.30664890659533" lon="-3.041122796272576"><ele>28.0</ele><time>2026-04-30T14:03:22.001Z</time></trkpt><trkpt lat="43.30671855545283" lon="-3.0411595252113486"><ele>28.0</ele><time>2026-04-30T14:03:23.001Z</time></trkpt><trkpt lat="43.306793197493484" lon="-3.0411747035285246"><ele>28.0</ele><time>2026-04-30T14:03:24.001Z</time></trkpt><trkpt lat="43.30686851953075" lon="-3.0411822015668535"><ele>28.0</ele><time>2026-04-30T14:03:25.001Z</time></trkpt><trkpt lat="43.306940743767065" lon="-3.0411900852888953"><ele>28.000000000000004</ele><time>2026-04-30T14:03:26.001Z</time></trkpt><trkpt lat="43.30701107841228" lon="-3.0411851651372603"><ele>28.0</ele><time>2026-04-30T14:03:27.001Z</time></trkpt><trkpt lat="43.307074692822056" lon="-3.0411982141687384"><ele>28.0</ele><time>2026-04-30T14:03:28.001Z</time></trkpt><trkpt lat="43.30713117918307" lon="-3.041305965225481"><ele>28.0</ele><time>2026-04-30T14:03:29.001Z</time></trkpt><trkpt lat="43.30713818246363" lon="-3.0414115053759785"><ele>28.000000000000004</ele><time>2026-04-30T14:03:30.001Z</time></trkpt><trkpt lat="43.30713657133582" lon="-3.041507300864897"><ele>28.0</ele><time>2026-04-30T14:03:31.001Z</time></trkpt><trkpt lat="43.307107406759904" lon="-3.0415978314493977"><ele>28.833333333333336</ele><time>2026-04-30T14:03:32.001Z</time></trkpt><trkpt lat="43.30705978073704" lon="-3.041678084245858"><ele>29.666666666666668</ele><time>2026-04-30T14:03:33.001Z</time></trkpt><trkpt lat="43.307012966016806" lon="-3.0417625370532515"><ele>30.5</ele><time>2026-04-30T14:03:34.001Z</time></trkpt><trkpt lat="43.30697245191121" lon="-3.041858859260337"><ele>31.333333333333336</ele><time>2026-04-30T14:03:35.001Z</time></trkpt><trkpt lat="43.306934291351695" lon="-3.0419558686089823"><ele>32.166666666666664</ele><time>2026-04-30T14:03:36.001Z</time></trkpt><trkpt lat="43.30690120953174" lon="-3.0420548828665828"><ele>33.0</ele><time>2026-04-30T14:03:37.001Z</time></trkpt><trkpt lat="43.306871564078335" lon="-3.0421536876257393"><ele>33.0</ele><time>2026-04-30T14:03:38.001Z</time></trkpt><trkpt lat="43.30684429421037" lon="-3.0422560647945613"><ele>33.0</ele><time>2026-04-30T14:03:39.001Z</time></trkpt><trkpt lat="43.30681637045576" lon="-3.0423595474233083"><ele>33.0</ele><time>2026-04-30T14:03:40.001Z</time></trkpt><trkpt lat="43.30678882585805" lon="-3.0424638569923346"><ele>33.0</ele><time>2026-04-30T14:03:41.001Z</time></trkpt><trkpt lat="43.30675912558719" lon="-3.0425712026393077"><ele>33.0</ele><time>2026-04-30T14:03:42.001Z</time></trkpt><trkpt lat="43.30672894134388" lon="-3.0426784728442775"><ele>33.0</ele><time>2026-04-30T14:03:43.001Z</time></trkpt><trkpt lat="43.30669919737888" lon="-3.0427870246353645"><ele>33.333333333333336</ele><time>2026-04-30T14:03:44.001Z</time></trkpt><trkpt lat="43.30666957004093" lon="-3.0428984512755255"><ele>33.666666666666664</ele><time>2026-04-30T14:03:45.001Z</time></trkpt><trkpt lat="43.30663925197682" lon="-3.0430053560844748"><ele>34.0</ele><time>2026-04-30T14:03:46.001Z</time></trkpt><trkpt lat="43.30660767517929" lon="-3.04311551201254"><ele>34.33333333333333</ele><time>2026-04-30T14:03:47.001Z</time></trkpt><trkpt lat="43.306577824851395" lon="-3.0432257777176424"><ele>34.666666666666664</ele><time>2026-04-30T14:03:48.002Z</time></trkpt><trkpt lat="43.30654758703549" lon="-3.043335639927845"><ele>35.0</ele><time>2026-04-30T14:03:49.002Z</time></trkpt><trkpt lat="43.30652009875989" lon="-3.0434467436873907"><ele>35.166666666666664</ele><time>2026-04-30T14:03:50.002Z</time></trkpt><trkpt lat="43.30649122558936" lon="-3.0435606376739295"><ele>35.33333333333333</ele><time>2026-04-30T14:03:51.002Z</time></trkpt><trkpt lat="43.3064626227759" lon="-3.043671041058853"><ele>35.5</ele><time>2026-04-30T14:03:52.002Z</time></trkpt><trkpt lat="43.30643293773374" lon="-3.0437821089377786"><ele>35.666666666666664</ele><time>2026-04-30T14:03:53.002Z</time></trkpt><trkpt lat="43.30640236004738" lon="-3.0438963130249572"><ele>35.833333333333336</ele><time>2026-04-30T14:03:54.002Z</time></trkpt><trkpt lat="43.30636843568248" lon="-3.0440095554334388"><ele>36.0</ele><time>2026-04-30T14:03:55.002Z</time></trkpt><trkpt lat="43.306339218536806" lon="-3.044120376391971"><ele>35.6</ele><time>2026-04-30T14:03:56.002Z</time></trkpt><trkpt lat="43.30630965705307" lon="-3.044238365873483"><ele>35.2</ele><time>2026-04-30T14:03:57.002Z</time></trkpt><trkpt lat="43.30628093552473" lon="-3.0443578280518633"><ele>34.8</ele><time>2026-04-30T14:03:58.002Z</time></trkpt><trkpt lat="43.30625479473219" lon="-3.0444823105275414"><ele>34.4</ele><time>2026-04-30T14:03:59.002Z</time></trkpt><trkpt lat="43.306229823644145" lon="-3.044607660183201"><ele>34.0</ele><time>2026-04-30T14:04:00.002Z</time></trkpt><trkpt lat="43.30620983692977" lon="-3.0447324015260357"><ele>34.0</ele><time>2026-04-30T14:04:01.002Z</time></trkpt><trkpt lat="43.30619184519953" lon="-3.0448573640467695"><ele>34.0</ele><time>2026-04-30T14:04:02.002Z</time></trkpt><trkpt lat="43.30617537794453" lon="-3.0449860675496705"><ele>34.0</ele><time>2026-04-30T14:04:03.002Z</time></trkpt><trkpt lat="43.30617047039918" lon="-3.045114465452571"><ele>34.0</ele><time>2026-04-30T14:04:04.002Z</time></trkpt><trkpt lat="43.306168281363036" lon="-3.045242808357954"><ele>34.0</ele><time>2026-04-30T14:04:05.002Z</time></trkpt><trkpt lat="43.306168326417776" lon="-3.045367953369389"><ele>34.4</ele><time>2026-04-30T14:04:06.002Z</time></trkpt><trkpt lat="43.30617415159108" lon="-3.045496672939325"><ele>34.8</ele><time>2026-04-30T14:04:07.002Z</time></trkpt><trkpt lat="43.30617953068361" lon="-3.045623417415311"><ele>35.2</ele><time>2026-04-30T14:04:08.002Z</time></trkpt><trkpt lat="43.30618763937439" lon="-3.045750035232011"><ele>35.6</ele><time>2026-04-30T14:04:09.002Z</time></trkpt><trkpt lat="43.306195156924794" lon="-3.0458776872778075"><ele>36.0</ele><time>2026-04-30T14:04:10.002Z</time></trkpt><trkpt lat="43.30620345785357" lon="-3.0460030724329354"><ele>36.4</ele><time>2026-04-30T14:04:11.002Z</time></trkpt><trkpt lat="43.306210543172085" lon="-3.046128476723777"><ele>36.8</ele><time>2026-04-30T14:04:12.002Z</time></trkpt><trkpt lat="43.30622022473059" lon="-3.0462501228126375"><ele>37.199999999999996</ele><time>2026-04-30T14:04:13.002Z</time></trkpt><trkpt lat="43.306230666697594" lon="-3.046372512532876"><ele>37.6</ele><time>2026-04-30T14:04:14.002Z</time></trkpt><trkpt lat="43.30624106014816" lon="-3.0464956004020407"><ele>38.0</ele><time>2026-04-30T14:04:15.002Z</time></trkpt><trkpt lat="43.30625023969729" lon="-3.046617397031168"><ele>38.0</ele><time>2026-04-30T14:04:16.002Z</time></trkpt><trkpt lat="43.30625922700177" lon="-3.046741179731183"><ele>38.0</ele><time>2026-04-30T14:04:17.002Z</time></trkpt><trkpt lat="43.30627145217772" lon="-3.046864093030579"><ele>38.0</ele><time>2026-04-30T14:04:18.002Z</time></trkpt><trkpt lat="43.306283569633386" lon="-3.0469902901498074"><ele>38.0</ele><time>2026-04-30T14:04:19.002Z</time></trkpt><trkpt lat="43.30629627354129" lon="-3.047116503334169"><ele>38.0</ele><time>2026-04-30T14:04:20.002Z</time></trkpt><trkpt lat="43.30630978421888" lon="-3.0472437705256494"><ele>38.0</ele><time>2026-04-30T14:04:21.002Z</time></trkpt><trkpt lat="43.30632361772342" lon="-3.047372449889376"><ele>38.0</ele><time>2026-04-30T14:04:22.002Z</time></trkpt><trkpt lat="43.30633889483291" lon="-3.0475023560190886"><ele>38.0</ele><time>2026-04-30T14:04:23.002Z</time></trkpt><trkpt lat="43.306355870787726" lon="-3.0476342153845"><ele>38.0</ele><time>2026-04-30T14:04:24.002Z</time></trkpt><trkpt lat="43.30637170163639" lon="-3.047762654328703"><ele>38.0</ele><time>2026-04-30T14:04:25.002Z</time></trkpt><trkpt lat="43.306386467831395" lon="-3.047890948855987"><ele>38.0</ele><time>2026-04-30T14:04:26.002Z</time></trkpt><trkpt lat="43.306400221892076" lon="-3.048019318087381"><ele>38.0</ele><time>2026-04-30T14:04:27.002Z</time></trkpt><trkpt lat="43.306415938520615" lon="-3.048149545098894"><ele>38.0</ele><time>2026-04-30T14:04:28.002Z</time></trkpt><trkpt lat="43.30643468084293" lon="-3.0482801874349743"><ele>38.0</ele><time>2026-04-30T14:04:29.003Z</time></trkpt><trkpt lat="43.306452895750496" lon="-3.04840932106066"><ele>38.0</ele><time>2026-04-30T14:04:30.003Z</time></trkpt><trkpt lat="43.30647280252599" lon="-3.048536912388455"><ele>39.8</ele><time>2026-04-30T14:04:31.003Z</time></trkpt><trkpt lat="43.30649172865991" lon="-3.048664383759401"><ele>41.599999999999994</ele><time>2026-04-30T14:04:32.003Z</time></trkpt><trkpt lat="43.306510056071865" lon="-3.0487922456449987"><ele>43.400000000000006</ele><time>2026-04-30T14:04:33.003Z</time></trkpt><trkpt lat="43.306530682658966" lon="-3.0489183257412975"><ele>45.2</ele><time>2026-04-30T14:04:34.003Z</time></trkpt><trkpt lat="43.30655006872405" lon="-3.049046615957976"><ele>47.0</ele><time>2026-04-30T14:04:35.003Z</time></trkpt><trkpt lat="43.30657171722528" lon="-3.0491753251270155"><ele>47.0</ele><time>2026-04-30T14:04:36.003Z</time></trkpt><trkpt lat="43.30659381263222" lon="-3.049298709542372"><ele>47.0</ele><time>2026-04-30T14:04:37.003Z</time></trkpt><trkpt lat="43.30661751904617" lon="-3.049423878239303"><ele>47.0</ele><time>2026-04-30T14:04:38.003Z</time></trkpt><trkpt lat="43.306638828141764" lon="-3.049552794745617"><ele>47.0</ele><time>2026-04-30T14:04:39.003Z</time></trkpt><trkpt lat="43.30665936825035" lon="-3.0496812442806216"><ele>47.0</ele><time>2026-04-30T14:04:40.003Z</time></trkpt><trkpt lat="43.30667969408358" lon="-3.049809722243578"><ele>47.0</ele><time>2026-04-30T14:04:41Z</time></trkpt><trkpt lat="43.30670027290672" lon="-3.0499361665483193"><ele>47.0</ele><time>2026-04-30T14:04:42Z</time></trkpt><trkpt lat="43.306724381166624" lon="-3.0500594046321727"><ele>47.0</ele><time>2026-04-30T14:04:43Z</time></trkpt><trkpt lat="43.30675345750198" lon="-3.050175267303079"><ele>47.0</ele><time>2026-04-30T14:04:44Z</time></trkpt><trkpt lat="43.30678867468906" lon="-3.0502902687234776"><ele>47.0</ele><time>2026-04-30T14:04:45Z</time></trkpt><trkpt lat="43.306824352667824" lon="-3.050401771451614"><ele>46.666666666666664</ele><time>2026-04-30T14:04:46Z</time></trkpt><trkpt lat="43.306866827453625" lon="-3.050510051081971"><ele>46.33333333333333</ele><time>2026-04-30T14:04:47Z</time></trkpt><trkpt lat="43.30691635816808" lon="-3.050611536165083"><ele>46.0</ele><time>2026-04-30T14:04:48Z</time></trkpt><trkpt lat="43.306972302783024" lon="-3.0507049741835033"><ele>45.666666666666664</ele><time>2026-04-30T14:04:49Z</time></trkpt><trkpt lat="43.307033753752215" lon="-3.0507887472408806"><ele>45.333333333333336</ele><time>2026-04-30T14:04:50Z</time></trkpt><trkpt lat="43.307103076234476" lon="-3.050855824938701"><ele>45.0</ele><time>2026-04-30T14:04:51Z</time></trkpt><trkpt lat="43.30717022972611" lon="-3.050917940087023"><ele>45.0</ele><time>2026-04-30T14:04:52Z</time></trkpt><trkpt lat="43.30724131959187" lon="-3.0509738030953644"><ele>45.0</ele><time>2026-04-30T14:04:53Z</time></trkpt><trkpt lat="43.307317498624656" lon="-3.051019050854631"><ele>45.0</ele><time>2026-04-30T14:04:54Z</time></trkpt><trkpt lat="43.30739476765743" lon="-3.0510642930185785"><ele>45.0</ele><time>2026-04-30T14:04:55Z</time></trkpt><trkpt lat="43.30747582940287" lon="-3.0511097473182125"><ele>45.0</ele><time>2026-04-30T14:04:56Z</time></trkpt><trkpt lat="43.307557289558225" lon="-3.0511585850567715"><ele>45.0</ele><time>2026-04-30T14:04:57Z</time></trkpt><trkpt lat="43.30764327175335" lon="-3.0512043390714436"><ele>46.4</ele><time>2026-04-30T14:04:58Z</time></trkpt><trkpt lat="43.30773469438645" lon="-3.0512491435197413"><ele>47.8</ele><time>2026-04-30T14:04:59Z</time></trkpt><trkpt lat="43.30782819391063" lon="-3.051297972730331"><ele>49.2</ele><time>2026-04-30T14:05:00Z</time></trkpt><trkpt lat="43.30791744530857" lon="-3.05135925388052"><ele>50.6</ele><time>2026-04-30T14:05:01Z</time></trkpt><trkpt lat="43.308008827072605" lon="-3.05144102637537"><ele>52.0</ele><time>2026-04-30T14:05:02Z</time></trkpt><trkpt lat="43.30809177586869" lon="-3.05154329832764"><ele>53.400000000000006</ele><time>2026-04-30T14:05:03Z</time></trkpt><trkpt lat="43.3081717724271" lon="-3.051645476603973"><ele>54.800000000000004</ele><time>2026-04-30T14:05:04Z</time></trkpt><trkpt lat="43.30824065289052" lon="-3.051745001505787"><ele>56.2</ele><time>2026-04-30T14:05:05Z</time></trkpt><trkpt lat="43.30830310593409" lon="-3.0518491292269565"><ele>57.6</ele><time>2026-04-30T14:05:06Z</time></trkpt><trkpt lat="43.30836328459712" lon="-3.051951334492105"><ele>59.0</ele><time>2026-04-30T14:05:07Z</time></trkpt><trkpt lat="43.30842373000244" lon="-3.05205031463942"><ele>59.00000000000001</ele><time>2026-04-30T14:05:08Z</time></trkpt><trkpt lat="43.30847983193959" lon="-3.05214901858638"><ele>59.0</ele><time>2026-04-30T14:05:09Z</time></trkpt><trkpt lat="43.30853681689808" lon="-3.052243052813926"><ele>59.0</ele><time>2026-04-30T14:05:10Z</time></trkpt><trkpt lat="43.30859435221741" lon="-3.052335376484847"><ele>59.0</ele><time>2026-04-30T14:05:11Z</time></trkpt><trkpt lat="43.30865278605473" lon="-3.0524270466531838"><ele>59.00000000000001</ele><time>2026-04-30T14:05:12Z</time></trkpt><trkpt lat="43.30871164513817" lon="-3.052518670303194"><ele>59.0</ele><time>2026-04-30T14:05:13Z</time></trkpt><trkpt lat="43.30877177504644" lon="-3.052606591507706"><ele>58.66666666666667</ele><time>2026-04-30T14:05:14Z</time></trkpt><trkpt lat="43.30883091797521" lon="-3.052693126023616"><ele>58.333333333333336</ele><time>2026-04-30T14:05:15.001Z</time></trkpt><trkpt lat="43.30888514484434" lon="-3.0527819295865286"><ele>58.0</ele><time>2026-04-30T14:05:16.001Z</time></trkpt><trkpt lat="43.30894673195622" lon="-3.0528512054861676"><ele>57.66666666666667</ele><time>2026-04-30T14:05:17.001Z</time></trkpt><trkpt lat="43.309007060368174" lon="-3.0529198636661"><ele>57.333333333333336</ele><time>2026-04-30T14:05:18.001Z</time></trkpt><trkpt lat="43.30905853060364" lon="-3.0529941848459066"><ele>57.0</ele><time>2026-04-30T14:05:19.001Z</time></trkpt><trkpt lat="43.30909874273522" lon="-3.0530699888976107"><ele>58.0</ele><time>2026-04-30T14:05:20.001Z</time></trkpt><trkpt lat="43.30913952135187" lon="-3.0531424358631507"><ele>59.0</ele><time>2026-04-30T14:05:21.001Z</time></trkpt><trkpt lat="43.309205518518375" lon="-3.053271271410176"><ele>60.0</ele><time>2026-04-30T14:05:23.001Z</time></trkpt><trkpt lat="43.3092502627671" lon="-3.0533853128620763"><ele>61.0</ele><time>2026-04-30T14:05:25.001Z</time></trkpt><trkpt lat="43.309277592526485" lon="-3.053481587969559"><ele>62.0</ele><time>2026-04-30T14:05:27.001Z</time></trkpt><trkpt lat="43.30931088512551" lon="-3.053585776044761"><ele>63.0</ele><time>2026-04-30T14:05:30.001Z</time></trkpt><trkpt lat="43.30934943646465" lon="-3.053699542707829"><ele>63.0</ele><time>2026-04-30T14:05:33.001Z</time></trkpt><trkpt lat="43.309342928118966" lon="-3.0538141494505875"><ele>63.0</ele><time>2026-04-30T14:05:35.001Z</time></trkpt><trkpt lat="43.30933115975624" lon="-3.0539317723785016"><ele>63.0</ele><time>2026-04-30T14:05:37.001Z</time></trkpt><trkpt lat="43.30930116993364" lon="-3.0540489579424546"><ele>63.0</ele><time>2026-04-30T14:05:39.001Z</time></trkpt><trkpt lat="43.3093123832895" lon="-3.0542065007136165"><ele>63.0</ele><time>2026-04-30T14:05:41.001Z</time></trkpt><trkpt lat="43.30932080786404" lon="-3.0542954193601632"><ele>63.0</ele><time>2026-04-30T14:05:42.001Z</time></trkpt><trkpt lat="43.30932812957604" lon="-3.054386730094707"><ele>63.0</ele><time>2026-04-30T14:05:43.001Z</time></trkpt><trkpt lat="43.3093295583424" lon="-3.0544757644221376"><ele>63.0</ele><time>2026-04-30T14:05:44.001Z</time></trkpt><trkpt lat="43.30934256982692" lon="-3.0545711554001564"><ele>63.0</ele><time>2026-04-30T14:05:45.001Z</time></trkpt><trkpt lat="43.30935778910829" lon="-3.0546691651558695"><ele>63.0</ele><time>2026-04-30T14:05:46.001Z</time></trkpt><trkpt lat="43.30937347768477" lon="-3.054770007363256"><ele>63.0</ele><time>2026-04-30T14:05:47.001Z</time></trkpt><trkpt lat="43.30939284977209" lon="-3.054877167793432"><ele>63.0</ele><time>2026-04-30T14:05:48.001Z</time></trkpt><trkpt lat="43.30941459023206" lon="-3.0549874442242397"><ele>63.0</ele><time>2026-04-30T14:05:49.001Z</time></trkpt><trkpt lat="43.30942875168357" lon="-3.055094298063068"><ele>63.0</ele><time>2026-04-30T14:05:50.001Z</time></trkpt><trkpt lat="43.30944931001229" lon="-3.055200551260969"><ele>63.0</ele><time>2026-04-30T14:05:51.001Z</time></trkpt><trkpt lat="43.30947433990645" lon="-3.055303466251253"><ele>63.0</ele><time>2026-04-30T14:05:52.001Z</time></trkpt><trkpt lat="43.30951146577359" lon="-3.0554067909662743"><ele>63.0</ele><time>2026-04-30T14:05:53.001Z</time></trkpt><trkpt lat="43.30954834488349" lon="-3.0555030871750604"><ele>63.0</ele><time>2026-04-30T14:05:54.002Z</time></trkpt><trkpt lat="43.30958633976001" lon="-3.055593062423174"><ele>63.0</ele><time>2026-04-30T14:05:55.002Z</time></trkpt><trkpt lat="43.309625737178436" lon="-3.055676102776437"><ele>63.0</ele><time>2026-04-30T14:05:56.002Z</time></trkpt><trkpt lat="43.30967174195902" lon="-3.0557510594436965"><ele>63.0</ele><time>2026-04-30T14:05:57.002Z</time></trkpt><trkpt lat="43.30972139287175" lon="-3.055823117576285"><ele>63.0</ele><time>2026-04-30T14:05:58.002Z</time></trkpt><trkpt lat="43.30977534762724" lon="-3.0558879891927075"><ele>63.0</ele><time>2026-04-30T14:05:59.002Z</time></trkpt><trkpt lat="43.309834521383195" lon="-3.0559473946741487"><ele>63.0</ele><time>2026-04-30T14:06:00.002Z</time></trkpt><trkpt lat="43.30989560667755" lon="-3.0560019813002786"><ele>63.0</ele><time>2026-04-30T14:06:01.002Z</time></trkpt><trkpt lat="43.309959064745094" lon="-3.0560488104474466"><ele>63.0</ele><time>2026-04-30T14:06:02.002Z</time></trkpt><trkpt lat="43.31002751807799" lon="-3.0560915220811653"><ele>64.16666666666667</ele><time>2026-04-30T14:06:03.002Z</time></trkpt><trkpt lat="43.310097991276415" lon="-3.056130098046236"><ele>65.33333333333333</ele><time>2026-04-30T14:06:04.002Z</time></trkpt><trkpt lat="43.310169574133866" lon="-3.056170398516075"><ele>66.5</ele><time>2026-04-30T14:06:05.002Z</time></trkpt><trkpt lat="43.31024346878769" lon="-3.0562109987164416"><ele>67.66666666666666</ele><time>2026-04-30T14:06:06.002Z</time></trkpt><trkpt lat="43.310313982782816" lon="-3.056257186444969"><ele>68.83333333333333</ele><time>2026-04-30T14:06:07.002Z</time></trkpt><trkpt lat="43.31038247778177" lon="-3.05630514751511"><ele>70.0</ele><time>2026-04-30T14:06:08.002Z</time></trkpt><trkpt lat="43.310450828846456" lon="-3.0563559567855263"><ele>70.0</ele><time>2026-04-30T14:06:09.002Z</time></trkpt><trkpt lat="43.310520242907025" lon="-3.056409367351699"><ele>70.0</ele><time>2026-04-30T14:06:10.002Z</time></trkpt><trkpt lat="43.31059167229191" lon="-3.0564599666002565"><ele>70.0</ele><time>2026-04-30T14:06:11.002Z</time></trkpt><trkpt lat="43.310665576062696" lon="-3.0565121049210697"><ele>70.0</ele><time>2026-04-30T14:06:12.002Z</time></trkpt><trkpt lat="43.31073825050093" lon="-3.0565682584557785"><ele>70.0</ele><time>2026-04-30T14:06:13.002Z</time></trkpt><trkpt lat="43.310808082843394" lon="-3.0566269945544673"><ele>70.0</ele><time>2026-04-30T14:06:14.002Z</time></trkpt><trkpt lat="43.310876805119996" lon="-3.05669270462129"><ele>70.83333333333333</ele><time>2026-04-30T14:06:15.002Z</time></trkpt><trkpt lat="43.31093857368605" lon="-3.0567632574009087"><ele>71.66666666666666</ele><time>2026-04-30T14:06:16.002Z</time></trkpt><trkpt lat="43.31099936429801" lon="-3.0568356368233975"><ele>72.5</ele><time>2026-04-30T14:06:17.002Z</time></trkpt><trkpt lat="43.31106322076053" lon="-3.056906044227321"><ele>73.33333333333333</ele><time>2026-04-30T14:06:18.002Z</time></trkpt><trkpt lat="43.311125885731336" lon="-3.0569797898810314"><ele>74.16666666666667</ele><time>2026-04-30T14:06:19.002Z</time></trkpt><trkpt lat="43.311190877508686" lon="-3.057051895483446"><ele>75.0</ele><time>2026-04-30T14:06:20.002Z</time></trkpt><trkpt lat="43.311253990459" lon="-3.057129270904391"><ele>75.0</ele><time>2026-04-30T14:06:21.002Z</time></trkpt><trkpt lat="43.31131525450241" lon="-3.057211347826506"><ele>75.0</ele><time>2026-04-30T14:06:22.002Z</time></trkpt><trkpt lat="43.311374757653105" lon="-3.0572986793828596"><ele>75.0</ele><time>2026-04-30T14:06:23.002Z</time></trkpt><trkpt lat="43.311432243242" lon="-3.0573896513590957"><ele>75.0</ele><time>2026-04-30T14:06:24.002Z</time></trkpt><trkpt lat="43.31148590581751" lon="-3.057479977186333"><ele>75.0</ele><time>2026-04-30T14:06:25.002Z</time></trkpt><trkpt lat="43.31153272412313" lon="-3.057580929192944"><ele>75.0</ele><time>2026-04-30T14:06:26.002Z</time></trkpt><trkpt lat="43.31158373689036" lon="-3.057675505477489"><ele>74.66666666666667</ele><time>2026-04-30T14:06:27.002Z</time></trkpt><trkpt lat="43.31163048991646" lon="-3.057779507093583"><ele>74.33333333333333</ele><time>2026-04-30T14:06:28.002Z</time></trkpt><trkpt lat="43.3116790820677" lon="-3.0578784351484445"><ele>74.0</ele><time>2026-04-30T14:06:29.002Z</time></trkpt><trkpt lat="43.311724215688045" lon="-3.057984460733015"><ele>73.66666666666666</ele><time>2026-04-30T14:06:30.002Z</time></trkpt><trkpt lat="43.311773894585464" lon="-3.0580853878229153"><ele>73.33333333333333</ele><time>2026-04-30T14:06:31.002Z</time></trkpt><trkpt lat="43.31181978633213" lon="-3.058190673622709"><ele>73.0</ele><time>2026-04-30T14:06:32.002Z</time></trkpt><trkpt lat="43.31186690949758" lon="-3.0582956439914692"><ele>73.0</ele><time>2026-04-30T14:06:33.003Z</time></trkpt><trkpt lat="43.31191922060922" lon="-3.0583989565172534"><ele>73.0</ele><time>2026-04-30T14:06:34.003Z</time></trkpt><trkpt lat="43.31196748254231" lon="-3.058505919332284"><ele>73.0</ele><time>2026-04-30T14:06:35.003Z</time></trkpt><trkpt lat="43.312014000768116" lon="-3.0586155859612996"><ele>73.0</ele><time>2026-04-30T14:06:36.003Z</time></trkpt><trkpt lat="43.31206271771728" lon="-3.058720171911249"><ele>73.0</ele><time>2026-04-30T14:06:37.003Z</time></trkpt><trkpt lat="43.31211212010838" lon="-3.058830690665524"><ele>73.0</ele><time>2026-04-30T14:06:38.003Z</time></trkpt><trkpt lat="43.312174048209826" lon="-3.058928030973761"><ele>73.0</ele><time>2026-04-30T14:06:39.003Z</time></trkpt><trkpt lat="43.31224050598493" lon="-3.0590189158648724"><ele>73.0</ele><time>2026-04-30T14:06:40.003Z</time></trkpt><trkpt lat="43.312311804870006" lon="-3.059106455991922"><ele>73.0</ele><time>2026-04-30T14:06:41.003Z</time></trkpt><trkpt lat="43.31238576173553" lon="-3.059187891965598"><ele>73.0</ele><time>2026-04-30T14:06:42.003Z</time></trkpt><trkpt lat="43.31246225414967" lon="-3.0592644480887112"><ele>73.8</ele><time>2026-04-30T14:06:43.003Z</time></trkpt><trkpt lat="43.31254100446485" lon="-3.059329771760251"><ele>74.6</ele><time>2026-04-30T14:06:44.003Z</time></trkpt><trkpt lat="43.31262098143571" lon="-3.0593950206276443"><ele>75.4</ele><time>2026-04-30T14:06:45.003Z</time></trkpt><trkpt lat="43.3127013502294" lon="-3.0594610469219057"><ele>76.2</ele><time>2026-04-30T14:06:46.003Z</time></trkpt><trkpt lat="43.31278020166781" lon="-3.059528452330294"><ele>77.0</ele><time>2026-04-30T14:06:46.999Z</time></trkpt><trkpt lat="43.312859649801965" lon="-3.059595568764037"><ele>77.0</ele><time>2026-04-30T14:06:47.999Z</time></trkpt><trkpt lat="43.31293993946705" lon="-3.059662999340315"><ele>77.0</ele><time>2026-04-30T14:06:48.999Z</time></trkpt><trkpt lat="43.31302020289781" lon="-3.0597295718486817"><ele>77.0</ele><time>2026-04-30T14:06:49.999Z</time></trkpt><trkpt lat="43.313099911126976" lon="-3.05979820622123"><ele>77.0</ele><time>2026-04-30T14:06:50.999Z</time></trkpt><trkpt lat="43.31318108308321" lon="-3.0598665731103285"><ele>77.0</ele><time>2026-04-30T14:06:51.999Z</time></trkpt><trkpt lat="43.313261116176115" lon="-3.059935359179852"><ele>77.4</ele><time>2026-04-30T14:06:52.999Z</time></trkpt><trkpt lat="43.313341271090465" lon="-3.060005038116371"><ele>77.80000000000001</ele><time>2026-04-30T14:06:53.999Z</time></trkpt><trkpt lat="43.31342108696318" lon="-3.0600728499639436"><ele>78.2</ele><time>2026-04-30T14:06:54.999Z</time></trkpt><trkpt lat="43.31350198543553" lon="-3.0601414031510052"><ele>78.60000000000001</ele><time>2026-04-30T14:06:55.999Z</time></trkpt><trkpt lat="43.313581030709095" lon="-3.060209604035795"><ele>79.0</ele><time>2026-04-30T14:06:56.999Z</time></trkpt><trkpt lat="43.313660997754674" lon="-3.06027920870222"><ele>79.0</ele><time>2026-04-30T14:06:58Z</time></trkpt><trkpt lat="43.31374310608311" lon="-3.0603444153405164"><ele>79.0</ele><time>2026-04-30T14:06:59Z</time></trkpt><trkpt lat="43.31382523316807" lon="-3.0604179187174565"><ele>79.0</ele><time>2026-04-30T14:07:00Z</time></trkpt><trkpt lat="43.31390825232487" lon="-3.060488063756458"><ele>79.0</ele><time>2026-04-30T14:07:01Z</time></trkpt><trkpt lat="43.31399098987853" lon="-3.060560368800876"><ele>79.0</ele><time>2026-04-30T14:07:02Z</time></trkpt><trkpt lat="43.314077561462696" lon="-3.0606328603461734"><ele>78.60000000000001</ele><time>2026-04-30T14:07:03Z</time></trkpt><trkpt lat="43.31416107996379" lon="-3.0607021068761333"><ele>78.2</ele><time>2026-04-30T14:07:04Z</time></trkpt><trkpt lat="43.314241598259144" lon="-3.060779317435642"><ele>77.80000000000001</ele><time>2026-04-30T14:07:05Z</time></trkpt><trkpt lat="43.31432655805877" lon="-3.0608510160023354"><ele>77.4</ele><time>2026-04-30T14:07:06Z</time></trkpt><trkpt lat="43.314409932099096" lon="-3.060926518880776"><ele>77.0</ele><time>2026-04-30T14:07:07Z</time></trkpt><trkpt lat="43.31449586120313" lon="-3.060999825417698"><ele>77.0</ele><time>2026-04-30T14:07:08Z</time></trkpt><trkpt lat="43.314580193141715" lon="-3.061073388522813"><ele>77.0</ele><time>2026-04-30T14:07:09Z</time></trkpt><trkpt lat="43.314665016692864" lon="-3.0611475844892113"><ele>77.0</ele><time>2026-04-30T14:07:10Z</time></trkpt><trkpt lat="43.314749522543345" lon="-3.0612198478003765"><ele>77.0</ele><time>2026-04-30T14:07:11Z</time></trkpt><trkpt lat="43.31484237613618" lon="-3.0612888485866967"><ele>77.0</ele><time>2026-04-30T14:07:12Z</time></trkpt><trkpt lat="43.31493035463026" lon="-3.061349810315513"><ele>79.6</ele><time>2026-04-30T14:07:13Z</time></trkpt><trkpt lat="43.315028148940314" lon="-3.061389696223753"><ele>82.2</ele><time>2026-04-30T14:07:14Z</time></trkpt><trkpt lat="43.31512933241745" lon="-3.061416407502062"><ele>84.8</ele><time>2026-04-30T14:07:15Z</time></trkpt><trkpt lat="43.3152321029461" lon="-3.0614262104870837"><ele>87.4</ele><time>2026-04-30T14:07:16Z</time></trkpt><trkpt lat="43.315330771540424" lon="-3.061424325565144"><ele>90.0</ele><time>2026-04-30T14:07:17Z</time></trkpt><trkpt lat="43.31542859348844" lon="-3.061425519775759"><ele>90.0</ele><time>2026-04-30T14:07:18Z</time></trkpt><trkpt lat="43.31552158769186" lon="-3.061425132229469"><ele>90.0</ele><time>2026-04-30T14:07:19Z</time></trkpt><trkpt lat="43.315613373947826" lon="-3.0614251533857733"><ele>90.0</ele><time>2026-04-30T14:07:20Z</time></trkpt><trkpt lat="43.315706710091526" lon="-3.061421451735158"><ele>90.0</ele><time>2026-04-30T14:07:21Z</time></trkpt><trkpt lat="43.3158009688632" lon="-3.0614097581583057"><ele>90.0</ele><time>2026-04-30T14:07:22Z</time></trkpt><trkpt lat="43.31588989250799" lon="-3.0613900006104626"><ele>90.6</ele><time>2026-04-30T14:07:23Z</time></trkpt><trkpt lat="43.31598086957826" lon="-3.0613620478604906"><ele>91.2</ele><time>2026-04-30T14:07:24Z</time></trkpt><trkpt lat="43.31606814253851" lon="-3.06133286968958"><ele>91.80000000000001</ele><time>2026-04-30T14:07:25Z</time></trkpt><trkpt lat="43.31615858192689" lon="-3.0612909065888734"><ele>92.4</ele><time>2026-04-30T14:07:26Z</time></trkpt><trkpt lat="43.316246349469466" lon="-3.061249990534883"><ele>93.0</ele><time>2026-04-30T14:07:27Z</time></trkpt><trkpt lat="43.31633262265579" lon="-3.0612017302001355"><ele>92.0</ele><time>2026-04-30T14:07:28.001Z</time></trkpt><trkpt lat="43.31642071698575" lon="-3.061155050616996"><ele>91.0</ele><time>2026-04-30T14:07:29.001Z</time></trkpt><trkpt lat="43.31650598163623" lon="-3.0611077448473973"><ele>90.0</ele><time>2026-04-30T14:07:30.001Z</time></trkpt><trkpt lat="43.31659115565506" lon="-3.0610588925846502"><ele>89.0</ele><time>2026-04-30T14:07:31.001Z</time></trkpt><trkpt lat="43.31667828693161" lon="-3.06101087289318"><ele>88.0</ele><time>2026-04-30T14:07:32.001Z</time></trkpt><trkpt lat="43.316767005787035" lon="-3.060961973308417"><ele>88.0</ele><time>2026-04-30T14:07:33.001Z</time></trkpt><trkpt lat="43.316857013429576" lon="-3.06091760700694"><ele>88.0</ele><time>2026-04-30T14:07:34.001Z</time></trkpt><trkpt lat="43.31694687277342" lon="-3.0608779811329945"><ele>88.0</ele><time>2026-04-30T14:07:35.001Z</time></trkpt><trkpt lat="43.31703885562267" lon="-3.0608398039144924"><ele>88.0</ele><time>2026-04-30T14:07:36.001Z</time></trkpt><trkpt lat="43.317132433292024" lon="-3.0608089017816966"><ele>88.0</ele><time>2026-04-30T14:07:37.001Z</time></trkpt><trkpt lat="43.317225566195916" lon="-3.060780887671656"><ele>87.80000000000001</ele><time>2026-04-30T14:07:38.001Z</time></trkpt><trkpt lat="43.31732317185919" lon="-3.060758253496844"><ele>87.6</ele><time>2026-04-30T14:07:39.001Z</time></trkpt><trkpt lat="43.317421604503" lon="-3.060742251300763"><ele>87.4</ele><time>2026-04-30T14:07:40.001Z</time></trkpt><trkpt lat="43.31752092606272" lon="-3.0607320234026583"><ele>87.19999999999999</ele><time>2026-04-30T14:07:41.001Z</time></trkpt><trkpt lat="43.31761842597356" lon="-3.0607253356233586"><ele>87.0</ele><time>2026-04-30T14:07:42.001Z</time></trkpt><trkpt lat="43.31771751363488" lon="-3.060728333786166"><ele>87.0</ele><time>2026-04-30T14:07:43.001Z</time></trkpt><trkpt lat="43.31781665501633" lon="-3.060740845149028"><ele>87.0</ele><time>2026-04-30T14:07:44.001Z</time></trkpt><trkpt lat="43.31791311932806" lon="-3.0607596180342562"><ele>87.0</ele><time>2026-04-30T14:07:45.001Z</time></trkpt><trkpt lat="43.31801947378684" lon="-3.060786556241375"><ele>87.0</ele><time>2026-04-30T14:07:46.001Z</time></trkpt><trkpt lat="43.31815363715794" lon="-3.060816422880223"><ele>87.0</ele><time>2026-04-30T14:07:47.001Z</time></trkpt><trkpt lat="43.31831631520826" lon="-3.0608664932687177"><ele>87.25</ele><time>2026-04-30T14:07:48.001Z</time></trkpt><trkpt lat="43.31845333467912" lon="-3.0610794026029455"><ele>87.5</ele><time>2026-04-30T14:07:49.001Z</time></trkpt><trkpt lat="43.31838680704103" lon="-3.0610192085895025"><ele>87.75</ele><time>2026-04-30T14:07:50.001Z</time></trkpt><trkpt lat="43.31846734607695" lon="-3.0610987359043755"><ele>88.0</ele><time>2026-04-30T14:07:51.001Z</time></trkpt><trkpt lat="43.31854501263866" lon="-3.0611913997842994"><ele>88.0</ele><time>2026-04-30T14:07:52.001Z</time></trkpt><trkpt lat="43.318617069520805" lon="-3.061295291244442"><ele>88.0</ele><time>2026-04-30T14:07:53.001Z</time></trkpt><trkpt lat="43.31868909381007" lon="-3.061391749697266"><ele>88.0</ele><time>2026-04-30T14:07:54.001Z</time></trkpt><trkpt lat="43.31876545605208" lon="-3.061484350495692"><ele>88.0</ele><time>2026-04-30T14:07:55.001Z</time></trkpt><trkpt lat="43.31883892431397" lon="-3.061572869057695"><ele>88.0</ele><time>2026-04-30T14:07:56.001Z</time></trkpt><trkpt lat="43.31890645270553" lon="-3.0616720442221723"><ele>87.60000000000001</ele><time>2026-04-30T14:07:57.001Z</time></trkpt><trkpt lat="43.31897026826994" lon="-3.061775822923009"><ele>87.2</ele><time>2026-04-30T14:07:58.001Z</time></trkpt><trkpt lat="43.31902956765453" lon="-3.061880046433655"><ele>86.8</ele><time>2026-04-30T14:07:59.001Z</time></trkpt><trkpt lat="43.319081357934806" lon="-3.0619956389388294"><ele>86.4</ele><time>2026-04-30T14:08:00.001Z</time></trkpt><trkpt lat="43.31912146369111" lon="-3.0621100533246426"><ele>86.0</ele><time>2026-04-30T14:08:01.001Z</time></trkpt><trkpt lat="43.31914465995748" lon="-3.062248984979462"><ele>86.0</ele><time>2026-04-30T14:08:02.001Z</time></trkpt><trkpt lat="43.319171407434816" lon="-3.062384365255333"><ele>86.0</ele><time>2026-04-30T14:08:03.002Z</time></trkpt><trkpt lat="43.319200925161546" lon="-3.0625111776364875"><ele>86.0</ele><time>2026-04-30T14:08:04.002Z</time></trkpt><trkpt lat="43.31922925402708" lon="-3.0626321376165024"><ele>86.0</ele><time>2026-04-30T14:08:05.002Z</time></trkpt><trkpt lat="43.319260118838976" lon="-3.062760642058555"><ele>86.0</ele><time>2026-04-30T14:08:06.002Z</time></trkpt><trkpt lat="43.319287194682715" lon="-3.0628889767043437"><ele>87.19999999999999</ele><time>2026-04-30T14:08:07.002Z</time></trkpt><trkpt lat="43.319315011606115" lon="-3.063021329493113"><ele>88.39999999999999</ele><time>2026-04-30T14:08:08.002Z</time></trkpt><trkpt lat="43.319343659908874" lon="-3.063147944133757"><ele>89.6</ele><time>2026-04-30T14:08:09.002Z</time></trkpt><trkpt lat="43.31936825143609" lon="-3.063276004522976"><ele>90.8</ele><time>2026-04-30T14:08:10.002Z</time></trkpt><trkpt lat="43.319403208764676" lon="-3.063402765770273"><ele>92.0</ele><time>2026-04-30T14:08:11.002Z</time></trkpt><trkpt lat="43.319436648472475" lon="-3.0635313994323896"><ele>93.0</ele><time>2026-04-30T14:08:12.002Z</time></trkpt><trkpt lat="43.31946821814509" lon="-3.063659731151818"><ele>94.0</ele><time>2026-04-30T14:08:13.002Z</time></trkpt><trkpt lat="43.31949980587953" lon="-3.0637868820474363"><ele>95.0</ele><time>2026-04-30T14:08:14.002Z</time></trkpt><trkpt lat="43.319530257567756" lon="-3.063914228751297"><ele>96.0</ele><time>2026-04-30T14:08:15.002Z</time></trkpt><trkpt lat="43.319568765399005" lon="-3.0640407938382808"><ele>97.0</ele><time>2026-04-30T14:08:16.002Z</time></trkpt><trkpt lat="43.319617177027496" lon="-3.0641556865466644"><ele>97.0</ele><time>2026-04-30T14:08:17.002Z</time></trkpt><trkpt lat="43.319678622811814" lon="-3.0642637036863203"><ele>97.0</ele><time>2026-04-30T14:08:18.002Z</time></trkpt><trkpt lat="43.31974744617993" lon="-3.0643642512761082"><ele>97.0</ele><time>2026-04-30T14:08:19.002Z</time></trkpt><trkpt lat="43.31982096442524" lon="-3.0644541092441377"><ele>97.0</ele><time>2026-04-30T14:08:20.002Z</time></trkpt><trkpt lat="43.31989811230306" lon="-3.0645387202218815"><ele>97.0</ele><time>2026-04-30T14:08:21.002Z</time></trkpt><trkpt lat="43.319971420108864" lon="-3.0646243862982163"><ele>96.39999999999999</ele><time>2026-04-30T14:08:22.002Z</time></trkpt><trkpt lat="43.32004488153258" lon="-3.0647071453877843"><ele>95.8</ele><time>2026-04-30T14:08:23.002Z</time></trkpt><trkpt lat="43.32011403793014" lon="-3.0647908826920127"><ele>95.2</ele><time>2026-04-30T14:08:24.002Z</time></trkpt><trkpt lat="43.32018346211167" lon="-3.06487063636202"><ele>94.6</ele><time>2026-04-30T14:08:25.002Z</time></trkpt><trkpt lat="43.320254832484366" lon="-3.064951887380617"><ele>94.0</ele><time>2026-04-30T14:08:26.002Z</time></trkpt><trkpt lat="43.32032311296577" lon="-3.0650325076966247"><ele>94.5</ele><time>2026-04-30T14:08:27.002Z</time></trkpt><trkpt lat="43.320392293611896" lon="-3.065109204165563"><ele>95.0</ele><time>2026-04-30T14:08:28.002Z</time></trkpt><trkpt lat="43.32046072835101" lon="-3.065187767157356"><ele>95.5</ele><time>2026-04-30T14:08:29.002Z</time></trkpt><trkpt lat="43.320529238166785" lon="-3.0652669437146423"><ele>96.0</ele><time>2026-04-30T14:08:30.002Z</time></trkpt><trkpt lat="43.32059656658013" lon="-3.065343676129094"><ele>96.50000000000001</ele><time>2026-04-30T14:08:31.002Z</time></trkpt><trkpt lat="43.320664417434365" lon="-3.0654197368650147"><ele>97.0</ele><time>2026-04-30T14:08:32.002Z</time></trkpt><trkpt lat="43.32072917720083" lon="-3.0654970538807427"><ele>97.00000000000001</ele><time>2026-04-30T14:08:33.002Z</time></trkpt><trkpt lat="43.3207944517863" lon="-3.0655751056532767"><ele>97.0</ele><time>2026-04-30T14:08:34.002Z</time></trkpt><trkpt lat="43.320857641438586" lon="-3.065657276992463"><ele>97.0</ele><time>2026-04-30T14:08:35.002Z</time></trkpt><trkpt lat="43.3209167231011" lon="-3.06574454188382"><ele>97.0</ele><time>2026-04-30T14:08:36.002Z</time></trkpt><trkpt lat="43.32097590445591" lon="-3.0658339481872328"><ele>97.00000000000001</ele><time>2026-04-30T14:08:37.002Z</time></trkpt><trkpt lat="43.32103101767308" lon="-3.0659250120479626"><ele>97.0</ele><time>2026-04-30T14:08:38.002Z</time></trkpt><trkpt lat="43.32108524736124" lon="-3.066021154499971"><ele>97.66666666666667</ele><time>2026-04-30T14:08:39.002Z</time></trkpt><trkpt lat="43.32114110269322" lon="-3.0661149829415657"><ele>98.33333333333334</ele><time>2026-04-30T14:08:40.003Z</time></trkpt><trkpt lat="43.32119445797783" lon="-3.066210993623803"><ele>99.0</ele><time>2026-04-30T14:08:41.003Z</time></trkpt><trkpt lat="43.32125041222411" lon="-3.066306443252335"><ele>99.66666666666666</ele><time>2026-04-30T14:08:42.003Z</time></trkpt><trkpt lat="43.321306449597074" lon="-3.0664044975602804"><ele>100.33333333333333</ele><time>2026-04-30T14:08:43.003Z</time></trkpt><trkpt lat="43.32136162254256" lon="-3.066501478022111"><ele>101.0</ele><time>2026-04-30T14:08:44.003Z</time></trkpt><trkpt lat="43.3214139354597" lon="-3.0666036221229103"><ele>103.0</ele><time>2026-04-30T14:08:45.003Z</time></trkpt><trkpt lat="43.32146038666331" lon="-3.0667079371190216"><ele>105.0</ele><time>2026-04-30T14:08:46.003Z</time></trkpt><trkpt lat="43.32150507244562" lon="-3.0668197180698598"><ele>107.0</ele><time>2026-04-30T14:08:47.003Z</time></trkpt><trkpt lat="43.32154384075931" lon="-3.066933830087859"><ele>109.0</ele><time>2026-04-30T14:08:48.003Z</time></trkpt><trkpt lat="43.32157725762063" lon="-3.0670481251218527"><ele>111.0</ele><time>2026-04-30T14:08:49.003Z</time></trkpt><trkpt lat="43.321608418328466" lon="-3.0671596084836183"><ele>111.0</ele><time>2026-04-30T14:08:50.003Z</time></trkpt><trkpt lat="43.32163363300386" lon="-3.0672683306480937"><ele>111.0</ele><time>2026-04-30T14:08:51.003Z</time></trkpt><trkpt lat="43.321659048121994" lon="-3.0673830578577665"><ele>111.0</ele><time>2026-04-30T14:08:52.003Z</time></trkpt><trkpt lat="43.321677527338814" lon="-3.067499968183212"><ele>111.0</ele><time>2026-04-30T14:08:53Z</time></trkpt><trkpt lat="43.32168711747669" lon="-3.0676185592425766"><ele>111.0</ele><time>2026-04-30T14:08:54Z</time></trkpt><trkpt lat="43.32168985426443" lon="-3.067736939112308"><ele>111.0</ele><time>2026-04-30T14:08:55Z</time></trkpt><trkpt lat="43.32168803516661" lon="-3.0678542203525203"><ele>111.5</ele><time>2026-04-30T14:08:56Z</time></trkpt><trkpt lat="43.321683965310825" lon="-3.067972510299791"><ele>112.0</ele><time>2026-04-30T14:08:57Z</time></trkpt><trkpt lat="43.3216743727422" lon="-3.068091105662055"><ele>112.5</ele><time>2026-04-30T14:08:58Z</time></trkpt><trkpt lat="43.321659108627884" lon="-3.0682066666451515"><ele>113.0</ele><time>2026-04-30T14:08:59Z</time></trkpt><trkpt lat="43.3216489217646" lon="-3.068323958723172"><ele>113.5</ele><time>2026-04-30T14:09:00Z</time></trkpt><trkpt lat="43.32164178024732" lon="-3.068438417567043"><ele>114.0</ele><time>2026-04-30T14:09:01Z</time></trkpt><trkpt lat="43.32163846386534" lon="-3.0685528405332274"><ele>114.16666666666667</ele><time>2026-04-30T14:09:02Z</time></trkpt><trkpt lat="43.32164408183046" lon="-3.0686669254171144"><ele>114.33333333333334</ele><time>2026-04-30T14:09:03Z</time></trkpt><trkpt lat="43.321662077257514" lon="-3.068782712650974"><ele>114.5</ele><time>2026-04-30T14:09:04Z</time></trkpt><trkpt lat="43.32168749078902" lon="-3.068897349315995"><ele>114.66666666666667</ele><time>2026-04-30T14:09:05Z</time></trkpt><trkpt lat="43.3217193080792" lon="-3.069014020342998"><ele>114.83333333333334</ele><time>2026-04-30T14:09:06Z</time></trkpt><trkpt lat="43.32175939690421" lon="-3.0691286175755748"><ele>115.0</ele><time>2026-04-30T14:09:07Z</time></trkpt><trkpt lat="43.32179920197957" lon="-3.0692460591409816"><ele>115.0</ele><time>2026-04-30T14:09:08Z</time></trkpt><trkpt lat="43.321843143629344" lon="-3.069363662283916"><ele>115.0</ele><time>2026-04-30T14:09:09Z</time></trkpt><trkpt lat="43.32188987097672" lon="-3.069484602301075"><ele>115.0</ele><time>2026-04-30T14:09:10Z</time></trkpt><trkpt lat="43.32194255750231" lon="-3.069602365015968"><ele>115.0</ele><time>2026-04-30T14:09:11Z</time></trkpt><trkpt lat="43.32198498782701" lon="-3.069733547204217"><ele>115.0</ele><time>2026-04-30T14:09:12Z</time></trkpt><trkpt lat="43.32203140937042" lon="-3.0698987583794497"><ele>113.75</ele><time>2026-04-30T14:09:13Z</time></trkpt><trkpt lat="43.3220883185875" lon="-3.0700468935100047"><ele>112.5</ele><time>2026-04-30T14:09:14Z</time></trkpt><trkpt lat="43.32219044725223" lon="-3.0702010424156105"><ele>111.25</ele><time>2026-04-30T14:09:16Z</time></trkpt><trkpt lat="43.32222150344357" lon="-3.0703478475976484"><ele>110.0</ele><time>2026-04-30T14:09:17Z</time></trkpt><trkpt lat="43.32226269567464" lon="-3.070485141698012"><ele>113.0</ele><time>2026-04-30T14:09:18Z</time></trkpt><trkpt lat="43.32230514401995" lon="-3.0706163482087376"><ele>116.0</ele><time>2026-04-30T14:09:19Z</time></trkpt><trkpt lat="43.3223438225896" lon="-3.0707447152213314"><ele>119.0</ele><time>2026-04-30T14:09:20Z</time></trkpt><trkpt lat="43.32237305590083" lon="-3.0708760544757703"><ele>122.0</ele><time>2026-04-30T14:09:21Z</time></trkpt><trkpt lat="43.322394017752295" lon="-3.0710113974210262"><ele>125.0</ele><time>2026-04-30T14:09:22Z</time></trkpt><trkpt lat="43.322396822754094" lon="-3.0711497864032746"><ele>125.0</ele><time>2026-04-30T14:09:23Z</time></trkpt><trkpt lat="43.322388203182555" lon="-3.0712914430900153"><ele>125.0</ele><time>2026-04-30T14:09:24Z</time></trkpt><trkpt lat="43.32236733403107" lon="-3.0714233494866034"><ele>125.0</ele><time>2026-04-30T14:09:25Z</time></trkpt><trkpt lat="43.32233190467436" lon="-3.0715510101738697"><ele>125.0</ele><time>2026-04-30T14:09:26.001Z</time></trkpt><trkpt lat="43.322288996986764" lon="-3.0716719430693193"><ele>125.0</ele><time>2026-04-30T14:09:27.001Z</time></trkpt><trkpt lat="43.32224629639615" lon="-3.071788336403678"><ele>122.8</ele><time>2026-04-30T14:09:28.001Z</time></trkpt><trkpt lat="43.322215295943856" lon="-3.0719047630467733"><ele>120.6</ele><time>2026-04-30T14:09:29.001Z</time></trkpt><trkpt lat="43.322173325334475" lon="-3.0720223616857765"><ele>118.4</ele><time>2026-04-30T14:09:30.001Z</time></trkpt><trkpt lat="43.3221285050837" lon="-3.0721417187028512"><ele>116.2</ele><time>2026-04-30T14:09:31.001Z</time></trkpt><trkpt lat="43.32208625796606" lon="-3.072255251432871"><ele>114.0</ele><time>2026-04-30T14:09:32.001Z</time></trkpt><trkpt lat="43.32205150094669" lon="-3.072364130763352"><ele>114.83333333333333</ele><time>2026-04-30T14:09:33.001Z</time></trkpt><trkpt lat="43.32201125897463" lon="-3.072469757097194"><ele>115.66666666666666</ele><time>2026-04-30T14:09:34.001Z</time></trkpt><trkpt lat="43.32197630788293" lon="-3.072574902185186"><ele>116.5</ele><time>2026-04-30T14:09:35.001Z</time></trkpt><trkpt lat="43.32194048662123" lon="-3.0726698102131254"><ele>117.33333333333333</ele><time>2026-04-30T14:09:36.001Z</time></trkpt><trkpt lat="43.321911430634316" lon="-3.072790197430009"><ele>118.16666666666666</ele><time>2026-04-30T14:09:37.001Z</time></trkpt><trkpt lat="43.321881217573214" lon="-3.0729017524408104"><ele>119.0</ele><time>2026-04-30T14:09:38.001Z</time></trkpt><trkpt lat="43.32186187508613" lon="-3.073024069302888"><ele>119.0</ele><time>2026-04-30T14:09:39.001Z</time></trkpt><trkpt lat="43.32185145092786" lon="-3.0731437944947264"><ele>119.0</ele><time>2026-04-30T14:09:40.001Z</time></trkpt><trkpt lat="43.321842826614315" lon="-3.073266173586859"><ele>119.0</ele><time>2026-04-30T14:09:41.001Z</time></trkpt><trkpt lat="43.32183274425195" lon="-3.073405628505688"><ele>119.0</ele><time>2026-04-30T14:09:42.001Z</time></trkpt><trkpt lat="43.321831864947114" lon="-3.0735485210995126"><ele>119.0</ele><time>2026-04-30T14:09:43.001Z</time></trkpt><trkpt lat="43.32183394808926" lon="-3.0736851431114536"><ele>119.2</ele><time>2026-04-30T14:09:44.001Z</time></trkpt><trkpt lat="43.321828590673356" lon="-3.0738232901286304"><ele>119.4</ele><time>2026-04-30T14:09:45.001Z</time></trkpt><trkpt lat="43.32182423258999" lon="-3.0739623900442417"><ele>119.6</ele><time>2026-04-30T14:09:46.001Z</time></trkpt><trkpt lat="43.32182562798421" lon="-3.0741066591080344"><ele>119.8</ele><time>2026-04-30T14:09:47.001Z</time></trkpt><trkpt lat="43.321831652952056" lon="-3.0742444702423386"><ele>120.0</ele><time>2026-04-30T14:09:48.001Z</time></trkpt><trkpt lat="43.32184509867445" lon="-3.074381220783291"><ele>120.0</ele><time>2026-04-30T14:09:49.001Z</time></trkpt><trkpt lat="43.32187296994436" lon="-3.074513470602381"><ele>120.0</ele><time>2026-04-30T14:09:50.001Z</time></trkpt><trkpt lat="43.32191084898133" lon="-3.074638833363726"><ele>120.0</ele><time>2026-04-30T14:09:51.001Z</time></trkpt><trkpt lat="43.321962195521834" lon="-3.074763927539066"><ele>120.0</ele><time>2026-04-30T14:09:52.001Z</time></trkpt><trkpt lat="43.322008869048865" lon="-3.07489001151776"><ele>120.0</ele><time>2026-04-30T14:09:53.001Z</time></trkpt><trkpt lat="43.32205924187314" lon="-3.075014045546842"><ele>119.8</ele><time>2026-04-30T14:09:54.001Z</time></trkpt><trkpt lat="43.322111541141346" lon="-3.0751416429287604"><ele>119.6</ele><time>2026-04-30T14:09:55.001Z</time></trkpt><trkpt lat="43.32216137135971" lon="-3.075269039894716"><ele>119.4</ele><time>2026-04-30T14:09:56.001Z</time></trkpt><trkpt lat="43.32221155498045" lon="-3.075394360899133"><ele>119.2</ele><time>2026-04-30T14:09:57.001Z</time></trkpt><trkpt lat="43.32226129734692" lon="-3.0755203121842283"><ele>119.0</ele><time>2026-04-30T14:09:58.001Z</time></trkpt><trkpt lat="43.32231246663016" lon="-3.0756455164911585"><ele>116.6</ele><time>2026-04-30T14:09:59.001Z</time></trkpt><trkpt lat="43.32236476182796" lon="-3.0757729374682374"><ele>114.2</ele><time>2026-04-30T14:10:00.001Z</time></trkpt><trkpt lat="43.32241636592413" lon="-3.075897183766946"><ele>111.79999999999998</ele><time>2026-04-30T14:10:01.002Z</time></trkpt><trkpt lat="43.32246687445639" lon="-3.0760263735711644"><ele>109.39999999999999</ele><time>2026-04-30T14:10:02.002Z</time></trkpt><trkpt lat="43.32251257398829" lon="-3.076152525324498"><ele>107.0</ele><time>2026-04-30T14:10:03.002Z</time></trkpt><trkpt lat="43.32255444700271" lon="-3.0762893977159127"><ele>107.0</ele><time>2026-04-30T14:10:04.002Z</time></trkpt><trkpt lat="43.322593481317135" lon="-3.076424195159529"><ele>106.99999999999999</ele><time>2026-04-30T14:10:05.002Z</time></trkpt><trkpt lat="43.322628962177106" lon="-3.0765623958077417"><ele>106.99999999999999</ele><time>2026-04-30T14:10:06.002Z</time></trkpt><trkpt lat="43.3226590203797" lon="-3.0767043742898017"><ele>107.0</ele><time>2026-04-30T14:10:07.002Z</time></trkpt><trkpt lat="43.322688099341384" lon="-3.0768491493238352"><ele>107.0</ele><time>2026-04-30T14:10:08.002Z</time></trkpt><trkpt lat="43.32271325325135" lon="-3.07699268979731"><ele>106.6</ele><time>2026-04-30T14:10:09.002Z</time></trkpt><trkpt lat="43.32274195205719" lon="-3.0771427524031982"><ele>106.19999999999999</ele><time>2026-04-30T14:10:10.002Z</time></trkpt><trkpt lat="43.3227700646404" lon="-3.077286559152819"><ele>105.8</ele><time>2026-04-30T14:10:11.002Z</time></trkpt><trkpt lat="43.322796920055566" lon="-3.0774334749366754"><ele>105.4</ele><time>2026-04-30T14:10:12.002Z</time></trkpt><trkpt lat="43.32282212390872" lon="-3.0775745706146296"><ele>105.0</ele><time>2026-04-30T14:10:13.002Z</time></trkpt><trkpt lat="43.322850405508866" lon="-3.0777189353905072"><ele>104.6</ele><time>2026-04-30T14:10:14.002Z</time></trkpt><trkpt lat="43.32286950627827" lon="-3.0778585950247876"><ele>104.2</ele><time>2026-04-30T14:10:15.002Z</time></trkpt><trkpt lat="43.32288096981547" lon="-3.078002069790885"><ele>103.80000000000001</ele><time>2026-04-30T14:10:16.002Z</time></trkpt><trkpt lat="43.32288441628174" lon="-3.078140821741133"><ele>103.4</ele><time>2026-04-30T14:10:17.002Z</time></trkpt><trkpt lat="43.32287647434634" lon="-3.078280774476573"><ele>103.0</ele><time>2026-04-30T14:10:18.002Z</time></trkpt><trkpt lat="43.32286580318948" lon="-3.0784118788829207"><ele>103.0</ele><time>2026-04-30T14:10:19.002Z</time></trkpt><trkpt lat="43.32285561387925" lon="-3.078547380959678"><ele>103.0</ele><time>2026-04-30T14:10:20.002Z</time></trkpt><trkpt lat="43.322855964386" lon="-3.0786737966857713"><ele>103.0</ele><time>2026-04-30T14:10:21.002Z</time></trkpt><trkpt lat="43.32287179818375" lon="-3.0787984744952497"><ele>103.0</ele><time>2026-04-30T14:10:22.002Z</time></trkpt><trkpt lat="43.322895577881944" lon="-3.0789126333325685"><ele>103.0</ele><time>2026-04-30T14:10:23.002Z</time></trkpt><trkpt lat="43.32290392183445" lon="-3.0790337910198633"><ele>101.60000000000001</ele><time>2026-04-30T14:10:24.002Z</time></trkpt><trkpt lat="43.32289305599329" lon="-3.079152551850586"><ele>100.2</ele><time>2026-04-30T14:10:25.002Z</time></trkpt><trkpt lat="43.322840018542344" lon="-3.0792586766989087"><ele>98.8</ele><time>2026-04-30T14:10:26.002Z</time></trkpt><trkpt lat="43.322772811591285" lon="-3.0793503911113547"><ele>97.4</ele><time>2026-04-30T14:10:27.002Z</time></trkpt><trkpt lat="43.32269082651756" lon="-3.0794251624089526"><ele>96.0</ele><time>2026-04-30T14:10:28.002Z</time></trkpt><trkpt lat="43.322603230724255" lon="-3.0794912159570145"><ele>96.0</ele><time>2026-04-30T14:10:29.002Z</time></trkpt><trkpt lat="43.32252347160678" lon="-3.0795696199736815"><ele>96.0</ele><time>2026-04-30T14:10:30.002Z</time></trkpt><trkpt lat="43.322443543556666" lon="-3.0796494813291675"><ele>96.0</ele><time>2026-04-30T14:10:31.002Z</time></trkpt><trkpt lat="43.32235448475622" lon="-3.0797131977699594"><ele>96.0</ele><time>2026-04-30T14:10:32.002Z</time></trkpt><trkpt lat="43.322258914593235" lon="-3.079768734950022"><ele>96.0</ele><time>2026-04-30T14:10:33.002Z</time></trkpt><trkpt lat="43.322156758744846" lon="-3.0798180766147953"><ele>96.0</ele><time>2026-04-30T14:10:34.002Z</time></trkpt><trkpt lat="43.32205203120907" lon="-3.0798734133300822"><ele>96.0</ele><time>2026-04-30T14:10:35.002Z</time></trkpt><trkpt lat="43.321945976397195" lon="-3.0799309804125405"><ele>96.0</ele><time>2026-04-30T14:10:36.002Z</time></trkpt><trkpt lat="43.32183900821824" lon="-3.0799891988269605"><ele>96.0</ele><time>2026-04-30T14:10:37.003Z</time></trkpt><trkpt lat="43.32173102467864" lon="-3.0800495108432258"><ele>93.75</ele><time>2026-04-30T14:10:38.003Z</time></trkpt><trkpt lat="43.321624927378906" lon="-3.0801182286285087"><ele>91.5</ele><time>2026-04-30T14:10:39.003Z</time></trkpt><trkpt lat="43.321525732621716" lon="-3.0801953643275963"><ele>89.25</ele><time>2026-04-30T14:10:40.003Z</time></trkpt><trkpt lat="43.32143190604807" lon="-3.080285927246704"><ele>87.0</ele><time>2026-04-30T14:10:41.003Z</time></trkpt><trkpt lat="43.32134285199683" lon="-3.0803860485828385"><ele>85.6</ele><time>2026-04-30T14:10:42.003Z</time></trkpt><trkpt lat="43.32126202240717" lon="-3.0804898667595775"><ele>84.19999999999999</ele><time>2026-04-30T14:10:43.003Z</time></trkpt><trkpt lat="43.32118700658897" lon="-3.080598007108869"><ele>82.8</ele><time>2026-04-30T14:10:44.003Z</time></trkpt><trkpt lat="43.32111586121187" lon="-3.0807093113769213"><ele>81.4</ele><time>2026-04-30T14:10:45.003Z</time></trkpt><trkpt lat="43.32104503672014" lon="-3.080816271792254"><ele>80.0</ele><time>2026-04-30T14:10:46.003Z</time></trkpt><trkpt lat="43.3209827942985" lon="-3.0809353185951527"><ele>80.0</ele><time>2026-04-30T14:10:47.003Z</time></trkpt><trkpt lat="43.320922609704574" lon="-3.0810549880237525"><ele>80.0</ele><time>2026-04-30T14:10:48.003Z</time></trkpt><trkpt lat="43.320863647429604" lon="-3.08117395107802"><ele>80.0</ele><time>2026-04-30T14:10:49.003Z</time></trkpt><trkpt lat="43.32080536753828" lon="-3.0812928721521575"><ele>80.0</ele><time>2026-04-30T14:10:50.003Z</time></trkpt><trkpt lat="43.32074721908712" lon="-3.0814108214841474"><ele>80.0</ele><time>2026-04-30T14:10:51.003Z</time></trkpt><trkpt lat="43.32068855640107" lon="-3.0815309871108605"><ele>80.2</ele><time>2026-04-30T14:10:52.003Z</time></trkpt><trkpt lat="43.32062923052359" lon="-3.0816525233727448"><ele>80.4</ele><time>2026-04-30T14:10:53.003Z</time></trkpt><trkpt lat="43.32057229913015" lon="-3.081779647701265"><ele>80.6</ele><time>2026-04-30T14:10:54.003Z</time></trkpt><trkpt lat="43.32051247018298" lon="-3.081903449984412"><ele>80.8</ele><time>2026-04-30T14:10:55.003Z</time></trkpt><trkpt lat="43.32045117846904" lon="-3.0820283612305346"><ele>81.0</ele><time>2026-04-30T14:10:56.003Z</time></trkpt><trkpt lat="43.32038901730483" lon="-3.0821526446852876"><ele>80.6</ele><time>2026-04-30T14:10:57.003Z</time></trkpt><trkpt lat="43.320329145432176" lon="-3.082277554552411"><ele>80.19999999999999</ele><time>2026-04-30T14:10:58.003Z</time></trkpt><trkpt lat="43.3202692004418" lon="-3.082401529176959"><ele>79.80000000000001</ele><time>2026-04-30T14:10:59.001Z</time></trkpt><trkpt lat="43.32020907844974" lon="-3.082527567023207"><ele>79.4</ele><time>2026-04-30T14:11:00.001Z</time></trkpt><trkpt lat="43.32015020175023" lon="-3.0826508765961527"><ele>79.0</ele><time>2026-04-30T14:11:01.001Z</time></trkpt><trkpt lat="43.32009047046339" lon="-3.0827725491176627"><ele>78.60000000000001</ele><time>2026-04-30T14:11:02.001Z</time></trkpt><trkpt lat="43.320032883368" lon="-3.082893435601173"><ele>78.2</ele><time>2026-04-30T14:11:03.001Z</time></trkpt><trkpt lat="43.31997317576365" lon="-3.083012498420287"><ele>77.80000000000001</ele><time>2026-04-30T14:11:04.001Z</time></trkpt><trkpt lat="43.31991313427603" lon="-3.083130575170136"><ele>77.4</ele><time>2026-04-30T14:11:05.001Z</time></trkpt><trkpt lat="43.31985448836585" lon="-3.0832476124338903"><ele>77.0</ele><time>2026-04-30T14:11:06.001Z</time></trkpt><trkpt lat="43.319792942535315" lon="-3.0833607368112594"><ele>76.8</ele><time>2026-04-30T14:11:07.001Z</time></trkpt><trkpt lat="43.3197276792709" lon="-3.083468610715838"><ele>76.6</ele><time>2026-04-30T14:11:08.001Z</time></trkpt><trkpt lat="43.31966130514118" lon="-3.0835744002347147"><ele>76.39999999999999</ele><time>2026-04-30T14:11:09.001Z</time></trkpt><trkpt lat="43.31959131508021" lon="-3.083676309759711"><ele>76.2</ele><time>2026-04-30T14:11:10.001Z</time></trkpt><trkpt lat="43.319520947163575" lon="-3.0837780027619233"><ele>76.0</ele><time>2026-04-30T14:11:11.001Z</time></trkpt><trkpt lat="43.319450784971224" lon="-3.083880892425124"><ele>76.0</ele><time>2026-04-30T14:11:12.001Z</time></trkpt><trkpt lat="43.31937794796888" lon="-3.0839818596199837"><ele>76.0</ele><time>2026-04-30T14:11:13.001Z</time></trkpt><trkpt lat="43.31930807310047" lon="-3.084084554464843"><ele>76.0</ele><time>2026-04-30T14:11:14.001Z</time></trkpt><trkpt lat="43.31924228899607" lon="-3.0841869974981133"><ele>76.0</ele><time>2026-04-30T14:11:15.001Z</time></trkpt><trkpt lat="43.31918170726371" lon="-3.0842953088954586"><ele>76.0</ele><time>2026-04-30T14:11:16.001Z</time></trkpt><trkpt lat="43.319132593385085" lon="-3.0844199767087574"><ele>76.2</ele><time>2026-04-30T14:11:17.001Z</time></trkpt><trkpt lat="43.31908644498218" lon="-3.0845516228518717"><ele>76.39999999999999</ele><time>2026-04-30T14:11:18.001Z</time></trkpt><trkpt lat="43.31904852102558" lon="-3.0846897735834493"><ele>76.6</ele><time>2026-04-30T14:11:19.001Z</time></trkpt><trkpt lat="43.31902029235562" lon="-3.0848320601540937"><ele>76.8</ele><time>2026-04-30T14:11:20.001Z</time></trkpt><trkpt lat="43.31899966698582" lon="-3.084980477588529"><ele>77.0</ele><time>2026-04-30T14:11:21.001Z</time></trkpt><trkpt lat="43.318981330829196" lon="-3.085132335602438"><ele>77.8</ele><time>2026-04-30T14:11:22.001Z</time></trkpt><trkpt lat="43.31896191855772" lon="-3.085285471438767"><ele>78.6</ele><time>2026-04-30T14:11:23.001Z</time></trkpt><trkpt lat="43.31894288650042" lon="-3.0854372102000855"><ele>79.39999999999999</ele><time>2026-04-30T14:11:24.001Z</time></trkpt><trkpt lat="43.31892415079408" lon="-3.085589748457321"><ele>80.2</ele><time>2026-04-30T14:11:25.001Z</time></trkpt><trkpt lat="43.31890505096204" lon="-3.0857386470701673"><ele>81.0</ele><time>2026-04-30T14:11:26.001Z</time></trkpt><trkpt lat="43.31888524947532" lon="-3.085883341768664"><ele>77.8</ele><time>2026-04-30T14:11:27.001Z</time></trkpt><trkpt lat="43.31886073529719" lon="-3.086028963705568"><ele>74.6</ele><time>2026-04-30T14:11:28.001Z</time></trkpt><trkpt lat="43.31883456249105" lon="-3.0861750218609303"><ele>71.4</ele><time>2026-04-30T14:11:29.001Z</time></trkpt><trkpt lat="43.318805938004594" lon="-3.08632104550547"><ele>68.2</ele><time>2026-04-30T14:11:30.001Z</time></trkpt><trkpt lat="43.31877380804391" lon="-3.0864679243003"><ele>65.0</ele><time>2026-04-30T14:11:31.001Z</time></trkpt><trkpt lat="43.31874109453417" lon="-3.0866137588847824"><ele>65.0</ele><time>2026-04-30T14:11:32.001Z</time></trkpt><trkpt lat="43.31870102319564" lon="-3.086756361918545"><ele>65.0</ele><time>2026-04-30T14:11:33.001Z</time></trkpt><trkpt lat="43.31865386469307" lon="-3.0868924985688113"><ele>65.0</ele><time>2026-04-30T14:11:34.001Z</time></trkpt><trkpt lat="43.31859893963098" lon="-3.0870226854559575"><ele>65.0</ele><time>2026-04-30T14:11:35.001Z</time></trkpt><trkpt lat="43.318538249644405" lon="-3.0871468167380476"><ele>65.0</ele><time>2026-04-30T14:11:36.001Z</time></trkpt><trkpt lat="43.3184713922974" lon="-3.087259901367309"><ele>65.0</ele><time>2026-04-30T14:11:37.001Z</time></trkpt><trkpt lat="43.31840326291927" lon="-3.087368790302041"><ele>65.0</ele><time>2026-04-30T14:11:38.001Z</time></trkpt><trkpt lat="43.31833830841429" lon="-3.0874801243230787"><ele>65.0</ele><time>2026-04-30T14:11:39.001Z</time></trkpt><trkpt lat="43.31827588183006" lon="-3.087595963581874"><ele>65.0</ele><time>2026-04-30T14:11:40.001Z</time></trkpt><trkpt lat="43.3182177454073" lon="-3.08772036430304"><ele>65.0</ele><time>2026-04-30T14:11:41.001Z</time></trkpt><trkpt lat="43.31817529511352" lon="-3.0878573334844064"><ele>65.4</ele><time>2026-04-30T14:11:42.001Z</time></trkpt><trkpt lat="43.318147287843246" lon="-3.0880024466051013"><ele>65.8</ele><time>2026-04-30T14:11:43.001Z</time></trkpt><trkpt lat="43.318126242242215" lon="-3.088149676807749"><ele>66.2</ele><time>2026-04-30T14:11:44.001Z</time></trkpt><trkpt lat="43.31811333132294" lon="-3.088302895276481"><ele>66.6</ele><time>2026-04-30T14:11:45.001Z</time></trkpt><trkpt lat="43.318097825756894" lon="-3.0884544363602493"><ele>67.0</ele><time>2026-04-30T14:11:46.001Z</time></trkpt><trkpt lat="43.318086803248775" lon="-3.08861087579684"><ele>67.0</ele><time>2026-04-30T14:11:47.001Z</time></trkpt><trkpt lat="43.318075471443606" lon="-3.088760478586492"><ele>67.0</ele><time>2026-04-30T14:11:48.001Z</time></trkpt><trkpt lat="43.31806586595628" lon="-3.0889037273566187"><ele>67.0</ele><time>2026-04-30T14:11:49.001Z</time></trkpt><trkpt lat="43.31805578023155" lon="-3.089044535817809"><ele>67.0</ele><time>2026-04-30T14:11:50.001Z</time></trkpt><trkpt lat="43.318046419815694" lon="-3.089184238485341"><ele>67.0</ele><time>2026-04-30T14:11:51.001Z</time></trkpt><trkpt lat="43.31803763156271" lon="-3.089317902370027"><ele>66.8</ele><time>2026-04-30T14:11:52.001Z</time></trkpt><trkpt lat="43.31802705955031" lon="-3.089446849948673"><ele>66.6</ele><time>2026-04-30T14:11:53.001Z</time></trkpt><trkpt lat="43.318018106173284" lon="-3.089575119213504"><ele>66.39999999999999</ele><time>2026-04-30T14:11:54.001Z</time></trkpt><trkpt lat="43.3180104131107" lon="-3.0897026485075623"><ele>66.2</ele><time>2026-04-30T14:11:55.001Z</time></trkpt><trkpt lat="43.317998791594114" lon="-3.089823784309516"><ele>66.0</ele><time>2026-04-30T14:11:56.001Z</time></trkpt><trkpt lat="43.31798925888493" lon="-3.0899479390321196"><ele>66.0</ele><time>2026-04-30T14:11:57.001Z</time></trkpt><trkpt lat="43.31798082761284" lon="-3.0900700513720505"><ele>66.0</ele><time>2026-04-30T14:11:58.001Z</time></trkpt><trkpt lat="43.3179722448553" lon="-3.090192821258306"><ele>66.0</ele><time>2026-04-30T14:11:59.002Z</time></trkpt><trkpt lat="43.317961593032855" lon="-3.090314854849572"><ele>66.0</ele><time>2026-04-30T14:12:00.002Z</time></trkpt><trkpt lat="43.317951193582" lon="-3.0904338809506493"><ele>66.0</ele><time>2026-04-30T14:12:01.002Z</time></trkpt><trkpt lat="43.31794080707562" lon="-3.090552856580995"><ele>66.0</ele><time>2026-04-30T14:12:02.002Z</time></trkpt><trkpt lat="43.317931014901525" lon="-3.090671956702272"><ele>66.33333333333333</ele><time>2026-04-30T14:12:03.002Z</time></trkpt><trkpt lat="43.31792089065819" lon="-3.090790943089129"><ele>66.66666666666667</ele><time>2026-04-30T14:12:04.002Z</time></trkpt><trkpt lat="43.317912164021884" lon="-3.090910829739239"><ele>67.0</ele><time>2026-04-30T14:12:05.002Z</time></trkpt><trkpt lat="43.317903848505495" lon="-3.0910307346532084"><ele>67.33333333333334</ele><time>2026-04-30T14:12:06.002Z</time></trkpt><trkpt lat="43.317890547117486" lon="-3.091149222516578"><ele>67.66666666666667</ele><time>2026-04-30T14:12:07.002Z</time></trkpt><trkpt lat="43.317878927546495" lon="-3.091266377961257"><ele>68.0</ele><time>2026-04-30T14:12:08.002Z</time></trkpt><trkpt lat="43.31787010049609" lon="-3.0913859669385046"><ele>68.0</ele><time>2026-04-30T14:12:09.002Z</time></trkpt><trkpt lat="43.31786332109328" lon="-3.0915059064587638"><ele>68.0</ele><time>2026-04-30T14:12:10.002Z</time></trkpt><trkpt lat="43.31785611852228" lon="-3.091624874288323"><ele>68.0</ele><time>2026-04-30T14:12:11.002Z</time></trkpt><trkpt lat="43.31784703400716" lon="-3.0917451638280506"><ele>68.0</ele><time>2026-04-30T14:12:12.002Z</time></trkpt><trkpt lat="43.31783502619777" lon="-3.0918623239117617"><ele>68.0</ele><time>2026-04-30T14:12:13.002Z</time></trkpt><trkpt lat="43.31782476796124" lon="-3.0919828726838174"><ele>68.0</ele><time>2026-04-30T14:12:14.002Z</time></trkpt><trkpt lat="43.3178141568234" lon="-3.0921015099804725"><ele>68.5</ele><time>2026-04-30T14:12:15.002Z</time></trkpt><trkpt lat="43.31780737142368" lon="-3.092221643276836"><ele>69.0</ele><time>2026-04-30T14:12:16.002Z</time></trkpt><trkpt lat="43.31779850900729" lon="-3.0923383941813927"><ele>69.5</ele><time>2026-04-30T14:12:17.002Z</time></trkpt><trkpt lat="43.31779567422998" lon="-3.0924612020729185"><ele>70.0</ele><time>2026-04-30T14:12:18.002Z</time></trkpt><trkpt lat="43.317801157482705" lon="-3.0925876189070634"><ele>70.5</ele><time>2026-04-30T14:12:19.002Z</time></trkpt><trkpt lat="43.3178130435196" lon="-3.0927107516122563"><ele>71.0</ele><time>2026-04-30T14:12:20.002Z</time></trkpt><trkpt lat="43.3178249540977" lon="-3.0928316431255127"><ele>71.66666666666667</ele><time>2026-04-30T14:12:21.002Z</time></trkpt><trkpt lat="43.31785038721926" lon="-3.0929521771859982"><ele>72.33333333333334</ele><time>2026-04-30T14:12:22.002Z</time></trkpt><trkpt lat="43.31787089438143" lon="-3.0930708014245925"><ele>73.0</ele><time>2026-04-30T14:12:23.002Z</time></trkpt><trkpt lat="43.317892109092526" lon="-3.0931872617974165"><ele>73.66666666666667</ele><time>2026-04-30T14:12:24.002Z</time></trkpt><trkpt lat="43.31791697506912" lon="-3.093301549098035"><ele>74.33333333333333</ele><time>2026-04-30T14:12:25.002Z</time></trkpt><trkpt lat="43.31794474641749" lon="-3.0934138740998995"><ele>75.0</ele><time>2026-04-30T14:12:26.002Z</time></trkpt><trkpt lat="43.317972788058455" lon="-3.0935266240446047"><ele>75.5</ele><time>2026-04-30T14:12:27.002Z</time></trkpt><trkpt lat="43.31799884106957" lon="-3.0936421012800026"><ele>76.0</ele><time>2026-04-30T14:12:28.002Z</time></trkpt><trkpt lat="43.31802418831832" lon="-3.093757162335025"><ele>76.5</ele><time>2026-04-30T14:12:29.002Z</time></trkpt><trkpt lat="43.31805104325391" lon="-3.093871543791175"><ele>77.0</ele><time>2026-04-30T14:12:30.002Z</time></trkpt><trkpt lat="43.318081877156146" lon="-3.0939821976115454"><ele>77.5</ele><time>2026-04-30T14:12:31.002Z</time></trkpt><trkpt lat="43.31810746484454" lon="-3.0940942725369154"><ele>78.0</ele><time>2026-04-30T14:12:32.002Z</time></trkpt><trkpt lat="43.318133958303434" lon="-3.0942083093001953"><ele>79.83333333333333</ele><time>2026-04-30T14:12:33.002Z</time></trkpt><trkpt lat="43.31816330341719" lon="-3.0943199547232685"><ele>81.66666666666667</ele><time>2026-04-30T14:12:34.002Z</time></trkpt><trkpt lat="43.3181929579904" lon="-3.094425548304507"><ele>83.5</ele><time>2026-04-30T14:12:35.002Z</time></trkpt><trkpt lat="43.31821979520987" lon="-3.0945341149024386"><ele>85.33333333333334</ele><time>2026-04-30T14:12:36.002Z</time></trkpt><trkpt lat="43.31824270032438" lon="-3.0946481454912402"><ele>87.16666666666667</ele><time>2026-04-30T14:12:37.003Z</time></trkpt><trkpt lat="43.31828324673163" lon="-3.094754786115581"><ele>89.0</ele><time>2026-04-30T14:12:38.003Z</time></trkpt><trkpt lat="43.31830305521833" lon="-3.094875393804116"><ele>88.66666666666667</ele><time>2026-04-30T14:12:39.003Z</time></trkpt><trkpt lat="43.318335183312584" lon="-3.0949873870921216"><ele>88.33333333333334</ele><time>2026-04-30T14:12:40.003Z</time></trkpt><trkpt lat="43.318366080917784" lon="-3.095096403658003"><ele>88.0</ele><time>2026-04-30T14:12:41.003Z</time></trkpt><trkpt lat="43.31838806050477" lon="-3.0952066582576374"><ele>87.66666666666667</ele><time>2026-04-30T14:12:42.003Z</time></trkpt><trkpt lat="43.318422364902915" lon="-3.095309248740733"><ele>87.33333333333333</ele><time>2026-04-30T14:12:43.003Z</time></trkpt><trkpt lat="43.31844578757877" lon="-3.095410838313881"><ele>87.0</ele><time>2026-04-30T14:12:44.003Z</time></trkpt><trkpt lat="43.31847348122411" lon="-3.095511123583223"><ele>87.0</ele><time>2026-04-30T14:12:45.003Z</time></trkpt><trkpt lat="43.318504769240114" lon="-3.0956045867812563"><ele>87.0</ele><time>2026-04-30T14:12:46.003Z</time></trkpt><trkpt lat="43.31852983057502" lon="-3.095699285939156"><ele>87.0</ele><time>2026-04-30T14:12:47.003Z</time></trkpt><trkpt lat="43.318553697029515" lon="-3.095787754960612"><ele>87.0</ele><time>2026-04-30T14:12:48.003Z</time></trkpt><trkpt lat="43.318575857230115" lon="-3.0958704178289977"><ele>87.0</ele><time>2026-04-30T14:12:49.003Z</time></trkpt><trkpt lat="43.31862027291977" lon="-3.0960179274317223"><ele>87.0</ele><time>2026-04-30T14:12:51.003Z</time></trkpt><trkpt lat="43.31865219745646" lon="-3.0961330302896624"><ele>86.33333333333333</ele><time>2026-04-30T14:12:53.003Z</time></trkpt><trkpt lat="43.31867450507341" lon="-3.0962289479189065"><ele>85.66666666666667</ele><time>2026-04-30T14:13:05.001Z</time></trkpt><trkpt lat="43.31870175405565" lon="-3.09633412177596"><ele>85.0</ele><time>2026-04-30T14:13:07.001Z</time></trkpt><trkpt lat="43.31873108748392" lon="-3.096445249437619"><ele>84.33333333333334</ele><time>2026-04-30T14:13:09.001Z</time></trkpt><trkpt lat="43.318751615852605" lon="-3.096533710846585"><ele>83.66666666666667</ele><time>2026-04-30T14:13:11.001Z</time></trkpt><trkpt lat="43.318785246834615" lon="-3.0966400380941694"><ele>83.0</ele><time>2026-04-30T14:13:15.001Z</time></trkpt><trkpt lat="43.31880626764989" lon="-3.096735732967944"><ele>82.66666666666667</ele><time>2026-04-30T14:13:17.001Z</time></trkpt><trkpt lat="43.31883850066115" lon="-3.0968763304715883"><ele>82.33333333333334</ele><time>2026-04-30T14:13:19.001Z</time></trkpt><trkpt lat="43.31885964497089" lon="-3.0969590350742475"><ele>82.0</ele><time>2026-04-30T14:13:20.001Z</time></trkpt><trkpt lat="43.31888455184397" lon="-3.0970492093146644"><ele>81.66666666666667</ele><time>2026-04-30T14:13:21.001Z</time></trkpt><trkpt lat="43.31891124514034" lon="-3.0971372276134397"><ele>81.33333333333333</ele><time>2026-04-30T14:13:22.001Z</time></trkpt><trkpt lat="43.318937412566484" lon="-3.0972237617206555"><ele>81.0</ele><time>2026-04-30T14:13:23.001Z</time></trkpt><trkpt lat="43.318959116089225" lon="-3.0973169803055227"><ele>81.0</ele><time>2026-04-30T14:13:24.001Z</time></trkpt><trkpt lat="43.31898052397052" lon="-3.0974134213998803"><ele>81.0</ele><time>2026-04-30T14:13:25.001Z</time></trkpt><trkpt lat="43.319006640618845" lon="-3.0975156966343085"><ele>81.0</ele><time>2026-04-30T14:13:26.001Z</time></trkpt><trkpt lat="43.319034320490005" lon="-3.0976197041287437"><ele>81.0</ele><time>2026-04-30T14:13:27.001Z</time></trkpt><trkpt lat="43.31906433601972" lon="-3.0977298287075983"><ele>81.0</ele><time>2026-04-30T14:13:28.001Z</time></trkpt><trkpt lat="43.319093925444626" lon="-3.09784259440822"><ele>81.0</ele><time>2026-04-30T14:13:29.001Z</time></trkpt><trkpt lat="43.31912919519" lon="-3.09795681752112"><ele>80.39999999999999</ele><time>2026-04-30T14:13:30.001Z</time></trkpt><trkpt lat="43.319163162426946" lon="-3.0980720059834534"><ele>79.8</ele><time>2026-04-30T14:13:31.001Z</time></trkpt><trkpt lat="43.31919236935005" lon="-3.0981880294482456"><ele>79.19999999999999</ele><time>2026-04-30T14:13:32.001Z</time></trkpt><trkpt lat="43.31922228268711" lon="-3.0983058896656286"><ele>78.6</ele><time>2026-04-30T14:13:33.001Z</time></trkpt><trkpt lat="43.31924832676795" lon="-3.0984296679639947"><ele>78.0</ele><time>2026-04-30T14:13:34.001Z</time></trkpt><trkpt lat="43.31928016105877" lon="-3.098549925308913"><ele>78.0</ele><time>2026-04-30T14:13:35.001Z</time></trkpt><trkpt lat="43.31931310480464" lon="-3.098671088241273"><ele>78.0</ele><time>2026-04-30T14:13:36.001Z</time></trkpt><trkpt lat="43.31934530073184" lon="-3.0987945015484"><ele>78.0</ele><time>2026-04-30T14:13:37.001Z</time></trkpt><trkpt lat="43.31937746910241" lon="-3.098920342436423"><ele>78.0</ele><time>2026-04-30T14:13:38.001Z</time></trkpt><trkpt lat="43.31941296769305" lon="-3.0990475646185405"><ele>78.0</ele><time>2026-04-30T14:13:39.001Z</time></trkpt><trkpt lat="43.31944642900614" lon="-3.0991788441234642"><ele>77.6</ele><time>2026-04-30T14:13:40.001Z</time></trkpt><trkpt lat="43.31947992298891" lon="-3.099311132459177"><ele>77.19999999999999</ele><time>2026-04-30T14:13:41.001Z</time></trkpt><trkpt lat="43.31951496809395" lon="-3.099440547491487"><ele>76.8</ele><time>2026-04-30T14:13:42.001Z</time></trkpt><trkpt lat="43.31955030323363" lon="-3.0995743080499834"><ele>76.39999999999999</ele><time>2026-04-30T14:13:43.001Z</time></trkpt><trkpt lat="43.31958635051754" lon="-3.099709353297442"><ele>76.0</ele><time>2026-04-30T14:13:44.001Z</time></trkpt><trkpt lat="43.319623270971995" lon="-3.0998435865165312"><ele>76.0</ele><time>2026-04-30T14:13:45.001Z</time></trkpt><trkpt lat="43.319663718367465" lon="-3.099976926561361"><ele>76.0</ele><time>2026-04-30T14:13:46.001Z</time></trkpt><trkpt lat="43.31970518831965" lon="-3.100110000528425"><ele>76.0</ele><time>2026-04-30T14:13:47.001Z</time></trkpt><trkpt lat="43.31974659269065" lon="-3.1002440640429167"><ele>76.0</ele><time>2026-04-30T14:13:48.001Z</time></trkpt><trkpt lat="43.31978944265068" lon="-3.1003787548002064"><ele>76.0</ele><time>2026-04-30T14:13:49.001Z</time></trkpt><trkpt lat="43.319836371448744" lon="-3.1005125185785696"><ele>73.6</ele><time>2026-04-30T14:13:50.001Z</time></trkpt><trkpt lat="43.31988465249154" lon="-3.1006453530869202"><ele>71.19999999999999</ele><time>2026-04-30T14:13:51.001Z</time></trkpt><trkpt lat="43.31993018497909" lon="-3.1007825080466613"><ele>68.80000000000001</ele><time>2026-04-30T14:13:52.001Z</time></trkpt><trkpt lat="43.31997586540335" lon="-3.1009205756394906"><ele>66.4</ele><time>2026-04-30T14:13:53.001Z</time></trkpt><trkpt lat="43.320019997858566" lon="-3.1010587550311772"><ele>64.0</ele><time>2026-04-30T14:13:54.001Z</time></trkpt><trkpt lat="43.320065481946656" lon="-3.1011981774832855"><ele>64.0</ele><time>2026-04-30T14:13:55.001Z</time></trkpt><trkpt lat="43.32010884068545" lon="-3.10133996434727"><ele>64.0</ele><time>2026-04-30T14:13:56.001Z</time></trkpt><trkpt lat="43.32015334944509" lon="-3.1014815111214147"><ele>64.0</ele><time>2026-04-30T14:13:57.001Z</time></trkpt><trkpt lat="43.320199580052616" lon="-3.1016187810716636"><ele>64.0</ele><time>2026-04-30T14:13:58.001Z</time></trkpt><trkpt lat="43.32025079995536" lon="-3.1017563628171287"><ele>64.0</ele><time>2026-04-30T14:13:59.001Z</time></trkpt><trkpt lat="43.32030594954358" lon="-3.101891930060583"><ele>63.800000000000004</ele><time>2026-04-30T14:14:00.001Z</time></trkpt><trkpt lat="43.320364779388825" lon="-3.1020205143956816"><ele>63.60000000000001</ele><time>2026-04-30T14:14:01.001Z</time></trkpt><trkpt lat="43.32043078754865" lon="-3.102145878098813"><ele>63.4</ele><time>2026-04-30T14:14:02.002Z</time></trkpt><trkpt lat="43.320503784789004" lon="-3.102259121370609"><ele>63.2</ele><time>2026-04-30T14:14:03.002Z</time></trkpt><trkpt lat="43.32058341008234" lon="-3.102361476991304"><ele>63.0</ele><time>2026-04-30T14:14:04.002Z</time></trkpt><trkpt lat="43.320667991504116" lon="-3.1024570812078025"><ele>61.0</ele><time>2026-04-30T14:14:05.002Z</time></trkpt><trkpt lat="43.32075079581184" lon="-3.1025521644049947"><ele>59.0</ele><time>2026-04-30T14:14:06.002Z</time></trkpt><trkpt lat="43.320831177755" lon="-3.102645246312621"><ele>57.0</ele><time>2026-04-30T14:14:07.002Z</time></trkpt><trkpt lat="43.32090861085965" lon="-3.102742609837626"><ele>55.0</ele><time>2026-04-30T14:14:08.002Z</time></trkpt><trkpt lat="43.32098135468277" lon="-3.10284898572812"><ele>53.0</ele><time>2026-04-30T14:14:09.002Z</time></trkpt><trkpt lat="43.32104922201437" lon="-3.1029636527426425"><ele>53.0</ele><time>2026-04-30T14:14:10.002Z</time></trkpt><trkpt lat="43.32111234080218" lon="-3.103082741208109"><ele>53.0</ele><time>2026-04-30T14:14:11.002Z</time></trkpt><trkpt lat="43.321171306089" lon="-3.103207909290165"><ele>53.0</ele><time>2026-04-30T14:14:12.002Z</time></trkpt><trkpt lat="43.321229855232495" lon="-3.1033341861829515"><ele>53.0</ele><time>2026-04-30T14:14:13.002Z</time></trkpt><trkpt lat="43.3212909120133" lon="-3.10346018123331"><ele>53.0</ele><time>2026-04-30T14:14:14.002Z</time></trkpt><trkpt lat="43.32135226971832" lon="-3.1035884577396824"><ele>51.25</ele><time>2026-04-30T14:14:15.002Z</time></trkpt><trkpt lat="43.32141307080977" lon="-3.10371855949667"><ele>49.5</ele><time>2026-04-30T14:14:16.002Z</time></trkpt><trkpt lat="43.321474146701476" lon="-3.1038499343325836"><ele>47.75</ele><time>2026-04-30T14:14:17.002Z</time></trkpt><trkpt lat="43.321534568146916" lon="-3.1039787790254705"><ele>46.0</ele><time>2026-04-30T14:14:18.002Z</time></trkpt><trkpt lat="43.32159683080451" lon="-3.104112538032756"><ele>46.0</ele><time>2026-04-30T14:14:19.002Z</time></trkpt><trkpt lat="43.32165751368442" lon="-3.1042418067935493"><ele>46.0</ele><time>2026-04-30T14:14:20.002Z</time></trkpt><trkpt lat="43.321716222331865" lon="-3.1043689168850968"><ele>46.0</ele><time>2026-04-30T14:14:21.002Z</time></trkpt><trkpt lat="43.321774469189755" lon="-3.1044978061542197"><ele>46.0</ele><time>2026-04-30T14:14:22.002Z</time></trkpt><trkpt lat="43.32183177835907" lon="-3.1046247760907737"><ele>46.0</ele><time>2026-04-30T14:14:23.002Z</time></trkpt><trkpt lat="43.32188813109652" lon="-3.1047531837438247"><ele>46.0</ele><time>2026-04-30T14:14:24.002Z</time></trkpt><trkpt lat="43.32194452530014" lon="-3.1048822524346997"><ele>46.0</ele><time>2026-04-30T14:14:25.002Z</time></trkpt><trkpt lat="43.321998525609345" lon="-3.1050128130096954"><ele>46.0</ele><time>2026-04-30T14:14:26.002Z</time></trkpt><trkpt lat="43.322046264486794" lon="-3.1051461649122887"><ele>46.0</ele><time>2026-04-30T14:14:27.002Z</time></trkpt><trkpt lat="43.322091212802" lon="-3.105281965463059"><ele>46.0</ele><time>2026-04-30T14:14:28.002Z</time></trkpt><trkpt lat="43.32213491059983" lon="-3.1054183881786597"><ele>45.599999999999994</ele><time>2026-04-30T14:14:29.002Z</time></trkpt><trkpt lat="43.32217766862231" lon="-3.105552992217269"><ele>45.2</ele><time>2026-04-30T14:14:30.002Z</time></trkpt><trkpt lat="43.3222179980499" lon="-3.105693436602005"><ele>44.8</ele><time>2026-04-30T14:14:31.002Z</time></trkpt><trkpt lat="43.3222563823015" lon="-3.1058366524471124"><ele>44.400000000000006</ele><time>2026-04-30T14:14:32.002Z</time></trkpt><trkpt lat="43.32229414538364" lon="-3.10598007966046"><ele>44.0</ele><time>2026-04-30T14:14:33.002Z</time></trkpt><trkpt lat="43.32233272531853" lon="-3.1061237804454196"><ele>41.400000000000006</ele><time>2026-04-30T14:14:34.002Z</time></trkpt><trkpt lat="43.32236931178806" lon="-3.1062697011051936"><ele>38.800000000000004</ele><time>2026-04-30T14:14:35.002Z</time></trkpt><trkpt lat="43.32240340241112" lon="-3.1064133758329153"><ele>36.2</ele><time>2026-04-30T14:14:36.002Z</time></trkpt><trkpt lat="43.32241996938634" lon="-3.10653849100167"><ele>33.6</ele><time>2026-04-30T14:14:37.002Z</time></trkpt><trkpt lat="43.32244053315195" lon="-3.106681557232918"><ele>31.0</ele><time>2026-04-30T14:14:38.002Z</time></trkpt><trkpt lat="43.3224837760723" lon="-3.1068621717241127"><ele>31.0</ele><time>2026-04-30T14:14:39.002Z</time></trkpt><trkpt lat="43.32254707845821" lon="-3.1070138320667224"><ele>31.0</ele><time>2026-04-30T14:14:40.002Z</time></trkpt><trkpt lat="43.3225858636279" lon="-3.1071656583004414"><ele>31.0</ele><time>2026-04-30T14:14:41.002Z</time></trkpt><trkpt lat="43.32262467797572" lon="-3.1073188197613715"><ele>31.0</ele><time>2026-04-30T14:14:42.002Z</time></trkpt><trkpt lat="43.322655656407655" lon="-3.1074732846968645"><ele>30.5</ele><time>2026-04-30T14:14:43.002Z</time></trkpt><trkpt lat="43.322686083890034" lon="-3.107623460905018"><ele>30.0</ele><time>2026-04-30T14:14:44.002Z</time></trkpt><trkpt lat="43.32271595534588" lon="-3.1077743315218296"><ele>29.5</ele><time>2026-04-30T14:14:45.002Z</time></trkpt><trkpt lat="43.3227463427639" lon="-3.1079283870070276"><ele>29.0</ele><time>2026-04-30T14:14:46.003Z</time></trkpt><trkpt lat="43.322772557742695" lon="-3.1080825733397877"><ele>29.0</ele><time>2026-04-30T14:14:47.003Z</time></trkpt><trkpt lat="43.32280063057722" lon="-3.108233943749493"><ele>29.0</ele><time>2026-04-30T14:14:48.003Z</time></trkpt><trkpt lat="43.32282869576168" lon="-3.1083861294529433"><ele>29.0</ele><time>2026-04-30T14:14:49.003Z</time></trkpt><trkpt lat="43.32285562119545" lon="-3.108538584484462"><ele>29.0</ele><time>2026-04-30T14:14:50.003Z</time></trkpt><trkpt lat="43.32287749366752" lon="-3.108689254459929"><ele>27.799999999999997</ele><time>2026-04-30T14:14:51.003Z</time></trkpt><trkpt lat="43.32290044564043" lon="-3.1088368038298935"><ele>26.599999999999998</ele><time>2026-04-30T14:14:52.003Z</time></trkpt><trkpt lat="43.322928300850364" lon="-3.1089872218104357"><ele>25.4</ele><time>2026-04-30T14:14:53.003Z</time></trkpt><trkpt lat="43.32296231666204" lon="-3.1091288605315857"><ele>24.2</ele><time>2026-04-30T14:14:54.003Z</time></trkpt><trkpt lat="43.32300722940679" lon="-3.109263551241356"><ele>23.0</ele><time>2026-04-30T14:14:55.003Z</time></trkpt><trkpt lat="43.32306239856449" lon="-3.1093919295615136"><ele>22.2</ele><time>2026-04-30T14:14:56.003Z</time></trkpt><trkpt lat="43.32313025633346" lon="-3.109511726166115"><ele>21.4</ele><time>2026-04-30T14:14:57.003Z</time></trkpt><trkpt lat="43.323199258157494" lon="-3.1096308074467984"><ele>20.599999999999998</ele><time>2026-04-30T14:14:58.003Z</time></trkpt><trkpt lat="43.32326910245578" lon="-3.1097518334090264"><ele>19.799999999999997</ele><time>2026-04-30T14:14:59.003Z</time></trkpt><trkpt lat="43.32334325082303" lon="-3.109872574238647"><ele>19.0</ele><time>2026-04-30T14:15:00.003Z</time></trkpt><trkpt lat="43.32341022120018" lon="-3.1099997984077645"><ele>16.5</ele><time>2026-04-30T14:15:01.003Z</time></trkpt><trkpt lat="43.3234740600587" lon="-3.11012852267227"><ele>14.0</ele><time>2026-04-30T14:15:02.003Z</time></trkpt><trkpt lat="43.32353116315047" lon="-3.110260853341605"><ele>11.5</ele><time>2026-04-30T14:15:03.003Z</time></trkpt><trkpt lat="43.32357333134443" lon="-3.110406200853204"><ele>9.0</ele><time>2026-04-30T14:15:04.003Z</time></trkpt><trkpt lat="43.3236005551117" lon="-3.1105588878196406"><ele>9.0</ele><time>2026-04-30T14:15:05.003Z</time></trkpt><trkpt lat="43.32361543257858" lon="-3.110717364996111"><ele>9.0</ele><time>2026-04-30T14:15:06.003Z</time></trkpt><trkpt lat="43.32361407368473" lon="-3.110872136168555"><ele>9.0</ele><time>2026-04-30T14:15:07.003Z</time></trkpt><trkpt lat="43.32360093303622" lon="-3.1110181609486234"><ele>9.0</ele><time>2026-04-30T14:15:08.003Z</time></trkpt><trkpt lat="43.323571585515836" lon="-3.1111576162539016"><ele>9.0</ele><time>2026-04-30T14:15:09.003Z</time></trkpt><trkpt lat="43.32353526577409" lon="-3.1112876167502574"><ele>8.6</ele><time>2026-04-30T14:15:10.003Z</time></trkpt><trkpt lat="43.323493539258386" lon="-3.1114128746338543"><ele>8.2</ele><time>2026-04-30T14:15:11.001Z</time></trkpt><trkpt lat="43.323445369221524" lon="-3.1115327812082523"><ele>7.799999999999999</ele><time>2026-04-30T14:15:12.001Z</time></trkpt><trkpt lat="43.323402700756404" lon="-3.1116486668678194"><ele>7.3999999999999995</ele><time>2026-04-30T14:15:13.001Z</time></trkpt><trkpt lat="43.32336332067962" lon="-3.1117565311840014"><ele>7.0</ele><time>2026-04-30T14:15:14.001Z</time></trkpt><trkpt lat="43.32333022188301" lon="-3.1118609993019035"><ele>7.000000000000001</ele><time>2026-04-30T14:15:15.001Z</time></trkpt><trkpt lat="43.32329566656838" lon="-3.1119621797763672"><ele>7.0</ele><time>2026-04-30T14:15:16.001Z</time></trkpt><trkpt lat="43.323263698667034" lon="-3.1120547982451296"><ele>7.0</ele><time>2026-04-30T14:15:17.001Z</time></trkpt><trkpt lat="43.32323239192082" lon="-3.112139881163519"><ele>7.0</ele><time>2026-04-30T14:15:18.001Z</time></trkpt><trkpt lat="43.32318268808939" lon="-3.1122825258101234"><ele>7.000000000000001</ele><time>2026-04-30T14:15:20.001Z</time></trkpt><trkpt lat="43.323143105878685" lon="-3.1123973423195954"><ele>7.0</ele><time>2026-04-30T14:15:22.001Z</time></trkpt><trkpt lat="43.32310895967633" lon="-3.112512221040856"><ele>7.0</ele><time>2026-04-30T14:15:24.001Z</time></trkpt><trkpt lat="43.32308179229542" lon="-3.1125974810362544"><ele>7.0</ele><time>2026-04-30T14:15:26.001Z</time></trkpt><trkpt lat="43.3230544926412" lon="-3.1126817162413363"><ele>7.0</ele><time>2026-04-30T14:15:28.001Z</time></trkpt><trkpt lat="43.32301938859927" lon="-3.1127764329682464"><ele>7.0</ele><time>2026-04-30T14:15:30.001Z</time></trkpt><trkpt lat="43.32298826502831" lon="-3.1128685232858397"><ele>7.0</ele><time>2026-04-30T14:15:32.001Z</time></trkpt><trkpt lat="43.322959411899966" lon="-3.1129747946957997"><ele>7.0</ele><time>2026-04-30T14:15:34.001Z</time></trkpt><trkpt lat="43.32292805164995" lon="-3.1130598226112944"><ele>7.0</ele><time>2026-04-30T14:15:36.001Z</time></trkpt><trkpt lat="43.32288743459821" lon="-3.1131719828263855"><ele>8.142857142857142</ele><time>2026-04-30T14:15:39.001Z</time></trkpt><trkpt lat="43.32286021284608" lon="-3.113253604193212"><ele>9.285714285714285</ele><time>2026-04-30T14:15:41.001Z</time></trkpt><trkpt lat="43.3228235400065" lon="-3.113360416529269"><ele>10.428571428571429</ele><time>2026-04-30T14:15:43.001Z</time></trkpt><trkpt lat="43.32278928647084" lon="-3.1134417136065307"><ele>11.571428571428571</ele><time>2026-04-30T14:15:45.001Z</time></trkpt><trkpt lat="43.32275819547756" lon="-3.1135346323312074"><ele>12.714285714285714</ele><time>2026-04-30T14:15:47.001Z</time></trkpt><trkpt lat="43.322727855964104" lon="-3.113616843571783"><ele>13.857142857142858</ele><time>2026-04-30T14:15:49.001Z</time></trkpt><trkpt lat="43.322680541309225" lon="-3.113684749691581"><ele>15.0</ele><time>2026-04-30T14:16:04.001Z</time></trkpt><trkpt lat="43.32265925387193" lon="-3.1137999639011946"><ele>15.0</ele><time>2026-04-30T14:16:06.001Z</time></trkpt><trkpt lat="43.32260953815814" lon="-3.1139598818963607"><ele>15.0</ele><time>2026-04-30T14:16:08.001Z</time></trkpt><trkpt lat="43.32258264531763" lon="-3.11404837331774"><ele>15.0</ele><time>2026-04-30T14:16:09.001Z</time></trkpt><trkpt lat="43.3225542171293" lon="-3.114149884822032"><ele>15.0</ele><time>2026-04-30T14:16:10.001Z</time></trkpt><trkpt lat="43.32252555595189" lon="-3.114257413968824"><ele>15.0</ele><time>2026-04-30T14:16:11.001Z</time></trkpt><trkpt lat="43.322498012043695" lon="-3.1143673340551348"><ele>15.0</ele><time>2026-04-30T14:16:12.001Z</time></trkpt><trkpt lat="43.32247160619689" lon="-3.114480737670501"><ele>14.2</ele><time>2026-04-30T14:16:13.001Z</time></trkpt><trkpt lat="43.322444471187836" lon="-3.1146055240663224"><ele>13.4</ele><time>2026-04-30T14:16:14.001Z</time></trkpt><trkpt lat="43.322417453837474" lon="-3.114733510610518"><ele>12.600000000000001</ele><time>2026-04-30T14:16:15.002Z</time></trkpt><trkpt lat="43.32239005089035" lon="-3.11486026145217"><ele>11.8</ele><time>2026-04-30T14:16:16.002Z</time></trkpt><trkpt lat="43.32235343284942" lon="-3.1149717313591365"><ele>11.0</ele><time>2026-04-30T14:16:17.002Z</time></trkpt><trkpt lat="43.32232851006289" lon="-3.1150827907449625"><ele>11.142857142857142</ele><time>2026-04-30T14:16:18.002Z</time></trkpt><trkpt lat="43.322305646751964" lon="-3.1151908679419025"><ele>11.285714285714285</ele><time>2026-04-30T14:16:19.002Z</time></trkpt><trkpt lat="43.322284035747316" lon="-3.1152985182865023"><ele>11.428571428571427</ele><time>2026-04-30T14:16:20.002Z</time></trkpt><trkpt lat="43.32225810021926" lon="-3.1153880822485953"><ele>11.571428571428571</ele><time>2026-04-30T14:16:21.002Z</time></trkpt><trkpt lat="43.32224005752769" lon="-3.115478595140206"><ele>11.714285714285714</ele><time>2026-04-30T14:16:22.002Z</time></trkpt><trkpt lat="43.32221813472829" lon="-3.1155702957327023"><ele>11.857142857142856</ele><time>2026-04-30T14:16:23.002Z</time></trkpt><trkpt lat="43.32219587118441" lon="-3.1156713926293516"><ele>12.0</ele><time>2026-04-30T14:16:24.002Z</time></trkpt><trkpt lat="43.32217692286308" lon="-3.1157853167236618"><ele>12.0</ele><time>2026-04-30T14:16:25.002Z</time></trkpt><trkpt lat="43.322153387684324" lon="-3.115894526750061"><ele>12.0</ele><time>2026-04-30T14:16:26.002Z</time></trkpt><trkpt lat="43.3221255050263" lon="-3.1160097113528358"><ele>12.0</ele><time>2026-04-30T14:16:27.002Z</time></trkpt><trkpt lat="43.3221020204978" lon="-3.116122904000878"><ele>12.0</ele><time>2026-04-30T14:16:28.002Z</time></trkpt><trkpt lat="43.32207706053894" lon="-3.1162347506073163"><ele>12.0</ele><time>2026-04-30T14:16:29.002Z</time></trkpt><trkpt lat="43.322050440964524" lon="-3.116352354139799"><ele>12.0</ele><time>2026-04-30T14:16:30.002Z</time></trkpt><trkpt lat="43.32202605956713" lon="-3.116465899950596"><ele>11.166666666666666</ele><time>2026-04-30T14:16:31.002Z</time></trkpt><trkpt lat="43.32200488398725" lon="-3.1165761855888494"><ele>10.333333333333334</ele><time>2026-04-30T14:16:32.002Z</time></trkpt><trkpt lat="43.32198109773185" lon="-3.116691255177567"><ele>9.5</ele><time>2026-04-30T14:16:33.002Z</time></trkpt><trkpt lat="43.32195794630308" lon="-3.1168027017421966"><ele>8.666666666666668</ele><time>2026-04-30T14:16:34.002Z</time></trkpt><trkpt lat="43.32193188031749" lon="-3.116913306651349"><ele>7.833333333333334</ele><time>2026-04-30T14:16:35.002Z</time></trkpt><trkpt lat="43.32190873648991" lon="-3.1170260174922846"><ele>7.0</ele><time>2026-04-30T14:16:36.002Z</time></trkpt><trkpt lat="43.32188742401588" lon="-3.1171363593524863"><ele>7.0</ele><time>2026-04-30T14:16:37.002Z</time></trkpt><trkpt lat="43.32186522274356" lon="-3.1172337996669146"><ele>7.0</ele><time>2026-04-30T14:16:38.002Z</time></trkpt><trkpt lat="43.321849367534796" lon="-3.1173361901760055"><ele>7.0</ele><time>2026-04-30T14:16:39.002Z</time></trkpt><trkpt lat="43.32183711939753" lon="-3.1174359153233278"><ele>7.0</ele><time>2026-04-30T14:16:40.002Z</time></trkpt><trkpt lat="43.3218414977822" lon="-3.117540522657912"><ele>7.0</ele><time>2026-04-30T14:16:41.002Z</time></trkpt><trkpt lat="43.32186136547111" lon="-3.1176404845410457"><ele>7.0</ele><time>2026-04-30T14:16:42.002Z</time></trkpt><trkpt lat="43.3218843368605" lon="-3.117731411831834"><ele>7.0</ele><time>2026-04-30T14:16:43.002Z</time></trkpt><trkpt lat="43.321896187978496" lon="-3.117822667492451"><ele>6.857142857142857</ele><time>2026-04-30T14:16:44.002Z</time></trkpt><trkpt lat="43.32188635286315" lon="-3.1179150657696497"><ele>6.714285714285714</ele><time>2026-04-30T14:16:45.002Z</time></trkpt><trkpt lat="43.321865726551394" lon="-3.118011160060545"><ele>6.571428571428571</ele><time>2026-04-30T14:16:46.002Z</time></trkpt><trkpt lat="43.32184435623391" lon="-3.1181073786910174"><ele>6.428571428571429</ele><time>2026-04-30T14:16:47.002Z</time></trkpt><trkpt lat="43.32181931005501" lon="-3.1182057498622826"><ele>6.285714285714286</ele><time>2026-04-30T14:16:48.002Z</time></trkpt><trkpt lat="43.32179777205349" lon="-3.1183042115158446"><ele>6.142857142857142</ele><time>2026-04-30T14:16:49.002Z</time></trkpt><trkpt lat="43.321778469986526" lon="-3.118406519388188"><ele>6.0</ele><time>2026-04-30T14:16:50.002Z</time></trkpt><trkpt lat="43.32176038059946" lon="-3.1185047717080416"><ele>6.0</ele><time>2026-04-30T14:16:51.002Z</time></trkpt><trkpt lat="43.3217406006328" lon="-3.1185970293544085"><ele>6.0</ele><time>2026-04-30T14:16:52.002Z</time></trkpt><trkpt lat="43.32168721538427" lon="-3.1187460874747788"><ele>6.0</ele><time>2026-04-30T14:16:54.002Z</time></trkpt><trkpt lat="43.32160419338356" lon="-3.1188622967031825"><ele>6.0</ele><time>2026-04-30T14:16:56.002Z</time></trkpt><trkpt lat="43.321563582001815" lon="-3.118931919366546"><ele>6.0</ele><time>2026-04-30T14:16:57.002Z</time></trkpt><trkpt lat="43.321543631765586" lon="-3.1190147094338805"><ele>6.0</ele><time>2026-04-30T14:16:58.002Z</time></trkpt><trkpt lat="43.32153485618744" lon="-3.1191121976886866"><ele>5.5</ele><time>2026-04-30T14:16:59.002Z</time></trkpt><trkpt lat="43.32153321017658" lon="-3.1192149767438964"><ele>5.0</ele><time>2026-04-30T14:17:00.002Z</time></trkpt><trkpt lat="43.321531473177004" lon="-3.1193145358448477"><ele>4.5</ele><time>2026-04-30T14:17:01.002Z</time></trkpt><trkpt lat="43.321531554736765" lon="-3.119423976404367"><ele>4.0</ele><time>2026-04-30T14:17:02.002Z</time></trkpt><trkpt lat="43.321541415494025" lon="-3.1195336797565654"><ele>3.5</ele><time>2026-04-30T14:17:03.003Z</time></trkpt><trkpt lat="43.3215595940655" lon="-3.1196422257845096"><ele>3.0</ele><time>2026-04-30T14:17:04.003Z</time></trkpt><trkpt lat="43.32157745915176" lon="-3.119748993327033"><ele>2.9999999999999996</ele><time>2026-04-30T14:17:05.003Z</time></trkpt><trkpt lat="43.3216074204783" lon="-3.1198568818112267"><ele>3.0</ele><time>2026-04-30T14:17:06.003Z</time></trkpt><trkpt lat="43.32163255702214" lon="-3.1199572720993873"><ele>3.0</ele><time>2026-04-30T14:17:07.003Z</time></trkpt><trkpt lat="43.32166444521373" lon="-3.120053461917525"><ele>3.0</ele><time>2026-04-30T14:17:08.003Z</time></trkpt><trkpt lat="43.32169468469557" lon="-3.120138026289563"><ele>3.0</ele><time>2026-04-30T14:17:09.003Z</time></trkpt><trkpt lat="43.32172214369554" lon="-3.1202263979620253"><ele>2.9999999999999996</ele><time>2026-04-30T14:17:10.003Z</time></trkpt><trkpt lat="43.32174962488366" lon="-3.1203164205751013"><ele>3.0</ele><time>2026-04-30T14:17:11.003Z</time></trkpt><trkpt lat="43.32178012764893" lon="-3.120406547273552"><ele>2.9999999999999996</ele><time>2026-04-30T14:17:12.003Z</time></trkpt><trkpt lat="43.32181812694994" lon="-3.1204886401576903"><ele>3.0</ele><time>2026-04-30T14:17:13.003Z</time></trkpt><trkpt lat="43.32186709806833" lon="-3.12056152317687"><ele>3.0</ele><time>2026-04-30T14:17:14.003Z</time></trkpt><trkpt lat="43.32192308283366" lon="-3.120632309874265"><ele>3.0</ele><time>2026-04-30T14:17:15.003Z</time></trkpt><trkpt lat="43.32198018178822" lon="-3.1207040484622843"><ele>3.0</ele><time>2026-04-30T14:17:16.003Z</time></trkpt><trkpt lat="43.322007987239516" lon="-3.1207961497514747"><ele>2.9999999999999996</ele><time>2026-04-30T14:17:17.001Z</time></trkpt><trkpt lat="43.32200725475105" lon="-3.12090243973237"><ele>3.0</ele><time>2026-04-30T14:17:18.001Z</time></trkpt><trkpt lat="43.321999905498544" lon="-3.1210090889517406"><ele>3.0</ele><time>2026-04-30T14:17:19.001Z</time></trkpt><trkpt lat="43.321989438622964" lon="-3.1211176090303767"><ele>3.0</ele><time>2026-04-30T14:17:20.001Z</time></trkpt><trkpt lat="43.32199704478204" lon="-3.121220565690139"><ele>3.0</ele><time>2026-04-30T14:17:21.001Z</time></trkpt><trkpt lat="43.32202070546036" lon="-3.1213275734692814"><ele>3.0</ele><time>2026-04-30T14:17:22.001Z</time></trkpt><trkpt lat="43.322049371483054" lon="-3.1214351207229445"><ele>3.0</ele><time>2026-04-30T14:17:23.001Z</time></trkpt><trkpt lat="43.322076609910035" lon="-3.1215325729022028"><ele>3.0</ele><time>2026-04-30T14:17:24.001Z</time></trkpt><trkpt lat="43.322099794114344" lon="-3.121621337545756"><ele>2.8</ele><time>2026-04-30T14:17:25.001Z</time></trkpt><trkpt lat="43.32214296593901" lon="-3.121771318299524"><ele>2.5999999999999996</ele><time>2026-04-30T14:17:27Z</time></trkpt><trkpt lat="43.32219580393744" lon="-3.1219156186922494"><ele>2.4000000000000004</ele><time>2026-04-30T14:17:29Z</time></trkpt><trkpt lat="43.32224535614222" lon="-3.1220601516988404"><ele>2.2</ele><time>2026-04-30T14:17:31Z</time></trkpt><trkpt lat="43.322279210484034" lon="-3.1221718439482267"><ele>2.0</ele><time>2026-04-30T14:17:33Z</time></trkpt><trkpt lat="43.32231226516709" lon="-3.1222658497772744"><ele>2.0</ele><time>2026-04-30T14:17:35Z</time></trkpt><trkpt lat="43.32234061546508" lon="-3.1223481859934075"><ele>1.9999999999999998</ele><time>2026-04-30T14:17:37Z</time></trkpt><trkpt lat="43.322364919771324" lon="-3.1224404565885076"><ele>2.0</ele><time>2026-04-30T14:17:39.001Z</time></trkpt><trkpt lat="43.32240094276803" lon="-3.1225408566555775"><ele>2.0</ele><time>2026-04-30T14:17:41.001Z</time></trkpt><trkpt lat="43.32243798374899" lon="-3.12264012000424"><ele>1.9999999999999998</ele><time>2026-04-30T14:17:43.001Z</time></trkpt><trkpt lat="43.32246983023477" lon="-3.12273088490309"><ele>2.0</ele><time>2026-04-30T14:17:45.001Z</time></trkpt><trkpt lat="43.322518075348675" lon="-3.122802439715722"><ele>2.0</ele><time>2026-04-30T14:17:48.001Z</time></trkpt><trkpt lat="43.32256855039133" lon="-3.1229202441996846"><ele>2.1666666666666665</ele><time>2026-04-30T14:17:58.001Z</time></trkpt><trkpt lat="43.322632697910166" lon="-3.1230270653534493"><ele>2.333333333333333</ele><time>2026-04-30T14:18:00.001Z</time></trkpt><trkpt lat="43.32270542707616" lon="-3.123160339789512"><ele>2.5</ele><time>2026-04-30T14:18:02.001Z</time></trkpt><trkpt lat="43.32274785919552" lon="-3.1232328678213492"><ele>2.6666666666666665</ele><time>2026-04-30T14:18:03.001Z</time></trkpt><trkpt lat="43.322791353836756" lon="-3.1233060558659385"><ele>2.8333333333333335</ele><time>2026-04-30T14:18:04.001Z</time></trkpt><trkpt lat="43.32283877638824" lon="-3.1233801847381053"><ele>3.0</ele><time>2026-04-30T14:18:05.001Z</time></trkpt><trkpt lat="43.32288717660597" lon="-3.1234559868877403"><ele>3.5</ele><time>2026-04-30T14:18:06.001Z</time></trkpt><trkpt lat="43.32293534326012" lon="-3.123537863146713"><ele>4.0</ele><time>2026-04-30T14:18:07.001Z</time></trkpt><trkpt lat="43.32298424973742" lon="-3.1236210757636913"><ele>4.5</ele><time>2026-04-30T14:18:08.001Z</time></trkpt><trkpt lat="43.323033305526884" lon="-3.123705847155282"><ele>5.0</ele><time>2026-04-30T14:18:09.001Z</time></trkpt><trkpt lat="43.323083746049015" lon="-3.123789049307027"><ele>5.5</ele><time>2026-04-30T14:18:10.001Z</time></trkpt><trkpt lat="43.32313497720672" lon="-3.123875190050679"><ele>6.0</ele><time>2026-04-30T14:18:11.001Z</time></trkpt><trkpt lat="43.32318833583699" lon="-3.123961824134435"><ele>6.0</ele><time>2026-04-30T14:18:12.001Z</time></trkpt><trkpt lat="43.32324168682682" lon="-3.1240496616338302"><ele>6.0</ele><time>2026-04-30T14:18:13.001Z</time></trkpt><trkpt lat="43.3232958732265" lon="-3.124137507959337"><ele>6.0</ele><time>2026-04-30T14:18:14.001Z</time></trkpt><trkpt lat="43.323351931136294" lon="-3.1242257073836943"><ele>6.0</ele><time>2026-04-30T14:18:15.001Z</time></trkpt><trkpt lat="43.3234076650368" lon="-3.124316800653603"><ele>6.0</ele><time>2026-04-30T14:18:16.001Z</time></trkpt><trkpt lat="43.32346336031351" lon="-3.1244081883379615"><ele>6.0</ele><time>2026-04-30T14:18:17.001Z</time></trkpt><trkpt lat="43.32351721133631" lon="-3.1245039155085585"><ele>7.5</ele><time>2026-04-30T14:18:18.001Z</time></trkpt><trkpt lat="43.32357069384081" lon="-3.124598703074624"><ele>9.0</ele><time>2026-04-30T14:18:19.001Z</time></trkpt><trkpt lat="43.323627226122724" lon="-3.1246903013435743"><ele>10.5</ele><time>2026-04-30T14:18:20.001Z</time></trkpt><trkpt lat="43.32368188790784" lon="-3.12478592179891"><ele>12.0</ele><time>2026-04-30T14:18:21.001Z</time></trkpt><trkpt lat="43.32373576979703" lon="-3.1248854504241015"><ele>13.5</ele><time>2026-04-30T14:18:22.001Z</time></trkpt><trkpt lat="43.32379047145342" lon="-3.124984323389433"><ele>15.0</ele><time>2026-04-30T14:18:23.001Z</time></trkpt><trkpt lat="43.32384339671311" lon="-3.125079943086814"><ele>15.166666666666666</ele><time>2026-04-30T14:18:24.001Z</time></trkpt><trkpt lat="43.3238970441062" lon="-3.1251676196874305"><ele>15.333333333333332</ele><time>2026-04-30T14:18:25.001Z</time></trkpt><trkpt lat="43.323952522635196" lon="-3.1252597058479847"><ele>15.5</ele><time>2026-04-30T14:18:26.001Z</time></trkpt><trkpt lat="43.32400724322171" lon="-3.1253498089733407"><ele>15.666666666666666</ele><time>2026-04-30T14:18:27.001Z</time></trkpt><trkpt lat="43.32406062944032" lon="-3.1254387821789456"><ele>15.833333333333332</ele><time>2026-04-30T14:18:28.001Z</time></trkpt><trkpt lat="43.324107044149514" lon="-3.125525379157716"><ele>16.0</ele><time>2026-04-30T14:18:29.001Z</time></trkpt><trkpt lat="43.32413777871048" lon="-3.1256237738761308"><ele>15.999999999999998</ele><time>2026-04-30T14:18:30.001Z</time></trkpt><trkpt lat="43.32414593122055" lon="-3.125722809910303"><ele>16.0</ele><time>2026-04-30T14:18:31.001Z</time></trkpt><trkpt lat="43.32412754137585" lon="-3.1258263395475363"><ele>16.0</ele><time>2026-04-30T14:18:32.001Z</time></trkpt><trkpt lat="43.32407744697243" lon="-3.1259128849001914"><ele>16.0</ele><time>2026-04-30T14:18:33.001Z</time></trkpt><trkpt lat="43.32401327207191" lon="-3.125970540206991"><ele>15.999999999999998</ele><time>2026-04-30T14:18:34.001Z</time></trkpt><trkpt lat="43.32393359586471" lon="-3.1259784551176484"><ele>16.0</ele><time>2026-04-30T14:18:35.002Z</time></trkpt><trkpt lat="43.32385486064819" lon="-3.125949932659788"><ele>17.333333333333332</ele><time>2026-04-30T14:18:36.002Z</time></trkpt><trkpt lat="43.32378486951439" lon="-3.1259013624769527"><ele>18.666666666666664</ele><time>2026-04-30T14:18:37.002Z</time></trkpt><trkpt lat="43.323715919955305" lon="-3.1258426767305676"><ele>20.0</ele><time>2026-04-30T14:18:38.002Z</time></trkpt><trkpt lat="43.32364212341754" lon="-3.125784750960491"><ele>21.333333333333332</ele><time>2026-04-30T14:18:39.002Z</time></trkpt><trkpt lat="43.32356535355823" lon="-3.1257275877711828"><ele>22.666666666666668</ele><time>2026-04-30T14:18:40.002Z</time></trkpt><trkpt lat="43.32348799267998" lon="-3.125669430538399"><ele>24.0</ele><time>2026-04-30T14:18:41.002Z</time></trkpt><trkpt lat="43.32341060423157" lon="-3.1256096263613755"><ele>24.0</ele><time>2026-04-30T14:18:42.002Z</time></trkpt><trkpt lat="43.323334496837305" lon="-3.1255425723476824"><ele>24.0</ele><time>2026-04-30T14:18:43.002Z</time></trkpt><trkpt lat="43.32325758737522" lon="-3.1254781354957313"><ele>24.0</ele><time>2026-04-30T14:18:44.002Z</time></trkpt><trkpt lat="43.32318382987473" lon="-3.125409942540401"><ele>24.0</ele><time>2026-04-30T14:18:45.002Z</time></trkpt><trkpt lat="43.32311008767171" lon="-3.1253422551479266"><ele>24.0</ele><time>2026-04-30T14:18:46.002Z</time></trkpt><trkpt lat="43.323035866130674" lon="-3.1252750256685475"><ele>24.0</ele><time>2026-04-30T14:18:47.002Z</time></trkpt><trkpt lat="43.32296072433314" lon="-3.125214161119189"><ele>24.166666666666668</ele><time>2026-04-30T14:18:48.002Z</time></trkpt><trkpt lat="43.32288353233642" lon="-3.125151577239044"><ele>24.333333333333336</ele><time>2026-04-30T14:18:49.002Z</time></trkpt><trkpt lat="43.322799846626154" lon="-3.125106002989502"><ele>24.5</ele><time>2026-04-30T14:18:50.002Z</time></trkpt><trkpt lat="43.322710918923285" lon="-3.1250979555292213"><ele>24.666666666666668</ele><time>2026-04-30T14:18:51.002Z</time></trkpt><trkpt lat="43.322628353357175" lon="-3.1251318801844397"><ele>24.833333333333336</ele><time>2026-04-30T14:18:52.002Z</time></trkpt><trkpt lat="43.32255453539279" lon="-3.1251980548910305"><ele>25.0</ele><time>2026-04-30T14:18:53.002Z</time></trkpt><trkpt lat="43.32250083066562" lon="-3.1252937934580975"><ele>25.000000000000004</ele><time>2026-04-30T14:18:54.002Z</time></trkpt><trkpt lat="43.322477709719884" lon="-3.1254101634773965"><ele>25.0</ele><time>2026-04-30T14:18:55.002Z</time></trkpt><trkpt lat="43.322489334498705" lon="-3.125533755039917"><ele>25.0</ele><time>2026-04-30T14:18:56.002Z</time></trkpt><trkpt lat="43.322532641674165" lon="-3.1256420077019076"><ele>25.0</ele><time>2026-04-30T14:18:57.002Z</time></trkpt><trkpt lat="43.32258229421582" lon="-3.1257418470736744"><ele>25.000000000000004</ele><time>2026-04-30T14:18:58.002Z</time></trkpt><trkpt lat="43.32263270334961" lon="-3.1258419586211477"><ele>25.0</ele><time>2026-04-30T14:18:59.002Z</time></trkpt><trkpt lat="43.32267809039404" lon="-3.125945443411952"><ele>25.4</ele><time>2026-04-30T14:19:00.002Z</time></trkpt><trkpt lat="43.322742831727375" lon="-3.1260311254930118"><ele>25.8</ele><time>2026-04-30T14:19:01.002Z</time></trkpt><trkpt lat="43.32277796231422" lon="-3.126149635506262"><ele>26.200000000000003</ele><time>2026-04-30T14:19:02.002Z</time></trkpt><trkpt lat="43.32283390662541" lon="-3.1262487832856927"><ele>26.6</ele><time>2026-04-30T14:19:03.002Z</time></trkpt><trkpt lat="43.322894977069346" lon="-3.1263441113524912"><ele>27.0</ele><time>2026-04-30T14:19:04.002Z</time></trkpt><trkpt lat="43.32295798177542" lon="-3.1264327131046508"><ele>27.0</ele><time>2026-04-30T14:19:05.002Z</time></trkpt><trkpt lat="43.32301705374138" lon="-3.1265221440530677"><ele>27.0</ele><time>2026-04-30T14:19:06.002Z</time></trkpt><trkpt lat="43.32307713348495" lon="-3.126612934281063"><ele>27.0</ele><time>2026-04-30T14:19:07.002Z</time></trkpt><trkpt lat="43.323137820959886" lon="-3.126701527050973"><ele>27.0</ele><time>2026-04-30T14:19:08.002Z</time></trkpt><trkpt lat="43.32319928624247" lon="-3.1267910653606705"><ele>27.0</ele><time>2026-04-30T14:19:09.002Z</time></trkpt><trkpt lat="43.323261947967914" lon="-3.126878232470589"><ele>27.0</ele><time>2026-04-30T14:19:10.002Z</time></trkpt><trkpt lat="43.32332165161825" lon="-3.1269674497244657"><ele>28.166666666666668</ele><time>2026-04-30T14:19:11.002Z</time></trkpt><trkpt lat="43.32337235159607" lon="-3.1270664793237697"><ele>29.333333333333336</ele><time>2026-04-30T14:19:12.002Z</time></trkpt><trkpt lat="43.323411089397275" lon="-3.1271782679816997"><ele>30.5</ele><time>2026-04-30T14:19:13.002Z</time></trkpt><trkpt lat="43.32344022891076" lon="-3.127295669792843"><ele>31.666666666666668</ele><time>2026-04-30T14:19:14.002Z</time></trkpt><trkpt lat="43.32345830230355" lon="-3.127419307832692"><ele>32.833333333333336</ele><time>2026-04-30T14:19:15.002Z</time></trkpt><trkpt lat="43.32347821975488" lon="-3.127538753651872"><ele>34.0</ele><time>2026-04-30T14:19:16.002Z</time></trkpt><trkpt lat="43.32350193404637" lon="-3.127665208056385"><ele>34.25</ele><time>2026-04-30T14:19:17.002Z</time></trkpt><trkpt lat="43.32354556039049" lon="-3.127795870460688"><ele>34.5</ele><time>2026-04-30T14:19:18.002Z</time></trkpt><trkpt lat="43.32360578315076" lon="-3.1279287256494093"><ele>34.75</ele><time>2026-04-30T14:19:19.002Z</time></trkpt><trkpt lat="43.32368526749884" lon="-3.1280534857427513"><ele>35.0</ele><time>2026-04-30T14:19:20.002Z</time></trkpt><trkpt lat="43.32358249328549" lon="-3.128159288869229"><ele>35.2</ele><time>2026-04-30T14:19:21.002Z</time></trkpt><trkpt lat="43.3236050411419" lon="-3.128278711036003"><ele>35.4</ele><time>2026-04-30T14:19:22.002Z</time></trkpt><trkpt lat="43.323633870979414" lon="-3.1283967666173935"><ele>35.6</ele><time>2026-04-30T14:19:23Z</time></trkpt><trkpt lat="43.32367460323569" lon="-3.1285113496284813"><ele>35.8</ele><time>2026-04-30T14:19:24Z</time></trkpt><trkpt lat="43.32372750753382" lon="-3.1286188827782806"><ele>36.0</ele><time>2026-04-30T14:19:25Z</time></trkpt><trkpt lat="43.323790108469915" lon="-3.1287217497596753"><ele>36.0</ele><time>2026-04-30T14:19:26Z</time></trkpt><trkpt lat="43.323852577243706" lon="-3.128820135843032"><ele>36.0</ele><time>2026-04-30T14:19:27Z</time></trkpt><trkpt lat="43.32391630605534" lon="-3.1289131778084354"><ele>36.0</ele><time>2026-04-30T14:19:28Z</time></trkpt><trkpt lat="43.32398329072371" lon="-3.129005533405102"><ele>36.0</ele><time>2026-04-30T14:19:29Z</time></trkpt><trkpt lat="43.32404725615454" lon="-3.1290976540568285"><ele>36.0</ele><time>2026-04-30T14:19:30Z</time></trkpt><trkpt lat="43.32411068212079" lon="-3.129182965015321"><ele>37.0</ele><time>2026-04-30T14:19:31Z</time></trkpt><trkpt lat="43.324175935702065" lon="-3.129271901492814"><ele>38.0</ele><time>2026-04-30T14:19:32Z</time></trkpt><trkpt lat="43.32424194131645" lon="-3.1293646210843526"><ele>39.0</ele><time>2026-04-30T14:19:33Z</time></trkpt><trkpt lat="43.324305869885" lon="-3.1294560928265964"><ele>40.0</ele><time>2026-04-30T14:19:34Z</time></trkpt><trkpt lat="43.32437401765436" lon="-3.129545082791745"><ele>41.0</ele><time>2026-04-30T14:19:35Z</time></trkpt><trkpt lat="43.32443817658268" lon="-3.1296313567535106"><ele>41.0</ele><time>2026-04-30T14:19:36Z</time></trkpt><trkpt lat="43.32451145303609" lon="-3.129710720214199"><ele>41.0</ele><time>2026-04-30T14:19:37Z</time></trkpt><trkpt lat="43.3245929648305" lon="-3.1297779151336833"><ele>41.0</ele><time>2026-04-30T14:19:38Z</time></trkpt><trkpt lat="43.32468142816283" lon="-3.1298276021666216"><ele>41.0</ele><time>2026-04-30T14:19:39Z</time></trkpt><trkpt lat="43.324780567777104" lon="-3.129848104798715"><ele>41.0</ele><time>2026-04-30T14:19:40Z</time></trkpt><trkpt lat="43.32487093210043" lon="-3.1298649881989515"><ele>42.0</ele><time>2026-04-30T14:19:41Z</time></trkpt><trkpt lat="43.32496488573285" lon="-3.1298729399796046"><ele>43.0</ele><time>2026-04-30T14:19:42Z</time></trkpt><trkpt lat="43.325061126343826" lon="-3.129881558187252"><ele>44.0</ele><time>2026-04-30T14:19:43Z</time></trkpt><trkpt lat="43.325156124436454" lon="-3.1298717125457522"><ele>45.0</ele><time>2026-04-30T14:19:44Z</time></trkpt><trkpt lat="43.32524559506461" lon="-3.129837003768258"><ele>46.0</ele><time>2026-04-30T14:19:45Z</time></trkpt><trkpt lat="43.325338740039946" lon="-3.1298024244762512"><ele>46.0</ele><time>2026-04-30T14:19:46Z</time></trkpt><trkpt lat="43.32541800295159" lon="-3.1297483361145204"><ele>46.0</ele><time>2026-04-30T14:19:47Z</time></trkpt><trkpt lat="43.32549945710655" lon="-3.1297192370301183"><ele>46.0</ele><time>2026-04-30T14:19:48Z</time></trkpt><trkpt lat="43.32558899011917" lon="-3.129718321137801"><ele>46.0</ele><time>2026-04-30T14:19:49Z</time></trkpt><trkpt lat="43.325683353644095" lon="-3.12972215138069"><ele>46.0</ele><time>2026-04-30T14:19:50Z</time></trkpt><trkpt lat="43.32576899437203" lon="-3.1297354410039553"><ele>46.0</ele><time>2026-04-30T14:19:51Z</time></trkpt><trkpt lat="43.32585366850315" lon="-3.1297508092922572"><ele>46.333333333333336</ele><time>2026-04-30T14:19:52Z</time></trkpt><trkpt lat="43.325939980802936" lon="-3.1297643188010653"><ele>46.66666666666667</ele><time>2026-04-30T14:19:53Z</time></trkpt><trkpt lat="43.326026695231356" lon="-3.129779382758431"><ele>47.0</ele><time>2026-04-30T14:19:54Z</time></trkpt><trkpt lat="43.32611361687418" lon="-3.129801826068223"><ele>47.333333333333336</ele><time>2026-04-30T14:19:55Z</time></trkpt><trkpt lat="43.326196628064395" lon="-3.1298453889980995"><ele>47.666666666666664</ele><time>2026-04-30T14:19:56Z</time></trkpt><trkpt lat="43.326277306212155" lon="-3.1299100957260837"><ele>48.0</ele><time>2026-04-30T14:19:57Z</time></trkpt><trkpt lat="43.32634781526499" lon="-3.1299857021978186"><ele>50.5</ele><time>2026-04-30T14:19:58Z</time></trkpt><trkpt lat="43.32641053512057" lon="-3.130081815055019"><ele>53.0</ele><time>2026-04-30T14:19:59Z</time></trkpt><trkpt lat="43.326463339033815" lon="-3.1301830553584695"><ele>55.5</ele><time>2026-04-30T14:20:00Z</time></trkpt><trkpt lat="43.32649887334375" lon="-3.130284423260957"><ele>58.0</ele><time>2026-04-30T14:20:01Z</time></trkpt><trkpt lat="43.32661816112921" lon="-3.1306471222359082"><ele>57.599999999999994</ele><time>2026-04-30T14:20:04Z</time></trkpt><trkpt lat="43.3266577201875" lon="-3.1307620373124445"><ele>57.199999999999996</ele><time>2026-04-30T14:20:05.001Z</time></trkpt><trkpt lat="43.32671650001558" lon="-3.1308607825816823"><ele>56.8</ele><time>2026-04-30T14:20:06.001Z</time></trkpt><trkpt lat="43.32678791686854" lon="-3.1309408444109907"><ele>56.4</ele><time>2026-04-30T14:20:07.001Z</time></trkpt><trkpt lat="43.32686494563997" lon="-3.131007014554309"><ele>56.0</ele><time>2026-04-30T14:20:08.001Z</time></trkpt><trkpt lat="43.326949786557655" lon="-3.131060739751215"><ele>56.0</ele><time>2026-04-30T14:20:09.001Z</time></trkpt><trkpt lat="43.327030900956736" lon="-3.1311171047505013"><ele>55.99999999999999</ele><time>2026-04-30T14:20:10.001Z</time></trkpt><trkpt lat="43.32711756224988" lon="-3.131174115169352"><ele>55.99999999999999</ele><time>2026-04-30T14:20:11.001Z</time></trkpt><trkpt lat="43.32720244839655" lon="-3.131229209314621"><ele>56.0</ele><time>2026-04-30T14:20:12.001Z</time></trkpt><trkpt lat="43.32728570987432" lon="-3.1312877518256568"><ele>56.0</ele><time>2026-04-30T14:20:13.001Z</time></trkpt><trkpt lat="43.327366539086015" lon="-3.1313455788534332"><ele>56.8</ele><time>2026-04-30T14:20:14.001Z</time></trkpt><trkpt lat="43.327447158094046" lon="-3.131410835923296"><ele>57.599999999999994</ele><time>2026-04-30T14:20:15.001Z</time></trkpt><trkpt lat="43.3275268454144" lon="-3.1314789806125924"><ele>58.4</ele><time>2026-04-30T14:20:16.001Z</time></trkpt><trkpt lat="43.327609537765454" lon="-3.1315422901436234"><ele>59.2</ele><time>2026-04-30T14:20:17.001Z</time></trkpt><trkpt lat="43.32768871262425" lon="-3.1316078692762006"><ele>60.0</ele><time>2026-04-30T14:20:18.001Z</time></trkpt><trkpt lat="43.327767732232424" lon="-3.1316709535937375"><ele>60.0</ele><time>2026-04-30T14:20:19.001Z</time></trkpt><trkpt lat="43.32784386510879" lon="-3.1317401168381322"><ele>60.0</ele><time>2026-04-30T14:20:20.001Z</time></trkpt><trkpt lat="43.32792006911385" lon="-3.131807545103365"><ele>60.0</ele><time>2026-04-30T14:20:21.001Z</time></trkpt><trkpt lat="43.327993146086264" lon="-3.1318714123087967"><ele>60.0</ele><time>2026-04-30T14:20:22.001Z</time></trkpt><trkpt lat="43.328066870998974" lon="-3.131927682109126"><ele>60.0</ele><time>2026-04-30T14:20:23.001Z</time></trkpt><trkpt lat="43.32814633271187" lon="-3.131978271428971"><ele>60.0</ele><time>2026-04-30T14:20:24.001Z</time></trkpt><trkpt lat="43.328230192661486" lon="-3.132024120604514"><ele>61.4</ele><time>2026-04-30T14:20:25.001Z</time></trkpt><trkpt lat="43.32832287377809" lon="-3.13205698580955"><ele>62.8</ele><time>2026-04-30T14:20:26.001Z</time></trkpt><trkpt lat="43.32841121594401" lon="-3.1320864615612503"><ele>64.2</ele><time>2026-04-30T14:20:27.001Z</time></trkpt><trkpt lat="43.328500912523" lon="-3.1321153811651294"><ele>65.6</ele><time>2026-04-30T14:20:28.001Z</time></trkpt><trkpt lat="43.328589628405936" lon="-3.1321460321372494"><ele>67.0</ele><time>2026-04-30T14:20:29.001Z</time></trkpt><trkpt lat="43.32867876596565" lon="-3.1321702978280994"><ele>67.0</ele><time>2026-04-30T14:20:30.001Z</time></trkpt><trkpt lat="43.32876544207658" lon="-3.132196778855801"><ele>67.0</ele><time>2026-04-30T14:20:31.001Z</time></trkpt><trkpt lat="43.328852876145895" lon="-3.1322284664459823"><ele>67.0</ele><time>2026-04-30T14:20:32.001Z</time></trkpt><trkpt lat="43.32893760933553" lon="-3.1322737923953627"><ele>67.0</ele><time>2026-04-30T14:20:33.001Z</time></trkpt><trkpt lat="43.32902827849418" lon="-3.1323118611882923"><ele>67.0</ele><time>2026-04-30T14:20:34.001Z</time></trkpt><trkpt lat="43.32911048428247" lon="-3.1323527739782313"><ele>68.25</ele><time>2026-04-30T14:20:35.001Z</time></trkpt><trkpt lat="43.329201534632226" lon="-3.1324152506940597"><ele>69.5</ele><time>2026-04-30T14:20:36.001Z</time></trkpt><trkpt lat="43.329300443964364" lon="-3.132510162557677"><ele>70.75</ele><time>2026-04-30T14:20:37.001Z</time></trkpt><trkpt lat="43.329436483172856" lon="-3.1325864154696768"><ele>72.0</ele><time>2026-04-30T14:20:39.001Z</time></trkpt><trkpt lat="43.329514278094" lon="-3.132650207196079"><ele>72.0</ele><time>2026-04-30T14:20:40.001Z</time></trkpt><trkpt lat="43.32959394117788" lon="-3.132721949642413"><ele>72.0</ele><time>2026-04-30T14:20:41.001Z</time></trkpt><trkpt lat="43.329670450936895" lon="-3.1327934561507083"><ele>72.0</ele><time>2026-04-30T14:20:42.001Z</time></trkpt><trkpt lat="43.329748935065254" lon="-3.1328605189085637"><ele>72.0</ele><time>2026-04-30T14:20:43.001Z</time></trkpt><trkpt lat="43.32982189727483" lon="-3.132934411110656"><ele>72.0</ele><time>2026-04-30T14:20:44.001Z</time></trkpt><trkpt lat="43.32989329941251" lon="-3.1330204326077298"><ele>72.6</ele><time>2026-04-30T14:20:45.001Z</time></trkpt><trkpt lat="43.329957823223005" lon="-3.133114393305833"><ele>73.2</ele><time>2026-04-30T14:20:46.001Z</time></trkpt><trkpt lat="43.330006186116215" lon="-3.133222995765352"><ele>73.8</ele><time>2026-04-30T14:20:47.001Z</time></trkpt><trkpt lat="43.33004558413242" lon="-3.1333446084400296"><ele>74.4</ele><time>2026-04-30T14:20:48.001Z</time></trkpt><trkpt lat="43.33007273420805" lon="-3.1334681848046264"><ele>75.0</ele><time>2026-04-30T14:20:49.001Z</time></trkpt><trkpt lat="43.33009666161764" lon="-3.1335932305573886"><ele>75.0</ele><time>2026-04-30T14:20:50.001Z</time></trkpt><trkpt lat="43.330115359228" lon="-3.1337167568315727"><ele>75.0</ele><time>2026-04-30T14:20:51.001Z</time></trkpt><trkpt lat="43.33013802901317" lon="-3.133839143880116"><ele>75.0</ele><time>2026-04-30T14:20:52.001Z</time></trkpt><trkpt lat="43.330163289751184" lon="-3.1339591811132617"><ele>75.0</ele><time>2026-04-30T14:20:53.001Z</time></trkpt><trkpt lat="43.330194803791116" lon="-3.134076233642105"><ele>75.0</ele><time>2026-04-30T14:20:54.001Z</time></trkpt><trkpt lat="43.33023518195834" lon="-3.1341935563745897"><ele>75.6</ele><time>2026-04-30T14:20:55.002Z</time></trkpt><trkpt lat="43.33027715918219" lon="-3.134308102850206"><ele>76.2</ele><time>2026-04-30T14:20:56.002Z</time></trkpt><trkpt lat="43.330317233689996" lon="-3.1344194955099316"><ele>76.8</ele><time>2026-04-30T14:20:57.002Z</time></trkpt><trkpt lat="43.33035406075213" lon="-3.134533562425495"><ele>77.4</ele><time>2026-04-30T14:20:58.002Z</time></trkpt><trkpt lat="43.330392528198495" lon="-3.134648868647681"><ele>78.0</ele><time>2026-04-30T14:20:59.002Z</time></trkpt><trkpt lat="43.330431432562804" lon="-3.134764935525998"><ele>78.0</ele><time>2026-04-30T14:21:00.002Z</time></trkpt><trkpt lat="43.330468193437326" lon="-3.13488219532579"><ele>78.0</ele><time>2026-04-30T14:21:01.002Z</time></trkpt><trkpt lat="43.330505116613445" lon="-3.1349962742856086"><ele>78.0</ele><time>2026-04-30T14:21:02.002Z</time></trkpt><trkpt lat="43.33053474092522" lon="-3.135124339250588"><ele>78.0</ele><time>2026-04-30T14:21:03.002Z</time></trkpt><trkpt lat="43.33058239432798" lon="-3.135238758381908"><ele>78.0</ele><time>2026-04-30T14:21:04.002Z</time></trkpt><trkpt lat="43.3306199944793" lon="-3.135355051090053"><ele>78.4</ele><time>2026-04-30T14:21:05.002Z</time></trkpt><trkpt lat="43.330656787541244" lon="-3.1354722290197143"><ele>78.8</ele><time>2026-04-30T14:21:06.002Z</time></trkpt><trkpt lat="43.33069315910108" lon="-3.13559150775201"><ele>79.2</ele><time>2026-04-30T14:21:07.002Z</time></trkpt><trkpt lat="43.33073318436273" lon="-3.1357122602339333"><ele>79.6</ele><time>2026-04-30T14:21:08.002Z</time></trkpt><trkpt lat="43.33077346099331" lon="-3.135830719857782"><ele>80.0</ele><time>2026-04-30T14:21:09.002Z</time></trkpt><trkpt lat="43.33081240639272" lon="-3.135947919172267"><ele>80.6</ele><time>2026-04-30T14:21:10.002Z</time></trkpt><trkpt lat="43.33084881139345" lon="-3.1360695261213305"><ele>81.2</ele><time>2026-04-30T14:21:11.002Z</time></trkpt><trkpt lat="43.33088857977405" lon="-3.136182033392107"><ele>81.80000000000001</ele><time>2026-04-30T14:21:12.002Z</time></trkpt><trkpt lat="43.33092837136797" lon="-3.1362977610678486"><ele>82.4</ele><time>2026-04-30T14:21:13.002Z</time></trkpt><trkpt lat="43.330966465294665" lon="-3.136417345407759"><ele>83.0</ele><time>2026-04-30T14:21:14.002Z</time></trkpt><trkpt lat="43.331002328708074" lon="-3.1365344133468116"><ele>83.4</ele><time>2026-04-30T14:21:15.002Z</time></trkpt><trkpt lat="43.33104046105101" lon="-3.13665163418551"><ele>83.80000000000001</ele><time>2026-04-30T14:21:16.002Z</time></trkpt><trkpt lat="43.33108233026112" lon="-3.1367690613753325"><ele>84.2</ele><time>2026-04-30T14:21:17.002Z</time></trkpt><trkpt lat="43.33112264197316" lon="-3.136877873371806"><ele>84.6</ele><time>2026-04-30T14:21:18.002Z</time></trkpt><trkpt lat="43.331168606682034" lon="-3.1369967949972244"><ele>85.0</ele><time>2026-04-30T14:21:19.002Z</time></trkpt><trkpt lat="43.33121802208178" lon="-3.137106665312752"><ele>85.0</ele><time>2026-04-30T14:21:20.002Z</time></trkpt><trkpt lat="43.33127041895579" lon="-3.137211475937493"><ele>85.0</ele><time>2026-04-30T14:21:21.002Z</time></trkpt><trkpt lat="43.33132657984703" lon="-3.137309474009052"><ele>85.0</ele><time>2026-04-30T14:21:22.002Z</time></trkpt><trkpt lat="43.331383875918576" lon="-3.137405558328284"><ele>85.0</ele><time>2026-04-30T14:21:23.002Z</time></trkpt><trkpt lat="43.33144186450928" lon="-3.1375065109624765"><ele>85.0</ele><time>2026-04-30T14:21:24.002Z</time></trkpt><trkpt lat="43.33150724894476" lon="-3.1375891380346923"><ele>85.0</ele><time>2026-04-30T14:21:25.002Z</time></trkpt><trkpt lat="43.33157041919599" lon="-3.137685653436768"><ele>85.0</ele><time>2026-04-30T14:21:26.002Z</time></trkpt><trkpt lat="43.33163081530157" lon="-3.137777259950668"><ele>85.0</ele><time>2026-04-30T14:21:27.002Z</time></trkpt><trkpt lat="43.331698744219295" lon="-3.1378617621917133"><ele>85.0</ele><time>2026-04-30T14:21:28.002Z</time></trkpt><trkpt lat="43.331769241876536" lon="-3.137943132932529"><ele>85.0</ele><time>2026-04-30T14:21:28.999Z</time></trkpt><trkpt lat="43.33184428654644" lon="-3.138019469009216"><ele>85.0</ele><time>2026-04-30T14:21:29.999Z</time></trkpt><trkpt lat="43.331921477892074" lon="-3.138088821775725"><ele>85.0</ele><time>2026-04-30T14:21:30.999Z</time></trkpt><trkpt lat="43.33198632970589" lon="-3.1381615206321745"><ele>85.0</ele><time>2026-04-30T14:21:31.999Z</time></trkpt><trkpt lat="43.33206719955135" lon="-3.138241787666017"><ele>85.0</ele><time>2026-04-30T14:21:32.999Z</time></trkpt><trkpt lat="43.332129173538206" lon="-3.1383079265225216"><ele>85.0</ele><time>2026-04-30T14:21:34Z</time></trkpt><trkpt lat="43.332195919460005" lon="-3.1383798143164867"><ele>85.0</ele><time>2026-04-30T14:21:35Z</time></trkpt><trkpt lat="43.33225204806712" lon="-3.1384650899744346"><ele>84.75</ele><time>2026-04-30T14:21:36Z</time></trkpt><trkpt lat="43.33234744385965" lon="-3.138550786210278"><ele>84.5</ele><time>2026-04-30T14:21:37Z</time></trkpt><trkpt lat="43.33245751358004" lon="-3.1386675272118723"><ele>84.25</ele><time>2026-04-30T14:21:38Z</time></trkpt><trkpt lat="43.33256758918807" lon="-3.1387935363855655"><ele>84.0</ele><time>2026-04-30T14:21:39Z</time></trkpt><trkpt lat="43.33267259112482" lon="-3.1389062386436506"><ele>84.0</ele><time>2026-04-30T14:21:42Z</time></trkpt><trkpt lat="43.33273082521105" lon="-3.1389988765659735"><ele>84.0</ele><time>2026-04-30T14:21:43Z</time></trkpt><trkpt lat="43.33278586661795" lon="-3.1390940864431585"><ele>84.0</ele><time>2026-04-30T14:21:44Z</time></trkpt><trkpt lat="43.332842358438036" lon="-3.1391888102528624"><ele>84.0</ele><time>2026-04-30T14:21:45Z</time></trkpt><trkpt lat="43.332895991303374" lon="-3.139281264547601"><ele>84.0</ele><time>2026-04-30T14:21:46Z</time></trkpt><trkpt lat="43.33294985713032" lon="-3.139372086307528"><ele>84.0</ele><time>2026-04-30T14:21:47Z</time></trkpt><trkpt lat="43.33300211816218" lon="-3.139463914228042"><ele>84.33333333333333</ele><time>2026-04-30T14:21:48Z</time></trkpt><trkpt lat="43.333057928561416" lon="-3.139555859089828"><ele>84.66666666666667</ele><time>2026-04-30T14:21:49Z</time></trkpt><trkpt lat="43.333110526051435" lon="-3.1396476309739767"><ele>85.0</ele><time>2026-04-30T14:21:50Z</time></trkpt><trkpt lat="43.33316726058973" lon="-3.13973800072988"><ele>85.33333333333334</ele><time>2026-04-30T14:21:51Z</time></trkpt><trkpt lat="43.333228674138695" lon="-3.1398188251546832"><ele>85.66666666666667</ele><time>2026-04-30T14:21:52Z</time></trkpt><trkpt lat="43.33329603894863" lon="-3.139893592026453"><ele>86.0</ele><time>2026-04-30T14:21:53Z</time></trkpt><trkpt lat="43.33336698543188" lon="-3.1399558383691044"><ele>88.5</ele><time>2026-04-30T14:21:54Z</time></trkpt><trkpt lat="43.33344050619942" lon="-3.1400168176320986"><ele>91.0</ele><time>2026-04-30T14:21:55Z</time></trkpt><trkpt lat="43.33351450751229" lon="-3.140069228251022"><ele>93.5</ele><time>2026-04-30T14:21:56Z</time></trkpt><trkpt lat="43.333586019222885" lon="-3.1401240119815195"><ele>96.0</ele><time>2026-04-30T14:21:57Z</time></trkpt><trkpt lat="43.33365751193163" lon="-3.1401783820149927"><ele>98.49999999999999</ele><time>2026-04-30T14:21:58Z</time></trkpt><trkpt lat="43.3337248766094" lon="-3.1402303141924195"><ele>101.0</ele><time>2026-04-30T14:21:59Z</time></trkpt><trkpt lat="43.33379197591118" lon="-3.140282437259114"><ele>100.99999999999999</ele><time>2026-04-30T14:22:00Z</time></trkpt><trkpt lat="43.33386347702362" lon="-3.1403335210387784"><ele>101.0</ele><time>2026-04-30T14:22:01Z</time></trkpt><trkpt lat="43.333934660115865" lon="-3.1403873853075632"><ele>101.0</ele><time>2026-04-30T14:22:02Z</time></trkpt><trkpt lat="43.334002613194414" lon="-3.1404443853688475"><ele>101.0</ele><time>2026-04-30T14:22:03Z</time></trkpt><trkpt lat="43.33407455441855" lon="-3.140503244253428"><ele>100.99999999999999</ele><time>2026-04-30T14:22:04Z</time></trkpt><trkpt lat="43.33414432577313" lon="-3.140562043167795"><ele>101.0</ele><time>2026-04-30T14:22:05Z</time></trkpt><trkpt lat="43.33421217433991" lon="-3.1406318196128615"><ele>101.33333333333333</ele><time>2026-04-30T14:22:06Z</time></trkpt><trkpt lat="43.33427628248522" lon="-3.1407054487699337"><ele>101.66666666666666</ele><time>2026-04-30T14:22:07Z</time></trkpt><trkpt lat="43.33433777236788" lon="-3.1407783889154848"><ele>102.0</ele><time>2026-04-30T14:22:08Z</time></trkpt><trkpt lat="43.33440409494258" lon="-3.140859168799515"><ele>102.33333333333334</ele><time>2026-04-30T14:22:09Z</time></trkpt><trkpt lat="43.334461289147555" lon="-3.140939923191907"><ele>102.66666666666667</ele><time>2026-04-30T14:22:10Z</time></trkpt><trkpt lat="43.33452228828756" lon="-3.1410223322170046"><ele>103.0</ele><time>2026-04-30T14:22:11Z</time></trkpt><trkpt lat="43.33458221840115" lon="-3.1411065469576225"><ele>103.00000000000001</ele><time>2026-04-30T14:22:12Z</time></trkpt><trkpt lat="43.33464182383258" lon="-3.141191966627858"><ele>103.0</ele><time>2026-04-30T14:22:13Z</time></trkpt><trkpt lat="43.334703560074374" lon="-3.1412740493630014"><ele>103.0</ele><time>2026-04-30T14:22:14Z</time></trkpt><trkpt lat="43.33476483529464" lon="-3.1413550986706746"><ele>103.0</ele><time>2026-04-30T14:22:15.001Z</time></trkpt><trkpt lat="43.3348277401136" lon="-3.1414352893694373"><ele>103.00000000000001</ele><time>2026-04-30T14:22:16.001Z</time></trkpt><trkpt lat="43.33488722620063" lon="-3.1415141212395414"><ele>103.0</ele><time>2026-04-30T14:22:17.001Z</time></trkpt><trkpt lat="43.33494537171427" lon="-3.1415938742460097"><ele>104.25</ele><time>2026-04-30T14:22:18.001Z</time></trkpt><trkpt lat="43.33504907518431" lon="-3.141726535483315"><ele>105.5</ele><time>2026-04-30T14:22:20.001Z</time></trkpt><trkpt lat="43.33511656795084" lon="-3.141828849354505"><ele>106.75</ele><time>2026-04-30T14:22:21.001Z</time></trkpt><trkpt lat="43.335216469244486" lon="-3.1419663939905007"><ele>108.0</ele><time>2026-04-30T14:22:22.001Z</time></trkpt><trkpt lat="43.33529128103502" lon="-3.142058056221847"><ele>108.0</ele><time>2026-04-30T14:22:24.001Z</time></trkpt><trkpt lat="43.33534685743754" lon="-3.1421422077368053"><ele>108.0</ele><time>2026-04-30T14:22:25.001Z</time></trkpt><trkpt lat="43.335401362213766" lon="-3.142204054952883"><ele>108.0</ele><time>2026-04-30T14:22:26.001Z</time></trkpt><trkpt lat="43.33546429572629" lon="-3.1422428102343987"><ele>108.0</ele><time>2026-04-30T14:22:27.001Z</time></trkpt><trkpt lat="43.33549587018536" lon="-3.142401259801658"><ele>108.0</ele><time>2026-04-30T14:22:28.001Z</time></trkpt><trkpt lat="43.33554008756899" lon="-3.1424932388089766"><ele>108.0</ele><time>2026-04-30T14:22:29.001Z</time></trkpt><trkpt lat="43.335581181764525" lon="-3.142591645559087"><ele>108.33333333333333</ele><time>2026-04-30T14:22:30.001Z</time></trkpt><trkpt lat="43.33561862966821" lon="-3.142694964535639"><ele>108.66666666666666</ele><time>2026-04-30T14:22:31.001Z</time></trkpt><trkpt lat="43.33565563288732" lon="-3.142800282459681"><ele>109.0</ele><time>2026-04-30T14:22:32.001Z</time></trkpt><trkpt lat="43.33568606065968" lon="-3.1429098715785253"><ele>109.33333333333333</ele><time>2026-04-30T14:22:33.001Z</time></trkpt><trkpt lat="43.33571518044112" lon="-3.143023961905412"><ele>109.66666666666666</ele><time>2026-04-30T14:22:34.001Z</time></trkpt><trkpt lat="43.33574930978692" lon="-3.1431444457442623"><ele>110.0</ele><time>2026-04-30T14:22:35.001Z</time></trkpt><trkpt lat="43.33577843569129" lon="-3.143262627978093"><ele>110.2</ele><time>2026-04-30T14:22:36.001Z</time></trkpt><trkpt lat="43.33581312035388" lon="-3.143378608799818"><ele>110.4</ele><time>2026-04-30T14:22:37.001Z</time></trkpt><trkpt lat="43.33584679754276" lon="-3.1434963895603154"><ele>110.6</ele><time>2026-04-30T14:22:38.001Z</time></trkpt><trkpt lat="43.335878945992" lon="-3.143614660653071"><ele>110.8</ele><time>2026-04-30T14:22:39.001Z</time></trkpt><trkpt lat="43.335914723704406" lon="-3.1437384324883957"><ele>111.0</ele><time>2026-04-30T14:22:40.001Z</time></trkpt><trkpt lat="43.335955333604474" lon="-3.1438634464217765"><ele>111.0</ele><time>2026-04-30T14:22:41.001Z</time></trkpt><trkpt lat="43.33599183424793" lon="-3.1439813946706026"><ele>111.0</ele><time>2026-04-30T14:22:42.001Z</time></trkpt><trkpt lat="43.3360316965673" lon="-3.1441023257345564"><ele>111.0</ele><time>2026-04-30T14:22:43.001Z</time></trkpt><trkpt lat="43.336071506790915" lon="-3.144224766862539"><ele>111.0</ele><time>2026-04-30T14:22:44.001Z</time></trkpt><trkpt lat="43.33611294590882" lon="-3.1443453394347096"><ele>111.0</ele><time>2026-04-30T14:22:45.001Z</time></trkpt><trkpt lat="43.33615407752953" lon="-3.1444709567144957"><ele>111.6</ele><time>2026-04-30T14:22:46.001Z</time></trkpt><trkpt lat="43.33619336728407" lon="-3.1445911080387856"><ele>112.19999999999999</ele><time>2026-04-30T14:22:47.001Z</time></trkpt><trkpt lat="43.336233364868825" lon="-3.144713748661424"><ele>112.80000000000001</ele><time>2026-04-30T14:22:48.001Z</time></trkpt><trkpt lat="43.33627481511462" lon="-3.144836434022972"><ele>113.4</ele><time>2026-04-30T14:22:49.001Z</time></trkpt><trkpt lat="43.336314214260106" lon="-3.144955683383962"><ele>114.0</ele><time>2026-04-30T14:22:50.001Z</time></trkpt><trkpt lat="43.336353343813975" lon="-3.1450774260473313"><ele>112.0</ele><time>2026-04-30T14:22:51.001Z</time></trkpt><trkpt lat="43.336391421540256" lon="-3.1452024987561957"><ele>110.0</ele><time>2026-04-30T14:22:52.001Z</time></trkpt><trkpt lat="43.33643319134174" lon="-3.1453228652683562"><ele>108.0</ele><time>2026-04-30T14:22:53.001Z</time></trkpt><trkpt lat="43.33647407095263" lon="-3.1454438819418273"><ele>106.0</ele><time>2026-04-30T14:22:54.001Z</time></trkpt><trkpt lat="43.33651459009016" lon="-3.145567571646582"><ele>104.0</ele><time>2026-04-30T14:22:55.001Z</time></trkpt><trkpt lat="43.336553383819805" lon="-3.1456941480967666"><ele>104.6</ele><time>2026-04-30T14:22:56.001Z</time></trkpt><trkpt lat="43.33658987831653" lon="-3.145817919334112"><ele>105.2</ele><time>2026-04-30T14:22:57.001Z</time></trkpt><trkpt lat="43.336627939824126" lon="-3.145947340751176"><ele>105.79999999999998</ele><time>2026-04-30T14:22:58.001Z</time></trkpt><trkpt lat="43.336667676980184" lon="-3.1460676010417497"><ele>106.39999999999999</ele><time>2026-04-30T14:22:59.001Z</time></trkpt><trkpt lat="43.336712444987334" lon="-3.1461906512847078"><ele>107.0</ele><time>2026-04-30T14:23:00.002Z</time></trkpt><trkpt lat="43.336762880526294" lon="-3.146307213412579"><ele>107.0</ele><time>2026-04-30T14:23:01.002Z</time></trkpt><trkpt lat="43.33681697266048" lon="-3.1464187678329485"><ele>106.99999999999999</ele><time>2026-04-30T14:23:02.002Z</time></trkpt><trkpt lat="43.33687296108835" lon="-3.146528405705542"><ele>106.99999999999999</ele><time>2026-04-30T14:23:03.002Z</time></trkpt><trkpt lat="43.33693034183278" lon="-3.1466392935033425"><ele>107.0</ele><time>2026-04-30T14:23:04.002Z</time></trkpt><trkpt lat="43.33698760564509" lon="-3.146744360704013"><ele>107.0</ele><time>2026-04-30T14:23:05.002Z</time></trkpt><trkpt lat="43.337044811896405" lon="-3.146853531206578"><ele>107.19999999999999</ele><time>2026-04-30T14:23:06.002Z</time></trkpt><trkpt lat="43.337104208595626" lon="-3.1469590449194333"><ele>107.39999999999999</ele><time>2026-04-30T14:23:07.002Z</time></trkpt><trkpt lat="43.33716075975963" lon="-3.147065611648627"><ele>107.60000000000001</ele><time>2026-04-30T14:23:08.002Z</time></trkpt><trkpt lat="43.337215962148385" lon="-3.147175554647168"><ele>107.80000000000001</ele><time>2026-04-30T14:23:09.002Z</time></trkpt><trkpt lat="43.337270596721524" lon="-3.1472855613712496"><ele>108.0</ele><time>2026-04-30T14:23:10.002Z</time></trkpt><trkpt lat="43.337326010853054" lon="-3.147393853363793"><ele>108.0</ele><time>2026-04-30T14:23:11.002Z</time></trkpt><trkpt lat="43.33737945424414" lon="-3.1475020775067044"><ele>108.00000000000001</ele><time>2026-04-30T14:23:12.002Z</time></trkpt><trkpt lat="43.33743922110206" lon="-3.14760583870389"><ele>108.00000000000001</ele><time>2026-04-30T14:23:13.002Z</time></trkpt><trkpt lat="43.337492684817654" lon="-3.147707551029424"><ele>108.0</ele><time>2026-04-30T14:23:14.002Z</time></trkpt><trkpt lat="43.33754056688374" lon="-3.147820623008415"><ele>108.0</ele><time>2026-04-30T14:23:15.002Z</time></trkpt><trkpt lat="43.33758539283632" lon="-3.147929588515203"><ele>108.0</ele><time>2026-04-30T14:23:16.002Z</time></trkpt><trkpt lat="43.33762143524404" lon="-3.1480423002869924"><ele>108.00000000000001</ele><time>2026-04-30T14:23:17.002Z</time></trkpt><trkpt lat="43.33764801993432" lon="-3.1481652151965003"><ele>108.00000000000001</ele><time>2026-04-30T14:23:18.002Z</time></trkpt><trkpt lat="43.33766897015416" lon="-3.148290374797876"><ele>108.0</ele><time>2026-04-30T14:23:19.002Z</time></trkpt><trkpt lat="43.33768969915458" lon="-3.148414094650323"><ele>108.0</ele><time>2026-04-30T14:23:20.002Z</time></trkpt><trkpt lat="43.33771028915532" lon="-3.148541720047916"><ele>110.0</ele><time>2026-04-30T14:23:21.002Z</time></trkpt><trkpt lat="43.33773030550928" lon="-3.148671286560471"><ele>112.00000000000001</ele><time>2026-04-30T14:23:22.002Z</time></trkpt><trkpt lat="43.337748456037744" lon="-3.148799749294972"><ele>114.00000000000001</ele><time>2026-04-30T14:23:23.002Z</time></trkpt><trkpt lat="43.33776538849402" lon="-3.1489277569082654"><ele>116.0</ele><time>2026-04-30T14:23:24.002Z</time></trkpt><trkpt lat="43.33778164737175" lon="-3.1490532491953953"><ele>118.0</ele><time>2026-04-30T14:23:25.002Z</time></trkpt><trkpt lat="43.337796840985135" lon="-3.149180563718617"><ele>119.2</ele><time>2026-04-30T14:23:26.002Z</time></trkpt><trkpt lat="43.337811798790575" lon="-3.1493063376139294"><ele>120.4</ele><time>2026-04-30T14:23:27.002Z</time></trkpt><trkpt lat="43.33783043272536" lon="-3.149428341813496"><ele>121.60000000000001</ele><time>2026-04-30T14:23:28.002Z</time></trkpt><trkpt lat="43.33784974437317" lon="-3.149550407257624"><ele>122.80000000000001</ele><time>2026-04-30T14:23:29.002Z</time></trkpt><trkpt lat="43.33787446544198" lon="-3.1496696997871716"><ele>124.0</ele><time>2026-04-30T14:23:30.002Z</time></trkpt><trkpt lat="43.33790178074854" lon="-3.149791852109075"><ele>123.2</ele><time>2026-04-30T14:23:31.002Z</time></trkpt><trkpt lat="43.33793512431645" lon="-3.149909339630213"><ele>122.4</ele><time>2026-04-30T14:23:32.002Z</time></trkpt><trkpt lat="43.337977705000114" lon="-3.150020826536507"><ele>121.6</ele><time>2026-04-30T14:23:33.002Z</time></trkpt><trkpt lat="43.33802424042233" lon="-3.1501283840194003"><ele>120.8</ele><time>2026-04-30T14:23:34.002Z</time></trkpt><trkpt lat="43.33807910113976" lon="-3.1502250554235904"><ele>120.0</ele><time>2026-04-30T14:23:35Z</time></trkpt><trkpt lat="43.33813801951054" lon="-3.150321374329276"><ele>120.6</ele><time>2026-04-30T14:23:36Z</time></trkpt><trkpt lat="43.3382008244542" lon="-3.1504108419240713"><ele>121.2</ele><time>2026-04-30T14:23:37Z</time></trkpt><trkpt lat="43.338261775942804" lon="-3.1505017297764994"><ele>121.80000000000001</ele><time>2026-04-30T14:23:38Z</time></trkpt><trkpt lat="43.338324364439046" lon="-3.1505932159766825"><ele>122.4</ele><time>2026-04-30T14:23:39Z</time></trkpt><trkpt lat="43.33838587435502" lon="-3.150685732929017"><ele>123.0</ele><time>2026-04-30T14:23:40Z</time></trkpt><trkpt lat="43.338444777319154" lon="-3.1507816394765906"><ele>123.0</ele><time>2026-04-30T14:23:41Z</time></trkpt><trkpt lat="43.33850324771195" lon="-3.150874998604727"><ele>123.00000000000001</ele><time>2026-04-30T14:23:42Z</time></trkpt><trkpt lat="43.338559478393876" lon="-3.150980500007525"><ele>123.00000000000001</ele><time>2026-04-30T14:23:43Z</time></trkpt><trkpt lat="43.33861129742721" lon="-3.1510880841618287"><ele>123.0</ele><time>2026-04-30T14:23:44Z</time></trkpt><trkpt lat="43.33866022515005" lon="-3.151199668313762"><ele>123.0</ele><time>2026-04-30T14:23:45Z</time></trkpt><trkpt lat="43.338705557180695" lon="-3.151315731743545"><ele>123.0</ele><time>2026-04-30T14:23:46Z</time></trkpt><trkpt lat="43.33874904258525" lon="-3.15143943999352"><ele>123.00000000000001</ele><time>2026-04-30T14:23:47Z</time></trkpt><trkpt lat="43.33879910897678" lon="-3.1515573363175524"><ele>123.00000000000001</ele><time>2026-04-30T14:23:48Z</time></trkpt><trkpt lat="43.33885176690637" lon="-3.1516775912202823"><ele>123.0</ele><time>2026-04-30T14:23:49Z</time></trkpt><trkpt lat="43.33889950752689" lon="-3.151795000089216"><ele>123.0</ele><time>2026-04-30T14:23:50Z</time></trkpt><trkpt lat="43.338952913048274" lon="-3.151912223813539"><ele>122.0</ele><time>2026-04-30T14:23:51Z</time></trkpt><trkpt lat="43.33901099033128" lon="-3.1520214682737344"><ele>121.00000000000001</ele><time>2026-04-30T14:23:52Z</time></trkpt><trkpt lat="43.339073813604266" lon="-3.152123315812757"><ele>120.00000000000001</ele><time>2026-04-30T14:23:53Z</time></trkpt><trkpt lat="43.33914709049363" lon="-3.152213577791539"><ele>119.0</ele><time>2026-04-30T14:23:54Z</time></trkpt><trkpt lat="43.33922862560587" lon="-3.152296506164195"><ele>118.0</ele><time>2026-04-30T14:23:55Z</time></trkpt><trkpt lat="43.33930994615922" lon="-3.1523701100013906"><ele>119.60000000000001</ele><time>2026-04-30T14:23:56Z</time></trkpt><trkpt lat="43.33938876596069" lon="-3.1524525800405554"><ele>121.20000000000002</ele><time>2026-04-30T14:23:57Z</time></trkpt><trkpt lat="43.33947047082813" lon="-3.152528721992922"><ele>122.8</ele><time>2026-04-30T14:23:58Z</time></trkpt><trkpt lat="43.33954830065822" lon="-3.1526083545501136"><ele>124.4</ele><time>2026-04-30T14:23:59Z</time></trkpt><trkpt lat="43.339628584219774" lon="-3.152688155505635"><ele>126.0</ele><time>2026-04-30T14:24:00Z</time></trkpt><trkpt lat="43.3397042892416" lon="-3.1527640588003694"><ele>123.6</ele><time>2026-04-30T14:24:01Z</time></trkpt><trkpt lat="43.33978115575996" lon="-3.1528445163430656"><ele>121.19999999999999</ele><time>2026-04-30T14:24:02Z</time></trkpt><trkpt lat="43.3398586061997" lon="-3.152919826008271"><ele>118.80000000000001</ele><time>2026-04-30T14:24:03Z</time></trkpt><trkpt lat="43.33993613006572" lon="-3.1529988179703454"><ele>116.4</ele><time>2026-04-30T14:24:04Z</time></trkpt><trkpt lat="43.34001175817949" lon="-3.1530814315889075"><ele>114.0</ele><time>2026-04-30T14:24:05.001Z</time></trkpt><trkpt lat="43.34008439509987" lon="-3.153157601059811"><ele>116.4</ele><time>2026-04-30T14:24:06.001Z</time></trkpt><trkpt lat="43.340157298443664" lon="-3.153242640484962"><ele>118.80000000000001</ele><time>2026-04-30T14:24:07.001Z</time></trkpt><trkpt lat="43.340227821328924" lon="-3.153329006329439"><ele>121.19999999999999</ele><time>2026-04-30T14:24:08.001Z</time></trkpt><trkpt lat="43.3402958276985" lon="-3.1534197859166073"><ele>123.6</ele><time>2026-04-30T14:24:09.001Z</time></trkpt><trkpt lat="43.34036420459523" lon="-3.1535095183265645"><ele>126.0</ele><time>2026-04-30T14:24:10.001Z</time></trkpt><trkpt lat="43.34043310820033" lon="-3.1536030228827925"><ele>126.0</ele><time>2026-04-30T14:24:11.001Z</time></trkpt><trkpt lat="43.34050119228556" lon="-3.153698452658866"><ele>126.0</ele><time>2026-04-30T14:24:12.001Z</time></trkpt><trkpt lat="43.34057116714454" lon="-3.1537904880723673"><ele>126.0</ele><time>2026-04-30T14:24:13.001Z</time></trkpt><trkpt lat="43.34064163502857" lon="-3.1538854384700485"><ele>126.0</ele><time>2026-04-30T14:24:14.001Z</time></trkpt><trkpt lat="43.340711208101" lon="-3.1539778215632586"><ele>126.0</ele><time>2026-04-30T14:24:15.001Z</time></trkpt><trkpt lat="43.340778336258026" lon="-3.1540741479785104"><ele>125.4</ele><time>2026-04-30T14:24:16.001Z</time></trkpt><trkpt lat="43.340842256983805" lon="-3.154170421696658"><ele>124.8</ele><time>2026-04-30T14:24:17.001Z</time></trkpt><trkpt lat="43.34090820080322" lon="-3.154266686390771"><ele>124.20000000000002</ele><time>2026-04-30T14:24:18.001Z</time></trkpt><trkpt lat="43.340977223533514" lon="-3.1543618032894725"><ele>123.60000000000001</ele><time>2026-04-30T14:24:19.001Z</time></trkpt><trkpt lat="43.34104296844368" lon="-3.154458206691626"><ele>123.0</ele><time>2026-04-30T14:24:20.001Z</time></trkpt><trkpt lat="43.341112563615695" lon="-3.1545521692643583"><ele>123.0</ele><time>2026-04-30T14:24:21.001Z</time></trkpt><trkpt lat="43.34117838074841" lon="-3.154642991442296"><ele>123.0</ele><time>2026-04-30T14:24:22.001Z</time></trkpt><trkpt lat="43.34123980094398" lon="-3.1547263178479032"><ele>123.0</ele><time>2026-04-30T14:24:23.001Z</time></trkpt><trkpt lat="43.341298401915154" lon="-3.1548055217455566"><ele>123.0</ele><time>2026-04-30T14:24:24.001Z</time></trkpt><trkpt lat="43.34134600452594" lon="-3.154887622595575"><ele>123.0</ele><time>2026-04-30T14:24:25.001Z</time></trkpt><trkpt lat="43.34139807427746" lon="-3.1549549776724106"><ele>123.0</ele><time>2026-04-30T14:24:26.001Z</time></trkpt><trkpt lat="43.341441477272376" lon="-3.1550236404189165"><ele>122.4</ele><time>2026-04-30T14:24:27.001Z</time></trkpt><trkpt lat="43.34151810395992" lon="-3.1551451056742086"><ele>121.80000000000001</ele><time>2026-04-30T14:24:29.001Z</time></trkpt><trkpt lat="43.341584726350014" lon="-3.155258560526912"><ele>121.2</ele><time>2026-04-30T14:24:31.001Z</time></trkpt><trkpt lat="43.341661885986774" lon="-3.1553391749660684"><ele>120.6</ele><time>2026-04-30T14:24:33.001Z</time></trkpt><trkpt lat="43.341711725025746" lon="-3.155425174042432"><ele>120.0</ele><time>2026-04-30T14:24:36.001Z</time></trkpt><trkpt lat="43.341768804111986" lon="-3.155485821141224"><ele>120.0</ele><time>2026-04-30T14:24:58.002Z</time></trkpt><trkpt lat="43.341835242285846" lon="-3.1555776090811722"><ele>120.0</ele><time>2026-04-30T14:25:03.002Z</time></trkpt><trkpt lat="43.34190883638916" lon="-3.1556792858516984"><ele>120.0</ele><time>2026-04-30T14:25:05.002Z</time></trkpt><trkpt lat="43.341953750654184" lon="-3.1557457153158226"><ele>120.0</ele><time>2026-04-30T14:25:06.002Z</time></trkpt><trkpt lat="43.34199976126847" lon="-3.155811241381104"><ele>120.0</ele><time>2026-04-30T14:25:07.002Z</time></trkpt><trkpt lat="43.342048683909034" lon="-3.1558900032921544"><ele>120.0</ele><time>2026-04-30T14:25:08.002Z</time></trkpt><trkpt lat="43.34209617482258" lon="-3.155970971833657"><ele>120.5</ele><time>2026-04-30T14:25:09.002Z</time></trkpt><trkpt lat="43.34214533923096" lon="-3.156054793458229"><ele>121.0</ele><time>2026-04-30T14:25:10.002Z</time></trkpt><trkpt lat="43.34219411862741" lon="-3.1561379603054767"><ele>121.5</ele><time>2026-04-30T14:25:11.002Z</time></trkpt><trkpt lat="43.342233766875175" lon="-3.1562335910026276"><ele>122.0</ele><time>2026-04-30T14:25:12.002Z</time></trkpt><trkpt lat="43.34227915965316" lon="-3.156308103863168"><ele>122.5</ele><time>2026-04-30T14:25:13.002Z</time></trkpt><trkpt lat="43.342324979115375" lon="-3.1563811568780675"><ele>123.0</ele><time>2026-04-30T14:25:14.002Z</time></trkpt><trkpt lat="43.34241108969152" lon="-3.1564820447526203"><ele>121.80000000000001</ele><time>2026-04-30T14:25:16.002Z</time></trkpt><trkpt lat="43.34248357218895" lon="-3.156550305579113"><ele>120.60000000000001</ele><time>2026-04-30T14:25:18.002Z</time></trkpt><trkpt lat="43.342551549370135" lon="-3.1566098974996244"><ele>119.39999999999999</ele><time>2026-04-30T14:25:20.002Z</time></trkpt><trkpt lat="43.34245422444665" lon="-3.1566042840570803"><ele>118.19999999999999</ele><time>2026-04-30T14:25:22.002Z</time></trkpt><trkpt lat="43.342531224258984" lon="-3.15656504934732"><ele>117.0</ele><time>2026-04-30T14:25:25.002Z</time></trkpt><trkpt lat="43.342647420343326" lon="-3.1565259876810257"><ele>117.0</ele><time>2026-04-30T14:25:27.002Z</time></trkpt><trkpt lat="43.342740795260156" lon="-3.156581424709247"><ele>116.99999999999999</ele><time>2026-04-30T14:25:29.002Z</time></trkpt><trkpt lat="43.34278482194509" lon="-3.156714231095499"><ele>116.99999999999999</ele><time>2026-04-30T14:25:33.002Z</time></trkpt><trkpt lat="43.34274648032976" lon="-3.1568419917428536"><ele>117.0</ele><time>2026-04-30T14:25:35.002Z</time></trkpt><trkpt lat="43.34269320582821" lon="-3.156920018455211"><ele>117.0</ele><time>2026-04-30T14:25:37.002Z</time></trkpt><trkpt lat="43.34270221862829" lon="-3.1570661663599227"><ele>117.0</ele><time>2026-04-30T14:25:39.002Z</time></trkpt><trkpt lat="43.342745984218546" lon="-3.157206944556845"><ele>117.0</ele><time>2026-04-30T14:25:41Z</time></trkpt><trkpt lat="43.34282413375812" lon="-3.1572534419049543"><ele>117.0</ele><time>2026-04-30T14:25:42Z</time></trkpt><trkpt lat="43.34287536796269" lon="-3.1573195781080874"><ele>117.0</ele><time>2026-04-30T14:25:43Z</time></trkpt><trkpt lat="43.34293042825652" lon="-3.1573974431102036"><ele>117.0</ele><time>2026-04-30T14:25:44Z</time></trkpt><trkpt lat="43.342986484178965" lon="-3.1574815775299223"><ele>117.0</ele><time>2026-04-30T14:25:45Z</time></trkpt><trkpt lat="43.343047039875906" lon="-3.15756463831893"><ele>115.66666666666667</ele><time>2026-04-30T14:25:46Z</time></trkpt><trkpt lat="43.34311054910737" lon="-3.157645585510905"><ele>114.33333333333334</ele><time>2026-04-30T14:25:47Z</time></trkpt><trkpt lat="43.34317227540327" lon="-3.157727554871782"><ele>113.0</ele><time>2026-04-30T14:25:48Z</time></trkpt><trkpt lat="43.343234557921136" lon="-3.15781474424372"><ele>111.66666666666667</ele><time>2026-04-30T14:25:49Z</time></trkpt><trkpt lat="43.34329854388557" lon="-3.1579046060948386"><ele>110.33333333333334</ele><time>2026-04-30T14:25:50Z</time></trkpt><trkpt lat="43.34336120478464" lon="-3.157996391044089"><ele>109.0</ele><time>2026-04-30T14:25:51Z</time></trkpt><trkpt lat="43.34342511302837" lon="-3.158088452497411"><ele>109.0</ele><time>2026-04-30T14:25:52Z</time></trkpt><trkpt lat="43.34348760664801" lon="-3.158182595466309"><ele>109.0</ele><time>2026-04-30T14:25:53Z</time></trkpt><trkpt lat="43.343553341561524" lon="-3.158275239932247"><ele>109.0</ele><time>2026-04-30T14:25:54Z</time></trkpt><trkpt lat="43.34362421709478" lon="-3.158371120443013"><ele>109.0</ele><time>2026-04-30T14:25:55Z</time></trkpt><trkpt lat="43.34368527064213" lon="-3.158467829411803"><ele>109.0</ele><time>2026-04-30T14:25:56Z</time></trkpt><trkpt lat="43.34375771637075" lon="-3.1585680863422976"><ele>110.0</ele><time>2026-04-30T14:25:57Z</time></trkpt><trkpt lat="43.343828849634946" lon="-3.158670992349449"><ele>111.0</ele><time>2026-04-30T14:25:58Z</time></trkpt><trkpt lat="43.34390216942433" lon="-3.1587751594563946"><ele>112.0</ele><time>2026-04-30T14:25:59Z</time></trkpt><trkpt lat="43.34396686183904" lon="-3.158869151461765"><ele>113.0</ele><time>2026-04-30T14:26:00Z</time></trkpt><trkpt lat="43.34403155921404" lon="-3.158975197396647"><ele>114.0</ele><time>2026-04-30T14:26:01Z</time></trkpt><trkpt lat="43.34409325256884" lon="-3.1590805667161472"><ele>111.0</ele><time>2026-04-30T14:26:02Z</time></trkpt><trkpt lat="43.34417751844718" lon="-3.159185376948331"><ele>108.0</ele><time>2026-04-30T14:26:03Z</time></trkpt><trkpt lat="43.34425657954981" lon="-3.1592881499774768"><ele>105.0</ele><time>2026-04-30T14:26:04Z</time></trkpt><trkpt lat="43.34433548808932" lon="-3.1593967580922175"><ele>102.0</ele><time>2026-04-30T14:26:05Z</time></trkpt><trkpt lat="43.3444592721094" lon="-3.159509680475187"><ele>102.0</ele><time>2026-04-30T14:26:06Z</time></trkpt><trkpt lat="43.34454982970575" lon="-3.1596107472709734"><ele>102.0</ele><time>2026-04-30T14:26:07Z</time></trkpt><trkpt lat="43.344557039648976" lon="-3.1597251601760172"><ele>102.0</ele><time>2026-04-30T14:26:08Z</time></trkpt><trkpt lat="43.344627829241155" lon="-3.159823848642113"><ele>102.0</ele><time>2026-04-30T14:26:09Z</time></trkpt><trkpt lat="43.3446554571301" lon="-3.1599242785702644"><ele>102.0</ele><time>2026-04-30T14:26:10.001Z</time></trkpt><trkpt lat="43.34466802287258" lon="-3.1600453343856736"><ele>98.66666666666667</ele><time>2026-04-30T14:26:11.001Z</time></trkpt><trkpt lat="43.34480612641874" lon="-3.1601511796126247"><ele>95.33333333333334</ele><time>2026-04-30T14:26:12.001Z</time></trkpt><trkpt lat="43.34491584556146" lon="-3.160270483724175"><ele>92.0</ele><time>2026-04-30T14:26:13.001Z</time></trkpt><trkpt lat="43.34506276677772" lon="-3.1604132230038564"><ele>92.0</ele><time>2026-04-30T14:26:14.001Z</time></trkpt><trkpt lat="43.34515488840134" lon="-3.160527450067537"><ele>92.0</ele><time>2026-04-30T14:26:15.001Z</time></trkpt><trkpt lat="43.34516932365088" lon="-3.160692317983275"><ele>92.0</ele><time>2026-04-30T14:26:17.001Z</time></trkpt><trkpt lat="43.34520262030016" lon="-3.160824394646723"><ele>92.0</ele><time>2026-04-30T14:26:18.001Z</time></trkpt><trkpt lat="43.34531540310126" lon="-3.160950994717823"><ele>93.0</ele><time>2026-04-30T14:26:19.001Z</time></trkpt><trkpt lat="43.345423320903" lon="-3.1610674975541735"><ele>94.0</ele><time>2026-04-30T14:26:20.001Z</time></trkpt><trkpt lat="43.345428124445014" lon="-3.1611799830699403"><ele>95.0</ele><time>2026-04-30T14:26:21.001Z</time></trkpt><trkpt lat="43.34548737106809" lon="-3.1612985073299216"><ele>96.0</ele><time>2026-04-30T14:26:22.001Z</time></trkpt><trkpt lat="43.34554846447238" lon="-3.1614188047736045"><ele>97.0</ele><time>2026-04-30T14:26:23.001Z</time></trkpt><trkpt lat="43.34560474749506" lon="-3.161541091405336"><ele>93.39999999999999</ele><time>2026-04-30T14:26:24.001Z</time></trkpt><trkpt lat="43.34566152396077" lon="-3.161658348413025"><ele>89.8</ele><time>2026-04-30T14:26:25.001Z</time></trkpt><trkpt lat="43.34571844118443" lon="-3.16177294915767"><ele>86.2</ele><time>2026-04-30T14:26:26.001Z</time></trkpt><trkpt lat="43.34577836031511" lon="-3.1618869685083215"><ele>82.6</ele><time>2026-04-30T14:26:27.001Z</time></trkpt><trkpt lat="43.34583910666489" lon="-3.1619935917678723"><ele>79.0</ele><time>2026-04-30T14:26:28.001Z</time></trkpt><trkpt lat="43.34590776462776" lon="-3.1621072481299315"><ele>79.0</ele><time>2026-04-30T14:26:29.001Z</time></trkpt><trkpt lat="43.34597266920053" lon="-3.1622232523819584"><ele>79.0</ele><time>2026-04-30T14:26:30.001Z</time></trkpt><trkpt lat="43.3460441476192" lon="-3.1623346385455378"><ele>79.0</ele><time>2026-04-30T14:26:31.001Z</time></trkpt><trkpt lat="43.3461172071468" lon="-3.1624354902864247"><ele>79.0</ele><time>2026-04-30T14:26:32.001Z</time></trkpt><trkpt lat="43.34619419601157" lon="-3.1625381625068276"><ele>79.0</ele><time>2026-04-30T14:26:33.001Z</time></trkpt><trkpt lat="43.34626651572592" lon="-3.1626426833668604"><ele>81.4</ele><time>2026-04-30T14:26:34.001Z</time></trkpt><trkpt lat="43.34633881972493" lon="-3.1627471962661824"><ele>83.80000000000001</ele><time>2026-04-30T14:26:35.001Z</time></trkpt><trkpt lat="43.346409347907226" lon="-3.1628537627334308"><ele>86.19999999999999</ele><time>2026-04-30T14:26:36.001Z</time></trkpt><trkpt lat="43.34648211614536" lon="-3.16295615469775"><ele>88.6</ele><time>2026-04-30T14:26:37.001Z</time></trkpt><trkpt lat="43.34655670547996" lon="-3.1630604560346756"><ele>91.0</ele><time>2026-04-30T14:26:38.001Z</time></trkpt><trkpt lat="43.34662978003122" lon="-3.1631607232302037"><ele>88.0</ele><time>2026-04-30T14:26:39.001Z</time></trkpt><trkpt lat="43.34670306918922" lon="-3.1632690433462587"><ele>85.0</ele><time>2026-04-30T14:26:40.001Z</time></trkpt><trkpt lat="43.34677645797892" lon="-3.1633740331400837"><ele>82.0</ele><time>2026-04-30T14:26:41.001Z</time></trkpt><trkpt lat="43.34684636027247" lon="-3.1634768981681813"><ele>79.0</ele><time>2026-04-30T14:26:42.001Z</time></trkpt><trkpt lat="43.34691946604252" lon="-3.1635771618785"><ele>76.0</ele><time>2026-04-30T14:26:43.001Z</time></trkpt><trkpt lat="43.346990979268334" lon="-3.163681034683568"><ele>76.0</ele><time>2026-04-30T14:26:44.001Z</time></trkpt><trkpt lat="43.34705901213177" lon="-3.163786149914568"><ele>76.0</ele><time>2026-04-30T14:26:45.001Z</time></trkpt><trkpt lat="43.347122093385096" lon="-3.1638931148080656"><ele>76.0</ele><time>2026-04-30T14:26:46.001Z</time></trkpt><trkpt lat="43.34718388530167" lon="-3.1640016319699122"><ele>76.0</ele><time>2026-04-30T14:26:47.001Z</time></trkpt><trkpt lat="43.34724956059433" lon="-3.1641014341320153"><ele>76.0</ele><time>2026-04-30T14:26:48.001Z</time></trkpt><trkpt lat="43.34733604573079" lon="-3.164181551008709"><ele>73.2</ele><time>2026-04-30T14:26:49.001Z</time></trkpt><trkpt lat="43.34736486701028" lon="-3.1643220078669176"><ele>70.39999999999999</ele><time>2026-04-30T14:26:50.001Z</time></trkpt><trkpt lat="43.347410413463216" lon="-3.164442577548986"><ele>67.6</ele><time>2026-04-30T14:26:51.001Z</time></trkpt><trkpt lat="43.347463423104365" lon="-3.1645543703459107"><ele>64.8</ele><time>2026-04-30T14:26:52.001Z</time></trkpt><trkpt lat="43.347519091451375" lon="-3.1646640422257555"><ele>62.0</ele><time>2026-04-30T14:26:53.001Z</time></trkpt><trkpt lat="43.34757736929608" lon="-3.164773239375906"><ele>63.6</ele><time>2026-04-30T14:26:54.001Z</time></trkpt><trkpt lat="43.34763504923014" lon="-3.164880369989556"><ele>65.2</ele><time>2026-04-30T14:26:55.001Z</time></trkpt><trkpt lat="43.34769106562333" lon="-3.1649897129417375"><ele>66.8</ele><time>2026-04-30T14:26:56.001Z</time></trkpt><trkpt lat="43.34774800980817" lon="-3.1650964168469002"><ele>68.4</ele><time>2026-04-30T14:26:57.001Z</time></trkpt><trkpt lat="43.3478049453395" lon="-3.1652068658204615"><ele>70.0</ele><time>2026-04-30T14:26:58.001Z</time></trkpt><trkpt lat="43.34786066938034" lon="-3.1653148977690546"><ele>70.0</ele><time>2026-04-30T14:26:59.001Z</time></trkpt><trkpt lat="43.347915745084855" lon="-3.1654302330687805"><ele>70.0</ele><time>2026-04-30T14:27:00.001Z</time></trkpt><trkpt lat="43.347974644820916" lon="-3.165541513448698"><ele>70.0</ele><time>2026-04-30T14:27:01.001Z</time></trkpt><trkpt lat="43.348035195259826" lon="-3.1656519224217368"><ele>70.0</ele><time>2026-04-30T14:27:02.001Z</time></trkpt><trkpt lat="43.34809874886924" lon="-3.165759234918821"><ele>70.0</ele><time>2026-04-30T14:27:03.001Z</time></trkpt><trkpt lat="43.34815931687569" lon="-3.165865520804815"><ele>66.6</ele><time>2026-04-30T14:27:04.002Z</time></trkpt><trkpt lat="43.34822064321926" lon="-3.165973693668512"><ele>63.2</ele><time>2026-04-30T14:27:05.002Z</time></trkpt><trkpt lat="43.34828245311739" lon="-3.1660800644414024"><ele>59.8</ele><time>2026-04-30T14:27:06.002Z</time></trkpt><trkpt lat="43.34834444023143" lon="-3.16618748982027"><ele>56.4</ele><time>2026-04-30T14:27:07.002Z</time></trkpt><trkpt lat="43.348405563865924" lon="-3.166296062405255"><ele>53.0</ele><time>2026-04-30T14:27:08.002Z</time></trkpt><trkpt lat="43.34846506133067" lon="-3.1664079463403567"><ele>53.0</ele><time>2026-04-30T14:27:09.002Z</time></trkpt><trkpt lat="43.348528261887175" lon="-3.166519029604797"><ele>53.0</ele><time>2026-04-30T14:27:10.002Z</time></trkpt><trkpt lat="43.34859237012394" lon="-3.1666251575692366"><ele>53.0</ele><time>2026-04-30T14:27:11.002Z</time></trkpt><trkpt lat="43.34865302140007" lon="-3.1667354232521747"><ele>53.0</ele><time>2026-04-30T14:27:12.002Z</time></trkpt><trkpt lat="43.34871675846032" lon="-3.1668467579870367"><ele>53.0</ele><time>2026-04-30T14:27:13.002Z</time></trkpt><trkpt lat="43.34878049135935" lon="-3.166951526853187"><ele>52.0</ele><time>2026-04-30T14:27:14.002Z</time></trkpt><trkpt lat="43.348840222022126" lon="-3.1670594945020403"><ele>51.0</ele><time>2026-04-30T14:27:15.002Z</time></trkpt><trkpt lat="43.34889658026305" lon="-3.1671639510789724"><ele>50.0</ele><time>2026-04-30T14:27:16.002Z</time></trkpt><trkpt lat="43.34895316896913" lon="-3.167263654824996"><ele>49.0</ele><time>2026-04-30T14:27:17.002Z</time></trkpt><trkpt lat="43.34902172994363" lon="-3.167367812138534"><ele>48.0</ele><time>2026-04-30T14:27:18.002Z</time></trkpt><trkpt lat="43.34908373283" lon="-3.167472671719309"><ele>48.0</ele><time>2026-04-30T14:27:19.002Z</time></trkpt><trkpt lat="43.34914204419911" lon="-3.167579557249404"><ele>48.0</ele><time>2026-04-30T14:27:20.002Z</time></trkpt><trkpt lat="43.34919595434782" lon="-3.167694494113348"><ele>48.0</ele><time>2026-04-30T14:27:21.002Z</time></trkpt><trkpt lat="43.349255017680555" lon="-3.16781126195413"><ele>48.0</ele><time>2026-04-30T14:27:22.002Z</time></trkpt><trkpt lat="43.34931948066206" lon="-3.167923783130987"><ele>48.0</ele><time>2026-04-30T14:27:23.002Z</time></trkpt><trkpt lat="43.34938671906827" lon="-3.168033154904572"><ele>48.0</ele><time>2026-04-30T14:27:24.002Z</time></trkpt><trkpt lat="43.34945145618027" lon="-3.168146110040926"><ele>48.0</ele><time>2026-04-30T14:27:25.002Z</time></trkpt><trkpt lat="43.349518460218505" lon="-3.1682608632553144"><ele>48.0</ele><time>2026-04-30T14:27:26.002Z</time></trkpt><trkpt lat="43.34958912903573" lon="-3.1683722610295155"><ele>48.0</ele><time>2026-04-30T14:27:27.002Z</time></trkpt><trkpt lat="43.349662708581995" lon="-3.168480540167387"><ele>48.0</ele><time>2026-04-30T14:27:28.002Z</time></trkpt><trkpt lat="43.349743762530565" lon="-3.1685857681803067"><ele>46.599999999999994</ele><time>2026-04-30T14:27:29.002Z</time></trkpt><trkpt lat="43.349821835926356" lon="-3.168691335426456"><ele>45.199999999999996</ele><time>2026-04-30T14:27:30.002Z</time></trkpt><trkpt lat="43.34989777367797" lon="-3.168801867036947"><ele>43.8</ele><time>2026-04-30T14:27:31.002Z</time></trkpt><trkpt lat="43.34997459884888" lon="-3.1689138189491386"><ele>42.4</ele><time>2026-04-30T14:27:32.002Z</time></trkpt><trkpt lat="43.35005316720555" lon="-3.1690276402043485"><ele>41.0</ele><time>2026-04-30T14:27:33.002Z</time></trkpt><trkpt lat="43.350133876018184" lon="-3.169136223121152"><ele>41.0</ele><time>2026-04-30T14:27:34.002Z</time></trkpt><trkpt lat="43.350210511686804" lon="-3.1692435223287587"><ele>41.0</ele><time>2026-04-30T14:27:35.002Z</time></trkpt><trkpt lat="43.35028744588616" lon="-3.169342692158769"><ele>41.0</ele><time>2026-04-30T14:27:36.002Z</time></trkpt><trkpt lat="43.35035861901569" lon="-3.1694402856082564"><ele>41.0</ele><time>2026-04-30T14:27:37.002Z</time></trkpt><trkpt lat="43.350431527492596" lon="-3.169539892965267"><ele>41.0</ele><time>2026-04-30T14:27:38.002Z</time></trkpt><trkpt lat="43.35049372712454" lon="-3.169642416237301"><ele>39.0</ele><time>2026-04-30T14:27:39.002Z</time></trkpt><trkpt lat="43.35054165436626" lon="-3.1697578507010125"><ele>37.0</ele><time>2026-04-30T14:27:40.002Z</time></trkpt><trkpt lat="43.35056991020767" lon="-3.169887517701329"><ele>35.0</ele><time>2026-04-30T14:27:41.002Z</time></trkpt><trkpt lat="43.350584482556165" lon="-3.1700325232120905"><ele>33.0</ele><time>2026-04-30T14:27:42.002Z</time></trkpt><trkpt lat="43.35058255703068" lon="-3.170164087066161"><ele>31.0</ele><time>2026-04-30T14:27:43.002Z</time></trkpt><trkpt lat="43.35057485180476" lon="-3.170294237788574"><ele>31.0</ele><time>2026-04-30T14:27:44.002Z</time></trkpt><trkpt lat="43.350549290798824" lon="-3.1704221323282504"><ele>31.0</ele><time>2026-04-30T14:27:45.002Z</time></trkpt><trkpt lat="43.35051650433709" lon="-3.1705465234258225"><ele>31.0</ele><time>2026-04-30T14:27:46.002Z</time></trkpt><trkpt lat="43.350469997939314" lon="-3.170662903311911"><ele>31.0</ele><time>2026-04-30T14:27:47Z</time></trkpt><trkpt lat="43.35042900451839" lon="-3.1707763124363235"><ele>31.0</ele><time>2026-04-30T14:27:48Z</time></trkpt><trkpt lat="43.3504051083431" lon="-3.1709075457509024"><ele>32.4</ele><time>2026-04-30T14:27:49Z</time></trkpt><trkpt lat="43.35039539332024" lon="-3.1710382818476295"><ele>33.8</ele><time>2026-04-30T14:27:50Z</time></trkpt><trkpt lat="43.35039478598985" lon="-3.171168608255111"><ele>35.199999999999996</ele><time>2026-04-30T14:27:51Z</time></trkpt><trkpt lat="43.350409561298996" lon="-3.1713071591833017"><ele>36.6</ele><time>2026-04-30T14:27:52Z</time></trkpt><trkpt lat="43.35042685098822" lon="-3.171442616897659"><ele>38.0</ele><time>2026-04-30T14:27:53Z</time></trkpt><trkpt lat="43.350448519529344" lon="-3.171575220786564"><ele>38.0</ele><time>2026-04-30T14:27:54Z</time></trkpt><trkpt lat="43.35046618130889" lon="-3.1717079182212147"><ele>38.0</ele><time>2026-04-30T14:27:55Z</time></trkpt><trkpt lat="43.35047044504852" lon="-3.1718397264827543"><ele>38.0</ele><time>2026-04-30T14:27:56Z</time></trkpt><trkpt lat="43.35045536796309" lon="-3.17196295871798"><ele>38.0</ele><time>2026-04-30T14:27:57Z</time></trkpt><trkpt lat="43.35041725597522" lon="-3.1720761408920395"><ele>38.0</ele><time>2026-04-30T14:27:58Z</time></trkpt><trkpt lat="43.35037063183315" lon="-3.1721788555392103"><ele>38.0</ele><time>2026-04-30T14:27:59Z</time></trkpt><trkpt lat="43.3503006181274" lon="-3.1722652711920496"><ele>38.0</ele><time>2026-04-30T14:28:00Z</time></trkpt><trkpt lat="43.350224491887694" lon="-3.17233705484905"><ele>38.0</ele><time>2026-04-30T14:28:01Z</time></trkpt><trkpt lat="43.350137780566115" lon="-3.1723926973856837"><ele>38.0</ele><time>2026-04-30T14:28:02Z</time></trkpt><trkpt lat="43.35004805885209" lon="-3.172428582630063"><ele>38.0</ele><time>2026-04-30T14:28:03Z</time></trkpt><trkpt lat="43.34995826021642" lon="-3.172463219084944"><ele>35.166666666666664</ele><time>2026-04-30T14:28:04Z</time></trkpt><trkpt lat="43.34988155458798" lon="-3.172521660038736"><ele>32.33333333333333</ele><time>2026-04-30T14:28:05Z</time></trkpt><trkpt lat="43.34982080025848" lon="-3.1725963090275213"><ele>29.5</ele><time>2026-04-30T14:28:06Z</time></trkpt><trkpt lat="43.34978765405647" lon="-3.172696039136275"><ele>26.666666666666664</ele><time>2026-04-30T14:28:07Z</time></trkpt><trkpt lat="43.349788573353884" lon="-3.172806721915093"><ele>23.833333333333332</ele><time>2026-04-30T14:28:08Z</time></trkpt><trkpt lat="43.349818144125365" lon="-3.1728998377568427"><ele>21.0</ele><time>2026-04-30T14:28:09Z</time></trkpt><trkpt lat="43.349877413583286" lon="-3.1729761164983836"><ele>21.0</ele><time>2026-04-30T14:28:10Z</time></trkpt><trkpt lat="43.34995049044829" lon="-3.1730162515155307"><ele>21.0</ele><time>2026-04-30T14:28:11Z</time></trkpt><trkpt lat="43.35003149171554" lon="-3.1730379556259267"><ele>21.0</ele><time>2026-04-30T14:28:12Z</time></trkpt><trkpt lat="43.35011134094794" lon="-3.1730556095797766"><ele>21.0</ele><time>2026-04-30T14:28:13Z</time></trkpt><trkpt lat="43.35018641816466" lon="-3.173080212639975"><ele>21.0</ele><time>2026-04-30T14:28:14Z</time></trkpt><trkpt lat="43.35027044797054" lon="-3.1730935594032577"><ele>21.0</ele><time>2026-04-30T14:28:15Z</time></trkpt><trkpt lat="43.35033774364003" lon="-3.173131229605577"><ele>21.0</ele><time>2026-04-30T14:28:16.001Z</time></trkpt><trkpt lat="43.350401972786464" lon="-3.173180366432537"><ele>21.0</ele><time>2026-04-30T14:28:17.001Z</time></trkpt><trkpt lat="43.350468879890876" lon="-3.1732234075144166"><ele>21.0</ele><time>2026-04-30T14:28:18.001Z</time></trkpt><trkpt lat="43.35053052251155" lon="-3.1732654936861624"><ele>21.0</ele><time>2026-04-30T14:28:19.001Z</time></trkpt><trkpt lat="43.3505969300923" lon="-3.1733154980297082"><ele>21.0</ele><time>2026-04-30T14:28:20.001Z</time></trkpt><trkpt lat="43.35065038625532" lon="-3.1733876684524818"><ele>21.0</ele><time>2026-04-30T14:28:21.001Z</time></trkpt><trkpt lat="43.3507199290563" lon="-3.173447825292664"><ele>21.0</ele><time>2026-04-30T14:28:22.001Z</time></trkpt><trkpt lat="43.3507944951788" lon="-3.173487094779272"><ele>22.166666666666668</ele><time>2026-04-30T14:28:23.001Z</time></trkpt><trkpt lat="43.35087039302875" lon="-3.173523197367897"><ele>23.333333333333336</ele><time>2026-04-30T14:28:24.001Z</time></trkpt><trkpt lat="43.350946985123784" lon="-3.173551960385783"><ele>24.5</ele><time>2026-04-30T14:28:25.001Z</time></trkpt><trkpt lat="43.35102015910217" lon="-3.1735942075311905"><ele>25.666666666666668</ele><time>2026-04-30T14:28:26.001Z</time></trkpt><trkpt lat="43.351089701096456" lon="-3.173634197189958"><ele>26.833333333333336</ele><time>2026-04-30T14:28:27.001Z</time></trkpt><trkpt lat="43.351176067785715" lon="-3.1736609921510737"><ele>28.0</ele><time>2026-04-30T14:28:28.001Z</time></trkpt><trkpt lat="43.351300384548395" lon="-3.173668247627824"><ele>27.2</ele><time>2026-04-30T14:28:29.001Z</time></trkpt><trkpt lat="43.35140532291818" lon="-3.1736883738450814"><ele>26.4</ele><time>2026-04-30T14:28:30.001Z</time></trkpt><trkpt lat="43.3514648736628" lon="-3.17381236427673"><ele>25.599999999999998</ele><time>2026-04-30T14:28:32.001Z</time></trkpt><trkpt lat="43.35152426039935" lon="-3.1739224992303137"><ele>24.799999999999997</ele><time>2026-04-30T14:28:34.001Z</time></trkpt><trkpt lat="43.35160591221153" lon="-3.1739855886880215"><ele>24.0</ele><time>2026-04-30T14:28:35.001Z</time></trkpt><trkpt lat="43.351717781129885" lon="-3.1740629830068583"><ele>28.0</ele><time>2026-04-30T14:28:36.001Z</time></trkpt><trkpt lat="43.35183904885411" lon="-3.1740804745799416"><ele>32.0</ele><time>2026-04-30T14:28:37.001Z</time></trkpt><trkpt lat="43.351913552590766" lon="-3.1741199894594962"><ele>36.0</ele><time>2026-04-30T14:28:38.001Z</time></trkpt><trkpt lat="43.351877323451816" lon="-3.1744337800503906"><ele>40.0</ele><time>2026-04-30T14:28:40.001Z</time></trkpt><trkpt lat="43.351889839339435" lon="-3.1745449615712795"><ele>40.0</ele><time>2026-04-30T14:28:41.001Z</time></trkpt><trkpt lat="43.35192619677686" lon="-3.1746315097916127"><ele>40.0</ele><time>2026-04-30T14:28:42.001Z</time></trkpt><trkpt lat="43.35195287296672" lon="-3.1747255629211613"><ele>40.0</ele><time>2026-04-30T14:28:43.001Z</time></trkpt><trkpt lat="43.35195958270992" lon="-3.1748365136415746"><ele>40.0</ele><time>2026-04-30T14:28:44.001Z</time></trkpt><trkpt lat="43.351977440499525" lon="-3.1749429468280237"><ele>40.0</ele><time>2026-04-30T14:28:45.001Z</time></trkpt><trkpt lat="43.35199551539859" lon="-3.175044143349348"><ele>40.0</ele><time>2026-04-30T14:28:46.001Z</time></trkpt><trkpt lat="43.35201978472855" lon="-3.1751682630063245"><ele>40.5</ele><time>2026-04-30T14:28:47.001Z</time></trkpt><trkpt lat="43.35207698340594" lon="-3.175326419785787"><ele>41.0</ele><time>2026-04-30T14:28:49.001Z</time></trkpt><trkpt lat="43.35211776964482" lon="-3.175410125910598"><ele>41.5</ele><time>2026-04-30T14:28:50.001Z</time></trkpt><trkpt lat="43.352177724381065" lon="-3.1754804832579056"><ele>42.0</ele><time>2026-04-30T14:28:51.001Z</time></trkpt><trkpt lat="43.352240832354525" lon="-3.175539008709629"><ele>42.5</ele><time>2026-04-30T14:28:52.001Z</time></trkpt><trkpt lat="43.35230569568585" lon="-3.17558341270584"><ele>43.0</ele><time>2026-04-30T14:28:53.001Z</time></trkpt><trkpt lat="43.35237230905442" lon="-3.175615948329086"><ele>43.00000000000001</ele><time>2026-04-30T14:28:54.001Z</time></trkpt><trkpt lat="43.35244113796684" lon="-3.1756292715436114"><ele>43.0</ele><time>2026-04-30T14:28:55.001Z</time></trkpt><trkpt lat="43.35251580206806" lon="-3.1756253432506014"><ele>43.0</ele><time>2026-04-30T14:28:56.001Z</time></trkpt><trkpt lat="43.35258563422317" lon="-3.1756267087128713"><ele>43.0</ele><time>2026-04-30T14:28:57.001Z</time></trkpt><trkpt lat="43.35265498973533" lon="-3.175631195432808"><ele>43.0</ele><time>2026-04-30T14:28:58.001Z</time></trkpt><trkpt lat="43.35273212611339" lon="-3.1756285693362587"><ele>43.00000000000001</ele><time>2026-04-30T14:28:59.001Z</time></trkpt><trkpt lat="43.35281022982248" lon="-3.1756305902321613"><ele>43.0</ele><time>2026-04-30T14:29:00.001Z</time></trkpt><trkpt lat="43.352921744611805" lon="-3.1756028794727116"><ele>43.0</ele><time>2026-04-30T14:29:01.001Z</time></trkpt><trkpt lat="43.353032546076214" lon="-3.175625275408965"><ele>43.0</ele><time>2026-04-30T14:29:03.001Z</time></trkpt><trkpt lat="43.353105869708116" lon="-3.17559426655401"><ele>43.0</ele><time>2026-04-30T14:29:04.001Z</time></trkpt><trkpt lat="43.3531781986701" lon="-3.1755343679842007"><ele>43.0</ele><time>2026-04-30T14:29:05.001Z</time></trkpt><trkpt lat="43.353245400745266" lon="-3.1754566506515958"><ele>43.0</ele><time>2026-04-30T14:29:06.001Z</time></trkpt><trkpt lat="43.35328565322283" lon="-3.1753647218236067"><ele>43.0</ele><time>2026-04-30T14:29:07.001Z</time></trkpt><trkpt lat="43.35332269513203" lon="-3.175260454454877"><ele>44.333333333333336</ele><time>2026-04-30T14:29:08.001Z</time></trkpt><trkpt lat="43.35333480708407" lon="-3.175160360486642"><ele>45.66666666666667</ele><time>2026-04-30T14:29:09.001Z</time></trkpt><trkpt lat="43.35334151668746" lon="-3.1750687774029664"><ele>47.0</ele><time>2026-04-30T14:29:10.001Z</time></trkpt><trkpt lat="43.353398643800276" lon="-3.1749701986396777"><ele>48.333333333333336</ele><time>2026-04-30T14:29:11.002Z</time></trkpt><trkpt lat="43.353468220636884" lon="-3.174864721128958"><ele>49.666666666666664</ele><time>2026-04-30T14:29:13.002Z</time></trkpt><trkpt lat="43.353478217424986" lon="-3.1747512656308396"><ele>51.0</ele><time>2026-04-30T14:29:16.002Z</time></trkpt><trkpt lat="43.35344890009524" lon="-3.174658090623949"><ele>51.0</ele><time>2026-04-30T14:29:18.002Z</time></trkpt><trkpt lat="43.35351312104134" lon="-3.17463486461364"><ele>51.0</ele><time>2026-04-30T14:29:21.002Z</time></trkpt><trkpt lat="43.35351929366304" lon="-3.1747589032591037"><ele>51.0</ele><time>2026-04-30T14:30:46.001Z</time></trkpt><trkpt lat="43.35360327965904" lon="-3.1747917528156933"><ele>51.0</ele><time>2026-04-30T14:30:48.001Z</time></trkpt><trkpt lat="43.35370860643986" lon="-3.1747789383663294"><ele>51.0</ele><time>2026-04-30T14:30:50.001Z</time></trkpt><trkpt lat="43.35381076681574" lon="-3.174801578377395"><ele>53.8</ele><time>2026-04-30T14:30:52.001Z</time></trkpt><trkpt lat="43.35391545588848" lon="-3.17482710815771"><ele>56.599999999999994</ele><time>2026-04-30T14:30:54.001Z</time></trkpt><trkpt lat="43.354022197126405" lon="-3.174857261262037"><ele>59.4</ele><time>2026-04-30T14:30:56.001Z</time></trkpt><trkpt lat="43.35410119366456" lon="-3.1748356928616577"><ele>62.2</ele><time>2026-04-30T14:30:57.001Z</time></trkpt><trkpt lat="43.35416311753439" lon="-3.174804751874926"><ele>65.0</ele><time>2026-04-30T14:30:58.001Z</time></trkpt><trkpt lat="43.35426137156963" lon="-3.174704303811312"><ele>65.8</ele><time>2026-04-30T14:31:00.001Z</time></trkpt><trkpt lat="43.354368271687115" lon="-3.174644153426513"><ele>66.6</ele><time>2026-04-30T14:31:02.001Z</time></trkpt><trkpt lat="43.354489644376834" lon="-3.17464231495338"><ele>67.4</ele><time>2026-04-30T14:31:04.001Z</time></trkpt><trkpt lat="43.354609246022214" lon="-3.1746985755622465"><ele>68.2</ele><time>2026-04-30T14:31:06.001Z</time></trkpt><trkpt lat="43.35466000574019" lon="-3.174749986589642"><ele>69.0</ele><time>2026-04-30T14:31:07.001Z</time></trkpt><trkpt lat="43.35470443620047" lon="-3.1748162027418827"><ele>70.28571428571429</ele><time>2026-04-30T14:31:08.001Z</time></trkpt><trkpt lat="43.35474265231365" lon="-3.174886616242273"><ele>71.57142857142858</ele><time>2026-04-30T14:31:09.001Z</time></trkpt><trkpt lat="43.35477649167282" lon="-3.174960046806953"><ele>72.85714285714286</ele><time>2026-04-30T14:31:10.001Z</time></trkpt><trkpt lat="43.35481022949688" lon="-3.175035377390982"><ele>74.14285714285714</ele><time>2026-04-30T14:31:11.001Z</time></trkpt><trkpt lat="43.354845136870125" lon="-3.175111339384724"><ele>75.42857142857142</ele><time>2026-04-30T14:31:12.001Z</time></trkpt><trkpt lat="43.35491500720808" lon="-3.175255596969482"><ele>76.71428571428572</ele><time>2026-04-30T14:31:14.001Z</time></trkpt><trkpt lat="43.35495191720465" lon="-3.175329632945199"><ele>78.0</ele><time>2026-04-30T14:31:15.001Z</time></trkpt><trkpt lat="43.355026396620886" lon="-3.1754699120089116"><ele>78.0</ele><time>2026-04-30T14:31:17.002Z</time></trkpt><trkpt lat="43.35506447761354" lon="-3.175546732582582"><ele>78.0</ele><time>2026-04-30T14:31:18.002Z</time></trkpt><trkpt lat="43.35513761289151" lon="-3.1757013854748473"><ele>78.0</ele><time>2026-04-30T14:31:20.002Z</time></trkpt><trkpt lat="43.3551727675083" lon="-3.1757857398630027"><ele>78.0</ele><time>2026-04-30T14:31:21.002Z</time></trkpt><trkpt lat="43.355207456574654" lon="-3.1758710976724323"><ele>78.0</ele><time>2026-04-30T14:31:22.002Z</time></trkpt><trkpt lat="43.35524280013549" lon="-3.175955274662811"><ele>78.0</ele><time>2026-04-30T14:31:23.002Z</time></trkpt><trkpt lat="43.355284858119404" lon="-3.176042288334789"><ele>78.16666666666667</ele><time>2026-04-30T14:31:24.002Z</time></trkpt><trkpt lat="43.35533143821035" lon="-3.17611950983611"><ele>78.33333333333333</ele><time>2026-04-30T14:31:25.002Z</time></trkpt><trkpt lat="43.35537087388029" lon="-3.1762076556848293"><ele>78.5</ele><time>2026-04-30T14:31:26.002Z</time></trkpt><trkpt lat="43.35538146518488" lon="-3.1763094044236198"><ele>78.66666666666666</ele><time>2026-04-30T14:31:27.002Z</time></trkpt><trkpt lat="43.3553804004416" lon="-3.1764136516543875"><ele>78.83333333333333</ele><time>2026-04-30T14:31:28.002Z</time></trkpt><trkpt lat="43.35535397391031" lon="-3.1765231045806974"><ele>79.0</ele><time>2026-04-30T14:31:29.002Z</time></trkpt><trkpt lat="43.35531485198864" lon="-3.176634736198249"><ele>79.33333333333333</ele><time>2026-04-30T14:31:30.002Z</time></trkpt><trkpt lat="43.35527031617765" lon="-3.176724953362523"><ele>79.66666666666666</ele><time>2026-04-30T14:31:31.002Z</time></trkpt><trkpt lat="43.355248748860376" lon="-3.1768294968384017"><ele>80.0</ele><time>2026-04-30T14:31:32.002Z</time></trkpt><trkpt lat="43.35521782310886" lon="-3.1769246208326516"><ele>80.33333333333333</ele><time>2026-04-30T14:31:33.002Z</time></trkpt><trkpt lat="43.35518587734107" lon="-3.17700896016662"><ele>80.66666666666667</ele><time>2026-04-30T14:31:34.002Z</time></trkpt><trkpt lat="43.35513877928285" lon="-3.1771081037801845"><ele>81.0</ele><time>2026-04-30T14:31:35.002Z</time></trkpt><trkpt lat="43.35508996182184" lon="-3.177188615510253"><ele>81.0</ele><time>2026-04-30T14:31:36.002Z</time></trkpt><trkpt lat="43.35503551155761" lon="-3.1772677445287094"><ele>81.0</ele><time>2026-04-30T14:31:37.002Z</time></trkpt><trkpt lat="43.35497984482441" lon="-3.1773442484159604"><ele>81.0</ele><time>2026-04-30T14:31:38.002Z</time></trkpt><trkpt lat="43.354923221632106" lon="-3.177417523945339"><ele>81.0</ele><time>2026-04-30T14:31:39.002Z</time></trkpt><trkpt lat="43.35486896403115" lon="-3.17749172978478"><ele>81.0</ele><time>2026-04-30T14:31:40.002Z</time></trkpt><trkpt lat="43.3548147056061" lon="-3.1775667354925945"><ele>81.0</ele><time>2026-04-30T14:31:41.002Z</time></trkpt><trkpt lat="43.35475658747184" lon="-3.177632095508783"><ele>81.33333333333333</ele><time>2026-04-30T14:31:42.002Z</time></trkpt><trkpt lat="43.3546986478867" lon="-3.1776980821502074"><ele>81.66666666666667</ele><time>2026-04-30T14:31:43.002Z</time></trkpt><trkpt lat="43.35463847618612" lon="-3.177766106881744"><ele>82.0</ele><time>2026-04-30T14:31:44.002Z</time></trkpt><trkpt lat="43.35457984493997" lon="-3.177836686631486"><ele>82.33333333333334</ele><time>2026-04-30T14:31:45.002Z</time></trkpt><trkpt lat="43.35451592028366" lon="-3.177897200643925"><ele>82.66666666666667</ele><time>2026-04-30T14:31:46.002Z</time></trkpt><trkpt lat="43.354452236463594" lon="-3.1779598840221195"><ele>83.0</ele><time>2026-04-30T14:31:47.002Z</time></trkpt><trkpt lat="43.35438984573973" lon="-3.1780241907073234"><ele>83.0</ele><time>2026-04-30T14:31:48.002Z</time></trkpt><trkpt lat="43.3543249871614" lon="-3.1780892414431974"><ele>83.0</ele><time>2026-04-30T14:31:49.002Z</time></trkpt><trkpt lat="43.35426335469865" lon="-3.1781557110471144"><ele>83.0</ele><time>2026-04-30T14:31:50.002Z</time></trkpt><trkpt lat="43.35420390887114" lon="-3.1782306619182377"><ele>83.0</ele><time>2026-04-30T14:31:51.002Z</time></trkpt><trkpt lat="43.354145287320264" lon="-3.1783050404718205"><ele>83.0</ele><time>2026-04-30T14:31:52.002Z</time></trkpt><trkpt lat="43.35408786563066" lon="-3.1783851971905572"><ele>83.0</ele><time>2026-04-30T14:31:53.002Z</time></trkpt><trkpt lat="43.35404261905187" lon="-3.1784756499003826"><ele>84.83333333333334</ele><time>2026-04-30T14:31:54.002Z</time></trkpt><trkpt lat="43.35401335655135" lon="-3.178582547581699"><ele>86.66666666666667</ele><time>2026-04-30T14:31:55.002Z</time></trkpt><trkpt lat="43.35401622796285" lon="-3.1787016491491467"><ele>88.5</ele><time>2026-04-30T14:31:56.002Z</time></trkpt><trkpt lat="43.35404179636658" lon="-3.17881347898084"><ele>90.33333333333333</ele><time>2026-04-30T14:31:57.002Z</time></trkpt><trkpt lat="43.35410193061073" lon="-3.178904115753733"><ele>92.16666666666666</ele><time>2026-04-30T14:31:58.002Z</time></trkpt><trkpt lat="43.354139129730875" lon="-3.1789932906411518"><ele>94.0</ele><time>2026-04-30T14:31:59.001Z</time></trkpt><trkpt lat="43.35417219194446" lon="-3.179086369558437"><ele>94.16666666666666</ele><time>2026-04-30T14:32:00.001Z</time></trkpt><trkpt lat="43.35420985974084" lon="-3.1791773608175053"><ele>94.33333333333333</ele><time>2026-04-30T14:32:01.001Z</time></trkpt><trkpt lat="43.35424860441557" lon="-3.179270870597787"><ele>94.5</ele><time>2026-04-30T14:32:02.001Z</time></trkpt><trkpt lat="43.354288829874676" lon="-3.179365066468517"><ele>94.66666666666667</ele><time>2026-04-30T14:32:03.001Z</time></trkpt><trkpt lat="43.35433307030106" lon="-3.179459509003993"><ele>94.83333333333334</ele><time>2026-04-30T14:32:04.001Z</time></trkpt><trkpt lat="43.354374668390015" lon="-3.17955594234621"><ele>95.0</ele><time>2026-04-30T14:32:05.001Z</time></trkpt><trkpt lat="43.3544150867906" lon="-3.1796574171666085"><ele>95.0</ele><time>2026-04-30T14:32:06.001Z</time></trkpt><trkpt lat="43.35444492147461" lon="-3.17976449937358"><ele>95.0</ele><time>2026-04-30T14:32:07.001Z</time></trkpt><trkpt lat="43.354465156763176" lon="-3.179874044548421"><ele>95.0</ele><time>2026-04-30T14:32:08.001Z</time></trkpt><trkpt lat="43.354467001410406" lon="-3.179990146805496"><ele>95.0</ele><time>2026-04-30T14:32:09.001Z</time></trkpt><trkpt lat="43.35444919370588" lon="-3.1801033944079258"><ele>95.0</ele><time>2026-04-30T14:32:10.001Z</time></trkpt><trkpt lat="43.35441934722944" lon="-3.180212798098645"><ele>95.0</ele><time>2026-04-30T14:32:11.001Z</time></trkpt><trkpt lat="43.35438539931121" lon="-3.18031889760553"><ele>95.66666666666667</ele><time>2026-04-30T14:32:12.001Z</time></trkpt><trkpt lat="43.354347639913605" lon="-3.1804267189944033"><ele>96.33333333333334</ele><time>2026-04-30T14:32:13.001Z</time></trkpt><trkpt lat="43.35430926751875" lon="-3.180529035676876"><ele>97.0</ele><time>2026-04-30T14:32:14.001Z</time></trkpt><trkpt lat="43.354270307503285" lon="-3.1806331124508365"><ele>97.66666666666667</ele><time>2026-04-30T14:32:15.001Z</time></trkpt><trkpt lat="43.35423523210786" lon="-3.18073885884685"><ele>98.33333333333333</ele><time>2026-04-30T14:32:16.001Z</time></trkpt><trkpt lat="43.35420115345664" lon="-3.18084519748088"><ele>99.0</ele><time>2026-04-30T14:32:17.001Z</time></trkpt><trkpt lat="43.354165562215606" lon="-3.180951612161093"><ele>100.0</ele><time>2026-04-30T14:32:18.001Z</time></trkpt><trkpt lat="43.35412957892568" lon="-3.181058907314405"><ele>101.0</ele><time>2026-04-30T14:32:19.001Z</time></trkpt><trkpt lat="43.35409346437282" lon="-3.1811694423423478"><ele>102.0</ele><time>2026-04-30T14:32:20.001Z</time></trkpt><trkpt lat="43.35405482208018" lon="-3.181284602967078"><ele>103.0</ele><time>2026-04-30T14:32:21.001Z</time></trkpt><trkpt lat="43.35401395147688" lon="-3.1814078190147446"><ele>104.0</ele><time>2026-04-30T14:32:22.001Z</time></trkpt><trkpt lat="43.35397028197761" lon="-3.181529461255773"><ele>104.4</ele><time>2026-04-30T14:32:23.001Z</time></trkpt><trkpt lat="43.35392681120483" lon="-3.181652279646476"><ele>104.80000000000001</ele><time>2026-04-30T14:32:24.001Z</time></trkpt><trkpt lat="43.35388885276603" lon="-3.181771967187653"><ele>105.19999999999999</ele><time>2026-04-30T14:32:25.001Z</time></trkpt><trkpt lat="43.353851677353134" lon="-3.181890265991228"><ele>105.6</ele><time>2026-04-30T14:32:26.001Z</time></trkpt><trkpt lat="43.35381782051788" lon="-3.182006820409929"><ele>106.0</ele><time>2026-04-30T14:32:27.001Z</time></trkpt><trkpt lat="43.353791930114255" lon="-3.182128942941426"><ele>108.66666666666667</ele><time>2026-04-30T14:32:28.001Z</time></trkpt><trkpt lat="43.3537856261346" lon="-3.182250745266243"><ele>111.33333333333334</ele><time>2026-04-30T14:32:29.001Z</time></trkpt><trkpt lat="43.353802617236994" lon="-3.182369123714045"><ele>114.0</ele><time>2026-04-30T14:32:30.001Z</time></trkpt><trkpt lat="43.353839184049065" lon="-3.1824737254753956"><ele>116.66666666666666</ele><time>2026-04-30T14:32:31.001Z</time></trkpt><trkpt lat="43.35388551164213" lon="-3.1825656895078316"><ele>119.33333333333333</ele><time>2026-04-30T14:32:32.001Z</time></trkpt><trkpt lat="43.35395006736432" lon="-3.18262253076824"><ele>122.0</ele><time>2026-04-30T14:32:33.001Z</time></trkpt><trkpt lat="43.35402894503389" lon="-3.1826494396400564"><ele>121.99999999999999</ele><time>2026-04-30T14:32:34.001Z</time></trkpt><trkpt lat="43.3540969244428" lon="-3.1826713962039825"><ele>122.0</ele><time>2026-04-30T14:32:35.001Z</time></trkpt><trkpt lat="43.35417142449448" lon="-3.1826942155356672"><ele>122.0</ele><time>2026-04-30T14:32:36.001Z</time></trkpt><trkpt lat="43.35425063388525" lon="-3.1827113338170885"><ele>122.0</ele><time>2026-04-30T14:32:37.001Z</time></trkpt><trkpt lat="43.35437090340224" lon="-3.182756385902867"><ele>121.99999999999999</ele><time>2026-04-30T14:32:39.001Z</time></trkpt><trkpt lat="43.35443971703632" lon="-3.1827736625750567"><ele>122.0</ele><time>2026-04-30T14:32:40.001Z</time></trkpt><trkpt lat="43.354506926890586" lon="-3.1827892938699094"><ele>121.99999999999999</ele><time>2026-04-30T14:32:41.001Z</time></trkpt><trkpt lat="43.35457091719671" lon="-3.1828043724061494"><ele>122.0</ele><time>2026-04-30T14:32:42.001Z</time></trkpt><trkpt lat="43.35463852683023" lon="-3.1828157230268674"><ele>121.99999999999999</ele><time>2026-04-30T14:32:43.001Z</time></trkpt><trkpt lat="43.35470246615063" lon="-3.18282583321005"><ele>121.99999999999999</ele><time>2026-04-30T14:32:44.001Z</time></trkpt><trkpt lat="43.354765266896294" lon="-3.182837397065063"><ele>122.0</ele><time>2026-04-30T14:32:45.001Z</time></trkpt><trkpt lat="43.35482804478153" lon="-3.182847867108667"><ele>121.99999999999999</ele><time>2026-04-30T14:32:46.001Z</time></trkpt><trkpt lat="43.354945827300185" lon="-3.1828795240944348"><ele>121.99999999999999</ele><time>2026-04-30T14:32:48.001Z</time></trkpt><trkpt lat="43.35501009477175" lon="-3.1828931844909327"><ele>121.49999999999999</ele><time>2026-04-30T14:32:49.001Z</time></trkpt><trkpt lat="43.35507341598054" lon="-3.1829148209515297"><ele>121.0</ele><time>2026-04-30T14:32:50.001Z</time></trkpt><trkpt lat="43.355136129687594" lon="-3.1829298157275163"><ele>120.5</ele><time>2026-04-30T14:32:51.001Z</time></trkpt><trkpt lat="43.3552001143573" lon="-3.1829459743526516"><ele>120.0</ele><time>2026-04-30T14:32:52.001Z</time></trkpt><trkpt lat="43.35526276486965" lon="-3.182964958188644"><ele>119.49999999999999</ele><time>2026-04-30T14:32:53.001Z</time></trkpt><trkpt lat="43.35532584378565" lon="-3.1829819504109524"><ele>119.0</ele><time>2026-04-30T14:32:54.001Z</time></trkpt><trkpt lat="43.35545178387784" lon="-3.1830083316476094"><ele>119.0</ele><time>2026-04-30T14:32:56.001Z</time></trkpt><trkpt lat="43.355514209427454" lon="-3.1830255510515078"><ele>119.0</ele><time>2026-04-30T14:32:57.001Z</time></trkpt><trkpt lat="43.35563627539415" lon="-3.183054679890699"><ele>119.0</ele><time>2026-04-30T14:32:59.001Z</time></trkpt><trkpt lat="43.35575963017082" lon="-3.1830920700847316"><ele>119.0</ele><time>2026-04-30T14:33:01.001Z</time></trkpt><trkpt lat="43.355820765176794" lon="-3.1831145542422044"><ele>119.0</ele><time>2026-04-30T14:33:02.001Z</time></trkpt><trkpt lat="43.355940725233886" lon="-3.183162573271075"><ele>121.6</ele><time>2026-04-30T14:33:04.001Z</time></trkpt><trkpt lat="43.35606043220276" lon="-3.1832106965167513"><ele>124.2</ele><time>2026-04-30T14:33:06.001Z</time></trkpt><trkpt lat="43.35617729585846" lon="-3.1832765845072286"><ele>126.79999999999998</ele><time>2026-04-30T14:33:08.001Z</time></trkpt><trkpt lat="43.35623350318358" lon="-3.18331722451001"><ele>129.4</ele><time>2026-04-30T14:33:09.001Z</time></trkpt><trkpt lat="43.35634246451035" lon="-3.1833902594086316"><ele>132.0</ele><time>2026-04-30T14:33:11.001Z</time></trkpt><trkpt lat="43.35645019429975" lon="-3.18347012333705"><ele>132.0</ele><time>2026-04-30T14:33:13.001Z</time></trkpt><trkpt lat="43.35655326148723" lon="-3.183563074242141"><ele>132.0</ele><time>2026-04-30T14:33:15.001Z</time></trkpt><trkpt lat="43.356650142550954" lon="-3.1836689816064494"><ele>132.0</ele><time>2026-04-30T14:33:17.001Z</time></trkpt><trkpt lat="43.356700677249954" lon="-3.18372111576629"><ele>132.0</ele><time>2026-04-30T14:33:18.001Z</time></trkpt><trkpt lat="43.35675260972595" lon="-3.1837708265718585"><ele>132.0</ele><time>2026-04-30T14:33:19.001Z</time></trkpt><trkpt lat="43.356801628190226" lon="-3.1838256390811526"><ele>132.0</ele><time>2026-04-30T14:33:20.001Z</time></trkpt><trkpt lat="43.35685051231082" lon="-3.183880267799932"><ele>132.0</ele><time>2026-04-30T14:33:21.001Z</time></trkpt><trkpt lat="43.35689924839645" lon="-3.1839395557064663"><ele>132.0</ele><time>2026-04-30T14:33:22.001Z</time></trkpt><trkpt lat="43.35694707241733" lon="-3.183996310125392"><ele>132.0</ele><time>2026-04-30T14:33:23.001Z</time></trkpt><trkpt lat="43.356998902206335" lon="-3.184045768301304"><ele>132.0</ele><time>2026-04-30T14:33:24.001Z</time></trkpt><trkpt lat="43.35704931080884" lon="-3.184104757058928"><ele>132.0</ele><time>2026-04-30T14:33:25.001Z</time></trkpt><trkpt lat="43.35714939218246" lon="-3.1842053952274076"><ele>132.0</ele><time>2026-04-30T14:33:27.001Z</time></trkpt><trkpt lat="43.357199699212266" lon="-3.184257770493115"><ele>132.0</ele><time>2026-04-30T14:33:28.001Z</time></trkpt><trkpt lat="43.35725405196314" lon="-3.184307379896778"><ele>134.16666666666666</ele><time>2026-04-30T14:33:29.001Z</time></trkpt><trkpt lat="43.357309149923616" lon="-3.184349746016592"><ele>136.33333333333334</ele><time>2026-04-30T14:33:30.001Z</time></trkpt><trkpt lat="43.357360249638866" lon="-3.1844043782897393"><ele>138.5</ele><time>2026-04-30T14:33:31.002Z</time></trkpt><trkpt lat="43.35746654196807" lon="-3.1844937842128407"><ele>140.66666666666669</ele><time>2026-04-30T14:33:33.002Z</time></trkpt><trkpt lat="43.357570482691315" lon="-3.1845901624634836"><ele>142.83333333333334</ele><time>2026-04-30T14:33:35.002Z</time></trkpt><trkpt lat="43.35763106878701" lon="-3.184622793318092"><ele>145.0</ele><time>2026-04-30T14:33:36.002Z</time></trkpt><trkpt lat="43.35768706099845" lon="-3.1846629576070487"><ele>145.0</ele><time>2026-04-30T14:33:37.002Z</time></trkpt><trkpt lat="43.35779500730272" lon="-3.1847486557550257"><ele>145.0</ele><time>2026-04-30T14:33:39.002Z</time></trkpt><trkpt lat="43.35790173035814" lon="-3.1848355462196243"><ele>145.0</ele><time>2026-04-30T14:33:41.002Z</time></trkpt><trkpt lat="43.35801223661792" lon="-3.184907768153925"><ele>145.0</ele><time>2026-04-30T14:33:43.002Z</time></trkpt><trkpt lat="43.35812064769466" lon="-3.1849866316928637"><ele>147.4</ele><time>2026-04-30T14:33:45.002Z</time></trkpt><trkpt lat="43.358233324522025" lon="-3.1850547311887984"><ele>149.8</ele><time>2026-04-30T14:33:47.002Z</time></trkpt><trkpt lat="43.35833878627196" lon="-3.185139390692605"><ele>152.2</ele><time>2026-04-30T14:33:49.002Z</time></trkpt><trkpt lat="43.35839397616885" lon="-3.1851911204622247"><ele>154.6</ele><time>2026-04-30T14:33:50.002Z</time></trkpt><trkpt lat="43.358494957992754" lon="-3.1852844030515186"><ele>157.0</ele><time>2026-04-30T14:33:52.002Z</time></trkpt><trkpt lat="43.358598283868034" lon="-3.1853844653897356"><ele>157.0</ele><time>2026-04-30T14:33:54.002Z</time></trkpt><trkpt lat="43.35870495359951" lon="-3.1854838065627114"><ele>157.0</ele><time>2026-04-30T14:33:56.002Z</time></trkpt><trkpt lat="43.358757938135135" lon="-3.1855413416709317"><ele>157.0</ele><time>2026-04-30T14:33:57.002Z</time></trkpt><trkpt lat="43.358811355139096" lon="-3.1855989198510035"><ele>157.0</ele><time>2026-04-30T14:33:58.002Z</time></trkpt><trkpt lat="43.35886688209989" lon="-3.1856528028704063"><ele>157.0</ele><time>2026-04-30T14:33:59.002Z</time></trkpt><trkpt lat="43.3589250021827" lon="-3.1857134106126592"><ele>157.0</ele><time>2026-04-30T14:34:00.002Z</time></trkpt><trkpt lat="43.3589829470005" lon="-3.1857850961018435"><ele>158.83333333333334</ele><time>2026-04-30T14:34:01.002Z</time></trkpt><trkpt lat="43.35904652688891" lon="-3.1858501316340484"><ele>160.66666666666669</ele><time>2026-04-30T14:34:02.002Z</time></trkpt><trkpt lat="43.359109737018066" lon="-3.185921258061808"><ele>162.5</ele><time>2026-04-30T14:34:03.002Z</time></trkpt><trkpt lat="43.35916392921975" lon="-3.185987585319471"><ele>164.33333333333334</ele><time>2026-04-30T14:34:04.002Z</time></trkpt><trkpt lat="43.35922613197202" lon="-3.186050248109375"><ele>166.16666666666666</ele><time>2026-04-30T14:34:05Z</time></trkpt><trkpt lat="43.35928353967069" lon="-3.186122831284304"><ele>168.0</ele><time>2026-04-30T14:34:06Z</time></trkpt><trkpt lat="43.3593476663323" lon="-3.186183204749348"><ele>168.0</ele><time>2026-04-30T14:34:07Z</time></trkpt><trkpt lat="43.35941859040073" lon="-3.1862418889263955"><ele>168.0</ele><time>2026-04-30T14:34:08Z</time></trkpt><trkpt lat="43.35948284911227" lon="-3.1863140147323796"><ele>168.0</ele><time>2026-04-30T14:34:09Z</time></trkpt><trkpt lat="43.3595508607796" lon="-3.1863777246611806"><ele>168.0</ele><time>2026-04-30T14:34:10Z</time></trkpt><trkpt lat="43.35961795878619" lon="-3.1864474237654954"><ele>168.0</ele><time>2026-04-30T14:34:11Z</time></trkpt><trkpt lat="43.35968838869183" lon="-3.186513300925322"><ele>168.0</ele><time>2026-04-30T14:34:12Z</time></trkpt><trkpt lat="43.3597516135911" lon="-3.186592838180562"><ele>166.0</ele><time>2026-04-30T14:34:13Z</time></trkpt><trkpt lat="43.35980989048236" lon="-3.1866807112333357"><ele>164.0</ele><time>2026-04-30T14:34:14Z</time></trkpt><trkpt lat="43.359862610624944" lon="-3.1867752311368"><ele>162.0</ele><time>2026-04-30T14:34:15Z</time></trkpt><trkpt lat="43.359903666843124" lon="-3.1868790386968615"><ele>160.0</ele><time>2026-04-30T14:34:16Z</time></trkpt><trkpt lat="43.35993668015601" lon="-3.1869851142053336"><ele>158.0</ele><time>2026-04-30T14:34:17Z</time></trkpt><trkpt lat="43.35995838654715" lon="-3.1870790970327474"><ele>156.0</ele><time>2026-04-30T14:34:18Z</time></trkpt><trkpt lat="43.35997673789654" lon="-3.1872343235050002"><ele>156.0</ele><time>2026-04-30T14:34:20Z</time></trkpt><trkpt lat="43.35998816412843" lon="-3.1873264415049527"><ele>156.0</ele><time>2026-04-30T14:34:21Z</time></trkpt><trkpt lat="43.36000725787076" lon="-3.1874287494236624"><ele>156.0</ele><time>2026-04-30T14:34:22Z</time></trkpt><trkpt lat="43.36003098422831" lon="-3.1875363157381575"><ele>156.0</ele><time>2026-04-30T14:34:23Z</time></trkpt><trkpt lat="43.360046856098876" lon="-3.187644168126003"><ele>156.0</ele><time>2026-04-30T14:34:24Z</time></trkpt><trkpt lat="43.360051050284035" lon="-3.187755632287987"><ele>156.0</ele><time>2026-04-30T14:34:25Z</time></trkpt><trkpt lat="43.360045429397104" lon="-3.187870808122975"><ele>156.33333333333334</ele><time>2026-04-30T14:34:26Z</time></trkpt><trkpt lat="43.3600466446384" lon="-3.1879900623387485"><ele>156.66666666666666</ele><time>2026-04-30T14:34:27Z</time></trkpt><trkpt lat="43.36006635236454" lon="-3.188099531632961"><ele>157.0</ele><time>2026-04-30T14:34:28Z</time></trkpt><trkpt lat="43.360109154820066" lon="-3.1881946806189285"><ele>157.33333333333331</ele><time>2026-04-30T14:34:29Z</time></trkpt><trkpt lat="43.36018160738819" lon="-3.188263111450002"><ele>157.66666666666666</ele><time>2026-04-30T14:34:30Z</time></trkpt><trkpt lat="43.36027371659793" lon="-3.188272632322302"><ele>158.0</ele><time>2026-04-30T14:34:31Z</time></trkpt><trkpt lat="43.36035705471262" lon="-3.1883269009230397"><ele>158.0</ele><time>2026-04-30T14:34:32Z</time></trkpt><trkpt lat="43.360441811627844" lon="-3.188357038923124"><ele>158.0</ele><time>2026-04-30T14:34:33Z</time></trkpt><trkpt lat="43.36051686670277" lon="-3.1884210423863237"><ele>158.0</ele><time>2026-04-30T14:34:34Z</time></trkpt><trkpt lat="43.360584618180056" lon="-3.1885093964554283"><ele>158.0</ele><time>2026-04-30T14:34:35Z</time></trkpt><trkpt lat="43.36065139170726" lon="-3.1886065195683084"><ele>158.0</ele><time>2026-04-30T14:34:36Z</time></trkpt><trkpt lat="43.36071885559289" lon="-3.1887021940036786"><ele>157.16666666666666</ele><time>2026-04-30T14:34:37Z</time></trkpt><trkpt lat="43.36078871602201" lon="-3.188791765329821"><ele>156.33333333333331</ele><time>2026-04-30T14:34:38Z</time></trkpt><trkpt lat="43.36085760085873" lon="-3.1888849712676843"><ele>155.5</ele><time>2026-04-30T14:34:39Z</time></trkpt><trkpt lat="43.36092272835661" lon="-3.188974082768062"><ele>154.66666666666666</ele><time>2026-04-30T14:34:40Z</time></trkpt><trkpt lat="43.36098614304178" lon="-3.1890351570876345"><ele>153.83333333333334</ele><time>2026-04-30T14:34:41Z</time></trkpt><trkpt lat="43.36105439713998" lon="-3.1890600804579092"><ele>153.0</ele><time>2026-04-30T14:34:42Z</time></trkpt><trkpt lat="43.361135774316864" lon="-3.1890472539399615"><ele>150.66666666666666</ele><time>2026-04-30T14:34:43Z</time></trkpt><trkpt lat="43.36120660719587" lon="-3.1889963076066214"><ele>148.33333333333334</ele><time>2026-04-30T14:34:44Z</time></trkpt><trkpt lat="43.361254290199085" lon="-3.18889856830422"><ele>146.0</ele><time>2026-04-30T14:34:45Z</time></trkpt><trkpt lat="43.3612672795439" lon="-3.188781590325328"><ele>143.66666666666669</ele><time>2026-04-30T14:34:46Z</time></trkpt><trkpt lat="43.36125188088145" lon="-3.1886648199893264"><ele>141.33333333333334</ele><time>2026-04-30T14:34:47Z</time></trkpt><trkpt lat="43.36120356147668" lon="-3.188569453969369"><ele>139.0</ele><time>2026-04-30T14:34:48Z</time></trkpt><trkpt lat="43.36113396213621" lon="-3.188502588337244"><ele>139.0</ele><time>2026-04-30T14:34:49.001Z</time></trkpt><trkpt lat="43.361057617135806" lon="-3.188455845189082"><ele>139.0</ele><time>2026-04-30T14:34:50.001Z</time></trkpt><trkpt lat="43.36099123696625" lon="-3.1883964864559475"><ele>139.0</ele><time>2026-04-30T14:34:51.001Z</time></trkpt><trkpt lat="43.360937196653516" lon="-3.188321760498956"><ele>139.0</ele><time>2026-04-30T14:34:52.001Z</time></trkpt><trkpt lat="43.360902292635934" lon="-3.1882310847495012"><ele>139.0</ele><time>2026-04-30T14:34:53.001Z</time></trkpt><trkpt lat="43.36088750444734" lon="-3.188129323463676"><ele>139.0</ele><time>2026-04-30T14:34:54.001Z</time></trkpt><trkpt lat="43.36084926137592" lon="-3.188049322187181"><ele>138.66666666666669</ele><time>2026-04-30T14:34:55.001Z</time></trkpt><trkpt lat="43.36090623326873" lon="-3.1879297022385753"><ele>138.33333333333334</ele><time>2026-04-30T14:34:56.001Z</time></trkpt><trkpt lat="43.36094804671279" lon="-3.1878341924559725"><ele>138.0</ele><time>2026-04-30T14:34:57.001Z</time></trkpt><trkpt lat="43.361009433362064" lon="-3.1877492824670948"><ele>137.66666666666666</ele><time>2026-04-30T14:34:58.001Z</time></trkpt><trkpt lat="43.36107725312978" lon="-3.187672528641054"><ele>137.33333333333331</ele><time>2026-04-30T14:34:59.001Z</time></trkpt><trkpt lat="43.361139336710934" lon="-3.1875939713480808"><ele>137.0</ele><time>2026-04-30T14:35:00.001Z</time></trkpt><trkpt lat="43.36119268717633" lon="-3.1875116040965237"><ele>137.0</ele><time>2026-04-30T14:35:01.001Z</time></trkpt><trkpt lat="43.36126045667732" lon="-3.187414506112619"><ele>137.0</ele><time>2026-04-30T14:35:02.001Z</time></trkpt><trkpt lat="43.361324213366025" lon="-3.187322178243313"><ele>137.0</ele><time>2026-04-30T14:35:03.001Z</time></trkpt><trkpt lat="43.3613878184844" lon="-3.1872337454643977"><ele>137.0</ele><time>2026-04-30T14:35:04.001Z</time></trkpt><trkpt lat="43.36146024932044" lon="-3.1871398997316382"><ele>137.0</ele><time>2026-04-30T14:35:05.001Z</time></trkpt><trkpt lat="43.36152564696472" lon="-3.1870481293003694"><ele>134.2</ele><time>2026-04-30T14:35:06.001Z</time></trkpt><trkpt lat="43.36159210622216" lon="-3.1869562139526195"><ele>131.39999999999998</ele><time>2026-04-30T14:35:07.001Z</time></trkpt><trkpt lat="43.36166096363461" lon="-3.1868746945904625"><ele>128.60000000000002</ele><time>2026-04-30T14:35:08.001Z</time></trkpt><trkpt lat="43.36172726320304" lon="-3.1867824098069564"><ele>125.80000000000001</ele><time>2026-04-30T14:35:09.001Z</time></trkpt><trkpt lat="43.36179630012112" lon="-3.186694478585412"><ele>123.0</ele><time>2026-04-30T14:35:10.001Z</time></trkpt><trkpt lat="43.361859620760605" lon="-3.186603264190568"><ele>123.0</ele><time>2026-04-30T14:35:11.001Z</time></trkpt><trkpt lat="43.36192566313872" lon="-3.1865154178155284"><ele>123.0</ele><time>2026-04-30T14:35:12.001Z</time></trkpt><trkpt lat="43.36199217678387" lon="-3.186423865045219"><ele>123.0</ele><time>2026-04-30T14:35:13.001Z</time></trkpt><trkpt lat="43.36205374692502" lon="-3.186339722781729"><ele>123.0</ele><time>2026-04-30T14:35:14.001Z</time></trkpt><trkpt lat="43.362114381909116" lon="-3.1862610319936238"><ele>123.0</ele><time>2026-04-30T14:35:15.001Z</time></trkpt><trkpt lat="43.362173616386634" lon="-3.1861825619175286"><ele>123.0</ele><time>2026-04-30T14:35:16.001Z</time></trkpt><trkpt lat="43.362234905106014" lon="-3.1861087762431266"><ele>121.66666666666667</ele><time>2026-04-30T14:35:17.001Z</time></trkpt><trkpt lat="43.36228826994852" lon="-3.1860379681955813"><ele>120.33333333333334</ele><time>2026-04-30T14:35:18.001Z</time></trkpt><trkpt lat="43.362340946686075" lon="-3.185979068994364"><ele>119.0</ele><time>2026-04-30T14:35:19.001Z</time></trkpt><trkpt lat="43.36240206631334" lon="-3.185940254990464"><ele>117.66666666666667</ele><time>2026-04-30T14:35:20.001Z</time></trkpt><trkpt lat="43.36246677846776" lon="-3.185928700347506"><ele>116.33333333333334</ele><time>2026-04-30T14:35:21.001Z</time></trkpt><trkpt lat="43.36257520501049" lon="-3.1860128790716935"><ele>115.0</ele><time>2026-04-30T14:35:23.001Z</time></trkpt><trkpt lat="43.36257890400743" lon="-3.1861835265086356"><ele>115.00000000000001</ele><time>2026-04-30T14:35:25.001Z</time></trkpt><trkpt lat="43.3625338808885" lon="-3.1862583814645764"><ele>115.0</ele><time>2026-04-30T14:35:26.001Z</time></trkpt><trkpt lat="43.362478351270454" lon="-3.186326727961496"><ele>115.0</ele><time>2026-04-30T14:35:27.001Z</time></trkpt><trkpt lat="43.36242325149063" lon="-3.1863979670407523"><ele>115.0</ele><time>2026-04-30T14:35:28.001Z</time></trkpt><trkpt lat="43.362363839017526" lon="-3.186474659541107"><ele>115.00000000000001</ele><time>2026-04-30T14:35:29.001Z</time></trkpt><trkpt lat="43.36230075161023" lon="-3.186554084655903"><ele>115.0</ele><time>2026-04-30T14:35:30.001Z</time></trkpt><trkpt lat="43.36223758101622" lon="-3.186636157134099"><ele>116.6</ele><time>2026-04-30T14:35:31.001Z</time></trkpt><trkpt lat="43.36217563528984" lon="-3.186730376578255"><ele>118.2</ele><time>2026-04-30T14:35:32.001Z</time></trkpt><trkpt lat="43.36211306642493" lon="-3.1868056617748937"><ele>119.80000000000001</ele><time>2026-04-30T14:35:33.001Z</time></trkpt><trkpt lat="43.36205030888953" lon="-3.1869040328345357"><ele>121.4</ele><time>2026-04-30T14:35:34.001Z</time></trkpt><trkpt lat="43.36199190516446" lon="-3.187003223612458"><ele>123.0</ele><time>2026-04-30T14:35:35.001Z</time></trkpt><trkpt lat="43.36193888430497" lon="-3.187103375872619"><ele>123.0</ele><time>2026-04-30T14:35:36.001Z</time></trkpt><trkpt lat="43.361885926588286" lon="-3.1872037681837555"><ele>123.0</ele><time>2026-04-30T14:35:37.001Z</time></trkpt><trkpt lat="43.36183185533289" lon="-3.1873027008930186"><ele>123.0</ele><time>2026-04-30T14:35:38.001Z</time></trkpt><trkpt lat="43.36177806325777" lon="-3.1873961149084837"><ele>123.0</ele><time>2026-04-30T14:35:39.001Z</time></trkpt><trkpt lat="43.36172548144125" lon="-3.187487379692681"><ele>123.0</ele><time>2026-04-30T14:35:40.001Z</time></trkpt><trkpt lat="43.36168011679506" lon="-3.1875891046189606"><ele>123.0</ele><time>2026-04-30T14:35:41.001Z</time></trkpt><trkpt lat="43.36164903445412" lon="-3.187702512134772"><ele>121.80000000000001</ele><time>2026-04-30T14:35:42.001Z</time></trkpt><trkpt lat="43.361643397722766" lon="-3.1878306784762764"><ele>120.60000000000001</ele><time>2026-04-30T14:35:43.001Z</time></trkpt><trkpt lat="43.361661334699896" lon="-3.1879538456123515"><ele>119.39999999999999</ele><time>2026-04-30T14:35:44.001Z</time></trkpt><trkpt lat="43.361720399497415" lon="-3.1880538075888856"><ele>118.19999999999999</ele><time>2026-04-30T14:35:45.001Z</time></trkpt><trkpt lat="43.3617689711668" lon="-3.1881492632804087"><ele>117.0</ele><time>2026-04-30T14:35:46.001Z</time></trkpt><trkpt lat="43.36181831103297" lon="-3.188250367513225"><ele>117.0</ele><time>2026-04-30T14:35:47.001Z</time></trkpt><trkpt lat="43.36186590887638" lon="-3.1883578013704823"><ele>116.99999999999999</ele><time>2026-04-30T14:35:48.001Z</time></trkpt><trkpt lat="43.36191618137731" lon="-3.188459234012362"><ele>116.99999999999999</ele><time>2026-04-30T14:35:49.001Z</time></trkpt><trkpt lat="43.361967340851905" lon="-3.1885640080046582"><ele>117.0</ele><time>2026-04-30T14:35:50.001Z</time></trkpt><trkpt lat="43.36202087166119" lon="-3.188668786676927"><ele>117.0</ele><time>2026-04-30T14:35:51.001Z</time></trkpt><trkpt lat="43.36208199487257" lon="-3.188768052762902"><ele>117.0</ele><time>2026-04-30T14:35:52.001Z</time></trkpt><trkpt lat="43.36215753482074" lon="-3.188854416196978"><ele>116.99999999999999</ele><time>2026-04-30T14:35:53.001Z</time></trkpt><trkpt lat="43.36223179022551" lon="-3.1889401931448935"><ele>116.99999999999999</ele><time>2026-04-30T14:35:54.001Z</time></trkpt><trkpt lat="43.362310273293005" lon="-3.1890213626441497"><ele>117.0</ele><time>2026-04-30T14:35:55.002Z</time></trkpt><trkpt lat="43.36239159798565" lon="-3.189102791154297"><ele>117.0</ele><time>2026-04-30T14:35:56.002Z</time></trkpt><trkpt lat="43.36247545165639" lon="-3.189190069361379"><ele>112.8</ele><time>2026-04-30T14:35:57.002Z</time></trkpt><trkpt lat="43.36255218906664" lon="-3.189276652916375"><ele>108.6</ele><time>2026-04-30T14:35:58.002Z</time></trkpt><trkpt lat="43.362637846110104" lon="-3.189360837292456"><ele>104.39999999999999</ele><time>2026-04-30T14:35:59.002Z</time></trkpt><trkpt lat="43.362714490639064" lon="-3.189453112487366"><ele>100.19999999999999</ele><time>2026-04-30T14:36:00.002Z</time></trkpt><trkpt lat="43.362794155668404" lon="-3.1895459425748824"><ele>96.0</ele><time>2026-04-30T14:36:01.002Z</time></trkpt><trkpt lat="43.36287931819184" lon="-3.189632543799527"><ele>96.0</ele><time>2026-04-30T14:36:02.002Z</time></trkpt><trkpt lat="43.36296195162584" lon="-3.18972018332375"><ele>96.0</ele><time>2026-04-30T14:36:03.002Z</time></trkpt><trkpt lat="43.36304629792376" lon="-3.1898133562313347"><ele>96.0</ele><time>2026-04-30T14:36:04.002Z</time></trkpt><trkpt lat="43.363135101632565" lon="-3.189900794699943"><ele>96.0</ele><time>2026-04-30T14:36:05.002Z</time></trkpt><trkpt lat="43.36321538995255" lon="-3.1899860391173314"><ele>96.0</ele><time>2026-04-30T14:36:06.002Z</time></trkpt><trkpt lat="43.36328827369747" lon="-3.190073823382063"><ele>94.0</ele><time>2026-04-30T14:36:07.002Z</time></trkpt><trkpt lat="43.36336702014464" lon="-3.190153099852445"><ele>92.0</ele><time>2026-04-30T14:36:08.002Z</time></trkpt><trkpt lat="43.36344576315133" lon="-3.190225156620127"><ele>90.0</ele><time>2026-04-30T14:36:09.002Z</time></trkpt><trkpt lat="43.36352058560708" lon="-3.190297992469609"><ele>88.0</ele><time>2026-04-30T14:36:10.002Z</time></trkpt><trkpt lat="43.36358652062314" lon="-3.190366563205463"><ele>86.0</ele><time>2026-04-30T14:36:11Z</time></trkpt><trkpt lat="43.363629672069735" lon="-3.1904620459468647"><ele>84.0</ele><time>2026-04-30T14:36:12Z</time></trkpt><trkpt lat="43.36364710713417" lon="-3.190570080515812"><ele>84.66666666666667</ele><time>2026-04-30T14:36:13Z</time></trkpt><trkpt lat="43.36363220137216" lon="-3.190684454984839"><ele>85.33333333333333</ele><time>2026-04-30T14:36:14Z</time></trkpt><trkpt lat="43.36357953432052" lon="-3.190783750377817"><ele>86.0</ele><time>2026-04-30T14:36:15Z</time></trkpt><trkpt lat="43.363513652147816" lon="-3.190863503670135"><ele>86.66666666666666</ele><time>2026-04-30T14:36:16Z</time></trkpt><trkpt lat="43.36344623417655" lon="-3.1909448781746477"><ele>87.33333333333333</ele><time>2026-04-30T14:36:17Z</time></trkpt><trkpt lat="43.36338093498392" lon="-3.191031562743457"><ele>88.0</ele><time>2026-04-30T14:36:18Z</time></trkpt><trkpt lat="43.36331445249716" lon="-3.191119611845543"><ele>88.0</ele><time>2026-04-30T14:36:19Z</time></trkpt><trkpt lat="43.36324886106581" lon="-3.191206959467522"><ele>88.0</ele><time>2026-04-30T14:36:20Z</time></trkpt><trkpt lat="43.36318275851481" lon="-3.1912957987380883"><ele>88.0</ele><time>2026-04-30T14:36:21Z</time></trkpt><trkpt lat="43.36312238157795" lon="-3.1913911184585713"><ele>88.0</ele><time>2026-04-30T14:36:22Z</time></trkpt><trkpt lat="43.36306032643129" lon="-3.1914890653309205"><ele>88.0</ele><time>2026-04-30T14:36:23Z</time></trkpt><trkpt lat="43.36299285188345" lon="-3.191578717943652"><ele>88.0</ele><time>2026-04-30T14:36:24Z</time></trkpt><trkpt lat="43.362914102460856" lon="-3.19165293972454"><ele>88.0</ele><time>2026-04-30T14:36:25Z</time></trkpt><trkpt lat="43.362829603525064" lon="-3.1917119584391114"><ele>88.0</ele><time>2026-04-30T14:36:26Z</time></trkpt><trkpt lat="43.36274838795207" lon="-3.1917774516691937"><ele>88.0</ele><time>2026-04-30T14:36:27Z</time></trkpt><trkpt lat="43.36266579623987" lon="-3.1918462804080745"><ele>88.0</ele><time>2026-04-30T14:36:28Z</time></trkpt><trkpt lat="43.36258501562189" lon="-3.191919397494978"><ele>88.0</ele><time>2026-04-30T14:36:29Z</time></trkpt><trkpt lat="43.36250522571291" lon="-3.1919958937835644"><ele>88.0</ele><time>2026-04-30T14:36:30Z</time></trkpt><trkpt lat="43.362423054037144" lon="-3.192068750071689"><ele>88.0</ele><time>2026-04-30T14:36:31Z</time></trkpt><trkpt lat="43.362342036896266" lon="-3.192142752875865"><ele>88.0</ele><time>2026-04-30T14:36:32Z</time></trkpt><trkpt lat="43.36226204018187" lon="-3.1922181713860986"><ele>88.0</ele><time>2026-04-30T14:36:33Z</time></trkpt><trkpt lat="43.362184558600774" lon="-3.192304995306425"><ele>88.60000000000001</ele><time>2026-04-30T14:36:34Z</time></trkpt><trkpt lat="43.36210872523843" lon="-3.1924075271080565"><ele>89.2</ele><time>2026-04-30T14:36:35Z</time></trkpt><trkpt lat="43.36203638310912" lon="-3.192511507798493"><ele>89.8</ele><time>2026-04-30T14:36:36Z</time></trkpt><trkpt lat="43.36197403212938" lon="-3.192612705088818"><ele>90.4</ele><time>2026-04-30T14:36:37Z</time></trkpt><trkpt lat="43.361908874560335" lon="-3.1927238346767277"><ele>91.0</ele><time>2026-04-30T14:36:38Z</time></trkpt><trkpt lat="43.36184491766815" lon="-3.1928428800783992"><ele>91.0</ele><time>2026-04-30T14:36:39Z</time></trkpt><trkpt lat="43.36177563728247" lon="-3.1929599467293652"><ele>91.0</ele><time>2026-04-30T14:36:40Z</time></trkpt><trkpt lat="43.3617150262072" lon="-3.193064192992406"><ele>91.0</ele><time>2026-04-30T14:36:41Z</time></trkpt><trkpt lat="43.36165382564622" lon="-3.1931693294802495"><ele>91.0</ele><time>2026-04-30T14:36:42Z</time></trkpt><trkpt lat="43.36159846160686" lon="-3.1932780716274003"><ele>91.0</ele><time>2026-04-30T14:36:43Z</time></trkpt><trkpt lat="43.36154052709554" lon="-3.19338720448478"><ele>91.8</ele><time>2026-04-30T14:36:44Z</time></trkpt><trkpt lat="43.361483024609676" lon="-3.193494648795586"><ele>92.6</ele><time>2026-04-30T14:36:45Z</time></trkpt><trkpt lat="43.361421988150944" lon="-3.193602570430275"><ele>93.4</ele><time>2026-04-30T14:36:46Z</time></trkpt><trkpt lat="43.36136490089357" lon="-3.1937118277038206"><ele>94.2</ele><time>2026-04-30T14:36:47Z</time></trkpt><trkpt lat="43.36131293727402" lon="-3.193825577124995"><ele>95.0</ele><time>2026-04-30T14:36:48Z</time></trkpt><trkpt lat="43.36126367935574" lon="-3.1939512701130335"><ele>91.4</ele><time>2026-04-30T14:36:49Z</time></trkpt><trkpt lat="43.36122873644153" lon="-3.194074894459663"><ele>87.8</ele><time>2026-04-30T14:36:50Z</time></trkpt><trkpt lat="43.361193266915215" lon="-3.194199823922701"><ele>84.2</ele><time>2026-04-30T14:36:51Z</time></trkpt><trkpt lat="43.361150479538004" lon="-3.194321742319488"><ele>80.6</ele><time>2026-04-30T14:36:52Z</time></trkpt><trkpt lat="43.36109741952404" lon="-3.194438514538992"><ele>77.0</ele><time>2026-04-30T14:36:53Z</time></trkpt><trkpt lat="43.36104055338716" lon="-3.1945420644206166"><ele>77.0</ele><time>2026-04-30T14:36:54Z</time></trkpt><trkpt lat="43.360967372647416" lon="-3.194634097602311"><ele>77.0</ele><time>2026-04-30T14:36:55Z</time></trkpt><trkpt lat="43.360893555275325" lon="-3.1947182390281905"><ele>77.0</ele><time>2026-04-30T14:36:56Z</time></trkpt><trkpt lat="43.360818611347284" lon="-3.1948021665165696"><ele>77.0</ele><time>2026-04-30T14:36:57Z</time></trkpt><trkpt lat="43.36074449876169" lon="-3.194887145230117"><ele>77.0</ele><time>2026-04-30T14:36:58Z</time></trkpt><trkpt lat="43.36066797267098" lon="-3.1949810595975836"><ele>76.2</ele><time>2026-04-30T14:36:59Z</time></trkpt><trkpt lat="43.36059930928681" lon="-3.195069834279586"><ele>75.4</ele><time>2026-04-30T14:37:00Z</time></trkpt><trkpt lat="43.36052730013095" lon="-3.1951577700638287"><ele>74.6</ele><time>2026-04-30T14:37:01Z</time></trkpt><trkpt lat="43.36044053319188" lon="-3.19524869159666"><ele>73.8</ele><time>2026-04-30T14:37:02.001Z</time></trkpt><trkpt lat="43.3603530359651" lon="-3.1953323932264657"><ele>73.0</ele><time>2026-04-30T14:37:03.001Z</time></trkpt><trkpt lat="43.36026584458803" lon="-3.1954104106895356"><ele>73.0</ele><time>2026-04-30T14:37:04.001Z</time></trkpt><trkpt lat="43.360179642891296" lon="-3.1954828625912493"><ele>73.0</ele><time>2026-04-30T14:37:05.001Z</time></trkpt><trkpt lat="43.360087948795545" lon="-3.195558848030897"><ele>73.0</ele><time>2026-04-30T14:37:06.001Z</time></trkpt><trkpt lat="43.36000882209553" lon="-3.195653940329875"><ele>73.0</ele><time>2026-04-30T14:37:07.001Z</time></trkpt><trkpt lat="43.35992015868831" lon="-3.19572084730148"><ele>73.0</ele><time>2026-04-30T14:37:08.001Z</time></trkpt><trkpt lat="43.359850749001126" lon="-3.1958100951425807"><ele>72.83333333333333</ele><time>2026-04-30T14:37:09.001Z</time></trkpt><trkpt lat="43.35978944908397" lon="-3.1959016270247425"><ele>72.66666666666666</ele><time>2026-04-30T14:37:10.001Z</time></trkpt><trkpt lat="43.359727377060004" lon="-3.195984140420828"><ele>72.5</ele><time>2026-04-30T14:37:11.001Z</time></trkpt><trkpt lat="43.35965849357704" lon="-3.1960607859376973"><ele>72.33333333333333</ele><time>2026-04-30T14:37:12.001Z</time></trkpt><trkpt lat="43.35958961303128" lon="-3.1961421374483665"><ele>72.16666666666667</ele><time>2026-04-30T14:37:13.001Z</time></trkpt><trkpt lat="43.359520000670905" lon="-3.196210138068896"><ele>72.0</ele><time>2026-04-30T14:37:14.001Z</time></trkpt><trkpt lat="43.35943903730132" lon="-3.1962619788427187"><ele>72.0</ele><time>2026-04-30T14:37:15.001Z</time></trkpt><trkpt lat="43.35936220582255" lon="-3.196303399848505"><ele>72.0</ele><time>2026-04-30T14:37:16.001Z</time></trkpt><trkpt lat="43.35929583292794" lon="-3.1963862923601223"><ele>72.0</ele><time>2026-04-30T14:37:17.001Z</time></trkpt><trkpt lat="43.35924358890361" lon="-3.1964562163759274"><ele>72.0</ele><time>2026-04-30T14:37:18.001Z</time></trkpt><trkpt lat="43.359205654509864" lon="-3.196547926818976"><ele>72.0</ele><time>2026-04-30T14:37:19.001Z</time></trkpt><trkpt lat="43.35919175670621" lon="-3.1966473208433763"><ele>72.0</ele><time>2026-04-30T14:37:20.001Z</time></trkpt><trkpt lat="43.359227608545986" lon="-3.196757591813286"><ele>69.33333333333333</ele><time>2026-04-30T14:37:21.001Z</time></trkpt><trkpt lat="43.359292610848556" lon="-3.196843216972943"><ele>66.66666666666667</ele><time>2026-04-30T14:37:22.001Z</time></trkpt><trkpt lat="43.359374697507135" lon="-3.1968893027401655"><ele>64.0</ele><time>2026-04-30T14:37:23.001Z</time></trkpt><trkpt lat="43.359462987516224" lon="-3.196901210751508"><ele>61.333333333333336</ele><time>2026-04-30T14:37:24.001Z</time></trkpt><trkpt lat="43.35954993984154" lon="-3.19691366241781"><ele>58.66666666666667</ele><time>2026-04-30T14:37:25.001Z</time></trkpt><trkpt lat="43.35964091861552" lon="-3.1969328130127495"><ele>56.0</ele><time>2026-04-30T14:37:26.001Z</time></trkpt><trkpt lat="43.359733744244465" lon="-3.196958983382431"><ele>53.199999999999996</ele><time>2026-04-30T14:37:27.001Z</time></trkpt><trkpt lat="43.359832085707254" lon="-3.1969862452032767"><ele>50.39999999999999</ele><time>2026-04-30T14:37:28.001Z</time></trkpt><trkpt lat="43.359930143326565" lon="-3.197007600001003"><ele>47.6</ele><time>2026-04-30T14:37:29.001Z</time></trkpt><trkpt lat="43.3600333627953" lon="-3.1970311978276684"><ele>44.8</ele><time>2026-04-30T14:37:30.001Z</time></trkpt><trkpt lat="43.36013106568337" lon="-3.1970608378922645"><ele>42.0</ele><time>2026-04-30T14:37:31.001Z</time></trkpt><trkpt lat="43.36022399420207" lon="-3.1970977781578744"><ele>42.0</ele><time>2026-04-30T14:37:32.001Z</time></trkpt><trkpt lat="43.36031379627869" lon="-3.1971306725216286"><ele>42.0</ele><time>2026-04-30T14:37:33.001Z</time></trkpt><trkpt lat="43.36040436595596" lon="-3.197154054028589"><ele>42.0</ele><time>2026-04-30T14:37:34.001Z</time></trkpt><trkpt lat="43.36048995923908" lon="-3.1971845393031644"><ele>42.0</ele><time>2026-04-30T14:37:35.001Z</time></trkpt><trkpt lat="43.36055829804749" lon="-3.1972401959785417"><ele>42.0</ele><time>2026-04-30T14:37:36.001Z</time></trkpt><trkpt lat="43.36061271269232" lon="-3.197322728019646"><ele>42.0</ele><time>2026-04-30T14:37:37.001Z</time></trkpt><trkpt lat="43.36064879165802" lon="-3.1974190213040106"><ele>40.0</ele><time>2026-04-30T14:37:38.001Z</time></trkpt><trkpt lat="43.36066099761224" lon="-3.1975371745618477"><ele>38.0</ele><time>2026-04-30T14:37:39.001Z</time></trkpt><trkpt lat="43.36065608513358" lon="-3.197659312471708"><ele>36.0</ele><time>2026-04-30T14:37:40.001Z</time></trkpt><trkpt lat="43.36065363477035" lon="-3.1977859691251007"><ele>34.0</ele><time>2026-04-30T14:37:41.001Z</time></trkpt><trkpt lat="43.36066010652465" lon="-3.1979147741544987"><ele>32.0</ele><time>2026-04-30T14:37:42.001Z</time></trkpt><trkpt lat="43.36066755523446" lon="-3.198043310500719"><ele>31.200000000000003</ele><time>2026-04-30T14:37:43.001Z</time></trkpt><trkpt lat="43.360677451610954" lon="-3.198171296921419"><ele>30.400000000000002</ele><time>2026-04-30T14:37:44.001Z</time></trkpt><trkpt lat="43.360685128586844" lon="-3.1982953984581437"><ele>29.599999999999998</ele><time>2026-04-30T14:37:45.001Z</time></trkpt><trkpt lat="43.360696208394316" lon="-3.1984132343945126"><ele>28.799999999999997</ele><time>2026-04-30T14:37:46.001Z</time></trkpt><trkpt lat="43.36071849783022" lon="-3.1985363036858105"><ele>28.0</ele><time>2026-04-30T14:37:47.001Z</time></trkpt><trkpt lat="43.3607368750384" lon="-3.198653226170472"><ele>28.000000000000004</ele><time>2026-04-30T14:37:48.001Z</time></trkpt><trkpt lat="43.36075895294641" lon="-3.198766670728683"><ele>28.0</ele><time>2026-04-30T14:37:49.001Z</time></trkpt><trkpt lat="43.36077309297657" lon="-3.198886313871055"><ele>28.0</ele><time>2026-04-30T14:37:50.001Z</time></trkpt><trkpt lat="43.36078835512892" lon="-3.1989969004226015"><ele>28.0</ele><time>2026-04-30T14:37:51.001Z</time></trkpt><trkpt lat="43.36079460353849" lon="-3.1991098267011346"><ele>28.000000000000004</ele><time>2026-04-30T14:37:52.001Z</time></trkpt><trkpt lat="43.36078860698525" lon="-3.1992242776770556"><ele>28.0</ele><time>2026-04-30T14:37:53.001Z</time></trkpt><trkpt lat="43.36075554897568" lon="-3.1993322977780614"><ele>27.166666666666668</ele><time>2026-04-30T14:37:54.001Z</time></trkpt><trkpt lat="43.36071774459805" lon="-3.199435770906579"><ele>26.333333333333336</ele><time>2026-04-30T14:37:55.001Z</time></trkpt><trkpt lat="43.360661243991174" lon="-3.1995277324593134"><ele>25.5</ele><time>2026-04-30T14:37:56.001Z</time></trkpt><trkpt lat="43.3605951091148" lon="-3.1996098664062687"><ele>24.666666666666668</ele><time>2026-04-30T14:37:57.001Z</time></trkpt><trkpt lat="43.36052436957108" lon="-3.1996853367168194"><ele>23.833333333333336</ele><time>2026-04-30T14:37:58.001Z</time></trkpt><trkpt lat="43.36045245989463" lon="-3.1997546215494053"><ele>23.0</ele><time>2026-04-30T14:37:59.001Z</time></trkpt><trkpt lat="43.36038260820915" lon="-3.1998076504392063"><ele>22.833333333333336</ele><time>2026-04-30T14:38:00.001Z</time></trkpt><trkpt lat="43.36031452177236" lon="-3.1998590933206636"><ele>22.666666666666668</ele><time>2026-04-30T14:38:01.001Z</time></trkpt><trkpt lat="43.36024623812261" lon="-3.1999070084608876"><ele>22.5</ele><time>2026-04-30T14:38:02.001Z</time></trkpt><trkpt lat="43.36017403326224" lon="-3.199934453785149"><ele>22.333333333333332</ele><time>2026-04-30T14:38:03.001Z</time></trkpt><trkpt lat="43.36010288073412" lon="-3.19995746266903"><ele>22.166666666666664</ele><time>2026-04-30T14:38:04.002Z</time></trkpt><trkpt lat="43.36003070357642" lon="-3.19997407278642"><ele>22.0</ele><time>2026-04-30T14:38:05.002Z</time></trkpt><trkpt lat="43.3599561779592" lon="-3.199994914191386"><ele>22.0</ele><time>2026-04-30T14:38:06.002Z</time></trkpt><trkpt lat="43.35988743373169" lon="-3.2000208199388354"><ele>22.0</ele><time>2026-04-30T14:38:07.002Z</time></trkpt><trkpt lat="43.359818183982725" lon="-3.2000587139259142"><ele>22.0</ele><time>2026-04-30T14:38:08.002Z</time></trkpt><trkpt lat="43.35975683289891" lon="-3.2001033362550904"><ele>22.0</ele><time>2026-04-30T14:38:09.002Z</time></trkpt><trkpt lat="43.35969653434826" lon="-3.2001509456166124"><ele>22.0</ele><time>2026-04-30T14:38:10.002Z</time></trkpt><trkpt lat="43.35959691601919" lon="-3.2002490007541624"><ele>22.0</ele><time>2026-04-30T14:38:12.002Z</time></trkpt><trkpt lat="43.35949089971226" lon="-3.2003280923596567"><ele>24.200000000000003</ele><time>2026-04-30T14:38:14.002Z</time></trkpt><trkpt lat="43.35937885296691" lon="-3.2004143871603916"><ele>26.4</ele><time>2026-04-30T14:38:16.002Z</time></trkpt><trkpt lat="43.35931763765724" lon="-3.2004538301749124"><ele>28.599999999999998</ele><time>2026-04-30T14:38:16.999Z</time></trkpt><trkpt lat="43.35925643099065" lon="-3.2004928285135414"><ele>30.799999999999997</ele><time>2026-04-30T14:38:17.999Z</time></trkpt><trkpt lat="43.35914716577439" lon="-3.2005646755254844"><ele>33.0</ele><time>2026-04-30T14:38:19.999Z</time></trkpt><trkpt lat="43.35904695690313" lon="-3.20063941358787"><ele>30.333333333333332</ele><time>2026-04-30T14:38:21.999Z</time></trkpt><trkpt lat="43.35893995715342" lon="-3.2007169000978593"><ele>27.666666666666668</ele><time>2026-04-30T14:38:23.999Z</time></trkpt><trkpt lat="43.35889063948824" lon="-3.2007755326730556"><ele>25.0</ele><time>2026-04-30T14:38:24.999Z</time></trkpt><trkpt lat="43.35883553050198" lon="-3.200821513415858"><ele>22.333333333333336</ele><time>2026-04-30T14:38:25.999Z</time></trkpt><trkpt lat="43.35879856636067" lon="-3.2009083990865044"><ele>19.666666666666668</ele><time>2026-04-30T14:38:26.999Z</time></trkpt><trkpt lat="43.358780538089505" lon="-3.2010005863678526"><ele>17.0</ele><time>2026-04-30T14:38:27.999Z</time></trkpt><trkpt lat="43.35877938819379" lon="-3.2010921987974066"><ele>17.0</ele><time>2026-04-30T14:38:28.999Z</time></trkpt><trkpt lat="43.35879845220083" lon="-3.201252577606469"><ele>17.0</ele><time>2026-04-30T14:38:30.999Z</time></trkpt><trkpt lat="43.3588274804033" lon="-3.2014046297867096"><ele>17.0</ele><time>2026-04-30T14:38:32.999Z</time></trkpt><trkpt lat="43.358868593128776" lon="-3.2015380897488304"><ele>17.0</ele><time>2026-04-30T14:38:34.999Z</time></trkpt><trkpt lat="43.358918802511106" lon="-3.2016753390515644"><ele>16.2</ele><time>2026-04-30T14:38:36.999Z</time></trkpt><trkpt lat="43.358975303464625" lon="-3.2018125335386642"><ele>15.399999999999999</ele><time>2026-04-30T14:38:38.999Z</time></trkpt><trkpt lat="43.35902920465004" lon="-3.2019692864963107"><ele>14.600000000000001</ele><time>2026-04-30T14:38:40.999Z</time></trkpt><trkpt lat="43.359056004261525" lon="-3.2020560895593224"><ele>13.8</ele><time>2026-04-30T14:38:41.999Z</time></trkpt><trkpt lat="43.359094285108725" lon="-3.2021445374883895"><ele>13.0</ele><time>2026-04-30T14:38:43Z</time></trkpt><trkpt lat="43.35914250607826" lon="-3.2022265917070447"><ele>12.999999999999998</ele><time>2026-04-30T14:38:44Z</time></trkpt><trkpt lat="43.359197130094856" lon="-3.2023021926248787"><ele>13.0</ele><time>2026-04-30T14:38:45Z</time></trkpt><trkpt lat="43.35924539852658" lon="-3.202387558013312"><ele>13.0</ele><time>2026-04-30T14:38:46Z</time></trkpt><trkpt lat="43.359297834313715" lon="-3.2024684892713577"><ele>13.0</ele><time>2026-04-30T14:38:47Z</time></trkpt><trkpt lat="43.35935841735096" lon="-3.2025403926840883"><ele>12.999999999999998</ele><time>2026-04-30T14:38:48Z</time></trkpt><trkpt lat="43.359430652115044" lon="-3.2025826037940157"><ele>13.0</ele><time>2026-04-30T14:38:49Z</time></trkpt><trkpt lat="43.359510915018085" lon="-3.202590769370921"><ele>13.571428571428571</ele><time>2026-04-30T14:38:50Z</time></trkpt><trkpt lat="43.35958872031854" lon="-3.202588088960827"><ele>14.142857142857142</ele><time>2026-04-30T14:38:51Z</time></trkpt><trkpt lat="43.35966793134849" lon="-3.202582619457461"><ele>14.714285714285714</ele><time>2026-04-30T14:38:52Z</time></trkpt><trkpt lat="43.35974138936512" lon="-3.2025770486793532"><ele>15.285714285714285</ele><time>2026-04-30T14:38:53Z</time></trkpt><trkpt lat="43.35980957699932" lon="-3.202564275612887"><ele>15.857142857142858</ele><time>2026-04-30T14:38:54Z</time></trkpt><trkpt lat="43.359873976211446" lon="-3.2025575898783987"><ele>16.428571428571427</ele><time>2026-04-30T14:38:55Z</time></trkpt><trkpt lat="43.35993796229233" lon="-3.2025567923995806"><ele>17.0</ele><time>2026-04-30T14:38:56Z</time></trkpt><trkpt lat="43.3600030850261" lon="-3.2025599981346224"><ele>16.999999999999996</ele><time>2026-04-30T14:38:57Z</time></trkpt><trkpt lat="43.360073578064544" lon="-3.2025620744950145"><ele>17.0</ele><time>2026-04-30T14:38:58Z</time></trkpt><trkpt lat="43.36014181405366" lon="-3.2025635892840265"><ele>17.0</ele><time>2026-04-30T14:38:59Z</time></trkpt><trkpt lat="43.360212160553765" lon="-3.202566580376314"><ele>17.0</ele><time>2026-04-30T14:39:00Z</time></trkpt><trkpt lat="43.360284235259186" lon="-3.202558818419774"><ele>17.0</ele><time>2026-04-30T14:39:01Z</time></trkpt><trkpt lat="43.36035736278545" lon="-3.202559543085498"><ele>16.999999999999996</ele><time>2026-04-30T14:39:02Z</time></trkpt><trkpt lat="43.36042993740881" lon="-3.2025487281234493"><ele>17.0</ele><time>2026-04-30T14:39:03Z</time></trkpt><trkpt lat="43.36050203780536" lon="-3.202545253831155"><ele>16.999999999999996</ele><time>2026-04-30T14:39:04Z</time></trkpt><trkpt lat="43.360575032470635" lon="-3.2025352821857416"><ele>17.0</ele><time>2026-04-30T14:39:05Z</time></trkpt><trkpt lat="43.360641084858884" lon="-3.2025074152057034"><ele>17.0</ele><time>2026-04-30T14:39:06Z</time></trkpt><trkpt lat="43.360706376836816" lon="-3.20247670847313"><ele>17.0</ele><time>2026-04-30T14:39:07Z</time></trkpt><trkpt lat="43.36077446798373" lon="-3.2024345181926694"><ele>17.0</ele><time>2026-04-30T14:39:08Z</time></trkpt><trkpt lat="43.36083187699336" lon="-3.2023778590043874"><ele>16.999999999999996</ele><time>2026-04-30T14:39:09Z</time></trkpt><trkpt lat="43.36088645204825" lon="-3.202313896915346"><ele>17.0</ele><time>2026-04-30T14:39:10Z</time></trkpt><trkpt lat="43.360936254519636" lon="-3.2022412618681684"><ele>16.999999999999996</ele><time>2026-04-30T14:39:11Z</time></trkpt><trkpt lat="43.36098171863007" lon="-3.202167931608315"><ele>17.0</ele><time>2026-04-30T14:39:12Z</time></trkpt><trkpt lat="43.361027054919475" lon="-3.202091998234565"><ele>17.0</ele><time>2026-04-30T14:39:13Z</time></trkpt><trkpt lat="43.3610700351267" lon="-3.202010840882044"><ele>17.0</ele><time>2026-04-30T14:39:14Z</time></trkpt><trkpt lat="43.36110952808778" lon="-3.201925711319669"><ele>17.0</ele><time>2026-04-30T14:39:15Z</time></trkpt><trkpt lat="43.36114597756895" lon="-3.201839632832439"><ele>16.999999999999996</ele><time>2026-04-30T14:39:16Z</time></trkpt><trkpt lat="43.36118264517914" lon="-3.201751877047872"><ele>17.0</ele><time>2026-04-30T14:39:17Z</time></trkpt><trkpt lat="43.361219732040354" lon="-3.2016649625245543"><ele>16.999999999999996</ele><time>2026-04-30T14:39:18Z</time></trkpt><trkpt lat="43.36125718461856" lon="-3.2015758327208816"><ele>17.0</ele><time>2026-04-30T14:39:19Z</time></trkpt><trkpt lat="43.3612890907754" lon="-3.2014832417274723"><ele>17.0</ele><time>2026-04-30T14:39:20Z</time></trkpt><trkpt lat="43.36131505497788" lon="-3.2013857783874817"><ele>17.0</ele><time>2026-04-30T14:39:21Z</time></trkpt><trkpt lat="43.361335278582295" lon="-3.201292136670938"><ele>17.0</ele><time>2026-04-30T14:39:22Z</time></trkpt><trkpt lat="43.36135406938023" lon="-3.20119641720249"><ele>16.999999999999996</ele><time>2026-04-30T14:39:23Z</time></trkpt><trkpt lat="43.3613749963915" lon="-3.201100682881758"><ele>17.0</ele><time>2026-04-30T14:39:24.001Z</time></trkpt><trkpt lat="43.361398994112974" lon="-3.201003197047571"><ele>21.333333333333336</ele><time>2026-04-30T14:39:25.001Z</time></trkpt><trkpt lat="43.361422393519774" lon="-3.200904131775681"><ele>25.666666666666668</ele><time>2026-04-30T14:39:26.001Z</time></trkpt><trkpt lat="43.36144126779934" lon="-3.2008053605518842"><ele>30.0</ele><time>2026-04-30T14:39:27.001Z</time></trkpt><trkpt lat="43.36152302635515" lon="-3.2003940556714463"><ele>30.0</ele><time>2026-04-30T14:39:31.001Z</time></trkpt><trkpt lat="43.36153035934963" lon="-3.2002852206239925"><ele>30.0</ele><time>2026-04-30T14:39:32.001Z</time></trkpt><trkpt lat="43.36155349430016" lon="-3.200182963429113"><ele>30.0</ele><time>2026-04-30T14:39:33.001Z</time></trkpt><trkpt lat="43.36157612487454" lon="-3.200082935602336"><ele>30.0</ele><time>2026-04-30T14:39:34.001Z</time></trkpt><trkpt lat="43.36159960648825" lon="-3.1999791460688085"><ele>30.0</ele><time>2026-04-30T14:39:35.001Z</time></trkpt><trkpt lat="43.36162380218033" lon="-3.1998770618120065"><ele>30.0</ele><time>2026-04-30T14:39:36.001Z</time></trkpt><trkpt lat="43.36165128468509" lon="-3.1997739365163715"><ele>29.333333333333332</ele><time>2026-04-30T14:39:37.001Z</time></trkpt><trkpt lat="43.36168826210352" lon="-3.1996724059723483"><ele>28.666666666666664</ele><time>2026-04-30T14:39:38.001Z</time></trkpt><trkpt lat="43.361741353987874" lon="-3.1995872687350904"><ele>28.0</ele><time>2026-04-30T14:39:39.001Z</time></trkpt><trkpt lat="43.36178590591117" lon="-3.1994903038964018"><ele>27.333333333333332</ele><time>2026-04-30T14:39:40.001Z</time></trkpt><trkpt lat="43.36183719319776" lon="-3.199403245781382"><ele>26.666666666666664</ele><time>2026-04-30T14:39:41.001Z</time></trkpt><trkpt lat="43.361890369880655" lon="-3.1993121250238605"><ele>26.0</ele><time>2026-04-30T14:39:42.001Z</time></trkpt><trkpt lat="43.36194946101566" lon="-3.199236885504904"><ele>25.999999999999996</ele><time>2026-04-30T14:39:43.001Z</time></trkpt><trkpt lat="43.36201738033046" lon="-3.1991794091142913"><ele>26.0</ele><time>2026-04-30T14:39:44.001Z</time></trkpt><trkpt lat="43.362097845500166" lon="-3.199148423310528"><ele>26.0</ele><time>2026-04-30T14:39:45.001Z</time></trkpt><trkpt lat="43.362183940099854" lon="-3.1991413979319865"><ele>26.0</ele><time>2026-04-30T14:39:46.001Z</time></trkpt><trkpt lat="43.36226651815394" lon="-3.199144815071672"><ele>25.999999999999996</ele><time>2026-04-30T14:39:47.001Z</time></trkpt><trkpt lat="43.36235161327487" lon="-3.199142302966223"><ele>26.0</ele><time>2026-04-30T14:39:48.001Z</time></trkpt><trkpt lat="43.362435347750846" lon="-3.1991386975144764"><ele>25.166666666666664</ele><time>2026-04-30T14:39:49.001Z</time></trkpt><trkpt lat="43.362520762178505" lon="-3.199115946073693"><ele>24.333333333333332</ele><time>2026-04-30T14:39:50.001Z</time></trkpt><trkpt lat="43.36258900031808" lon="-3.1990415327704786"><ele>23.5</ele><time>2026-04-30T14:39:51.001Z</time></trkpt><trkpt lat="43.3626674578471" lon="-3.1989908843677264"><ele>22.666666666666664</ele><time>2026-04-30T14:39:52.001Z</time></trkpt><trkpt lat="43.362725336233225" lon="-3.1989096014169642"><ele>21.833333333333332</ele><time>2026-04-30T14:39:53.001Z</time></trkpt><trkpt lat="43.362805451235594" lon="-3.1988747048283304"><ele>21.0</ele><time>2026-04-30T14:39:54.001Z</time></trkpt><trkpt lat="43.36287998043045" lon="-3.1988394344952256"><ele>21.0</ele><time>2026-04-30T14:39:55.001Z</time></trkpt><trkpt lat="43.36296066036798" lon="-3.1988225434755715"><ele>21.0</ele><time>2026-04-30T14:39:56.001Z</time></trkpt><trkpt lat="43.36304123159991" lon="-3.198815755601762"><ele>21.0</ele><time>2026-04-30T14:39:57.001Z</time></trkpt><trkpt lat="43.36312080858636" lon="-3.198806319695556"><ele>21.0</ele><time>2026-04-30T14:39:58.001Z</time></trkpt><trkpt lat="43.36320212935761" lon="-3.198799442962314"><ele>21.0</ele><time>2026-04-30T14:39:59.001Z</time></trkpt><trkpt lat="43.3632815572989" lon="-3.1988037475751883"><ele>21.0</ele><time>2026-04-30T14:40:00.001Z</time></trkpt><trkpt lat="43.363361833242095" lon="-3.1988097332048597"><ele>22.5</ele><time>2026-04-30T14:40:01.001Z</time></trkpt><trkpt lat="43.36343905237544" lon="-3.1988310776791007"><ele>24.0</ele><time>2026-04-30T14:40:02.001Z</time></trkpt><trkpt lat="43.36352817338944" lon="-3.1988516437942516"><ele>25.5</ele><time>2026-04-30T14:40:03.001Z</time></trkpt><trkpt lat="43.36360240081861" lon="-3.198878561196442"><ele>27.0</ele><time>2026-04-30T14:40:04.001Z</time></trkpt><trkpt lat="43.36367717496537" lon="-3.198904009340231"><ele>28.5</ele><time>2026-04-30T14:40:05.001Z</time></trkpt><trkpt lat="43.36375345609441" lon="-3.1989310292255397"><ele>30.0</ele><time>2026-04-30T14:40:06.001Z</time></trkpt><trkpt lat="43.36383320608475" lon="-3.198959376147477"><ele>32.0</ele><time>2026-04-30T14:40:07.001Z</time></trkpt><trkpt lat="43.36391441649657" lon="-3.1989866286114403"><ele>34.0</ele><time>2026-04-30T14:40:08.001Z</time></trkpt><trkpt lat="43.363993132171714" lon="-3.1990215846977605"><ele>36.0</ele><time>2026-04-30T14:40:09.001Z</time></trkpt><trkpt lat="43.364070199019096" lon="-3.199048496920356"><ele>38.0</ele><time>2026-04-30T14:40:10.001Z</time></trkpt><trkpt lat="43.36414900045464" lon="-3.1990727608763456"><ele>40.0</ele><time>2026-04-30T14:40:11.001Z</time></trkpt><trkpt lat="43.364224040380094" lon="-3.1991092353073367"><ele>42.0</ele><time>2026-04-30T14:40:12.001Z</time></trkpt><trkpt lat="43.36429933874996" lon="-3.199142945106321"><ele>44.333333333333336</ele><time>2026-04-30T14:40:13.001Z</time></trkpt><trkpt lat="43.364375861767165" lon="-3.1991763765793593"><ele>46.66666666666667</ele><time>2026-04-30T14:40:14.001Z</time></trkpt><trkpt lat="43.36445261580928" lon="-3.199213229180153"><ele>49.0</ele><time>2026-04-30T14:40:15.001Z</time></trkpt><trkpt lat="43.364524886605466" lon="-3.199253771078914"><ele>51.333333333333336</ele><time>2026-04-30T14:40:16.002Z</time></trkpt><trkpt lat="43.36460345289002" lon="-3.199287273228753"><ele>53.66666666666667</ele><time>2026-04-30T14:40:17.002Z</time></trkpt><trkpt lat="43.364680016081124" lon="-3.199327364897493"><ele>56.0</ele><time>2026-04-30T14:40:18.002Z</time></trkpt><trkpt lat="43.364757479087714" lon="-3.1993570708691554"><ele>56.00000000000001</ele><time>2026-04-30T14:40:19.002Z</time></trkpt><trkpt lat="43.364835771411016" lon="-3.199385051184196"><ele>56.0</ele><time>2026-04-30T14:40:20.002Z</time></trkpt><trkpt lat="43.36491579435833" lon="-3.199414268932281"><ele>56.0</ele><time>2026-04-30T14:40:21.002Z</time></trkpt><trkpt lat="43.36499477552602" lon="-3.1994464928115325"><ele>56.0</ele><time>2026-04-30T14:40:22.002Z</time></trkpt><trkpt lat="43.36507422203137" lon="-3.1994746419522153"><ele>56.00000000000001</ele><time>2026-04-30T14:40:22.999Z</time></trkpt><trkpt lat="43.36515545937763" lon="-3.199499624090129"><ele>56.0</ele><time>2026-04-30T14:40:23.999Z</time></trkpt><trkpt lat="43.365237169480395" lon="-3.1995251671429332"><ele>56.00000000000001</ele><time>2026-04-30T14:40:24.999Z</time></trkpt><trkpt lat="43.36531859259686" lon="-3.1995492766559446"><ele>56.0</ele><time>2026-04-30T14:40:25.999Z</time></trkpt><trkpt lat="43.3653984374085" lon="-3.199570876619156"><ele>56.0</ele><time>2026-04-30T14:40:26.999Z</time></trkpt><trkpt lat="43.3654780897841" lon="-3.199595125006242"><ele>56.0</ele><time>2026-04-30T14:40:27.999Z</time></trkpt><trkpt lat="43.36555745542731" lon="-3.19961463978094"><ele>56.00000000000001</ele><time>2026-04-30T14:40:28.999Z</time></trkpt><trkpt lat="43.36563786069057" lon="-3.1996262117637944"><ele>56.0</ele><time>2026-04-30T14:40:29.999Z</time></trkpt><trkpt lat="43.365716910953914" lon="-3.1996426507205595"><ele>57.66666666666667</ele><time>2026-04-30T14:40:30.999Z</time></trkpt><trkpt lat="43.36579797971014" lon="-3.1996544795457162"><ele>59.333333333333336</ele><time>2026-04-30T14:40:31.999Z</time></trkpt><trkpt lat="43.36587767730703" lon="-3.199667769348977"><ele>61.0</ele><time>2026-04-30T14:40:32.999Z</time></trkpt><trkpt lat="43.36595542838765" lon="-3.1996890350571956"><ele>62.66666666666667</ele><time>2026-04-30T14:40:33.999Z</time></trkpt><trkpt lat="43.366036083609764" lon="-3.1997168847809845"><ele>64.33333333333333</ele><time>2026-04-30T14:40:34.999Z</time></trkpt><trkpt lat="43.36611462452485" lon="-3.1997548508080507"><ele>66.0</ele><time>2026-04-30T14:40:35.999Z</time></trkpt><trkpt lat="43.36618853711362" lon="-3.199804434952624"><ele>66.16666666666667</ele><time>2026-04-30T14:40:36.999Z</time></trkpt><trkpt lat="43.36626579717805" lon="-3.1998588348662467"><ele>66.33333333333333</ele><time>2026-04-30T14:40:38Z</time></trkpt><trkpt lat="43.36634045359027" lon="-3.199920756265436"><ele>66.5</ele><time>2026-04-30T14:40:39Z</time></trkpt><trkpt lat="43.36641543957882" lon="-3.199984756947413"><ele>66.66666666666666</ele><time>2026-04-30T14:40:40Z</time></trkpt><trkpt lat="43.36648961604627" lon="-3.200047067542186"><ele>66.83333333333333</ele><time>2026-04-30T14:40:41Z</time></trkpt><trkpt lat="43.36656747866576" lon="-3.2001159038571787"><ele>67.0</ele><time>2026-04-30T14:40:42Z</time></trkpt><trkpt lat="43.36664804211239" lon="-3.2001826745958195"><ele>67.0</ele><time>2026-04-30T14:40:43Z</time></trkpt><trkpt lat="43.36672092629321" lon="-3.200247209838306"><ele>67.0</ele><time>2026-04-30T14:40:44Z</time></trkpt><trkpt lat="43.36680675727983" lon="-3.2003192321769043"><ele>67.0</ele><time>2026-04-30T14:40:45Z</time></trkpt><trkpt lat="43.366893177331775" lon="-3.200389622960195"><ele>67.0</ele><time>2026-04-30T14:40:46Z</time></trkpt><trkpt lat="43.36697366821237" lon="-3.2004624350131485"><ele>67.0</ele><time>2026-04-30T14:40:47Z</time></trkpt><trkpt lat="43.36705254066589" lon="-3.200538090849461"><ele>67.0</ele><time>2026-04-30T14:40:48Z</time></trkpt><trkpt lat="43.36713657619909" lon="-3.200609585673698"><ele>67.0</ele><time>2026-04-30T14:40:49Z</time></trkpt><trkpt lat="43.36721683903213" lon="-3.200675246155246"><ele>67.0</ele><time>2026-04-30T14:40:50Z</time></trkpt><trkpt lat="43.367296497735325" lon="-3.2007405104697533"><ele>67.0</ele><time>2026-04-30T14:40:51Z</time></trkpt><trkpt lat="43.36737699526857" lon="-3.200803595595422"><ele>67.0</ele><time>2026-04-30T14:40:52Z</time></trkpt><trkpt lat="43.367458027945794" lon="-3.2008743894069296"><ele>65.8</ele><time>2026-04-30T14:40:53Z</time></trkpt><trkpt lat="43.36754198866312" lon="-3.2009407669908616"><ele>64.6</ele><time>2026-04-30T14:40:54Z</time></trkpt><trkpt lat="43.36762663003268" lon="-3.2009998592187157"><ele>63.39999999999999</ele><time>2026-04-30T14:40:55Z</time></trkpt><trkpt lat="43.36769918336326" lon="-3.2010624137219676"><ele>62.199999999999996</ele><time>2026-04-30T14:40:56Z</time></trkpt><trkpt lat="43.36777585879767" lon="-3.201123079762917"><ele>61.0</ele><time>2026-04-30T14:40:57Z</time></trkpt><trkpt lat="43.36785121252359" lon="-3.2011908820551405"><ele>61.0</ele><time>2026-04-30T14:40:58Z</time></trkpt><trkpt lat="43.36792929512944" lon="-3.201254765161992"><ele>60.99999999999999</ele><time>2026-04-30T14:40:59Z</time></trkpt><trkpt lat="43.36801174382617" lon="-3.201315456033366"><ele>60.99999999999999</ele><time>2026-04-30T14:41:00Z</time></trkpt><trkpt lat="43.36809219882691" lon="-3.201378027331675"><ele>61.0</ele><time>2026-04-30T14:41:01Z</time></trkpt><trkpt lat="43.36817149262914" lon="-3.20143849196451"><ele>61.0</ele><time>2026-04-30T14:41:02Z</time></trkpt><trkpt lat="43.36824471075021" lon="-3.2014999725859488"><ele>60.99999999999999</ele><time>2026-04-30T14:41:03Z</time></trkpt><trkpt lat="43.36831492671574" lon="-3.201565032125076"><ele>61.0</ele><time>2026-04-30T14:41:04Z</time></trkpt><trkpt lat="43.36839146515865" lon="-3.2016237735343793"><ele>61.0</ele><time>2026-04-30T14:41:05Z</time></trkpt><trkpt lat="43.368462665745014" lon="-3.2016769804834713"><ele>61.0</ele><time>2026-04-30T14:41:06Z</time></trkpt><trkpt lat="43.368536000510794" lon="-3.20173958239665"><ele>60.99999999999999</ele><time>2026-04-30T14:41:07Z</time></trkpt><trkpt lat="43.36860941092969" lon="-3.20180443457104"><ele>61.0</ele><time>2026-04-30T14:41:08Z</time></trkpt><trkpt lat="43.368686861458485" lon="-3.201867273517815"><ele>61.0</ele><time>2026-04-30T14:41:09Z</time></trkpt><trkpt lat="43.368766220722335" lon="-3.2019278369555657"><ele>60.99999999999999</ele><time>2026-04-30T14:41:10Z</time></trkpt><trkpt lat="43.36884444394945" lon="-3.2019927740111"><ele>60.99999999999999</ele><time>2026-04-30T14:41:11Z</time></trkpt><trkpt lat="43.368924365172546" lon="-3.2020571317227193"><ele>61.0</ele><time>2026-04-30T14:41:12Z</time></trkpt><trkpt lat="43.369005243561745" lon="-3.2021208624203727"><ele>61.0</ele><time>2026-04-30T14:41:13Z</time></trkpt><trkpt lat="43.36908954414602" lon="-3.2021837177801626"><ele>60.4</ele><time>2026-04-30T14:41:14.001Z</time></trkpt><trkpt lat="43.36917222131538" lon="-3.2022551853666905"><ele>59.8</ele><time>2026-04-30T14:41:15.001Z</time></trkpt><trkpt lat="43.36925602621945" lon="-3.202318009209291"><ele>59.199999999999996</ele><time>2026-04-30T14:41:16.001Z</time></trkpt><trkpt lat="43.3693416795786" lon="-3.20238039597488"><ele>58.599999999999994</ele><time>2026-04-30T14:41:17.001Z</time></trkpt><trkpt lat="43.36941848725016" lon="-3.2024498946376854"><ele>58.0</ele><time>2026-04-30T14:41:18.001Z</time></trkpt><trkpt lat="43.36949909960526" lon="-3.2025230779352043"><ele>58.0</ele><time>2026-04-30T14:41:19.001Z</time></trkpt><trkpt lat="43.36956977164877" lon="-3.202601340649658"><ele>58.0</ele><time>2026-04-30T14:41:20.001Z</time></trkpt><trkpt lat="43.36963830433262" lon="-3.202695080018491"><ele>58.0</ele><time>2026-04-30T14:41:21.001Z</time></trkpt><trkpt lat="43.369695494180924" lon="-3.202802293908046"><ele>58.0</ele><time>2026-04-30T14:41:22.001Z</time></trkpt><trkpt lat="43.36974401853993" lon="-3.202917069190215"><ele>58.0</ele><time>2026-04-30T14:41:23.001Z</time></trkpt><trkpt lat="43.36978099218727" lon="-3.203042421271432"><ele>54.4</ele><time>2026-04-30T14:41:24.001Z</time></trkpt><trkpt lat="43.3698071098555" lon="-3.2031664389397476"><ele>50.8</ele><time>2026-04-30T14:41:25.001Z</time></trkpt><trkpt lat="43.36981652307244" lon="-3.2033012952045525"><ele>47.2</ele><time>2026-04-30T14:41:26.001Z</time></trkpt><trkpt lat="43.36981183583481" lon="-3.2034341536584696"><ele>43.6</ele><time>2026-04-30T14:41:27.001Z</time></trkpt><trkpt lat="43.36978872245493" lon="-3.203566392895466"><ele>40.0</ele><time>2026-04-30T14:41:28.001Z</time></trkpt><trkpt lat="43.369747271398" lon="-3.2036955750490432"><ele>40.0</ele><time>2026-04-30T14:41:29.001Z</time></trkpt><trkpt lat="43.369706507296186" lon="-3.203822127626414"><ele>40.0</ele><time>2026-04-30T14:41:30.001Z</time></trkpt><trkpt lat="43.36966258227269" lon="-3.2039485165871437"><ele>40.0</ele><time>2026-04-30T14:41:31.001Z</time></trkpt><trkpt lat="43.369619322870655" lon="-3.2040759065321343"><ele>40.0</ele><time>2026-04-30T14:41:32.001Z</time></trkpt><trkpt lat="43.36957229897204" lon="-3.2042009881172295"><ele>40.0</ele><time>2026-04-30T14:41:33.001Z</time></trkpt><trkpt lat="43.36952356352273" lon="-3.204329559717779"><ele>40.2</ele><time>2026-04-30T14:41:34.001Z</time></trkpt><trkpt lat="43.36946605527103" lon="-3.204448384969326"><ele>40.4</ele><time>2026-04-30T14:41:35.001Z</time></trkpt><trkpt lat="43.369400791102755" lon="-3.2045560342089656"><ele>40.599999999999994</ele><time>2026-04-30T14:41:36.001Z</time></trkpt><trkpt lat="43.369339302157414" lon="-3.2046624332086324"><ele>40.8</ele><time>2026-04-30T14:41:37.001Z</time></trkpt><trkpt lat="43.36927969072015" lon="-3.204770107496225"><ele>41.0</ele><time>2026-04-30T14:41:38.001Z</time></trkpt><trkpt lat="43.36922316530214" lon="-3.2048799347862937"><ele>39.199999999999996</ele><time>2026-04-30T14:41:39.001Z</time></trkpt><trkpt lat="43.3691667396167" lon="-3.2049920924149946"><ele>37.4</ele><time>2026-04-30T14:41:40.001Z</time></trkpt><trkpt lat="43.369110864719914" lon="-3.205108010811899"><ele>35.6</ele><time>2026-04-30T14:41:41.001Z</time></trkpt><trkpt lat="43.36906072870214" lon="-3.2052240609834333"><ele>33.8</ele><time>2026-04-30T14:41:42.001Z</time></trkpt><trkpt lat="43.36901058246435" lon="-3.205345187129521"><ele>32.0</ele><time>2026-04-30T14:41:43.001Z</time></trkpt><trkpt lat="43.36896977916516" lon="-3.2054713718159347"><ele>32.0</ele><time>2026-04-30T14:41:44.001Z</time></trkpt><trkpt lat="43.36894032190608" lon="-3.205601162151432"><ele>32.0</ele><time>2026-04-30T14:41:45.001Z</time></trkpt><trkpt lat="43.36893213295594" lon="-3.205736612042247"><ele>32.0</ele><time>2026-04-30T14:41:46.001Z</time></trkpt><trkpt lat="43.36894788265745" lon="-3.205871257605413"><ele>32.0</ele><time>2026-04-30T14:41:47.001Z</time></trkpt><trkpt lat="43.368985366047916" lon="-3.2059938829175008"><ele>32.0</ele><time>2026-04-30T14:41:48.001Z</time></trkpt><trkpt lat="43.36902691649266" lon="-3.2061085398493754"><ele>32.0</ele><time>2026-04-30T14:41:49.001Z</time></trkpt><trkpt lat="43.36906767399379" lon="-3.20621947201712"><ele>32.0</ele><time>2026-04-30T14:41:50.001Z</time></trkpt><trkpt lat="43.36910642648691" lon="-3.206333721076916"><ele>32.0</ele><time>2026-04-30T14:41:51.001Z</time></trkpt><trkpt lat="43.369146673204924" lon="-3.206443555511147"><ele>32.0</ele><time>2026-04-30T14:41:52.001Z</time></trkpt><trkpt lat="43.3691852546034" lon="-3.206559396115071"><ele>32.0</ele><time>2026-04-30T14:41:53.001Z</time></trkpt><trkpt lat="43.36922165838485" lon="-3.2066805923603177"><ele>32.0</ele><time>2026-04-30T14:41:54.001Z</time></trkpt><trkpt lat="43.36925764154635" lon="-3.2068000293590995"><ele>32.0</ele><time>2026-04-30T14:41:55.001Z</time></trkpt><trkpt lat="43.369289163754054" lon="-3.2069176778322763"><ele>32.0</ele><time>2026-04-30T14:41:56.001Z</time></trkpt><trkpt lat="43.36932344880137" lon="-3.207030125938556"><ele>32.0</ele><time>2026-04-30T14:41:57.001Z</time></trkpt><trkpt lat="43.36935554651252" lon="-3.207146462979277"><ele>32.0</ele><time>2026-04-30T14:41:58.001Z</time></trkpt><trkpt lat="43.36938364454639" lon="-3.2072593924061437"><ele>33.33333333333333</ele><time>2026-04-30T14:41:59.001Z</time></trkpt><trkpt lat="43.36940455985786" lon="-3.2073726329790446"><ele>34.666666666666664</ele><time>2026-04-30T14:42:00.002Z</time></trkpt><trkpt lat="43.369421643231846" lon="-3.207495145557068"><ele>36.0</ele><time>2026-04-30T14:42:01.002Z</time></trkpt><trkpt lat="43.369437411132246" lon="-3.207608195636175"><ele>37.333333333333336</ele><time>2026-04-30T14:42:02.002Z</time></trkpt><trkpt lat="43.3694519834107" lon="-3.2077212086197866"><ele>38.66666666666667</ele><time>2026-04-30T14:42:03.002Z</time></trkpt><trkpt lat="43.369471503831555" lon="-3.2078289272875384"><ele>40.0</ele><time>2026-04-30T14:42:04.002Z</time></trkpt><trkpt lat="43.3694845419599" lon="-3.2079423721777576"><ele>40.0</ele><time>2026-04-30T14:42:05.002Z</time></trkpt><trkpt lat="43.36949340384207" lon="-3.2080542477077567"><ele>40.0</ele><time>2026-04-30T14:42:06.002Z</time></trkpt><trkpt lat="43.3695052541928" lon="-3.208168513229734"><ele>40.0</ele><time>2026-04-30T14:42:07.002Z</time></trkpt><trkpt lat="43.369518333481786" lon="-3.2082886672504753"><ele>40.0</ele><time>2026-04-30T14:42:08.002Z</time></trkpt><trkpt lat="43.369530273414284" lon="-3.208407172888574"><ele>40.0</ele><time>2026-04-30T14:42:09.002Z</time></trkpt><trkpt lat="43.36954727544395" lon="-3.208523688970032"><ele>40.0</ele><time>2026-04-30T14:42:10.002Z</time></trkpt><trkpt lat="43.369562470337634" lon="-3.2086382685952777"><ele>40.16666666666667</ele><time>2026-04-30T14:42:11.002Z</time></trkpt><trkpt lat="43.36957460571083" lon="-3.2087532817780167"><ele>40.333333333333336</ele><time>2026-04-30T14:42:12.002Z</time></trkpt><trkpt lat="43.36958727488195" lon="-3.2088648838482143"><ele>40.5</ele><time>2026-04-30T14:42:13.002Z</time></trkpt><trkpt lat="43.36959753814947" lon="-3.208978617358726"><ele>40.666666666666664</ele><time>2026-04-30T14:42:14.002Z</time></trkpt><trkpt lat="43.369605933237416" lon="-3.2090960441496166"><ele>40.83333333333333</ele><time>2026-04-30T14:42:15.002Z</time></trkpt><trkpt lat="43.36961062066956" lon="-3.209212979032012"><ele>41.0</ele><time>2026-04-30T14:42:16.002Z</time></trkpt><trkpt lat="43.36960763139029" lon="-3.209333234811736"><ele>38.599999999999994</ele><time>2026-04-30T14:42:17.002Z</time></trkpt><trkpt lat="43.369592158408636" lon="-3.209458033246437"><ele>36.199999999999996</ele><time>2026-04-30T14:42:18.002Z</time></trkpt><trkpt lat="43.36957065172974" lon="-3.2095780322195697"><ele>33.8</ele><time>2026-04-30T14:42:19.002Z</time></trkpt><trkpt lat="43.369546677881544" lon="-3.2096970748153146"><ele>31.4</ele><time>2026-04-30T14:42:20.002Z</time></trkpt><trkpt lat="43.369523255864536" lon="-3.2098163308801584"><ele>29.0</ele><time>2026-04-30T14:42:21.002Z</time></trkpt><trkpt lat="43.36949786432928" lon="-3.2099408789635184"><ele>27.499999999999996</ele><time>2026-04-30T14:42:22.002Z</time></trkpt><trkpt lat="43.36947226234482" lon="-3.21006271420342"><ele>26.0</ele><time>2026-04-30T14:42:23.002Z</time></trkpt><trkpt lat="43.3694503894215" lon="-3.210183107095071"><ele>24.5</ele><time>2026-04-30T14:42:24.002Z</time></trkpt><trkpt lat="43.36943171414446" lon="-3.210303364490322"><ele>23.0</ele><time>2026-04-30T14:42:25.002Z</time></trkpt><trkpt lat="43.36940952567723" lon="-3.2104158933029496"><ele>21.5</ele><time>2026-04-30T14:42:26.002Z</time></trkpt><trkpt lat="43.36938482007146" lon="-3.2105224189024115"><ele>20.0</ele><time>2026-04-30T14:42:27.002Z</time></trkpt><trkpt lat="43.369362769989" lon="-3.210626457695947"><ele>18.833333333333336</ele><time>2026-04-30T14:42:28.002Z</time></trkpt><trkpt lat="43.369341151884846" lon="-3.210724672912778"><ele>17.666666666666668</ele><time>2026-04-30T14:42:29Z</time></trkpt><trkpt lat="43.36932929809053" lon="-3.210824756003933"><ele>16.5</ele><time>2026-04-30T14:42:30Z</time></trkpt><trkpt lat="43.36931197017494" lon="-3.2109244582924705"><ele>15.333333333333332</ele><time>2026-04-30T14:42:31Z</time></trkpt><trkpt lat="43.36929628231669" lon="-3.211025038231291"><ele>14.166666666666666</ele><time>2026-04-30T14:42:32Z</time></trkpt><trkpt lat="43.36927306924697" lon="-3.2111274375722982"><ele>13.0</ele><time>2026-04-30T14:42:33Z</time></trkpt><trkpt lat="43.369251113780784" lon="-3.211226648749774"><ele>12.999999999999998</ele><time>2026-04-30T14:42:34Z</time></trkpt><trkpt lat="43.369229057421194" lon="-3.211324041564146"><ele>13.0</ele><time>2026-04-30T14:42:35Z</time></trkpt><trkpt lat="43.369219474158974" lon="-3.211411084716884"><ele>13.0</ele><time>2026-04-30T14:42:36Z</time></trkpt><trkpt lat="43.369241170482375" lon="-3.2115279023126453"><ele>13.0</ele><time>2026-04-30T14:42:38Z</time></trkpt><trkpt lat="43.3692811799374" lon="-3.211628864454958"><ele>12.999999999999998</ele><time>2026-04-30T14:42:40Z</time></trkpt><trkpt lat="43.369289966573604" lon="-3.2117972204697214"><ele>13.0</ele><time>2026-04-30T14:42:42Z</time></trkpt><trkpt lat="43.36919165636272" lon="-3.2119039599992205"><ele>11.833333333333332</ele><time>2026-04-30T14:42:44Z</time></trkpt><trkpt lat="43.36912982240882" lon="-3.211948176084818"><ele>10.666666666666666</ele><time>2026-04-30T14:42:45Z</time></trkpt><trkpt lat="43.36906808348207" lon="-3.2121281566402082"><ele>9.5</ele><time>2026-04-30T14:42:47Z</time></trkpt><trkpt lat="43.36905201806569" lon="-3.2122313866792895"><ele>8.333333333333332</ele><time>2026-04-30T14:42:48Z</time></trkpt><trkpt lat="43.36903835677751" lon="-3.212336805028606"><ele>7.166666666666666</ele><time>2026-04-30T14:42:49Z</time></trkpt><trkpt lat="43.3690270458587" lon="-3.2124461976507357"><ele>6.0</ele><time>2026-04-30T14:42:50Z</time></trkpt><trkpt lat="43.369019777806095" lon="-3.2125608838556974"><ele>5.833333333333333</ele><time>2026-04-30T14:42:51Z</time></trkpt><trkpt lat="43.369018663317284" lon="-3.212674363830729"><ele>5.666666666666667</ele><time>2026-04-30T14:42:52Z</time></trkpt><trkpt lat="43.369025658943904" lon="-3.2127876564113156"><ele>5.5</ele><time>2026-04-30T14:42:53Z</time></trkpt><trkpt lat="43.369035680229025" lon="-3.2128948308171763"><ele>5.333333333333334</ele><time>2026-04-30T14:42:54Z</time></trkpt><trkpt lat="43.36904547908697" lon="-3.2130076835348085"><ele>5.166666666666667</ele><time>2026-04-30T14:42:55Z</time></trkpt><trkpt lat="43.36906510795686" lon="-3.2131311679780516"><ele>5.0</ele><time>2026-04-30T14:42:56Z</time></trkpt><trkpt lat="43.36909229794206" lon="-3.213246804670574"><ele>5.0</ele><time>2026-04-30T14:42:57Z</time></trkpt><trkpt lat="43.369106305089495" lon="-3.2133580181692007"><ele>5.0</ele><time>2026-04-30T14:42:58Z</time></trkpt><trkpt lat="43.369122568066125" lon="-3.2134682636528344"><ele>5.0</ele><time>2026-04-30T14:42:59Z</time></trkpt><trkpt lat="43.369145380524735" lon="-3.213581799628589"><ele>5.0</ele><time>2026-04-30T14:43:00Z</time></trkpt><trkpt lat="43.36916942644725" lon="-3.213690397308433"><ele>5.0</ele><time>2026-04-30T14:43:01Z</time></trkpt><trkpt lat="43.3691902923375" lon="-3.2137962868950125"><ele>5.0</ele><time>2026-04-30T14:43:02Z</time></trkpt><trkpt lat="43.36920671801775" lon="-3.2139030359991407"><ele>5.0</ele><time>2026-04-30T14:43:03Z</time></trkpt><trkpt lat="43.36922204636244" lon="-3.214008256545506"><ele>5.0</ele><time>2026-04-30T14:43:04Z</time></trkpt><trkpt lat="43.3692305939588" lon="-3.2141137021810455"><ele>5.0</ele><time>2026-04-30T14:43:05Z</time></trkpt><trkpt lat="43.36922926913535" lon="-3.2142176488390493"><ele>5.0</ele><time>2026-04-30T14:43:06.001Z</time></trkpt><trkpt lat="43.36922199405456" lon="-3.2143208149102236"><ele>5.0</ele><time>2026-04-30T14:43:07.001Z</time></trkpt><trkpt lat="43.3692120359925" lon="-3.2144184838824685"><ele>5.0</ele><time>2026-04-30T14:43:08.001Z</time></trkpt><trkpt lat="43.369201013109375" lon="-3.214570174820489"><ele>5.0</ele><time>2026-04-30T14:43:10.001Z</time></trkpt><trkpt lat="43.369212443451936" lon="-3.2146893462118316"><ele>5.0</ele><time>2026-04-30T14:43:12.001Z</time></trkpt><trkpt lat="43.36927719811232" lon="-3.2148092687197156"><ele>5.0</ele><time>2026-04-30T14:43:14.001Z</time></trkpt><trkpt lat="43.36933573891471" lon="-3.2148833703286037"><ele>5.0</ele><time>2026-04-30T14:43:16.001Z</time></trkpt><trkpt lat="43.3693401102555" lon="-3.214971901453285"><ele>5.0</ele><time>2026-04-30T14:43:22.001Z</time></trkpt><trkpt lat="43.36941858372446" lon="-3.2149800352617786"><ele>5.0</ele><time>2026-04-30T14:43:23.001Z</time></trkpt><trkpt lat="43.369513623835175" lon="-3.214981320219107"><ele>5.0</ele><time>2026-04-30T14:43:25.001Z</time></trkpt><trkpt lat="43.36963865544342" lon="-3.21493416424289"><ele>5.0</ele><time>2026-04-30T14:43:27.001Z</time></trkpt><trkpt lat="43.36970462654133" lon="-3.2149186183822973"><ele>5.0</ele><time>2026-04-30T14:43:28.001Z</time></trkpt><trkpt lat="43.36977006120129" lon="-3.214904392155149"><ele>5.0</ele><time>2026-04-30T14:43:29.001Z</time></trkpt><trkpt lat="43.36984363147484" lon="-3.2148894825694727"><ele>5.0</ele><time>2026-04-30T14:43:30.001Z</time></trkpt><trkpt lat="43.36991289854286" lon="-3.2148761053444876"><ele>5.0</ele><time>2026-04-30T14:43:31.001Z</time></trkpt><trkpt lat="43.36998274891056" lon="-3.21486155626606"><ele>5.5</ele><time>2026-04-30T14:43:32.001Z</time></trkpt><trkpt lat="43.370057805086034" lon="-3.214845086340979"><ele>6.0</ele><time>2026-04-30T14:43:33.001Z</time></trkpt><trkpt lat="43.370134527434345" lon="-3.2148322274246985"><ele>6.5</ele><time>2026-04-30T14:43:34.001Z</time></trkpt><trkpt lat="43.37020978625876" lon="-3.2148123060050375"><ele>7.0</ele><time>2026-04-30T14:43:35.001Z</time></trkpt><trkpt lat="43.370286056696614" lon="-3.214790874315767"><ele>7.499999999999999</ele><time>2026-04-30T14:43:36.001Z</time></trkpt><trkpt lat="43.37036111405453" lon="-3.214766947873113"><ele>8.0</ele><time>2026-04-30T14:43:37.001Z</time></trkpt><trkpt lat="43.370428713771226" lon="-3.214745985616118"><ele>8.0</ele><time>2026-04-30T14:43:38.001Z</time></trkpt><trkpt lat="43.370491952513525" lon="-3.214722773736248"><ele>7.999999999999999</ele><time>2026-04-30T14:43:39.001Z</time></trkpt><trkpt lat="43.37056191977373" lon="-3.2147056657877364"><ele>8.0</ele><time>2026-04-30T14:43:40.001Z</time></trkpt><trkpt lat="43.37063156160253" lon="-3.2146943865999225"><ele>8.0</ele><time>2026-04-30T14:43:41.001Z</time></trkpt><trkpt lat="43.370693815451354" lon="-3.214663898383367"><ele>7.999999999999999</ele><time>2026-04-30T14:43:42.001Z</time></trkpt><trkpt lat="43.370768751451244" lon="-3.2146469543641993"><ele>8.0</ele><time>2026-04-30T14:43:43.001Z</time></trkpt><trkpt lat="43.370849644904105" lon="-3.21462654902803"><ele>8.0</ele><time>2026-04-30T14:43:44.001Z</time></trkpt><trkpt lat="43.37092342443113" lon="-3.21458931128233"><ele>8.833333333333332</ele><time>2026-04-30T14:43:45.001Z</time></trkpt><trkpt lat="43.371000183691365" lon="-3.214578460875585"><ele>9.666666666666666</ele><time>2026-04-30T14:43:46.001Z</time></trkpt><trkpt lat="43.3710725604081" lon="-3.2145513671872106"><ele>10.5</ele><time>2026-04-30T14:43:47.001Z</time></trkpt><trkpt lat="43.371147393758335" lon="-3.2145310211579887"><ele>11.333333333333332</ele><time>2026-04-30T14:43:48.001Z</time></trkpt><trkpt lat="43.371221015269114" lon="-3.2145146384726764"><ele>12.166666666666666</ele><time>2026-04-30T14:43:49.001Z</time></trkpt><trkpt lat="43.37129595123237" lon="-3.2144971297860487"><ele>13.0</ele><time>2026-04-30T14:43:50.002Z</time></trkpt><trkpt lat="43.37137036262093" lon="-3.2144838435644716"><ele>12.999999999999998</ele><time>2026-04-30T14:43:51.002Z</time></trkpt><trkpt lat="43.37144091939885" lon="-3.214467757330708"><ele>13.0</ele><time>2026-04-30T14:43:52.002Z</time></trkpt><trkpt lat="43.37151151670043" lon="-3.214446405388704"><ele>13.0</ele><time>2026-04-30T14:43:53.002Z</time></trkpt><trkpt lat="43.37158768202295" lon="-3.2144286984735295"><ele>13.0</ele><time>2026-04-30T14:43:54.002Z</time></trkpt><trkpt lat="43.371663667413564" lon="-3.214408085989977"><ele>12.999999999999998</ele><time>2026-04-30T14:43:55.002Z</time></trkpt><trkpt lat="43.37174240391729" lon="-3.21439024944676"><ele>13.0</ele><time>2026-04-30T14:43:56.002Z</time></trkpt><trkpt lat="43.37182267038369" lon="-3.214368534242641"><ele>12.999999999999998</ele><time>2026-04-30T14:43:57.002Z</time></trkpt><trkpt lat="43.37190116216358" lon="-3.2143419657621255"><ele>13.0</ele><time>2026-04-30T14:43:58.002Z</time></trkpt><trkpt lat="43.37197370477502" lon="-3.214309579822208"><ele>13.0</ele><time>2026-04-30T14:43:59.002Z</time></trkpt><trkpt lat="43.37206122930149" lon="-3.214301484317054"><ele>13.0</ele><time>2026-04-30T14:44:00.002Z</time></trkpt><trkpt lat="43.37215008985064" lon="-3.2142875255199725"><ele>12.999999999999998</ele><time>2026-04-30T14:44:01.002Z</time></trkpt><trkpt lat="43.372232689011284" lon="-3.2142725729248856"><ele>13.0</ele><time>2026-04-30T14:44:02.002Z</time></trkpt><trkpt lat="43.37231638145654" lon="-3.214265974698255"><ele>13.499999999999998</ele><time>2026-04-30T14:44:03.002Z</time></trkpt><trkpt lat="43.37240588155187" lon="-3.214268790242774"><ele>14.0</ele><time>2026-04-30T14:44:04.002Z</time></trkpt><trkpt lat="43.3724940949634" lon="-3.21429071640753"><ele>14.5</ele><time>2026-04-30T14:44:05.002Z</time></trkpt><trkpt lat="43.372556069607796" lon="-3.2142632134085196"><ele>15.0</ele><time>2026-04-30T14:44:06.002Z</time></trkpt><trkpt lat="43.37263416943764" lon="-3.214276531263005"><ele>15.499999999999998</ele><time>2026-04-30T14:44:07.002Z</time></trkpt><trkpt lat="43.37271634114403" lon="-3.214308406950726"><ele>16.0</ele><time>2026-04-30T14:44:08.002Z</time></trkpt><trkpt lat="43.37279828650491" lon="-3.214328634532007"><ele>16.0</ele><time>2026-04-30T14:44:09.002Z</time></trkpt><trkpt lat="43.37288905574927" lon="-3.214349603386348"><ele>16.0</ele><time>2026-04-30T14:44:10.002Z</time></trkpt><trkpt lat="43.37297165053746" lon="-3.214382327000496"><ele>16.0</ele><time>2026-04-30T14:44:11.002Z</time></trkpt><trkpt lat="43.37307905991225" lon="-3.2142529347788793"><ele>16.0</ele><time>2026-04-30T14:44:12.002Z</time></trkpt><trkpt lat="43.373099478147104" lon="-3.2144765076253186"><ele>15.999999999999998</ele><time>2026-04-30T14:44:13.002Z</time></trkpt><trkpt lat="43.37318435891484" lon="-3.2145038033424127"><ele>16.0</ele><time>2026-04-30T14:44:14.002Z</time></trkpt><trkpt lat="43.3732555187272" lon="-3.2145473291041107"><ele>16.0</ele><time>2026-04-30T14:44:15.002Z</time></trkpt><trkpt lat="43.37333839603443" lon="-3.2145754801282806"><ele>16.0</ele><time>2026-04-30T14:44:16.002Z</time></trkpt><trkpt lat="43.37341404118322" lon="-3.214582830874226"><ele>15.999999999999998</ele><time>2026-04-30T14:44:17.002Z</time></trkpt><trkpt lat="43.37349123607403" lon="-3.2146129485370407"><ele>16.0</ele><time>2026-04-30T14:44:18.002Z</time></trkpt><trkpt lat="43.37358759471973" lon="-3.2146510298020843"><ele>16.0</ele><time>2026-04-30T14:44:19.002Z</time></trkpt><trkpt lat="43.37367251623997" lon="-3.2146846859735607"><ele>16.0</ele><time>2026-04-30T14:44:20.002Z</time></trkpt><trkpt lat="43.37375021680294" lon="-3.2147154803698363"><ele>16.0</ele><time>2026-04-30T14:44:21.002Z</time></trkpt><trkpt lat="43.37383649858082" lon="-3.2147496756490788"><ele>16.0</ele><time>2026-04-30T14:44:22.002Z</time></trkpt><trkpt lat="43.373915303801404" lon="-3.214781069063649"><ele>16.0</ele><time>2026-04-30T14:44:23.002Z</time></trkpt><trkpt lat="43.374038272699096" lon="-3.2148302194183103"><ele>16.857142857142858</ele><time>2026-04-30T14:44:25.002Z</time></trkpt><trkpt lat="43.37409997002927" lon="-3.214854879680144"><ele>17.71428571428571</ele><time>2026-04-30T14:44:26.002Z</time></trkpt><trkpt lat="43.374161554344894" lon="-3.214879494777989"><ele>18.57142857142857</ele><time>2026-04-30T14:44:27.002Z</time></trkpt><trkpt lat="43.37423339576848" lon="-3.214908209590614"><ele>19.428571428571427</ele><time>2026-04-30T14:44:28.002Z</time></trkpt><trkpt lat="43.37430992489359" lon="-3.21493879809744"><ele>20.285714285714285</ele><time>2026-04-30T14:44:29.002Z</time></trkpt><trkpt lat="43.374388735570264" lon="-3.2149702985466075"><ele>21.142857142857142</ele><time>2026-04-30T14:44:30.002Z</time></trkpt><trkpt lat="43.37446537736119" lon="-3.215000932055172"><ele>22.0</ele><time>2026-04-30T14:44:31.002Z</time></trkpt><trkpt lat="43.37454559554741" lon="-3.2150442209309675"><ele>22.0</ele><time>2026-04-30T14:44:32.002Z</time></trkpt><trkpt lat="43.374626726238105" lon="-3.215075283746372"><ele>22.0</ele><time>2026-04-30T14:44:33.002Z</time></trkpt><trkpt lat="43.37470289696057" lon="-3.2151066590831276"><ele>22.0</ele><time>2026-04-30T14:44:34.002Z</time></trkpt><trkpt lat="43.37478397066944" lon="-3.215134604166534"><ele>22.0</ele><time>2026-04-30T14:44:35Z</time></trkpt><trkpt lat="43.37490916558715" lon="-3.21519482145561"><ele>22.0</ele><time>2026-04-30T14:44:37Z</time></trkpt><trkpt lat="43.37498498236957" lon="-3.215228873117521"><ele>21.0</ele><time>2026-04-30T14:44:38Z</time></trkpt><trkpt lat="43.3750628298042" lon="-3.215256900968112"><ele>20.0</ele><time>2026-04-30T14:44:39Z</time></trkpt><trkpt lat="43.37514416128476" lon="-3.2152872013365794"><ele>19.0</ele><time>2026-04-30T14:44:40Z</time></trkpt><trkpt lat="43.37522183580059" lon="-3.2153191292960397"><ele>18.0</ele><time>2026-04-30T14:44:41Z</time></trkpt><trkpt lat="43.375301745699154" lon="-3.2153403693453817"><ele>17.0</ele><time>2026-04-30T14:44:42Z</time></trkpt><trkpt lat="43.37538145614295" lon="-3.215380384042823"><ele>16.0</ele><time>2026-04-30T14:44:43Z</time></trkpt><trkpt lat="43.37546382514076" lon="-3.21540700697979"><ele>15.333333333333332</ele><time>2026-04-30T14:44:44Z</time></trkpt><trkpt lat="43.37554241475333" lon="-3.215446040497009"><ele>14.666666666666666</ele><time>2026-04-30T14:44:45Z</time></trkpt><trkpt lat="43.3756293720405" lon="-3.2154701895801923"><ele>14.0</ele><time>2026-04-30T14:44:46Z</time></trkpt><trkpt lat="43.37570461834185" lon="-3.215505510864817"><ele>13.333333333333332</ele><time>2026-04-30T14:44:47Z</time></trkpt><trkpt lat="43.37579138003078" lon="-3.2155379863509572"><ele>12.666666666666666</ele><time>2026-04-30T14:44:48Z</time></trkpt><trkpt lat="43.375874904811624" lon="-3.2155684226502768"><ele>12.0</ele><time>2026-04-30T14:44:49Z</time></trkpt><trkpt lat="43.37595991978453" lon="-3.2155950835945792"><ele>12.0</ele><time>2026-04-30T14:44:50Z</time></trkpt><trkpt lat="43.37604495633957" lon="-3.215626852501074"><ele>12.0</ele><time>2026-04-30T14:44:51Z</time></trkpt><trkpt lat="43.376122583829265" lon="-3.2156636621132724"><ele>12.0</ele><time>2026-04-30T14:44:52Z</time></trkpt><trkpt lat="43.376201895799625" lon="-3.2156861160930146"><ele>12.0</ele><time>2026-04-30T14:44:53Z</time></trkpt><trkpt lat="43.37627312218015" lon="-3.21571589754384"><ele>12.0</ele><time>2026-04-30T14:44:54Z</time></trkpt><trkpt lat="43.37634613132258" lon="-3.215744153929067"><ele>12.0</ele><time>2026-04-30T14:44:55Z</time></trkpt><trkpt lat="43.37642343777424" lon="-3.2157678861801777"><ele>12.166666666666666</ele><time>2026-04-30T14:44:56Z</time></trkpt><trkpt lat="43.3764951376461" lon="-3.2157940961341756"><ele>12.333333333333332</ele><time>2026-04-30T14:44:57Z</time></trkpt><trkpt lat="43.376569054688865" lon="-3.2158301338529887"><ele>12.5</ele><time>2026-04-30T14:44:58Z</time></trkpt><trkpt lat="43.37664343848622" lon="-3.215860339774027"><ele>12.666666666666666</ele><time>2026-04-30T14:44:59Z</time></trkpt><trkpt lat="43.37672128053178" lon="-3.215890182819023"><ele>12.833333333333332</ele><time>2026-04-30T14:45:00Z</time></trkpt><trkpt lat="43.376806567457386" lon="-3.215922185315344"><ele>13.0</ele><time>2026-04-30T14:45:01Z</time></trkpt><trkpt lat="43.376885259823624" lon="-3.2159570481076756"><ele>12.999999999999998</ele><time>2026-04-30T14:45:02Z</time></trkpt><trkpt lat="43.37696806881721" lon="-3.215987862906984"><ele>13.0</ele><time>2026-04-30T14:45:03Z</time></trkpt><trkpt lat="43.37705431258486" lon="-3.216023956496348"><ele>13.0</ele><time>2026-04-30T14:45:04Z</time></trkpt><trkpt lat="43.377139873434466" lon="-3.216055652378464"><ele>13.0</ele><time>2026-04-30T14:45:05Z</time></trkpt><trkpt lat="43.37722302103793" lon="-3.216088728801742"><ele>12.999999999999998</ele><time>2026-04-30T14:45:06Z</time></trkpt><trkpt lat="43.37730489111759" lon="-3.2161211451851672"><ele>13.0</ele><time>2026-04-30T14:45:07Z</time></trkpt><trkpt lat="43.37739001944959" lon="-3.216155118995566"><ele>12.499999999999998</ele><time>2026-04-30T14:45:08Z</time></trkpt><trkpt lat="43.377475803730995" lon="-3.2161856379846423"><ele>12.0</ele><time>2026-04-30T14:45:09Z</time></trkpt><trkpt lat="43.37755863399975" lon="-3.2162214961447018"><ele>11.5</ele><time>2026-04-30T14:45:10Z</time></trkpt><trkpt lat="43.377641788775364" lon="-3.2162549062171655"><ele>11.0</ele><time>2026-04-30T14:45:11Z</time></trkpt><trkpt lat="43.377724611822316" lon="-3.216291669484029"><ele>10.5</ele><time>2026-04-30T14:45:12.001Z</time></trkpt><trkpt lat="43.377803980828986" lon="-3.2163236584136183"><ele>10.0</ele><time>2026-04-30T14:45:13.001Z</time></trkpt><trkpt lat="43.37788311272932" lon="-3.216359329786792"><ele>10.0</ele><time>2026-04-30T14:45:14.001Z</time></trkpt><trkpt lat="43.37796239312536" lon="-3.2163872146681203"><ele>10.0</ele><time>2026-04-30T14:45:15.001Z</time></trkpt><trkpt lat="43.37803772209794" lon="-3.2164150977634924"><ele>10.0</ele><time>2026-04-30T14:45:16.001Z</time></trkpt><trkpt lat="43.378114396955375" lon="-3.2164420038503576"><ele>10.0</ele><time>2026-04-30T14:45:17.001Z</time></trkpt><trkpt lat="43.37819174593223" lon="-3.2164781090361667"><ele>10.0</ele><time>2026-04-30T14:45:18.001Z</time></trkpt><trkpt lat="43.378271415958174" lon="-3.216508571436805"><ele>10.0</ele><time>2026-04-30T14:45:19.001Z</time></trkpt><trkpt lat="43.37835180996682" lon="-3.216529219129905"><ele>10.166666666666668</ele><time>2026-04-30T14:45:20.001Z</time></trkpt><trkpt lat="43.37843073508258" lon="-3.216561785203409"><ele>10.333333333333334</ele><time>2026-04-30T14:45:21.001Z</time></trkpt><trkpt lat="43.37851142731363" lon="-3.216595843800182"><ele>10.5</ele><time>2026-04-30T14:45:22.001Z</time></trkpt><trkpt lat="43.37858232909328" lon="-3.216619543146624"><ele>10.666666666666666</ele><time>2026-04-30T14:45:23.001Z</time></trkpt><trkpt lat="43.37864699696449" lon="-3.2166695745800693"><ele>10.833333333333332</ele><time>2026-04-30T14:45:24.001Z</time></trkpt><trkpt lat="43.37871732390106" lon="-3.2166784725033364"><ele>11.0</ele><time>2026-04-30T14:45:26.001Z</time></trkpt><trkpt lat="43.37888123687595" lon="-3.216745988148821"><ele>11.0</ele><time>2026-04-30T14:45:27.001Z</time></trkpt><trkpt lat="43.378966546817445" lon="-3.2167939492246544"><ele>11.0</ele><time>2026-04-30T14:45:28.001Z</time></trkpt><trkpt lat="43.37904920948511" lon="-3.216827284819892"><ele>11.0</ele><time>2026-04-30T14:45:29.001Z</time></trkpt><trkpt lat="43.37912904191363" lon="-3.2168714662792453"><ele>11.0</ele><time>2026-04-30T14:45:30.001Z</time></trkpt><trkpt lat="43.379208430871415" lon="-3.2168887742082375"><ele>11.0</ele><time>2026-04-30T14:45:31.001Z</time></trkpt><trkpt lat="43.379286528516054" lon="-3.216919567962639"><ele>11.0</ele><time>2026-04-30T14:45:32.001Z</time></trkpt><trkpt lat="43.37935596206745" lon="-3.216959706598968"><ele>11.0</ele><time>2026-04-30T14:45:33.001Z</time></trkpt><trkpt lat="43.379433700229214" lon="-3.216983042570103"><ele>11.0</ele><time>2026-04-30T14:45:34.001Z</time></trkpt><trkpt lat="43.37951028548944" lon="-3.2170107592668438"><ele>11.0</ele><time>2026-04-30T14:45:35.001Z</time></trkpt><trkpt lat="43.379580996713855" lon="-3.2170402111964527"><ele>11.0</ele><time>2026-04-30T14:45:36.001Z</time></trkpt><trkpt lat="43.37964276261827" lon="-3.217073289365009"><ele>11.0</ele><time>2026-04-30T14:45:37.001Z</time></trkpt><trkpt lat="43.37970333925149" lon="-3.21709747227917"><ele>11.0</ele><time>2026-04-30T14:45:38.001Z</time></trkpt><trkpt lat="43.37981678297896" lon="-3.2171525619829624"><ele>11.142857142857142</ele><time>2026-04-30T14:45:40.001Z</time></trkpt><trkpt lat="43.379878871280255" lon="-3.2171752769849746"><ele>11.285714285714285</ele><time>2026-04-30T14:45:41.001Z</time></trkpt><trkpt lat="43.379945897270034" lon="-3.2172002357094596"><ele>11.428571428571427</ele><time>2026-04-30T14:45:42.001Z</time></trkpt><trkpt lat="43.38000896785137" lon="-3.21725671823587"><ele>11.571428571428571</ele><time>2026-04-30T14:45:43.001Z</time></trkpt><trkpt lat="43.380070849303806" lon="-3.2173116738727434"><ele>11.714285714285714</ele><time>2026-04-30T14:45:44.001Z</time></trkpt><trkpt lat="43.38013791506651" lon="-3.217351850718311"><ele>11.857142857142856</ele><time>2026-04-30T14:45:45.001Z</time></trkpt><trkpt lat="43.38018010838607" lon="-3.2174387359060446"><ele>12.0</ele><time>2026-04-30T14:45:46.001Z</time></trkpt><trkpt lat="43.38021383387861" lon="-3.2175138911634313"><ele>11.999999999999998</ele><time>2026-04-30T14:45:47.001Z</time></trkpt><trkpt lat="43.380256545627304" lon="-3.2175779657229486"><ele>12.0</ele><time>2026-04-30T14:45:48.001Z</time></trkpt><trkpt lat="43.38024182851477" lon="-3.2176834397543206"><ele>12.0</ele><time>2026-04-30T14:45:49.001Z</time></trkpt><trkpt lat="43.38023011300938" lon="-3.2177685469874064"><ele>12.0</ele><time>2026-04-30T14:45:50.001Z</time></trkpt><trkpt lat="43.38020192626641" lon="-3.217854043819806"><ele>12.0</ele><time>2026-04-30T14:45:51.001Z</time></trkpt><trkpt lat="43.38017270282319" lon="-3.217939886078018"><ele>11.999999999999998</ele><time>2026-04-30T14:45:52.001Z</time></trkpt><trkpt lat="43.380146342004366" lon="-3.2180231698428967"><ele>12.0</ele><time>2026-04-30T14:45:53.001Z</time></trkpt><trkpt lat="43.38011602702317" lon="-3.21810874980353"><ele>12.57142857142857</ele><time>2026-04-30T14:45:54.001Z</time></trkpt><trkpt lat="43.38008047927977" lon="-3.2181936232566533"><ele>13.142857142857142</ele><time>2026-04-30T14:45:55.001Z</time></trkpt><trkpt lat="43.380044678312906" lon="-3.218282933584491"><ele>13.714285714285714</ele><time>2026-04-30T14:45:56.001Z</time></trkpt><trkpt lat="43.38001284331501" lon="-3.218371587117278"><ele>14.285714285714285</ele><time>2026-04-30T14:45:57.001Z</time></trkpt><trkpt lat="43.379978566660874" lon="-3.2184628910901383"><ele>14.857142857142856</ele><time>2026-04-30T14:45:58.001Z</time></trkpt><trkpt lat="43.37994933296091" lon="-3.2185478652619253"><ele>15.428571428571427</ele><time>2026-04-30T14:45:59.002Z</time></trkpt><trkpt lat="43.37990886513858" lon="-3.2186240373664523"><ele>16.0</ele><time>2026-04-30T14:46:00.002Z</time></trkpt><trkpt lat="43.37989235191595" lon="-3.218715712786296"><ele>16.0</ele><time>2026-04-30T14:46:01.002Z</time></trkpt><trkpt lat="43.379887440982635" lon="-3.2188150827213455"><ele>15.999999999999998</ele><time>2026-04-30T14:46:02.002Z</time></trkpt><trkpt lat="43.37990678660995" lon="-3.218908484110685"><ele>16.0</ele><time>2026-04-30T14:46:03.002Z</time></trkpt><trkpt lat="43.37993893999735" lon="-3.218993859646264"><ele>16.0</ele><time>2026-04-30T14:46:04.002Z</time></trkpt><trkpt lat="43.379979034844624" lon="-3.219062931523606"><ele>15.999999999999998</ele><time>2026-04-30T14:46:05.002Z</time></trkpt><trkpt lat="43.38004404722853" lon="-3.2191301230876657"><ele>16.0</ele><time>2026-04-30T14:46:07.002Z</time></trkpt><trkpt lat="43.38010309282848" lon="-3.2192000054066834"><ele>16.0</ele><time>2026-04-30T14:46:10.002Z</time></trkpt><trkpt lat="43.38018103690261" lon="-3.2192467143062617"><ele>16.333333333333332</ele><time>2026-04-30T14:46:12.002Z</time></trkpt><trkpt lat="43.38025511980368" lon="-3.21931421635833"><ele>16.666666666666664</ele><time>2026-04-30T14:46:14.002Z</time></trkpt><trkpt lat="43.38032797685965" lon="-3.219365384200547"><ele>17.0</ele><time>2026-04-30T14:46:16.002Z</time></trkpt><trkpt lat="43.380405993504226" lon="-3.219415603330361"><ele>17.333333333333332</ele><time>2026-04-30T14:46:18.002Z</time></trkpt><trkpt lat="43.38049032254771" lon="-3.2194530653003994"><ele>17.666666666666668</ele><time>2026-04-30T14:46:20.002Z</time></trkpt><trkpt lat="43.38057654681753" lon="-3.219510250329145"><ele>18.0</ele><time>2026-04-30T14:46:22.002Z</time></trkpt><trkpt lat="43.38064879740868" lon="-3.2195620176853224"><ele>18.0</ele><time>2026-04-30T14:46:24.002Z</time></trkpt><trkpt lat="43.380715932676665" lon="-3.2196101200047247"><ele>18.0</ele><time>2026-04-30T14:46:26.002Z</time></trkpt><trkpt lat="43.38078398421684" lon="-3.2196588787861065"><ele>18.0</ele><time>2026-04-30T14:46:29.002Z</time></trkpt><trkpt lat="43.380846940572724" lon="-3.2197039869408726"><ele>18.0</ele><time>2026-04-30T14:46:37.002Z</time></trkpt><trkpt lat="43.380928560343506" lon="-3.219762467301898"><ele>18.0</ele><time>2026-04-30T14:46:39.002Z</time></trkpt><trkpt lat="43.381024130460766" lon="-3.2198309416962854"><ele>18.0</ele><time>2026-04-30T14:46:41Z</time></trkpt><trkpt lat="43.38110319439618" lon="-3.2198884515218813"><ele>18.166666666666668</ele><time>2026-04-30T14:46:43Z</time></trkpt><trkpt lat="43.38118977046993" lon="-3.2199504551846085"><ele>18.333333333333332</ele><time>2026-04-30T14:46:45Z</time></trkpt><trkpt lat="43.38128107183748" lon="-3.2200158415549316"><ele>18.5</ele><time>2026-04-30T14:46:47Z</time></trkpt><trkpt lat="43.381354502866465" lon="-3.220068431252401"><ele>18.666666666666664</ele><time>2026-04-30T14:46:49Z</time></trkpt><trkpt lat="43.381429494739194" lon="-3.220117136602912"><ele>18.833333333333332</ele><time>2026-04-30T14:46:54Z</time></trkpt><trkpt lat="43.38149836998685" lon="-3.2201621953048876"><ele>19.0</ele><time>2026-04-30T14:46:56Z</time></trkpt><trkpt lat="43.38159316035609" lon="-3.2202242078560057"><ele>18.666666666666664</ele><time>2026-04-30T14:46:58Z</time></trkpt><trkpt lat="43.38170450913289" lon="-3.2202970530142747"><ele>18.333333333333332</ele><time>2026-04-30T14:47:00Z</time></trkpt><trkpt lat="43.38176227878668" lon="-3.220334846333121"><ele>18.0</ele><time>2026-04-30T14:47:01Z</time></trkpt><trkpt lat="43.38182513366089" lon="-3.220375966423964"><ele>17.666666666666668</ele><time>2026-04-30T14:47:02Z</time></trkpt><trkpt lat="43.38188661950222" lon="-3.2204161909124958"><ele>17.333333333333336</ele><time>2026-04-30T14:47:03Z</time></trkpt><trkpt lat="43.381947923344704" lon="-3.2204562963332304"><ele>17.0</ele><time>2026-04-30T14:47:04Z</time></trkpt><trkpt lat="43.382006229919334" lon="-3.2204944410649095"><ele>17.0</ele><time>2026-04-30T14:47:05Z</time></trkpt><trkpt lat="43.38206529155877" lon="-3.2205330801310676"><ele>17.0</ele><time>2026-04-30T14:47:06Z</time></trkpt><trkpt lat="43.38216979260736" lon="-3.2206029900620736"><ele>17.0</ele><time>2026-04-30T14:47:08Z</time></trkpt><trkpt lat="43.382247382598926" lon="-3.220651842512959"><ele>17.0</ele><time>2026-04-30T14:47:10Z</time></trkpt><trkpt lat="43.38232232705914" lon="-3.220697588291924"><ele>17.0</ele><time>2026-04-30T14:47:14Z</time></trkpt><trkpt lat="43.38238930482247" lon="-3.2207384712302964"><ele>17.0</ele><time>2026-04-30T14:47:16.001Z</time></trkpt><trkpt lat="43.382465548696466" lon="-3.220785010586793"><ele>17.166666666666668</ele><time>2026-04-30T14:47:18.001Z</time></trkpt><trkpt lat="43.382531181274736" lon="-3.22082406829179"><ele>17.333333333333336</ele><time>2026-04-30T14:47:20.001Z</time></trkpt><trkpt lat="43.38259510431973" lon="-3.220858251328176"><ele>17.5</ele><time>2026-04-30T14:47:22.001Z</time></trkpt><trkpt lat="43.38267878129839" lon="-3.220888580878318"><ele>17.666666666666668</ele><time>2026-04-30T14:47:24.001Z</time></trkpt><trkpt lat="43.382773332111626" lon="-3.220914825458157"><ele>17.833333333333332</ele><time>2026-04-30T14:47:26.001Z</time></trkpt><trkpt lat="43.38286614738877" lon="-3.220928859483232"><ele>18.0</ele><time>2026-04-30T14:47:28.001Z</time></trkpt><trkpt lat="43.38296811077896" lon="-3.22093300885746"><ele>17.0</ele><time>2026-04-30T14:47:30.001Z</time></trkpt><trkpt lat="43.38306230907493" lon="-3.2209357785228274"><ele>16.0</ele><time>2026-04-30T14:47:32.001Z</time></trkpt><trkpt lat="43.38314290191289" lon="-3.2209380936235346"><ele>15.0</ele><time>2026-04-30T14:47:34.001Z</time></trkpt><trkpt lat="43.38324365416378" lon="-3.2209449813529862"><ele>14.0</ele><time>2026-04-30T14:47:36.001Z</time></trkpt><trkpt lat="43.38333317418452" lon="-3.2209516932971676"><ele>13.0</ele><time>2026-04-30T14:47:38.001Z</time></trkpt><trkpt lat="43.38341638179549" lon="-3.220945722102337"><ele>12.0</ele><time>2026-04-30T14:47:40.001Z</time></trkpt><trkpt lat="43.38350743873017" lon="-3.2209691195895482"><ele>12.0</ele><time>2026-04-30T14:47:42.001Z</time></trkpt><trkpt lat="43.38360144021739" lon="-3.2209590801792434"><ele>12.0</ele><time>2026-04-30T14:47:44.001Z</time></trkpt><trkpt lat="43.38367083452362" lon="-3.2209720652713254"><ele>12.0</ele><time>2026-04-30T14:47:46.001Z</time></trkpt><trkpt lat="43.38373705663355" lon="-3.2209975535909936"><ele>12.0</ele><time>2026-04-30T14:47:49.001Z</time></trkpt><trkpt lat="43.38376617357775" lon="-3.221120202715019"><ele>12.0</ele><time>2026-04-30T14:47:51.001Z</time></trkpt><trkpt lat="43.38379110901652" lon="-3.2212102362951525"><ele>12.0</ele><time>2026-04-30T14:47:53.001Z</time></trkpt><trkpt lat="43.38377751125935" lon="-3.221314825199335"><ele>12.0</ele><time>2026-04-30T14:47:56.001Z</time></trkpt><trkpt lat="43.38382001892482" lon="-3.221395599474544"><ele>12.0</ele><time>2026-04-30T14:48:00.001Z</time></trkpt><trkpt lat="43.38382939798833" lon="-3.2214899999587003"><ele>12.0</ele><time>2026-04-30T14:48:02.002Z</time></trkpt><trkpt lat="43.38384157495558" lon="-3.221620505605342"><ele>12.0</ele><time>2026-04-30T14:48:04.002Z</time></trkpt><trkpt lat="43.38384589865451" lon="-3.2217522710007582"><ele>12.0</ele><time>2026-04-30T14:48:06.002Z</time></trkpt><trkpt lat="43.3838571374925" lon="-3.2219127271590047"><ele>11.8</ele><time>2026-04-30T14:48:08.002Z</time></trkpt><trkpt lat="43.38387109338047" lon="-3.222064260455886"><ele>11.6</ele><time>2026-04-30T14:48:10.002Z</time></trkpt><trkpt lat="43.38387868387553" lon="-3.2221935117089"><ele>11.4</ele><time>2026-04-30T14:48:12.002Z</time></trkpt><trkpt lat="43.38389374452881" lon="-3.222294928868121"><ele>11.200000000000001</ele><time>2026-04-30T14:48:14.002Z</time></trkpt><trkpt lat="43.383899907476454" lon="-3.2224067830281538"><ele>11.0</ele><time>2026-04-30T14:48:16.002Z</time></trkpt><trkpt lat="43.38391492879051" lon="-3.2225499680336283"><ele>11.0</ele><time>2026-04-30T14:48:18.002Z</time></trkpt><trkpt lat="43.383931700946434" lon="-3.2227190341537812"><ele>11.0</ele><time>2026-04-30T14:48:20.002Z</time></trkpt><trkpt lat="43.383945715267025" lon="-3.222806182132904"><ele>11.0</ele><time>2026-04-30T14:48:21.002Z</time></trkpt><trkpt lat="43.38395190803798" lon="-3.2228996595838466"><ele>11.0</ele><time>2026-04-30T14:48:22.002Z</time></trkpt><trkpt lat="43.38396248547993" lon="-3.2229971812221656"><ele>11.0</ele><time>2026-04-30T14:48:23.002Z</time></trkpt><trkpt lat="43.383967428529644" lon="-3.22309673249073"><ele>11.0</ele><time>2026-04-30T14:48:24.002Z</time></trkpt><trkpt lat="43.38399038378241" lon="-3.2231862118276466"><ele>11.0</ele><time>2026-04-30T14:48:25.002Z</time></trkpt><trkpt lat="43.38398935171772" lon="-3.223298933353236"><ele>11.0</ele><time>2026-04-30T14:48:27.002Z</time></trkpt><trkpt lat="43.38399962896449" lon="-3.223409860672996"><ele>11.0</ele><time>2026-04-30T14:48:31.002Z</time></trkpt><trkpt lat="43.38400486708584" lon="-3.223505898412152"><ele>11.0</ele><time>2026-04-30T14:48:33.002Z</time></trkpt><trkpt lat="43.38401968799032" lon="-3.223632491519214"><ele>11.0</ele><time>2026-04-30T14:48:35.002Z</time></trkpt><trkpt lat="43.384034374300796" lon="-3.2237815350769004"><ele>11.0</ele><time>2026-04-30T14:48:37.002Z</time></trkpt><trkpt lat="43.38405280964806" lon="-3.2239483696208735"><ele>11.666666666666666</ele><time>2026-04-30T14:48:39.002Z</time></trkpt><trkpt lat="43.38406640380361" lon="-3.224038738654872"><ele>12.333333333333332</ele><time>2026-04-30T14:48:40.002Z</time></trkpt><trkpt lat="43.3840877436778" lon="-3.224122131550474"><ele>13.0</ele><time>2026-04-30T14:48:41.002Z</time></trkpt><trkpt lat="43.38413926568919" lon="-3.2242508825830707"><ele>13.666666666666666</ele><time>2026-04-30T14:48:43.002Z</time></trkpt><trkpt lat="43.38419825552797" lon="-3.2243478823923173"><ele>14.333333333333334</ele><time>2026-04-30T14:48:45.002Z</time></trkpt><trkpt lat="43.384274581887986" lon="-3.224437409053825"><ele>15.0</ele><time>2026-04-30T14:48:47Z</time></trkpt><trkpt lat="43.38436990249581" lon="-3.2245160187729347"><ele>15.0</ele><time>2026-04-30T14:48:49Z</time></trkpt><trkpt lat="43.38445790558105" lon="-3.2246214665692645"><ele>15.0</ele><time>2026-04-30T14:48:51Z</time></trkpt><trkpt lat="43.38455094759932" lon="-3.2247329521305024"><ele>15.0</ele><time>2026-04-30T14:48:53Z</time></trkpt><trkpt lat="43.384583495207345" lon="-3.224822516972862"><ele>15.0</ele><time>2026-04-30T14:48:54Z</time></trkpt><trkpt lat="43.38463404144924" lon="-3.224885614408476"><ele>15.0</ele><time>2026-04-30T14:48:55Z</time></trkpt><trkpt lat="43.38468645098602" lon="-3.224946346997851"><ele>14.666666666666666</ele><time>2026-04-30T14:48:56Z</time></trkpt><trkpt lat="43.38473676438993" lon="-3.225011013272376"><ele>14.333333333333332</ele><time>2026-04-30T14:48:57Z</time></trkpt><trkpt lat="43.38478953855871" lon="-3.2250726618239627"><ele>14.0</ele><time>2026-04-30T14:48:58Z</time></trkpt><trkpt lat="43.384838517146925" lon="-3.225130453813593"><ele>13.666666666666666</ele><time>2026-04-30T14:48:59Z</time></trkpt><trkpt lat="43.38488956050516" lon="-3.2251851948703014"><ele>13.333333333333332</ele><time>2026-04-30T14:49:00Z</time></trkpt><trkpt lat="43.3849388000666" lon="-3.2252402309050194"><ele>13.0</ele><time>2026-04-30T14:49:01Z</time></trkpt><trkpt lat="43.38502793947663" lon="-3.225349779225303"><ele>13.0</ele><time>2026-04-30T14:49:03Z</time></trkpt><trkpt lat="43.38509188557717" lon="-3.225381732033164"><ele>13.0</ele><time>2026-04-30T14:49:04Z</time></trkpt><trkpt lat="43.38514289575156" lon="-3.2254432509535094"><ele>13.0</ele><time>2026-04-30T14:49:05Z</time></trkpt><trkpt lat="43.3851823886948" lon="-3.225525765809153"><ele>13.0</ele><time>2026-04-30T14:49:06Z</time></trkpt><trkpt lat="43.385239096745345" lon="-3.2255864838671706"><ele>13.0</ele><time>2026-04-30T14:49:07Z</time></trkpt><trkpt lat="43.385298720084975" lon="-3.225650151810386"><ele>13.0</ele><time>2026-04-30T14:49:08Z</time></trkpt><trkpt lat="43.38535955021323" lon="-3.2257162160619792"><ele>13.0</ele><time>2026-04-30T14:49:09Z</time></trkpt><trkpt lat="43.38541927595434" lon="-3.2257804158496173"><ele>12.714285714285714</ele><time>2026-04-30T14:49:10Z</time></trkpt><trkpt lat="43.385480737735705" lon="-3.2258451465251747"><ele>12.428571428571429</ele><time>2026-04-30T14:49:11Z</time></trkpt><trkpt lat="43.38553488696314" lon="-3.225914290532996"><ele>12.142857142857142</ele><time>2026-04-30T14:49:12Z</time></trkpt><trkpt lat="43.385590108239626" lon="-3.225985262537736"><ele>11.857142857142858</ele><time>2026-04-30T14:49:13Z</time></trkpt><trkpt lat="43.38564547776588" lon="-3.226052193725684"><ele>11.571428571428571</ele><time>2026-04-30T14:49:14Z</time></trkpt><trkpt lat="43.38569665574633" lon="-3.2261205757276716"><ele>11.285714285714286</ele><time>2026-04-30T14:49:15Z</time></trkpt><trkpt lat="43.38574751113991" lon="-3.2261832179486563"><ele>11.0</ele><time>2026-04-30T14:49:16Z</time></trkpt><trkpt lat="43.38579837615474" lon="-3.226249519357431"><ele>11.0</ele><time>2026-04-30T14:49:17Z</time></trkpt><trkpt lat="43.38585103923688" lon="-3.226311930025866"><ele>11.0</ele><time>2026-04-30T14:49:18Z</time></trkpt><trkpt lat="43.385937656795456" lon="-3.226411939670571"><ele>11.0</ele><time>2026-04-30T14:49:20Z</time></trkpt><trkpt lat="43.38599982007096" lon="-3.226473974762869"><ele>11.0</ele><time>2026-04-30T14:49:23Z</time></trkpt><trkpt lat="43.38607137855368" lon="-3.2265632579779697"><ele>11.0</ele><time>2026-04-30T14:49:42.001Z</time></trkpt><trkpt lat="43.38612281584252" lon="-3.2266220299601485"><ele>11.0</ele><time>2026-04-30T14:49:44.001Z</time></trkpt><trkpt lat="43.386174615633145" lon="-3.226683669190868"><ele>11.200000000000001</ele><time>2026-04-30T14:49:46.001Z</time></trkpt><trkpt lat="43.386239211669995" lon="-3.2267570969620856"><ele>11.4</ele><time>2026-04-30T14:49:48.001Z</time></trkpt><trkpt lat="43.38631717923966" lon="-3.2268495643411272"><ele>11.6</ele><time>2026-04-30T14:49:50.001Z</time></trkpt><trkpt lat="43.386400616619675" lon="-3.2269533637065755"><ele>11.8</ele><time>2026-04-30T14:49:52.001Z</time></trkpt><trkpt lat="43.386492471818066" lon="-3.2270655727786566"><ele>12.0</ele><time>2026-04-30T14:49:54.001Z</time></trkpt><trkpt lat="43.38654058273037" lon="-3.227128268775691"><ele>11.999999999999998</ele><time>2026-04-30T14:49:55.001Z</time></trkpt><trkpt lat="43.38659083451919" lon="-3.227188098988308"><ele>12.0</ele><time>2026-04-30T14:49:56.001Z</time></trkpt><trkpt lat="43.386645850569955" lon="-3.2272507195286755"><ele>12.0</ele><time>2026-04-30T14:49:57.001Z</time></trkpt><trkpt lat="43.386700941814574" lon="-3.2273145873238054"><ele>12.0</ele><time>2026-04-30T14:49:58.001Z</time></trkpt><trkpt lat="43.38675785919732" lon="-3.227374618003716"><ele>12.0</ele><time>2026-04-30T14:49:59.001Z</time></trkpt><trkpt lat="43.38681215562527" lon="-3.2274448782658474"><ele>11.999999999999998</ele><time>2026-04-30T14:50:00.001Z</time></trkpt><trkpt lat="43.38686740711346" lon="-3.227512194501906"><ele>12.0</ele><time>2026-04-30T14:50:01.001Z</time></trkpt><trkpt lat="43.38692329477245" lon="-3.227582938401452"><ele>11.999999999999998</ele><time>2026-04-30T14:50:02.001Z</time></trkpt><trkpt lat="43.38698072664097" lon="-3.227648723067771"><ele>12.0</ele><time>2026-04-30T14:50:03.001Z</time></trkpt><trkpt lat="43.387037107867144" lon="-3.2277150996657276"><ele>12.0</ele><time>2026-04-30T14:50:04.001Z</time></trkpt><trkpt lat="43.38709431487487" lon="-3.2277818665883165"><ele>12.0</ele><time>2026-04-30T14:50:05.001Z</time></trkpt><trkpt lat="43.387151645882724" lon="-3.227844691426576"><ele>12.0</ele><time>2026-04-30T14:50:06.001Z</time></trkpt><trkpt lat="43.38720128196707" lon="-3.2279099756956358"><ele>11.999999999999998</ele><time>2026-04-30T14:50:07.001Z</time></trkpt><trkpt lat="43.38724894089273" lon="-3.2279743137289643"><ele>12.0</ele><time>2026-04-30T14:50:08.001Z</time></trkpt><trkpt lat="43.387332666301845" lon="-3.2280811011456447"><ele>12.166666666666666</ele><time>2026-04-30T14:50:10.001Z</time></trkpt><trkpt lat="43.387405927664226" lon="-3.228170376925122"><ele>12.333333333333332</ele><time>2026-04-30T14:50:12.002Z</time></trkpt><trkpt lat="43.38746167661573" lon="-3.2282530001014282"><ele>12.5</ele><time>2026-04-30T14:50:14.002Z</time></trkpt><trkpt lat="43.38750914149559" lon="-3.228317730578525"><ele>12.666666666666666</ele><time>2026-04-30T14:50:17.002Z</time></trkpt><trkpt lat="43.38756929586719" lon="-3.228375034585632"><ele>12.833333333333332</ele><time>2026-04-30T14:51:10Z</time></trkpt><trkpt lat="43.38763681242007" lon="-3.228456896794699"><ele>13.0</ele><time>2026-04-30T14:51:12Z</time></trkpt><trkpt lat="43.387719607311176" lon="-3.228556886008522"><ele>12.999999999999998</ele><time>2026-04-30T14:51:14Z</time></trkpt><trkpt lat="43.3878145357455" lon="-3.22867082987642"><ele>13.0</ele><time>2026-04-30T14:51:16Z</time></trkpt><trkpt lat="43.387866537209284" lon="-3.228733266813866"><ele>13.0</ele><time>2026-04-30T14:51:17Z</time></trkpt><trkpt lat="43.387916613605306" lon="-3.2287933923519567"><ele>13.0</ele><time>2026-04-30T14:51:18Z</time></trkpt><trkpt lat="43.387966112662205" lon="-3.2288528247040804"><ele>12.999999999999998</ele><time>2026-04-30T14:51:19Z</time></trkpt><trkpt lat="43.38800553123957" lon="-3.2289283730644955"><ele>13.0</ele><time>2026-04-30T14:51:20.001Z</time></trkpt><trkpt lat="43.3880546727589" lon="-3.228986113693262"><ele>14.2</ele><time>2026-04-30T14:51:21.001Z</time></trkpt><trkpt lat="43.388137678063856" lon="-3.2290812950693386"><ele>15.4</ele><time>2026-04-30T14:51:23.001Z</time></trkpt><trkpt lat="43.38820815799598" lon="-3.2291663717893733"><ele>16.599999999999998</ele><time>2026-04-30T14:51:25.001Z</time></trkpt><trkpt lat="43.38828294220532" lon="-3.2292561862871345"><ele>17.8</ele><time>2026-04-30T14:51:27.001Z</time></trkpt><trkpt lat="43.388368967032875" lon="-3.2293527693830755"><ele>19.0</ele><time>2026-04-30T14:51:29.001Z</time></trkpt><trkpt lat="43.38845545398519" lon="-3.2294588633343366"><ele>19.0</ele><time>2026-04-30T14:51:31.001Z</time></trkpt><trkpt lat="43.3885497963649" lon="-3.2295741624776135"><ele>19.0</ele><time>2026-04-30T14:51:33.001Z</time></trkpt><trkpt lat="43.38859797678117" lon="-3.2296349721150137"><ele>19.0</ele><time>2026-04-30T14:51:34.001Z</time></trkpt><trkpt lat="43.38867678674426" lon="-3.2297357467706633"><ele>19.0</ele><time>2026-04-30T14:51:36.001Z</time></trkpt><trkpt lat="43.38874593443959" lon="-3.229810882387666"><ele>19.0</ele><time>2026-04-30T14:51:38.001Z</time></trkpt><trkpt lat="43.3888277244877" lon="-3.2298961701064615"><ele>19.0</ele><time>2026-04-30T14:51:40.001Z</time></trkpt><trkpt lat="43.38893470718269" lon="-3.2299710203670777"><ele>19.0</ele><time>2026-04-30T14:51:42.001Z</time></trkpt><trkpt lat="43.388993074728425" lon="-3.230015243672254"><ele>19.0</ele><time>2026-04-30T14:51:43.001Z</time></trkpt><trkpt lat="43.389052691378474" lon="-3.230064746850023"><ele>19.0</ele><time>2026-04-30T14:51:44.001Z</time></trkpt><trkpt lat="43.389117114067794" lon="-3.2301091664396364"><ele>19.0</ele><time>2026-04-30T14:51:45.001Z</time></trkpt><trkpt lat="43.38918469975867" lon="-3.2301553415306254"><ele>19.0</ele><time>2026-04-30T14:51:46.001Z</time></trkpt><trkpt lat="43.3892505189641" lon="-3.2302068791197183"><ele>19.0</ele><time>2026-04-30T14:51:47.001Z</time></trkpt><trkpt lat="43.38932466596114" lon="-3.2302560066446118"><ele>19.0</ele><time>2026-04-30T14:51:48.001Z</time></trkpt><trkpt lat="43.38939322925505" lon="-3.2303104719121025"><ele>19.0</ele><time>2026-04-30T14:51:49.001Z</time></trkpt><trkpt lat="43.38946263834408" lon="-3.2303605058926146"><ele>19.0</ele><time>2026-04-30T14:51:50.001Z</time></trkpt><trkpt lat="43.389530773917244" lon="-3.2304109597677546"><ele>19.0</ele><time>2026-04-30T14:51:51.001Z</time></trkpt><trkpt lat="43.38959959447427" lon="-3.2304582012801957"><ele>19.0</ele><time>2026-04-30T14:51:52.001Z</time></trkpt><trkpt lat="43.38966924326239" lon="-3.2305087641548718"><ele>22.0</ele><time>2026-04-30T14:51:53.001Z</time></trkpt><trkpt lat="43.38961070471204" lon="-3.2307074264018016"><ele>25.0</ele><time>2026-04-30T14:51:56.001Z</time></trkpt><trkpt lat="43.38995431277873" lon="-3.230724228122503"><ele>25.166666666666668</ele><time>2026-04-30T14:51:57.001Z</time></trkpt><trkpt lat="43.39002874894696" lon="-3.2307800986255044"><ele>25.333333333333336</ele><time>2026-04-30T14:51:58.001Z</time></trkpt><trkpt lat="43.390099025754374" lon="-3.2308311714330022"><ele>25.5</ele><time>2026-04-30T14:51:59.001Z</time></trkpt><trkpt lat="43.390171468290696" lon="-3.2308885306323636"><ele>25.666666666666664</ele><time>2026-04-30T14:52:00.001Z</time></trkpt><trkpt lat="43.39024170182641" lon="-3.230948503569647"><ele>25.833333333333332</ele><time>2026-04-30T14:52:01.001Z</time></trkpt><trkpt lat="43.390316277781004" lon="-3.2310086593049423"><ele>26.0</ele><time>2026-04-30T14:52:02.001Z</time></trkpt><trkpt lat="43.390389433077836" lon="-3.231066577356943"><ele>25.999999999999996</ele><time>2026-04-30T14:52:03.001Z</time></trkpt><trkpt lat="43.39046631727744" lon="-3.231125776889762"><ele>26.0</ele><time>2026-04-30T14:52:04.001Z</time></trkpt><trkpt lat="43.39053862045063" lon="-3.2311803881816457"><ele>26.0</ele><time>2026-04-30T14:52:05.002Z</time></trkpt><trkpt lat="43.3906117444147" lon="-3.231233641756591"><ele>26.0</ele><time>2026-04-30T14:52:06.002Z</time></trkpt><trkpt lat="43.39068596384702" lon="-3.2312840119135307"><ele>25.999999999999996</ele><time>2026-04-30T14:52:07.002Z</time></trkpt><trkpt lat="43.3907579709733" lon="-3.2313299987847093"><ele>26.0</ele><time>2026-04-30T14:52:08.002Z</time></trkpt><trkpt lat="43.39082922793829" lon="-3.231377099206689"><ele>26.499999999999996</ele><time>2026-04-30T14:52:09.002Z</time></trkpt><trkpt lat="43.3909057778582" lon="-3.231421035793868"><ele>27.0</ele><time>2026-04-30T14:52:10.002Z</time></trkpt><trkpt lat="43.390983435624996" lon="-3.2314574621782595"><ele>27.5</ele><time>2026-04-30T14:52:11.002Z</time></trkpt><trkpt lat="43.39106488041148" lon="-3.231486233836217"><ele>28.0</ele><time>2026-04-30T14:52:12.002Z</time></trkpt><trkpt lat="43.3911439924101" lon="-3.2315038869804034"><ele>28.499999999999996</ele><time>2026-04-30T14:52:13.002Z</time></trkpt><trkpt lat="43.39122505576976" lon="-3.231515558182809"><ele>29.0</ele><time>2026-04-30T14:52:14.002Z</time></trkpt><trkpt lat="43.3913067118837" lon="-3.231518740722512"><ele>30.666666666666664</ele><time>2026-04-30T14:52:15.002Z</time></trkpt><trkpt lat="43.39138924317044" lon="-3.2315196778286195"><ele>32.33333333333333</ele><time>2026-04-30T14:52:16.002Z</time></trkpt><trkpt lat="43.39147338823735" lon="-3.2315190438520576"><ele>34.0</ele><time>2026-04-30T14:52:17.002Z</time></trkpt><trkpt lat="43.39155675817221" lon="-3.2315248835508235"><ele>35.666666666666664</ele><time>2026-04-30T14:52:18.002Z</time></trkpt><trkpt lat="43.39163715733008" lon="-3.231524567864828"><ele>37.333333333333336</ele><time>2026-04-30T14:52:19.002Z</time></trkpt><trkpt lat="43.39172349272134" lon="-3.231504821361481"><ele>39.0</ele><time>2026-04-30T14:52:20.002Z</time></trkpt><trkpt lat="43.39180922942" lon="-3.2314916638010085"><ele>39.0</ele><time>2026-04-30T14:52:21.002Z</time></trkpt><trkpt lat="43.39189136410221" lon="-3.231486231223184"><ele>39.0</ele><time>2026-04-30T14:52:22.002Z</time></trkpt><trkpt lat="43.391971675892236" lon="-3.231490954201946"><ele>39.0</ele><time>2026-04-30T14:52:23.002Z</time></trkpt><trkpt lat="43.39205019949363" lon="-3.2315026349673555"><ele>39.0</ele><time>2026-04-30T14:52:24.002Z</time></trkpt><trkpt lat="43.392131429553366" lon="-3.2315103701235266"><ele>39.0</ele><time>2026-04-30T14:52:25.002Z</time></trkpt><trkpt lat="43.39221394413232" lon="-3.2315185469378354"><ele>39.0</ele><time>2026-04-30T14:52:26.002Z</time></trkpt><trkpt lat="43.392290524430926" lon="-3.231523471277717"><ele>39.833333333333336</ele><time>2026-04-30T14:52:27.002Z</time></trkpt><trkpt lat="43.392370184656016" lon="-3.2315380013523183"><ele>40.666666666666664</ele><time>2026-04-30T14:52:28.002Z</time></trkpt><trkpt lat="43.3924502351461" lon="-3.2315603307516674"><ele>41.5</ele><time>2026-04-30T14:52:29.002Z</time></trkpt><trkpt lat="43.39252876855303" lon="-3.231585400771672"><ele>42.33333333333333</ele><time>2026-04-30T14:52:30.002Z</time></trkpt><trkpt lat="43.39260524249045" lon="-3.231614342567482"><ele>43.166666666666664</ele><time>2026-04-30T14:52:31.002Z</time></trkpt><trkpt lat="43.39268290585916" lon="-3.231656169951783"><ele>44.0</ele><time>2026-04-30T14:52:32.002Z</time></trkpt><trkpt lat="43.3927599156675" lon="-3.231699372906374"><ele>44.0</ele><time>2026-04-30T14:52:33.002Z</time></trkpt><trkpt lat="43.3928340176618" lon="-3.2317372404325018"><ele>44.0</ele><time>2026-04-30T14:52:34.002Z</time></trkpt><trkpt lat="43.392910862504294" lon="-3.2317826518098576"><ele>44.0</ele><time>2026-04-30T14:52:35.002Z</time></trkpt><trkpt lat="43.39298141990988" lon="-3.231837177974656"><ele>44.0</ele><time>2026-04-30T14:52:36.002Z</time></trkpt><trkpt lat="43.393051933561395" lon="-3.231892043842308"><ele>44.0</ele><time>2026-04-30T14:52:37.002Z</time></trkpt><trkpt lat="43.39312855743037" lon="-3.23195651536789"><ele>44.0</ele><time>2026-04-30T14:52:38.002Z</time></trkpt><trkpt lat="43.39319300293146" lon="-3.2320276460730373"><ele>44.0</ele><time>2026-04-30T14:52:39.002Z</time></trkpt><trkpt lat="43.393258138743455" lon="-3.2321044630952573"><ele>44.0</ele><time>2026-04-30T14:52:40.002Z</time></trkpt><trkpt lat="43.39332589459775" lon="-3.2321812035942723"><ele>44.0</ele><time>2026-04-30T14:52:41.002Z</time></trkpt><trkpt lat="43.393394079108724" lon="-3.232259489839911"><ele>44.0</ele><time>2026-04-30T14:52:42.002Z</time></trkpt><trkpt lat="43.39345898077888" lon="-3.2323446347555533"><ele>44.0</ele><time>2026-04-30T14:52:43.002Z</time></trkpt><trkpt lat="43.393522508944265" lon="-3.232429123559556"><ele>44.0</ele><time>2026-04-30T14:52:44.002Z</time></trkpt><trkpt lat="43.39358599502322" lon="-3.232510011382464"><ele>44.0</ele><time>2026-04-30T14:52:45.002Z</time></trkpt><trkpt lat="43.39364854944668" lon="-3.232595443786988"><ele>44.0</ele><time>2026-04-30T14:52:46.002Z</time></trkpt><trkpt lat="43.393714026466164" lon="-3.2326816819938893"><ele>44.0</ele><time>2026-04-30T14:52:47.002Z</time></trkpt><trkpt lat="43.39377650851665" lon="-3.232762759058729"><ele>44.0</ele><time>2026-04-30T14:52:48.002Z</time></trkpt><trkpt lat="43.393839723994105" lon="-3.2328504866543493"><ele>44.0</ele><time>2026-04-30T14:52:49.002Z</time></trkpt><trkpt lat="43.393901516846434" lon="-3.232936464438478"><ele>44.0</ele><time>2026-04-30T14:52:50.003Z</time></trkpt><trkpt lat="43.39395875676811" lon="-3.233024444508635"><ele>44.5</ele><time>2026-04-30T14:52:51.003Z</time></trkpt><trkpt lat="43.394018758591976" lon="-3.233110884133624"><ele>45.0</ele><time>2026-04-30T14:52:52.003Z</time></trkpt><trkpt lat="43.39408033893356" lon="-3.233197829430478"><ele>45.5</ele><time>2026-04-30T14:52:53.003Z</time></trkpt><trkpt lat="43.394138030191264" lon="-3.233291983959821"><ele>46.0</ele><time>2026-04-30T14:52:54.003Z</time></trkpt><trkpt lat="43.39420362080528" lon="-3.2333822427944217"><ele>46.5</ele><time>2026-04-30T14:52:55.003Z</time></trkpt><trkpt lat="43.394260644829416" lon="-3.2334560466795206"><ele>47.0</ele><time>2026-04-30T14:52:56.003Z</time></trkpt><trkpt lat="43.394317583859255" lon="-3.2335374825785643"><ele>47.166666666666664</ele><time>2026-04-30T14:52:57.003Z</time></trkpt><trkpt lat="43.394373861021904" lon="-3.233624048091323"><ele>47.33333333333333</ele><time>2026-04-30T14:52:58.003Z</time></trkpt><trkpt lat="43.394425131467386" lon="-3.233707496171683"><ele>47.5</ele><time>2026-04-30T14:52:59.001Z</time></trkpt><trkpt lat="43.394469932947246" lon="-3.233792311911486"><ele>47.666666666666664</ele><time>2026-04-30T14:53:00.001Z</time></trkpt><trkpt lat="43.39452166513967" lon="-3.233883184804956"><ele>47.833333333333336</ele><time>2026-04-30T14:53:01.001Z</time></trkpt><trkpt lat="43.39457513897603" lon="-3.233970311532746"><ele>48.0</ele><time>2026-04-30T14:53:02.001Z</time></trkpt><trkpt lat="43.39461919374285" lon="-3.234081850349073"><ele>47.8</ele><time>2026-04-30T14:53:03.001Z</time></trkpt><trkpt lat="43.39467305598842" lon="-3.2341869782979598"><ele>47.599999999999994</ele><time>2026-04-30T14:53:04.001Z</time></trkpt><trkpt lat="43.394728462861835" lon="-3.2342919005908337"><ele>47.400000000000006</ele><time>2026-04-30T14:53:05.001Z</time></trkpt><trkpt lat="43.39478473292041" lon="-3.2344012005665115"><ele>47.2</ele><time>2026-04-30T14:53:06.001Z</time></trkpt><trkpt lat="43.394838272893935" lon="-3.2345171854150143"><ele>47.0</ele><time>2026-04-30T14:53:07.001Z</time></trkpt><trkpt lat="43.39489261152712" lon="-3.2346408043351196"><ele>47.0</ele><time>2026-04-30T14:53:08.001Z</time></trkpt><trkpt lat="43.39494757521266" lon="-3.234764103073794"><ele>47.0</ele><time>2026-04-30T14:53:09.001Z</time></trkpt><trkpt lat="43.39501000617892" lon="-3.234886739941919"><ele>47.0</ele><time>2026-04-30T14:53:10.001Z</time></trkpt><trkpt lat="43.39506025768457" lon="-3.2350125058388297"><ele>47.0</ele><time>2026-04-30T14:53:11.001Z</time></trkpt><trkpt lat="43.39511415469023" lon="-3.2351398159189717"><ele>47.0</ele><time>2026-04-30T14:53:12.001Z</time></trkpt><trkpt lat="43.39516232833285" lon="-3.235269777562966"><ele>47.0</ele><time>2026-04-30T14:53:13.001Z</time></trkpt><trkpt lat="43.39521391108249" lon="-3.235397037878998"><ele>47.0</ele><time>2026-04-30T14:53:14.001Z</time></trkpt><trkpt lat="43.39526933795153" lon="-3.2355191059169837"><ele>47.0</ele><time>2026-04-30T14:53:15.001Z</time></trkpt><trkpt lat="43.395322249986435" lon="-3.2356472014438524"><ele>47.0</ele><time>2026-04-30T14:53:16.001Z</time></trkpt><trkpt lat="43.395370565753474" lon="-3.235774728797949"><ele>47.0</ele><time>2026-04-30T14:53:17.001Z</time></trkpt><trkpt lat="43.39542044240994" lon="-3.2359026203314927"><ele>46.8</ele><time>2026-04-30T14:53:18.001Z</time></trkpt><trkpt lat="43.3954782901642" lon="-3.2360230871266427"><ele>46.6</ele><time>2026-04-30T14:53:19.001Z</time></trkpt><trkpt lat="43.39553886848484" lon="-3.2361409855999193"><ele>46.4</ele><time>2026-04-30T14:53:20.001Z</time></trkpt><trkpt lat="43.39560337885906" lon="-3.2362538915229684"><ele>46.199999999999996</ele><time>2026-04-30T14:53:21.001Z</time></trkpt><trkpt lat="43.39566386662808" lon="-3.236371795721674"><ele>46.0</ele><time>2026-04-30T14:53:22.001Z</time></trkpt><trkpt lat="43.39573192883816" lon="-3.236480356113154"><ele>45.4</ele><time>2026-04-30T14:53:23.001Z</time></trkpt><trkpt lat="43.39580578272801" lon="-3.2365862268700365"><ele>44.8</ele><time>2026-04-30T14:53:24.001Z</time></trkpt><trkpt lat="43.39587980376664" lon="-3.2366863049940844"><ele>44.199999999999996</ele><time>2026-04-30T14:53:25.001Z</time></trkpt><trkpt lat="43.395948779902504" lon="-3.2367976241640948"><ele>43.599999999999994</ele><time>2026-04-30T14:53:26.001Z</time></trkpt><trkpt lat="43.39601206010564" lon="-3.2369122956735756"><ele>43.0</ele><time>2026-04-30T14:53:27.001Z</time></trkpt><trkpt lat="43.396080406244046" lon="-3.2370201125239952"><ele>43.0</ele><time>2026-04-30T14:53:28.001Z</time></trkpt><trkpt lat="43.396146551646474" lon="-3.2371340817541965"><ele>43.0</ele><time>2026-04-30T14:53:29.001Z</time></trkpt><trkpt lat="43.39620180163134" lon="-3.237254541328263"><ele>43.0</ele><time>2026-04-30T14:53:30.001Z</time></trkpt><trkpt lat="43.396253607366944" lon="-3.237381646995753"><ele>43.0</ele><time>2026-04-30T14:53:31.001Z</time></trkpt><trkpt lat="43.396312215761526" lon="-3.237508035223987"><ele>43.0</ele><time>2026-04-30T14:53:32.001Z</time></trkpt><trkpt lat="43.396359867609775" lon="-3.2376411017579576"><ele>42.8</ele><time>2026-04-30T14:53:33.001Z</time></trkpt><trkpt lat="43.396406511937016" lon="-3.2377787912530906"><ele>42.599999999999994</ele><time>2026-04-30T14:53:34.001Z</time></trkpt><trkpt lat="43.39645331948296" lon="-3.237910992449128"><ele>42.400000000000006</ele><time>2026-04-30T14:53:35.001Z</time></trkpt><trkpt lat="43.396492483713146" lon="-3.2380494889762366"><ele>42.2</ele><time>2026-04-30T14:53:36.001Z</time></trkpt><trkpt lat="43.396532428734716" lon="-3.238185899278006"><ele>42.0</ele><time>2026-04-30T14:53:37.001Z</time></trkpt><trkpt lat="43.396573376477534" lon="-3.2383226589479785"><ele>42.0</ele><time>2026-04-30T14:53:38.001Z</time></trkpt><trkpt lat="43.39661549380969" lon="-3.2384613895698253"><ele>42.0</ele><time>2026-04-30T14:53:39.001Z</time></trkpt><trkpt lat="43.396660968137574" lon="-3.238594223641892"><ele>42.0</ele><time>2026-04-30T14:53:40.001Z</time></trkpt><trkpt lat="43.39670048412139" lon="-3.238733798159322"><ele>42.0</ele><time>2026-04-30T14:53:41.001Z</time></trkpt><trkpt lat="43.39673900159352" lon="-3.2388702558483087"><ele>42.0</ele><time>2026-04-30T14:53:42.001Z</time></trkpt><trkpt lat="43.39677697119369" lon="-3.2390070654224132"><ele>42.2</ele><time>2026-04-30T14:53:43.001Z</time></trkpt><trkpt lat="43.39682286772636" lon="-3.2391420240546838"><ele>42.400000000000006</ele><time>2026-04-30T14:53:44.001Z</time></trkpt><trkpt lat="43.396867462800856" lon="-3.2392726503508076"><ele>42.599999999999994</ele><time>2026-04-30T14:53:45.001Z</time></trkpt><trkpt lat="43.39690379230903" lon="-3.2394126315043885"><ele>42.8</ele><time>2026-04-30T14:53:46.001Z</time></trkpt><trkpt lat="43.3969424290355" lon="-3.2395476746935854"><ele>43.0</ele><time>2026-04-30T14:53:47.001Z</time></trkpt><trkpt lat="43.39698071020317" lon="-3.2396852609317834"><ele>42.8</ele><time>2026-04-30T14:53:48.001Z</time></trkpt><trkpt lat="43.39702506256609" lon="-3.2398212717659263"><ele>42.599999999999994</ele><time>2026-04-30T14:53:49.001Z</time></trkpt><trkpt lat="43.397066713395134" lon="-3.239950910997301"><ele>42.400000000000006</ele><time>2026-04-30T14:53:50.001Z</time></trkpt><trkpt lat="43.3971060245848" lon="-3.240085601709083"><ele>42.2</ele><time>2026-04-30T14:53:51.001Z</time></trkpt><trkpt lat="43.39714257607975" lon="-3.240221768304569"><ele>42.0</ele><time>2026-04-30T14:53:52.001Z</time></trkpt><trkpt lat="43.397182517580546" lon="-3.240358473511845"><ele>40.6</ele><time>2026-04-30T14:53:53.001Z</time></trkpt><trkpt lat="43.397225044050714" lon="-3.240488521985919"><ele>39.2</ele><time>2026-04-30T14:53:54.001Z</time></trkpt><trkpt lat="43.3972623200663" lon="-3.2406193144820277"><ele>37.8</ele><time>2026-04-30T14:53:55.001Z</time></trkpt><trkpt lat="43.39730037564625" lon="-3.2407475667800236"><ele>36.4</ele><time>2026-04-30T14:53:56.001Z</time></trkpt><trkpt lat="43.397337145199636" lon="-3.2408803605210252"><ele>35.0</ele><time>2026-04-30T14:53:57.001Z</time></trkpt><trkpt lat="43.39737049255335" lon="-3.2410089410951595"><ele>33.8</ele><time>2026-04-30T14:53:58.001Z</time></trkpt><trkpt lat="43.39740611867246" lon="-3.241133974342448"><ele>32.6</ele><time>2026-04-30T14:53:59.001Z</time></trkpt><trkpt lat="43.39743749902106" lon="-3.241264067566093"><ele>31.4</ele><time>2026-04-30T14:54:00.001Z</time></trkpt><trkpt lat="43.39746822336452" lon="-3.2413900709084382"><ele>30.2</ele><time>2026-04-30T14:54:01.001Z</time></trkpt><trkpt lat="43.39749740426342" lon="-3.2415168711577205"><ele>29.0</ele><time>2026-04-30T14:54:02.001Z</time></trkpt><trkpt lat="43.39752361084861" lon="-3.241642664655491"><ele>29.0</ele><time>2026-04-30T14:54:03.001Z</time></trkpt><trkpt lat="43.39754808284723" lon="-3.2417667875961556"><ele>29.0</ele><time>2026-04-30T14:54:04.001Z</time></trkpt><trkpt lat="43.397567264870524" lon="-3.241891537208825"><ele>29.0</ele><time>2026-04-30T14:54:05.001Z</time></trkpt><trkpt lat="43.39759919724478" lon="-3.2420134240991727"><ele>29.0</ele><time>2026-04-30T14:54:06.001Z</time></trkpt><trkpt lat="43.397614571418906" lon="-3.24213876631203"><ele>29.0</ele><time>2026-04-30T14:54:07.001Z</time></trkpt><trkpt lat="43.3976326713911" lon="-3.242262526992482"><ele>30.6</ele><time>2026-04-30T14:54:08.001Z</time></trkpt><trkpt lat="43.39764955672893" lon="-3.2423851357725604"><ele>32.2</ele><time>2026-04-30T14:54:09.001Z</time></trkpt><trkpt lat="43.39766882557688" lon="-3.2425125541050765"><ele>33.800000000000004</ele><time>2026-04-30T14:54:10.001Z</time></trkpt><trkpt lat="43.39768648878153" lon="-3.2426411635278294"><ele>35.4</ele><time>2026-04-30T14:54:11.001Z</time></trkpt><trkpt lat="43.39770653648676" lon="-3.2427675967302814"><ele>37.0</ele><time>2026-04-30T14:54:12.001Z</time></trkpt><trkpt lat="43.39772355514525" lon="-3.242895966972378"><ele>37.0</ele><time>2026-04-30T14:54:13.001Z</time></trkpt><trkpt lat="43.39773997998452" lon="-3.243026891736752"><ele>37.0</ele><time>2026-04-30T14:54:14.002Z</time></trkpt><trkpt lat="43.39775303814067" lon="-3.2431633890101854"><ele>37.0</ele><time>2026-04-30T14:54:15.002Z</time></trkpt><trkpt lat="43.39776166103176" lon="-3.2433025322054534"><ele>37.0</ele><time>2026-04-30T14:54:16.002Z</time></trkpt><trkpt lat="43.39777278567008" lon="-3.2434363745926698"><ele>37.0</ele><time>2026-04-30T14:54:17.002Z</time></trkpt><trkpt lat="43.397782667843316" lon="-3.243573500139649"><ele>37.8</ele><time>2026-04-30T14:54:18.002Z</time></trkpt><trkpt lat="43.39779263975508" lon="-3.2437142380685207"><ele>38.6</ele><time>2026-04-30T14:54:19.002Z</time></trkpt><trkpt lat="43.397801343631706" lon="-3.243854583853712"><ele>39.4</ele><time>2026-04-30T14:54:20.002Z</time></trkpt><trkpt lat="43.39781116888982" lon="-3.24400077398678"><ele>40.199999999999996</ele><time>2026-04-30T14:54:21.002Z</time></trkpt><trkpt lat="43.39781990776322" lon="-3.244145736871244"><ele>41.0</ele><time>2026-04-30T14:54:22.002Z</time></trkpt><trkpt lat="43.397827582554925" lon="-3.2442926253110214"><ele>41.0</ele><time>2026-04-30T14:54:23.002Z</time></trkpt><trkpt lat="43.39783629185913" lon="-3.2444399784598543"><ele>41.0</ele><time>2026-04-30T14:54:24.002Z</time></trkpt><trkpt lat="43.39784770747722" lon="-3.2445925938572264"><ele>41.0</ele><time>2026-04-30T14:54:25.002Z</time></trkpt><trkpt lat="43.39785694585406" lon="-3.244740030560875"><ele>41.0</ele><time>2026-04-30T14:54:26.002Z</time></trkpt><trkpt lat="43.39786461615887" lon="-3.2448924730134188"><ele>41.0</ele><time>2026-04-30T14:54:27.002Z</time></trkpt><trkpt lat="43.397874752745736" lon="-3.2450456733852047"><ele>41.0</ele><time>2026-04-30T14:54:28.002Z</time></trkpt><trkpt lat="43.39788463050794" lon="-3.2451979303107126"><ele>41.0</ele><time>2026-04-30T14:54:29.002Z</time></trkpt><trkpt lat="43.397893703357305" lon="-3.2453485529782102"><ele>41.0</ele><time>2026-04-30T14:54:30.002Z</time></trkpt><trkpt lat="43.397901382899526" lon="-3.245498573301328"><ele>41.0</ele><time>2026-04-30T14:54:31.002Z</time></trkpt><trkpt lat="43.39790792648227" lon="-3.245649064876273"><ele>41.0</ele><time>2026-04-30T14:54:32.002Z</time></trkpt><trkpt lat="43.39791546941854" lon="-3.2458015401252407"><ele>41.199999999999996</ele><time>2026-04-30T14:54:33.002Z</time></trkpt><trkpt lat="43.39792350192978" lon="-3.245952553721541"><ele>41.4</ele><time>2026-04-30T14:54:34.002Z</time></trkpt><trkpt lat="43.397932066719804" lon="-3.2461042864190417"><ele>41.6</ele><time>2026-04-30T14:54:35.002Z</time></trkpt><trkpt lat="43.397945384622574" lon="-3.2462563947287606"><ele>41.8</ele><time>2026-04-30T14:54:36.002Z</time></trkpt><trkpt lat="43.3979592371934" lon="-3.2464073886851867"><ele>42.0</ele><time>2026-04-30T14:54:37.002Z</time></trkpt><trkpt lat="43.39797098957205" lon="-3.2465554133374934"><ele>42.2</ele><time>2026-04-30T14:54:38.002Z</time></trkpt><trkpt lat="43.39798838564032" lon="-3.2467071932519755"><ele>42.400000000000006</ele><time>2026-04-30T14:54:39.002Z</time></trkpt><trkpt lat="43.39800894937556" lon="-3.2468576697271208"><ele>42.599999999999994</ele><time>2026-04-30T14:54:40.002Z</time></trkpt><trkpt lat="43.398032466656105" lon="-3.2470044967547387"><ele>42.8</ele><time>2026-04-30T14:54:41.002Z</time></trkpt><trkpt lat="43.39805724618839" lon="-3.2471499280479525"><ele>43.0</ele><time>2026-04-30T14:54:42.002Z</time></trkpt><trkpt lat="43.3980821970354" lon="-3.2472933356760416"><ele>40.8</ele><time>2026-04-30T14:54:43.002Z</time></trkpt><trkpt lat="43.398107052185054" lon="-3.2474318627770233"><ele>38.599999999999994</ele><time>2026-04-30T14:54:44.002Z</time></trkpt><trkpt lat="43.398132856619505" lon="-3.247570993348224"><ele>36.400000000000006</ele><time>2026-04-30T14:54:45.002Z</time></trkpt><trkpt lat="43.39816063018831" lon="-3.2477072179219526"><ele>34.2</ele><time>2026-04-30T14:54:46.002Z</time></trkpt><trkpt lat="43.39818567814001" lon="-3.2478405510483626"><ele>32.0</ele><time>2026-04-30T14:54:47.002Z</time></trkpt><trkpt lat="43.39820972128289" lon="-3.2479747696001193"><ele>32.0</ele><time>2026-04-30T14:54:48.002Z</time></trkpt><trkpt lat="43.39823643393593" lon="-3.2481075318530137"><ele>32.0</ele><time>2026-04-30T14:54:49.002Z</time></trkpt><trkpt lat="43.398262331846695" lon="-3.2482368860994564"><ele>32.0</ele><time>2026-04-30T14:54:50.002Z</time></trkpt><trkpt lat="43.39828835807979" lon="-3.2483660854520564"><ele>32.0</ele><time>2026-04-30T14:54:51.002Z</time></trkpt><trkpt lat="43.398312515477876" lon="-3.2484921697597184"><ele>32.0</ele><time>2026-04-30T14:54:52.002Z</time></trkpt><trkpt lat="43.398335099240974" lon="-3.2486173634786892"><ele>33.2</ele><time>2026-04-30T14:54:53.002Z</time></trkpt><trkpt lat="43.39835954550183" lon="-3.2487418430632187"><ele>34.400000000000006</ele><time>2026-04-30T14:54:54.002Z</time></trkpt><trkpt lat="43.39838464571368" lon="-3.2488650389269385"><ele>35.599999999999994</ele><time>2026-04-30T14:54:55.002Z</time></trkpt><trkpt lat="43.3984095579473" lon="-3.2489838414797862"><ele>36.8</ele><time>2026-04-30T14:54:56.002Z</time></trkpt><trkpt lat="43.398433639599446" lon="-3.249101103806469"><ele>38.0</ele><time>2026-04-30T14:54:57.002Z</time></trkpt><trkpt lat="43.39845726928004" lon="-3.2492173132992033"><ele>39.0</ele><time>2026-04-30T14:54:58.002Z</time></trkpt><trkpt lat="43.39848698110106" lon="-3.2493294999374154"><ele>40.0</ele><time>2026-04-30T14:54:59.002Z</time></trkpt><trkpt lat="43.39851564582398" lon="-3.2494398771356026"><ele>41.0</ele><time>2026-04-30T14:55:00.002Z</time></trkpt><trkpt lat="43.39854485396083" lon="-3.249550979689473"><ele>42.0</ele><time>2026-04-30T14:55:01.002Z</time></trkpt><trkpt lat="43.39857141069169" lon="-3.249658693850926"><ele>43.0</ele><time>2026-04-30T14:55:02.002Z</time></trkpt><trkpt lat="43.398602153046795" lon="-3.2497695054919227"><ele>44.0</ele><time>2026-04-30T14:55:03.003Z</time></trkpt><trkpt lat="43.398632531529366" lon="-3.2498742536429273"><ele>45.0</ele><time>2026-04-30T14:55:04.003Z</time></trkpt><trkpt lat="43.39866689458666" lon="-3.24997816500234"><ele>46.0</ele><time>2026-04-30T14:55:05.001Z</time></trkpt><trkpt lat="43.398700629865225" lon="-3.2500845413495987"><ele>47.0</ele><time>2026-04-30T14:55:06.001Z</time></trkpt><trkpt lat="43.39873658615236" lon="-3.2501896620547965"><ele>48.0</ele><time>2026-04-30T14:55:07.001Z</time></trkpt><trkpt lat="43.398774543367814" lon="-3.250293416388208"><ele>49.00000000000001</ele><time>2026-04-30T14:55:08.001Z</time></trkpt><trkpt lat="43.39881233713747" lon="-3.250399487522911"><ele>50.0</ele><time>2026-04-30T14:55:09.001Z</time></trkpt><trkpt lat="43.39885121517299" lon="-3.2505018406184605"><ele>50.00000000000001</ele><time>2026-04-30T14:55:10.001Z</time></trkpt><trkpt lat="43.39889502588675" lon="-3.2506045184086956"><ele>50.0</ele><time>2026-04-30T14:55:11.001Z</time></trkpt><trkpt lat="43.398940323998055" lon="-3.2507078916949403"><ele>50.0</ele><time>2026-04-30T14:55:12.001Z</time></trkpt><trkpt lat="43.39898709585298" lon="-3.2508100722216833"><ele>50.0</ele><time>2026-04-30T14:55:13.001Z</time></trkpt><trkpt lat="43.399031378969156" lon="-3.2509143071734496"><ele>50.00000000000001</ele><time>2026-04-30T14:55:14.001Z</time></trkpt><trkpt lat="43.3990761978583" lon="-3.251019084755109"><ele>50.0</ele><time>2026-04-30T14:55:15.001Z</time></trkpt><trkpt lat="43.3991177552781" lon="-3.2511272736955283"><ele>50.0</ele><time>2026-04-30T14:55:16.001Z</time></trkpt><trkpt lat="43.39916247208402" lon="-3.2512366634058214"><ele>50.0</ele><time>2026-04-30T14:55:17.001Z</time></trkpt><trkpt lat="43.399206413636634" lon="-3.25134199485534"><ele>50.0</ele><time>2026-04-30T14:55:18Z</time></trkpt><trkpt lat="43.399249254317944" lon="-3.2514498835560106"><ele>50.0</ele><time>2026-04-30T14:55:19Z</time></trkpt><trkpt lat="43.399289679723" lon="-3.251563232661242"><ele>50.0</ele><time>2026-04-30T14:55:20.001Z</time></trkpt><trkpt lat="43.399330776071714" lon="-3.2516774751273045"><ele>50.2</ele><time>2026-04-30T14:55:21.001Z</time></trkpt><trkpt lat="43.399371033882765" lon="-3.251793413300954"><ele>50.4</ele><time>2026-04-30T14:55:22.001Z</time></trkpt><trkpt lat="43.39940769779169" lon="-3.251911846939858"><ele>50.599999999999994</ele><time>2026-04-30T14:55:23.001Z</time></trkpt><trkpt lat="43.39944363704298" lon="-3.2520338068583357"><ele>50.8</ele><time>2026-04-30T14:55:24.001Z</time></trkpt><trkpt lat="43.399480911029904" lon="-3.2521551995775577"><ele>51.0</ele><time>2026-04-30T14:55:25.001Z</time></trkpt><trkpt lat="43.39951704741316" lon="-3.2522781242708865"><ele>51.4</ele><time>2026-04-30T14:55:26.001Z</time></trkpt><trkpt lat="43.39955344713182" lon="-3.2524026457529573"><ele>51.8</ele><time>2026-04-30T14:55:27.001Z</time></trkpt><trkpt lat="43.39959116688867" lon="-3.2525282541887113"><ele>52.199999999999996</ele><time>2026-04-30T14:55:28.001Z</time></trkpt><trkpt lat="43.3996287375279" lon="-3.2526523576476234"><ele>52.599999999999994</ele><time>2026-04-30T14:55:29.001Z</time></trkpt><trkpt lat="43.399664958441946" lon="-3.252780634060679"><ele>53.0</ele><time>2026-04-30T14:55:30.001Z</time></trkpt><trkpt lat="43.39970043530483" lon="-3.2529121882642094"><ele>52.4</ele><time>2026-04-30T14:55:31.001Z</time></trkpt><trkpt lat="43.399737154802565" lon="-3.253043014699903"><ele>51.8</ele><time>2026-04-30T14:55:32.001Z</time></trkpt><trkpt lat="43.39977513815893" lon="-3.2531745662518"><ele>51.2</ele><time>2026-04-30T14:55:33.001Z</time></trkpt><trkpt lat="43.399809067340485" lon="-3.2533060941845853"><ele>50.6</ele><time>2026-04-30T14:55:34.001Z</time></trkpt><trkpt lat="43.399844215696675" lon="-3.2534363041287078"><ele>50.0</ele><time>2026-04-30T14:55:35.001Z</time></trkpt><trkpt lat="43.39988041604024" lon="-3.2535685840119943"><ele>50.0</ele><time>2026-04-30T14:55:36.001Z</time></trkpt><trkpt lat="43.39991475258129" lon="-3.253704722525081"><ele>50.0</ele><time>2026-04-30T14:55:37.001Z</time></trkpt><trkpt lat="43.399945286513685" lon="-3.2538389694063863"><ele>50.0</ele><time>2026-04-30T14:55:38.001Z</time></trkpt><trkpt lat="43.39997888135008" lon="-3.2539733248706826"><ele>50.0</ele><time>2026-04-30T14:55:39.001Z</time></trkpt><trkpt lat="43.400014411839045" lon="-3.2541077265721916"><ele>50.0</ele><time>2026-04-30T14:55:40.001Z</time></trkpt><trkpt lat="43.40005026199866" lon="-3.2542463585206565"><ele>50.4</ele><time>2026-04-30T14:55:41.001Z</time></trkpt><trkpt lat="43.40008295584046" lon="-3.254383876655127"><ele>50.8</ele><time>2026-04-30T14:55:42.001Z</time></trkpt><trkpt lat="43.400110335972656" lon="-3.2545273423615826"><ele>51.2</ele><time>2026-04-30T14:55:43.001Z</time></trkpt><trkpt lat="43.40012907034406" lon="-3.2546766993126988"><ele>51.6</ele><time>2026-04-30T14:55:44.001Z</time></trkpt><trkpt lat="43.400142057357236" lon="-3.2548265159310903"><ele>52.0</ele><time>2026-04-30T14:55:45.001Z</time></trkpt><trkpt lat="43.400153468111455" lon="-3.2549775193140977"><ele>52.0</ele><time>2026-04-30T14:55:46.001Z</time></trkpt><trkpt lat="43.400165156871246" lon="-3.255128644868707"><ele>52.0</ele><time>2026-04-30T14:55:47.001Z</time></trkpt><trkpt lat="43.40017501785541" lon="-3.255279735219146"><ele>52.0</ele><time>2026-04-30T14:55:48.001Z</time></trkpt><trkpt lat="43.40018518567495" lon="-3.2554321832207473"><ele>52.0</ele><time>2026-04-30T14:55:49.001Z</time></trkpt><trkpt lat="43.40019682377318" lon="-3.2555821504199622"><ele>52.0</ele><time>2026-04-30T14:55:50.001Z</time></trkpt><trkpt lat="43.40020961190341" lon="-3.255730475793034"><ele>52.0</ele><time>2026-04-30T14:55:51.001Z</time></trkpt><trkpt lat="43.400218916822475" lon="-3.2558827845341707"><ele>52.0</ele><time>2026-04-30T14:55:52.001Z</time></trkpt><trkpt lat="43.40023001603862" lon="-3.256034087643533"><ele>52.0</ele><time>2026-04-30T14:55:53.001Z</time></trkpt><trkpt lat="43.400240688254804" lon="-3.2561856429816953"><ele>52.0</ele><time>2026-04-30T14:55:54.001Z</time></trkpt><trkpt lat="43.400250359678374" lon="-3.2563387229331493"><ele>52.0</ele><time>2026-04-30T14:55:55.001Z</time></trkpt><trkpt lat="43.40025905506005" lon="-3.2564914475996587"><ele>52.0</ele><time>2026-04-30T14:55:56.001Z</time></trkpt><trkpt lat="43.40026889258215" lon="-3.2566460529009307"><ele>52.0</ele><time>2026-04-30T14:55:57.001Z</time></trkpt><trkpt lat="43.40027821206828" lon="-3.2568004348959563"><ele>52.0</ele><time>2026-04-30T14:55:58.001Z</time></trkpt><trkpt lat="43.40029018389819" lon="-3.256951362086675"><ele>52.0</ele><time>2026-04-30T14:55:59.001Z</time></trkpt><trkpt lat="43.40030155574028" lon="-3.257103585789721"><ele>52.0</ele><time>2026-04-30T14:56:00.001Z</time></trkpt><trkpt lat="43.400311572161236" lon="-3.2572549315187036"><ele>52.2</ele><time>2026-04-30T14:56:01.001Z</time></trkpt><trkpt lat="43.40032148135897" lon="-3.257407663241867"><ele>52.400000000000006</ele><time>2026-04-30T14:56:02.001Z</time></trkpt><trkpt lat="43.40033137211147" lon="-3.257558922269959"><ele>52.599999999999994</ele><time>2026-04-30T14:56:03.001Z</time></trkpt><trkpt lat="43.400340439460116" lon="-3.2577122441280557"><ele>52.8</ele><time>2026-04-30T14:56:04.001Z</time></trkpt><trkpt lat="43.400351959078385" lon="-3.2578666346286687"><ele>53.0</ele><time>2026-04-30T14:56:05.001Z</time></trkpt><trkpt lat="43.40036085730527" lon="-3.2580210774058687"><ele>53.25</ele><time>2026-04-30T14:56:06.001Z</time></trkpt><trkpt lat="43.40037113326236" lon="-3.2581772146027106"><ele>53.5</ele><time>2026-04-30T14:56:07.001Z</time></trkpt><trkpt lat="43.4003809855297" lon="-3.258329928546397"><ele>53.75</ele><time>2026-04-30T14:56:08.001Z</time></trkpt><trkpt lat="43.400391618369696" lon="-3.258485234440944"><ele>54.0</ele><time>2026-04-30T14:56:09.001Z</time></trkpt><trkpt lat="43.400403171976755" lon="-3.2586411325784295"><ele>54.0</ele><time>2026-04-30T14:56:10.001Z</time></trkpt><trkpt lat="43.400412528249845" lon="-3.2587976797679894"><ele>54.0</ele><time>2026-04-30T14:56:11.001Z</time></trkpt><trkpt lat="43.40042056068293" lon="-3.258953951554886"><ele>54.0</ele><time>2026-04-30T14:56:12.001Z</time></trkpt><trkpt lat="43.400429721503244" lon="-3.2591177371837623"><ele>54.0</ele><time>2026-04-30T14:56:13.001Z</time></trkpt><trkpt lat="43.400441405420516" lon="-3.259277621123398"><ele>53.0</ele><time>2026-04-30T14:56:14.001Z</time></trkpt><trkpt lat="43.4004534245384" lon="-3.259437223217252"><ele>52.0</ele><time>2026-04-30T14:56:15.001Z</time></trkpt><trkpt lat="43.40046388217251" lon="-3.2595998992500106"><ele>51.0</ele><time>2026-04-30T14:56:16.001Z</time></trkpt><trkpt lat="43.40047146405038" lon="-3.2597639546886215"><ele>50.0</ele><time>2026-04-30T14:56:17.001Z</time></trkpt><trkpt lat="43.40048134386913" lon="-3.2599268580966614"><ele>49.75</ele><time>2026-04-30T14:56:18.001Z</time></trkpt><trkpt lat="43.400492091753314" lon="-3.2600909249704846"><ele>49.5</ele><time>2026-04-30T14:56:19.001Z</time></trkpt><trkpt lat="43.40050144356714" lon="-3.2602569741496015"><ele>49.25</ele><time>2026-04-30T14:56:20.001Z</time></trkpt><trkpt lat="43.4005075807044" lon="-3.260421812702328"><ele>49.0</ele><time>2026-04-30T14:56:21.002Z</time></trkpt><trkpt lat="43.400520927237814" lon="-3.260582154794847"><ele>49.0</ele><time>2026-04-30T14:56:22.002Z</time></trkpt><trkpt lat="43.400533202428306" lon="-3.26074289666359"><ele>49.0</ele><time>2026-04-30T14:56:23.002Z</time></trkpt><trkpt lat="43.40054131879625" lon="-3.260904328265343"><ele>49.0</ele><time>2026-04-30T14:56:24.002Z</time></trkpt><trkpt lat="43.40055267700621" lon="-3.261069570106012"><ele>49.0</ele><time>2026-04-30T14:56:25.002Z</time></trkpt><trkpt lat="43.40056581594545" lon="-3.2612347556245496"><ele>49.0</ele><time>2026-04-30T14:56:26.002Z</time></trkpt><trkpt lat="43.40057817364862" lon="-3.2613973835309493"><ele>49.0</ele><time>2026-04-30T14:56:27.002Z</time></trkpt><trkpt lat="43.400590349611356" lon="-3.2615565650372242"><ele>49.0</ele><time>2026-04-30T14:56:28.002Z</time></trkpt><trkpt lat="43.400598199095846" lon="-3.2617189273098877"><ele>49.0</ele><time>2026-04-30T14:56:29.002Z</time></trkpt><trkpt lat="43.400605340054994" lon="-3.2618873639193313"><ele>47.5</ele><time>2026-04-30T14:56:30.002Z</time></trkpt><trkpt lat="43.40061444346758" lon="-3.26205414963126"><ele>46.0</ele><time>2026-04-30T14:56:31.002Z</time></trkpt><trkpt lat="43.40062530991548" lon="-3.262221732208212"><ele>44.5</ele><time>2026-04-30T14:56:32.002Z</time></trkpt><trkpt lat="43.400636609607076" lon="-3.2623871751712965"><ele>43.0</ele><time>2026-04-30T14:56:33.002Z</time></trkpt><trkpt lat="43.40064896433459" lon="-3.2625550279744653"><ele>40.5</ele><time>2026-04-30T14:56:34.002Z</time></trkpt><trkpt lat="43.40066387030461" lon="-3.2627182236231196"><ele>38.0</ele><time>2026-04-30T14:56:35.002Z</time></trkpt><trkpt lat="43.40067497453804" lon="-3.262879475398852"><ele>35.5</ele><time>2026-04-30T14:56:36.002Z</time></trkpt><trkpt lat="43.40068291881838" lon="-3.263042444694623"><ele>33.0</ele><time>2026-04-30T14:56:37.002Z</time></trkpt><trkpt lat="43.40069816261074" lon="-3.2631937499155654"><ele>31.25</ele><time>2026-04-30T14:56:38.002Z</time></trkpt><trkpt lat="43.40070556178277" lon="-3.2633535500967334"><ele>29.5</ele><time>2026-04-30T14:56:39.002Z</time></trkpt><trkpt lat="43.40071257329017" lon="-3.2635107845560403"><ele>27.75</ele><time>2026-04-30T14:56:40.002Z</time></trkpt><trkpt lat="43.400722382849345" lon="-3.26366388445178"><ele>26.0</ele><time>2026-04-30T14:56:41.002Z</time></trkpt><trkpt lat="43.400734231147325" lon="-3.263812818654615"><ele>27.0</ele><time>2026-04-30T14:56:42.002Z</time></trkpt><trkpt lat="43.40074278246316" lon="-3.2639652765269647"><ele>28.0</ele><time>2026-04-30T14:56:43.002Z</time></trkpt><trkpt lat="43.400751638086064" lon="-3.264108835290219"><ele>29.0</ele><time>2026-04-30T14:56:44.002Z</time></trkpt><trkpt lat="43.40075992722101" lon="-3.2642567465786154"><ele>30.0</ele><time>2026-04-30T14:56:45.002Z</time></trkpt><trkpt lat="43.400769410783795" lon="-3.264405652665245"><ele>31.0</ele><time>2026-04-30T14:56:46.002Z</time></trkpt><trkpt lat="43.40077923905231" lon="-3.264548117072395"><ele>31.0</ele><time>2026-04-30T14:56:47.002Z</time></trkpt><trkpt lat="43.4007892906895" lon="-3.264690505615531"><ele>31.0</ele><time>2026-04-30T14:56:48.002Z</time></trkpt><trkpt lat="43.40079754996284" lon="-3.264831642186264"><ele>31.0</ele><time>2026-04-30T14:56:49.002Z</time></trkpt><trkpt lat="43.400806067373324" lon="-3.2649698419364985"><ele>31.0</ele><time>2026-04-30T14:56:50.002Z</time></trkpt><trkpt lat="43.40081289927477" lon="-3.2651116086441134"><ele>31.0</ele><time>2026-04-30T14:56:51.002Z</time></trkpt><trkpt lat="43.40081761549825" lon="-3.26525038961349"><ele>32.0</ele><time>2026-04-30T14:56:52.002Z</time></trkpt><trkpt lat="43.40081940163134" lon="-3.2653877651433287"><ele>33.0</ele><time>2026-04-30T14:56:53.002Z</time></trkpt><trkpt lat="43.40082227048512" lon="-3.265523540951782"><ele>34.0</ele><time>2026-04-30T14:56:54.002Z</time></trkpt><trkpt lat="43.40082104006668" lon="-3.2656587130780594"><ele>35.0</ele><time>2026-04-30T14:56:55.002Z</time></trkpt><trkpt lat="43.40081582157989" lon="-3.265791966422326"><ele>36.0</ele><time>2026-04-30T14:56:56.002Z</time></trkpt><trkpt lat="43.40080888119048" lon="-3.265923515625438"><ele>36.2</ele><time>2026-04-30T14:56:57.002Z</time></trkpt><trkpt lat="43.40079836598797" lon="-3.266054304211871"><ele>36.400000000000006</ele><time>2026-04-30T14:56:58.002Z</time></trkpt><trkpt lat="43.40078509784719" lon="-3.2661811718780602"><ele>36.6</ele><time>2026-04-30T14:56:59.002Z</time></trkpt><trkpt lat="43.400765818182045" lon="-3.2663068401310364"><ele>36.800000000000004</ele><time>2026-04-30T14:57:00.002Z</time></trkpt><trkpt lat="43.40074348092863" lon="-3.2664317330975807"><ele>37.0</ele><time>2026-04-30T14:57:01.002Z</time></trkpt><trkpt lat="43.40071710737301" lon="-3.266553726790948"><ele>37.0</ele><time>2026-04-30T14:57:02.002Z</time></trkpt><trkpt lat="43.40068654115705" lon="-3.2666738972291287"><ele>37.0</ele><time>2026-04-30T14:57:03.002Z</time></trkpt><trkpt lat="43.40065458217799" lon="-3.266796787573939"><ele>37.0</ele><time>2026-04-30T14:57:04.002Z</time></trkpt><trkpt lat="43.40061988017631" lon="-3.266914686806157"><ele>37.0</ele><time>2026-04-30T14:57:05.002Z</time></trkpt><trkpt lat="43.4005831592915" lon="-3.267029330063576"><ele>37.0</ele><time>2026-04-30T14:57:06.002Z</time></trkpt><trkpt lat="43.40054268291513" lon="-3.267141379534451"><ele>38.6</ele><time>2026-04-30T14:57:07.002Z</time></trkpt><trkpt lat="43.400498789101256" lon="-3.267254105403599"><ele>40.2</ele><time>2026-04-30T14:57:08.002Z</time></trkpt><trkpt lat="43.40045413671349" lon="-3.267365103784402"><ele>41.8</ele><time>2026-04-30T14:57:09.002Z</time></trkpt><trkpt lat="43.400404511879216" lon="-3.267470641164805"><ele>43.4</ele><time>2026-04-30T14:57:10.002Z</time></trkpt><trkpt lat="43.40035245339623" lon="-3.2675785104655675"><ele>45.0</ele><time>2026-04-30T14:57:11.001Z</time></trkpt><trkpt lat="43.400300788588346" lon="-3.2676879143226283"><ele>45.0</ele><time>2026-04-30T14:57:12.001Z</time></trkpt><trkpt lat="43.40025145810534" lon="-3.267795626986878"><ele>45.0</ele><time>2026-04-30T14:57:13.001Z</time></trkpt><trkpt lat="43.40020142340286" lon="-3.267902160187426"><ele>45.0</ele><time>2026-04-30T14:57:14.001Z</time></trkpt><trkpt lat="43.400150973961885" lon="-3.2680067047789882"><ele>45.0</ele><time>2026-04-30T14:57:15.001Z</time></trkpt><trkpt lat="43.400099945621925" lon="-3.268110355189051"><ele>45.0</ele><time>2026-04-30T14:57:16.001Z</time></trkpt><trkpt lat="43.40005037932396" lon="-3.2682122345330136"><ele>44.6</ele><time>2026-04-30T14:57:17.001Z</time></trkpt><trkpt lat="43.400002044101996" lon="-3.268315588046036"><ele>44.2</ele><time>2026-04-30T14:57:18.001Z</time></trkpt><trkpt lat="43.39995161397233" lon="-3.26842060124315"><ele>43.8</ele><time>2026-04-30T14:57:19.001Z</time></trkpt><trkpt lat="43.39990111281496" lon="-3.2685255095707917"><ele>43.4</ele><time>2026-04-30T14:57:20.001Z</time></trkpt><trkpt lat="43.399850775481084" lon="-3.2686300732019977"><ele>43.0</ele><time>2026-04-30T14:57:21.001Z</time></trkpt><trkpt lat="43.399799886102734" lon="-3.2687325401206127"><ele>43.0</ele><time>2026-04-30T14:57:22.001Z</time></trkpt><trkpt lat="43.39975022470799" lon="-3.2688352649492582"><ele>43.0</ele><time>2026-04-30T14:57:23.001Z</time></trkpt><trkpt lat="43.399696363187" lon="-3.2689401487727565"><ele>43.0</ele><time>2026-04-30T14:57:24Z</time></trkpt><trkpt lat="43.39964699821606" lon="-3.269043861683281"><ele>43.0</ele><time>2026-04-30T14:57:25Z</time></trkpt><trkpt lat="43.39959871418873" lon="-3.2691497415136572"><ele>43.0</ele><time>2026-04-30T14:57:26Z</time></trkpt><trkpt lat="43.399551299701955" lon="-3.269254725005973"><ele>44.333333333333336</ele><time>2026-04-30T14:57:27Z</time></trkpt><trkpt lat="43.39950092718198" lon="-3.2693591065991665"><ele>45.66666666666667</ele><time>2026-04-30T14:57:28Z</time></trkpt><trkpt lat="43.39945035702489" lon="-3.2694602358835128"><ele>47.0</ele><time>2026-04-30T14:57:29.001Z</time></trkpt><trkpt lat="43.399401146333126" lon="-3.269559963890008"><ele>48.333333333333336</ele><time>2026-04-30T14:57:30.001Z</time></trkpt><trkpt lat="43.399352296251436" lon="-3.269661200569102"><ele>49.666666666666664</ele><time>2026-04-30T14:57:31.001Z</time></trkpt><trkpt lat="43.39930412400946" lon="-3.269763891690744"><ele>51.0</ele><time>2026-04-30T14:57:32.001Z</time></trkpt><trkpt lat="43.39925455839903" lon="-3.2698670089577684"><ele>51.0</ele><time>2026-04-30T14:57:33.001Z</time></trkpt><trkpt lat="43.39920497474032" lon="-3.2699679653713747"><ele>51.0</ele><time>2026-04-30T14:57:34.001Z</time></trkpt><trkpt lat="43.399154935037345" lon="-3.2700683968669595"><ele>51.0</ele><time>2026-04-30T14:57:35.001Z</time></trkpt><trkpt lat="43.399106441784944" lon="-3.270168160449031"><ele>51.0</ele><time>2026-04-30T14:57:36.001Z</time></trkpt><trkpt lat="43.39905733106646" lon="-3.2702704544435317"><ele>51.0</ele><time>2026-04-30T14:57:37.001Z</time></trkpt><trkpt lat="43.399008745981746" lon="-3.2703734708053602"><ele>51.0</ele><time>2026-04-30T14:57:38.001Z</time></trkpt><trkpt lat="43.39896141396413" lon="-3.270474005930654"><ele>51.0</ele><time>2026-04-30T14:57:39.001Z</time></trkpt><trkpt lat="43.39891444175982" lon="-3.270576962317569"><ele>51.0</ele><time>2026-04-30T14:57:40.001Z</time></trkpt><trkpt lat="43.39886720699289" lon="-3.2706796794517627"><ele>51.0</ele><time>2026-04-30T14:57:41.001Z</time></trkpt><trkpt lat="43.398823615667276" lon="-3.270777128263197"><ele>51.0</ele><time>2026-04-30T14:57:42.001Z</time></trkpt><trkpt lat="43.3987852437095" lon="-3.2708819720428135"><ele>51.0</ele><time>2026-04-30T14:57:43.001Z</time></trkpt><trkpt lat="43.39874675254299" lon="-3.2709944496797245"><ele>51.0</ele><time>2026-04-30T14:57:44.001Z</time></trkpt><trkpt lat="43.39870809903941" lon="-3.271107112552041"><ele>53.0</ele><time>2026-04-30T14:57:45.001Z</time></trkpt><trkpt lat="43.398670574093245" lon="-3.2712193571887456"><ele>55.0</ele><time>2026-04-30T14:57:46.001Z</time></trkpt><trkpt lat="43.3986330321247" lon="-3.271333845818658"><ele>56.99999999999999</ele><time>2026-04-30T14:57:47.001Z</time></trkpt><trkpt lat="43.39859758758536" lon="-3.2714504355305363"><ele>59.0</ele><time>2026-04-30T14:57:48.001Z</time></trkpt><trkpt lat="43.39856343821433" lon="-3.271567926821319"><ele>61.0</ele><time>2026-04-30T14:57:49.001Z</time></trkpt><trkpt lat="43.398531201013164" lon="-3.2716892401154567"><ele>61.0</ele><time>2026-04-30T14:57:50.001Z</time></trkpt><trkpt lat="43.3985012660979" lon="-3.2718134451287244"><ele>60.99999999999999</ele><time>2026-04-30T14:57:51.001Z</time></trkpt><trkpt lat="43.39847208032045" lon="-3.271938928908797"><ele>60.99999999999999</ele><time>2026-04-30T14:57:52.001Z</time></trkpt><trkpt lat="43.39844325130931" lon="-3.2720647322615135"><ele>61.0</ele><time>2026-04-30T14:57:53.001Z</time></trkpt><trkpt lat="43.39841756838709" lon="-3.2721921945710224"><ele>61.0</ele><time>2026-04-30T14:57:54.001Z</time></trkpt><trkpt lat="43.39839458693713" lon="-3.2723268082613197"><ele>60.199999999999996</ele><time>2026-04-30T14:57:55.001Z</time></trkpt><trkpt lat="43.398373307042014" lon="-3.2724654366276225"><ele>59.39999999999999</ele><time>2026-04-30T14:57:56.001Z</time></trkpt><trkpt lat="43.398351961613976" lon="-3.2726012538517364"><ele>58.6</ele><time>2026-04-30T14:57:57.001Z</time></trkpt><trkpt lat="43.39833211117968" lon="-3.2727399345751267"><ele>57.8</ele><time>2026-04-30T14:57:58.001Z</time></trkpt><trkpt lat="43.398314465142995" lon="-3.2728784009139122"><ele>57.0</ele><time>2026-04-30T14:57:59.001Z</time></trkpt><trkpt lat="43.39830044345586" lon="-3.2730172474040873"><ele>56.8</ele><time>2026-04-30T14:58:00.001Z</time></trkpt><trkpt lat="43.398290720055726" lon="-3.2731574755340174"><ele>56.6</ele><time>2026-04-30T14:58:01.001Z</time></trkpt><trkpt lat="43.39828000007108" lon="-3.273301272284797"><ele>56.39999999999999</ele><time>2026-04-30T14:58:02.001Z</time></trkpt><trkpt lat="43.39827070716422" lon="-3.2734431562986956"><ele>56.199999999999996</ele><time>2026-04-30T14:58:03.001Z</time></trkpt><trkpt lat="43.3982616550931" lon="-3.273582817908616"><ele>56.0</ele><time>2026-04-30T14:58:04.001Z</time></trkpt><trkpt lat="43.39825859818158" lon="-3.2737205591182423"><ele>56.0</ele><time>2026-04-30T14:58:05.001Z</time></trkpt><trkpt lat="43.39825827747374" lon="-3.273862111089971"><ele>55.99999999999999</ele><time>2026-04-30T14:58:06.001Z</time></trkpt><trkpt lat="43.39825846150043" lon="-3.274004284746431"><ele>55.99999999999999</ele><time>2026-04-30T14:58:07.001Z</time></trkpt><trkpt lat="43.39826150105913" lon="-3.274147800938252"><ele>56.0</ele><time>2026-04-30T14:58:08.001Z</time></trkpt><trkpt lat="43.39826468764797" lon="-3.2742900521158607"><ele>56.0</ele><time>2026-04-30T14:58:09.001Z</time></trkpt><trkpt lat="43.398266880581566" lon="-3.2744282177302018"><ele>56.0</ele><time>2026-04-30T14:58:10.001Z</time></trkpt><trkpt lat="43.398270426258385" lon="-3.274569325718641"><ele>55.99999999999999</ele><time>2026-04-30T14:58:11.001Z</time></trkpt><trkpt lat="43.39827832923153" lon="-3.274710281100127"><ele>55.99999999999999</ele><time>2026-04-30T14:58:12.001Z</time></trkpt><trkpt lat="43.39828923459769" lon="-3.2748463493634166"><ele>56.0</ele><time>2026-04-30T14:58:13.001Z</time></trkpt><trkpt lat="43.398300022919024" lon="-3.2749875418579792"><ele>56.0</ele><time>2026-04-30T14:58:14.001Z</time></trkpt><trkpt lat="43.39831142736356" lon="-3.2751226366198525"><ele>56.4</ele><time>2026-04-30T14:58:15.001Z</time></trkpt><trkpt lat="43.39831874093964" lon="-3.275262218986966"><ele>56.8</ele><time>2026-04-30T14:58:16.001Z</time></trkpt><trkpt lat="43.39832633621834" lon="-3.2754001822411847"><ele>57.199999999999996</ele><time>2026-04-30T14:58:17.001Z</time></trkpt><trkpt lat="43.398334738997534" lon="-3.275537622598101"><ele>57.599999999999994</ele><time>2026-04-30T14:58:18.001Z</time></trkpt><trkpt lat="43.39834285775382" lon="-3.275677857823654"><ele>58.0</ele><time>2026-04-30T14:58:19.001Z</time></trkpt><trkpt lat="43.39835227198541" lon="-3.2758148479109384"><ele>58.8</ele><time>2026-04-30T14:58:20.001Z</time></trkpt><trkpt lat="43.39836359110753" lon="-3.2759543330942003"><ele>59.599999999999994</ele><time>2026-04-30T14:58:21.001Z</time></trkpt><trkpt lat="43.39837388323449" lon="-3.27609237204858"><ele>60.400000000000006</ele><time>2026-04-30T14:58:22.001Z</time></trkpt><trkpt lat="43.39838599651991" lon="-3.276235063620937"><ele>61.2</ele><time>2026-04-30T14:58:23.001Z</time></trkpt><trkpt lat="43.39839834368202" lon="-3.2763735587119562"><ele>62.0</ele><time>2026-04-30T14:58:24.001Z</time></trkpt><trkpt lat="43.39841368523792" lon="-3.2765127956484523"><ele>62.6</ele><time>2026-04-30T14:58:25.001Z</time></trkpt><trkpt lat="43.3984313792062" lon="-3.2766521577481895"><ele>63.2</ele><time>2026-04-30T14:58:26.001Z</time></trkpt><trkpt lat="43.39845154026034" lon="-3.2767917533003934"><ele>63.8</ele><time>2026-04-30T14:58:27.001Z</time></trkpt><trkpt lat="43.39847452093098" lon="-3.276928428107392"><ele>64.4</ele><time>2026-04-30T14:58:28.001Z</time></trkpt><trkpt lat="43.398499031282945" lon="-3.2770637885908456"><ele>65.0</ele><time>2026-04-30T14:58:29.001Z</time></trkpt><trkpt lat="43.39852918431072" lon="-3.27720123041438"><ele>66.2</ele><time>2026-04-30T14:58:30.001Z</time></trkpt><trkpt lat="43.398560107621876" lon="-3.277334273252535"><ele>67.4</ele><time>2026-04-30T14:58:31.001Z</time></trkpt><trkpt lat="43.398595207072105" lon="-3.277467660969881"><ele>68.6</ele><time>2026-04-30T14:58:32.001Z</time></trkpt><trkpt lat="43.3986309874769" lon="-3.2775989485621895"><ele>69.8</ele><time>2026-04-30T14:58:33.001Z</time></trkpt><trkpt lat="43.39867176975941" lon="-3.2777302051162485"><ele>71.0</ele><time>2026-04-30T14:58:34.001Z</time></trkpt><trkpt lat="43.39871569463185" lon="-3.2778590746686818"><ele>71.0</ele><time>2026-04-30T14:58:35.001Z</time></trkpt><trkpt lat="43.39876087079842" lon="-3.2779870806396123"><ele>71.0</ele><time>2026-04-30T14:58:36.002Z</time></trkpt><trkpt lat="43.398808627138045" lon="-3.278113334227487"><ele>71.0</ele><time>2026-04-30T14:58:37.002Z</time></trkpt><trkpt lat="43.398860326172375" lon="-3.278236965993185"><ele>71.0</ele><time>2026-04-30T14:58:38.002Z</time></trkpt><trkpt lat="43.39891513772675" lon="-3.278358865974606"><ele>71.0</ele><time>2026-04-30T14:58:39.002Z</time></trkpt><trkpt lat="43.39897469778945" lon="-3.2784791153436337"><ele>71.2</ele><time>2026-04-30T14:58:40.002Z</time></trkpt><trkpt lat="43.39903491834472" lon="-3.278597179161479"><ele>71.39999999999999</ele><time>2026-04-30T14:58:41.002Z</time></trkpt><trkpt lat="43.39909696827974" lon="-3.278716561946964"><ele>71.6</ele><time>2026-04-30T14:58:42.002Z</time></trkpt><trkpt lat="43.399162931099056" lon="-3.278834479107838"><ele>71.8</ele><time>2026-04-30T14:58:43.002Z</time></trkpt><trkpt lat="43.399229273617486" lon="-3.2789474101784752"><ele>72.0</ele><time>2026-04-30T14:58:44.002Z</time></trkpt><trkpt lat="43.399302536623004" lon="-3.27905848487884"><ele>71.0</ele><time>2026-04-30T14:58:45.002Z</time></trkpt><trkpt lat="43.399374060016584" lon="-3.279169217887582"><ele>70.0</ele><time>2026-04-30T14:58:46.002Z</time></trkpt><trkpt lat="43.39944393523144" lon="-3.279282271807785"><ele>69.0</ele><time>2026-04-30T14:58:47.002Z</time></trkpt><trkpt lat="43.39951414715206" lon="-3.2793960254569146"><ele>68.0</ele><time>2026-04-30T14:58:48.002Z</time></trkpt><trkpt lat="43.399584500298666" lon="-3.2795089929230095"><ele>67.0</ele><time>2026-04-30T14:58:49.002Z</time></trkpt><trkpt lat="43.39965725857176" lon="-3.279621438000477"><ele>66.8</ele><time>2026-04-30T14:58:50.002Z</time></trkpt><trkpt lat="43.399729627730395" lon="-3.2797328635645187"><ele>66.6</ele><time>2026-04-30T14:58:51.002Z</time></trkpt><trkpt lat="43.399801628571915" lon="-3.2798454540975515"><ele>66.39999999999999</ele><time>2026-04-30T14:58:52.002Z</time></trkpt><trkpt lat="43.39987195451761" lon="-3.2799586432327517"><ele>66.2</ele><time>2026-04-30T14:58:53.002Z</time></trkpt><trkpt lat="43.399942595652924" lon="-3.280073835514134"><ele>66.0</ele><time>2026-04-30T14:58:54.002Z</time></trkpt><trkpt lat="43.40001273181151" lon="-3.280192088354964"><ele>66.0</ele><time>2026-04-30T14:58:55.002Z</time></trkpt><trkpt lat="43.400082457059845" lon="-3.2803113657388687"><ele>66.0</ele><time>2026-04-30T14:58:56.002Z</time></trkpt><trkpt lat="43.40014948206027" lon="-3.280433887595843"><ele>66.0</ele><time>2026-04-30T14:58:57.002Z</time></trkpt><trkpt lat="43.40021650460967" lon="-3.280560741155307"><ele>66.0</ele><time>2026-04-30T14:58:58.002Z</time></trkpt><trkpt lat="43.40028439228596" lon="-3.280688661373462"><ele>66.0</ele><time>2026-04-30T14:58:59.002Z</time></trkpt><trkpt lat="43.400347050202505" lon="-3.2808191003952487"><ele>66.0</ele><time>2026-04-30T14:59:00.002Z</time></trkpt><trkpt lat="43.400409269499825" lon="-3.2809509920356787"><ele>66.0</ele><time>2026-04-30T14:59:01.002Z</time></trkpt><trkpt lat="43.40046933645426" lon="-3.281085499628679"><ele>66.0</ele><time>2026-04-30T14:59:02.002Z</time></trkpt><trkpt lat="43.40052777771149" lon="-3.2812190216572885"><ele>66.25</ele><time>2026-04-30T14:59:03.002Z</time></trkpt><trkpt lat="43.40058419357186" lon="-3.281355434249258"><ele>66.5</ele><time>2026-04-30T14:59:04.002Z</time></trkpt><trkpt lat="43.400638573197675" lon="-3.2814928525805347"><ele>66.75</ele><time>2026-04-30T14:59:05.002Z</time></trkpt><trkpt lat="43.40069071312711" lon="-3.2816309557028034"><ele>67.0</ele><time>2026-04-30T14:59:06.002Z</time></trkpt><trkpt lat="43.400738466018446" lon="-3.2817696647483054"><ele>67.0</ele><time>2026-04-30T14:59:07.002Z</time></trkpt><trkpt lat="43.40078833835931" lon="-3.281911464763681"><ele>67.0</ele><time>2026-04-30T14:59:08.002Z</time></trkpt><trkpt lat="43.40083615695032" lon="-3.282051272229517"><ele>67.0</ele><time>2026-04-30T14:59:09.002Z</time></trkpt><trkpt lat="43.40088194850831" lon="-3.2821935213698747"><ele>67.0</ele><time>2026-04-30T14:59:10.002Z</time></trkpt><trkpt lat="43.400924034472546" lon="-3.2823398360219245"><ele>66.0</ele><time>2026-04-30T14:59:11.002Z</time></trkpt><trkpt lat="43.400965094469676" lon="-3.2824873920560704"><ele>65.0</ele><time>2026-04-30T14:59:12.002Z</time></trkpt><trkpt lat="43.401005151791324" lon="-3.282632223287674"><ele>64.0</ele><time>2026-04-30T14:59:13.002Z</time></trkpt><trkpt lat="43.401043752468844" lon="-3.2827784397710786"><ele>63.0</ele><time>2026-04-30T14:59:14.002Z</time></trkpt><trkpt lat="43.40108114274948" lon="-3.282923861783087"><ele>63.0</ele><time>2026-04-30T14:59:15.002Z</time></trkpt><trkpt lat="43.401117725594" lon="-3.2830708110714473"><ele>63.0</ele><time>2026-04-30T14:59:16.002Z</time></trkpt><trkpt lat="43.40115502291307" lon="-3.283217328707172"><ele>63.0</ele><time>2026-04-30T14:59:17Z</time></trkpt><trkpt lat="43.40119037871514" lon="-3.2833654608687937"><ele>63.0</ele><time>2026-04-30T14:59:18Z</time></trkpt><trkpt lat="43.40122517541495" lon="-3.2835150959529127"><ele>63.0</ele><time>2026-04-30T14:59:19Z</time></trkpt><trkpt lat="43.40125976806286" lon="-3.2836650155005693"><ele>63.0</ele><time>2026-04-30T14:59:20Z</time></trkpt><trkpt lat="43.40129447475389" lon="-3.283817298382549"><ele>63.0</ele><time>2026-04-30T14:59:21Z</time></trkpt><trkpt lat="43.40132859584565" lon="-3.2839686481141985"><ele>63.0</ele><time>2026-04-30T14:59:22Z</time></trkpt><trkpt lat="43.401365215605296" lon="-3.2841196764284484"><ele>62.5</ele><time>2026-04-30T14:59:23Z</time></trkpt><trkpt lat="43.40140100730096" lon="-3.284268725817814"><ele>62.0</ele><time>2026-04-30T14:59:24Z</time></trkpt><trkpt lat="43.401436360701304" lon="-3.284416806669087"><ele>61.5</ele><time>2026-04-30T14:59:25Z</time></trkpt><trkpt lat="43.401469759905595" lon="-3.2845627134265656"><ele>61.0</ele><time>2026-04-30T14:59:26Z</time></trkpt><trkpt lat="43.40150267250984" lon="-3.2847119974545005"><ele>60.75</ele><time>2026-04-30T14:59:27Z</time></trkpt><trkpt lat="43.40153840517858" lon="-3.2848601746108788"><ele>60.5</ele><time>2026-04-30T14:59:28Z</time></trkpt><trkpt lat="43.401572737411" lon="-3.2850081338196846"><ele>60.25</ele><time>2026-04-30T14:59:29Z</time></trkpt><trkpt lat="43.40160743446672" lon="-3.285154409396668"><ele>60.0</ele><time>2026-04-30T14:59:30Z</time></trkpt><trkpt lat="43.40164024213623" lon="-3.2853012154051715"><ele>60.0</ele><time>2026-04-30T14:59:31Z</time></trkpt><trkpt lat="43.40167278672967" lon="-3.2854486316214224"><ele>60.0</ele><time>2026-04-30T14:59:32Z</time></trkpt><trkpt lat="43.40170865046376" lon="-3.285596561016898"><ele>60.0</ele><time>2026-04-30T14:59:33Z</time></trkpt><trkpt lat="43.401745598089455" lon="-3.2857437611192033"><ele>60.0</ele><time>2026-04-30T14:59:34Z</time></trkpt><trkpt lat="43.401780560803026" lon="-3.2858878494862114"><ele>60.0</ele><time>2026-04-30T14:59:35Z</time></trkpt><trkpt lat="43.40181447443817" lon="-3.286036750511153"><ele>60.0</ele><time>2026-04-30T14:59:36Z</time></trkpt><trkpt lat="43.401847835017094" lon="-3.2861850428621233"><ele>60.0</ele><time>2026-04-30T14:59:37Z</time></trkpt><trkpt lat="43.40188168820296" lon="-3.286332506197024"><ele>60.0</ele><time>2026-04-30T14:59:38Z</time></trkpt><trkpt lat="43.40191531281517" lon="-3.286480846951403"><ele>60.0</ele><time>2026-04-30T14:59:39Z</time></trkpt><trkpt lat="43.401947062764144" lon="-3.2866284395246264"><ele>60.0</ele><time>2026-04-30T14:59:40Z</time></trkpt><trkpt lat="43.401980848934784" lon="-3.286774974649734"><ele>60.0</ele><time>2026-04-30T14:59:41Z</time></trkpt><trkpt lat="43.40201500931669" lon="-3.28692148539147"><ele>60.0</ele><time>2026-04-30T14:59:42Z</time></trkpt><trkpt lat="43.40204785723993" lon="-3.287065198966777"><ele>60.0</ele><time>2026-04-30T14:59:43.001Z</time></trkpt><trkpt lat="43.40208037838717" lon="-3.2872095619740023"><ele>60.0</ele><time>2026-04-30T14:59:44.001Z</time></trkpt><trkpt lat="43.40211114838905" lon="-3.287353189390424"><ele>60.8</ele><time>2026-04-30T14:59:45.001Z</time></trkpt><trkpt lat="43.40213951694097" lon="-3.287495758116856"><ele>61.6</ele><time>2026-04-30T14:59:46.001Z</time></trkpt><trkpt lat="43.40217020406826" lon="-3.2876361541293706"><ele>62.400000000000006</ele><time>2026-04-30T14:59:47.001Z</time></trkpt><trkpt lat="43.40219976361274" lon="-3.287776545129844"><ele>63.2</ele><time>2026-04-30T14:59:48.001Z</time></trkpt><trkpt lat="43.402226793544614" lon="-3.2879163516658845"><ele>64.0</ele><time>2026-04-30T14:59:49.001Z</time></trkpt><trkpt lat="43.40225450430103" lon="-3.2880570276475374"><ele>62.400000000000006</ele><time>2026-04-30T14:59:50.001Z</time></trkpt><trkpt lat="43.402281593810805" lon="-3.2881977318357176"><ele>60.800000000000004</ele><time>2026-04-30T14:59:51.001Z</time></trkpt><trkpt lat="43.402308691509525" lon="-3.288339199937367"><ele>59.199999999999996</ele><time>2026-04-30T14:59:52.001Z</time></trkpt><trkpt lat="43.40233518732104" lon="-3.2884825605848107"><ele>57.599999999999994</ele><time>2026-04-30T14:59:53.001Z</time></trkpt><trkpt lat="43.40236440277877" lon="-3.288625699647944"><ele>56.0</ele><time>2026-04-30T14:59:54.001Z</time></trkpt><trkpt lat="43.402394648893356" lon="-3.2887687495242535"><ele>56.0</ele><time>2026-04-30T14:59:55.001Z</time></trkpt><trkpt lat="43.402424757847655" lon="-3.2889130631864543"><ele>55.99999999999999</ele><time>2026-04-30T14:59:56.001Z</time></trkpt><trkpt lat="43.40245359486696" lon="-3.289060906959822"><ele>55.99999999999999</ele><time>2026-04-30T14:59:57.001Z</time></trkpt><trkpt lat="43.40248134916145" lon="-3.2892089626806507"><ele>56.0</ele><time>2026-04-30T14:59:58.001Z</time></trkpt><trkpt lat="43.40250892147962" lon="-3.2893604152468545"><ele>56.0</ele><time>2026-04-30T14:59:59.001Z</time></trkpt><trkpt lat="43.40253647012699" lon="-3.289511643216892"><ele>56.0</ele><time>2026-04-30T15:00:00.001Z</time></trkpt><trkpt lat="43.402562210302456" lon="-3.289662536846134"><ele>56.0</ele><time>2026-04-30T15:00:01.001Z</time></trkpt><trkpt lat="43.40258868353796" lon="-3.2898153891796467"><ele>56.0</ele><time>2026-04-30T15:00:02.001Z</time></trkpt><trkpt lat="43.40261755283724" lon="-3.289965427873694"><ele>56.0</ele><time>2026-04-30T15:00:03.001Z</time></trkpt><trkpt lat="43.40264578196014" lon="-3.290112524157337"><ele>56.0</ele><time>2026-04-30T15:00:04.001Z</time></trkpt><trkpt lat="43.40267166131402" lon="-3.29026340017638"><ele>56.0</ele><time>2026-04-30T15:00:05.001Z</time></trkpt><trkpt lat="43.40269680115429" lon="-3.2904172243256475"><ele>56.0</ele><time>2026-04-30T15:00:06.001Z</time></trkpt><trkpt lat="43.40272218498187" lon="-3.290571960714774"><ele>56.0</ele><time>2026-04-30T15:00:07.001Z</time></trkpt><trkpt lat="43.40274919606062" lon="-3.2907277932957673"><ele>55.75</ele><time>2026-04-30T15:00:08.001Z</time></trkpt><trkpt lat="43.40277981982449" lon="-3.2908829982455696"><ele>55.5</ele><time>2026-04-30T15:00:09.001Z</time></trkpt><trkpt lat="43.4028077512052" lon="-3.29103909956314"><ele>55.25</ele><time>2026-04-30T15:00:10.001Z</time></trkpt><trkpt lat="43.40283575576481" lon="-3.2911929149789447"><ele>55.0</ele><time>2026-04-30T15:00:11.001Z</time></trkpt><trkpt lat="43.402861732221" lon="-3.2913483636918848"><ele>54.25</ele><time>2026-04-30T15:00:12.001Z</time></trkpt><trkpt lat="43.40288884355652" lon="-3.2915045895483948"><ele>53.5</ele><time>2026-04-30T15:00:13.001Z</time></trkpt><trkpt lat="43.402918169155164" lon="-3.2916629820191"><ele>52.75</ele><time>2026-04-30T15:00:14.001Z</time></trkpt><trkpt lat="43.40294843508741" lon="-3.2918175306481343"><ele>52.0</ele><time>2026-04-30T15:00:15.001Z</time></trkpt><trkpt lat="43.402975619615155" lon="-3.2919692464998076"><ele>51.25</ele><time>2026-04-30T15:00:16.001Z</time></trkpt><trkpt lat="43.40300156627879" lon="-3.2921219966353346"><ele>50.5</ele><time>2026-04-30T15:00:17.001Z</time></trkpt><trkpt lat="43.40302625914447" lon="-3.2922761891359205"><ele>49.75</ele><time>2026-04-30T15:00:18.001Z</time></trkpt><trkpt lat="43.40305166919441" lon="-3.292426698257113"><ele>49.0</ele><time>2026-04-30T15:00:19.001Z</time></trkpt><trkpt lat="43.40307488670252" lon="-3.2925774862869206"><ele>48.800000000000004</ele><time>2026-04-30T15:00:20.001Z</time></trkpt><trkpt lat="43.40309715527468" lon="-3.292721669129563"><ele>48.6</ele><time>2026-04-30T15:00:21.001Z</time></trkpt><trkpt lat="43.40312237574349" lon="-3.2928695381798874"><ele>48.4</ele><time>2026-04-30T15:00:22.001Z</time></trkpt><trkpt lat="43.40314898255228" lon="-3.2930124547566586"><ele>48.2</ele><time>2026-04-30T15:00:23.001Z</time></trkpt><trkpt lat="43.403173137140364" lon="-3.2931586121508465"><ele>48.0</ele><time>2026-04-30T15:00:24.001Z</time></trkpt><trkpt lat="43.40319791034155" lon="-3.293306046179798"><ele>47.8</ele><time>2026-04-30T15:00:25.001Z</time></trkpt><trkpt lat="43.40322518798444" lon="-3.2934518891209428"><ele>47.599999999999994</ele><time>2026-04-30T15:00:26.001Z</time></trkpt><trkpt lat="43.403253840512356" lon="-3.293597999855902"><ele>47.400000000000006</ele><time>2026-04-30T15:00:27.001Z</time></trkpt><trkpt lat="43.40327886119834" lon="-3.293743925325054"><ele>47.2</ele><time>2026-04-30T15:00:28.001Z</time></trkpt><trkpt lat="43.40330429826468" lon="-3.293888634655383"><ele>47.0</ele><time>2026-04-30T15:00:29.001Z</time></trkpt><trkpt lat="43.40333173968244" lon="-3.2940359449374723"><ele>46.5</ele><time>2026-04-30T15:00:30.001Z</time></trkpt><trkpt lat="43.40335869479112" lon="-3.2941867237209626"><ele>46.0</ele><time>2026-04-30T15:00:31.001Z</time></trkpt><trkpt lat="43.40338562937964" lon="-3.2943364499607997"><ele>45.5</ele><time>2026-04-30T15:00:32.001Z</time></trkpt><trkpt lat="43.403413529500654" lon="-3.294487115474085"><ele>45.0</ele><time>2026-04-30T15:00:33.001Z</time></trkpt><trkpt lat="43.40344081392098" lon="-3.294637847613707"><ele>44.6</ele><time>2026-04-30T15:00:34.001Z</time></trkpt><trkpt lat="43.40346678192262" lon="-3.2947892278908193"><ele>44.2</ele><time>2026-04-30T15:00:35.001Z</time></trkpt><trkpt lat="43.40349116389638" lon="-3.294940385499632"><ele>43.8</ele><time>2026-04-30T15:00:36.001Z</time></trkpt><trkpt lat="43.40351463579464" lon="-3.2950848380100655"><ele>43.4</ele><time>2026-04-30T15:00:37.001Z</time></trkpt><trkpt lat="43.40353145569517" lon="-3.2952177706262513"><ele>43.0</ele><time>2026-04-30T15:00:38.001Z</time></trkpt><trkpt lat="43.40355691619719" lon="-3.2953783600565023"><ele>43.0</ele><time>2026-04-30T15:00:39.001Z</time></trkpt><trkpt lat="43.40358228320151" lon="-3.2955217905086536"><ele>43.0</ele><time>2026-04-30T15:00:40.001Z</time></trkpt><trkpt lat="43.40360600528755" lon="-3.295664864915787"><ele>43.0</ele><time>2026-04-30T15:00:41.001Z</time></trkpt><trkpt lat="43.403632880537394" lon="-3.295813833206123"><ele>43.0</ele><time>2026-04-30T15:00:42.001Z</time></trkpt><trkpt lat="43.40365702701861" lon="-3.295958709155768"><ele>43.0</ele><time>2026-04-30T15:00:43.001Z</time></trkpt><trkpt lat="43.403683382899004" lon="-3.2961042055847525"><ele>43.4</ele><time>2026-04-30T15:00:44.001Z</time></trkpt><trkpt lat="43.4037083059893" lon="-3.2962478754505256"><ele>43.8</ele><time>2026-04-30T15:00:45.001Z</time></trkpt><trkpt lat="43.40373433719242" lon="-3.2963913426039144"><ele>44.2</ele><time>2026-04-30T15:00:46.001Z</time></trkpt><trkpt lat="43.40375686742605" lon="-3.2965331904235726"><ele>44.6</ele><time>2026-04-30T15:00:47.002Z</time></trkpt><trkpt lat="43.40378095548729" lon="-3.296677054640068"><ele>45.0</ele><time>2026-04-30T15:00:48.002Z</time></trkpt><trkpt lat="43.40380217323232" lon="-3.296817829535943"><ele>45.0</ele><time>2026-04-30T15:00:49.002Z</time></trkpt><trkpt lat="43.40382611714891" lon="-3.2969602172079004"><ele>45.0</ele><time>2026-04-30T15:00:50.002Z</time></trkpt><trkpt lat="43.40384985532535" lon="-3.2971018223288686"><ele>45.0</ele><time>2026-04-30T15:00:51.002Z</time></trkpt><trkpt lat="43.40387210422217" lon="-3.297241569377288"><ele>45.0</ele><time>2026-04-30T15:00:52.002Z</time></trkpt><trkpt lat="43.40389306485598" lon="-3.2973750359597407"><ele>45.0</ele><time>2026-04-30T15:00:53.002Z</time></trkpt><trkpt lat="43.40391577223151" lon="-3.2975101789623062"><ele>42.8</ele><time>2026-04-30T15:00:54.002Z</time></trkpt><trkpt lat="43.40394103678127" lon="-3.2976455448902975"><ele>40.6</ele><time>2026-04-30T15:00:55.002Z</time></trkpt><trkpt lat="43.40396347838388" lon="-3.2977852564113066"><ele>38.4</ele><time>2026-04-30T15:00:56.002Z</time></trkpt><trkpt lat="43.40398416564781" lon="-3.297920539383356"><ele>36.2</ele><time>2026-04-30T15:00:57.002Z</time></trkpt><trkpt lat="43.40400860126238" lon="-3.2980537901213047"><ele>34.0</ele><time>2026-04-30T15:00:58.002Z</time></trkpt><trkpt lat="43.40403158170841" lon="-3.298189159459583"><ele>34.0</ele><time>2026-04-30T15:00:59.002Z</time></trkpt><trkpt lat="43.40405472835692" lon="-3.2983315629418866"><ele>34.0</ele><time>2026-04-30T15:01:00.002Z</time></trkpt><trkpt lat="43.40407784751777" lon="-3.298465722509397"><ele>34.0</ele><time>2026-04-30T15:01:01.002Z</time></trkpt><trkpt lat="43.40409977469392" lon="-3.2985973797791606"><ele>34.0</ele><time>2026-04-30T15:01:02.002Z</time></trkpt><trkpt lat="43.404123226365364" lon="-3.298730483618925"><ele>34.0</ele><time>2026-04-30T15:01:03.002Z</time></trkpt><trkpt lat="43.40414666753584" lon="-3.2988598380013925"><ele>33.8</ele><time>2026-04-30T15:01:04.002Z</time></trkpt><trkpt lat="43.40416972178978" lon="-3.2989924857251456"><ele>33.599999999999994</ele><time>2026-04-30T15:01:05.002Z</time></trkpt><trkpt lat="43.404188881069736" lon="-3.2991305569022207"><ele>33.4</ele><time>2026-04-30T15:01:06.002Z</time></trkpt><trkpt lat="43.40420991158512" lon="-3.2992635696431996"><ele>33.199999999999996</ele><time>2026-04-30T15:01:07.002Z</time></trkpt><trkpt lat="43.40422757874845" lon="-3.299396208105964"><ele>33.0</ele><time>2026-04-30T15:01:08.002Z</time></trkpt><trkpt lat="43.4042424736652" lon="-3.299526499815658"><ele>33.0</ele><time>2026-04-30T15:01:09.002Z</time></trkpt><trkpt lat="43.40424571386283" lon="-3.299659455232426"><ele>33.0</ele><time>2026-04-30T15:01:10.002Z</time></trkpt><trkpt lat="43.40423664890069" lon="-3.2997881600163623"><ele>33.0</ele><time>2026-04-30T15:01:11.002Z</time></trkpt><trkpt lat="43.40421883647523" lon="-3.299915838037735"><ele>33.0</ele><time>2026-04-30T15:01:12.002Z</time></trkpt><trkpt lat="43.404196051205176" lon="-3.300046585923278"><ele>33.0</ele><time>2026-04-30T15:01:13.002Z</time></trkpt><trkpt lat="43.40417233813659" lon="-3.300173718743822"><ele>32.6</ele><time>2026-04-30T15:01:14.002Z</time></trkpt><trkpt lat="43.40414346142801" lon="-3.3003009612318635"><ele>32.199999999999996</ele><time>2026-04-30T15:01:15.002Z</time></trkpt><trkpt lat="43.4041127983808" lon="-3.300436585551904"><ele>31.8</ele><time>2026-04-30T15:01:16.002Z</time></trkpt><trkpt lat="43.40408270754596" lon="-3.3005818748124005"><ele>31.4</ele><time>2026-04-30T15:01:17.002Z</time></trkpt><trkpt lat="43.40407823537583" lon="-3.300764084783751"><ele>31.0</ele><time>2026-04-30T15:01:18.002Z</time></trkpt><trkpt lat="43.40405487919182" lon="-3.3009206162775384"><ele>31.200000000000003</ele><time>2026-04-30T15:01:19.002Z</time></trkpt><trkpt lat="43.403971631027545" lon="-3.300976311180402"><ele>31.400000000000002</ele><time>2026-04-30T15:01:20.002Z</time></trkpt><trkpt lat="43.40393292591926" lon="-3.3011049896773157"><ele>31.6</ele><time>2026-04-30T15:01:21.002Z</time></trkpt><trkpt lat="43.40389324154781" lon="-3.301233762575298"><ele>31.8</ele><time>2026-04-30T15:01:22.002Z</time></trkpt><trkpt lat="43.40386994984165" lon="-3.301384659077597"><ele>32.0</ele><time>2026-04-30T15:01:23Z</time></trkpt><trkpt lat="43.40382908035492" lon="-3.3015097716703723"><ele>32.0</ele><time>2026-04-30T15:01:24Z</time></trkpt><trkpt lat="43.40379151079448" lon="-3.301634445464792"><ele>32.0</ele><time>2026-04-30T15:01:25.001Z</time></trkpt><trkpt lat="43.403743515662576" lon="-3.301743606949381"><ele>32.0</ele><time>2026-04-30T15:01:26Z</time></trkpt><trkpt lat="43.4037305129301" lon="-3.3019172824366194"><ele>32.0</ele><time>2026-04-30T15:01:27Z</time></trkpt><trkpt lat="43.4037757167823" lon="-3.302120734010181"><ele>31.0</ele><time>2026-04-30T15:01:28Z</time></trkpt><trkpt lat="43.403828958668875" lon="-3.3023333116819162"><ele>30.0</ele><time>2026-04-30T15:01:29Z</time></trkpt><trkpt lat="43.403629295976124" lon="-3.3023151120705734"><ele>29.0</ele><time>2026-04-30T15:01:30Z</time></trkpt><trkpt lat="43.40359314593413" lon="-3.3024441519145924"><ele>29.0</ele><time>2026-04-30T15:01:31Z</time></trkpt><trkpt lat="43.40355538992639" lon="-3.302574782673249"><ele>29.0</ele><time>2026-04-30T15:01:32Z</time></trkpt><trkpt lat="43.40358844178171" lon="-3.302738142657391"><ele>29.0</ele><time>2026-04-30T15:01:33Z</time></trkpt><trkpt lat="43.4035717424912" lon="-3.3028612859503026"><ele>29.0</ele><time>2026-04-30T15:01:34Z</time></trkpt><trkpt lat="43.403454407326684" lon="-3.3029732919524126"><ele>28.2</ele><time>2026-04-30T15:01:35Z</time></trkpt><trkpt lat="43.40341900964715" lon="-3.303107609955669"><ele>27.4</ele><time>2026-04-30T15:01:36Z</time></trkpt><trkpt lat="43.40338220322995" lon="-3.3032408909412374"><ele>26.6</ele><time>2026-04-30T15:01:37Z</time></trkpt><trkpt lat="43.40334530444158" lon="-3.303375812919752"><ele>25.8</ele><time>2026-04-30T15:01:38Z</time></trkpt><trkpt lat="43.403309860532815" lon="-3.3035128392899846"><ele>25.0</ele><time>2026-04-30T15:01:39Z</time></trkpt><trkpt lat="43.40327243613001" lon="-3.303647713460414"><ele>25.0</ele><time>2026-04-30T15:01:40Z</time></trkpt><trkpt lat="43.40323431811258" lon="-3.3037833190368775"><ele>25.0</ele><time>2026-04-30T15:01:41Z</time></trkpt><trkpt lat="43.4031964181877" lon="-3.30392492976665"><ele>25.0</ele><time>2026-04-30T15:01:42Z</time></trkpt><trkpt lat="43.403163712686144" lon="-3.3040645870724434"><ele>25.0</ele><time>2026-04-30T15:01:43Z</time></trkpt><trkpt lat="43.403132927641174" lon="-3.3042094734235246"><ele>25.0</ele><time>2026-04-30T15:01:44Z</time></trkpt><trkpt lat="43.403103861418586" lon="-3.304353288099769"><ele>24.4</ele><time>2026-04-30T15:01:45Z</time></trkpt><trkpt lat="43.40307601786892" lon="-3.3045006016859504"><ele>23.8</ele><time>2026-04-30T15:01:46Z</time></trkpt><trkpt lat="43.403054064902" lon="-3.3046487678840077"><ele>23.200000000000003</ele><time>2026-04-30T15:01:47Z</time></trkpt><trkpt lat="43.403044032254925" lon="-3.3047976522879297"><ele>22.6</ele><time>2026-04-30T15:01:48Z</time></trkpt><trkpt lat="43.40303676682834" lon="-3.30494583741207"><ele>22.0</ele><time>2026-04-30T15:01:49Z</time></trkpt><trkpt lat="43.4030308398092" lon="-3.3050910776114746"><ele>21.400000000000002</ele><time>2026-04-30T15:01:50Z</time></trkpt><trkpt lat="43.403036068685445" lon="-3.3052448825173655"><ele>20.8</ele><time>2026-04-30T15:01:51Z</time></trkpt><trkpt lat="43.40304871986445" lon="-3.305392222454605"><ele>20.2</ele><time>2026-04-30T15:01:52Z</time></trkpt><trkpt lat="43.40304412374716" lon="-3.3055433556809817"><ele>19.6</ele><time>2026-04-30T15:01:53.001Z</time></trkpt><trkpt lat="43.40304126936049" lon="-3.3056927985318114"><ele>19.0</ele><time>2026-04-30T15:01:54.001Z</time></trkpt><trkpt lat="43.40304315853899" lon="-3.3058429542682046"><ele>19.0</ele><time>2026-04-30T15:01:55.001Z</time></trkpt><trkpt lat="43.40303822912165" lon="-3.3059915088040714"><ele>19.0</ele><time>2026-04-30T15:01:56.001Z</time></trkpt><trkpt lat="43.40303688298739" lon="-3.306141238170936"><ele>19.0</ele><time>2026-04-30T15:01:57.001Z</time></trkpt><trkpt lat="43.40303546318216" lon="-3.306290689498817"><ele>19.0</ele><time>2026-04-30T15:01:58.001Z</time></trkpt><trkpt lat="43.40303517163137" lon="-3.3064404895593755"><ele>19.0</ele><time>2026-04-30T15:01:59.001Z</time></trkpt><trkpt lat="43.403034010045104" lon="-3.3065902705343992"><ele>19.4</ele><time>2026-04-30T15:02:00.001Z</time></trkpt><trkpt lat="43.40302818223207" lon="-3.3067396134554583"><ele>19.799999999999997</ele><time>2026-04-30T15:02:01.001Z</time></trkpt><trkpt lat="43.40302693826317" lon="-3.3068888751452494"><ele>20.200000000000003</ele><time>2026-04-30T15:02:02.001Z</time></trkpt><trkpt lat="43.40302405368065" lon="-3.307037202075891"><ele>20.6</ele><time>2026-04-30T15:02:03.001Z</time></trkpt><trkpt lat="43.40302028030778" lon="-3.3071864228913013"><ele>21.0</ele><time>2026-04-30T15:02:04.001Z</time></trkpt><trkpt lat="43.40301843895007" lon="-3.307331951936213"><ele>20.2</ele><time>2026-04-30T15:02:05.001Z</time></trkpt><trkpt lat="43.403021916544404" lon="-3.3074829254595155"><ele>19.400000000000002</ele><time>2026-04-30T15:02:06.001Z</time></trkpt><trkpt lat="43.40302204400573" lon="-3.3076320528660523"><ele>18.6</ele><time>2026-04-30T15:02:07.001Z</time></trkpt><trkpt lat="43.40301727542568" lon="-3.30778242403066"><ele>17.8</ele><time>2026-04-30T15:02:08.001Z</time></trkpt><trkpt lat="43.4030156996456" lon="-3.307931937857837"><ele>17.0</ele><time>2026-04-30T15:02:09.001Z</time></trkpt><trkpt lat="43.40301243049794" lon="-3.3080809641285547"><ele>16.6</ele><time>2026-04-30T15:02:10.001Z</time></trkpt><trkpt lat="43.403010327003635" lon="-3.3082306631142804"><ele>16.2</ele><time>2026-04-30T15:02:11.001Z</time></trkpt><trkpt lat="43.403007406822034" lon="-3.3083814847597304"><ele>15.8</ele><time>2026-04-30T15:02:12.001Z</time></trkpt><trkpt lat="43.40300488254082" lon="-3.30853180863752"><ele>15.4</ele><time>2026-04-30T15:02:13.001Z</time></trkpt><trkpt lat="43.40300325297962" lon="-3.308680956529613"><ele>15.0</ele><time>2026-04-30T15:02:14.001Z</time></trkpt><trkpt lat="43.403008031479594" lon="-3.3088325581213742"><ele>14.6</ele><time>2026-04-30T15:02:15.001Z</time></trkpt><trkpt lat="43.4030087974558" lon="-3.308982328137187"><ele>14.2</ele><time>2026-04-30T15:02:16.001Z</time></trkpt><trkpt lat="43.40301011217074" lon="-3.3091331520413734"><ele>13.8</ele><time>2026-04-30T15:02:17.001Z</time></trkpt><trkpt lat="43.40302455987072" lon="-3.3092818765691736"><ele>13.4</ele><time>2026-04-30T15:02:18.001Z</time></trkpt><trkpt lat="43.40304139026567" lon="-3.3094317610318464"><ele>13.0</ele><time>2026-04-30T15:02:19.001Z</time></trkpt><trkpt lat="43.40305915613381" lon="-3.3095785185709303"><ele>13.0</ele><time>2026-04-30T15:02:20.001Z</time></trkpt><trkpt lat="43.40308101881616" lon="-3.3097283101318453"><ele>13.0</ele><time>2026-04-30T15:02:21.001Z</time></trkpt><trkpt lat="43.403106087697324" lon="-3.3098751774020334"><ele>13.0</ele><time>2026-04-30T15:02:22.001Z</time></trkpt><trkpt lat="43.40313468410306" lon="-3.310020573736821"><ele>13.0</ele><time>2026-04-30T15:02:23.001Z</time></trkpt><trkpt lat="43.403165831165985" lon="-3.3101652865959377"><ele>13.0</ele><time>2026-04-30T15:02:24.001Z</time></trkpt><trkpt lat="43.40319420584048" lon="-3.310312278710018"><ele>13.600000000000001</ele><time>2026-04-30T15:02:25.001Z</time></trkpt><trkpt lat="43.40322901138913" lon="-3.3104545474620775"><ele>14.200000000000001</ele><time>2026-04-30T15:02:26.001Z</time></trkpt><trkpt lat="43.40326193477797" lon="-3.310598305981071"><ele>14.8</ele><time>2026-04-30T15:02:27.001Z</time></trkpt><trkpt lat="43.40329683121389" lon="-3.3107398996323476"><ele>15.4</ele><time>2026-04-30T15:02:28.001Z</time></trkpt><trkpt lat="43.403326006651355" lon="-3.3108837990898032"><ele>16.0</ele><time>2026-04-30T15:02:29.001Z</time></trkpt><trkpt lat="43.40335522794263" lon="-3.311027705469039"><ele>17.6</ele><time>2026-04-30T15:02:30.001Z</time></trkpt><trkpt lat="43.40338281477792" lon="-3.3111699401929204"><ele>19.200000000000003</ele><time>2026-04-30T15:02:31.001Z</time></trkpt><trkpt lat="43.40340742338453" lon="-3.311306143527644"><ele>20.799999999999997</ele><time>2026-04-30T15:02:32.001Z</time></trkpt><trkpt lat="43.40342450252058" lon="-3.3114278764274125"><ele>22.4</ele><time>2026-04-30T15:02:33.001Z</time></trkpt><trkpt lat="43.40343644024486" lon="-3.311545721508779"><ele>24.0</ele><time>2026-04-30T15:02:34.001Z</time></trkpt><trkpt lat="43.40344078481437" lon="-3.311659185835863"><ele>24.0</ele><time>2026-04-30T15:02:35.001Z</time></trkpt><trkpt lat="43.40343741269267" lon="-3.3117669209439398"><ele>24.0</ele><time>2026-04-30T15:02:36.001Z</time></trkpt><trkpt lat="43.40342638180164" lon="-3.311878570608814"><ele>24.0</ele><time>2026-04-30T15:02:37.001Z</time></trkpt><trkpt lat="43.403407553244556" lon="-3.3119919898716565"><ele>24.0</ele><time>2026-04-30T15:02:38.001Z</time></trkpt><trkpt lat="43.40338765402906" lon="-3.3121084111940244"><ele>24.0</ele><time>2026-04-30T15:02:39.001Z</time></trkpt><trkpt lat="43.40336882288839" lon="-3.3122239313360162"><ele>24.0</ele><time>2026-04-30T15:02:40.001Z</time></trkpt><trkpt lat="43.40334772266915" lon="-3.3123505491204663"><ele>22.5</ele><time>2026-04-30T15:02:41.001Z</time></trkpt><trkpt lat="43.40332341162642" lon="-3.3124578544447543"><ele>21.0</ele><time>2026-04-30T15:02:42.001Z</time></trkpt><trkpt lat="43.40329513320948" lon="-3.312562552377982"><ele>19.5</ele><time>2026-04-30T15:02:43.001Z</time></trkpt><trkpt lat="43.40326159132762" lon="-3.312672071161384"><ele>18.0</ele><time>2026-04-30T15:02:44.001Z</time></trkpt><trkpt lat="43.403225091780044" lon="-3.312777840388962"><ele>16.5</ele><time>2026-04-30T15:02:45.001Z</time></trkpt><trkpt lat="43.403185732343545" lon="-3.312873890431527"><ele>15.0</ele><time>2026-04-30T15:02:46.001Z</time></trkpt><trkpt lat="43.40314133675879" lon="-3.312963676014822"><ele>15.0</ele><time>2026-04-30T15:02:47.001Z</time></trkpt><trkpt lat="43.40309257991732" lon="-3.313053140783677"><ele>15.0</ele><time>2026-04-30T15:02:48.001Z</time></trkpt><trkpt lat="43.403042158347624" lon="-3.3131451739425595"><ele>15.0</ele><time>2026-04-30T15:02:49.001Z</time></trkpt><trkpt lat="43.402990075920265" lon="-3.3132411172741434"><ele>15.0</ele><time>2026-04-30T15:02:50.001Z</time></trkpt><trkpt lat="43.40293658113066" lon="-3.313333471543325"><ele>15.0</ele><time>2026-04-30T15:02:51.001Z</time></trkpt><trkpt lat="43.40288084858385" lon="-3.313429615405632"><ele>15.0</ele><time>2026-04-30T15:02:52.001Z</time></trkpt><trkpt lat="43.40282305088314" lon="-3.3135396749893236"><ele>17.25</ele><time>2026-04-30T15:02:53.001Z</time></trkpt><trkpt lat="43.402740916175915" lon="-3.313678957833192"><ele>19.5</ele><time>2026-04-30T15:02:54.001Z</time></trkpt><trkpt lat="43.4026447396305" lon="-3.3138015274990122"><ele>21.75</ele><time>2026-04-30T15:02:56.001Z</time></trkpt><trkpt lat="43.402591122590636" lon="-3.3139052289211985"><ele>24.0</ele><time>2026-04-30T15:02:57.001Z</time></trkpt><trkpt lat="43.40254229239856" lon="-3.314018793337068"><ele>24.0</ele><time>2026-04-30T15:02:58.001Z</time></trkpt><trkpt lat="43.40249700770758" lon="-3.314138675134206"><ele>24.0</ele><time>2026-04-30T15:02:59.001Z</time></trkpt><trkpt lat="43.40245494750174" lon="-3.3142553596875923"><ele>24.0</ele><time>2026-04-30T15:03:00.001Z</time></trkpt><trkpt lat="43.40242271557877" lon="-3.314377692979228"><ele>24.0</ele><time>2026-04-30T15:03:01.001Z</time></trkpt><trkpt lat="43.402383867668775" lon="-3.314496900765496"><ele>24.0</ele><time>2026-04-30T15:03:02.001Z</time></trkpt><trkpt lat="43.40234293137615" lon="-3.314613211886601"><ele>24.0</ele><time>2026-04-30T15:03:03.001Z</time></trkpt><trkpt lat="43.40230471234006" lon="-3.314734044660247"><ele>24.0</ele><time>2026-04-30T15:03:04.002Z</time></trkpt><trkpt lat="43.40226237003386" lon="-3.3148546915312287"><ele>24.0</ele><time>2026-04-30T15:03:05.002Z</time></trkpt><trkpt lat="43.40222343611565" lon="-3.314969399955315"><ele>24.0</ele><time>2026-04-30T15:03:06.002Z</time></trkpt><trkpt lat="43.40218207067079" lon="-3.315090359831652"><ele>24.0</ele><time>2026-04-30T15:03:07.002Z</time></trkpt><trkpt lat="43.402140367499754" lon="-3.3152102129167758"><ele>22.599999999999998</ele><time>2026-04-30T15:03:08.002Z</time></trkpt><trkpt lat="43.402098931902344" lon="-3.3153289031697524"><ele>21.2</ele><time>2026-04-30T15:03:09.002Z</time></trkpt><trkpt lat="43.402049096912684" lon="-3.3154369665329675"><ele>19.799999999999997</ele><time>2026-04-30T15:03:10.002Z</time></trkpt><trkpt lat="43.40200352310962" lon="-3.315541094292219"><ele>18.4</ele><time>2026-04-30T15:03:11.002Z</time></trkpt><trkpt lat="43.40194849303418" lon="-3.3156369321476538"><ele>17.0</ele><time>2026-04-30T15:03:12.002Z</time></trkpt><trkpt lat="43.40188981117495" lon="-3.315727009157506"><ele>17.0</ele><time>2026-04-30T15:03:13.002Z</time></trkpt><trkpt lat="43.401824579172064" lon="-3.315812840695167"><ele>17.0</ele><time>2026-04-30T15:03:14.002Z</time></trkpt><trkpt lat="43.401751964168604" lon="-3.3158854216936517"><ele>17.0</ele><time>2026-04-30T15:03:15.002Z</time></trkpt><trkpt lat="43.40167178938268" lon="-3.3159531178319885"><ele>17.0</ele><time>2026-04-30T15:03:16.002Z</time></trkpt><trkpt lat="43.40158840784965" lon="-3.3160150458059356"><ele>17.0</ele><time>2026-04-30T15:03:17.002Z</time></trkpt><trkpt lat="43.40148808666956" lon="-3.3160525399548675"><ele>17.0</ele><time>2026-04-30T15:03:18.002Z</time></trkpt><trkpt lat="43.4013983643927" lon="-3.316091198479264"><ele>17.0</ele><time>2026-04-30T15:03:19.002Z</time></trkpt><trkpt lat="43.40130868139384" lon="-3.3161531037983742"><ele>17.0</ele><time>2026-04-30T15:03:20.002Z</time></trkpt><trkpt lat="43.401214593524436" lon="-3.316210647301553"><ele>17.0</ele><time>2026-04-30T15:03:21.002Z</time></trkpt><trkpt lat="43.401120317535046" lon="-3.3162598361584297"><ele>17.0</ele><time>2026-04-30T15:03:22.002Z</time></trkpt><trkpt lat="43.40102214528925" lon="-3.316294837559528"><ele>16.2</ele><time>2026-04-30T15:03:23.002Z</time></trkpt><trkpt lat="43.4009218461959" lon="-3.316328564852881"><ele>15.399999999999999</ele><time>2026-04-30T15:03:24.002Z</time></trkpt><trkpt lat="43.4008233584242" lon="-3.316363396080278"><ele>14.600000000000001</ele><time>2026-04-30T15:03:25.002Z</time></trkpt><trkpt lat="43.40072197197917" lon="-3.3164037757879368"><ele>13.8</ele><time>2026-04-30T15:03:26.002Z</time></trkpt><trkpt lat="43.400624889193146" lon="-3.316446100961165"><ele>13.0</ele><time>2026-04-30T15:03:27.002Z</time></trkpt><trkpt lat="43.40052383809596" lon="-3.31647922597885"><ele>13.0</ele><time>2026-04-30T15:03:28.002Z</time></trkpt><trkpt lat="43.40042505743966" lon="-3.3165117698024464"><ele>13.0</ele><time>2026-04-30T15:03:29Z</time></trkpt><trkpt lat="43.400319854254406" lon="-3.316533592166678"><ele>13.0</ele><time>2026-04-30T15:03:30Z</time></trkpt><trkpt lat="43.4002177956617" lon="-3.3165533672092984"><ele>13.0</ele><time>2026-04-30T15:03:31Z</time></trkpt><trkpt lat="43.400115858557854" lon="-3.3165680554194363"><ele>13.0</ele><time>2026-04-30T15:03:32Z</time></trkpt><trkpt lat="43.400014018460766" lon="-3.316573431308587"><ele>13.0</ele><time>2026-04-30T15:03:33Z</time></trkpt><trkpt lat="43.39991343830877" lon="-3.316567912858438"><ele>13.0</ele><time>2026-04-30T15:03:34Z</time></trkpt><trkpt lat="43.39981238449043" lon="-3.3165636915502135"><ele>13.0</ele><time>2026-04-30T15:03:35Z</time></trkpt><trkpt lat="43.3997103505425" lon="-3.316564218036749"><ele>13.0</ele><time>2026-04-30T15:03:36Z</time></trkpt><trkpt lat="43.39961017464424" lon="-3.3165589948572505"><ele>13.0</ele><time>2026-04-30T15:03:37Z</time></trkpt><trkpt lat="43.39950535908008" lon="-3.316552936865179"><ele>12.600000000000001</ele><time>2026-04-30T15:03:38Z</time></trkpt><trkpt lat="43.39940294113045" lon="-3.316545527062932"><ele>12.200000000000001</ele><time>2026-04-30T15:03:39Z</time></trkpt><trkpt lat="43.399301729015995" lon="-3.3165359229346456"><ele>11.8</ele><time>2026-04-30T15:03:40Z</time></trkpt><trkpt lat="43.39920119868831" lon="-3.31651537734852"><ele>11.4</ele><time>2026-04-30T15:03:41Z</time></trkpt><trkpt lat="43.399099762377936" lon="-3.3164846095607055"><ele>11.0</ele><time>2026-04-30T15:03:42Z</time></trkpt><trkpt lat="43.39900306160926" lon="-3.3164444729033487"><ele>13.8</ele><time>2026-04-30T15:03:43Z</time></trkpt><trkpt lat="43.39890869061913" lon="-3.3163965812858276"><ele>16.6</ele><time>2026-04-30T15:03:44Z</time></trkpt><trkpt lat="43.39881309776183" lon="-3.316348149303301"><ele>19.4</ele><time>2026-04-30T15:03:45Z</time></trkpt><trkpt lat="43.398717192258644" lon="-3.3162952053414494"><ele>22.2</ele><time>2026-04-30T15:03:46Z</time></trkpt><trkpt lat="43.39862154897735" lon="-3.316239090171859"><ele>25.0</ele><time>2026-04-30T15:03:47Z</time></trkpt><trkpt lat="43.39852739508494" lon="-3.316189969448384"><ele>25.0</ele><time>2026-04-30T15:03:48Z</time></trkpt><trkpt lat="43.39843139971449" lon="-3.3161359836457938"><ele>25.0</ele><time>2026-04-30T15:03:49Z</time></trkpt><trkpt lat="43.398336795716396" lon="-3.3160826904253153"><ele>25.0</ele><time>2026-04-30T15:03:50Z</time></trkpt><trkpt lat="43.39824425322575" lon="-3.3160309737605322"><ele>25.0</ele><time>2026-04-30T15:03:51Z</time></trkpt><trkpt lat="43.39815142136823" lon="-3.315973270550718"><ele>25.0</ele><time>2026-04-30T15:03:52Z</time></trkpt><trkpt lat="43.39805651153358" lon="-3.3159170666418105"><ele>21.2</ele><time>2026-04-30T15:03:53Z</time></trkpt><trkpt lat="43.397961632247686" lon="-3.315864180605401"><ele>17.4</ele><time>2026-04-30T15:03:54Z</time></trkpt><trkpt lat="43.397864677898035" lon="-3.3158190563643073"><ele>13.6</ele><time>2026-04-30T15:03:55Z</time></trkpt><trkpt lat="43.39776456277292" lon="-3.315775219970243"><ele>9.8</ele><time>2026-04-30T15:03:56Z</time></trkpt><trkpt lat="43.397667890242836" lon="-3.315729386294228"><ele>6.0</ele><time>2026-04-30T15:03:57Z</time></trkpt><trkpt lat="43.39757036837241" lon="-3.315681556221612"><ele>6.0</ele><time>2026-04-30T15:03:58Z</time></trkpt><trkpt lat="43.397471872551115" lon="-3.315640634492304"><ele>6.0</ele><time>2026-04-30T15:03:59Z</time></trkpt><trkpt lat="43.39737202700785" lon="-3.3156015186599106"><ele>6.0</ele><time>2026-04-30T15:04:00Z</time></trkpt><trkpt lat="43.39727209071764" lon="-3.3155608149365925"><ele>6.0</ele><time>2026-04-30T15:04:01Z</time></trkpt><trkpt lat="43.39717307591822" lon="-3.315524978819713"><ele>6.0</ele><time>2026-04-30T15:04:02Z</time></trkpt><trkpt lat="43.39707260983244" lon="-3.3154790190183516"><ele>8.2</ele><time>2026-04-30T15:04:03Z</time></trkpt><trkpt lat="43.39697373227384" lon="-3.3154491255517198"><ele>10.399999999999999</ele><time>2026-04-30T15:04:04Z</time></trkpt><trkpt lat="43.396874576084606" lon="-3.3154176175975367"><ele>12.6</ele><time>2026-04-30T15:04:05Z</time></trkpt><trkpt lat="43.396772164476715" lon="-3.315382542841838"><ele>14.799999999999999</ele><time>2026-04-30T15:04:06Z</time></trkpt><trkpt lat="43.396674535933606" lon="-3.3153500178516717"><ele>17.0</ele><time>2026-04-30T15:04:07Z</time></trkpt><trkpt lat="43.396575107705054" lon="-3.3153155205668763"><ele>17.0</ele><time>2026-04-30T15:04:08Z</time></trkpt><trkpt lat="43.39647295249702" lon="-3.315277973326549"><ele>17.0</ele><time>2026-04-30T15:04:09Z</time></trkpt><trkpt lat="43.39637077122916" lon="-3.315246764663396"><ele>17.0</ele><time>2026-04-30T15:04:10.001Z</time></trkpt><trkpt lat="43.39626958367903" lon="-3.315211392423043"><ele>17.0</ele><time>2026-04-30T15:04:11.001Z</time></trkpt><trkpt lat="43.39616625927453" lon="-3.3151684944350133"><ele>17.0</ele><time>2026-04-30T15:04:12.001Z</time></trkpt><trkpt lat="43.39606625395151" lon="-3.315124087248586"><ele>14.799999999999999</ele><time>2026-04-30T15:04:13.001Z</time></trkpt><trkpt lat="43.395968158106186" lon="-3.315077320726057"><ele>12.6</ele><time>2026-04-30T15:04:14.001Z</time></trkpt><trkpt lat="43.3958688602257" lon="-3.3150250231886047"><ele>10.399999999999999</ele><time>2026-04-30T15:04:15.001Z</time></trkpt><trkpt lat="43.395770841827805" lon="-3.314973025928196"><ele>8.2</ele><time>2026-04-30T15:04:16.001Z</time></trkpt><trkpt lat="43.395676534291916" lon="-3.3149233566356586"><ele>6.0</ele><time>2026-04-30T15:04:17.001Z</time></trkpt><trkpt lat="43.39557953244127" lon="-3.314872189126666"><ele>5.3999999999999995</ele><time>2026-04-30T15:04:18.001Z</time></trkpt><trkpt lat="43.39548604921631" lon="-3.3148124501473477"><ele>4.8</ele><time>2026-04-30T15:04:19.001Z</time></trkpt><trkpt lat="43.395393316582016" lon="-3.3147584971309385"><ele>4.199999999999999</ele><time>2026-04-30T15:04:20.001Z</time></trkpt><trkpt lat="43.395300986454075" lon="-3.314702416666373"><ele>3.5999999999999996</ele><time>2026-04-30T15:04:21.001Z</time></trkpt><trkpt lat="43.3952032268763" lon="-3.314654435120115"><ele>3.0</ele><time>2026-04-30T15:04:22.001Z</time></trkpt><trkpt lat="43.39510673305855" lon="-3.3146104420913205"><ele>5.6</ele><time>2026-04-30T15:04:23.001Z</time></trkpt><trkpt lat="43.39500931550001" lon="-3.3145769788222808"><ele>8.2</ele><time>2026-04-30T15:04:24.001Z</time></trkpt><trkpt lat="43.394913203112" lon="-3.3145528352194202"><ele>10.8</ele><time>2026-04-30T15:04:25.001Z</time></trkpt><trkpt lat="43.39481120442101" lon="-3.314537318078467"><ele>13.4</ele><time>2026-04-30T15:04:26.001Z</time></trkpt><trkpt lat="43.3947083776621" lon="-3.3145310845375597"><ele>16.0</ele><time>2026-04-30T15:04:27.001Z</time></trkpt><trkpt lat="43.39460911328358" lon="-3.3145310455401953"><ele>16.0</ele><time>2026-04-30T15:04:28.001Z</time></trkpt><trkpt lat="43.394504357068605" lon="-3.3145353814523126"><ele>16.0</ele><time>2026-04-30T15:04:29.001Z</time></trkpt><trkpt lat="43.39440107063625" lon="-3.3145518785765504"><ele>16.0</ele><time>2026-04-30T15:04:30.001Z</time></trkpt><trkpt lat="43.39429864227868" lon="-3.3145732105193666"><ele>16.0</ele><time>2026-04-30T15:04:31.001Z</time></trkpt><trkpt lat="43.39419929482763" lon="-3.3145954792243466"><ele>16.0</ele><time>2026-04-30T15:04:32.001Z</time></trkpt><trkpt lat="43.39409151504746" lon="-3.3146141812468386"><ele>16.0</ele><time>2026-04-30T15:04:33.001Z</time></trkpt><trkpt lat="43.39399128095668" lon="-3.3146343789345134"><ele>16.0</ele><time>2026-04-30T15:04:34.001Z</time></trkpt><trkpt lat="43.39388386794201" lon="-3.3146569958775696"><ele>16.0</ele><time>2026-04-30T15:04:35.001Z</time></trkpt><trkpt lat="43.39378063672035" lon="-3.3146748446782612"><ele>16.0</ele><time>2026-04-30T15:04:36.001Z</time></trkpt><trkpt lat="43.393678180368426" lon="-3.3146962064719583"><ele>16.0</ele><time>2026-04-30T15:04:37.001Z</time></trkpt><trkpt lat="43.39357547107419" lon="-3.314716013052819"><ele>16.0</ele><time>2026-04-30T15:04:38.001Z</time></trkpt><trkpt lat="43.39346993103696" lon="-3.3147339261349713"><ele>16.0</ele><time>2026-04-30T15:04:39.001Z</time></trkpt><trkpt lat="43.393367031393716" lon="-3.314742233007375"><ele>16.0</ele><time>2026-04-30T15:04:40.001Z</time></trkpt><trkpt lat="43.393264085418664" lon="-3.3147380467710756"><ele>16.0</ele><time>2026-04-30T15:04:41.001Z</time></trkpt><trkpt lat="43.39315720022574" lon="-3.314734379586749"><ele>16.0</ele><time>2026-04-30T15:04:42.001Z</time></trkpt><trkpt lat="43.393052247949484" lon="-3.31472402046629"><ele>15.600000000000001</ele><time>2026-04-30T15:04:43.001Z</time></trkpt><trkpt lat="43.39294769480522" lon="-3.3147134962560445"><ele>15.200000000000001</ele><time>2026-04-30T15:04:44.001Z</time></trkpt><trkpt lat="43.39284558685684" lon="-3.314702812651798"><ele>14.799999999999999</ele><time>2026-04-30T15:04:45.001Z</time></trkpt><trkpt lat="43.39274566288951" lon="-3.3146910229775197"><ele>14.399999999999999</ele><time>2026-04-30T15:04:46.001Z</time></trkpt><trkpt lat="43.39264388165321" lon="-3.314679423007745"><ele>14.0</ele><time>2026-04-30T15:04:47.001Z</time></trkpt><trkpt lat="43.39254608333488" lon="-3.3146734159906304"><ele>14.0</ele><time>2026-04-30T15:04:48.001Z</time></trkpt><trkpt lat="43.39244679180602" lon="-3.314657358314969"><ele>13.999999999999998</ele><time>2026-04-30T15:04:49.001Z</time></trkpt><trkpt lat="43.392348586611384" lon="-3.314645617245599"><ele>13.999999999999998</ele><time>2026-04-30T15:04:50.001Z</time></trkpt><trkpt lat="43.3922518958553" lon="-3.3146380379944405"><ele>14.0</ele><time>2026-04-30T15:04:51.001Z</time></trkpt><trkpt lat="43.39215114628434" lon="-3.31462622358276"><ele>14.0</ele><time>2026-04-30T15:04:52.001Z</time></trkpt><trkpt lat="43.3920546134893" lon="-3.3146259072005635"><ele>13.799999999999999</ele><time>2026-04-30T15:04:53.001Z</time></trkpt><trkpt lat="43.39195467479527" lon="-3.314628345684773"><ele>13.599999999999998</ele><time>2026-04-30T15:04:54.001Z</time></trkpt><trkpt lat="43.39185842654243" lon="-3.3146434798213296"><ele>13.4</ele><time>2026-04-30T15:04:55.001Z</time></trkpt><trkpt lat="43.39176160435278" lon="-3.314668710877105"><ele>13.2</ele><time>2026-04-30T15:04:56.001Z</time></trkpt><trkpt lat="43.39166448518169" lon="-3.314703753680926"><ele>13.0</ele><time>2026-04-30T15:04:57.001Z</time></trkpt><trkpt lat="43.39157266595337" lon="-3.3147513191275717"><ele>12.4</ele><time>2026-04-30T15:04:58.001Z</time></trkpt><trkpt lat="43.39148246500618" lon="-3.31481119362143"><ele>11.8</ele><time>2026-04-30T15:04:59.001Z</time></trkpt><trkpt lat="43.39140084033324" lon="-3.3148939045415013"><ele>11.2</ele><time>2026-04-30T15:05:00.001Z</time></trkpt><trkpt lat="43.39133098004311" lon="-3.3149897745120365"><ele>10.6</ele><time>2026-04-30T15:05:01.001Z</time></trkpt><trkpt lat="43.39125782167791" lon="-3.315084269064659"><ele>10.0</ele><time>2026-04-30T15:05:02.001Z</time></trkpt><trkpt lat="43.39117996680132" lon="-3.315172262301693"><ele>10.0</ele><time>2026-04-30T15:05:03.001Z</time></trkpt><trkpt lat="43.3911030852291" lon="-3.315260277909644"><ele>10.0</ele><time>2026-04-30T15:05:04.001Z</time></trkpt><trkpt lat="43.39102721703743" lon="-3.315347281815948"><ele>10.0</ele><time>2026-04-30T15:05:05.001Z</time></trkpt><trkpt lat="43.39094982565891" lon="-3.3154340709843693"><ele>10.0</ele><time>2026-04-30T15:05:06.001Z</time></trkpt><trkpt lat="43.39087431597984" lon="-3.3155259111623323"><ele>10.0</ele><time>2026-04-30T15:05:07.001Z</time></trkpt><trkpt lat="43.3908021345956" lon="-3.3156171794155482"><ele>9.4</ele><time>2026-04-30T15:05:08.001Z</time></trkpt><trkpt lat="43.39072697174529" lon="-3.3157050248777034"><ele>8.8</ele><time>2026-04-30T15:05:09.001Z</time></trkpt><trkpt lat="43.3906494338467" lon="-3.315790059921863"><ele>8.2</ele><time>2026-04-30T15:05:10.001Z</time></trkpt><trkpt lat="43.39057128660497" lon="-3.315874714386831"><ele>7.6</ele><time>2026-04-30T15:05:11.001Z</time></trkpt><trkpt lat="43.390492245876835" lon="-3.3159555010822994"><ele>7.0</ele><time>2026-04-30T15:05:12.001Z</time></trkpt><trkpt lat="43.39040726560155" lon="-3.3160255133147936"><ele>9.0</ele><time>2026-04-30T15:05:13.001Z</time></trkpt><trkpt lat="43.390323782337006" lon="-3.316092768472612"><ele>11.0</ele><time>2026-04-30T15:05:14.001Z</time></trkpt><trkpt lat="43.39023477200601" lon="-3.3161504028057136"><ele>13.0</ele><time>2026-04-30T15:05:15.001Z</time></trkpt><trkpt lat="43.390139330543455" lon="-3.3161963165460877"><ele>15.0</ele><time>2026-04-30T15:05:16.001Z</time></trkpt><trkpt lat="43.39003907731182" lon="-3.3162408215233197"><ele>17.0</ele><time>2026-04-30T15:05:17.001Z</time></trkpt><trkpt lat="43.38994285677515" lon="-3.31628283138244"><ele>17.0</ele><time>2026-04-30T15:05:18.001Z</time></trkpt><trkpt lat="43.389842171912235" lon="-3.316329532617378"><ele>17.0</ele><time>2026-04-30T15:05:19.001Z</time></trkpt><trkpt lat="43.38974510889133" lon="-3.3163783975280183"><ele>17.0</ele><time>2026-04-30T15:05:20.001Z</time></trkpt><trkpt lat="43.38965249573243" lon="-3.316449547348517"><ele>17.0</ele><time>2026-04-30T15:05:21.002Z</time></trkpt><trkpt lat="43.38956655477881" lon="-3.3165348956832665"><ele>17.0</ele><time>2026-04-30T15:05:22.002Z</time></trkpt><trkpt lat="43.38949119562154" lon="-3.316632641125812"><ele>16.0</ele><time>2026-04-30T15:05:23.002Z</time></trkpt><trkpt lat="43.38942197322014" lon="-3.316744725374188"><ele>15.0</ele><time>2026-04-30T15:05:24.002Z</time></trkpt><trkpt lat="43.3893630494226" lon="-3.3168669975546727"><ele>14.0</ele><time>2026-04-30T15:05:25.002Z</time></trkpt><trkpt lat="43.38931169727874" lon="-3.3169947861660294"><ele>13.0</ele><time>2026-04-30T15:05:26.002Z</time></trkpt><trkpt lat="43.3892686207654" lon="-3.3171183182946624"><ele>12.0</ele><time>2026-04-30T15:05:27.002Z</time></trkpt><trkpt lat="43.389234573152" lon="-3.3172476858567594"><ele>11.4</ele><time>2026-04-30T15:05:28.002Z</time></trkpt><trkpt lat="43.389210041782924" lon="-3.317385551572813"><ele>10.799999999999999</ele><time>2026-04-30T15:05:29.002Z</time></trkpt><trkpt lat="43.38918327894074" lon="-3.3175175521739786"><ele>10.2</ele><time>2026-04-30T15:05:30.002Z</time></trkpt><trkpt lat="43.38915089510821" lon="-3.317639841831857"><ele>9.6</ele><time>2026-04-30T15:05:31.002Z</time></trkpt><trkpt lat="43.389103665971156" lon="-3.3177597955965417"><ele>9.0</ele><time>2026-04-30T15:05:32.002Z</time></trkpt><trkpt lat="43.3890418142122" lon="-3.317866315896385"><ele>9.0</ele><time>2026-04-30T15:05:33.002Z</time></trkpt><trkpt lat="43.38897819955773" lon="-3.3179609381302284"><ele>9.0</ele><time>2026-04-30T15:05:34.002Z</time></trkpt><trkpt lat="43.38890531286155" lon="-3.318049445341289"><ele>9.0</ele><time>2026-04-30T15:05:34.999Z</time></trkpt><trkpt lat="43.38882796000327" lon="-3.318132400250372"><ele>9.0</ele><time>2026-04-30T15:05:35.999Z</time></trkpt><trkpt lat="43.3887512738136" lon="-3.3182220731914605"><ele>9.0</ele><time>2026-04-30T15:05:36.999Z</time></trkpt><trkpt lat="43.388674043695424" lon="-3.3183022914780147"><ele>10.2</ele><time>2026-04-30T15:05:37.999Z</time></trkpt><trkpt lat="43.388593350803696" lon="-3.3183782513315907"><ele>11.4</ele><time>2026-04-30T15:05:38.999Z</time></trkpt><trkpt lat="43.38850579152362" lon="-3.318446839738954"><ele>12.6</ele><time>2026-04-30T15:05:39.999Z</time></trkpt><trkpt lat="43.38841782898887" lon="-3.3185166472358456"><ele>13.8</ele><time>2026-04-30T15:05:40.999Z</time></trkpt><trkpt lat="43.38832849907795" lon="-3.3185764956542885"><ele>15.0</ele><time>2026-04-30T15:05:41.999Z</time></trkpt><trkpt lat="43.3882361189126" lon="-3.3186255050246785"><ele>15.0</ele><time>2026-04-30T15:05:42.999Z</time></trkpt><trkpt lat="43.388133047480544" lon="-3.318657409895927"><ele>15.0</ele><time>2026-04-30T15:05:43.999Z</time></trkpt><trkpt lat="43.38803108459965" lon="-3.3186767111864253"><ele>15.0</ele><time>2026-04-30T15:05:44.999Z</time></trkpt><trkpt lat="43.38792487280807" lon="-3.3186867796488744"><ele>15.0</ele><time>2026-04-30T15:05:45.999Z</time></trkpt><trkpt lat="43.3878160486765" lon="-3.3186983611145573"><ele>15.0</ele><time>2026-04-30T15:05:46.999Z</time></trkpt><trkpt lat="43.387707565807425" lon="-3.31870752841015"><ele>14.2</ele><time>2026-04-30T15:05:47.999Z</time></trkpt><trkpt lat="43.387597670845885" lon="-3.318714783293506"><ele>13.4</ele><time>2026-04-30T15:05:48.999Z</time></trkpt><trkpt lat="43.3874895775015" lon="-3.3187204935286294"><ele>12.600000000000001</ele><time>2026-04-30T15:05:49.999Z</time></trkpt><trkpt lat="43.3873845368431" lon="-3.3187176751572145"><ele>11.8</ele><time>2026-04-30T15:05:50.999Z</time></trkpt><trkpt lat="43.387279038966604" lon="-3.3187096241984357"><ele>11.0</ele><time>2026-04-30T15:05:52Z</time></trkpt><trkpt lat="43.38717354386979" lon="-3.318694099301503"><ele>11.0</ele><time>2026-04-30T15:05:53Z</time></trkpt><trkpt lat="43.38706681280571" lon="-3.318661060951567"><ele>11.0</ele><time>2026-04-30T15:05:54Z</time></trkpt><trkpt lat="43.38696023638856" lon="-3.318623941534306"><ele>11.0</ele><time>2026-04-30T15:05:55Z</time></trkpt><trkpt lat="43.38685510995315" lon="-3.3185854120418075"><ele>11.0</ele><time>2026-04-30T15:05:56Z</time></trkpt><trkpt lat="43.38674836953536" lon="-3.3185497005485787"><ele>11.0</ele><time>2026-04-30T15:05:57Z</time></trkpt><trkpt lat="43.38664526155764" lon="-3.318516165401437"><ele>11.0</ele><time>2026-04-30T15:05:58Z</time></trkpt><trkpt lat="43.38654060439826" lon="-3.3184787555412356"><ele>11.0</ele><time>2026-04-30T15:05:59Z</time></trkpt><trkpt lat="43.38643467230509" lon="-3.3184427387335327"><ele>11.0</ele><time>2026-04-30T15:06:00Z</time></trkpt><trkpt lat="43.38633075232613" lon="-3.31840597762419"><ele>11.0</ele><time>2026-04-30T15:06:01Z</time></trkpt><trkpt lat="43.386228049793544" lon="-3.3183671399695656"><ele>11.0</ele><time>2026-04-30T15:06:02Z</time></trkpt><trkpt lat="43.386127441191164" lon="-3.318328874212015"><ele>11.0</ele><time>2026-04-30T15:06:03Z</time></trkpt><trkpt lat="43.38602673405775" lon="-3.318293051586781"><ele>11.0</ele><time>2026-04-30T15:06:04Z</time></trkpt><trkpt lat="43.38592244486959" lon="-3.3182592709003504"><ele>11.0</ele><time>2026-04-30T15:06:05Z</time></trkpt><trkpt lat="43.385817837919284" lon="-3.3182267184558207"><ele>11.0</ele><time>2026-04-30T15:06:06Z</time></trkpt><trkpt lat="43.385713141897924" lon="-3.3181978557754896"><ele>11.0</ele><time>2026-04-30T15:06:07Z</time></trkpt><trkpt lat="43.385605576905085" lon="-3.3181749348038734"><ele>11.8</ele><time>2026-04-30T15:06:08Z</time></trkpt><trkpt lat="43.38549779533679" lon="-3.3181552140180806"><ele>12.600000000000001</ele><time>2026-04-30T15:06:09Z</time></trkpt><trkpt lat="43.385390024945096" lon="-3.318144416344486"><ele>13.4</ele><time>2026-04-30T15:06:10Z</time></trkpt><trkpt lat="43.38528139016294" lon="-3.3181292720290676"><ele>14.2</ele><time>2026-04-30T15:06:11Z</time></trkpt><trkpt lat="43.3851714518814" lon="-3.3181193559660196"><ele>15.0</ele><time>2026-04-30T15:06:12Z</time></trkpt><trkpt lat="43.38506041388593" lon="-3.3181065610297242"><ele>15.0</ele><time>2026-04-30T15:06:13Z</time></trkpt><trkpt lat="43.38495174475949" lon="-3.3180927030831437"><ele>15.0</ele><time>2026-04-30T15:06:14Z</time></trkpt><trkpt lat="43.38484226541681" lon="-3.318081044753978"><ele>15.0</ele><time>2026-04-30T15:06:15Z</time></trkpt><trkpt lat="43.384733178326115" lon="-3.318073691647257"><ele>15.0</ele><time>2026-04-30T15:06:16Z</time></trkpt><trkpt lat="43.384627978983545" lon="-3.318072071655283"><ele>15.0</ele><time>2026-04-30T15:06:17Z</time></trkpt><trkpt lat="43.38452063266273" lon="-3.3180749204953015"><ele>13.8</ele><time>2026-04-30T15:06:18Z</time></trkpt><trkpt lat="43.38441379867777" lon="-3.318082474302046"><ele>12.6</ele><time>2026-04-30T15:06:19Z</time></trkpt><trkpt lat="43.38430583250429" lon="-3.3181027254859563"><ele>11.4</ele><time>2026-04-30T15:06:20Z</time></trkpt><trkpt lat="43.38420458866573" lon="-3.3181403426426885"><ele>10.2</ele><time>2026-04-30T15:06:21Z</time></trkpt><trkpt lat="43.38410112484654" lon="-3.318193656773976"><ele>9.0</ele><time>2026-04-30T15:06:22Z</time></trkpt><trkpt lat="43.384005564215975" lon="-3.3182642212819493"><ele>9.0</ele><time>2026-04-30T15:06:23Z</time></trkpt><trkpt lat="43.38391390538254" lon="-3.318339442189435"><ele>9.0</ele><time>2026-04-30T15:06:24Z</time></trkpt><trkpt lat="43.38382694866225" lon="-3.3184156798550126"><ele>9.0</ele><time>2026-04-30T15:06:25Z</time></trkpt><trkpt lat="43.38373799523062" lon="-3.318493010141302"><ele>9.0</ele><time>2026-04-30T15:06:26Z</time></trkpt><trkpt lat="43.38364480661205" lon="-3.3185696685801718"><ele>9.0</ele><time>2026-04-30T15:06:27Z</time></trkpt><trkpt lat="43.38355217602481" lon="-3.318646287752323"><ele>8.0</ele><time>2026-04-30T15:06:28Z</time></trkpt><trkpt lat="43.383462443770036" lon="-3.318721916135175"><ele>7.0</ele><time>2026-04-30T15:06:29Z</time></trkpt><trkpt lat="43.38337331955067" lon="-3.318799609663998"><ele>6.0</ele><time>2026-04-30T15:06:30Z</time></trkpt><trkpt lat="43.38328355106711" lon="-3.318869025976684"><ele>5.0</ele><time>2026-04-30T15:06:31Z</time></trkpt><trkpt lat="43.38318981431961" lon="-3.3189354221248957"><ele>4.0</ele><time>2026-04-30T15:06:32Z</time></trkpt><trkpt lat="43.383097914599325" lon="-3.319000857575785"><ele>5.800000000000001</ele><time>2026-04-30T15:06:33Z</time></trkpt><trkpt lat="43.38300578215119" lon="-3.3190641222384896"><ele>7.6000000000000005</ele><time>2026-04-30T15:06:34Z</time></trkpt><trkpt lat="43.38291033125826" lon="-3.3191307284192413"><ele>9.4</ele><time>2026-04-30T15:06:35Z</time></trkpt><trkpt lat="43.38281702154575" lon="-3.3191947574687126"><ele>11.200000000000001</ele><time>2026-04-30T15:06:36Z</time></trkpt><trkpt lat="43.3827217011553" lon="-3.319255330551514"><ele>13.0</ele><time>2026-04-30T15:06:37Z</time></trkpt><trkpt lat="43.38262723525322" lon="-3.319315275682739"><ele>13.0</ele><time>2026-04-30T15:06:38.001Z</time></trkpt><trkpt lat="43.38252977816679" lon="-3.319378492015752"><ele>13.0</ele><time>2026-04-30T15:06:39.001Z</time></trkpt><trkpt lat="43.38243146382881" lon="-3.3194320850730903"><ele>13.0</ele><time>2026-04-30T15:06:40.001Z</time></trkpt><trkpt lat="43.38233117162589" lon="-3.3194737056541954"><ele>13.0</ele><time>2026-04-30T15:06:41.001Z</time></trkpt><trkpt lat="43.38222934253526" lon="-3.319516252000843"><ele>13.0</ele><time>2026-04-30T15:06:42.001Z</time></trkpt><trkpt lat="43.38212610805987" lon="-3.3195577683063195"><ele>13.600000000000001</ele><time>2026-04-30T15:06:43.001Z</time></trkpt><trkpt lat="43.38202259566608" lon="-3.3196036489959577"><ele>14.200000000000001</ele><time>2026-04-30T15:06:44.001Z</time></trkpt><trkpt lat="43.38192212792356" lon="-3.3196477828120003"><ele>14.8</ele><time>2026-04-30T15:06:45.001Z</time></trkpt><trkpt lat="43.381822949890065" lon="-3.319690698375839"><ele>15.4</ele><time>2026-04-30T15:06:46.001Z</time></trkpt><trkpt lat="43.38172030667577" lon="-3.3197351698705115"><ele>16.0</ele><time>2026-04-30T15:06:47.001Z</time></trkpt><trkpt lat="43.381617509741915" lon="-3.3197800595348506"><ele>14.8</ele><time>2026-04-30T15:06:48.001Z</time></trkpt><trkpt lat="43.3815181607869" lon="-3.3198256473787393"><ele>13.600000000000001</ele><time>2026-04-30T15:06:49.001Z</time></trkpt><trkpt lat="43.381417549149894" lon="-3.319870506351947"><ele>12.4</ele><time>2026-04-30T15:06:50.001Z</time></trkpt><trkpt lat="43.38131175509522" lon="-3.3199161287420913"><ele>11.2</ele><time>2026-04-30T15:06:51.001Z</time></trkpt><trkpt lat="43.381206366641706" lon="-3.3199603583598796"><ele>10.0</ele><time>2026-04-30T15:06:52.001Z</time></trkpt><trkpt lat="43.38110379948381" lon="-3.3200036865546236"><ele>10.0</ele><time>2026-04-30T15:06:53.001Z</time></trkpt><trkpt lat="43.380995218386865" lon="-3.3200503079664077"><ele>10.0</ele><time>2026-04-30T15:06:54.001Z</time></trkpt><trkpt lat="43.38089244608595" lon="-3.320097510569911"><ele>10.0</ele><time>2026-04-30T15:06:55.001Z</time></trkpt><trkpt lat="43.38078730666073" lon="-3.3201535378886224"><ele>10.0</ele><time>2026-04-30T15:06:56.001Z</time></trkpt><trkpt lat="43.38068968292046" lon="-3.320201584906947"><ele>10.0</ele><time>2026-04-30T15:06:57.001Z</time></trkpt><trkpt lat="43.38060109727938" lon="-3.3202439013708367"><ele>11.2</ele><time>2026-04-30T15:06:58.001Z</time></trkpt><trkpt lat="43.38049713334807" lon="-3.320285177265108"><ele>12.4</ele><time>2026-04-30T15:06:59.001Z</time></trkpt><trkpt lat="43.38040431966996" lon="-3.320324462127403"><ele>13.600000000000001</ele><time>2026-04-30T15:07:00.001Z</time></trkpt><trkpt lat="43.380309233473604" lon="-3.3203784097107647"><ele>14.8</ele><time>2026-04-30T15:07:01.001Z</time></trkpt><trkpt lat="43.38022585089368" lon="-3.320413983409907"><ele>16.0</ele><time>2026-04-30T15:07:02.001Z</time></trkpt><trkpt lat="43.380152126636034" lon="-3.3204291373186248"><ele>16.0</ele><time>2026-04-30T15:07:03.001Z</time></trkpt><trkpt lat="43.380026888367354" lon="-3.320499950424855"><ele>16.0</ele><time>2026-04-30T15:07:04.001Z</time></trkpt><trkpt lat="43.37993789528653" lon="-3.3205469192462616"><ele>16.0</ele><time>2026-04-30T15:07:05.001Z</time></trkpt><trkpt lat="43.37985285399594" lon="-3.320583131228263"><ele>16.0</ele><time>2026-04-30T15:07:06.001Z</time></trkpt><trkpt lat="43.37977314866257" lon="-3.3206191413844106"><ele>16.0</ele><time>2026-04-30T15:07:07.001Z</time></trkpt><trkpt lat="43.37969218945562" lon="-3.320658905981695"><ele>14.499999999999998</ele><time>2026-04-30T15:07:08.001Z</time></trkpt><trkpt lat="43.37961389440423" lon="-3.320703982710392"><ele>13.0</ele><time>2026-04-30T15:07:09.001Z</time></trkpt><trkpt lat="43.3795440365763" lon="-3.3207567055073595"><ele>11.5</ele><time>2026-04-30T15:07:10.001Z</time></trkpt><trkpt lat="43.37947229340291" lon="-3.32081425664005"><ele>10.0</ele><time>2026-04-30T15:07:11.001Z</time></trkpt><trkpt lat="43.3794155425268" lon="-3.3208784036941266"><ele>8.5</ele><time>2026-04-30T15:07:12.001Z</time></trkpt><trkpt lat="43.37935451637978" lon="-3.320966236494827"><ele>7.0</ele><time>2026-04-30T15:07:14.001Z</time></trkpt><trkpt lat="43.37929717428451" lon="-3.32108810025515"><ele>7.000000000000001</ele><time>2026-04-30T15:07:16.001Z</time></trkpt><trkpt lat="43.37925814869877" lon="-3.3211619025032624"><ele>7.0</ele><time>2026-04-30T15:07:17.001Z</time></trkpt><trkpt lat="43.37921845205079" lon="-3.3212469436758623"><ele>7.0</ele><time>2026-04-30T15:07:18.001Z</time></trkpt><trkpt lat="43.379189304221526" lon="-3.321354344430304"><ele>7.0</ele><time>2026-04-30T15:07:19.001Z</time></trkpt><trkpt lat="43.37916559720109" lon="-3.3214631493470175"><ele>7.000000000000001</ele><time>2026-04-30T15:07:20.001Z</time></trkpt><trkpt lat="43.37914926917058" lon="-3.3215820206016082"><ele>7.0</ele><time>2026-04-30T15:07:21.001Z</time></trkpt><trkpt lat="43.37913388056514" lon="-3.3216934061791408"><ele>6.75</ele><time>2026-04-30T15:07:22.001Z</time></trkpt><trkpt lat="43.379127801721616" lon="-3.321843343052152"><ele>6.5</ele><time>2026-04-30T15:07:24.001Z</time></trkpt><trkpt lat="43.37914737656076" lon="-3.3220913672922334"><ele>6.25</ele><time>2026-04-30T15:07:25.001Z</time></trkpt><trkpt lat="43.37917592481372" lon="-3.3222221462079213"><ele>6.0</ele><time>2026-04-30T15:07:26.001Z</time></trkpt><trkpt lat="43.37920995314249" lon="-3.322343944090415"><ele>6.0</ele><time>2026-04-30T15:07:27.001Z</time></trkpt><trkpt lat="43.37925747124208" lon="-3.3224667925480356"><ele>6.0</ele><time>2026-04-30T15:07:28.001Z</time></trkpt><trkpt lat="43.379317396140614" lon="-3.322574916619689"><ele>6.0</ele><time>2026-04-30T15:07:29.001Z</time></trkpt><trkpt lat="43.37938448680595" lon="-3.3226722977598517"><ele>6.0</ele><time>2026-04-30T15:07:30.001Z</time></trkpt><trkpt lat="43.379454886523426" lon="-3.3227589850609105"><ele>6.0</ele><time>2026-04-30T15:07:31.001Z</time></trkpt><trkpt lat="43.37953625164785" lon="-3.322834375151027"><ele>6.0</ele><time>2026-04-30T15:07:32.001Z</time></trkpt><trkpt lat="43.3796189943096" lon="-3.3229040882450134"><ele>6.0</ele><time>2026-04-30T15:07:33.001Z</time></trkpt><trkpt lat="43.37970601073587" lon="-3.32296311991195"><ele>6.0</ele><time>2026-04-30T15:07:34.001Z</time></trkpt><trkpt lat="43.37980007008556" lon="-3.322980044949514"><ele>6.0</ele><time>2026-04-30T15:07:35.001Z</time></trkpt><trkpt lat="43.379894238335744" lon="-3.3229928030861338"><ele>6.0</ele><time>2026-04-30T15:07:36.001Z</time></trkpt><trkpt lat="43.3799859868948" lon="-3.322995024474497"><ele>6.333333333333333</ele><time>2026-04-30T15:07:37.001Z</time></trkpt><trkpt lat="43.38007549400745" lon="-3.323010552921723"><ele>6.666666666666666</ele><time>2026-04-30T15:07:38.001Z</time></trkpt><trkpt lat="43.38016728664263" lon="-3.323004876699331"><ele>7.0</ele><time>2026-04-30T15:07:39.002Z</time></trkpt><trkpt lat="43.38025317457432" lon="-3.323005594932976"><ele>7.333333333333333</ele><time>2026-04-30T15:07:40.002Z</time></trkpt><trkpt lat="43.380339024164854" lon="-3.3230017235103966"><ele>7.666666666666666</ele><time>2026-04-30T15:07:40.999Z</time></trkpt><trkpt lat="43.38042437815024" lon="-3.3230028813861834"><ele>8.0</ele><time>2026-04-30T15:07:41.999Z</time></trkpt><trkpt lat="43.38051277446732" lon="-3.322993883870625"><ele>8.166666666666666</ele><time>2026-04-30T15:07:42.999Z</time></trkpt><trkpt lat="43.38059851367695" lon="-3.3229866793821796"><ele>8.333333333333332</ele><time>2026-04-30T15:07:43.999Z</time></trkpt><trkpt lat="43.38068543166162" lon="-3.322976435823702"><ele>8.5</ele><time>2026-04-30T15:07:44.999Z</time></trkpt><trkpt lat="43.38076640135951" lon="-3.3229698156426215"><ele>8.666666666666666</ele><time>2026-04-30T15:07:45.999Z</time></trkpt><trkpt lat="43.38084699422398" lon="-3.3229504238671557"><ele>8.833333333333334</ele><time>2026-04-30T15:07:46.999Z</time></trkpt><trkpt lat="43.38092894580808" lon="-3.3229339990529625"><ele>9.0</ele><time>2026-04-30T15:07:47.999Z</time></trkpt><trkpt lat="43.38101083511012" lon="-3.322913385991034"><ele>9.0</ele><time>2026-04-30T15:07:48.999Z</time></trkpt><trkpt lat="43.38109486340819" lon="-3.322892663232392"><ele>9.0</ele><time>2026-04-30T15:07:49.999Z</time></trkpt><trkpt lat="43.38117986400005" lon="-3.3228811533032636"><ele>9.0</ele><time>2026-04-30T15:07:50.999Z</time></trkpt><trkpt lat="43.381265284606336" lon="-3.3228595307382593"><ele>9.0</ele><time>2026-04-30T15:07:51.999Z</time></trkpt><trkpt lat="43.381344836101924" lon="-3.3228400706644408"><ele>9.0</ele><time>2026-04-30T15:07:52.999Z</time></trkpt><trkpt lat="43.381426347568606" lon="-3.322818153777611"><ele>9.0</ele><time>2026-04-30T15:07:53.999Z</time></trkpt><trkpt lat="43.381506360443225" lon="-3.3228064106607"><ele>10.166666666666666</ele><time>2026-04-30T15:07:54.999Z</time></trkpt><trkpt lat="43.38158728685053" lon="-3.322782442282833"><ele>11.333333333333332</ele><time>2026-04-30T15:07:56Z</time></trkpt><trkpt lat="43.38166751667237" lon="-3.3227736375786416"><ele>12.5</ele><time>2026-04-30T15:07:57Z</time></trkpt><trkpt lat="43.381749506961945" lon="-3.3227619447813392"><ele>13.666666666666666</ele><time>2026-04-30T15:07:58Z</time></trkpt><trkpt lat="43.38183449116853" lon="-3.322743049046036"><ele>14.833333333333332</ele><time>2026-04-30T15:07:59Z</time></trkpt><trkpt lat="43.38191260294328" lon="-3.322741935085222"><ele>16.0</ele><time>2026-04-30T15:08:00Z</time></trkpt><trkpt lat="43.38199837541391" lon="-3.3227178295870914"><ele>15.999999999999998</ele><time>2026-04-30T15:08:01Z</time></trkpt><trkpt lat="43.382081806831664" lon="-3.32269585169541"><ele>16.0</ele><time>2026-04-30T15:08:02Z</time></trkpt><trkpt lat="43.38216398236945" lon="-3.3226881045361796"><ele>16.0</ele><time>2026-04-30T15:08:03Z</time></trkpt><trkpt lat="43.38224452173938" lon="-3.3226732406898565"><ele>16.0</ele><time>2026-04-30T15:08:04Z</time></trkpt><trkpt lat="43.38232812757435" lon="-3.3226614296974932"><ele>15.999999999999998</ele><time>2026-04-30T15:08:05Z</time></trkpt><trkpt lat="43.38241018889981" lon="-3.322640233704362"><ele>16.0</ele><time>2026-04-30T15:08:06Z</time></trkpt><trkpt lat="43.3824887190866" lon="-3.3226166940677317"><ele>18.0</ele><time>2026-04-30T15:08:07Z</time></trkpt><trkpt lat="43.38256654316869" lon="-3.322585671682359"><ele>20.0</ele><time>2026-04-30T15:08:08Z</time></trkpt><trkpt lat="43.382644804857016" lon="-3.322558584049862"><ele>22.0</ele><time>2026-04-30T15:08:09Z</time></trkpt><trkpt lat="43.38271714576725" lon="-3.322527816449505"><ele>24.0</ele><time>2026-04-30T15:08:10Z</time></trkpt><trkpt lat="43.38279112154821" lon="-3.3224958597470415"><ele>26.000000000000004</ele><time>2026-04-30T15:08:11Z</time></trkpt><trkpt lat="43.38287627186252" lon="-3.32249579802814"><ele>28.0</ele><time>2026-04-30T15:08:12Z</time></trkpt><trkpt lat="43.38295248174136" lon="-3.322498213519819"><ele>29.000000000000004</ele><time>2026-04-30T15:08:13Z</time></trkpt><trkpt lat="43.38303324060716" lon="-3.3225137500353004"><ele>30.0</ele><time>2026-04-30T15:08:14Z</time></trkpt><trkpt lat="43.38311303623718" lon="-3.32252834403442"><ele>31.0</ele><time>2026-04-30T15:08:15Z</time></trkpt><trkpt lat="43.38319101352882" lon="-3.3225504069437655"><ele>32.0</ele><time>2026-04-30T15:08:16Z</time></trkpt><trkpt lat="43.38326892878223" lon="-3.322588097825993"><ele>33.0</ele><time>2026-04-30T15:08:17Z</time></trkpt><trkpt lat="43.38334513527098" lon="-3.3226087755124647"><ele>34.0</ele><time>2026-04-30T15:08:18Z</time></trkpt><trkpt lat="43.383423592831775" lon="-3.322628500622"><ele>34.0</ele><time>2026-04-30T15:08:19Z</time></trkpt><trkpt lat="43.38350186307378" lon="-3.3226536456710063"><ele>34.0</ele><time>2026-04-30T15:08:20Z</time></trkpt><trkpt lat="43.383579585626755" lon="-3.322681466173853"><ele>34.0</ele><time>2026-04-30T15:08:21Z</time></trkpt><trkpt lat="43.38365750361274" lon="-3.3226950994905002"><ele>34.0</ele><time>2026-04-30T15:08:22Z</time></trkpt><trkpt lat="43.383732604278165" lon="-3.3227208543115387"><ele>34.0</ele><time>2026-04-30T15:08:23Z</time></trkpt><trkpt lat="43.38381399884217" lon="-3.322746537650216"><ele>34.0</ele><time>2026-04-30T15:08:24Z</time></trkpt><trkpt lat="43.38389295588747" lon="-3.3227724486388945"><ele>33.0</ele><time>2026-04-30T15:08:25Z</time></trkpt><trkpt lat="43.38396893487489" lon="-3.3227992809152544"><ele>32.0</ele><time>2026-04-30T15:08:26Z</time></trkpt><trkpt lat="43.38404961719058" lon="-3.322812578555753"><ele>31.0</ele><time>2026-04-30T15:08:27Z</time></trkpt><trkpt lat="43.38412767770051" lon="-3.3228435151599403"><ele>30.0</ele><time>2026-04-30T15:08:28Z</time></trkpt><trkpt lat="43.384202363095405" lon="-3.3228781238530845"><ele>29.000000000000004</ele><time>2026-04-30T15:08:29Z</time></trkpt><trkpt lat="43.38427813804659" lon="-3.3229168721932743"><ele>28.0</ele><time>2026-04-30T15:08:30Z</time></trkpt><trkpt lat="43.38434601300213" lon="-3.3229743263389104"><ele>28.000000000000004</ele><time>2026-04-30T15:08:31Z</time></trkpt><trkpt lat="43.38440572189243" lon="-3.3230596047633307"><ele>28.0</ele><time>2026-04-30T15:08:32Z</time></trkpt><trkpt lat="43.38445574049896" lon="-3.323151425222607"><ele>28.0</ele><time>2026-04-30T15:08:33Z</time></trkpt><trkpt lat="43.384499249117134" lon="-3.3232492014344577"><ele>28.0</ele><time>2026-04-30T15:08:34Z</time></trkpt><trkpt lat="43.384541796509566" lon="-3.3233476542974745"><ele>28.000000000000004</ele><time>2026-04-30T15:08:35Z</time></trkpt><trkpt lat="43.384583219208906" lon="-3.323440099605597"><ele>28.0</ele><time>2026-04-30T15:08:36Z</time></trkpt><trkpt lat="43.384611158747475" lon="-3.323543876315362"><ele>30.833333333333336</ele><time>2026-04-30T15:08:37Z</time></trkpt><trkpt lat="43.38463426040317" lon="-3.3236507512072753"><ele>33.66666666666667</ele><time>2026-04-30T15:08:38Z</time></trkpt><trkpt lat="43.384651965156515" lon="-3.323758885708799"><ele>36.5</ele><time>2026-04-30T15:08:39.001Z</time></trkpt><trkpt lat="43.38466677255839" lon="-3.323866928575367"><ele>39.333333333333336</ele><time>2026-04-30T15:08:40.001Z</time></trkpt><trkpt lat="43.38468063074198" lon="-3.323973053109566"><ele>42.166666666666664</ele><time>2026-04-30T15:08:41.001Z</time></trkpt><trkpt lat="43.384689598883" lon="-3.324076050196422"><ele>45.0</ele><time>2026-04-30T15:08:42.001Z</time></trkpt><trkpt lat="43.38469061942074" lon="-3.3241806566300736"><ele>46.5</ele><time>2026-04-30T15:08:43.001Z</time></trkpt><trkpt lat="43.38467756956686" lon="-3.324286119426009"><ele>48.0</ele><time>2026-04-30T15:08:44.001Z</time></trkpt><trkpt lat="43.38465625093676" lon="-3.324389083498695"><ele>49.5</ele><time>2026-04-30T15:08:45.001Z</time></trkpt><trkpt lat="43.3846329259033" lon="-3.3244976827777277"><ele>51.0</ele><time>2026-04-30T15:08:46.001Z</time></trkpt><trkpt lat="43.3846150449744" lon="-3.324601288105091"><ele>52.5</ele><time>2026-04-30T15:08:47.001Z</time></trkpt><trkpt lat="43.3846106033762" lon="-3.3247026252074177"><ele>54.0</ele><time>2026-04-30T15:08:48.001Z</time></trkpt><trkpt lat="43.38463048216418" lon="-3.324808493133414"><ele>53.666666666666664</ele><time>2026-04-30T15:08:49.001Z</time></trkpt><trkpt lat="43.38466495433036" lon="-3.3249105710363396"><ele>53.33333333333333</ele><time>2026-04-30T15:08:50.001Z</time></trkpt><trkpt lat="43.3847131984837" lon="-3.3249852930611326"><ele>53.0</ele><time>2026-04-30T15:08:51.001Z</time></trkpt><trkpt lat="43.38477758655488" lon="-3.32505311877997"><ele>52.666666666666664</ele><time>2026-04-30T15:08:52.001Z</time></trkpt><trkpt lat="43.38484313742384" lon="-3.325118989367701"><ele>52.33333333333333</ele><time>2026-04-30T15:08:53.001Z</time></trkpt><trkpt lat="43.38490309805638" lon="-3.325193221341608"><ele>52.0</ele><time>2026-04-30T15:08:54.001Z</time></trkpt><trkpt lat="43.38495018671245" lon="-3.325264119435504"><ele>51.99999999999999</ele><time>2026-04-30T15:08:55.001Z</time></trkpt><trkpt lat="43.38500910335337" lon="-3.3253532559237944"><ele>52.0</ele><time>2026-04-30T15:08:56.001Z</time></trkpt><trkpt lat="43.38506804285475" lon="-3.3254293220888758"><ele>52.0</ele><time>2026-04-30T15:08:57.001Z</time></trkpt><trkpt lat="43.38512086690028" lon="-3.325512389712738"><ele>52.0</ele><time>2026-04-30T15:08:58.001Z</time></trkpt><trkpt lat="43.38517456639239" lon="-3.3255883777303072"><ele>51.99999999999999</ele><time>2026-04-30T15:08:59.001Z</time></trkpt><trkpt lat="43.38522363060512" lon="-3.3256763701741767"><ele>52.0</ele><time>2026-04-30T15:09:00.001Z</time></trkpt><trkpt lat="43.38525764640619" lon="-3.3257680601061823"><ele>53.83333333333333</ele><time>2026-04-30T15:09:01.001Z</time></trkpt><trkpt lat="43.385288799778714" lon="-3.325884683651868"><ele>55.666666666666664</ele><time>2026-04-30T15:09:02.001Z</time></trkpt><trkpt lat="43.38531394295608" lon="-3.325989184707659"><ele>57.5</ele><time>2026-04-30T15:09:03.001Z</time></trkpt><trkpt lat="43.385339196520405" lon="-3.3260863432090493"><ele>59.33333333333333</ele><time>2026-04-30T15:09:04.001Z</time></trkpt><trkpt lat="43.385361462254465" lon="-3.3261919958373722"><ele>61.166666666666664</ele><time>2026-04-30T15:09:05.001Z</time></trkpt><trkpt lat="43.385385621664476" lon="-3.3262769264877545"><ele>63.0</ele><time>2026-04-30T15:09:06.001Z</time></trkpt><trkpt lat="43.38540123608982" lon="-3.3263998181370322"><ele>65.0</ele><time>2026-04-30T15:09:07.001Z</time></trkpt><trkpt lat="43.385417187548065" lon="-3.326497953329414"><ele>67.0</ele><time>2026-04-30T15:09:08.001Z</time></trkpt><trkpt lat="43.38542039089598" lon="-3.326607946427641"><ele>69.0</ele><time>2026-04-30T15:09:09.001Z</time></trkpt><trkpt lat="43.38541716536352" lon="-3.3267104307721076"><ele>71.0</ele><time>2026-04-30T15:09:10.001Z</time></trkpt><trkpt lat="43.38541500839383" lon="-3.3268150347685954"><ele>73.0</ele><time>2026-04-30T15:09:11.001Z</time></trkpt><trkpt lat="43.385411514217644" lon="-3.3269204123489615"><ele>75.0</ele><time>2026-04-30T15:09:12.001Z</time></trkpt><trkpt lat="43.38540432466192" lon="-3.32702622430835"><ele>75.0</ele><time>2026-04-30T15:09:13.001Z</time></trkpt><trkpt lat="43.385395747118196" lon="-3.3271331394523314"><ele>75.0</ele><time>2026-04-30T15:09:14.001Z</time></trkpt><trkpt lat="43.38539138995525" lon="-3.327241537037596"><ele>75.0</ele><time>2026-04-30T15:09:15.001Z</time></trkpt><trkpt lat="43.38538933305095" lon="-3.3273486439626456"><ele>75.0</ele><time>2026-04-30T15:09:16.001Z</time></trkpt><trkpt lat="43.3854063684337" lon="-3.327454362842259"><ele>75.0</ele><time>2026-04-30T15:09:17.001Z</time></trkpt><trkpt lat="43.385464568121506" lon="-3.3275249730227574"><ele>75.0</ele><time>2026-04-30T15:09:18.001Z</time></trkpt><trkpt lat="43.38552538819288" lon="-3.327598337100764"><ele>74.16666666666667</ele><time>2026-04-30T15:09:19.001Z</time></trkpt><trkpt lat="43.38561500010222" lon="-3.327610396154271"><ele>73.33333333333333</ele><time>2026-04-30T15:09:20.001Z</time></trkpt><trkpt lat="43.38569871057345" lon="-3.3275756223668416"><ele>72.5</ele><time>2026-04-30T15:09:21.001Z</time></trkpt><trkpt lat="43.385783688000195" lon="-3.3275807691640935"><ele>71.66666666666666</ele><time>2026-04-30T15:09:22.001Z</time></trkpt><trkpt lat="43.38586356029101" lon="-3.3275679513569347"><ele>70.83333333333333</ele><time>2026-04-30T15:09:23.001Z</time></trkpt><trkpt lat="43.385941422681874" lon="-3.3275407010481053"><ele>70.0</ele><time>2026-04-30T15:09:24.001Z</time></trkpt><trkpt lat="43.38601401757688" lon="-3.327516197017485"><ele>70.0</ele><time>2026-04-30T15:09:25.001Z</time></trkpt><trkpt lat="43.38608672687659" lon="-3.3274995343951526"><ele>70.0</ele><time>2026-04-30T15:09:26.001Z</time></trkpt><trkpt lat="43.38615647500734" lon="-3.327502399706466"><ele>70.0</ele><time>2026-04-30T15:09:27.001Z</time></trkpt><trkpt lat="43.38622646493298" lon="-3.3275434456636073"><ele>70.0</ele><time>2026-04-30T15:09:28.001Z</time></trkpt><trkpt lat="43.38628293817967" lon="-3.3276152542297996"><ele>70.0</ele><time>2026-04-30T15:09:29.001Z</time></trkpt><trkpt lat="43.38632460926248" lon="-3.3277078450494617"><ele>70.0</ele><time>2026-04-30T15:09:30.001Z</time></trkpt><trkpt lat="43.386330643510185" lon="-3.3278221469618092"><ele>70.0</ele><time>2026-04-30T15:09:31.001Z</time></trkpt><trkpt lat="43.38630860136681" lon="-3.3279419920700315"><ele>70.0</ele><time>2026-04-30T15:09:32.002Z</time></trkpt><trkpt lat="43.38627871549288" lon="-3.3280484952885567"><ele>70.0</ele><time>2026-04-30T15:09:33.002Z</time></trkpt><trkpt lat="43.38624143078829" lon="-3.328144664600785"><ele>70.0</ele><time>2026-04-30T15:09:34.002Z</time></trkpt><trkpt lat="43.3862164644912" lon="-3.3282475166256575"><ele>70.0</ele><time>2026-04-30T15:09:35.002Z</time></trkpt><trkpt lat="43.38617723956848" lon="-3.328348602223077"><ele>70.0</ele><time>2026-04-30T15:09:36.002Z</time></trkpt><trkpt lat="43.38614247226127" lon="-3.3284534122186376"><ele>72.66666666666666</ele><time>2026-04-30T15:09:37.002Z</time></trkpt><trkpt lat="43.38611243587972" lon="-3.32855905782975"><ele>75.33333333333333</ele><time>2026-04-30T15:09:38.002Z</time></trkpt><trkpt lat="43.38607749894934" lon="-3.3286658220946834"><ele>78.0</ele><time>2026-04-30T15:09:39.002Z</time></trkpt><trkpt lat="43.38605229808775" lon="-3.328776318742384"><ele>80.66666666666667</ele><time>2026-04-30T15:09:40.002Z</time></trkpt><trkpt lat="43.38605792512501" lon="-3.32888890313593"><ele>83.33333333333334</ele><time>2026-04-30T15:09:41.002Z</time></trkpt><trkpt lat="43.38608581915685" lon="-3.3289974663748314"><ele>86.0</ele><time>2026-04-30T15:09:42.002Z</time></trkpt><trkpt lat="43.38614944837587" lon="-3.329072545305573"><ele>86.16666666666667</ele><time>2026-04-30T15:09:43.002Z</time></trkpt><trkpt lat="43.386233618987234" lon="-3.3291094948847557"><ele>86.33333333333334</ele><time>2026-04-30T15:09:44.002Z</time></trkpt><trkpt lat="43.38631520356843" lon="-3.3291264552183906"><ele>86.5</ele><time>2026-04-30T15:09:45.002Z</time></trkpt><trkpt lat="43.38639627593286" lon="-3.3291258600907754"><ele>86.66666666666667</ele><time>2026-04-30T15:09:46.002Z</time></trkpt><trkpt lat="43.38647753786201" lon="-3.3291313516938827"><ele>86.83333333333333</ele><time>2026-04-30T15:09:47Z</time></trkpt><trkpt lat="43.38655552519696" lon="-3.32913696602068"><ele>87.0</ele><time>2026-04-30T15:09:48Z</time></trkpt><trkpt lat="43.386634441485214" lon="-3.329139608484011"><ele>87.0</ele><time>2026-04-30T15:09:49Z</time></trkpt><trkpt lat="43.38671333972998" lon="-3.3291430636388295"><ele>87.0</ele><time>2026-04-30T15:09:50Z</time></trkpt><trkpt lat="43.38679073413479" lon="-3.329149133604371"><ele>87.0</ele><time>2026-04-30T15:09:51Z</time></trkpt><trkpt lat="43.38686750034778" lon="-3.329153009234334"><ele>87.0</ele><time>2026-04-30T15:09:52Z</time></trkpt><trkpt lat="43.38694386014375" lon="-3.329153613866589"><ele>87.0</ele><time>2026-04-30T15:09:53Z</time></trkpt><trkpt lat="43.387017487817836" lon="-3.3291574392349634"><ele>87.0</ele><time>2026-04-30T15:09:54Z</time></trkpt><trkpt lat="43.387090214082285" lon="-3.3291666506850515"><ele>87.0</ele><time>2026-04-30T15:09:55Z</time></trkpt><trkpt lat="43.387167092790094" lon="-3.329173375862786"><ele>87.0</ele><time>2026-04-30T15:09:56Z</time></trkpt><trkpt lat="43.387236356326206" lon="-3.3291810588851942"><ele>87.0</ele><time>2026-04-30T15:09:57Z</time></trkpt><trkpt lat="43.387312389775666" lon="-3.3291834581525395"><ele>87.0</ele><time>2026-04-30T15:09:58Z</time></trkpt><trkpt lat="43.38738248954835" lon="-3.329202522921694"><ele>87.0</ele><time>2026-04-30T15:09:59Z</time></trkpt><trkpt lat="43.3874554711887" lon="-3.3292172941816505"><ele>87.0</ele><time>2026-04-30T15:10:00Z</time></trkpt><trkpt lat="43.3875128611656" lon="-3.3292687770143923"><ele>87.0</ele><time>2026-04-30T15:10:01Z</time></trkpt><trkpt lat="43.38757429995501" lon="-3.329334411961418"><ele>87.5</ele><time>2026-04-30T15:10:02Z</time></trkpt><trkpt lat="43.38762557911567" lon="-3.329411321631725"><ele>88.0</ele><time>2026-04-30T15:10:03Z</time></trkpt><trkpt lat="43.387674334892374" lon="-3.3294957885184253"><ele>88.5</ele><time>2026-04-30T15:10:04Z</time></trkpt><trkpt lat="43.3877264915987" lon="-3.32958101034304"><ele>89.0</ele><time>2026-04-30T15:10:05Z</time></trkpt><trkpt lat="43.387785741167534" lon="-3.329661006132478"><ele>89.5</ele><time>2026-04-30T15:10:06Z</time></trkpt><trkpt lat="43.38785300644001" lon="-3.3297219610534126"><ele>90.0</ele><time>2026-04-30T15:10:07Z</time></trkpt><trkpt lat="43.387930612052436" lon="-3.32975331262394"><ele>89.0</ele><time>2026-04-30T15:10:08Z</time></trkpt><trkpt lat="43.388015335866406" lon="-3.3297473394623216"><ele>88.0</ele><time>2026-04-30T15:10:09Z</time></trkpt><trkpt lat="43.38809901533108" lon="-3.3297198608910996"><ele>87.0</ele><time>2026-04-30T15:10:10Z</time></trkpt><trkpt lat="43.38817325183483" lon="-3.3296923982913182"><ele>86.0</ele><time>2026-04-30T15:10:11Z</time></trkpt><trkpt lat="43.38824652097677" lon="-3.329659646597012"><ele>85.0</ele><time>2026-04-30T15:10:12Z</time></trkpt><trkpt lat="43.388320017844386" lon="-3.329641591746653"><ele>84.0</ele><time>2026-04-30T15:10:13Z</time></trkpt><trkpt lat="43.38840150258758" lon="-3.329631246681055"><ele>84.0</ele><time>2026-04-30T15:10:14Z</time></trkpt><trkpt lat="43.38846413743526" lon="-3.329658854402534"><ele>84.0</ele><time>2026-04-30T15:10:15Z</time></trkpt><trkpt lat="43.38853406893849" lon="-3.3297145356382236"><ele>84.0</ele><time>2026-04-30T15:10:16Z</time></trkpt><trkpt lat="43.38861294578188" lon="-3.3297754235505455"><ele>84.0</ele><time>2026-04-30T15:10:17Z</time></trkpt><trkpt lat="43.388690535226765" lon="-3.3299229423876184"><ele>84.0</ele><time>2026-04-30T15:10:18Z</time></trkpt><trkpt lat="43.388777617800756" lon="-3.330050737525456"><ele>85.33333333333333</ele><time>2026-04-30T15:10:19Z</time></trkpt><trkpt lat="43.38881068030693" lon="-3.330181567605259"><ele>86.66666666666667</ele><time>2026-04-30T15:10:22Z</time></trkpt><trkpt lat="43.38884049647818" lon="-3.3302771940787905"><ele>88.0</ele><time>2026-04-30T15:10:23Z</time></trkpt><trkpt lat="43.38886340158844" lon="-3.3303701106276606"><ele>89.33333333333334</ele><time>2026-04-30T15:10:24Z</time></trkpt><trkpt lat="43.38889285224407" lon="-3.330466989377448"><ele>90.66666666666667</ele><time>2026-04-30T15:10:25Z</time></trkpt><trkpt lat="43.38891828384986" lon="-3.3305606146140216"><ele>92.0</ele><time>2026-04-30T15:10:26.001Z</time></trkpt><trkpt lat="43.388945837090105" lon="-3.330658640861577"><ele>93.66666666666667</ele><time>2026-04-30T15:10:27.001Z</time></trkpt><trkpt lat="43.388972837142575" lon="-3.330753761988035"><ele>95.33333333333334</ele><time>2026-04-30T15:10:28.001Z</time></trkpt><trkpt lat="43.389011097737765" lon="-3.3308447953497957"><ele>97.0</ele><time>2026-04-30T15:10:29.001Z</time></trkpt><trkpt lat="43.38905028453257" lon="-3.3309376784188154"><ele>98.66666666666667</ele><time>2026-04-30T15:10:30.001Z</time></trkpt><trkpt lat="43.38908974293056" lon="-3.331024351198808"><ele>100.33333333333333</ele><time>2026-04-30T15:10:31.001Z</time></trkpt><trkpt lat="43.38913103366565" lon="-3.3311137519928087"><ele>102.0</ele><time>2026-04-30T15:10:32.001Z</time></trkpt><trkpt lat="43.389171229530554" lon="-3.3312054709478933"><ele>102.0</ele><time>2026-04-30T15:10:33.001Z</time></trkpt><trkpt lat="43.3892102442744" lon="-3.331296263237905"><ele>102.0</ele><time>2026-04-30T15:10:34.001Z</time></trkpt><trkpt lat="43.38924828961908" lon="-3.331388132968365"><ele>102.0</ele><time>2026-04-30T15:10:35.001Z</time></trkpt><trkpt lat="43.389288134975374" lon="-3.3314775675984594"><ele>102.0</ele><time>2026-04-30T15:10:36.001Z</time></trkpt><trkpt lat="43.38933099526592" lon="-3.331571814111817"><ele>102.0</ele><time>2026-04-30T15:10:37.001Z</time></trkpt><trkpt lat="43.3893717256098" lon="-3.331665731091089"><ele>102.0</ele><time>2026-04-30T15:10:38.001Z</time></trkpt><trkpt lat="43.38941053432495" lon="-3.3317560952899314"><ele>103.83333333333333</ele><time>2026-04-30T15:10:39.001Z</time></trkpt><trkpt lat="43.38945009587154" lon="-3.3318454242579585"><ele>105.66666666666666</ele><time>2026-04-30T15:10:40.001Z</time></trkpt><trkpt lat="43.389490144776964" lon="-3.331937294951169"><ele>107.5</ele><time>2026-04-30T15:10:41.001Z</time></trkpt><trkpt lat="43.389530895541405" lon="-3.3320280072378003"><ele>109.33333333333333</ele><time>2026-04-30T15:10:42.001Z</time></trkpt><trkpt lat="43.389568054085345" lon="-3.332119327004894"><ele>111.16666666666666</ele><time>2026-04-30T15:10:43.001Z</time></trkpt><trkpt lat="43.38960834481928" lon="-3.332209689691208"><ele>113.0</ele><time>2026-04-30T15:10:44.001Z</time></trkpt><trkpt lat="43.389656637788555" lon="-3.3322968807631757"><ele>112.49999999999999</ele><time>2026-04-30T15:10:45.001Z</time></trkpt><trkpt lat="43.3897090064637" lon="-3.332375078316084"><ele>112.0</ele><time>2026-04-30T15:10:46.001Z</time></trkpt><trkpt lat="43.38976519023319" lon="-3.332454247177418"><ele>111.5</ele><time>2026-04-30T15:10:47.001Z</time></trkpt><trkpt lat="43.3898255154042" lon="-3.3325205248948064"><ele>111.0</ele><time>2026-04-30T15:10:48.001Z</time></trkpt><trkpt lat="43.38988597006174" lon="-3.3325858102485686"><ele>110.49999999999999</ele><time>2026-04-30T15:10:49.001Z</time></trkpt><trkpt lat="43.389944354549115" lon="-3.332653316651335"><ele>110.0</ele><time>2026-04-30T15:10:50.001Z</time></trkpt><trkpt lat="43.38999577983326" lon="-3.332729532416904"><ele>109.99999999999999</ele><time>2026-04-30T15:10:51.001Z</time></trkpt><trkpt lat="43.390046862927576" lon="-3.3328102056544497"><ele>110.0</ele><time>2026-04-30T15:10:52.001Z</time></trkpt><trkpt lat="43.390093637312326" lon="-3.3328938542298485"><ele>110.0</ele><time>2026-04-30T15:10:53.001Z</time></trkpt><trkpt lat="43.39014139553121" lon="-3.332977659215429"><ele>110.0</ele><time>2026-04-30T15:10:54.001Z</time></trkpt><trkpt lat="43.39018341756378" lon="-3.333063158199954"><ele>109.99999999999999</ele><time>2026-04-30T15:10:55.001Z</time></trkpt><trkpt lat="43.39022846461952" lon="-3.3331474692883365"><ele>110.0</ele><time>2026-04-30T15:10:56.001Z</time></trkpt><trkpt lat="43.39027040792002" lon="-3.3332405150524576"><ele>113.49999999999999</ele><time>2026-04-30T15:10:57.001Z</time></trkpt><trkpt lat="43.390315445525545" lon="-3.333317594096924"><ele>117.0</ele><time>2026-04-30T15:10:58.001Z</time></trkpt><trkpt lat="43.390361582434736" lon="-3.333409608066746"><ele>120.5</ele><time>2026-04-30T15:10:59.001Z</time></trkpt><trkpt lat="43.39040465656422" lon="-3.3334990820291894"><ele>124.0</ele><time>2026-04-30T15:11:00.001Z</time></trkpt><trkpt lat="43.39044120975518" lon="-3.333596631614303"><ele>127.49999999999999</ele><time>2026-04-30T15:11:01.001Z</time></trkpt><trkpt lat="43.390469938214444" lon="-3.333708509357808"><ele>131.0</ele><time>2026-04-30T15:11:02.001Z</time></trkpt><trkpt lat="43.39049935862186" lon="-3.333811731402426"><ele>128.33333333333331</ele><time>2026-04-30T15:11:03.001Z</time></trkpt><trkpt lat="43.390525775020414" lon="-3.333911527780655"><ele>125.66666666666666</ele><time>2026-04-30T15:11:04.001Z</time></trkpt><trkpt lat="43.39055156171293" lon="-3.334022452217031"><ele>123.0</ele><time>2026-04-30T15:11:05.001Z</time></trkpt><trkpt lat="43.39057467045549" lon="-3.334134188165584"><ele>120.33333333333334</ele><time>2026-04-30T15:11:06.001Z</time></trkpt><trkpt lat="43.390590081734636" lon="-3.3342558741762836"><ele>117.66666666666667</ele><time>2026-04-30T15:11:07.001Z</time></trkpt><trkpt lat="43.390600846869276" lon="-3.3343806864624663"><ele>115.0</ele><time>2026-04-30T15:11:08.001Z</time></trkpt><trkpt lat="43.39061571466409" lon="-3.3344988046106208"><ele>115.0</ele><time>2026-04-30T15:11:09.001Z</time></trkpt><trkpt lat="43.39062194979623" lon="-3.3346261537525828"><ele>115.0</ele><time>2026-04-30T15:11:10.001Z</time></trkpt><trkpt lat="43.39062863041021" lon="-3.334756679389798"><ele>115.0</ele><time>2026-04-30T15:11:11.001Z</time></trkpt><trkpt lat="43.390641244222394" lon="-3.334884438728254"><ele>115.0</ele><time>2026-04-30T15:11:12.001Z</time></trkpt><trkpt lat="43.39065440017648" lon="-3.335014944846685"><ele>115.0</ele><time>2026-04-30T15:11:13.001Z</time></trkpt><trkpt lat="43.390664919152755" lon="-3.3351502054429187"><ele>116.75</ele><time>2026-04-30T15:11:14.001Z</time></trkpt><trkpt lat="43.39068174149582" lon="-3.3354182480285615"><ele>118.5</ele><time>2026-04-30T15:11:16.001Z</time></trkpt><trkpt lat="43.39069214664061" lon="-3.335550523779927"><ele>120.25</ele><time>2026-04-30T15:11:17.001Z</time></trkpt><trkpt lat="43.39070107551826" lon="-3.335683571161543"><ele>122.0</ele><time>2026-04-30T15:11:18.001Z</time></trkpt><trkpt lat="43.39071427691854" lon="-3.335818616474269"><ele>122.8</ele><time>2026-04-30T15:11:19.002Z</time></trkpt><trkpt lat="43.39073313000906" lon="-3.3359560247455478"><ele>123.6</ele><time>2026-04-30T15:11:20.002Z</time></trkpt><trkpt lat="43.390753926488266" lon="-3.3360909938494014"><ele>124.39999999999999</ele><time>2026-04-30T15:11:21.002Z</time></trkpt><trkpt lat="43.39078362731998" lon="-3.3362232333951094"><ele>125.19999999999999</ele><time>2026-04-30T15:11:22.002Z</time></trkpt><trkpt lat="43.390821526478476" lon="-3.336347310268408"><ele>126.0</ele><time>2026-04-30T15:11:23.002Z</time></trkpt><trkpt lat="43.39087375900295" lon="-3.3364696430089005"><ele>126.19999999999999</ele><time>2026-04-30T15:11:24.002Z</time></trkpt><trkpt lat="43.39093087398195" lon="-3.3365833964200204"><ele>126.39999999999999</ele><time>2026-04-30T15:11:25.002Z</time></trkpt><trkpt lat="43.39099629866165" lon="-3.3366820341189394"><ele>126.6</ele><time>2026-04-30T15:11:26.002Z</time></trkpt><trkpt lat="43.3910576317886" lon="-3.336784185752024"><ele>126.8</ele><time>2026-04-30T15:11:27.002Z</time></trkpt><trkpt lat="43.3911197301397" lon="-3.336883871474016"><ele>127.0</ele><time>2026-04-30T15:11:28.002Z</time></trkpt><trkpt lat="43.39118186514221" lon="-3.3369814738127435"><ele>127.0</ele><time>2026-04-30T15:11:29.002Z</time></trkpt><trkpt lat="43.39124545972817" lon="-3.3370820503216803"><ele>126.99999999999999</ele><time>2026-04-30T15:11:30.002Z</time></trkpt><trkpt lat="43.391305490482985" lon="-3.3371812885407075"><ele>126.99999999999999</ele><time>2026-04-30T15:11:31.002Z</time></trkpt><trkpt lat="43.39136112352338" lon="-3.337288210953119"><ele>127.0</ele><time>2026-04-30T15:11:32.002Z</time></trkpt><trkpt lat="43.39140997836405" lon="-3.337398798405738"><ele>127.0</ele><time>2026-04-30T15:11:33.002Z</time></trkpt><trkpt lat="43.39145063473787" lon="-3.337514916992234"><ele>128.6</ele><time>2026-04-30T15:11:34.002Z</time></trkpt><trkpt lat="43.39148193629523" lon="-3.3376388044085723"><ele>130.2</ele><time>2026-04-30T15:11:35.002Z</time></trkpt><trkpt lat="43.39150427927195" lon="-3.3377678346312303"><ele>131.8</ele><time>2026-04-30T15:11:36.002Z</time></trkpt><trkpt lat="43.39151509476078" lon="-3.3378945943846747"><ele>133.4</ele><time>2026-04-30T15:11:37.002Z</time></trkpt><trkpt lat="43.3915208867817" lon="-3.3380290377886275"><ele>135.0</ele><time>2026-04-30T15:11:38.002Z</time></trkpt><trkpt lat="43.391519110320495" lon="-3.338161152295076"><ele>135.8</ele><time>2026-04-30T15:11:39.002Z</time></trkpt><trkpt lat="43.39150425150385" lon="-3.3382956931679253"><ele>136.6</ele><time>2026-04-30T15:11:40.002Z</time></trkpt><trkpt lat="43.39147629756316" lon="-3.3384260501902787"><ele>137.4</ele><time>2026-04-30T15:11:41.002Z</time></trkpt><trkpt lat="43.39144014764817" lon="-3.3385570096667476"><ele>138.2</ele><time>2026-04-30T15:11:42.002Z</time></trkpt><trkpt lat="43.391402427912936" lon="-3.3386888784306143"><ele>139.0</ele><time>2026-04-30T15:11:43.002Z</time></trkpt><trkpt lat="43.391358550446" lon="-3.338816953811366"><ele>136.2</ele><time>2026-04-30T15:11:44.002Z</time></trkpt><trkpt lat="43.391313765382726" lon="-3.3389477232493507"><ele>133.4</ele><time>2026-04-30T15:11:45.002Z</time></trkpt><trkpt lat="43.391270005487975" lon="-3.339082162295406"><ele>130.6</ele><time>2026-04-30T15:11:46.002Z</time></trkpt><trkpt lat="43.39122333439973" lon="-3.3392123964466474"><ele>127.8</ele><time>2026-04-30T15:11:47.002Z</time></trkpt><trkpt lat="43.39117545069853" lon="-3.3393441764549525"><ele>125.0</ele><time>2026-04-30T15:11:48.002Z</time></trkpt><trkpt lat="43.39112754592048" lon="-3.339477104493782"><ele>125.0</ele><time>2026-04-30T15:11:49.002Z</time></trkpt><trkpt lat="43.39108410899882" lon="-3.339610952953146"><ele>125.0</ele><time>2026-04-30T15:11:50.002Z</time></trkpt><trkpt lat="43.39104574910818" lon="-3.3397504113453342"><ele>125.0</ele><time>2026-04-30T15:11:51.002Z</time></trkpt><trkpt lat="43.39101558924316" lon="-3.33989254512363"><ele>125.0</ele><time>2026-04-30T15:11:52.002Z</time></trkpt><trkpt lat="43.39099222506407" lon="-3.3400360908808144"><ele>125.0</ele><time>2026-04-30T15:11:53Z</time></trkpt><trkpt lat="43.39097332544208" lon="-3.3401817906204747"><ele>126.0</ele><time>2026-04-30T15:11:54Z</time></trkpt><trkpt lat="43.39095917687559" lon="-3.3403262568404513"><ele>127.0</ele><time>2026-04-30T15:11:55Z</time></trkpt><trkpt lat="43.39095362409407" lon="-3.340474571580961"><ele>128.0</ele><time>2026-04-30T15:11:56Z</time></trkpt><trkpt lat="43.39096753021862" lon="-3.3406263350824275"><ele>129.0</ele><time>2026-04-30T15:11:57Z</time></trkpt><trkpt lat="43.39099413418607" lon="-3.3407721446655847"><ele>130.0</ele><time>2026-04-30T15:11:58Z</time></trkpt><trkpt lat="43.39102201607828" lon="-3.3409127261332934"><ele>130.0</ele><time>2026-04-30T15:11:59Z</time></trkpt><trkpt lat="43.391060402501395" lon="-3.3410537467537815"><ele>130.0</ele><time>2026-04-30T15:12:00Z</time></trkpt><trkpt lat="43.391097424737964" lon="-3.3411897271984223"><ele>130.0</ele><time>2026-04-30T15:12:01Z</time></trkpt><trkpt lat="43.39114097372194" lon="-3.341328327437424"><ele>130.0</ele><time>2026-04-30T15:12:02Z</time></trkpt><trkpt lat="43.391180355595694" lon="-3.341463587915194"><ele>130.0</ele><time>2026-04-30T15:12:03Z</time></trkpt><trkpt lat="43.39121999984647" lon="-3.3416020554801835"><ele>131.0</ele><time>2026-04-30T15:12:04Z</time></trkpt><trkpt lat="43.391262410137855" lon="-3.341739883159266"><ele>132.0</ele><time>2026-04-30T15:12:05Z</time></trkpt><trkpt lat="43.39131021833264" lon="-3.341871901194486"><ele>133.0</ele><time>2026-04-30T15:12:06Z</time></trkpt><trkpt lat="43.39136081192017" lon="-3.3420032237997783"><ele>134.0</ele><time>2026-04-30T15:12:07Z</time></trkpt><trkpt lat="43.3914138809527" lon="-3.3421317697026827"><ele>135.0</ele><time>2026-04-30T15:12:08Z</time></trkpt><trkpt lat="43.39147163811553" lon="-3.3422561266163844"><ele>135.0</ele><time>2026-04-30T15:12:09Z</time></trkpt><trkpt lat="43.391538894650246" lon="-3.3423758138892485"><ele>135.0</ele><time>2026-04-30T15:12:10Z</time></trkpt><trkpt lat="43.391613230226014" lon="-3.3424825474531343"><ele>135.0</ele><time>2026-04-30T15:12:11Z</time></trkpt><trkpt lat="43.39169322947283" lon="-3.3425817206474093"><ele>135.0</ele><time>2026-04-30T15:12:12Z</time></trkpt><trkpt lat="43.39178371518151" lon="-3.342672620375709"><ele>135.0</ele><time>2026-04-30T15:12:13Z</time></trkpt><trkpt lat="43.391875686767484" lon="-3.342756175816446"><ele>135.0</ele><time>2026-04-30T15:12:14Z</time></trkpt><trkpt lat="43.39197398420106" lon="-3.342827896584213"><ele>135.0</ele><time>2026-04-30T15:12:15Z</time></trkpt><trkpt lat="43.39207322375447" lon="-3.342896577141948"><ele>135.0</ele><time>2026-04-30T15:12:16Z</time></trkpt><trkpt lat="43.39216664903364" lon="-3.3429654479229955"><ele>135.0</ele><time>2026-04-30T15:12:17Z</time></trkpt><trkpt lat="43.39226611176015" lon="-3.343035170094362"><ele>135.0</ele><time>2026-04-30T15:12:18Z</time></trkpt><trkpt lat="43.392362810662206" lon="-3.3431018627570306"><ele>134.6</ele><time>2026-04-30T15:12:19Z</time></trkpt><trkpt lat="43.392455973376855" lon="-3.343171783819244"><ele>134.2</ele><time>2026-04-30T15:12:20Z</time></trkpt><trkpt lat="43.39255394740845" lon="-3.343235135007347"><ele>133.8</ele><time>2026-04-30T15:12:21Z</time></trkpt><trkpt lat="43.39264963742285" lon="-3.343300742361942"><ele>133.4</ele><time>2026-04-30T15:12:22Z</time></trkpt><trkpt lat="43.39274487741125" lon="-3.343367216593613"><ele>133.0</ele><time>2026-04-30T15:12:23Z</time></trkpt><trkpt lat="43.39283942561688" lon="-3.3434367521782167"><ele>133.0</ele><time>2026-04-30T15:12:24Z</time></trkpt><trkpt lat="43.39292775274352" lon="-3.3435210430846385"><ele>133.0</ele><time>2026-04-30T15:12:25Z</time></trkpt><trkpt lat="43.39301524014803" lon="-3.343598493802453"><ele>133.0</ele><time>2026-04-30T15:12:26.001Z</time></trkpt><trkpt lat="43.39309995273761" lon="-3.3436900752521908"><ele>133.0</ele><time>2026-04-30T15:12:27.001Z</time></trkpt><trkpt lat="43.39318305652541" lon="-3.3437847257335336"><ele>133.0</ele><time>2026-04-30T15:12:28.001Z</time></trkpt><trkpt lat="43.393260333494005" lon="-3.3438808271178404"><ele>133.6</ele><time>2026-04-30T15:12:29.001Z</time></trkpt><trkpt lat="43.39333224403177" lon="-3.3439794890998473"><ele>134.20000000000002</ele><time>2026-04-30T15:12:30.001Z</time></trkpt><trkpt lat="43.39341117714364" lon="-3.3440802437109594"><ele>134.8</ele><time>2026-04-30T15:12:31.001Z</time></trkpt><trkpt lat="43.39348712870913" lon="-3.344173254602724"><ele>135.4</ele><time>2026-04-30T15:12:32.001Z</time></trkpt><trkpt lat="43.39355803200179" lon="-3.3442732539424314"><ele>136.0</ele><time>2026-04-30T15:12:33.001Z</time></trkpt><trkpt lat="43.393623072859214" lon="-3.34437475720231"><ele>136.0</ele><time>2026-04-30T15:12:34.001Z</time></trkpt><trkpt lat="43.39368046488923" lon="-3.3444908454471505"><ele>136.0</ele><time>2026-04-30T15:12:35.001Z</time></trkpt><trkpt lat="43.39372799779682" lon="-3.3446112320728902"><ele>136.0</ele><time>2026-04-30T15:12:36.001Z</time></trkpt><trkpt lat="43.39376107751611" lon="-3.344740692801715"><ele>136.0</ele><time>2026-04-30T15:12:37.001Z</time></trkpt><trkpt lat="43.39378697194557" lon="-3.344875605781501"><ele>136.0</ele><time>2026-04-30T15:12:38.001Z</time></trkpt><trkpt lat="43.39379604850422" lon="-3.3450105403615558"><ele>135.8</ele><time>2026-04-30T15:12:39.001Z</time></trkpt><trkpt lat="43.39379029487918" lon="-3.3451524559555574"><ele>135.6</ele><time>2026-04-30T15:12:40.001Z</time></trkpt><trkpt lat="43.39377356123747" lon="-3.345286726625698"><ele>135.4</ele><time>2026-04-30T15:12:41.001Z</time></trkpt><trkpt lat="43.39374237802612" lon="-3.3454164640212594"><ele>135.2</ele><time>2026-04-30T15:12:42.001Z</time></trkpt><trkpt lat="43.39370096413711" lon="-3.3455412039747237"><ele>135.0</ele><time>2026-04-30T15:12:43.001Z</time></trkpt><trkpt lat="43.39365481512238" lon="-3.3456638305015476"><ele>135.0</ele><time>2026-04-30T15:12:44.001Z</time></trkpt><trkpt lat="43.39360066285524" lon="-3.3457835845324873"><ele>135.0</ele><time>2026-04-30T15:12:45.001Z</time></trkpt><trkpt lat="43.39354245140336" lon="-3.3459057712566604"><ele>135.0</ele><time>2026-04-30T15:12:46.001Z</time></trkpt><trkpt lat="43.39348342377836" lon="-3.346025739360077"><ele>135.0</ele><time>2026-04-30T15:12:47.001Z</time></trkpt><trkpt lat="43.393429942395926" lon="-3.3461491611740986"><ele>135.0</ele><time>2026-04-30T15:12:48.001Z</time></trkpt><trkpt lat="43.393374476061474" lon="-3.3462678142395648"><ele>138.0</ele><time>2026-04-30T15:12:49.001Z</time></trkpt><trkpt lat="43.393322320547234" lon="-3.34638780840602"><ele>141.0</ele><time>2026-04-30T15:12:50.001Z</time></trkpt><trkpt lat="43.39327363181869" lon="-3.3465149831035053"><ele>144.0</ele><time>2026-04-30T15:12:51.001Z</time></trkpt><trkpt lat="43.393216603664506" lon="-3.3466294309513045"><ele>147.0</ele><time>2026-04-30T15:12:52.001Z</time></trkpt><trkpt lat="43.39316090093273" lon="-3.346746379550357"><ele>150.0</ele><time>2026-04-30T15:12:53.001Z</time></trkpt><trkpt lat="43.39310835891843" lon="-3.3468639298034666"><ele>150.0</ele><time>2026-04-30T15:12:54.001Z</time></trkpt><trkpt lat="43.3930522137417" lon="-3.3469808382627675"><ele>150.0</ele><time>2026-04-30T15:12:55.001Z</time></trkpt><trkpt lat="43.3930020506561" lon="-3.3470947772635244"><ele>150.0</ele><time>2026-04-30T15:12:56.001Z</time></trkpt><trkpt lat="43.39294996780289" lon="-3.3472135609761975"><ele>150.0</ele><time>2026-04-30T15:12:57.001Z</time></trkpt><trkpt lat="43.39289684870107" lon="-3.3473267406910763"><ele>150.0</ele><time>2026-04-30T15:12:58.001Z</time></trkpt><trkpt lat="43.39284414951767" lon="-3.347442215450187"><ele>146.4</ele><time>2026-04-30T15:12:59.001Z</time></trkpt><trkpt lat="43.39278875263763" lon="-3.347557284955622"><ele>142.8</ele><time>2026-04-30T15:13:00.001Z</time></trkpt><trkpt lat="43.392733865292335" lon="-3.3476735056942046"><ele>139.2</ele><time>2026-04-30T15:13:01.001Z</time></trkpt><trkpt lat="43.3926805539706" lon="-3.3477893292533705"><ele>135.6</ele><time>2026-04-30T15:13:02.001Z</time></trkpt><trkpt lat="43.39262472845409" lon="-3.347899036985897"><ele>132.0</ele><time>2026-04-30T15:13:03.001Z</time></trkpt><trkpt lat="43.392568837886486" lon="-3.348012181654971"><ele>136.0</ele><time>2026-04-30T15:13:04.001Z</time></trkpt><trkpt lat="43.39251148937594" lon="-3.348118837657337"><ele>140.0</ele><time>2026-04-30T15:13:05.001Z</time></trkpt><trkpt lat="43.392453374477796" lon="-3.3482269364989143"><ele>144.0</ele><time>2026-04-30T15:13:06.001Z</time></trkpt><trkpt lat="43.39239095745107" lon="-3.3483259892641137"><ele>148.0</ele><time>2026-04-30T15:13:07.001Z</time></trkpt><trkpt lat="43.39232301226441" lon="-3.3484265076591893"><ele>152.0</ele><time>2026-04-30T15:13:08.001Z</time></trkpt><trkpt lat="43.39225407940645" lon="-3.348523677348691"><ele>152.0</ele><time>2026-04-30T15:13:09.001Z</time></trkpt><trkpt lat="43.39217822342098" lon="-3.348615397608322"><ele>152.0</ele><time>2026-04-30T15:13:10.001Z</time></trkpt><trkpt lat="43.39210261848128" lon="-3.348705831121241"><ele>152.0</ele><time>2026-04-30T15:13:11.001Z</time></trkpt><trkpt lat="43.39202656665603" lon="-3.3487956551149702"><ele>152.0</ele><time>2026-04-30T15:13:12.001Z</time></trkpt><trkpt lat="43.39194678589731" lon="-3.348886061673497"><ele>152.0</ele><time>2026-04-30T15:13:13.001Z</time></trkpt><trkpt lat="43.391867794801826" lon="-3.348977750747038"><ele>151.0</ele><time>2026-04-30T15:13:14.001Z</time></trkpt><trkpt lat="43.391788690173904" lon="-3.3490680309447147"><ele>150.0</ele><time>2026-04-30T15:13:15.001Z</time></trkpt><trkpt lat="43.39170685516552" lon="-3.3491604822884202"><ele>149.0</ele><time>2026-04-30T15:13:16.001Z</time></trkpt><trkpt lat="43.391627686658694" lon="-3.3492527551947835"><ele>148.0</ele><time>2026-04-30T15:13:17.001Z</time></trkpt><trkpt lat="43.39155258996214" lon="-3.349341961964953"><ele>147.0</ele><time>2026-04-30T15:13:18.001Z</time></trkpt><trkpt lat="43.39147463353486" lon="-3.34943213058644"><ele>147.0</ele><time>2026-04-30T15:13:19.001Z</time></trkpt><trkpt lat="43.39139569736827" lon="-3.3495219422673284"><ele>147.0</ele><time>2026-04-30T15:13:20.001Z</time></trkpt><trkpt lat="43.39131757555568" lon="-3.3496208399599885"><ele>147.0</ele><time>2026-04-30T15:13:21.001Z</time></trkpt><trkpt lat="43.39124514559886" lon="-3.349727307064438"><ele>147.0</ele><time>2026-04-30T15:13:22.001Z</time></trkpt><trkpt lat="43.39118037257733" lon="-3.34983850493122"><ele>147.0</ele><time>2026-04-30T15:13:23.001Z</time></trkpt><trkpt lat="43.39112053192589" lon="-3.3499615256446953"><ele>145.79999999999998</ele><time>2026-04-30T15:13:24.001Z</time></trkpt><trkpt lat="43.391074637983536" lon="-3.350096228131213"><ele>144.6</ele><time>2026-04-30T15:13:25.002Z</time></trkpt><trkpt lat="43.39104615720152" lon="-3.350233770323341"><ele>143.39999999999998</ele><time>2026-04-30T15:13:26.002Z</time></trkpt><trkpt lat="43.39102546239079" lon="-3.3503668593356184"><ele>142.2</ele><time>2026-04-30T15:13:27.002Z</time></trkpt><trkpt lat="43.39101284822797" lon="-3.3505028046009224"><ele>141.0</ele><time>2026-04-30T15:13:28.002Z</time></trkpt><trkpt lat="43.39100151627706" lon="-3.350641051237527"><ele>141.0</ele><time>2026-04-30T15:13:29.002Z</time></trkpt><trkpt lat="43.39099674055767" lon="-3.3507830381867882"><ele>141.0</ele><time>2026-04-30T15:13:30.002Z</time></trkpt><trkpt lat="43.390996799941284" lon="-3.3509278046269033"><ele>141.0</ele><time>2026-04-30T15:13:31.002Z</time></trkpt><trkpt lat="43.3910000882032" lon="-3.351068811595725"><ele>141.0</ele><time>2026-04-30T15:13:32.002Z</time></trkpt><trkpt lat="43.391003263598606" lon="-3.3512121192431032"><ele>141.0</ele><time>2026-04-30T15:13:33.002Z</time></trkpt><trkpt lat="43.391007367708205" lon="-3.3513516098107408"><ele>139.8</ele><time>2026-04-30T15:13:34.002Z</time></trkpt><trkpt lat="43.39101291687112" lon="-3.3514911773424867"><ele>138.6</ele><time>2026-04-30T15:13:35.002Z</time></trkpt><trkpt lat="43.39102045409362" lon="-3.351632133462151"><ele>137.4</ele><time>2026-04-30T15:13:36.002Z</time></trkpt><trkpt lat="43.3910256618943" lon="-3.3517720672901676"><ele>136.2</ele><time>2026-04-30T15:13:37.002Z</time></trkpt><trkpt lat="43.39103289514519" lon="-3.351913033504077"><ele>135.0</ele><time>2026-04-30T15:13:38.002Z</time></trkpt><trkpt lat="43.39104331325603" lon="-3.352056837987747"><ele>135.0</ele><time>2026-04-30T15:13:39.002Z</time></trkpt><trkpt lat="43.39106019734407" lon="-3.352199198036962"><ele>135.0</ele><time>2026-04-30T15:13:40.002Z</time></trkpt><trkpt lat="43.391085998787574" lon="-3.352342813288424"><ele>135.0</ele><time>2026-04-30T15:13:41.002Z</time></trkpt><trkpt lat="43.39112481001882" lon="-3.352482327916"><ele>135.0</ele><time>2026-04-30T15:13:42.002Z</time></trkpt><trkpt lat="43.39117616828255" lon="-3.3526173640244763"><ele>135.0</ele><time>2026-04-30T15:13:43.002Z</time></trkpt><trkpt lat="43.39124200831933" lon="-3.3527431262063905"><ele>134.0</ele><time>2026-04-30T15:13:44.002Z</time></trkpt><trkpt lat="43.39131391357084" lon="-3.3528651768469087"><ele>133.0</ele><time>2026-04-30T15:13:45.002Z</time></trkpt><trkpt lat="43.391388994013234" lon="-3.3529848167538594"><ele>132.0</ele><time>2026-04-30T15:13:46.002Z</time></trkpt><trkpt lat="43.39146951156333" lon="-3.3531013035405266"><ele>131.0</ele><time>2026-04-30T15:13:47.002Z</time></trkpt><trkpt lat="43.391551732007684" lon="-3.353217658317524"><ele>133.75</ele><time>2026-04-30T15:13:48.002Z</time></trkpt><trkpt lat="43.39163535642801" lon="-3.353331085963404"><ele>136.5</ele><time>2026-04-30T15:13:49.002Z</time></trkpt><trkpt lat="43.3917240536965" lon="-3.353448485723755"><ele>139.25</ele><time>2026-04-30T15:13:50.002Z</time></trkpt><trkpt lat="43.39180923298602" lon="-3.3535667719758053"><ele>142.0</ele><time>2026-04-30T15:13:51.002Z</time></trkpt><trkpt lat="43.391899737495294" lon="-3.3536752288869858"><ele>142.0</ele><time>2026-04-30T15:13:52.002Z</time></trkpt><trkpt lat="43.391987760286625" lon="-3.3537864562603206"><ele>142.0</ele><time>2026-04-30T15:13:53.002Z</time></trkpt><trkpt lat="43.39207580155547" lon="-3.3539002105389946"><ele>142.0</ele><time>2026-04-30T15:13:54.002Z</time></trkpt><trkpt lat="43.39216515722044" lon="-3.354018804990467"><ele>142.0</ele><time>2026-04-30T15:13:55.002Z</time></trkpt><trkpt lat="43.392252990550034" lon="-3.3541177868507805"><ele>140.0</ele><time>2026-04-30T15:13:56.002Z</time></trkpt><trkpt lat="43.392341013051734" lon="-3.354225753832298"><ele>138.0</ele><time>2026-04-30T15:13:57.002Z</time></trkpt><trkpt lat="43.392429289824534" lon="-3.354337948102256"><ele>136.0</ele><time>2026-04-30T15:13:58.002Z</time></trkpt><trkpt lat="43.392519121419355" lon="-3.354440472325948"><ele>134.0</ele><time>2026-04-30T15:13:59Z</time></trkpt><trkpt lat="43.392612666892944" lon="-3.354540450741173"><ele>134.0</ele><time>2026-04-30T15:14:00Z</time></trkpt><trkpt lat="43.392701427615904" lon="-3.3546370296954287"><ele>134.0</ele><time>2026-04-30T15:14:01Z</time></trkpt><trkpt lat="43.39279541672888" lon="-3.3547313606367744"><ele>134.0</ele><time>2026-04-30T15:14:02Z</time></trkpt><trkpt lat="43.392891724034264" lon="-3.3548214585254494"><ele>134.0</ele><time>2026-04-30T15:14:03Z</time></trkpt><trkpt lat="43.39299377094969" lon="-3.3549010579819685"><ele>131.75</ele><time>2026-04-30T15:14:04Z</time></trkpt><trkpt lat="43.39310017319748" lon="-3.35497055116498"><ele>129.5</ele><time>2026-04-30T15:14:05Z</time></trkpt><trkpt lat="43.39320585880697" lon="-3.35503287463033"><ele>127.25</ele><time>2026-04-30T15:14:06Z</time></trkpt><trkpt lat="43.393309778219844" lon="-3.3550994664322515"><ele>125.0</ele><time>2026-04-30T15:14:07Z</time></trkpt><trkpt lat="43.393416625682086" lon="-3.355145786484078"><ele>125.0</ele><time>2026-04-30T15:14:08Z</time></trkpt><trkpt lat="43.39352760874667" lon="-3.355190605105599"><ele>125.0</ele><time>2026-04-30T15:14:09Z</time></trkpt><trkpt lat="43.39363322324074" lon="-3.355242515440038"><ele>125.0</ele><time>2026-04-30T15:14:10Z</time></trkpt><trkpt lat="43.393742248573034" lon="-3.35526775713665"><ele>125.0</ele><time>2026-04-30T15:14:11Z</time></trkpt><trkpt lat="43.39386021570784" lon="-3.3552991466061854"><ele>125.5</ele><time>2026-04-30T15:14:12Z</time></trkpt><trkpt lat="43.3939754493689" lon="-3.355328524670659"><ele>126.0</ele><time>2026-04-30T15:14:13Z</time></trkpt><trkpt lat="43.3940877404697" lon="-3.355355694257164"><ele>126.5</ele><time>2026-04-30T15:14:14Z</time></trkpt><trkpt lat="43.39420015101467" lon="-3.3554038461992723"><ele>127.0</ele><time>2026-04-30T15:14:15Z</time></trkpt><trkpt lat="43.3943279860548" lon="-3.3554157799620423"><ele>127.0</ele><time>2026-04-30T15:14:16Z</time></trkpt><trkpt lat="43.3944515531965" lon="-3.3554408144561867"><ele>127.0</ele><time>2026-04-30T15:14:17Z</time></trkpt><trkpt lat="43.39457229572798" lon="-3.3554702641640475"><ele>127.0</ele><time>2026-04-30T15:14:18Z</time></trkpt><trkpt lat="43.394692844831575" lon="-3.3554990427478404"><ele>127.0</ele><time>2026-04-30T15:14:19Z</time></trkpt><trkpt lat="43.39480709521072" lon="-3.355525358765945"><ele>120.5</ele><time>2026-04-30T15:14:20Z</time></trkpt><trkpt lat="43.394921336887656" lon="-3.3555751562482867"><ele>114.0</ele><time>2026-04-30T15:14:21Z</time></trkpt><trkpt lat="43.395038941367716" lon="-3.355619901157959"><ele>107.5</ele><time>2026-04-30T15:14:22Z</time></trkpt><trkpt lat="43.39515103733007" lon="-3.3556673555632455"><ele>101.0</ele><time>2026-04-30T15:14:23Z</time></trkpt><trkpt lat="43.39525873307337" lon="-3.355727728872395"><ele>101.0</ele><time>2026-04-30T15:14:24Z</time></trkpt><trkpt lat="43.39536617077803" lon="-3.355793806390509"><ele>101.0</ele><time>2026-04-30T15:14:25Z</time></trkpt><trkpt lat="43.39547054466271" lon="-3.35586367285991"><ele>101.0</ele><time>2026-04-30T15:14:26Z</time></trkpt><trkpt lat="43.39557531117261" lon="-3.355933134759081"><ele>101.0</ele><time>2026-04-30T15:14:27Z</time></trkpt><trkpt lat="43.395677591138345" lon="-3.356016121529545"><ele>104.5</ele><time>2026-04-30T15:14:28.001Z</time></trkpt><trkpt lat="43.39577966437512" lon="-3.356097698006481"><ele>108.0</ele><time>2026-04-30T15:14:29.001Z</time></trkpt><trkpt lat="43.39588468742231" lon="-3.3561819958572743"><ele>111.5</ele><time>2026-04-30T15:14:30.001Z</time></trkpt><trkpt lat="43.39598264349393" lon="-3.356272774292332"><ele>115.0</ele><time>2026-04-30T15:14:31.001Z</time></trkpt><trkpt lat="43.39608415243224" lon="-3.3563597676015937"><ele>112.25</ele><time>2026-04-30T15:14:32.001Z</time></trkpt><trkpt lat="43.39618159220909" lon="-3.356443206349255"><ele>109.5</ele><time>2026-04-30T15:14:33.001Z</time></trkpt><trkpt lat="43.396279357174905" lon="-3.3565334289323356"><ele>106.75</ele><time>2026-04-30T15:14:34.001Z</time></trkpt><trkpt lat="43.39637073713494" lon="-3.3566216944408125"><ele>104.0</ele><time>2026-04-30T15:14:35.001Z</time></trkpt><trkpt lat="43.39645838645221" lon="-3.3567120418488"><ele>104.0</ele><time>2026-04-30T15:14:36.001Z</time></trkpt><trkpt lat="43.39654361992702" lon="-3.35681156347224"><ele>104.0</ele><time>2026-04-30T15:14:37.001Z</time></trkpt><trkpt lat="43.396621753075486" lon="-3.356913916447488"><ele>104.0</ele><time>2026-04-30T15:14:38.001Z</time></trkpt><trkpt lat="43.396693437514635" lon="-3.357022284120977"><ele>104.0</ele><time>2026-04-30T15:14:39.001Z</time></trkpt><trkpt lat="43.39676337053823" lon="-3.3571408071613433"><ele>104.0</ele><time>2026-04-30T15:14:40.001Z</time></trkpt><trkpt lat="43.39681751135317" lon="-3.3572686873495616"><ele>99.0</ele><time>2026-04-30T15:14:41.001Z</time></trkpt><trkpt lat="43.39685637325002" lon="-3.3574040578324444"><ele>94.0</ele><time>2026-04-30T15:14:42.001Z</time></trkpt><trkpt lat="43.396880650684764" lon="-3.357542968454416"><ele>89.0</ele><time>2026-04-30T15:14:43.001Z</time></trkpt><trkpt lat="43.396891916705066" lon="-3.3576876408033085"><ele>84.0</ele><time>2026-04-30T15:14:44.001Z</time></trkpt><trkpt lat="43.39689160449371" lon="-3.3578291358980454"><ele>79.0</ele><time>2026-04-30T15:14:45.001Z</time></trkpt><trkpt lat="43.396873345458246" lon="-3.357974603709475"><ele>79.0</ele><time>2026-04-30T15:14:46.001Z</time></trkpt><trkpt lat="43.396840379398455" lon="-3.358116234537414"><ele>79.0</ele><time>2026-04-30T15:14:47.001Z</time></trkpt><trkpt lat="43.39678735894485" lon="-3.3582523464122156"><ele>79.0</ele><time>2026-04-30T15:14:48.001Z</time></trkpt><trkpt lat="43.39672614655791" lon="-3.3583747628689196"><ele>79.0</ele><time>2026-04-30T15:14:49.001Z</time></trkpt><trkpt lat="43.396646783371025" lon="-3.3584863304750403"><ele>79.0</ele><time>2026-04-30T15:14:50.001Z</time></trkpt><trkpt lat="43.396559912563646" lon="-3.3585825607319224"><ele>79.0</ele><time>2026-04-30T15:14:51.001Z</time></trkpt><trkpt lat="43.39645917392024" lon="-3.3586530829395485"><ele>79.0</ele><time>2026-04-30T15:14:52.001Z</time></trkpt><trkpt lat="43.39635121439176" lon="-3.3587065250744135"><ele>79.0</ele><time>2026-04-30T15:14:53.001Z</time></trkpt><trkpt lat="43.39623824384535" lon="-3.3587385658220383"><ele>79.0</ele><time>2026-04-30T15:14:54.001Z</time></trkpt><trkpt lat="43.396128027046736" lon="-3.3587503373486927"><ele>77.0</ele><time>2026-04-30T15:14:55.001Z</time></trkpt><trkpt lat="43.396013847288025" lon="-3.358738441037925"><ele>75.0</ele><time>2026-04-30T15:14:56.001Z</time></trkpt><trkpt lat="43.39589983860018" lon="-3.3587030723034306"><ele>73.0</ele><time>2026-04-30T15:14:57.001Z</time></trkpt><trkpt lat="43.395792318467386" lon="-3.3586495674847243"><ele>71.0</ele><time>2026-04-30T15:14:58.001Z</time></trkpt><trkpt lat="43.39569038773234" lon="-3.3585815547435387"><ele>71.0</ele><time>2026-04-30T15:14:59.001Z</time></trkpt><trkpt lat="43.39558880471214" lon="-3.358500045120553"><ele>71.0</ele><time>2026-04-30T15:15:00.001Z</time></trkpt><trkpt lat="43.395492691120275" lon="-3.358408353862271"><ele>71.0</ele><time>2026-04-30T15:15:01.001Z</time></trkpt><trkpt lat="43.39540060762079" lon="-3.3583068692095517"><ele>71.0</ele><time>2026-04-30T15:15:02.001Z</time></trkpt><trkpt lat="43.39531212407038" lon="-3.3582012176268945"><ele>69.75</ele><time>2026-04-30T15:15:03.001Z</time></trkpt><trkpt lat="43.395227337028224" lon="-3.358091772963775"><ele>68.5</ele><time>2026-04-30T15:15:04.001Z</time></trkpt><trkpt lat="43.39514080825345" lon="-3.357981099504295"><ele>67.25</ele><time>2026-04-30T15:15:05.001Z</time></trkpt><trkpt lat="43.39505262621292" lon="-3.357879212719612"><ele>66.0</ele><time>2026-04-30T15:15:06.001Z</time></trkpt><trkpt lat="43.394961860392854" lon="-3.357780011959057"><ele>66.0</ele><time>2026-04-30T15:15:07.001Z</time></trkpt><trkpt lat="43.39487250521083" lon="-3.3576897925211724"><ele>66.0</ele><time>2026-04-30T15:15:08.001Z</time></trkpt><trkpt lat="43.394781318564156" lon="-3.3575999238699437"><ele>66.0</ele><time>2026-04-30T15:15:09.001Z</time></trkpt><trkpt lat="43.39468220948764" lon="-3.3575288019494796"><ele>66.0</ele><time>2026-04-30T15:15:10.001Z</time></trkpt><trkpt lat="43.39457779746722" lon="-3.3574764016436345"><ele>66.0</ele><time>2026-04-30T15:15:11.001Z</time></trkpt><trkpt lat="43.39446658166438" lon="-3.357436088677384"><ele>65.0</ele><time>2026-04-30T15:15:12.001Z</time></trkpt><trkpt lat="43.39435648495918" lon="-3.357399803999586"><ele>64.0</ele><time>2026-04-30T15:15:13.001Z</time></trkpt><trkpt lat="43.39424451569424" lon="-3.3574209735821348"><ele>63.0</ele><time>2026-04-30T15:15:14.001Z</time></trkpt><trkpt lat="43.394132024330496" lon="-3.3574475022666164"><ele>62.0</ele><time>2026-04-30T15:15:15.001Z</time></trkpt><trkpt lat="43.39402436673487" lon="-3.357499313780292"><ele>62.0</ele><time>2026-04-30T15:15:16.001Z</time></trkpt><trkpt lat="43.39391927887011" lon="-3.357563141705218"><ele>62.0</ele><time>2026-04-30T15:15:17.001Z</time></trkpt><trkpt lat="43.39381392996325" lon="-3.3576376820930296"><ele>62.0</ele><time>2026-04-30T15:15:18.001Z</time></trkpt><trkpt lat="43.39373377106853" lon="-3.3577621331244805"><ele>62.0</ele><time>2026-04-30T15:15:19.001Z</time></trkpt><trkpt lat="43.39366273650083" lon="-3.3578882838025446"><ele>60.25</ele><time>2026-04-30T15:15:20.001Z</time></trkpt><trkpt lat="43.39361506921534" lon="-3.358042485277221"><ele>58.5</ele><time>2026-04-30T15:15:21.001Z</time></trkpt><trkpt lat="43.393586110332585" lon="-3.3582107512491235"><ele>56.75</ele><time>2026-04-30T15:15:22.001Z</time></trkpt><trkpt lat="43.393579851641775" lon="-3.3583767259590602"><ele>55.0</ele><time>2026-04-30T15:15:23.001Z</time></trkpt><trkpt lat="43.3935939589986" lon="-3.358541801263459"><ele>55.0</ele><time>2026-04-30T15:15:24.001Z</time></trkpt><trkpt lat="43.39363190669081" lon="-3.3587027188560885"><ele>55.0</ele><time>2026-04-30T15:15:25.001Z</time></trkpt><trkpt lat="43.393678743021276" lon="-3.3588589246586777"><ele>55.0</ele><time>2026-04-30T15:15:26.001Z</time></trkpt><trkpt lat="43.3937438570993" lon="-3.3589966670699933"><ele>55.0</ele><time>2026-04-30T15:15:27.001Z</time></trkpt><trkpt lat="43.39382322308191" lon="-3.3591285217075812"><ele>52.25</ele><time>2026-04-30T15:15:28.001Z</time></trkpt><trkpt lat="43.39390563751731" lon="-3.3592448107870063"><ele>49.5</ele><time>2026-04-30T15:15:29.001Z</time></trkpt><trkpt lat="43.393990650675526" lon="-3.3593598670894824"><ele>46.75</ele><time>2026-04-30T15:15:30.001Z</time></trkpt><trkpt lat="43.39408247934964" lon="-3.3594604837828177"><ele>44.0</ele><time>2026-04-30T15:15:31.002Z</time></trkpt><trkpt lat="43.3941771371954" lon="-3.3595541358517202"><ele>44.0</ele><time>2026-04-30T15:15:32.002Z</time></trkpt><trkpt lat="43.394274450132016" lon="-3.3596476639458643"><ele>44.0</ele><time>2026-04-30T15:15:33.002Z</time></trkpt><trkpt lat="43.39436906857955" lon="-3.3597417728154815"><ele>44.0</ele><time>2026-04-30T15:15:34.002Z</time></trkpt><trkpt lat="43.3944637866918" lon="-3.3598324086244364"><ele>44.0</ele><time>2026-04-30T15:15:35.002Z</time></trkpt><trkpt lat="43.39455722675467" lon="-3.3599300932784195"><ele>44.0</ele><time>2026-04-30T15:15:36.002Z</time></trkpt><trkpt lat="43.39465246968296" lon="-3.360025890192744"><ele>44.0</ele><time>2026-04-30T15:15:37.002Z</time></trkpt><trkpt lat="43.3947473904782" lon="-3.3601198091932893"><ele>44.0</ele><time>2026-04-30T15:15:38.002Z</time></trkpt><trkpt lat="43.39484404230338" lon="-3.3602076502502474"><ele>44.0</ele><time>2026-04-30T15:15:39.002Z</time></trkpt><trkpt lat="43.39494020397363" lon="-3.3602944823117746"><ele>44.0</ele><time>2026-04-30T15:15:40.002Z</time></trkpt><trkpt lat="43.395041937504956" lon="-3.360373968069028"><ele>44.0</ele><time>2026-04-30T15:15:41.002Z</time></trkpt><trkpt lat="43.39514421750744" lon="-3.360455108454266"><ele>44.0</ele><time>2026-04-30T15:15:42.002Z</time></trkpt><trkpt lat="43.395245184101306" lon="-3.3605346350032295"><ele>44.0</ele><time>2026-04-30T15:15:43.002Z</time></trkpt><trkpt lat="43.39534985702358" lon="-3.360609498863532"><ele>42.5</ele><time>2026-04-30T15:15:44.002Z</time></trkpt><trkpt lat="43.39545186135784" lon="-3.360698636911846"><ele>41.0</ele><time>2026-04-30T15:15:45.002Z</time></trkpt><trkpt lat="43.395554780025684" lon="-3.360771349816806"><ele>39.5</ele><time>2026-04-30T15:15:46.002Z</time></trkpt><trkpt lat="43.395656591324254" lon="-3.360853948633742"><ele>38.0</ele><time>2026-04-30T15:15:47.002Z</time></trkpt><trkpt lat="43.395761931240365" lon="-3.3609276542697044"><ele>38.0</ele><time>2026-04-30T15:15:48.002Z</time></trkpt><trkpt lat="43.395865497408295" lon="-3.360995304982871"><ele>38.0</ele><time>2026-04-30T15:15:49.002Z</time></trkpt><trkpt lat="43.395971160839146" lon="-3.361061701786785"><ele>38.0</ele><time>2026-04-30T15:15:50.002Z</time></trkpt><trkpt lat="43.396072995233965" lon="-3.3611275859111664"><ele>38.0</ele><time>2026-04-30T15:15:51.002Z</time></trkpt><trkpt lat="43.396175528110945" lon="-3.361196445040368"><ele>38.0</ele><time>2026-04-30T15:15:52.002Z</time></trkpt><trkpt lat="43.39627073755648" lon="-3.3612725763824707"><ele>38.0</ele><time>2026-04-30T15:15:53.002Z</time></trkpt><trkpt lat="43.396358869252914" lon="-3.3613658954143664"><ele>38.0</ele><time>2026-04-30T15:15:54.002Z</time></trkpt><trkpt lat="43.39644088238386" lon="-3.361467762825184"><ele>38.0</ele><time>2026-04-30T15:15:55.002Z</time></trkpt><trkpt lat="43.39651772387209" lon="-3.361574536819964"><ele>38.0</ele><time>2026-04-30T15:15:56.002Z</time></trkpt><trkpt lat="43.39659157512032" lon="-3.3616861839046757"><ele>34.8</ele><time>2026-04-30T15:15:57.002Z</time></trkpt><trkpt lat="43.39665116741243" lon="-3.3617936818604535"><ele>31.599999999999998</ele><time>2026-04-30T15:15:58.002Z</time></trkpt><trkpt lat="43.396713178271725" lon="-3.361897540294051"><ele>28.4</ele><time>2026-04-30T15:15:59.002Z</time></trkpt><trkpt lat="43.39677346942833" lon="-3.361998085625757"><ele>25.200000000000003</ele><time>2026-04-30T15:16:00.002Z</time></trkpt><trkpt lat="43.3968271805803" lon="-3.362095798087683"><ele>22.0</ele><time>2026-04-30T15:16:01.002Z</time></trkpt><trkpt lat="43.39688182556695" lon="-3.3621931172783768"><ele>22.0</ele><time>2026-04-30T15:16:02.002Z</time></trkpt><trkpt lat="43.396925542114055" lon="-3.3622876095045333"><ele>22.0</ele><time>2026-04-30T15:16:03.002Z</time></trkpt><trkpt lat="43.39698279771987" lon="-3.362376776582183"><ele>22.0</ele><time>2026-04-30T15:16:04.002Z</time></trkpt><trkpt lat="43.39703470298014" lon="-3.3624680558030913"><ele>22.0</ele><time>2026-04-30T15:16:05Z</time></trkpt><trkpt lat="43.39709225647919" lon="-3.362563232933958"><ele>22.0</ele><time>2026-04-30T15:16:06Z</time></trkpt><trkpt lat="43.39713249502377" lon="-3.362657547597855"><ele>22.0</ele><time>2026-04-30T15:16:07Z</time></trkpt><trkpt lat="43.397181470367116" lon="-3.362749665806211"><ele>22.0</ele><time>2026-04-30T15:16:08Z</time></trkpt><trkpt lat="43.397227971851926" lon="-3.3628453053183414"><ele>22.0</ele><time>2026-04-30T15:16:09Z</time></trkpt><trkpt lat="43.39727563878104" lon="-3.3629371097095873"><ele>22.0</ele><time>2026-04-30T15:16:10Z</time></trkpt><trkpt lat="43.39732814970926" lon="-3.363028522667938"><ele>22.0</ele><time>2026-04-30T15:16:11Z</time></trkpt><trkpt lat="43.39738316281636" lon="-3.363122927792787"><ele>22.0</ele><time>2026-04-30T15:16:12Z</time></trkpt><trkpt lat="43.39743277877885" lon="-3.363221536420815"><ele>22.0</ele><time>2026-04-30T15:16:13Z</time></trkpt><trkpt lat="43.39748364217145" lon="-3.36331674869868"><ele>22.0</ele><time>2026-04-30T15:16:14Z</time></trkpt><trkpt lat="43.39753321639088" lon="-3.3634173437462893"><ele>22.0</ele><time>2026-04-30T15:16:15Z</time></trkpt><trkpt lat="43.39758231615369" lon="-3.3635120162068213"><ele>22.0</ele><time>2026-04-30T15:16:16Z</time></trkpt><trkpt lat="43.397636681806695" lon="-3.363609426070887"><ele>22.0</ele><time>2026-04-30T15:16:17Z</time></trkpt><trkpt lat="43.397692380584324" lon="-3.3637068770752743"><ele>22.0</ele><time>2026-04-30T15:16:18Z</time></trkpt><trkpt lat="43.397746991464025" lon="-3.363805501818483"><ele>22.0</ele><time>2026-04-30T15:16:19Z</time></trkpt><trkpt lat="43.397803710239415" lon="-3.3639038055854344"><ele>22.0</ele><time>2026-04-30T15:16:20Z</time></trkpt><trkpt lat="43.397859423093735" lon="-3.3640046166016164"><ele>22.0</ele><time>2026-04-30T15:16:21Z</time></trkpt><trkpt lat="43.397913386055585" lon="-3.364106995237323"><ele>22.0</ele><time>2026-04-30T15:16:22Z</time></trkpt><trkpt lat="43.39796729424289" lon="-3.364205907395662"><ele>22.0</ele><time>2026-04-30T15:16:23Z</time></trkpt><trkpt lat="43.39802123668827" lon="-3.364312442663367"><ele>22.0</ele><time>2026-04-30T15:16:24Z</time></trkpt><trkpt lat="43.39807264736024" lon="-3.364415793980235"><ele>22.0</ele><time>2026-04-30T15:16:25Z</time></trkpt><trkpt lat="43.39812518109546" lon="-3.3645129705832355"><ele>22.0</ele><time>2026-04-30T15:16:26Z</time></trkpt><trkpt lat="43.39817380955537" lon="-3.3646087151562982"><ele>22.0</ele><time>2026-04-30T15:16:27Z</time></trkpt><trkpt lat="43.39821894921785" lon="-3.364697938730874"><ele>22.0</ele><time>2026-04-30T15:16:28Z</time></trkpt><trkpt lat="43.398265051221124" lon="-3.3647859462002514"><ele>22.0</ele><time>2026-04-30T15:16:29Z</time></trkpt><trkpt lat="43.39831157926597" lon="-3.3648671685432845"><ele>22.0</ele><time>2026-04-30T15:16:30Z</time></trkpt><trkpt lat="43.398363777107015" lon="-3.364956801460166"><ele>22.166666666666664</ele><time>2026-04-30T15:16:31Z</time></trkpt><trkpt lat="43.39841507772022" lon="-3.3650437098618053"><ele>22.333333333333332</ele><time>2026-04-30T15:16:32Z</time></trkpt><trkpt lat="43.39846381018394" lon="-3.365143302917908"><ele>22.5</ele><time>2026-04-30T15:16:33Z</time></trkpt><trkpt lat="43.39851451883347" lon="-3.365237975941471"><ele>22.666666666666668</ele><time>2026-04-30T15:16:34Z</time></trkpt><trkpt lat="43.398567543098764" lon="-3.365335840720945"><ele>22.833333333333336</ele><time>2026-04-30T15:16:35Z</time></trkpt><trkpt lat="43.39862029827449" lon="-3.3654354727609688"><ele>23.0</ele><time>2026-04-30T15:16:36Z</time></trkpt><trkpt lat="43.39867390839746" lon="-3.3655297157988127"><ele>23.0</ele><time>2026-04-30T15:16:37Z</time></trkpt><trkpt lat="43.398725082859116" lon="-3.3656300278190234"><ele>23.0</ele><time>2026-04-30T15:16:38Z</time></trkpt><trkpt lat="43.39877824933182" lon="-3.3657295070318907"><ele>23.0</ele><time>2026-04-30T15:16:39Z</time></trkpt><trkpt lat="43.39883136340986" lon="-3.3658260235113864"><ele>23.0</ele><time>2026-04-30T15:16:40Z</time></trkpt><trkpt lat="43.39888482630679" lon="-3.365926643337617"><ele>23.0</ele><time>2026-04-30T15:16:41Z</time></trkpt><trkpt lat="43.39893883313041" lon="-3.366026156369795"><ele>23.0</ele><time>2026-04-30T15:16:42Z</time></trkpt><trkpt lat="43.39899177107383" lon="-3.366126825810759"><ele>23.0</ele><time>2026-04-30T15:16:43Z</time></trkpt><trkpt lat="43.39904338157727" lon="-3.366234461708023"><ele>23.0</ele><time>2026-04-30T15:16:44Z</time></trkpt><trkpt lat="43.39909660403119" lon="-3.366336164054"><ele>23.0</ele><time>2026-04-30T15:16:45Z</time></trkpt><trkpt lat="43.39915330343883" lon="-3.36643557236184"><ele>23.0</ele><time>2026-04-30T15:16:46Z</time></trkpt><trkpt lat="43.39921679052177" lon="-3.3665269435988763"><ele>23.0</ele><time>2026-04-30T15:16:47Z</time></trkpt><trkpt lat="43.39927695628564" lon="-3.366623353124634"><ele>23.0</ele><time>2026-04-30T15:16:48Z</time></trkpt><trkpt lat="43.39933580226851" lon="-3.366715331196709"><ele>23.0</ele><time>2026-04-30T15:16:49Z</time></trkpt><trkpt lat="43.399383130463484" lon="-3.366824021703158"><ele>23.0</ele><time>2026-04-30T15:16:50Z</time></trkpt><trkpt lat="43.399424257141206" lon="-3.366938612747781"><ele>23.0</ele><time>2026-04-30T15:16:51Z</time></trkpt><trkpt lat="43.399469666675124" lon="-3.3670459763190053"><ele>23.0</ele><time>2026-04-30T15:16:52Z</time></trkpt><trkpt lat="43.399527034375716" lon="-3.3671435906150617"><ele>23.0</ele><time>2026-04-30T15:16:53Z</time></trkpt><trkpt lat="43.39958348985928" lon="-3.3672426750162825"><ele>23.0</ele><time>2026-04-30T15:16:54Z</time></trkpt><trkpt lat="43.39964125827622" lon="-3.3673377101051103"><ele>23.0</ele><time>2026-04-30T15:16:55.001Z</time></trkpt><trkpt lat="43.399695832210064" lon="-3.367441787529124"><ele>23.0</ele><time>2026-04-30T15:16:56.001Z</time></trkpt><trkpt lat="43.39975073559548" lon="-3.367545487569464"><ele>23.0</ele><time>2026-04-30T15:16:57.001Z</time></trkpt><trkpt lat="43.3998061546999" lon="-3.3676465991874176"><ele>23.2</ele><time>2026-04-30T15:16:58.001Z</time></trkpt><trkpt lat="43.399860539072705" lon="-3.3677493506288085"><ele>23.4</ele><time>2026-04-30T15:16:59.001Z</time></trkpt><trkpt lat="43.399914745019615" lon="-3.367850257235824"><ele>23.599999999999998</ele><time>2026-04-30T15:17:00.001Z</time></trkpt><trkpt lat="43.39997271244445" lon="-3.3679495520044522"><ele>23.799999999999997</ele><time>2026-04-30T15:17:01.001Z</time></trkpt><trkpt lat="43.40002645637435" lon="-3.368052449688089"><ele>24.0</ele><time>2026-04-30T15:17:02.001Z</time></trkpt><trkpt lat="43.40008322935756" lon="-3.36814712700515"><ele>24.2</ele><time>2026-04-30T15:17:03.001Z</time></trkpt><trkpt lat="43.400135238685735" lon="-3.368251926683868"><ele>24.4</ele><time>2026-04-30T15:17:04.001Z</time></trkpt><trkpt lat="43.40018968319172" lon="-3.36835272525816"><ele>24.6</ele><time>2026-04-30T15:17:05.001Z</time></trkpt><trkpt lat="43.40024510333646" lon="-3.3684532117775934"><ele>24.8</ele><time>2026-04-30T15:17:06.001Z</time></trkpt><trkpt lat="43.4002992305276" lon="-3.368549616036519"><ele>25.0</ele><time>2026-04-30T15:17:07.001Z</time></trkpt><trkpt lat="43.40035087255852" lon="-3.3686506236195912"><ele>25.000000000000004</ele><time>2026-04-30T15:17:08.001Z</time></trkpt><trkpt lat="43.400401817565594" lon="-3.3687485347365045"><ele>25.0</ele><time>2026-04-30T15:17:09.001Z</time></trkpt><trkpt lat="43.400455146889435" lon="-3.3688446641390524"><ele>25.0</ele><time>2026-04-30T15:17:10.001Z</time></trkpt><trkpt lat="43.40051003137797" lon="-3.368937906848961"><ele>25.0</ele><time>2026-04-30T15:17:11.001Z</time></trkpt><trkpt lat="43.40056188405675" lon="-3.3690343312524647"><ele>25.000000000000004</ele><time>2026-04-30T15:17:12.001Z</time></trkpt><trkpt lat="43.4006116578725" lon="-3.369133803123809"><ele>25.0</ele><time>2026-04-30T15:17:13.001Z</time></trkpt><trkpt lat="43.40066253676796" lon="-3.3692274418344828"><ele>25.166666666666668</ele><time>2026-04-30T15:17:14.001Z</time></trkpt><trkpt lat="43.40071485312179" lon="-3.369324054016404"><ele>25.333333333333336</ele><time>2026-04-30T15:17:15.001Z</time></trkpt><trkpt lat="43.40076675730225" lon="-3.369418627552645"><ele>25.5</ele><time>2026-04-30T15:17:16.001Z</time></trkpt><trkpt lat="43.400817459169055" lon="-3.3695137299432756"><ele>25.666666666666664</ele><time>2026-04-30T15:17:17.001Z</time></trkpt><trkpt lat="43.400866320597366" lon="-3.3696126312009507"><ele>25.833333333333332</ele><time>2026-04-30T15:17:18.001Z</time></trkpt><trkpt lat="43.40091905005699" lon="-3.3697014236321268"><ele>26.0</ele><time>2026-04-30T15:17:19.001Z</time></trkpt><trkpt lat="43.40096945102905" lon="-3.3697975746555064"><ele>25.999999999999996</ele><time>2026-04-30T15:17:20.001Z</time></trkpt><trkpt lat="43.40102371464423" lon="-3.3698887773678106"><ele>26.0</ele><time>2026-04-30T15:17:21.001Z</time></trkpt><trkpt lat="43.4010747687613" lon="-3.3699833302931412"><ele>26.0</ele><time>2026-04-30T15:17:22.001Z</time></trkpt><trkpt lat="43.401125096601795" lon="-3.3700829807299995"><ele>26.0</ele><time>2026-04-30T15:17:23.001Z</time></trkpt><trkpt lat="43.40117876841838" lon="-3.370174055511366"><ele>25.999999999999996</ele><time>2026-04-30T15:17:24.001Z</time></trkpt><trkpt lat="43.401228961345666" lon="-3.3702683244318"><ele>26.0</ele><time>2026-04-30T15:17:25.001Z</time></trkpt><trkpt lat="43.401279223386375" lon="-3.370363731018916"><ele>25.999999999999996</ele><time>2026-04-30T15:17:26.001Z</time></trkpt><trkpt lat="43.40133179589038" lon="-3.3704547822863824"><ele>26.0</ele><time>2026-04-30T15:17:27.001Z</time></trkpt><trkpt lat="43.40138067581103" lon="-3.3705476960776113"><ele>26.0</ele><time>2026-04-30T15:17:28.001Z</time></trkpt><trkpt lat="43.40142828152993" lon="-3.3706425020564246"><ele>26.0</ele><time>2026-04-30T15:17:29.001Z</time></trkpt><trkpt lat="43.401479061149324" lon="-3.3707427936494367"><ele>25.999999999999996</ele><time>2026-04-30T15:17:30.001Z</time></trkpt><trkpt lat="43.40152970260973" lon="-3.370839774622844"><ele>26.0</ele><time>2026-04-30T15:17:31.001Z</time></trkpt><trkpt lat="43.40158361032104" lon="-3.3709363824561946"><ele>26.333333333333332</ele><time>2026-04-30T15:17:32.001Z</time></trkpt><trkpt lat="43.401639333862335" lon="-3.3710294847187123"><ele>26.666666666666664</ele><time>2026-04-30T15:17:33.001Z</time></trkpt><trkpt lat="43.40169428512854" lon="-3.371128904149572"><ele>27.0</ele><time>2026-04-30T15:17:34.001Z</time></trkpt><trkpt lat="43.40174822083092" lon="-3.371227763423622"><ele>27.333333333333336</ele><time>2026-04-30T15:17:35.001Z</time></trkpt><trkpt lat="43.40179857423297" lon="-3.3713274044601143"><ele>27.666666666666668</ele><time>2026-04-30T15:17:36.001Z</time></trkpt><trkpt lat="43.40184844784619" lon="-3.371431636341232"><ele>28.0</ele><time>2026-04-30T15:17:37.001Z</time></trkpt><trkpt lat="43.40190139250278" lon="-3.3715340447700703"><ele>28.0</ele><time>2026-04-30T15:17:38.001Z</time></trkpt><trkpt lat="43.40195588081352" lon="-3.371635646154608"><ele>27.999999999999996</ele><time>2026-04-30T15:17:39.001Z</time></trkpt><trkpt lat="43.4020075569436" lon="-3.3717382342784443"><ele>27.999999999999996</ele><time>2026-04-30T15:17:40.001Z</time></trkpt><trkpt lat="43.40206436995221" lon="-3.3718362223854"><ele>28.0</ele><time>2026-04-30T15:17:41.001Z</time></trkpt><trkpt lat="43.40211836366503" lon="-3.3719392585616035"><ele>28.0</ele><time>2026-04-30T15:17:42.001Z</time></trkpt><trkpt lat="43.40217320318237" lon="-3.3720424085219975"><ele>28.166666666666668</ele><time>2026-04-30T15:17:43.001Z</time></trkpt><trkpt lat="43.4022281557723" lon="-3.3721437213417946"><ele>28.333333333333336</ele><time>2026-04-30T15:17:44.001Z</time></trkpt><trkpt lat="43.402284772350306" lon="-3.37224096734018"><ele>28.5</ele><time>2026-04-30T15:17:45.001Z</time></trkpt><trkpt lat="43.4023407216901" lon="-3.3723390506867506"><ele>28.666666666666664</ele><time>2026-04-30T15:17:46.001Z</time></trkpt><trkpt lat="43.402391615149384" lon="-3.3724377510767924"><ele>28.833333333333332</ele><time>2026-04-30T15:17:47.001Z</time></trkpt><trkpt lat="43.40244029713027" lon="-3.3725380351434615"><ele>29.0</ele><time>2026-04-30T15:17:48.001Z</time></trkpt><trkpt lat="43.40249389817736" lon="-3.3726404028314425"><ele>29.499999999999996</ele><time>2026-04-30T15:17:49.001Z</time></trkpt><trkpt lat="43.402550631785196" lon="-3.372736807544339"><ele>30.0</ele><time>2026-04-30T15:17:50.001Z</time></trkpt><trkpt lat="43.402603329773726" lon="-3.372834166890227"><ele>30.5</ele><time>2026-04-30T15:17:51.001Z</time></trkpt><trkpt lat="43.40265815499115" lon="-3.3729260925452675"><ele>31.0</ele><time>2026-04-30T15:17:52.002Z</time></trkpt><trkpt lat="43.40271008145774" lon="-3.373023041675274"><ele>31.499999999999996</ele><time>2026-04-30T15:17:53.002Z</time></trkpt><trkpt lat="43.40275953832771" lon="-3.373121535804798"><ele>32.0</ele><time>2026-04-30T15:17:54.002Z</time></trkpt><trkpt lat="43.40280796293813" lon="-3.373221589952948"><ele>32.166666666666664</ele><time>2026-04-30T15:17:55.002Z</time></trkpt><trkpt lat="43.40285348918586" lon="-3.3733240817174877"><ele>32.33333333333333</ele><time>2026-04-30T15:17:56.002Z</time></trkpt><trkpt lat="43.40289455074541" lon="-3.3734284470627447"><ele>32.5</ele><time>2026-04-30T15:17:57.002Z</time></trkpt><trkpt lat="43.40293405525522" lon="-3.3735352149742104"><ele>32.666666666666664</ele><time>2026-04-30T15:17:58.002Z</time></trkpt><trkpt lat="43.40296545997295" lon="-3.3736461033006147"><ele>32.833333333333336</ele><time>2026-04-30T15:17:59.002Z</time></trkpt><trkpt lat="43.4029896995467" lon="-3.3737584329594883"><ele>33.0</ele><time>2026-04-30T15:18:00.002Z</time></trkpt><trkpt lat="43.40300715281239" lon="-3.3738758387356937"><ele>33.166666666666664</ele><time>2026-04-30T15:18:01.002Z</time></trkpt><trkpt lat="43.403019288139475" lon="-3.3739942745868863"><ele>33.333333333333336</ele><time>2026-04-30T15:18:02.002Z</time></trkpt><trkpt lat="43.40302799829954" lon="-3.374110353814654"><ele>33.5</ele><time>2026-04-30T15:18:03.002Z</time></trkpt><trkpt lat="43.4030261813537" lon="-3.3742299790629966"><ele>33.66666666666667</ele><time>2026-04-30T15:18:04.002Z</time></trkpt><trkpt lat="43.40301953379412" lon="-3.3743459606718025"><ele>33.833333333333336</ele><time>2026-04-30T15:18:05.002Z</time></trkpt><trkpt lat="43.4030036395553" lon="-3.374460180296834"><ele>34.0</ele><time>2026-04-30T15:18:06.002Z</time></trkpt><trkpt lat="43.40298053516343" lon="-3.374572397653436"><ele>34.0</ele><time>2026-04-30T15:18:07.002Z</time></trkpt><trkpt lat="43.4029533192831" lon="-3.374679377064427"><ele>34.0</ele><time>2026-04-30T15:18:08.002Z</time></trkpt><trkpt lat="43.402920069576716" lon="-3.37478271800847"><ele>34.0</ele><time>2026-04-30T15:18:09.002Z</time></trkpt><trkpt lat="43.402883285866004" lon="-3.374885538417444"><ele>34.0</ele><time>2026-04-30T15:18:10.002Z</time></trkpt><trkpt lat="43.40284452356383" lon="-3.3749866612536454"><ele>34.0</ele><time>2026-04-30T15:18:11Z</time></trkpt><trkpt lat="43.40280556805447" lon="-3.375088385329063"><ele>34.0</ele><time>2026-04-30T15:18:12Z</time></trkpt><trkpt lat="43.40276671241174" lon="-3.3751863573136753"><ele>36.0</ele><time>2026-04-30T15:18:13Z</time></trkpt><trkpt lat="43.40272401252201" lon="-3.3752854005049024"><ele>38.0</ele><time>2026-04-30T15:18:14Z</time></trkpt><trkpt lat="43.40268265813525" lon="-3.37537959038447"><ele>40.0</ele><time>2026-04-30T15:18:15Z</time></trkpt><trkpt lat="43.40263840578822" lon="-3.3754734446195043"><ele>42.0</ele><time>2026-04-30T15:18:16Z</time></trkpt><trkpt lat="43.40259773273986" lon="-3.3755687216460823"><ele>44.0</ele><time>2026-04-30T15:18:17Z</time></trkpt><trkpt lat="43.40255335194836" lon="-3.375663863819351"><ele>46.0</ele><time>2026-04-30T15:18:18Z</time></trkpt><trkpt lat="43.40251124710731" lon="-3.3757616234879775"><ele>47.5</ele><time>2026-04-30T15:18:19Z</time></trkpt><trkpt lat="43.40247259372821" lon="-3.3758607826152582"><ele>49.0</ele><time>2026-04-30T15:18:20Z</time></trkpt><trkpt lat="43.402433730444265" lon="-3.375955737661715"><ele>50.5</ele><time>2026-04-30T15:18:21Z</time></trkpt><trkpt lat="43.40238980851607" lon="-3.3760508124653392"><ele>52.0</ele><time>2026-04-30T15:18:22Z</time></trkpt><trkpt lat="43.402349186536796" lon="-3.376146443365044"><ele>53.49999999999999</ele><time>2026-04-30T15:18:23Z</time></trkpt><trkpt lat="43.40230805096083" lon="-3.3762386317190956"><ele>55.0</ele><time>2026-04-30T15:18:24Z</time></trkpt><trkpt lat="43.40226405053778" lon="-3.3763304262769087"><ele>54.166666666666664</ele><time>2026-04-30T15:18:25Z</time></trkpt><trkpt lat="43.40222104374836" lon="-3.3764259627252087"><ele>53.33333333333333</ele><time>2026-04-30T15:18:26Z</time></trkpt><trkpt lat="43.40218099856696" lon="-3.376520875835391"><ele>52.5</ele><time>2026-04-30T15:18:27Z</time></trkpt><trkpt lat="43.402141818170264" lon="-3.376610308963109"><ele>51.66666666666667</ele><time>2026-04-30T15:18:28Z</time></trkpt><trkpt lat="43.402096085796124" lon="-3.3767047821162186"><ele>50.833333333333336</ele><time>2026-04-30T15:18:29Z</time></trkpt><trkpt lat="43.40205451805417" lon="-3.3767985047801994"><ele>50.0</ele><time>2026-04-30T15:18:30Z</time></trkpt><trkpt lat="43.402011874505206" lon="-3.3768907298291757"><ele>50.00000000000001</ele><time>2026-04-30T15:18:31Z</time></trkpt><trkpt lat="43.40196872471034" lon="-3.376987005403547"><ele>50.0</ele><time>2026-04-30T15:18:32Z</time></trkpt><trkpt lat="43.4019278038289" lon="-3.377082000297967"><ele>50.0</ele><time>2026-04-30T15:18:33Z</time></trkpt><trkpt lat="43.401882934038774" lon="-3.377174194432692"><ele>50.0</ele><time>2026-04-30T15:18:34Z</time></trkpt><trkpt lat="43.40183338524771" lon="-3.3772645739949603"><ele>50.00000000000001</ele><time>2026-04-30T15:18:35Z</time></trkpt><trkpt lat="43.40178779806397" lon="-3.3773575869113324"><ele>50.0</ele><time>2026-04-30T15:18:36Z</time></trkpt><trkpt lat="43.40174026566408" lon="-3.3774589158476567"><ele>52.16666666666667</ele><time>2026-04-30T15:18:37Z</time></trkpt><trkpt lat="43.4016914457559" lon="-3.3775553481346083"><ele>54.333333333333336</ele><time>2026-04-30T15:18:38Z</time></trkpt><trkpt lat="43.40164094377416" lon="-3.37764646630199"><ele>56.5</ele><time>2026-04-30T15:18:39Z</time></trkpt><trkpt lat="43.40159357822462" lon="-3.3777442405280835"><ele>58.66666666666667</ele><time>2026-04-30T15:18:40Z</time></trkpt><trkpt lat="43.40154440201857" lon="-3.3778419325532707"><ele>60.833333333333336</ele><time>2026-04-30T15:18:41Z</time></trkpt><trkpt lat="43.401494156287434" lon="-3.3779356701468712"><ele>63.0</ele><time>2026-04-30T15:18:42Z</time></trkpt><trkpt lat="43.401445488583924" lon="-3.3780275397691084"><ele>62.833333333333336</ele><time>2026-04-30T15:18:43Z</time></trkpt><trkpt lat="43.40139628493394" lon="-3.3781173883450126"><ele>62.66666666666667</ele><time>2026-04-30T15:18:44Z</time></trkpt><trkpt lat="43.40134495698241" lon="-3.3782116375321407"><ele>62.5</ele><time>2026-04-30T15:18:45Z</time></trkpt><trkpt lat="43.4012999078864" lon="-3.3783089855314063"><ele>62.333333333333336</ele><time>2026-04-30T15:18:46Z</time></trkpt><trkpt lat="43.40125463004442" lon="-3.3784030099161333"><ele>62.16666666666667</ele><time>2026-04-30T15:18:47Z</time></trkpt><trkpt lat="43.40121026268902" lon="-3.378496870697117"><ele>62.0</ele><time>2026-04-30T15:18:48Z</time></trkpt><trkpt lat="43.40116553932113" lon="-3.378590400173767"><ele>62.00000000000001</ele><time>2026-04-30T15:18:49Z</time></trkpt><trkpt lat="43.40111981042426" lon="-3.378684897962045"><ele>62.0</ele><time>2026-04-30T15:18:50Z</time></trkpt><trkpt lat="43.40107916624405" lon="-3.3787806743834494"><ele>62.0</ele><time>2026-04-30T15:18:51Z</time></trkpt><trkpt lat="43.40103617201362" lon="-3.3788732717270102"><ele>62.0</ele><time>2026-04-30T15:18:52Z</time></trkpt><trkpt lat="43.40099404994107" lon="-3.3789655659410753"><ele>62.00000000000001</ele><time>2026-04-30T15:18:53Z</time></trkpt><trkpt lat="43.400951802672814" lon="-3.3790586326920726"><ele>62.0</ele><time>2026-04-30T15:18:54Z</time></trkpt><trkpt lat="43.40091045147548" lon="-3.379152768266281"><ele>63.833333333333336</ele><time>2026-04-30T15:18:55Z</time></trkpt><trkpt lat="43.40086748205654" lon="-3.3792424691250225"><ele>65.66666666666667</ele><time>2026-04-30T15:18:56Z</time></trkpt><trkpt lat="43.40082720528144" lon="-3.3793366962733766"><ele>67.5</ele><time>2026-04-30T15:18:57Z</time></trkpt><trkpt lat="43.40078617736512" lon="-3.3794310485337786"><ele>69.33333333333333</ele><time>2026-04-30T15:18:58Z</time></trkpt><trkpt lat="43.40074551556766" lon="-3.379528742989103"><ele>71.16666666666666</ele><time>2026-04-30T15:18:59Z</time></trkpt><trkpt lat="43.4007036992988" lon="-3.3796269160019676"><ele>73.0</ele><time>2026-04-30T15:19:00Z</time></trkpt><trkpt lat="43.400660247658934" lon="-3.3797188861439453"><ele>72.16666666666666</ele><time>2026-04-30T15:19:01Z</time></trkpt><trkpt lat="43.400612396870464" lon="-3.3798091471645293"><ele>71.33333333333333</ele><time>2026-04-30T15:19:02.001Z</time></trkpt><trkpt lat="43.40056030813932" lon="-3.3798988632971647"><ele>70.5</ele><time>2026-04-30T15:19:03.001Z</time></trkpt><trkpt lat="43.400501652541756" lon="-3.3799849980440264"><ele>69.66666666666667</ele><time>2026-04-30T15:19:04.001Z</time></trkpt><trkpt lat="43.4004373937237" lon="-3.3800629205897716"><ele>68.83333333333334</ele><time>2026-04-30T15:19:05.001Z</time></trkpt><trkpt lat="43.4003679629708" lon="-3.380135474747349"><ele>68.0</ele><time>2026-04-30T15:19:06.001Z</time></trkpt><trkpt lat="43.4002967224104" lon="-3.3801986433413993"><ele>68.0</ele><time>2026-04-30T15:19:07.001Z</time></trkpt><trkpt lat="43.40022084763448" lon="-3.3802545433754174"><ele>68.0</ele><time>2026-04-30T15:19:08.001Z</time></trkpt><trkpt lat="43.40014143999082" lon="-3.380305908964665"><ele>68.0</ele><time>2026-04-30T15:19:09.001Z</time></trkpt><trkpt lat="43.400062091603864" lon="-3.380348277451331"><ele>68.0</ele><time>2026-04-30T15:19:10.001Z</time></trkpt><trkpt lat="43.39998421181633" lon="-3.380392641175366"><ele>68.0</ele><time>2026-04-30T15:19:11.001Z</time></trkpt><trkpt lat="43.3999017820782" lon="-3.3804435886033155"><ele>68.0</ele><time>2026-04-30T15:19:12.001Z</time></trkpt><trkpt lat="43.39982060896322" lon="-3.380489482551053"><ele>69.16666666666667</ele><time>2026-04-30T15:19:13.001Z</time></trkpt><trkpt lat="43.3997396693946" lon="-3.3805330984609854"><ele>70.33333333333334</ele><time>2026-04-30T15:19:14.001Z</time></trkpt><trkpt lat="43.399659811654644" lon="-3.3805702692219235"><ele>71.5</ele><time>2026-04-30T15:19:15.001Z</time></trkpt><trkpt lat="43.399578009600546" lon="-3.380620526695601"><ele>72.66666666666667</ele><time>2026-04-30T15:19:16.001Z</time></trkpt><trkpt lat="43.399499335266384" lon="-3.3806748387448478"><ele>73.83333333333333</ele><time>2026-04-30T15:19:17.001Z</time></trkpt><trkpt lat="43.399424461981326" lon="-3.38073757568017"><ele>75.0</ele><time>2026-04-30T15:19:18.001Z</time></trkpt><trkpt lat="43.39935300937761" lon="-3.3808145135423877"><ele>75.0</ele><time>2026-04-30T15:19:19.001Z</time></trkpt><trkpt lat="43.39928553676548" lon="-3.3808899453964223"><ele>75.0</ele><time>2026-04-30T15:19:20.001Z</time></trkpt><trkpt lat="43.3992251997179" lon="-3.38097787167396"><ele>75.0</ele><time>2026-04-30T15:19:21.001Z</time></trkpt><trkpt lat="43.399170393029344" lon="-3.3810686000656323"><ele>75.0</ele><time>2026-04-30T15:19:22.001Z</time></trkpt><trkpt lat="43.39912074236131" lon="-3.3811644610272613"><ele>75.0</ele><time>2026-04-30T15:19:23.001Z</time></trkpt><trkpt lat="43.39907797746817" lon="-3.381267624949814"><ele>75.0</ele><time>2026-04-30T15:19:24.001Z</time></trkpt><trkpt lat="43.39903776451488" lon="-3.3813721604928726"><ele>77.83333333333333</ele><time>2026-04-30T15:19:25.001Z</time></trkpt><trkpt lat="43.39900510169192" lon="-3.3814785156741656"><ele>80.66666666666667</ele><time>2026-04-30T15:19:26.001Z</time></trkpt><trkpt lat="43.398980211322325" lon="-3.381586137715311"><ele>83.5</ele><time>2026-04-30T15:19:27.001Z</time></trkpt><trkpt lat="43.39896181083524" lon="-3.3816983235908875"><ele>86.33333333333334</ele><time>2026-04-30T15:19:28.001Z</time></trkpt><trkpt lat="43.39895171656748" lon="-3.3818141223058893"><ele>89.16666666666667</ele><time>2026-04-30T15:19:29.001Z</time></trkpt><trkpt lat="43.3989458567755" lon="-3.3819286853722685"><ele>92.0</ele><time>2026-04-30T15:19:30.001Z</time></trkpt><trkpt lat="43.39894735343011" lon="-3.3820418072807987"><ele>92.0</ele><time>2026-04-30T15:19:31.001Z</time></trkpt><trkpt lat="43.39895644545918" lon="-3.3821563839069815"><ele>92.0</ele><time>2026-04-30T15:19:32.001Z</time></trkpt><trkpt lat="43.39896404589004" lon="-3.3822702922358316"><ele>92.0</ele><time>2026-04-30T15:19:33.001Z</time></trkpt><trkpt lat="43.39897228613509" lon="-3.382381410478006"><ele>92.0</ele><time>2026-04-30T15:19:34.001Z</time></trkpt><trkpt lat="43.398979790247616" lon="-3.382491869616082"><ele>92.0</ele><time>2026-04-30T15:19:35.001Z</time></trkpt><trkpt lat="43.398987540475005" lon="-3.382603679448254"><ele>92.0</ele><time>2026-04-30T15:19:36.001Z</time></trkpt><trkpt lat="43.39899712526132" lon="-3.3827151157532787"><ele>92.5</ele><time>2026-04-30T15:19:37.001Z</time></trkpt><trkpt lat="43.39900766884145" lon="-3.3828263444865287"><ele>93.0</ele><time>2026-04-30T15:19:38.001Z</time></trkpt><trkpt lat="43.3990157346605" lon="-3.3829370573879864"><ele>93.5</ele><time>2026-04-30T15:19:39.001Z</time></trkpt><trkpt lat="43.39901843355222" lon="-3.3830496308115907"><ele>94.0</ele><time>2026-04-30T15:19:40.001Z</time></trkpt><trkpt lat="43.39902094558308" lon="-3.383162971711913"><ele>94.5</ele><time>2026-04-30T15:19:41.001Z</time></trkpt><trkpt lat="43.39902017222417" lon="-3.3832753580917725"><ele>95.0</ele><time>2026-04-30T15:19:42.001Z</time></trkpt><trkpt lat="43.399017040290225" lon="-3.383388026183729"><ele>96.0</ele><time>2026-04-30T15:19:43.001Z</time></trkpt><trkpt lat="43.399010735588455" lon="-3.383501347200091"><ele>97.0</ele><time>2026-04-30T15:19:44.001Z</time></trkpt><trkpt lat="43.39900110546914" lon="-3.3836135674575343"><ele>98.0</ele><time>2026-04-30T15:19:45.001Z</time></trkpt><trkpt lat="43.39899384511214" lon="-3.3837293702526985"><ele>99.0</ele><time>2026-04-30T15:19:46.001Z</time></trkpt><trkpt lat="43.398985478144496" lon="-3.3838442596766"><ele>99.99999999999999</ele><time>2026-04-30T15:19:47.001Z</time></trkpt><trkpt lat="43.39897208759395" lon="-3.3839593027492474"><ele>101.0</ele><time>2026-04-30T15:19:48.001Z</time></trkpt><trkpt lat="43.39895937187797" lon="-3.3840750750824453"><ele>102.49999999999999</ele><time>2026-04-30T15:19:49.001Z</time></trkpt><trkpt lat="43.39894823010914" lon="-3.3841919222286982"><ele>104.0</ele><time>2026-04-30T15:19:50.001Z</time></trkpt><trkpt lat="43.39893548661387" lon="-3.3843095389863493"><ele>105.5</ele><time>2026-04-30T15:19:51.001Z</time></trkpt><trkpt lat="43.398923873523344" lon="-3.3844272016374024"><ele>107.0</ele><time>2026-04-30T15:19:52.001Z</time></trkpt><trkpt lat="43.398912465932774" lon="-3.3845435553193983"><ele>108.49999999999999</ele><time>2026-04-30T15:19:53.001Z</time></trkpt><trkpt lat="43.39890161845878" lon="-3.384661474302495"><ele>110.0</ele><time>2026-04-30T15:19:54.001Z</time></trkpt><trkpt lat="43.398889730845966" lon="-3.384777862376573"><ele>111.16666666666666</ele><time>2026-04-30T15:19:55.001Z</time></trkpt><trkpt lat="43.398877831814886" lon="-3.384894276496705"><ele>112.33333333333333</ele><time>2026-04-30T15:19:56.002Z</time></trkpt><trkpt lat="43.398866422844826" lon="-3.3850116879253243"><ele>113.5</ele><time>2026-04-30T15:19:57.002Z</time></trkpt><trkpt lat="43.39885435718465" lon="-3.385127648799391"><ele>114.66666666666666</ele><time>2026-04-30T15:19:58.002Z</time></trkpt><trkpt lat="43.39884100443626" lon="-3.3852439231278306"><ele>115.83333333333333</ele><time>2026-04-30T15:19:59.002Z</time></trkpt><trkpt lat="43.39882907463998" lon="-3.3853606208659253"><ele>117.0</ele><time>2026-04-30T15:20:00.002Z</time></trkpt><trkpt lat="43.39881631540046" lon="-3.385474957586852"><ele>113.33333333333333</ele><time>2026-04-30T15:20:01.002Z</time></trkpt><trkpt lat="43.39880116163366" lon="-3.3855888776945635"><ele>109.66666666666667</ele><time>2026-04-30T15:20:02.002Z</time></trkpt><trkpt lat="43.398784029666665" lon="-3.3857013454407956"><ele>106.0</ele><time>2026-04-30T15:20:03.002Z</time></trkpt><trkpt lat="43.398760834363394" lon="-3.38581273551084"><ele>102.33333333333334</ele><time>2026-04-30T15:20:04.002Z</time></trkpt><trkpt lat="43.3987422083951" lon="-3.3859255057658237"><ele>98.66666666666667</ele><time>2026-04-30T15:20:05.002Z</time></trkpt><trkpt lat="43.39872192080677" lon="-3.386036138552628"><ele>95.0</ele><time>2026-04-30T15:20:06.002Z</time></trkpt><trkpt lat="43.39870015216399" lon="-3.3861401904535486"><ele>95.0</ele><time>2026-04-30T15:20:07.002Z</time></trkpt><trkpt lat="43.3986737350438" lon="-3.386251225768082"><ele>95.0</ele><time>2026-04-30T15:20:08.002Z</time></trkpt><trkpt lat="43.39864602302767" lon="-3.3863635938517236"><ele>95.0</ele><time>2026-04-30T15:20:09.002Z</time></trkpt><trkpt lat="43.39861156875985" lon="-3.386469773398348"><ele>95.0</ele><time>2026-04-30T15:20:10.002Z</time></trkpt><trkpt lat="43.39857696483513" lon="-3.386578548462121"><ele>95.0</ele><time>2026-04-30T15:20:11.002Z</time></trkpt><trkpt lat="43.39854323440795" lon="-3.3866836035149532"><ele>95.0</ele><time>2026-04-30T15:20:12.002Z</time></trkpt><trkpt lat="43.398509154863056" lon="-3.3867919588959623"><ele>97.83333333333334</ele><time>2026-04-30T15:20:13.002Z</time></trkpt><trkpt lat="43.3984708670403" lon="-3.386898308111963"><ele>100.66666666666667</ele><time>2026-04-30T15:20:14.002Z</time></trkpt><trkpt lat="43.39843198804721" lon="-3.386998966373847"><ele>103.5</ele><time>2026-04-30T15:20:15.002Z</time></trkpt><trkpt lat="43.3983947821456" lon="-3.38709522711205"><ele>106.33333333333334</ele><time>2026-04-30T15:20:16.002Z</time></trkpt><trkpt lat="43.398357855005585" lon="-3.3871964196050213"><ele>109.16666666666667</ele><time>2026-04-30T15:20:17Z</time></trkpt><trkpt lat="43.39831887391956" lon="-3.387298406225096"><ele>112.0</ele><time>2026-04-30T15:20:18Z</time></trkpt><trkpt lat="43.39828633579104" lon="-3.3874016411184833"><ele>113.66666666666667</ele><time>2026-04-30T15:20:19Z</time></trkpt><trkpt lat="43.39825761832095" lon="-3.3875065997428115"><ele>115.33333333333334</ele><time>2026-04-30T15:20:20Z</time></trkpt><trkpt lat="43.39823201732523" lon="-3.387613953179772"><ele>117.0</ele><time>2026-04-30T15:20:21Z</time></trkpt><trkpt lat="43.39821096945156" lon="-3.3877227568618506"><ele>118.66666666666666</ele><time>2026-04-30T15:20:22Z</time></trkpt><trkpt lat="43.398203027996466" lon="-3.387836472454138"><ele>120.33333333333333</ele><time>2026-04-30T15:20:23Z</time></trkpt><trkpt lat="43.39819732756521" lon="-3.387950251433284"><ele>122.0</ele><time>2026-04-30T15:20:24Z</time></trkpt><trkpt lat="43.398194596292335" lon="-3.3880657472415825"><ele>122.49999999999999</ele><time>2026-04-30T15:20:25Z</time></trkpt><trkpt lat="43.39820313976618" lon="-3.3881807903494976"><ele>123.0</ele><time>2026-04-30T15:20:26Z</time></trkpt><trkpt lat="43.39821051018625" lon="-3.388290851837974"><ele>123.5</ele><time>2026-04-30T15:20:27Z</time></trkpt><trkpt lat="43.39822197339618" lon="-3.388403939714263"><ele>124.0</ele><time>2026-04-30T15:20:28Z</time></trkpt><trkpt lat="43.39823216882791" lon="-3.3885108330115794"><ele>124.49999999999999</ele><time>2026-04-30T15:20:29Z</time></trkpt><trkpt lat="43.39824308291428" lon="-3.3886190467626895"><ele>125.0</ele><time>2026-04-30T15:20:30Z</time></trkpt><trkpt lat="43.39825216058694" lon="-3.3887291988942585"><ele>124.99999999999999</ele><time>2026-04-30T15:20:31Z</time></trkpt><trkpt lat="43.39826256394036" lon="-3.388839774825734"><ele>125.0</ele><time>2026-04-30T15:20:32Z</time></trkpt><trkpt lat="43.39827573842571" lon="-3.388953155448161"><ele>125.0</ele><time>2026-04-30T15:20:33Z</time></trkpt><trkpt lat="43.39828439538299" lon="-3.389068712545387"><ele>125.0</ele><time>2026-04-30T15:20:34Z</time></trkpt><trkpt lat="43.39828877715154" lon="-3.3891821508210547"><ele>124.99999999999999</ele><time>2026-04-30T15:20:35Z</time></trkpt><trkpt lat="43.39829111246495" lon="-3.3892936148604464"><ele>125.0</ele><time>2026-04-30T15:20:36Z</time></trkpt><trkpt lat="43.39829024698019" lon="-3.389406013587272"><ele>124.83333333333333</ele><time>2026-04-30T15:20:37Z</time></trkpt><trkpt lat="43.39828355250056" lon="-3.3895170507085917"><ele>124.66666666666666</ele><time>2026-04-30T15:20:38Z</time></trkpt><trkpt lat="43.3982723009521" lon="-3.38962708962712"><ele>124.5</ele><time>2026-04-30T15:20:39Z</time></trkpt><trkpt lat="43.39825987788082" lon="-3.3897347989624995"><ele>124.33333333333334</ele><time>2026-04-30T15:20:40Z</time></trkpt><trkpt lat="43.398241303473206" lon="-3.389843634751458"><ele>124.16666666666667</ele><time>2026-04-30T15:20:41Z</time></trkpt><trkpt lat="43.398213509690905" lon="-3.3899512819503115"><ele>124.0</ele><time>2026-04-30T15:20:42Z</time></trkpt><trkpt lat="43.398184857827445" lon="-3.390053945929399"><ele>123.83333333333334</ele><time>2026-04-30T15:20:43Z</time></trkpt><trkpt lat="43.398151045004646" lon="-3.3901536319679915"><ele>123.66666666666667</ele><time>2026-04-30T15:20:44Z</time></trkpt><trkpt lat="43.39811607338454" lon="-3.390251161926532"><ele>123.5</ele><time>2026-04-30T15:20:45Z</time></trkpt><trkpt lat="43.39807016513314" lon="-3.3903478271824694"><ele>123.33333333333334</ele><time>2026-04-30T15:20:46Z</time></trkpt><trkpt lat="43.39801950784372" lon="-3.3904391491790005"><ele>123.16666666666667</ele><time>2026-04-30T15:20:47Z</time></trkpt><trkpt lat="43.39797185773637" lon="-3.390530770799841"><ele>123.0</ele><time>2026-04-30T15:20:48Z</time></trkpt><trkpt lat="43.39792054889998" lon="-3.3906226091675804"><ele>123.0</ele><time>2026-04-30T15:20:49Z</time></trkpt><trkpt lat="43.39787132951146" lon="-3.3907103970128074"><ele>123.0</ele><time>2026-04-30T15:20:50Z</time></trkpt><trkpt lat="43.39782450144973" lon="-3.390801877266192"><ele>123.0</ele><time>2026-04-30T15:20:51.001Z</time></trkpt><trkpt lat="43.39777371477862" lon="-3.3908948984822427"><ele>123.0</ele><time>2026-04-30T15:20:52.001Z</time></trkpt><trkpt lat="43.39772149141741" lon="-3.3909855886869154"><ele>123.0</ele><time>2026-04-30T15:20:53.001Z</time></trkpt><trkpt lat="43.39767242984713" lon="-3.3910780460691483"><ele>123.0</ele><time>2026-04-30T15:20:54.001Z</time></trkpt><trkpt lat="43.3976234514663" lon="-3.3911736267080097"><ele>123.0</ele><time>2026-04-30T15:20:55.001Z</time></trkpt><trkpt lat="43.39757376348979" lon="-3.391267732342053"><ele>123.0</ele><time>2026-04-30T15:20:56.001Z</time></trkpt><trkpt lat="43.397525947434715" lon="-3.391365231714783"><ele>123.0</ele><time>2026-04-30T15:20:57.001Z</time></trkpt><trkpt lat="43.39747849046214" lon="-3.391460279081265"><ele>123.0</ele><time>2026-04-30T15:20:58.001Z</time></trkpt><trkpt lat="43.39742892987764" lon="-3.3915571151449613"><ele>123.0</ele><time>2026-04-30T15:20:59.001Z</time></trkpt><trkpt lat="43.39738425309066" lon="-3.391655430389919"><ele>123.0</ele><time>2026-04-30T15:21:00.001Z</time></trkpt><trkpt lat="43.39734217224392" lon="-3.39175491701915"><ele>123.0</ele><time>2026-04-30T15:21:01.001Z</time></trkpt><trkpt lat="43.397302379947135" lon="-3.391855667592369"><ele>123.0</ele><time>2026-04-30T15:21:02.001Z</time></trkpt><trkpt lat="43.39726594246952" lon="-3.391959005656937"><ele>123.0</ele><time>2026-04-30T15:21:03.001Z</time></trkpt><trkpt lat="43.397231013432204" lon="-3.3920601872360043"><ele>123.0</ele><time>2026-04-30T15:21:04.001Z</time></trkpt><trkpt lat="43.39719621939423" lon="-3.3921669835805224"><ele>123.0</ele><time>2026-04-30T15:21:05.001Z</time></trkpt><trkpt lat="43.39716112743417" lon="-3.3922724533858344"><ele>123.0</ele><time>2026-04-30T15:21:06.001Z</time></trkpt><trkpt lat="43.397125824832024" lon="-3.3923765027683603"><ele>123.0</ele><time>2026-04-30T15:21:07.001Z</time></trkpt><trkpt lat="43.39709170706335" lon="-3.392482617022207"><ele>123.0</ele><time>2026-04-30T15:21:08.001Z</time></trkpt><trkpt lat="43.39705750151057" lon="-3.3925890341546805"><ele>123.0</ele><time>2026-04-30T15:21:09.001Z</time></trkpt><trkpt lat="43.39702329686645" lon="-3.392694630319243"><ele>123.0</ele><time>2026-04-30T15:21:10.001Z</time></trkpt><trkpt lat="43.396991294144925" lon="-3.3928014431526687"><ele>123.0</ele><time>2026-04-30T15:21:11.001Z</time></trkpt><trkpt lat="43.39696079969926" lon="-3.392907856069463"><ele>123.0</ele><time>2026-04-30T15:21:12.001Z</time></trkpt><trkpt lat="43.39693075933786" lon="-3.3930149050409817"><ele>124.83333333333333</ele><time>2026-04-30T15:21:13.001Z</time></trkpt><trkpt lat="43.396901448226245" lon="-3.3931248329809818"><ele>126.66666666666666</ele><time>2026-04-30T15:21:14.001Z</time></trkpt><trkpt lat="43.396872759673634" lon="-3.393236049283398"><ele>128.5</ele><time>2026-04-30T15:21:15.001Z</time></trkpt><trkpt lat="43.396846623908544" lon="-3.3933462118885176"><ele>130.33333333333331</ele><time>2026-04-30T15:21:16.001Z</time></trkpt><trkpt lat="43.39682498856533" lon="-3.3934593320840856"><ele>132.16666666666666</ele><time>2026-04-30T15:21:17.001Z</time></trkpt><trkpt lat="43.39680313520375" lon="-3.3935714702349777"><ele>134.0</ele><time>2026-04-30T15:21:18.001Z</time></trkpt><trkpt lat="43.396784870518935" lon="-3.3936855111670683"><ele>134.0</ele><time>2026-04-30T15:21:19.001Z</time></trkpt><trkpt lat="43.39677510815381" lon="-3.393802313804059"><ele>134.0</ele><time>2026-04-30T15:21:20.001Z</time></trkpt><trkpt lat="43.396774564057935" lon="-3.3939198433467475"><ele>134.0</ele><time>2026-04-30T15:21:21.001Z</time></trkpt><trkpt lat="43.39677944164643" lon="-3.39403706150251"><ele>134.0</ele><time>2026-04-30T15:21:22.001Z</time></trkpt><trkpt lat="43.396788848258645" lon="-3.3941536391580045"><ele>134.0</ele><time>2026-04-30T15:21:23.001Z</time></trkpt><trkpt lat="43.396805187355255" lon="-3.394266905513314"><ele>134.0</ele><time>2026-04-30T15:21:24.001Z</time></trkpt><trkpt lat="43.39682768111353" lon="-3.3943772968747608"><ele>134.83333333333331</ele><time>2026-04-30T15:21:25.001Z</time></trkpt><trkpt lat="43.396856783375796" lon="-3.3944814343731102"><ele>135.66666666666666</ele><time>2026-04-30T15:21:26.001Z</time></trkpt><trkpt lat="43.396892660291726" lon="-3.3945804348928497"><ele>136.5</ele><time>2026-04-30T15:21:27.001Z</time></trkpt><trkpt lat="43.39693469971498" lon="-3.39467582003299"><ele>137.33333333333334</ele><time>2026-04-30T15:21:28.001Z</time></trkpt><trkpt lat="43.396983775297905" lon="-3.3947639787686823"><ele>138.16666666666669</ele><time>2026-04-30T15:21:29.001Z</time></trkpt><trkpt lat="43.3970393377959" lon="-3.39484714497622"><ele>139.0</ele><time>2026-04-30T15:21:30.001Z</time></trkpt><trkpt lat="43.397100071806044" lon="-3.3949221053245027"><ele>139.0</ele><time>2026-04-30T15:21:31.001Z</time></trkpt><trkpt lat="43.397164873661076" lon="-3.3949903385038884"><ele>139.0</ele><time>2026-04-30T15:21:32.001Z</time></trkpt><trkpt lat="43.39723482673068" lon="-3.3950504537120865"><ele>139.0</ele><time>2026-04-30T15:21:33.001Z</time></trkpt><trkpt lat="43.39730595941472" lon="-3.3951082411224536"><ele>139.0</ele><time>2026-04-30T15:21:34.001Z</time></trkpt><trkpt lat="43.39738308847746" lon="-3.3951573048555996"><ele>139.0</ele><time>2026-04-30T15:21:35.001Z</time></trkpt><trkpt lat="43.39746210489942" lon="-3.3951986507473704"><ele>139.0</ele><time>2026-04-30T15:21:36.001Z</time></trkpt><trkpt lat="43.39754298986762" lon="-3.395230671698459"><ele>140.83333333333334</ele><time>2026-04-30T15:21:37.001Z</time></trkpt><trkpt lat="43.39762588045755" lon="-3.395255374546691"><ele>142.66666666666669</ele><time>2026-04-30T15:21:38.001Z</time></trkpt><trkpt lat="43.397708605892724" lon="-3.395273833216034"><ele>144.5</ele><time>2026-04-30T15:21:39.001Z</time></trkpt><trkpt lat="43.39779255848783" lon="-3.3952882842508285"><ele>146.33333333333334</ele><time>2026-04-30T15:21:40.001Z</time></trkpt><trkpt lat="43.39787813152394" lon="-3.3953019541897596"><ele>148.16666666666666</ele><time>2026-04-30T15:21:41.001Z</time></trkpt><trkpt lat="43.39796437733889" lon="-3.395315217085591"><ele>150.0</ele><time>2026-04-30T15:21:42.001Z</time></trkpt><trkpt lat="43.39805022726488" lon="-3.395324086979946"><ele>150.5</ele><time>2026-04-30T15:21:43.001Z</time></trkpt><trkpt lat="43.398135673577265" lon="-3.3953332817154345"><ele>151.0</ele><time>2026-04-30T15:21:44.001Z</time></trkpt><trkpt lat="43.3982204647637" lon="-3.3953533158099387"><ele>151.5</ele><time>2026-04-30T15:21:45.001Z</time></trkpt><trkpt lat="43.398305140917365" lon="-3.3953839866899567"><ele>152.0</ele><time>2026-04-30T15:21:46.001Z</time></trkpt><trkpt lat="43.3983902203812" lon="-3.3954173812777206"><ele>152.5</ele><time>2026-04-30T15:21:47.002Z</time></trkpt><trkpt lat="43.39847535462606" lon="-3.3954569130106798"><ele>153.0</ele><time>2026-04-30T15:21:48.002Z</time></trkpt><trkpt lat="43.39855740498365" lon="-3.39550695116063"><ele>152.8</ele><time>2026-04-30T15:21:49.002Z</time></trkpt><trkpt lat="43.39863723634578" lon="-3.395568008585822"><ele>152.60000000000002</ele><time>2026-04-30T15:21:50.002Z</time></trkpt><trkpt lat="43.39871311685626" lon="-3.395638737014198"><ele>152.39999999999998</ele><time>2026-04-30T15:21:51.002Z</time></trkpt><trkpt lat="43.398786887821686" lon="-3.3957158081758934"><ele>152.2</ele><time>2026-04-30T15:21:52.002Z</time></trkpt><trkpt lat="43.39885540874451" lon="-3.3958066964309643"><ele>152.0</ele><time>2026-04-30T15:21:53.002Z</time></trkpt><trkpt lat="43.398921615651304" lon="-3.395896146062112"><ele>152.0</ele><time>2026-04-30T15:21:54.002Z</time></trkpt><trkpt lat="43.39898017039055" lon="-3.395999758696725"><ele>152.0</ele><time>2026-04-30T15:21:55.002Z</time></trkpt><trkpt lat="43.39903239995577" lon="-3.396107272238595"><ele>152.0</ele><time>2026-04-30T15:21:56.002Z</time></trkpt><trkpt lat="43.39907833530818" lon="-3.396223874932534"><ele>152.0</ele><time>2026-04-30T15:21:57.002Z</time></trkpt><trkpt lat="43.39911947932254" lon="-3.396342116210536"><ele>152.0</ele><time>2026-04-30T15:21:58.002Z</time></trkpt><trkpt lat="43.39915305096816" lon="-3.3964692145802706"><ele>152.0</ele><time>2026-04-30T15:21:59.002Z</time></trkpt><trkpt lat="43.39917387402651" lon="-3.3965964805010396"><ele>152.0</ele><time>2026-04-30T15:22:00.002Z</time></trkpt><trkpt lat="43.39918977530926" lon="-3.396726897904765"><ele>152.0</ele><time>2026-04-30T15:22:01.002Z</time></trkpt><trkpt lat="43.39920153035221" lon="-3.396861792909988"><ele>152.0</ele><time>2026-04-30T15:22:02.002Z</time></trkpt><trkpt lat="43.39920453446168" lon="-3.3969955474724465"><ele>152.0</ele><time>2026-04-30T15:22:03.002Z</time></trkpt><trkpt lat="43.39920498283657" lon="-3.397135008581975"><ele>151.79999999999998</ele><time>2026-04-30T15:22:04.002Z</time></trkpt><trkpt lat="43.39920164648149" lon="-3.3972724759346207"><ele>151.6</ele><time>2026-04-30T15:22:05.002Z</time></trkpt><trkpt lat="43.399199603852445" lon="-3.3974102676184588"><ele>151.39999999999998</ele><time>2026-04-30T15:22:06.002Z</time></trkpt><trkpt lat="43.39919941104082" lon="-3.397548327582218"><ele>151.2</ele><time>2026-04-30T15:22:07.002Z</time></trkpt><trkpt lat="43.39919925946071" lon="-3.3976878108203596"><ele>151.0</ele><time>2026-04-30T15:22:08.002Z</time></trkpt><trkpt lat="43.39920553643696" lon="-3.3978247433528304"><ele>151.0</ele><time>2026-04-30T15:22:09.002Z</time></trkpt><trkpt lat="43.399215439328145" lon="-3.3979619275441006"><ele>151.0</ele><time>2026-04-30T15:22:10.002Z</time></trkpt><trkpt lat="43.399232443142466" lon="-3.3980985915922655"><ele>151.0</ele><time>2026-04-30T15:22:11.002Z</time></trkpt><trkpt lat="43.39926041242581" lon="-3.3982335733654354"><ele>151.0</ele><time>2026-04-30T15:22:12.002Z</time></trkpt><trkpt lat="43.39929333189949" lon="-3.398366000958975"><ele>151.0</ele><time>2026-04-30T15:22:13.002Z</time></trkpt><trkpt lat="43.399332797202504" lon="-3.3984938633175887"><ele>151.2</ele><time>2026-04-30T15:22:14.002Z</time></trkpt><trkpt lat="43.399377724320544" lon="-3.398614549645989"><ele>151.39999999999998</ele><time>2026-04-30T15:22:15.002Z</time></trkpt><trkpt lat="43.39943145985094" lon="-3.3987310761400447"><ele>151.6</ele><time>2026-04-30T15:22:16.002Z</time></trkpt><trkpt lat="43.399488765752814" lon="-3.398839056640906"><ele>151.79999999999998</ele><time>2026-04-30T15:22:17.002Z</time></trkpt><trkpt lat="43.39954580215656" lon="-3.3989506099756053"><ele>152.0</ele><time>2026-04-30T15:22:18.002Z</time></trkpt><trkpt lat="43.39960106513783" lon="-3.399061698688213"><ele>151.0</ele><time>2026-04-30T15:22:19.002Z</time></trkpt><trkpt lat="43.39965669993252" lon="-3.399178673406154"><ele>150.0</ele><time>2026-04-30T15:22:20.002Z</time></trkpt><trkpt lat="43.39971363360602" lon="-3.39928983150334"><ele>149.0</ele><time>2026-04-30T15:22:21.002Z</time></trkpt><trkpt lat="43.39977318525865" lon="-3.399404914084759"><ele>148.0</ele><time>2026-04-30T15:22:22.002Z</time></trkpt><trkpt lat="43.399834340498494" lon="-3.3995178934734644"><ele>147.0</ele><time>2026-04-30T15:22:23Z</time></trkpt><trkpt lat="43.399896455326704" lon="-3.399638142329826"><ele>147.0</ele><time>2026-04-30T15:22:24Z</time></trkpt><trkpt lat="43.39995588912019" lon="-3.3997576274324075"><ele>147.0</ele><time>2026-04-30T15:22:25Z</time></trkpt><trkpt lat="43.40001941248579" lon="-3.3998803354669667"><ele>147.0</ele><time>2026-04-30T15:22:26Z</time></trkpt><trkpt lat="43.40008340179698" lon="-3.3999984023558043"><ele>147.0</ele><time>2026-04-30T15:22:27Z</time></trkpt><trkpt lat="43.40014676174569" lon="-3.4001198901316694"><ele>147.0</ele><time>2026-04-30T15:22:28Z</time></trkpt><trkpt lat="43.40021185940979" lon="-3.4002418167191637"><ele>147.0</ele><time>2026-04-30T15:22:29Z</time></trkpt><trkpt lat="43.40027572514756" lon="-3.400367085957696"><ele>147.0</ele><time>2026-04-30T15:22:30Z</time></trkpt><trkpt lat="43.400340813722686" lon="-3.4004928422475604"><ele>147.0</ele><time>2026-04-30T15:22:31Z</time></trkpt><trkpt lat="43.40040639507598" lon="-3.4006182916885557"><ele>147.0</ele><time>2026-04-30T15:22:32Z</time></trkpt><trkpt lat="43.400474920728286" lon="-3.400746971339365"><ele>147.75</ele><time>2026-04-30T15:22:33Z</time></trkpt><trkpt lat="43.400542319042934" lon="-3.400875803410705"><ele>148.5</ele><time>2026-04-30T15:22:34Z</time></trkpt><trkpt lat="43.40060999862259" lon="-3.401004664833458"><ele>149.25</ele><time>2026-04-30T15:22:35Z</time></trkpt><trkpt lat="43.40067787612252" lon="-3.401136216275851"><ele>150.0</ele><time>2026-04-30T15:22:36Z</time></trkpt><trkpt lat="43.400745534796684" lon="-3.401268428669892"><ele>147.75</ele><time>2026-04-30T15:22:37Z</time></trkpt><trkpt lat="43.40081191532062" lon="-3.4013958233509416"><ele>145.5</ele><time>2026-04-30T15:22:38Z</time></trkpt><trkpt lat="43.4008821840555" lon="-3.4015239339462"><ele>143.25</ele><time>2026-04-30T15:22:39Z</time></trkpt><trkpt lat="43.400945503146836" lon="-3.401654068249909"><ele>141.0</ele><time>2026-04-30T15:22:40Z</time></trkpt><trkpt lat="43.4010122100623" lon="-3.4017846107236527"><ele>141.0</ele><time>2026-04-30T15:22:41Z</time></trkpt><trkpt lat="43.40107839212959" lon="-3.4019153584919017"><ele>141.0</ele><time>2026-04-30T15:22:42Z</time></trkpt><trkpt lat="43.40114361981316" lon="-3.402040878039817"><ele>141.0</ele><time>2026-04-30T15:22:43Z</time></trkpt><trkpt lat="43.40121155078069" lon="-3.402167791714549"><ele>141.0</ele><time>2026-04-30T15:22:44Z</time></trkpt><trkpt lat="43.40127840580811" lon="-3.4022897434034793"><ele>142.0</ele><time>2026-04-30T15:22:45Z</time></trkpt><trkpt lat="43.40134495502253" lon="-3.4024186405254864"><ele>143.0</ele><time>2026-04-30T15:22:46Z</time></trkpt><trkpt lat="43.401410794882615" lon="-3.4025483393885936"><ele>144.0</ele><time>2026-04-30T15:22:47Z</time></trkpt><trkpt lat="43.40147353261021" lon="-3.4026760003691687"><ele>145.0</ele><time>2026-04-30T15:22:48Z</time></trkpt><trkpt lat="43.40154088416559" lon="-3.4028021796550294"><ele>145.0</ele><time>2026-04-30T15:22:49Z</time></trkpt><trkpt lat="43.401606850722075" lon="-3.402929938368146"><ele>145.0</ele><time>2026-04-30T15:22:50Z</time></trkpt><trkpt lat="43.401672310898164" lon="-3.403053505218223"><ele>145.0</ele><time>2026-04-30T15:22:51Z</time></trkpt><trkpt lat="43.40173892418551" lon="-3.403183229658754"><ele>145.0</ele><time>2026-04-30T15:22:52Z</time></trkpt><trkpt lat="43.40180546931929" lon="-3.4033141827607905"><ele>141.5</ele><time>2026-04-30T15:22:53.001Z</time></trkpt><trkpt lat="43.401872081229065" lon="-3.403442267611424"><ele>138.0</ele><time>2026-04-30T15:22:54.001Z</time></trkpt><trkpt lat="43.401940316446044" lon="-3.4035738653417695"><ele>134.5</ele><time>2026-04-30T15:22:55.001Z</time></trkpt><trkpt lat="43.40200873110054" lon="-3.4037030449114454"><ele>131.0</ele><time>2026-04-30T15:22:56.001Z</time></trkpt><trkpt lat="43.40207592111996" lon="-3.4038342473609995"><ele>130.75</ele><time>2026-04-30T15:22:57.001Z</time></trkpt><trkpt lat="43.40214390641554" lon="-3.403967787124637"><ele>130.5</ele><time>2026-04-30T15:22:58.001Z</time></trkpt><trkpt lat="43.402209668580014" lon="-3.4040979929772037"><ele>130.25</ele><time>2026-04-30T15:22:59.001Z</time></trkpt><trkpt lat="43.402278310051855" lon="-3.4042305369552226"><ele>130.0</ele><time>2026-04-30T15:23:00.001Z</time></trkpt><trkpt lat="43.40234590923865" lon="-3.4043616255819327"><ele>130.0</ele><time>2026-04-30T15:23:01.001Z</time></trkpt><trkpt lat="43.40241219803732" lon="-3.4044984544024635"><ele>130.0</ele><time>2026-04-30T15:23:02.001Z</time></trkpt><trkpt lat="43.40247748351251" lon="-3.404633331344978"><ele>130.0</ele><time>2026-04-30T15:23:03.001Z</time></trkpt><trkpt lat="43.402542822119926" lon="-3.4047666702167563"><ele>130.0</ele><time>2026-04-30T15:23:04.001Z</time></trkpt><trkpt lat="43.40260657830275" lon="-3.4049075563631215"><ele>127.25</ele><time>2026-04-30T15:23:05.001Z</time></trkpt><trkpt lat="43.402670267797745" lon="-3.4050380808172034"><ele>124.5</ele><time>2026-04-30T15:23:06.001Z</time></trkpt><trkpt lat="43.402731421377716" lon="-3.4051748959533823"><ele>121.75</ele><time>2026-04-30T15:23:07.001Z</time></trkpt><trkpt lat="43.402792366781036" lon="-3.405317330332015"><ele>119.0</ele><time>2026-04-30T15:23:08.001Z</time></trkpt><trkpt lat="43.40285299040272" lon="-3.405456186757883"><ele>118.5</ele><time>2026-04-30T15:23:09.001Z</time></trkpt><trkpt lat="43.402911105693036" lon="-3.4055994250380994"><ele>118.0</ele><time>2026-04-30T15:23:10.001Z</time></trkpt><trkpt lat="43.40296869855497" lon="-3.4057427231732276"><ele>117.5</ele><time>2026-04-30T15:23:11.001Z</time></trkpt><trkpt lat="43.403025636769804" lon="-3.4058891180592945"><ele>117.0</ele><time>2026-04-30T15:23:12.001Z</time></trkpt><trkpt lat="43.40308023124676" lon="-3.406035908632788"><ele>117.0</ele><time>2026-04-30T15:23:13.001Z</time></trkpt><trkpt lat="43.40313281646788" lon="-3.406186198678175"><ele>117.0</ele><time>2026-04-30T15:23:14.001Z</time></trkpt><trkpt lat="43.40318521329397" lon="-3.4063346906813345"><ele>117.0</ele><time>2026-04-30T15:23:15.001Z</time></trkpt><trkpt lat="43.40323716183972" lon="-3.4064821322199763"><ele>117.0</ele><time>2026-04-30T15:23:16.001Z</time></trkpt><trkpt lat="43.40328787872793" lon="-3.406631096889578"><ele>116.0</ele><time>2026-04-30T15:23:17.001Z</time></trkpt><trkpt lat="43.40333623265052" lon="-3.406782250449094"><ele>115.0</ele><time>2026-04-30T15:23:18.001Z</time></trkpt><trkpt lat="43.403382789027745" lon="-3.4069344042506087"><ele>114.0</ele><time>2026-04-30T15:23:19.001Z</time></trkpt><trkpt lat="43.403430949251415" lon="-3.407085015557093"><ele>113.0</ele><time>2026-04-30T15:23:20.001Z</time></trkpt><trkpt lat="43.403480372724594" lon="-3.407237743299657"><ele>112.25</ele><time>2026-04-30T15:23:21.001Z</time></trkpt><trkpt lat="43.40352860628047" lon="-3.407392057962673"><ele>111.5</ele><time>2026-04-30T15:23:22.001Z</time></trkpt><trkpt lat="43.40357846927463" lon="-3.4075431387861306"><ele>110.75</ele><time>2026-04-30T15:23:23.001Z</time></trkpt><trkpt lat="43.40362784964694" lon="-3.407694914335935"><ele>110.0</ele><time>2026-04-30T15:23:24.001Z</time></trkpt><trkpt lat="43.40367467478767" lon="-3.4078467165683914"><ele>110.25</ele><time>2026-04-30T15:23:25.001Z</time></trkpt><trkpt lat="43.40372162856669" lon="-3.407999907251827"><ele>110.5</ele><time>2026-04-30T15:23:26.001Z</time></trkpt><trkpt lat="43.40377022660842" lon="-3.408154290251492"><ele>110.75</ele><time>2026-04-30T15:23:27.001Z</time></trkpt><trkpt lat="43.40381891892274" lon="-3.408307086069187"><ele>111.0</ele><time>2026-04-30T15:23:28.001Z</time></trkpt><trkpt lat="43.40386922105503" lon="-3.4084579597621985"><ele>111.0</ele><time>2026-04-30T15:23:29.001Z</time></trkpt><trkpt lat="43.403922194880515" lon="-3.4086082977340726"><ele>111.0</ele><time>2026-04-30T15:23:30.001Z</time></trkpt><trkpt lat="43.40397858223554" lon="-3.408759270013893"><ele>111.0</ele><time>2026-04-30T15:23:31.001Z</time></trkpt><trkpt lat="43.40403706585714" lon="-3.408904212031958"><ele>111.0</ele><time>2026-04-30T15:23:32.001Z</time></trkpt><trkpt lat="43.40409500786643" lon="-3.409049431354113"><ele>109.5</ele><time>2026-04-30T15:23:33.001Z</time></trkpt><trkpt lat="43.40415603975355" lon="-3.4091830208758647"><ele>108.0</ele><time>2026-04-30T15:23:34.001Z</time></trkpt><trkpt lat="43.4042177582372" lon="-3.409323332897029"><ele>106.5</ele><time>2026-04-30T15:23:35.001Z</time></trkpt><trkpt lat="43.404278565742146" lon="-3.409459574086406"><ele>105.0</ele><time>2026-04-30T15:23:36.001Z</time></trkpt><trkpt lat="43.40433703105434" lon="-3.409596558634949"><ele>103.5</ele><time>2026-04-30T15:23:37.001Z</time></trkpt><trkpt lat="43.40439429416326" lon="-3.4097299697650603"><ele>102.0</ele><time>2026-04-30T15:23:38.001Z</time></trkpt><trkpt lat="43.40444946596745" lon="-3.4098701368085744"><ele>100.5</ele><time>2026-04-30T15:23:39.001Z</time></trkpt><trkpt lat="43.40450062448623" lon="-3.41000911145967"><ele>99.0</ele><time>2026-04-30T15:23:40.001Z</time></trkpt><trkpt lat="43.40455075008404" lon="-3.410148232673037"><ele>99.0</ele><time>2026-04-30T15:23:41.001Z</time></trkpt><trkpt lat="43.40459854566079" lon="-3.410284163744831"><ele>99.0</ele><time>2026-04-30T15:23:42.001Z</time></trkpt><trkpt lat="43.40464520881488" lon="-3.4104184120137244"><ele>99.0</ele><time>2026-04-30T15:23:43.001Z</time></trkpt><trkpt lat="43.404694403043095" lon="-3.4105579981888767"><ele>99.0</ele><time>2026-04-30T15:23:44.001Z</time></trkpt><trkpt lat="43.404740445311646" lon="-3.410694134653817"><ele>99.0</ele><time>2026-04-30T15:23:45.001Z</time></trkpt><trkpt lat="43.40478515031433" lon="-3.410831221204823"><ele>99.0</ele><time>2026-04-30T15:23:46.001Z</time></trkpt><trkpt lat="43.40483210337186" lon="-3.410964172347673"><ele>99.0</ele><time>2026-04-30T15:23:47.001Z</time></trkpt><trkpt lat="43.40488044653713" lon="-3.411095141691062"><ele>99.0</ele><time>2026-04-30T15:23:48.001Z</time></trkpt><trkpt lat="43.40493168993225" lon="-3.411224127026119"><ele>99.0</ele><time>2026-04-30T15:23:49.001Z</time></trkpt><trkpt lat="43.40497987512068" lon="-3.411338521646394"><ele>99.0</ele><time>2026-04-30T15:23:50.001Z</time></trkpt><trkpt lat="43.40503210660754" lon="-3.4114425969052964"><ele>97.83333333333333</ele><time>2026-04-30T15:23:51.001Z</time></trkpt><trkpt lat="43.405081638791316" lon="-3.4115466606192206"><ele>96.66666666666667</ele><time>2026-04-30T15:23:52.001Z</time></trkpt><trkpt lat="43.40513406385298" lon="-3.4116342351732336"><ele>95.5</ele><time>2026-04-30T15:23:53.001Z</time></trkpt><trkpt lat="43.4051914594665" lon="-3.411711786827547"><ele>94.33333333333334</ele><time>2026-04-30T15:23:54.001Z</time></trkpt><trkpt lat="43.40525789036953" lon="-3.4117773115188355"><ele>93.16666666666667</ele><time>2026-04-30T15:23:55.001Z</time></trkpt><trkpt lat="43.40533031580289" lon="-3.411827586433919"><ele>92.0</ele><time>2026-04-30T15:23:56.001Z</time></trkpt><trkpt lat="43.4053959634777" lon="-3.4118758269608613"><ele>92.0</ele><time>2026-04-30T15:23:57.002Z</time></trkpt><trkpt lat="43.405455553181085" lon="-3.411940169283527"><ele>92.0</ele><time>2026-04-30T15:23:58.002Z</time></trkpt><trkpt lat="43.40552196648714" lon="-3.412007542369886"><ele>92.0</ele><time>2026-04-30T15:23:59.002Z</time></trkpt><trkpt lat="43.40557646736375" lon="-3.4120536585930354"><ele>92.0</ele><time>2026-04-30T15:24:00.002Z</time></trkpt><trkpt lat="43.405646259571704" lon="-3.412103849879919"><ele>92.0</ele><time>2026-04-30T15:24:02.002Z</time></trkpt><trkpt lat="43.40572099908077" lon="-3.4121683870986823"><ele>92.0</ele><time>2026-04-30T15:24:05.002Z</time></trkpt><trkpt lat="43.405782600975094" lon="-3.412202059172496"><ele>89.83333333333334</ele><time>2026-04-30T15:24:06.002Z</time></trkpt><trkpt lat="43.40585717601867" lon="-3.412235582575388"><ele>87.66666666666667</ele><time>2026-04-30T15:24:07.002Z</time></trkpt><trkpt lat="43.40593820542515" lon="-3.4122547776369783"><ele>85.5</ele><time>2026-04-30T15:24:08.002Z</time></trkpt><trkpt lat="43.40602742843864" lon="-3.4122667518183203"><ele>83.33333333333333</ele><time>2026-04-30T15:24:09.002Z</time></trkpt><trkpt lat="43.406121590110146" lon="-3.4122688668954306"><ele>81.16666666666666</ele><time>2026-04-30T15:24:10.002Z</time></trkpt><trkpt lat="43.406214803161696" lon="-3.4122360116946466"><ele>79.0</ele><time>2026-04-30T15:24:11.002Z</time></trkpt><trkpt lat="43.40630957069434" lon="-3.412208448554917"><ele>77.0</ele><time>2026-04-30T15:24:12.002Z</time></trkpt><trkpt lat="43.40640995054999" lon="-3.412187789619444"><ele>75.0</ele><time>2026-04-30T15:24:13.002Z</time></trkpt><trkpt lat="43.40650595191323" lon="-3.412140599470649"><ele>73.0</ele><time>2026-04-30T15:24:14.002Z</time></trkpt><trkpt lat="43.40660291680647" lon="-3.412103265828555"><ele>71.0</ele><time>2026-04-30T15:24:15.002Z</time></trkpt><trkpt lat="43.40669699689593" lon="-3.412077578718575"><ele>69.0</ele><time>2026-04-30T15:24:16.002Z</time></trkpt><trkpt lat="43.40679827996777" lon="-3.4120591814544374"><ele>71.4</ele><time>2026-04-30T15:24:17.002Z</time></trkpt><trkpt lat="43.40690262987283" lon="-3.4120401958279216"><ele>73.80000000000001</ele><time>2026-04-30T15:24:18.002Z</time></trkpt><trkpt lat="43.40700296764113" lon="-3.4120202958119945"><ele>76.19999999999999</ele><time>2026-04-30T15:24:19.002Z</time></trkpt><trkpt lat="43.40710290928529" lon="-3.4119975936056455"><ele>78.6</ele><time>2026-04-30T15:24:20.002Z</time></trkpt><trkpt lat="43.40720734218527" lon="-3.4119755990360128"><ele>81.0</ele><time>2026-04-30T15:24:21.002Z</time></trkpt><trkpt lat="43.407310690251435" lon="-3.411955459486512"><ele>81.0</ele><time>2026-04-30T15:24:22.002Z</time></trkpt><trkpt lat="43.40741506373427" lon="-3.4119361994920694"><ele>81.0</ele><time>2026-04-30T15:24:23.002Z</time></trkpt><trkpt lat="43.407519898761" lon="-3.411915178175833"><ele>81.0</ele><time>2026-04-30T15:24:24.002Z</time></trkpt><trkpt lat="43.40762025987622" lon="-3.41189226615546"><ele>81.0</ele><time>2026-04-30T15:24:25.002Z</time></trkpt><trkpt lat="43.407719731682135" lon="-3.4118697550879937"><ele>81.0</ele><time>2026-04-30T15:24:26.002Z</time></trkpt><trkpt lat="43.407813967652224" lon="-3.411845905003788"><ele>81.0</ele><time>2026-04-30T15:24:27.002Z</time></trkpt><trkpt lat="43.40790902232133" lon="-3.41182219500932"><ele>81.0</ele><time>2026-04-30T15:24:28.002Z</time></trkpt><trkpt lat="43.40800282933613" lon="-3.411799011560785"><ele>81.0</ele><time>2026-04-30T15:24:29Z</time></trkpt><trkpt lat="43.40809695434802" lon="-3.411778376230384"><ele>81.0</ele><time>2026-04-30T15:24:30Z</time></trkpt><trkpt lat="43.40819229732606" lon="-3.411760727381653"><ele>81.0</ele><time>2026-04-30T15:24:31Z</time></trkpt><trkpt lat="43.40828386699006" lon="-3.411743931923737"><ele>79.16666666666667</ele><time>2026-04-30T15:24:32Z</time></trkpt><trkpt lat="43.40837155240958" lon="-3.4117230584993257"><ele>77.33333333333333</ele><time>2026-04-30T15:24:33Z</time></trkpt><trkpt lat="43.40845765462839" lon="-3.411703524263279"><ele>75.5</ele><time>2026-04-30T15:24:34Z</time></trkpt><trkpt lat="43.40854731051492" lon="-3.4116802038235106"><ele>73.66666666666666</ele><time>2026-04-30T15:24:35Z</time></trkpt><trkpt lat="43.40863462444586" lon="-3.411673201260887"><ele>71.83333333333333</ele><time>2026-04-30T15:24:36Z</time></trkpt><trkpt lat="43.40872514910981" lon="-3.4116630147883016"><ele>70.0</ele><time>2026-04-30T15:24:37Z</time></trkpt><trkpt lat="43.40881734720441" lon="-3.41163455025306"><ele>68.8</ele><time>2026-04-30T15:24:38Z</time></trkpt><trkpt lat="43.408907896518194" lon="-3.411585095534611"><ele>67.6</ele><time>2026-04-30T15:24:39Z</time></trkpt><trkpt lat="43.40899498325575" lon="-3.411521753386415"><ele>66.4</ele><time>2026-04-30T15:24:40Z</time></trkpt><trkpt lat="43.40907851358537" lon="-3.411447016429778"><ele>65.2</ele><time>2026-04-30T15:24:41Z</time></trkpt><trkpt lat="43.409152078468814" lon="-3.4113630501062593"><ele>64.0</ele><time>2026-04-30T15:24:42Z</time></trkpt><trkpt lat="43.40921458459047" lon="-3.4112594392767464"><ele>64.0</ele><time>2026-04-30T15:24:43Z</time></trkpt><trkpt lat="43.409263846985944" lon="-3.411148536794985"><ele>64.0</ele><time>2026-04-30T15:24:44Z</time></trkpt><trkpt lat="43.40930378513265" lon="-3.4110208640778756"><ele>64.0</ele><time>2026-04-30T15:24:45Z</time></trkpt><trkpt lat="43.40933489385229" lon="-3.4108952896162474"><ele>64.0</ele><time>2026-04-30T15:24:46Z</time></trkpt><trkpt lat="43.40935424339337" lon="-3.4107681051740446"><ele>64.0</ele><time>2026-04-30T15:24:47Z</time></trkpt><trkpt lat="43.40937021894285" lon="-3.4106450800562036"><ele>64.0</ele><time>2026-04-30T15:24:48Z</time></trkpt><trkpt lat="43.409392127187694" lon="-3.410525207050423"><ele>64.0</ele><time>2026-04-30T15:24:49Z</time></trkpt><trkpt lat="43.409421792051106" lon="-3.410410599396271"><ele>64.0</ele><time>2026-04-30T15:24:50Z</time></trkpt><trkpt lat="43.40946729059166" lon="-3.4103034749563945"><ele>64.0</ele><time>2026-04-30T15:24:51Z</time></trkpt><trkpt lat="43.40953388287122" lon="-3.4102122993269703"><ele>64.0</ele><time>2026-04-30T15:24:52Z</time></trkpt><trkpt lat="43.40961062774748" lon="-3.410139456293303"><ele>60.0</ele><time>2026-04-30T15:24:53Z</time></trkpt><trkpt lat="43.40969741813513" lon="-3.410080059232448"><ele>56.00000000000001</ele><time>2026-04-30T15:24:54Z</time></trkpt><trkpt lat="43.409785571632774" lon="-3.4100165447221094"><ele>52.0</ele><time>2026-04-30T15:24:55Z</time></trkpt><trkpt lat="43.40986638371889" lon="-3.4099528907964043"><ele>48.0</ele><time>2026-04-30T15:24:56Z</time></trkpt><trkpt lat="43.40994476594716" lon="-3.4098733180410594"><ele>44.0</ele><time>2026-04-30T15:24:57Z</time></trkpt><trkpt lat="43.41001278398666" lon="-3.4097784759196825"><ele>44.0</ele><time>2026-04-30T15:24:58Z</time></trkpt><trkpt lat="43.41007262443014" lon="-3.4096780295730325"><ele>44.0</ele><time>2026-04-30T15:24:59Z</time></trkpt><trkpt lat="43.41013516081209" lon="-3.4095863958578407"><ele>44.0</ele><time>2026-04-30T15:25:00Z</time></trkpt><trkpt lat="43.41019591616105" lon="-3.4094916530021515"><ele>44.0</ele><time>2026-04-30T15:25:01Z</time></trkpt><trkpt lat="43.41025196817076" lon="-3.4093856533185245"><ele>44.0</ele><time>2026-04-30T15:25:02Z</time></trkpt><trkpt lat="43.41030937238844" lon="-3.409283230532782"><ele>44.6</ele><time>2026-04-30T15:25:03Z</time></trkpt><trkpt lat="43.410356273351404" lon="-3.40917087127675"><ele>45.2</ele><time>2026-04-30T15:25:04Z</time></trkpt><trkpt lat="43.410382897229276" lon="-3.409044972185994"><ele>45.800000000000004</ele><time>2026-04-30T15:25:05Z</time></trkpt><trkpt lat="43.41039115513712" lon="-3.4089139864681215"><ele>46.400000000000006</ele><time>2026-04-30T15:25:06Z</time></trkpt><trkpt lat="43.41036317611664" lon="-3.408785189566936"><ele>47.0</ele><time>2026-04-30T15:25:07Z</time></trkpt><trkpt lat="43.41031879910504" lon="-3.408661580599091"><ele>47.0</ele><time>2026-04-30T15:25:08Z</time></trkpt><trkpt lat="43.410279620654194" lon="-3.4085328182566945"><ele>47.0</ele><time>2026-04-30T15:25:09Z</time></trkpt><trkpt lat="43.41024862205304" lon="-3.408402567641108"><ele>47.0</ele><time>2026-04-30T15:25:10Z</time></trkpt><trkpt lat="43.41021916127761" lon="-3.4082678913296047"><ele>47.0</ele><time>2026-04-30T15:25:11Z</time></trkpt><trkpt lat="43.41018115928343" lon="-3.4081397041190447"><ele>47.0</ele><time>2026-04-30T15:25:12Z</time></trkpt><trkpt lat="43.41014692701349" lon="-3.4080177497632844"><ele>47.0</ele><time>2026-04-30T15:25:13Z</time></trkpt><trkpt lat="43.410122989450436" lon="-3.407898214253164"><ele>47.0</ele><time>2026-04-30T15:25:14Z</time></trkpt><trkpt lat="43.41013710085853" lon="-3.4077922775883507"><ele>47.0</ele><time>2026-04-30T15:25:15Z</time></trkpt><trkpt lat="43.410191710295685" lon="-3.4077138324988674"><ele>47.0</ele><time>2026-04-30T15:25:16Z</time></trkpt><trkpt lat="43.41027779691012" lon="-3.4076819423496"><ele>47.0</ele><time>2026-04-30T15:25:17Z</time></trkpt><trkpt lat="43.41037032001001" lon="-3.407695773418407"><ele>47.0</ele><time>2026-04-30T15:25:18.001Z</time></trkpt><trkpt lat="43.410448492149975" lon="-3.4077610503024816"><ele>46.400000000000006</ele><time>2026-04-30T15:25:19.001Z</time></trkpt><trkpt lat="43.410522480880736" lon="-3.4078496697415632"><ele>45.800000000000004</ele><time>2026-04-30T15:25:20.001Z</time></trkpt><trkpt lat="43.41059190995583" lon="-3.4079469046118755"><ele>45.2</ele><time>2026-04-30T15:25:21.001Z</time></trkpt><trkpt lat="43.41066096953325" lon="-3.408041045899744"><ele>44.6</ele><time>2026-04-30T15:25:22.001Z</time></trkpt><trkpt lat="43.41073348862643" lon="-3.408133148590775"><ele>44.0</ele><time>2026-04-30T15:25:23.001Z</time></trkpt><trkpt lat="43.41080240906702" lon="-3.4082252518932217"><ele>41.400000000000006</ele><time>2026-04-30T15:25:24.001Z</time></trkpt><trkpt lat="43.4108749113908" lon="-3.408308634705459"><ele>38.800000000000004</ele><time>2026-04-30T15:25:25.001Z</time></trkpt><trkpt lat="43.410960345138044" lon="-3.4083581446409696"><ele>36.2</ele><time>2026-04-30T15:25:26.001Z</time></trkpt><trkpt lat="43.41105538152929" lon="-3.408374283857554"><ele>33.6</ele><time>2026-04-30T15:25:27.001Z</time></trkpt><trkpt lat="43.41115397594088" lon="-3.4083712813528573"><ele>31.0</ele><time>2026-04-30T15:25:28.001Z</time></trkpt><trkpt lat="43.41125096743501" lon="-3.4083630078979414"><ele>28.6</ele><time>2026-04-30T15:25:29.001Z</time></trkpt><trkpt lat="43.41134421556958" lon="-3.4083476727227078"><ele>26.200000000000003</ele><time>2026-04-30T15:25:30.001Z</time></trkpt><trkpt lat="43.411437493927174" lon="-3.408314526270393"><ele>23.799999999999997</ele><time>2026-04-30T15:25:31.001Z</time></trkpt><trkpt lat="43.411505383352804" lon="-3.4082235701553234"><ele>21.4</ele><time>2026-04-30T15:25:32.001Z</time></trkpt><trkpt lat="43.411593788897704" lon="-3.40816716540047"><ele>19.0</ele><time>2026-04-30T15:25:33.001Z</time></trkpt><trkpt lat="43.41163490397108" lon="-3.408045448112726"><ele>20.166666666666664</ele><time>2026-04-30T15:25:34.001Z</time></trkpt><trkpt lat="43.41168351468282" lon="-3.407939813675661"><ele>21.333333333333332</ele><time>2026-04-30T15:25:35.001Z</time></trkpt><trkpt lat="43.411725196619585" lon="-3.407834237174681"><ele>22.5</ele><time>2026-04-30T15:25:36.001Z</time></trkpt><trkpt lat="43.411771969223686" lon="-3.4077351489126433"><ele>23.666666666666664</ele><time>2026-04-30T15:25:37.001Z</time></trkpt><trkpt lat="43.41183721220167" lon="-3.407658010275692"><ele>24.833333333333332</ele><time>2026-04-30T15:25:38.001Z</time></trkpt><trkpt lat="43.411895240490345" lon="-3.4075936102783424"><ele>26.0</ele><time>2026-04-30T15:25:39.001Z</time></trkpt><trkpt lat="43.41196020309436" lon="-3.4075574888212543"><ele>25.999999999999996</ele><time>2026-04-30T15:25:40.001Z</time></trkpt><trkpt lat="43.4120320193672" lon="-3.407540825870429"><ele>26.0</ele><time>2026-04-30T15:25:41.001Z</time></trkpt><trkpt lat="43.41210389398427" lon="-3.407560630883005"><ele>26.0</ele><time>2026-04-30T15:25:42.001Z</time></trkpt><trkpt lat="43.41216358432433" lon="-3.4076163976498757"><ele>26.0</ele><time>2026-04-30T15:25:43.001Z</time></trkpt><trkpt lat="43.41221335096195" lon="-3.407693663617724"><ele>25.999999999999996</ele><time>2026-04-30T15:25:44.001Z</time></trkpt><trkpt lat="43.41224085556108" lon="-3.4077787360285066"><ele>26.0</ele><time>2026-04-30T15:25:45.001Z</time></trkpt><trkpt lat="43.41225544865111" lon="-3.407945143089046"><ele>24.8</ele><time>2026-04-30T15:25:47.001Z</time></trkpt><trkpt lat="43.41222690745522" lon="-3.4081066936716025"><ele>23.6</ele><time>2026-04-30T15:25:49.001Z</time></trkpt><trkpt lat="43.412205967859926" lon="-3.408276896878031"><ele>22.4</ele><time>2026-04-30T15:25:51.001Z</time></trkpt><trkpt lat="43.41219030252481" lon="-3.4083632956317236"><ele>21.2</ele><time>2026-04-30T15:25:52.001Z</time></trkpt><trkpt lat="43.41216425292272" lon="-3.408508499056451"><ele>20.0</ele><time>2026-04-30T15:25:54.001Z</time></trkpt><trkpt lat="43.412138153548035" lon="-3.4086480064942815"><ele>19.833333333333336</ele><time>2026-04-30T15:25:56.001Z</time></trkpt><trkpt lat="43.412120696554545" lon="-3.4087715228816142"><ele>19.666666666666668</ele><time>2026-04-30T15:25:58.001Z</time></trkpt><trkpt lat="43.41210973673311" lon="-3.4088846491723905"><ele>19.5</ele><time>2026-04-30T15:26:00.001Z</time></trkpt><trkpt lat="43.41209967313518" lon="-3.409007893193488"><ele>19.333333333333332</ele><time>2026-04-30T15:26:02.001Z</time></trkpt><trkpt lat="43.41208555983187" lon="-3.4091141639148703"><ele>19.166666666666664</ele><time>2026-04-30T15:26:04.001Z</time></trkpt><trkpt lat="43.412071897473425" lon="-3.409217039026443"><ele>19.0</ele><time>2026-04-30T15:26:06.001Z</time></trkpt><trkpt lat="43.412053307047344" lon="-3.4093570215756714"><ele>19.0</ele><time>2026-04-30T15:26:08.001Z</time></trkpt><trkpt lat="43.41203368678306" lon="-3.4095047588387346"><ele>19.0</ele><time>2026-04-30T15:26:10.001Z</time></trkpt><trkpt lat="43.41201328298935" lon="-3.4096583958136018"><ele>19.0</ele><time>2026-04-30T15:26:12.001Z</time></trkpt><trkpt lat="43.411981987429115" lon="-3.4097943212201023"><ele>19.0</ele><time>2026-04-30T15:26:14.001Z</time></trkpt><trkpt lat="43.411976042751604" lon="-3.409926327834236"><ele>19.0</ele><time>2026-04-30T15:26:16.002Z</time></trkpt><trkpt lat="43.4119612950593" lon="-3.4100319978137463"><ele>19.0</ele><time>2026-04-30T15:26:18.002Z</time></trkpt><trkpt lat="43.41194648638481" lon="-3.410138104605008"><ele>19.0</ele><time>2026-04-30T15:26:20.002Z</time></trkpt><trkpt lat="43.411919466611515" lon="-3.410232607019602"><ele>19.0</ele><time>2026-04-30T15:26:22.002Z</time></trkpt><trkpt lat="43.41191910370874" lon="-3.4103266090981283"><ele>19.0</ele><time>2026-04-30T15:26:31.002Z</time></trkpt><trkpt lat="43.41190351891861" lon="-3.4104178735379533"><ele>19.0</ele><time>2026-04-30T15:26:33.002Z</time></trkpt><trkpt lat="43.411876058621836" lon="-3.4105029210024314"><ele>19.0</ele><time>2026-04-30T15:26:36.999Z</time></trkpt><trkpt lat="43.41182794806848" lon="-3.410571611237808"><ele>19.0</ele><time>2026-04-30T15:27:14Z</time></trkpt><trkpt lat="43.41180433854446" lon="-3.4106795722766448"><ele>18.599999999999998</ele><time>2026-04-30T15:27:17Z</time></trkpt><trkpt lat="43.4118168951029" lon="-3.4107702781908684"><ele>18.2</ele><time>2026-04-30T15:27:40.001Z</time></trkpt><trkpt lat="43.411779905495436" lon="-3.4109043987762253"><ele>17.799999999999997</ele><time>2026-04-30T15:28:23.001Z</time></trkpt><trkpt lat="43.411729757405446" lon="-3.4109834113218045"><ele>17.4</ele><time>2026-04-30T15:28:25.002Z</time></trkpt><trkpt lat="43.41170714069796" lon="-3.4111161982622913"><ele>17.0</ele><time>2026-04-30T15:28:27.002Z</time></trkpt><trkpt lat="43.41166195966055" lon="-3.4112479324529645"><ele>17.2</ele><time>2026-04-30T15:28:29.002Z</time></trkpt><trkpt lat="43.411623704689305" lon="-3.4113943000223372"><ele>17.4</ele><time>2026-04-30T15:28:31.002Z</time></trkpt><trkpt lat="43.41158298871508" lon="-3.4115443855560033"><ele>17.6</ele><time>2026-04-30T15:28:33.002Z</time></trkpt><trkpt lat="43.41155958205777" lon="-3.411625309750761"><ele>17.8</ele><time>2026-04-30T15:28:34.002Z</time></trkpt><trkpt lat="43.41151838873495" lon="-3.411698499836423"><ele>18.0</ele><time>2026-04-30T15:28:35.002Z</time></trkpt><trkpt lat="43.41146303728695" lon="-3.4118505058837605"><ele>18.0</ele><time>2026-04-30T15:28:37.002Z</time></trkpt><trkpt lat="43.41139951855716" lon="-3.4119781842544437"><ele>18.0</ele><time>2026-04-30T15:28:39.002Z</time></trkpt><trkpt lat="43.41134178380165" lon="-3.4121124889301377"><ele>18.0</ele><time>2026-04-30T15:28:41Z</time></trkpt><trkpt lat="43.411264871210506" lon="-3.412244202510081"><ele>18.0</ele><time>2026-04-30T15:28:43Z</time></trkpt><trkpt lat="43.411179901185236" lon="-3.4123551671931485"><ele>16.8</ele><time>2026-04-30T15:28:45Z</time></trkpt><trkpt lat="43.4110937065709" lon="-3.412469992421961"><ele>15.600000000000001</ele><time>2026-04-30T15:28:47Z</time></trkpt><trkpt lat="43.41101209735976" lon="-3.4125948115662776"><ele>14.399999999999999</ele><time>2026-04-30T15:28:49Z</time></trkpt><trkpt lat="43.41096081186791" lon="-3.4127400107747503"><ele>13.2</ele><time>2026-04-30T15:28:51Z</time></trkpt><trkpt lat="43.410947202264296" lon="-3.4128502744108675"><ele>12.0</ele><time>2026-04-30T15:28:53Z</time></trkpt><trkpt lat="43.410734702316994" lon="-3.4128563333609736"><ele>12.0</ele><time>2026-04-30T15:28:55Z</time></trkpt><trkpt lat="43.41060980173278" lon="-3.4128563001019576"><ele>12.0</ele><time>2026-04-30T15:28:57Z</time></trkpt><trkpt lat="43.41053947788101" lon="-3.4128686433287987"><ele>12.0</ele><time>2026-04-30T15:28:58Z</time></trkpt><trkpt lat="43.41044864504617" lon="-3.412897833342368"><ele>12.0</ele><time>2026-04-30T15:29:00Z</time></trkpt><trkpt lat="43.41034924881349" lon="-3.412938838475151"><ele>12.0</ele><time>2026-04-30T15:29:03Z</time></trkpt><trkpt lat="43.41015070439817" lon="-3.4130356883162944"><ele>11.285714285714285</ele><time>2026-04-30T15:29:05Z</time></trkpt><trkpt lat="43.4100937587819" lon="-3.413078905537564"><ele>10.571428571428571</ele><time>2026-04-30T15:29:08Z</time></trkpt><trkpt lat="43.41004188097113" lon="-3.413130802552896"><ele>9.857142857142858</ele><time>2026-04-30T15:29:11Z</time></trkpt><trkpt lat="43.40997923463647" lon="-3.413171704521888"><ele>9.142857142857142</ele><time>2026-04-30T15:29:13Z</time></trkpt><trkpt lat="43.40991665548056" lon="-3.4132372365104215"><ele>8.428571428571429</ele><time>2026-04-30T15:29:15Z</time></trkpt><trkpt lat="43.409848563536634" lon="-3.4132917934746096"><ele>7.714285714285714</ele><time>2026-04-30T15:29:17Z</time></trkpt><trkpt lat="43.40977743255234" lon="-3.413355873033135"><ele>7.0</ele><time>2026-04-30T15:29:19Z</time></trkpt><trkpt lat="43.409689563631524" lon="-3.4134379953878087"><ele>7.199999999999999</ele><time>2026-04-30T15:29:21Z</time></trkpt><trkpt lat="43.4095905768159" lon="-3.4135305178460698"><ele>7.3999999999999995</ele><time>2026-04-30T15:29:23Z</time></trkpt><trkpt lat="43.40949227620019" lon="-3.4136180934714155"><ele>7.6000000000000005</ele><time>2026-04-30T15:29:25.001Z</time></trkpt><trkpt lat="43.40938884554783" lon="-3.413714526260527"><ele>7.800000000000001</ele><time>2026-04-30T15:29:27.001Z</time></trkpt><trkpt lat="43.40933042821196" lon="-3.4137623025058574"><ele>8.0</ele><time>2026-04-30T15:29:28.001Z</time></trkpt><trkpt lat="43.409277177117374" lon="-3.413811477051581"><ele>7.800000000000001</ele><time>2026-04-30T15:29:29.001Z</time></trkpt><trkpt lat="43.40917331444462" lon="-3.413916076851917"><ele>7.6000000000000005</ele><time>2026-04-30T15:29:31.001Z</time></trkpt><trkpt lat="43.40911631148922" lon="-3.4139675953254267"><ele>7.3999999999999995</ele><time>2026-04-30T15:29:32.001Z</time></trkpt><trkpt lat="43.40902260920597" lon="-3.414056999127882"><ele>7.199999999999999</ele><time>2026-04-30T15:29:34.001Z</time></trkpt><trkpt lat="43.40892516241664" lon="-3.41414792002952"><ele>7.0</ele><time>2026-04-30T15:29:36.001Z</time></trkpt><trkpt lat="43.40882529022356" lon="-3.4142412028088787"><ele>7.0</ele><time>2026-04-30T15:29:38.001Z</time></trkpt><trkpt lat="43.40877414205066" lon="-3.414292404667102"><ele>7.0</ele><time>2026-04-30T15:29:39.001Z</time></trkpt><trkpt lat="43.40871874649787" lon="-3.4143448649132457"><ele>7.0</ele><time>2026-04-30T15:29:40.001Z</time></trkpt><trkpt lat="43.40866291287498" lon="-3.4143962782545616"><ele>7.0</ele><time>2026-04-30T15:29:41.001Z</time></trkpt><trkpt lat="43.40861014311075" lon="-3.414450898619977"><ele>7.0</ele><time>2026-04-30T15:29:42.001Z</time></trkpt><trkpt lat="43.40850752062865" lon="-3.4145360087772585"><ele>7.0</ele><time>2026-04-30T15:29:44.001Z</time></trkpt><trkpt lat="43.40845316298616" lon="-3.4145814057166985"><ele>7.0</ele><time>2026-04-30T15:29:45.001Z</time></trkpt><trkpt lat="43.408366353779385" lon="-3.4146920431913217"><ele>6.6</ele><time>2026-04-30T15:29:47.001Z</time></trkpt><trkpt lat="43.40833525988283" lon="-3.414831755667153"><ele>6.199999999999999</ele><time>2026-04-30T15:29:49.001Z</time></trkpt><trkpt lat="43.4083308717168" lon="-3.41497637133259"><ele>5.8</ele><time>2026-04-30T15:29:51.001Z</time></trkpt><trkpt lat="43.40828685098885" lon="-3.4151127769282086"><ele>5.4</ele><time>2026-04-30T15:29:53.001Z</time></trkpt><trkpt lat="43.40821151055526" lon="-3.4151935424572164"><ele>5.0</ele><time>2026-04-30T15:29:55.001Z</time></trkpt><trkpt lat="43.40810391556885" lon="-3.415154703624259"><ele>5.0</ele><time>2026-04-30T15:29:57.001Z</time></trkpt><trkpt lat="43.40799809683183" lon="-3.4151062716408727"><ele>5.0</ele><time>2026-04-30T15:29:59.001Z</time></trkpt><trkpt lat="43.40790633409749" lon="-3.415110026788322"><ele>5.0</ele><time>2026-04-30T15:30:01.001Z</time></trkpt><trkpt lat="43.40784553203365" lon="-3.4151582073277744"><ele>5.0</ele><time>2026-04-30T15:30:04.001Z</time></trkpt><trkpt lat="43.40777123017077" lon="-3.4152115986026415"><ele>5.0</ele><time>2026-04-30T15:30:07.001Z</time></trkpt><trkpt lat="43.40768673117358" lon="-3.41528840868721"><ele>5.166666666666667</ele><time>2026-04-30T15:30:09.001Z</time></trkpt><trkpt lat="43.40758367142534" lon="-3.4153847028229647"><ele>5.333333333333334</ele><time>2026-04-30T15:30:11.001Z</time></trkpt><trkpt lat="43.407526246039986" lon="-3.4154372145811425"><ele>5.5</ele><time>2026-04-30T15:30:12.001Z</time></trkpt><trkpt lat="43.40746790845629" lon="-3.415494429541825"><ele>5.666666666666667</ele><time>2026-04-30T15:30:13.002Z</time></trkpt><trkpt lat="43.40740805640653" lon="-3.4155517397333877"><ele>5.833333333333333</ele><time>2026-04-30T15:30:14.002Z</time></trkpt><trkpt lat="43.407351523747025" lon="-3.415601569505248"><ele>6.0</ele><time>2026-04-30T15:30:15.002Z</time></trkpt><trkpt lat="43.407258204707574" lon="-3.4156881577380243"><ele>6.0</ele><time>2026-04-30T15:30:17.002Z</time></trkpt><trkpt lat="43.40718954795887" lon="-3.4157660281594744"><ele>6.0</ele><time>2026-04-30T15:30:19.002Z</time></trkpt><trkpt lat="43.407129280616566" lon="-3.4158299876819993"><ele>6.0</ele><time>2026-04-30T15:30:21.002Z</time></trkpt><trkpt lat="43.40706983056811" lon="-3.4158824151066516"><ele>6.0</ele><time>2026-04-30T15:30:23.002Z</time></trkpt><trkpt lat="43.40700639834962" lon="-3.415941242879178"><ele>6.0</ele><time>2026-04-30T15:30:26.002Z</time></trkpt><trkpt lat="43.40695651821294" lon="-3.4159956307159263"><ele>6.0</ele><time>2026-04-30T15:30:29.002Z</time></trkpt><trkpt lat="43.40687428512256" lon="-3.416058483483162"><ele>6.0</ele><time>2026-04-30T15:30:32.002Z</time></trkpt><trkpt lat="43.40681090937404" lon="-3.41611873130017"><ele>6.0</ele><time>2026-04-30T15:30:34.002Z</time></trkpt><trkpt lat="43.40673015368187" lon="-3.416202857798619"><ele>6.0</ele><time>2026-04-30T15:30:36.002Z</time></trkpt><trkpt lat="43.406630055176244" lon="-3.4162924579783223"><ele>6.0</ele><time>2026-04-30T15:30:38.002Z</time></trkpt><trkpt lat="43.40657498883006" lon="-3.416341870633149"><ele>6.0</ele><time>2026-04-30T15:30:39.002Z</time></trkpt><trkpt lat="43.40651408000016" lon="-3.4163969863803305"><ele>6.0</ele><time>2026-04-30T15:30:40.002Z</time></trkpt><trkpt lat="43.40645306312403" lon="-3.4164497524647643"><ele>6.0</ele><time>2026-04-30T15:30:41.002Z</time></trkpt><trkpt lat="43.40639615074956" lon="-3.416502825399636"><ele>6.0</ele><time>2026-04-30T15:30:42.002Z</time></trkpt><trkpt lat="43.40632995994971" lon="-3.416561266394021"><ele>6.0</ele><time>2026-04-30T15:30:43.002Z</time></trkpt><trkpt lat="43.406263571356455" lon="-3.416622077715441"><ele>6.0</ele><time>2026-04-30T15:30:44.002Z</time></trkpt><trkpt lat="43.40619655955942" lon="-3.4166819204481973"><ele>6.0</ele><time>2026-04-30T15:30:45.002Z</time></trkpt><trkpt lat="43.40613117771835" lon="-3.416739874234195"><ele>6.0</ele><time>2026-04-30T15:30:46.002Z</time></trkpt><trkpt lat="43.406064364058544" lon="-3.416796605602026"><ele>6.0</ele><time>2026-04-30T15:30:46.999Z</time></trkpt><trkpt lat="43.40600272991489" lon="-3.4168632931620353"><ele>6.0</ele><time>2026-04-30T15:30:47.999Z</time></trkpt><trkpt lat="43.40594584359957" lon="-3.4169350073864284"><ele>6.0</ele><time>2026-04-30T15:30:48.999Z</time></trkpt><trkpt lat="43.40588709941542" lon="-3.4170088970894192"><ele>6.0</ele><time>2026-04-30T15:30:49.999Z</time></trkpt><trkpt lat="43.40583091010162" lon="-3.417086634190696"><ele>6.0</ele><time>2026-04-30T15:30:50.999Z</time></trkpt><trkpt lat="43.405774990013846" lon="-3.4171626699837567"><ele>6.0</ele><time>2026-04-30T15:30:51.999Z</time></trkpt><trkpt lat="43.405717063111425" lon="-3.4172404893060246"><ele>6.0</ele><time>2026-04-30T15:30:52.999Z</time></trkpt><trkpt lat="43.4056573498266" lon="-3.4173246748372375"><ele>6.0</ele><time>2026-04-30T15:30:53.999Z</time></trkpt><trkpt lat="43.40559562545342" lon="-3.4174115509116905"><ele>6.0</ele><time>2026-04-30T15:30:54.999Z</time></trkpt><trkpt lat="43.40553516572508" lon="-3.4174986330608905"><ele>6.0</ele><time>2026-04-30T15:30:55.999Z</time></trkpt><trkpt lat="43.40547528815558" lon="-3.4175852220030185"><ele>6.0</ele><time>2026-04-30T15:30:56.999Z</time></trkpt><trkpt lat="43.405414216248126" lon="-3.4176719313490813"><ele>6.0</ele><time>2026-04-30T15:30:57.999Z</time></trkpt><trkpt lat="43.40535740461692" lon="-3.4177590996202114"><ele>6.5</ele><time>2026-04-30T15:30:58.999Z</time></trkpt><trkpt lat="43.40529600163585" lon="-3.41784523767041"><ele>7.0</ele><time>2026-04-30T15:30:59.999Z</time></trkpt><trkpt lat="43.40523961669589" lon="-3.417933084880942"><ele>7.5</ele><time>2026-04-30T15:31:01Z</time></trkpt><trkpt lat="43.40518226384423" lon="-3.4180259097681835"><ele>8.0</ele><time>2026-04-30T15:31:02Z</time></trkpt><trkpt lat="43.40512206246356" lon="-3.4181111380044378"><ele>8.5</ele><time>2026-04-30T15:31:03Z</time></trkpt><trkpt lat="43.405061422581014" lon="-3.418203709962163"><ele>9.0</ele><time>2026-04-30T15:31:04Z</time></trkpt><trkpt lat="43.40500248312158" lon="-3.4182954684598936"><ele>9.0</ele><time>2026-04-30T15:31:05Z</time></trkpt><trkpt lat="43.40494751873416" lon="-3.4183885046765106"><ele>9.0</ele><time>2026-04-30T15:31:06Z</time></trkpt><trkpt lat="43.40489452808341" lon="-3.4184877904718"><ele>9.0</ele><time>2026-04-30T15:31:07Z</time></trkpt><trkpt lat="43.404847287093276" lon="-3.4185921595982816"><ele>9.0</ele><time>2026-04-30T15:31:08Z</time></trkpt><trkpt lat="43.40480502081623" lon="-3.418694630642649"><ele>9.0</ele><time>2026-04-30T15:31:09Z</time></trkpt><trkpt lat="43.40476341709672" lon="-3.4188026517948416"><ele>9.0</ele><time>2026-04-30T15:31:10Z</time></trkpt><trkpt lat="43.40472523366668" lon="-3.418906147531388"><ele>8.333333333333334</ele><time>2026-04-30T15:31:11Z</time></trkpt><trkpt lat="43.40468291707469" lon="-3.4190145613752625"><ele>7.666666666666667</ele><time>2026-04-30T15:31:12Z</time></trkpt><trkpt lat="43.40464617377583" lon="-3.4191174394334998"><ele>7.0</ele><time>2026-04-30T15:31:13Z</time></trkpt><trkpt lat="43.4046093405094" lon="-3.4192253660673173"><ele>6.333333333333334</ele><time>2026-04-30T15:31:14Z</time></trkpt><trkpt lat="43.40456795570313" lon="-3.4193279197779085"><ele>5.666666666666667</ele><time>2026-04-30T15:31:15Z</time></trkpt><trkpt lat="43.404526792146044" lon="-3.419439741171721"><ele>5.0</ele><time>2026-04-30T15:31:16Z</time></trkpt><trkpt lat="43.404487963217356" lon="-3.4195441606920043"><ele>5.833333333333334</ele><time>2026-04-30T15:31:17Z</time></trkpt><trkpt lat="43.40444174251761" lon="-3.419654141333694"><ele>6.666666666666667</ele><time>2026-04-30T15:31:18Z</time></trkpt><trkpt lat="43.404402340831034" lon="-3.4197611458349804"><ele>7.5</ele><time>2026-04-30T15:31:19Z</time></trkpt><trkpt lat="43.404360796535784" lon="-3.4198717522092514"><ele>8.333333333333334</ele><time>2026-04-30T15:31:20Z</time></trkpt><trkpt lat="43.40432231579559" lon="-3.41998356818515"><ele>9.166666666666668</ele><time>2026-04-30T15:31:21Z</time></trkpt><trkpt lat="43.40428332006607" lon="-3.4200939875865077"><ele>10.0</ele><time>2026-04-30T15:31:22Z</time></trkpt><trkpt lat="43.404246927952265" lon="-3.420207133963989"><ele>10.0</ele><time>2026-04-30T15:31:23Z</time></trkpt><trkpt lat="43.40421348885413" lon="-3.4203179099391496"><ele>10.0</ele><time>2026-04-30T15:31:24Z</time></trkpt><trkpt lat="43.40418300131091" lon="-3.4204348848335213"><ele>10.0</ele><time>2026-04-30T15:31:25Z</time></trkpt><trkpt lat="43.40415517722324" lon="-3.4205513133163628"><ele>10.0</ele><time>2026-04-30T15:31:26Z</time></trkpt><trkpt lat="43.40412560550513" lon="-3.420671998810686"><ele>10.0</ele><time>2026-04-30T15:31:27Z</time></trkpt><trkpt lat="43.40409606105097" lon="-3.420793092307213"><ele>9.2</ele><time>2026-04-30T15:31:28Z</time></trkpt><trkpt lat="43.40406720329243" lon="-3.4209145868798028"><ele>8.4</ele><time>2026-04-30T15:31:29Z</time></trkpt><trkpt lat="43.40403462550971" lon="-3.421034876033784"><ele>7.6</ele><time>2026-04-30T15:31:30Z</time></trkpt><trkpt lat="43.40400609035428" lon="-3.421154264109945"><ele>6.8</ele><time>2026-04-30T15:31:31Z</time></trkpt><trkpt lat="43.40397450917792" lon="-3.4212750576548467"><ele>6.0</ele><time>2026-04-30T15:31:32Z</time></trkpt><trkpt lat="43.40394509606623" lon="-3.421395435492847"><ele>5.8</ele><time>2026-04-30T15:31:33Z</time></trkpt><trkpt lat="43.40391136038794" lon="-3.4215162559240997"><ele>5.6</ele><time>2026-04-30T15:31:34Z</time></trkpt><trkpt lat="43.40388208611828" lon="-3.421637252959794"><ele>5.4</ele><time>2026-04-30T15:31:35Z</time></trkpt><trkpt lat="43.403850957785906" lon="-3.4217577266361903"><ele>5.2</ele><time>2026-04-30T15:31:36Z</time></trkpt><trkpt lat="43.403820063631635" lon="-3.4218776345052806"><ele>5.0</ele><time>2026-04-30T15:31:37Z</time></trkpt><trkpt lat="43.40378953130052" lon="-3.422000004352893"><ele>5.0</ele><time>2026-04-30T15:31:38.001Z</time></trkpt><trkpt lat="43.403760079635404" lon="-3.422123015548539"><ele>5.0</ele><time>2026-04-30T15:31:39.001Z</time></trkpt><trkpt lat="43.40373492734431" lon="-3.4222464749116677"><ele>5.0</ele><time>2026-04-30T15:31:40.001Z</time></trkpt><trkpt lat="43.4037119558231" lon="-3.4223700200899723"><ele>5.0</ele><time>2026-04-30T15:31:41.001Z</time></trkpt><trkpt lat="43.403687262684485" lon="-3.4224952107652253"><ele>5.0</ele><time>2026-04-30T15:31:42.001Z</time></trkpt><trkpt lat="43.40366509789425" lon="-3.422619789145608"><ele>5.0</ele><time>2026-04-30T15:31:43.001Z</time></trkpt><trkpt lat="43.40364703510901" lon="-3.422744087425928"><ele>5.0</ele><time>2026-04-30T15:31:44.001Z</time></trkpt><trkpt lat="43.40362714483234" lon="-3.4228659371763652"><ele>5.0</ele><time>2026-04-30T15:31:45.001Z</time></trkpt><trkpt lat="43.40360607585447" lon="-3.422990094988728"><ele>5.0</ele><time>2026-04-30T15:31:46.001Z</time></trkpt><trkpt lat="43.403588298242546" lon="-3.423113834810954"><ele>5.0</ele><time>2026-04-30T15:31:47.001Z</time></trkpt><trkpt lat="43.403569383107985" lon="-3.423237295452232"><ele>5.2</ele><time>2026-04-30T15:31:48.001Z</time></trkpt><trkpt lat="43.4035488491888" lon="-3.423360913300605"><ele>5.4</ele><time>2026-04-30T15:31:49.001Z</time></trkpt><trkpt lat="43.40352982072661" lon="-3.423485693743657"><ele>5.6</ele><time>2026-04-30T15:31:50.001Z</time></trkpt><trkpt lat="43.40351133226259" lon="-3.423608907832158"><ele>5.8</ele><time>2026-04-30T15:31:51.001Z</time></trkpt><trkpt lat="43.40349151372608" lon="-3.423732523579175"><ele>6.0</ele><time>2026-04-30T15:31:52.001Z</time></trkpt><trkpt lat="43.40346201095" lon="-3.4238549423874343"><ele>5.6</ele><time>2026-04-30T15:31:53.001Z</time></trkpt><trkpt lat="43.4034427678203" lon="-3.423980409506833"><ele>5.199999999999999</ele><time>2026-04-30T15:31:54.001Z</time></trkpt><trkpt lat="43.403424403284326" lon="-3.4241067188018888"><ele>4.800000000000001</ele><time>2026-04-30T15:31:55.001Z</time></trkpt><trkpt lat="43.40340732637521" lon="-3.42422874608999"><ele>4.4</ele><time>2026-04-30T15:31:56.001Z</time></trkpt><trkpt lat="43.40338775696427" lon="-3.424351337674796"><ele>4.0</ele><time>2026-04-30T15:31:57.001Z</time></trkpt><trkpt lat="43.40336850590516" lon="-3.424474242861491"><ele>4.0</ele><time>2026-04-30T15:31:58.001Z</time></trkpt><trkpt lat="43.40335022047479" lon="-3.424599028374682"><ele>4.0</ele><time>2026-04-30T15:31:59.001Z</time></trkpt><trkpt lat="43.40333079769639" lon="-3.4247241596114675"><ele>4.0</ele><time>2026-04-30T15:32:00.001Z</time></trkpt><trkpt lat="43.40331276311164" lon="-3.4248509843807655"><ele>4.0</ele><time>2026-04-30T15:32:01.001Z</time></trkpt><trkpt lat="43.40329470128963" lon="-3.424975270185448"><ele>4.0</ele><time>2026-04-30T15:32:02.001Z</time></trkpt><trkpt lat="43.40327755926939" lon="-3.4251014657580705"><ele>4.2</ele><time>2026-04-30T15:32:03.001Z</time></trkpt><trkpt lat="43.403260392675406" lon="-3.425226954015317"><ele>4.4</ele><time>2026-04-30T15:32:04.001Z</time></trkpt><trkpt lat="43.40324285484946" lon="-3.425353852021685"><ele>4.6</ele><time>2026-04-30T15:32:05.001Z</time></trkpt><trkpt lat="43.40322821092192" lon="-3.4254774669297365"><ele>4.8</ele><time>2026-04-30T15:32:06.001Z</time></trkpt><trkpt lat="43.40321486197491" lon="-3.4256025717208596"><ele>5.0</ele><time>2026-04-30T15:32:07.001Z</time></trkpt><trkpt lat="43.40320148549375" lon="-3.4257315420113983"><ele>5.0</ele><time>2026-04-30T15:32:08.001Z</time></trkpt><trkpt lat="43.40318697798305" lon="-3.425857131577255"><ele>5.0</ele><time>2026-04-30T15:32:09.001Z</time></trkpt><trkpt lat="43.40317182945781" lon="-3.4259801028849304"><ele>5.0</ele><time>2026-04-30T15:32:10.001Z</time></trkpt><trkpt lat="43.40315668449105" lon="-3.426105778948711"><ele>5.0</ele><time>2026-04-30T15:32:11.001Z</time></trkpt><trkpt lat="43.403141637387144" lon="-3.4262333414770567"><ele>5.0</ele><time>2026-04-30T15:32:12.001Z</time></trkpt><trkpt lat="43.40312541533134" lon="-3.426357899589362"><ele>5.0</ele><time>2026-04-30T15:32:13.001Z</time></trkpt><trkpt lat="43.403110698641825" lon="-3.4264866796695594"><ele>5.0</ele><time>2026-04-30T15:32:14.001Z</time></trkpt><trkpt lat="43.403099576353824" lon="-3.426612173411638"><ele>5.0</ele><time>2026-04-30T15:32:15.001Z</time></trkpt><trkpt lat="43.40308355592929" lon="-3.4267325521642866"><ele>5.0</ele><time>2026-04-30T15:32:16.001Z</time></trkpt><trkpt lat="43.403067664757856" lon="-3.426851902059604"><ele>5.0</ele><time>2026-04-30T15:32:17.001Z</time></trkpt><trkpt lat="43.403055661782716" lon="-3.4269757184232663"><ele>5.0</ele><time>2026-04-30T15:32:18.001Z</time></trkpt><trkpt lat="43.40304506000227" lon="-3.4270972035711558"><ele>5.0</ele><time>2026-04-30T15:32:19.001Z</time></trkpt><trkpt lat="43.403036966851396" lon="-3.4272175094850437"><ele>5.0</ele><time>2026-04-30T15:32:20.001Z</time></trkpt><trkpt lat="43.40303148428371" lon="-3.4273432520565086"><ele>5.0</ele><time>2026-04-30T15:32:21.001Z</time></trkpt><trkpt lat="43.403029519120366" lon="-3.4274710017747947"><ele>5.0</ele><time>2026-04-30T15:32:22.002Z</time></trkpt><trkpt lat="43.40302792667558" lon="-3.427599146265162"><ele>4.8</ele><time>2026-04-30T15:32:23.002Z</time></trkpt><trkpt lat="43.40302777711452" lon="-3.4277261631877343"><ele>4.6</ele><time>2026-04-30T15:32:24.002Z</time></trkpt><trkpt lat="43.40302655513187" lon="-3.427853737148224"><ele>4.4</ele><time>2026-04-30T15:32:25.002Z</time></trkpt><trkpt lat="43.40302313982661" lon="-3.427980944735687"><ele>4.2</ele><time>2026-04-30T15:32:26.002Z</time></trkpt><trkpt lat="43.40301787516066" lon="-3.4281060619112838"><ele>4.0</ele><time>2026-04-30T15:32:27.002Z</time></trkpt><trkpt lat="43.40301430220935" lon="-3.428233128888806"><ele>4.0</ele><time>2026-04-30T15:32:28.002Z</time></trkpt><trkpt lat="43.40301116605446" lon="-3.428359672655121"><ele>4.0</ele><time>2026-04-30T15:32:29.002Z</time></trkpt><trkpt lat="43.40300715473823" lon="-3.428484260868933"><ele>4.0</ele><time>2026-04-30T15:32:30.002Z</time></trkpt><trkpt lat="43.403003224885026" lon="-3.4286097239893385"><ele>4.0</ele><time>2026-04-30T15:32:31.002Z</time></trkpt><trkpt lat="43.402999417106486" lon="-3.428732202196976"><ele>4.0</ele><time>2026-04-30T15:32:32.002Z</time></trkpt><trkpt lat="43.40299720984002" lon="-3.4288521717146088"><ele>4.4</ele><time>2026-04-30T15:32:33.002Z</time></trkpt><trkpt lat="43.40299635954978" lon="-3.4289712480496495"><ele>4.800000000000001</ele><time>2026-04-30T15:32:34.002Z</time></trkpt><trkpt lat="43.40299821874672" lon="-3.429095503808611"><ele>5.199999999999999</ele><time>2026-04-30T15:32:35.002Z</time></trkpt><trkpt lat="43.40299770193079" lon="-3.4292240401782728"><ele>5.6</ele><time>2026-04-30T15:32:36.002Z</time></trkpt><trkpt lat="43.402997779901796" lon="-3.429350086064318"><ele>6.0</ele><time>2026-04-30T15:32:37.002Z</time></trkpt><trkpt lat="43.40299629053406" lon="-3.4294745169580585"><ele>6.333333333333333</ele><time>2026-04-30T15:32:38.002Z</time></trkpt><trkpt lat="43.40298785605416" lon="-3.4295968134965884"><ele>6.666666666666666</ele><time>2026-04-30T15:32:39.002Z</time></trkpt><trkpt lat="43.40298783722415" lon="-3.429721491479579"><ele>7.0</ele><time>2026-04-30T15:32:40.002Z</time></trkpt><trkpt lat="43.40298501637742" lon="-3.429844437291742"><ele>7.333333333333333</ele><time>2026-04-30T15:32:41.002Z</time></trkpt><trkpt lat="43.40297756499471" lon="-3.4299640244793586"><ele>7.666666666666666</ele><time>2026-04-30T15:32:42.002Z</time></trkpt><trkpt lat="43.40296096023178" lon="-3.430082846680845"><ele>8.0</ele><time>2026-04-30T15:32:43.002Z</time></trkpt><trkpt lat="43.402938991205566" lon="-3.4301973768536786"><ele>7.999999999999999</ele><time>2026-04-30T15:32:44.002Z</time></trkpt><trkpt lat="43.40291527437064" lon="-3.430309973592296"><ele>8.0</ele><time>2026-04-30T15:32:45.002Z</time></trkpt><trkpt lat="43.40288875638521" lon="-3.4304257205754163"><ele>8.0</ele><time>2026-04-30T15:32:46.002Z</time></trkpt><trkpt lat="43.402860549793964" lon="-3.430541188090149"><ele>8.0</ele><time>2026-04-30T15:32:47.002Z</time></trkpt><trkpt lat="43.40282975571421" lon="-3.43065889865738"><ele>7.999999999999999</ele><time>2026-04-30T15:32:48.002Z</time></trkpt><trkpt lat="43.40280020926756" lon="-3.4307783060870443"><ele>8.0</ele><time>2026-04-30T15:32:49.002Z</time></trkpt><trkpt lat="43.40277754130511" lon="-3.4309020022697174"><ele>8.0</ele><time>2026-04-30T15:32:50.002Z</time></trkpt><trkpt lat="43.40275482961833" lon="-3.431027698068667"><ele>8.0</ele><time>2026-04-30T15:32:51.002Z</time></trkpt><trkpt lat="43.40272862899161" lon="-3.431153775544706"><ele>8.0</ele><time>2026-04-30T15:32:52.002Z</time></trkpt><trkpt lat="43.402702110250026" lon="-3.431276466754887"><ele>8.0</ele><time>2026-04-30T15:32:52.999Z</time></trkpt><trkpt lat="43.40267497630822" lon="-3.4313989775636005"><ele>8.0</ele><time>2026-04-30T15:32:53.999Z</time></trkpt><trkpt lat="43.402646748773996" lon="-3.431519612916822"><ele>7.6000000000000005</ele><time>2026-04-30T15:32:54.999Z</time></trkpt><trkpt lat="43.40262138932216" lon="-3.4316437766795826"><ele>7.200000000000001</ele><time>2026-04-30T15:32:55.999Z</time></trkpt><trkpt lat="43.402600503636165" lon="-3.431769119992594"><ele>6.8</ele><time>2026-04-30T15:32:56.999Z</time></trkpt><trkpt lat="43.40257828105111" lon="-3.431890519308533"><ele>6.4</ele><time>2026-04-30T15:32:57.999Z</time></trkpt><trkpt lat="43.402555802594115" lon="-3.4320119688074695"><ele>6.0</ele><time>2026-04-30T15:32:58.999Z</time></trkpt><trkpt lat="43.40253402038743" lon="-3.4321375398455376"><ele>6.0</ele><time>2026-04-30T15:32:59.999Z</time></trkpt><trkpt lat="43.40251820706066" lon="-3.432261906921639"><ele>6.0</ele><time>2026-04-30T15:33:01Z</time></trkpt><trkpt lat="43.40251525434579" lon="-3.432391029986363"><ele>6.0</ele><time>2026-04-30T15:33:02Z</time></trkpt><trkpt lat="43.402504922527974" lon="-3.432517370716145"><ele>6.0</ele><time>2026-04-30T15:33:03Z</time></trkpt><trkpt lat="43.402493585371666" lon="-3.4326480174327005"><ele>6.0</ele><time>2026-04-30T15:33:04Z</time></trkpt><trkpt lat="43.40248742423733" lon="-3.4327751317369066"><ele>6.0</ele><time>2026-04-30T15:33:05Z</time></trkpt><trkpt lat="43.40248046244175" lon="-3.4329064998031016"><ele>6.0</ele><time>2026-04-30T15:33:06Z</time></trkpt><trkpt lat="43.40247214270686" lon="-3.4330313374516113"><ele>6.0</ele><time>2026-04-30T15:33:07Z</time></trkpt><trkpt lat="43.402460201226276" lon="-3.4331604736844965"><ele>6.0</ele><time>2026-04-30T15:33:08Z</time></trkpt><trkpt lat="43.40245016095818" lon="-3.433289741696941"><ele>6.0</ele><time>2026-04-30T15:33:09Z</time></trkpt><trkpt lat="43.40244266363316" lon="-3.4334186035538607"><ele>6.0</ele><time>2026-04-30T15:33:10Z</time></trkpt><trkpt lat="43.4024350892185" lon="-3.433547178785827"><ele>6.0</ele><time>2026-04-30T15:33:11Z</time></trkpt><trkpt lat="43.40242932865053" lon="-3.433677026543721"><ele>6.0</ele><time>2026-04-30T15:33:12Z</time></trkpt><trkpt lat="43.40241328444887" lon="-3.43380326684085"><ele>6.0</ele><time>2026-04-30T15:33:13Z</time></trkpt><trkpt lat="43.40240131543957" lon="-3.4339335171239473"><ele>6.0</ele><time>2026-04-30T15:33:14Z</time></trkpt><trkpt lat="43.4023868548868" lon="-3.434058429001568"><ele>6.0</ele><time>2026-04-30T15:33:15Z</time></trkpt><trkpt lat="43.40237576783611" lon="-3.4341845496849617"><ele>6.0</ele><time>2026-04-30T15:33:16Z</time></trkpt><trkpt lat="43.40236243702908" lon="-3.434310195869649"><ele>6.0</ele><time>2026-04-30T15:33:17Z</time></trkpt><trkpt lat="43.4023536924179" lon="-3.434443561790564"><ele>6.0</ele><time>2026-04-30T15:33:18Z</time></trkpt><trkpt lat="43.402342970625" lon="-3.4345701689638175"><ele>6.0</ele><time>2026-04-30T15:33:19Z</time></trkpt><trkpt lat="43.40233151754797" lon="-3.4346960382485716"><ele>6.166666666666667</ele><time>2026-04-30T15:33:20Z</time></trkpt><trkpt lat="43.40231806012999" lon="-3.4348173244329114"><ele>6.333333333333334</ele><time>2026-04-30T15:33:21Z</time></trkpt><trkpt lat="43.402302863051794" lon="-3.4349314428323408"><ele>6.5</ele><time>2026-04-30T15:33:22Z</time></trkpt><trkpt lat="43.402281009017244" lon="-3.435043521754241"><ele>6.666666666666667</ele><time>2026-04-30T15:33:23Z</time></trkpt><trkpt lat="43.402251639915974" lon="-3.4351502145769577"><ele>6.833333333333334</ele><time>2026-04-30T15:33:24Z</time></trkpt><trkpt lat="43.402211955558585" lon="-3.4352496994212824"><ele>7.0</ele><time>2026-04-30T15:33:25Z</time></trkpt><trkpt lat="43.40216905288082" lon="-3.435337602903496"><ele>7.000000000000001</ele><time>2026-04-30T15:33:26Z</time></trkpt><trkpt lat="43.40211686092609" lon="-3.435411509183592"><ele>7.0</ele><time>2026-04-30T15:33:27Z</time></trkpt><trkpt lat="43.40206455200537" lon="-3.435482709931936"><ele>7.0</ele><time>2026-04-30T15:33:28Z</time></trkpt><trkpt lat="43.401976796759534" lon="-3.4355940975487766"><ele>7.0</ele><time>2026-04-30T15:33:30Z</time></trkpt><trkpt lat="43.401927262475894" lon="-3.435653730533131"><ele>7.000000000000001</ele><time>2026-04-30T15:33:31Z</time></trkpt><trkpt lat="43.40187052681985" lon="-3.435708862451295"><ele>7.0</ele><time>2026-04-30T15:33:32Z</time></trkpt><trkpt lat="43.40180165321703" lon="-3.435763886581466"><ele>7.166666666666667</ele><time>2026-04-30T15:33:33Z</time></trkpt><trkpt lat="43.40174008096064" lon="-3.435826272377536"><ele>7.333333333333334</ele><time>2026-04-30T15:33:34Z</time></trkpt><trkpt lat="43.401682910700174" lon="-3.435889882278278"><ele>7.5</ele><time>2026-04-30T15:33:35Z</time></trkpt><trkpt lat="43.40162887797749" lon="-3.4359738711795202"><ele>7.666666666666666</ele><time>2026-04-30T15:33:36Z</time></trkpt><trkpt lat="43.40157529320163" lon="-3.4360623365137553"><ele>7.833333333333333</ele><time>2026-04-30T15:33:37.001Z</time></trkpt><trkpt lat="43.401526649754416" lon="-3.436156621878061"><ele>8.0</ele><time>2026-04-30T15:33:38.001Z</time></trkpt><trkpt lat="43.40148637434466" lon="-3.4362575527042867"><ele>7.833333333333333</ele><time>2026-04-30T15:33:39.001Z</time></trkpt><trkpt lat="43.401452503422696" lon="-3.436360419232151"><ele>7.666666666666666</ele><time>2026-04-30T15:33:40.001Z</time></trkpt><trkpt lat="43.40142026841266" lon="-3.436461056368946"><ele>7.5</ele><time>2026-04-30T15:33:41.001Z</time></trkpt><trkpt lat="43.401389852997944" lon="-3.4365576027911824"><ele>7.333333333333334</ele><time>2026-04-30T15:33:42.001Z</time></trkpt><trkpt lat="43.40136249346565" lon="-3.436653443325774"><ele>7.166666666666667</ele><time>2026-04-30T15:33:43.001Z</time></trkpt><trkpt lat="43.401337879692214" lon="-3.4367499353990563"><ele>7.0</ele><time>2026-04-30T15:33:44.001Z</time></trkpt><trkpt lat="43.40132276193619" lon="-3.4368385646115307"><ele>7.0</ele><time>2026-04-30T15:33:45.001Z</time></trkpt><trkpt lat="43.401318720930206" lon="-3.4369281690389957"><ele>7.0</ele><time>2026-04-30T15:33:46.001Z</time></trkpt><trkpt lat="43.401320022993026" lon="-3.437020397892414"><ele>7.0</ele><time>2026-04-30T15:33:47.001Z</time></trkpt><trkpt lat="43.40133491085514" lon="-3.4371257525365166"><ele>7.0</ele><time>2026-04-30T15:33:48.001Z</time></trkpt><trkpt lat="43.40134965210492" lon="-3.437231799888446"><ele>7.0</ele><time>2026-04-30T15:33:49.001Z</time></trkpt><trkpt lat="43.4013475732549" lon="-3.4373390947893476"><ele>7.0</ele><time>2026-04-30T15:33:50.001Z</time></trkpt><trkpt lat="43.401327991243555" lon="-3.4374394075787813"><ele>7.0</ele><time>2026-04-30T15:33:51.001Z</time></trkpt><trkpt lat="43.401287530986366" lon="-3.4375355645720798"><ele>6.500000000000001</ele><time>2026-04-30T15:33:52.001Z</time></trkpt><trkpt lat="43.40123277809275" lon="-3.4376175433913088"><ele>6.0</ele><time>2026-04-30T15:33:53.001Z</time></trkpt><trkpt lat="43.40116133081117" lon="-3.437677338382253"><ele>5.5</ele><time>2026-04-30T15:33:54.001Z</time></trkpt><trkpt lat="43.40107940085352" lon="-3.437707009267285"><ele>5.0</ele><time>2026-04-30T15:33:55.001Z</time></trkpt><trkpt lat="43.40099571004374" lon="-3.4376819576190445"><ele>4.5</ele><time>2026-04-30T15:33:56.001Z</time></trkpt><trkpt lat="43.400913379253325" lon="-3.4377153058552095"><ele>4.0</ele><time>2026-04-30T15:33:57.001Z</time></trkpt><trkpt lat="43.40083654364104" lon="-3.437762774707614"><ele>3.9999999999999996</ele><time>2026-04-30T15:33:58.001Z</time></trkpt><trkpt lat="43.40080546083735" lon="-3.437870743717461"><ele>4.0</ele><time>2026-04-30T15:33:59.001Z</time></trkpt><trkpt lat="43.400759537037835" lon="-3.43797069342612"><ele>4.0</ele><time>2026-04-30T15:34:00.001Z</time></trkpt><trkpt lat="43.40069795108311" lon="-3.438060659154122"><ele>4.0</ele><time>2026-04-30T15:34:01.001Z</time></trkpt><trkpt lat="43.400652507177746" lon="-3.43815909210306"><ele>3.9999999999999996</ele><time>2026-04-30T15:34:02.001Z</time></trkpt><trkpt lat="43.40060085888073" lon="-3.4382546722429708"><ele>4.0</ele><time>2026-04-30T15:34:03.001Z</time></trkpt><trkpt lat="43.40055172120062" lon="-3.438358635579208"><ele>4.166666666666666</ele><time>2026-04-30T15:34:04.001Z</time></trkpt><trkpt lat="43.40050230249822" lon="-3.438457174578474"><ele>4.333333333333333</ele><time>2026-04-30T15:34:05.001Z</time></trkpt><trkpt lat="43.400452166619125" lon="-3.438557160471036"><ele>4.5</ele><time>2026-04-30T15:34:06.001Z</time></trkpt><trkpt lat="43.40040185535462" lon="-3.4386572525641226"><ele>4.666666666666667</ele><time>2026-04-30T15:34:07.001Z</time></trkpt><trkpt lat="43.40035077534986" lon="-3.4387573847840383"><ele>4.833333333333334</ele><time>2026-04-30T15:34:08.001Z</time></trkpt><trkpt lat="43.40029921151225" lon="-3.438855273063077"><ele>5.0</ele><time>2026-04-30T15:34:09.001Z</time></trkpt><trkpt lat="43.40024695113526" lon="-3.438951429805519"><ele>5.166666666666667</ele><time>2026-04-30T15:34:10.001Z</time></trkpt><trkpt lat="43.40019409754692" lon="-3.4390487762998374"><ele>5.333333333333334</ele><time>2026-04-30T15:34:11.001Z</time></trkpt><trkpt lat="43.40014562219404" lon="-3.4391450729860265"><ele>5.5</ele><time>2026-04-30T15:34:12.001Z</time></trkpt><trkpt lat="43.400094986970686" lon="-3.439240983965156"><ele>5.666666666666667</ele><time>2026-04-30T15:34:13.001Z</time></trkpt><trkpt lat="43.400043144432104" lon="-3.439339859788806"><ele>5.833333333333333</ele><time>2026-04-30T15:34:14.001Z</time></trkpt><trkpt lat="43.39999252311255" lon="-3.439436693591965"><ele>6.0</ele><time>2026-04-30T15:34:15.001Z</time></trkpt><trkpt lat="43.39994316861236" lon="-3.4395331404337224"><ele>6.0</ele><time>2026-04-30T15:34:16.001Z</time></trkpt><trkpt lat="43.39989979844448" lon="-3.4396281175030246"><ele>6.0</ele><time>2026-04-30T15:34:17.001Z</time></trkpt><trkpt lat="43.39986102313819" lon="-3.4397078156294"><ele>6.0</ele><time>2026-04-30T15:34:18.002Z</time></trkpt><trkpt lat="43.399822384473616" lon="-3.4397842492571473"><ele>6.0</ele><time>2026-04-30T15:34:21.002Z</time></trkpt><trkpt lat="43.39977177392804" lon="-3.4398818591959412"><ele>6.0</ele><time>2026-04-30T15:34:23.002Z</time></trkpt><trkpt lat="43.39969899965669" lon="-3.4400232966654714"><ele>6.0</ele><time>2026-04-30T15:34:25.002Z</time></trkpt><trkpt lat="43.39963971728076" lon="-3.4401559218031212"><ele>6.0</ele><time>2026-04-30T15:34:27.002Z</time></trkpt><trkpt lat="43.39965289655487" lon="-3.440254639164855"><ele>6.0</ele><time>2026-04-30T15:34:29.002Z</time></trkpt><trkpt lat="43.399613123942615" lon="-3.440344707043529"><ele>6.0</ele><time>2026-04-30T15:34:31.002Z</time></trkpt><trkpt lat="43.3995502889764" lon="-3.44037711697067"><ele>6.0</ele><time>2026-04-30T16:02:14.002Z</time></trkpt><trkpt lat="43.399511112993" lon="-3.440460838525666"><ele>6.0</ele><time>2026-04-30T16:02:17.001Z</time></trkpt><trkpt lat="43.39946001198299" lon="-3.440554822893116"><ele>6.0</ele><time>2026-04-30T16:02:20.001Z</time></trkpt><trkpt lat="43.399423918998814" lon="-3.440664782445599"><ele>5.999999999999999</ele><time>2026-04-30T16:02:23.001Z</time></trkpt><trkpt lat="43.39938478371541" lon="-3.4407362137231683"><ele>6.0</ele><time>2026-04-30T16:02:25.001Z</time></trkpt><trkpt lat="43.399336391346054" lon="-3.4408259505966927"><ele>6.0</ele><time>2026-04-30T16:02:28.001Z</time></trkpt><trkpt lat="43.39929057911943" lon="-3.440927511933863"><ele>6.0</ele><time>2026-04-30T16:02:31.001Z</time></trkpt><trkpt lat="43.39925747130151" lon="-3.4410085587313897"><ele>6.0</ele><time>2026-04-30T16:02:33.001Z</time></trkpt><trkpt lat="43.39922380672006" lon="-3.4410874646741685"><ele>5.999999999999999</ele><time>2026-04-30T16:02:35.001Z</time></trkpt><trkpt lat="43.399189890029675" lon="-3.441171668146544"><ele>6.0</ele><time>2026-04-30T16:02:37.001Z</time></trkpt><trkpt lat="43.39917319751927" lon="-3.441291516727957"><ele>5.833333333333333</ele><time>2026-04-30T16:02:40.001Z</time></trkpt><trkpt lat="43.39914796858924" lon="-3.4413946673157447"><ele>5.666666666666667</ele><time>2026-04-30T16:02:43.001Z</time></trkpt><trkpt lat="43.39910905121764" lon="-3.4414876565451005"><ele>5.5</ele><time>2026-04-30T16:02:46.001Z</time></trkpt><trkpt lat="43.39903794677334" lon="-3.4415339214829426"><ele>5.333333333333334</ele><time>2026-04-30T16:02:48.001Z</time></trkpt><trkpt lat="43.39897941823334" lon="-3.4415874438741803"><ele>5.166666666666667</ele><time>2026-04-30T16:02:50.001Z</time></trkpt><trkpt lat="43.3989051511203" lon="-3.441694045471157"><ele>5.0</ele><time>2026-04-30T16:02:53.001Z</time></trkpt><trkpt lat="43.39883993579128" lon="-3.4418189709055897"><ele>4.833333333333334</ele><time>2026-04-30T16:02:55.001Z</time></trkpt><trkpt lat="43.398783185485755" lon="-3.4419743060532584"><ele>4.666666666666667</ele><time>2026-04-30T16:02:57.001Z</time></trkpt><trkpt lat="43.398717145531634" lon="-3.4421160279463288"><ele>4.5</ele><time>2026-04-30T16:02:59.001Z</time></trkpt><trkpt lat="43.398681951112685" lon="-3.442188253346694"><ele>4.333333333333333</ele><time>2026-04-30T16:03:00.001Z</time></trkpt><trkpt lat="43.39864505262142" lon="-3.4422629368720954"><ele>4.166666666666666</ele><time>2026-04-30T16:03:01.001Z</time></trkpt><trkpt lat="43.39860940495117" lon="-3.442342357395218"><ele>4.0</ele><time>2026-04-30T16:03:02.001Z</time></trkpt><trkpt lat="43.3985757415053" lon="-3.442425454822331"><ele>3.9999999999999996</ele><time>2026-04-30T16:03:03.001Z</time></trkpt><trkpt lat="43.39853996167985" lon="-3.442506026110459"><ele>4.0</ele><time>2026-04-30T16:03:04.001Z</time></trkpt><trkpt lat="43.39850378158492" lon="-3.4425833138290747"><ele>4.0</ele><time>2026-04-30T16:03:05.001Z</time></trkpt><trkpt lat="43.39846880131223" lon="-3.442657373115106"><ele>4.0</ele><time>2026-04-30T16:03:06.001Z</time></trkpt><trkpt lat="43.398402002772954" lon="-3.4428064063596793"><ele>3.9999999999999996</ele><time>2026-04-30T16:03:08.001Z</time></trkpt><trkpt lat="43.398365199332346" lon="-3.442879012244533"><ele>4.0</ele><time>2026-04-30T16:03:09.001Z</time></trkpt><trkpt lat="43.39833030985179" lon="-3.442953586830237"><ele>4.166666666666666</ele><time>2026-04-30T16:03:10.001Z</time></trkpt><trkpt lat="43.39829725312122" lon="-3.443030217073797"><ele>4.333333333333333</ele><time>2026-04-30T16:03:11.001Z</time></trkpt><trkpt lat="43.398264022577536" lon="-3.443106457614561"><ele>4.5</ele><time>2026-04-30T16:03:12.001Z</time></trkpt><trkpt lat="43.398229635868645" lon="-3.4431843576950985"><ele>4.666666666666667</ele><time>2026-04-30T16:03:13.001Z</time></trkpt><trkpt lat="43.39816374503525" lon="-3.4433298996461064"><ele>4.833333333333334</ele><time>2026-04-30T16:03:15.001Z</time></trkpt><trkpt lat="43.39809702357837" lon="-3.4434702921343705"><ele>5.0</ele><time>2026-04-30T16:03:17.001Z</time></trkpt><trkpt lat="43.39806576930718" lon="-3.4435467968127846"><ele>5.0</ele><time>2026-04-30T16:03:18.001Z</time></trkpt><trkpt lat="43.39803275076136" lon="-3.4436213303317262"><ele>5.0</ele><time>2026-04-30T16:03:19.001Z</time></trkpt><trkpt lat="43.39799925658551" lon="-3.443695486286911"><ele>5.0</ele><time>2026-04-30T16:03:20.001Z</time></trkpt><trkpt lat="43.39793841202643" lon="-3.4438409268487367"><ele>5.0</ele><time>2026-04-30T16:03:22.001Z</time></trkpt><trkpt lat="43.39788043400898" lon="-3.443992391743442"><ele>5.0</ele><time>2026-04-30T16:03:24.001Z</time></trkpt><trkpt lat="43.39785507844497" lon="-3.4440720551972674"><ele>5.0</ele><time>2026-04-30T16:03:25.001Z</time></trkpt><trkpt lat="43.39779705886499" lon="-3.4442048588608434"><ele>4.8</ele><time>2026-04-30T16:03:27.001Z</time></trkpt><trkpt lat="43.39772939278959" lon="-3.444309995969374"><ele>4.6</ele><time>2026-04-30T16:03:29.001Z</time></trkpt><trkpt lat="43.3976691259007" lon="-3.4444355918186425"><ele>4.4</ele><time>2026-04-30T16:03:31.001Z</time></trkpt><trkpt lat="43.39760606620016" lon="-3.444563477977478"><ele>4.2</ele><time>2026-04-30T16:03:33.001Z</time></trkpt><trkpt lat="43.397549577966906" lon="-3.4446997036402176"><ele>4.0</ele><time>2026-04-30T16:03:35.001Z</time></trkpt><trkpt lat="43.39748967042456" lon="-3.444835121294909"><ele>4.5</ele><time>2026-04-30T16:03:37.001Z</time></trkpt><trkpt lat="43.39742396682821" lon="-3.4449631012535002"><ele>5.0</ele><time>2026-04-30T16:03:39.001Z</time></trkpt><trkpt lat="43.39736270672189" lon="-3.445095915760411"><ele>5.5</ele><time>2026-04-30T16:03:41.001Z</time></trkpt><trkpt lat="43.397298128779944" lon="-3.4452355709210676"><ele>6.0</ele><time>2026-04-30T16:03:43.002Z</time></trkpt><trkpt lat="43.397233383546244" lon="-3.445382161006174"><ele>6.0</ele><time>2026-04-30T16:03:45.002Z</time></trkpt><trkpt lat="43.39719680922062" lon="-3.4454603873185583"><ele>6.0</ele><time>2026-04-30T16:03:46.002Z</time></trkpt><trkpt lat="43.397162262052255" lon="-3.4455376022754542"><ele>6.0</ele><time>2026-04-30T16:03:47.002Z</time></trkpt><trkpt lat="43.3970973114379" lon="-3.445683794079102"><ele>6.0</ele><time>2026-04-30T16:03:49.002Z</time></trkpt><trkpt lat="43.39700671512022" lon="-3.4458596259608405"><ele>6.0</ele><time>2026-04-30T16:03:51.002Z</time></trkpt><trkpt lat="43.396969131708644" lon="-3.4459372900266656"><ele>5.857142857142857</ele><time>2026-04-30T16:03:52.002Z</time></trkpt><trkpt lat="43.39693303288523" lon="-3.446016522076938"><ele>5.714285714285714</ele><time>2026-04-30T16:03:53.002Z</time></trkpt><trkpt lat="43.39689774715524" lon="-3.446094938562053"><ele>5.571428571428571</ele><time>2026-04-30T16:03:54.002Z</time></trkpt><trkpt lat="43.396859501939254" lon="-3.4461750226351793"><ele>5.428571428571429</ele><time>2026-04-30T16:03:55.002Z</time></trkpt><trkpt lat="43.39682165931725" lon="-3.4462519264957145"><ele>5.285714285714286</ele><time>2026-04-30T16:03:56.002Z</time></trkpt><trkpt lat="43.396784188415104" lon="-3.4463315300962383"><ele>5.142857142857142</ele><time>2026-04-30T16:03:57.002Z</time></trkpt><trkpt lat="43.39674555120653" lon="-3.4464095102802266"><ele>5.0</ele><time>2026-04-30T16:03:58.002Z</time></trkpt><trkpt lat="43.39670872217097" lon="-3.4464899246455847"><ele>5.0</ele><time>2026-04-30T16:03:59.002Z</time></trkpt><trkpt lat="43.39667552343976" lon="-3.4465740252437733"><ele>5.0</ele><time>2026-04-30T16:04:00.002Z</time></trkpt><trkpt lat="43.39663715603425" lon="-3.4466560947355704"><ele>5.0</ele><time>2026-04-30T16:04:01.002Z</time></trkpt><trkpt lat="43.39659753283673" lon="-3.44674069167309"><ele>5.0</ele><time>2026-04-30T16:04:02.002Z</time></trkpt><trkpt lat="43.396559941081954" lon="-3.4468225819480915"><ele>5.0</ele><time>2026-04-30T16:04:03.002Z</time></trkpt><trkpt lat="43.39651963432858" lon="-3.4469009844601715"><ele>5.0</ele><time>2026-04-30T16:04:04.002Z</time></trkpt><trkpt lat="43.39648119365804" lon="-3.44698480520744"><ele>5.0</ele><time>2026-04-30T16:04:05.002Z</time></trkpt><trkpt lat="43.396441026772465" lon="-3.44706955313373"><ele>5.666666666666667</ele><time>2026-04-30T16:04:06.002Z</time></trkpt><trkpt lat="43.39640319170959" lon="-3.447153242038773"><ele>6.333333333333334</ele><time>2026-04-30T16:04:07.002Z</time></trkpt><trkpt lat="43.396366718566476" lon="-3.4472353216920024"><ele>7.0</ele><time>2026-04-30T16:04:08.002Z</time></trkpt><trkpt lat="43.3963356072489" lon="-3.4473160844287767"><ele>7.666666666666667</ele><time>2026-04-30T16:04:09.002Z</time></trkpt><trkpt lat="43.396301775065936" lon="-3.44739195900438"><ele>8.333333333333334</ele><time>2026-04-30T16:04:10.002Z</time></trkpt><trkpt lat="43.39625528047533" lon="-3.4475355564549184"><ele>9.0</ele><time>2026-04-30T16:04:12.002Z</time></trkpt><trkpt lat="43.396182795638836" lon="-3.4476512521782667"><ele>9.0</ele><time>2026-04-30T16:04:14.002Z</time></trkpt><trkpt lat="43.396141764449396" lon="-3.4477626345341954"><ele>9.0</ele><time>2026-04-30T16:04:16.002Z</time></trkpt><trkpt lat="43.39609176585807" lon="-3.4478816552461917"><ele>9.0</ele><time>2026-04-30T16:04:18.002Z</time></trkpt><trkpt lat="43.39603261774203" lon="-3.4480066694658014"><ele>9.0</ele><time>2026-04-30T16:04:20.002Z</time></trkpt><trkpt lat="43.39597722167871" lon="-3.4481339175111874"><ele>9.0</ele><time>2026-04-30T16:04:22.002Z</time></trkpt><trkpt lat="43.39591938631869" lon="-3.4482502983348273"><ele>9.0</ele><time>2026-04-30T16:04:24Z</time></trkpt><trkpt lat="43.395859152471424" lon="-3.4483672031069488"><ele>9.0</ele><time>2026-04-30T16:04:26Z</time></trkpt><trkpt lat="43.395792700495115" lon="-3.448497111097196"><ele>9.0</ele><time>2026-04-30T16:04:28Z</time></trkpt><trkpt lat="43.39576206187456" lon="-3.448573615834087"><ele>9.0</ele><time>2026-04-30T16:04:28.999Z</time></trkpt><trkpt lat="43.395690567125854" lon="-3.448713271309607"><ele>9.0</ele><time>2026-04-30T16:04:31Z</time></trkpt><trkpt lat="43.39563206775993" lon="-3.448849892985438"><ele>8.666666666666666</ele><time>2026-04-30T16:04:32.999Z</time></trkpt><trkpt lat="43.39557730667132" lon="-3.4489605131901375"><ele>8.333333333333334</ele><time>2026-04-30T16:04:34.999Z</time></trkpt><trkpt lat="43.39553376314004" lon="-3.4490385883425945"><ele>8.0</ele><time>2026-04-30T16:04:37Z</time></trkpt><trkpt lat="43.395500362386244" lon="-3.4491279326411397"><ele>7.666666666666667</ele><time>2026-04-30T16:04:39Z</time></trkpt><trkpt lat="43.39546084202949" lon="-3.4492153905885647"><ele>7.333333333333334</ele><time>2026-04-30T16:04:41Z</time></trkpt><trkpt lat="43.39542696228528" lon="-3.4493427566731047"><ele>7.0</ele><time>2026-04-30T16:04:43Z</time></trkpt><trkpt lat="43.39539603025494" lon="-3.449461222198508"><ele>6.833333333333334</ele><time>2026-04-30T16:04:45Z</time></trkpt><trkpt lat="43.39537789058238" lon="-3.449583645672331"><ele>6.666666666666667</ele><time>2026-04-30T16:04:47Z</time></trkpt><trkpt lat="43.395362409114526" lon="-3.449712807687661"><ele>6.5</ele><time>2026-04-30T16:04:49Z</time></trkpt><trkpt lat="43.395354242987466" lon="-3.449826007923441"><ele>6.333333333333334</ele><time>2026-04-30T16:04:51Z</time></trkpt><trkpt lat="43.395352809405885" lon="-3.449926561394462"><ele>6.166666666666667</ele><time>2026-04-30T16:04:54Z</time></trkpt><trkpt lat="43.39533810159669" lon="-3.450015797301256"><ele>6.0</ele><time>2026-04-30T16:05:20Z</time></trkpt><trkpt lat="43.39533635362358" lon="-3.4501380032660336"><ele>6.75</ele><time>2026-04-30T16:05:23Z</time></trkpt><trkpt lat="43.39533105622801" lon="-3.4502508335590605"><ele>7.5</ele><time>2026-04-30T16:05:25Z</time></trkpt><trkpt lat="43.395330396128415" lon="-3.4503965882506105"><ele>8.25</ele><time>2026-04-30T16:05:27.001Z</time></trkpt><trkpt lat="43.395323385947485" lon="-3.450567259282648"><ele>9.0</ele><time>2026-04-30T16:05:29.001Z</time></trkpt><trkpt lat="43.3953078223432" lon="-3.4507586245073583"><ele>8.666666666666666</ele><time>2026-04-30T16:05:31.001Z</time></trkpt><trkpt lat="43.39530215596008" lon="-3.450854852696661"><ele>8.333333333333334</ele><time>2026-04-30T16:05:32.001Z</time></trkpt><trkpt lat="43.39528969058267" lon="-3.4510381310925746"><ele>8.0</ele><time>2026-04-30T16:05:34.001Z</time></trkpt><trkpt lat="43.39527936339161" lon="-3.4511477728905815"><ele>7.666666666666667</ele><time>2026-04-30T16:05:35.001Z</time></trkpt><trkpt lat="43.395265299343876" lon="-3.451252084909696"><ele>7.333333333333334</ele><time>2026-04-30T16:05:36.001Z</time></trkpt><trkpt lat="43.39524959806809" lon="-3.4513603846922623"><ele>7.0</ele><time>2026-04-30T16:05:37.001Z</time></trkpt><trkpt lat="43.3952348407431" lon="-3.45146806994231"><ele>7.000000000000001</ele><time>2026-04-30T16:05:38.001Z</time></trkpt><trkpt lat="43.39521166031994" lon="-3.4515734605748567"><ele>7.0</ele><time>2026-04-30T16:05:39.001Z</time></trkpt><trkpt lat="43.39519255363238" lon="-3.451679213579184"><ele>7.0</ele><time>2026-04-30T16:05:40.001Z</time></trkpt><trkpt lat="43.39517429547439" lon="-3.4517838586028633"><ele>7.0</ele><time>2026-04-30T16:05:41.001Z</time></trkpt><trkpt lat="43.395151583355045" lon="-3.4518878908940622"><ele>7.000000000000001</ele><time>2026-04-30T16:05:42.001Z</time></trkpt><trkpt lat="43.39513099963258" lon="-3.4519906687555952"><ele>7.0</ele><time>2026-04-30T16:05:43.001Z</time></trkpt><trkpt lat="43.39510609362866" lon="-3.452088836251566"><ele>6.833333333333334</ele><time>2026-04-30T16:05:44.001Z</time></trkpt><trkpt lat="43.39508051506544" lon="-3.4521956939446286"><ele>6.666666666666667</ele><time>2026-04-30T16:05:45.001Z</time></trkpt><trkpt lat="43.395055027725576" lon="-3.452304697321777"><ele>6.5</ele><time>2026-04-30T16:05:46.001Z</time></trkpt><trkpt lat="43.39503274775602" lon="-3.4524142626405254"><ele>6.333333333333334</ele><time>2026-04-30T16:05:47.001Z</time></trkpt><trkpt lat="43.39501387456646" lon="-3.4525204861285124"><ele>6.166666666666667</ele><time>2026-04-30T16:05:48.001Z</time></trkpt><trkpt lat="43.394989954250775" lon="-3.452627470575766"><ele>6.0</ele><time>2026-04-30T16:05:49.001Z</time></trkpt><trkpt lat="43.394966639894676" lon="-3.452734660250199"><ele>6.0</ele><time>2026-04-30T16:05:50.001Z</time></trkpt><trkpt lat="43.39493735725578" lon="-3.452840907615474"><ele>6.0</ele><time>2026-04-30T16:05:51.001Z</time></trkpt><trkpt lat="43.39490985701292" lon="-3.4529442948461013"><ele>6.0</ele><time>2026-04-30T16:05:52.001Z</time></trkpt><trkpt lat="43.39487787299674" lon="-3.453050433399043"><ele>6.0</ele><time>2026-04-30T16:05:53.001Z</time></trkpt><trkpt lat="43.39484805548241" lon="-3.453150719600794"><ele>6.0</ele><time>2026-04-30T16:05:54.001Z</time></trkpt><trkpt lat="43.39482300260171" lon="-3.4532554102851734"><ele>6.0</ele><time>2026-04-30T16:05:55.001Z</time></trkpt><trkpt lat="43.394787765900254" lon="-3.453354643442168"><ele>6.0</ele><time>2026-04-30T16:05:56.001Z</time></trkpt><trkpt lat="43.39475654412057" lon="-3.4534562836935443"><ele>6.0</ele><time>2026-04-30T16:05:57.001Z</time></trkpt><trkpt lat="43.394728675246576" lon="-3.453559804604814"><ele>6.0</ele><time>2026-04-30T16:05:58.001Z</time></trkpt><trkpt lat="43.394698523716336" lon="-3.4536644688699556"><ele>6.0</ele><time>2026-04-30T16:05:59.001Z</time></trkpt><trkpt lat="43.3946654467805" lon="-3.453767363930183"><ele>6.0</ele><time>2026-04-30T16:06:00.001Z</time></trkpt><trkpt lat="43.39462993687081" lon="-3.453872458162652"><ele>6.0</ele><time>2026-04-30T16:06:01.001Z</time></trkpt><trkpt lat="43.39459865219619" lon="-3.4539833008335825"><ele>6.0</ele><time>2026-04-30T16:06:02.001Z</time></trkpt><trkpt lat="43.39456863272754" lon="-3.4540867363650696"><ele>6.0</ele><time>2026-04-30T16:06:03.001Z</time></trkpt><trkpt lat="43.39453653077229" lon="-3.45419620219781"><ele>6.0</ele><time>2026-04-30T16:06:04.001Z</time></trkpt><trkpt lat="43.3945022275384" lon="-3.4542956759736967"><ele>6.0</ele><time>2026-04-30T16:06:05.001Z</time></trkpt><trkpt lat="43.39448219964265" lon="-3.454405682285706"><ele>6.0</ele><time>2026-04-30T16:06:06.001Z</time></trkpt><trkpt lat="43.39446820302579" lon="-3.4545148589013555"><ele>6.0</ele><time>2026-04-30T16:06:07.001Z</time></trkpt><trkpt lat="43.39445585398026" lon="-3.4546275183845743"><ele>6.166666666666667</ele><time>2026-04-30T16:06:08.001Z</time></trkpt><trkpt lat="43.394449193090516" lon="-3.4547412356485014"><ele>6.333333333333334</ele><time>2026-04-30T16:06:09.001Z</time></trkpt><trkpt lat="43.394443430218416" lon="-3.4548537494989224"><ele>6.5</ele><time>2026-04-30T16:06:10.001Z</time></trkpt><trkpt lat="43.39444082036013" lon="-3.4549668432575404"><ele>6.666666666666667</ele><time>2026-04-30T16:06:11.001Z</time></trkpt><trkpt lat="43.39444512332803" lon="-3.4550825678948143"><ele>6.833333333333334</ele><time>2026-04-30T16:06:12.001Z</time></trkpt><trkpt lat="43.39445323159648" lon="-3.4551937732939604"><ele>7.0</ele><time>2026-04-30T16:06:13.001Z</time></trkpt><trkpt lat="43.394464516052864" lon="-3.455307741918126"><ele>7.000000000000001</ele><time>2026-04-30T16:06:14.001Z</time></trkpt><trkpt lat="43.3944780117778" lon="-3.4554233449534113"><ele>7.0</ele><time>2026-04-30T16:06:15.001Z</time></trkpt><trkpt lat="43.39449591374641" lon="-3.455532012549594"><ele>7.0</ele><time>2026-04-30T16:06:16.001Z</time></trkpt><trkpt lat="43.39452253169447" lon="-3.455648033044611"><ele>7.0</ele><time>2026-04-30T16:06:17.001Z</time></trkpt><trkpt lat="43.394560146652715" lon="-3.455759616469051"><ele>7.000000000000001</ele><time>2026-04-30T16:06:18.001Z</time></trkpt><trkpt lat="43.39459454563446" lon="-3.455863280556052"><ele>7.0</ele><time>2026-04-30T16:06:19.001Z</time></trkpt><trkpt lat="43.39462853260742" lon="-3.455971768994469"><ele>6.833333333333334</ele><time>2026-04-30T16:06:20.001Z</time></trkpt><trkpt lat="43.3946674194744" lon="-3.456079511795061"><ele>6.666666666666667</ele><time>2026-04-30T16:06:21.001Z</time></trkpt><trkpt lat="43.39469865447395" lon="-3.4561921668582647"><ele>6.5</ele><time>2026-04-30T16:06:22.001Z</time></trkpt><trkpt lat="43.3947315507448" lon="-3.456302450531954"><ele>6.333333333333334</ele><time>2026-04-30T16:06:23.001Z</time></trkpt><trkpt lat="43.394767588684566" lon="-3.4564099789989102"><ele>6.166666666666667</ele><time>2026-04-30T16:06:24.001Z</time></trkpt><trkpt lat="43.39479973263366" lon="-3.456516482682559"><ele>6.0</ele><time>2026-04-30T16:06:25.001Z</time></trkpt><trkpt lat="43.39482632425924" lon="-3.456621792864317"><ele>6.0</ele><time>2026-04-30T16:06:26.001Z</time></trkpt><trkpt lat="43.394849678730274" lon="-3.45672562193602"><ele>6.0</ele><time>2026-04-30T16:06:27.001Z</time></trkpt><trkpt lat="43.39486282980672" lon="-3.4568403582994636"><ele>6.0</ele><time>2026-04-30T16:06:28.001Z</time></trkpt><trkpt lat="43.394866571459886" lon="-3.456955417839767"><ele>6.0</ele><time>2026-04-30T16:06:28.999Z</time></trkpt><trkpt lat="43.39486799966638" lon="-3.4570701472946976"><ele>6.0</ele><time>2026-04-30T16:06:29.999Z</time></trkpt><trkpt lat="43.39486718055117" lon="-3.4571794604688595"><ele>6.0</ele><time>2026-04-30T16:06:30.999Z</time></trkpt><trkpt lat="43.39485374630564" lon="-3.4572706480816984"><ele>5.8</ele><time>2026-04-30T16:06:31.999Z</time></trkpt><trkpt lat="43.39483292927779" lon="-3.4574966149900783"><ele>5.6</ele><time>2026-04-30T16:06:33.999Z</time></trkpt><trkpt lat="43.39479758915122" lon="-3.457573271258102"><ele>5.4</ele><time>2026-04-30T16:06:34.999Z</time></trkpt><trkpt lat="43.39478788871152" lon="-3.4576814720852065"><ele>5.2</ele><time>2026-04-30T16:06:35.999Z</time></trkpt><trkpt lat="43.394761043771176" lon="-3.457840210659642"><ele>5.0</ele><time>2026-04-30T16:06:37.999Z</time></trkpt><trkpt lat="43.39470258251401" lon="-3.457941222855307"><ele>4.8</ele><time>2026-04-30T16:06:39.999Z</time></trkpt><trkpt lat="43.39458643580664" lon="-3.4578520768964047"><ele>4.6</ele><time>2026-04-30T16:06:42.999Z</time></trkpt><trkpt lat="43.39451520603203" lon="-3.457783553815313"><ele>4.4</ele><time>2026-04-30T16:06:44.999Z</time></trkpt><trkpt lat="43.39445020165872" lon="-3.457767455683714"><ele>4.2</ele><time>2026-04-30T16:06:46.999Z</time></trkpt><trkpt lat="43.39437675953806" lon="-3.457783223767095"><ele>4.0</ele><time>2026-04-30T16:06:49.999Z</time></trkpt><trkpt lat="43.394485638692515" lon="-3.457787985221545"><ele>4.0</ele><time>2026-04-30T16:07:02Z</time></trkpt><trkpt lat="43.39454512368573" lon="-3.4577587358927766"><ele>4.0</ele><time>2026-04-30T16:07:03Z</time></trkpt><trkpt lat="43.394653193624706" lon="-3.4577580562522643"><ele>4.0</ele><time>2026-04-30T16:07:05Z</time></trkpt><trkpt lat="43.394737783226546" lon="-3.457848503234684"><ele>4.0</ele><time>2026-04-30T16:07:07Z</time></trkpt><trkpt lat="43.394728760792745" lon="-3.4579853798913107"><ele>4.0</ele><time>2026-04-30T16:07:09Z</time></trkpt><trkpt lat="43.39468843245348" lon="-3.4581345190863613"><ele>4.0</ele><time>2026-04-30T16:07:11Z</time></trkpt><trkpt lat="43.39466446123898" lon="-3.45829269406462"><ele>4.0</ele><time>2026-04-30T16:07:13Z</time></trkpt><trkpt lat="43.394632598533974" lon="-3.4584819054934326"><ele>4.0</ele><time>2026-04-30T16:07:15Z</time></trkpt><trkpt lat="43.39461233311157" lon="-3.458583634173693"><ele>4.0</ele><time>2026-04-30T16:07:16Z</time></trkpt><trkpt lat="43.39459105688148" lon="-3.458686202932621"><ele>4.0</ele><time>2026-04-30T16:07:17Z</time></trkpt><trkpt lat="43.39456766544446" lon="-3.4587929963601525"><ele>3.9999999999999996</ele><time>2026-04-30T16:07:18Z</time></trkpt><trkpt lat="43.39454452443949" lon="-3.458901320075679"><ele>4.0</ele><time>2026-04-30T16:07:19Z</time></trkpt><trkpt lat="43.39452129168163" lon="-3.459014483994014"><ele>4.0</ele><time>2026-04-30T16:07:20Z</time></trkpt><trkpt lat="43.394499235061176" lon="-3.4591280737629995"><ele>4.0</ele><time>2026-04-30T16:07:21Z</time></trkpt><trkpt lat="43.39447828961696" lon="-3.459241657981002"><ele>3.9999999999999996</ele><time>2026-04-30T16:07:22Z</time></trkpt><trkpt lat="43.394455088880335" lon="-3.4593581590252147"><ele>4.0</ele><time>2026-04-30T16:07:23Z</time></trkpt><trkpt lat="43.39442899687174" lon="-3.4594780170806185"><ele>4.0</ele><time>2026-04-30T16:07:24Z</time></trkpt><trkpt lat="43.39440629986731" lon="-3.459598906772851"><ele>4.0</ele><time>2026-04-30T16:07:25Z</time></trkpt><trkpt lat="43.39438406322423" lon="-3.4597205934669573"><ele>4.0</ele><time>2026-04-30T16:07:26Z</time></trkpt><trkpt lat="43.39435870815938" lon="-3.4598436283634393"><ele>4.0</ele><time>2026-04-30T16:07:27Z</time></trkpt><trkpt lat="43.394333932471014" lon="-3.4599712871094375"><ele>4.0</ele><time>2026-04-30T16:07:28Z</time></trkpt><trkpt lat="43.3943096299019" lon="-3.4600961144473237"><ele>4.2</ele><time>2026-04-30T16:07:29Z</time></trkpt><trkpt lat="43.394284922868145" lon="-3.4602193259851206"><ele>4.4</ele><time>2026-04-30T16:07:30Z</time></trkpt><trkpt lat="43.39425931001202" lon="-3.460346799014538"><ele>4.6</ele><time>2026-04-30T16:07:31Z</time></trkpt><trkpt lat="43.394233071656856" lon="-3.4604749933076793"><ele>4.8</ele><time>2026-04-30T16:07:32Z</time></trkpt><trkpt lat="43.39420696438547" lon="-3.4606043332309935"><ele>5.0</ele><time>2026-04-30T16:07:33Z</time></trkpt><trkpt lat="43.39418181880177" lon="-3.4607349123724136"><ele>5.0</ele><time>2026-04-30T16:07:34Z</time></trkpt><trkpt lat="43.39415829608347" lon="-3.4608659748517914"><ele>5.0</ele><time>2026-04-30T16:07:35Z</time></trkpt><trkpt lat="43.394132514110595" lon="-3.4609944126197187"><ele>5.0</ele><time>2026-04-30T16:07:36Z</time></trkpt><trkpt lat="43.39410621480221" lon="-3.461123477517916"><ele>5.0</ele><time>2026-04-30T16:07:37Z</time></trkpt><trkpt lat="43.39407913976054" lon="-3.461249277719418"><ele>5.0</ele><time>2026-04-30T16:07:38Z</time></trkpt><trkpt lat="43.394053481521965" lon="-3.461376666804074"><ele>4.6</ele><time>2026-04-30T16:07:39Z</time></trkpt><trkpt lat="43.39402877470164" lon="-3.4615019542554566"><ele>4.2</ele><time>2026-04-30T16:07:40Z</time></trkpt><trkpt lat="43.394004883092144" lon="-3.4616266328234073"><ele>3.8</ele><time>2026-04-30T16:07:41.001Z</time></trkpt><trkpt lat="43.393979617534924" lon="-3.4617586057861756"><ele>3.4</ele><time>2026-04-30T16:07:42.001Z</time></trkpt><trkpt lat="43.39395214532498" lon="-3.461890727277076"><ele>3.0</ele><time>2026-04-30T16:07:43.001Z</time></trkpt><trkpt lat="43.39392778517991" lon="-3.462018911498268"><ele>3.2</ele><time>2026-04-30T16:07:44.001Z</time></trkpt><trkpt lat="43.39390016096072" lon="-3.462154233638699"><ele>3.4</ele><time>2026-04-30T16:07:45.001Z</time></trkpt><trkpt lat="43.39387377235504" lon="-3.462286792571225"><ele>3.6000000000000005</ele><time>2026-04-30T16:07:46.001Z</time></trkpt><trkpt lat="43.393849081060175" lon="-3.462419767724051"><ele>3.8000000000000003</ele><time>2026-04-30T16:07:47.001Z</time></trkpt><trkpt lat="43.39382442324137" lon="-3.4625533057016735"><ele>4.0</ele><time>2026-04-30T16:07:48.001Z</time></trkpt><trkpt lat="43.39380048372368" lon="-3.462683181986335"><ele>4.0</ele><time>2026-04-30T16:07:49.001Z</time></trkpt><trkpt lat="43.39377411222931" lon="-3.462817036386358"><ele>4.0</ele><time>2026-04-30T16:07:50.001Z</time></trkpt><trkpt lat="43.393746827776575" lon="-3.462949102017579"><ele>4.0</ele><time>2026-04-30T16:07:51.001Z</time></trkpt><trkpt lat="43.39372152048779" lon="-3.4630787697685146"><ele>4.0</ele><time>2026-04-30T16:07:52.001Z</time></trkpt><trkpt lat="43.39369695463344" lon="-3.4632086904678183"><ele>4.0</ele><time>2026-04-30T16:07:53.001Z</time></trkpt><trkpt lat="43.39367165097472" lon="-3.4633394703746383"><ele>3.333333333333333</ele><time>2026-04-30T16:07:54.001Z</time></trkpt><trkpt lat="43.393647874628925" lon="-3.46346230857511"><ele>2.6666666666666665</ele><time>2026-04-30T16:07:55.001Z</time></trkpt><trkpt lat="43.39362620963505" lon="-3.4635747819572367"><ele>2.0</ele><time>2026-04-30T16:07:56.001Z</time></trkpt><trkpt lat="43.39360756417921" lon="-3.4636688837812946"><ele>1.3333333333333333</ele><time>2026-04-30T16:07:57.001Z</time></trkpt><trkpt lat="43.39358004941754" lon="-3.46381695673989"><ele>0.6666666666666666</ele><time>2026-04-30T16:07:59.001Z</time></trkpt><trkpt lat="43.39356106574092" lon="-3.4639116027485235"><ele>0.0</ele><time>2026-04-30T16:08:01.001Z</time></trkpt><trkpt lat="43.393532562967536" lon="-3.4640443679045663"><ele>0.0</ele><time>2026-04-30T16:08:04.001Z</time></trkpt><trkpt lat="43.39350113204041" lon="-3.4641838179129425"><ele>0.0</ele><time>2026-04-30T16:08:06.001Z</time></trkpt><trkpt lat="43.39348820470814" lon="-3.4642698890245276"><ele>0.0</ele><time>2026-04-30T16:08:07.001Z</time></trkpt><trkpt lat="43.3934717971394" lon="-3.4643575636610993"><ele>0.0</ele><time>2026-04-30T16:08:08.001Z</time></trkpt><trkpt lat="43.393448405699296" lon="-3.4644458187695832"><ele>0.0</ele><time>2026-04-30T16:08:09.001Z</time></trkpt><trkpt lat="43.39342474466362" lon="-3.464542127185099"><ele>0.0</ele><time>2026-04-30T16:08:10.001Z</time></trkpt><trkpt lat="43.39340804113899" lon="-3.4646482931116824"><ele>0.0</ele><time>2026-04-30T16:08:11.001Z</time></trkpt><trkpt lat="43.39339030423143" lon="-3.4647584904169086"><ele>0.0</ele><time>2026-04-30T16:08:12.001Z</time></trkpt><trkpt lat="43.39336687664479" lon="-3.464851876955625"><ele>0.0</ele><time>2026-04-30T16:08:13.001Z</time></trkpt><trkpt lat="43.393341718483086" lon="-3.4649564264501214"><ele>0.0</ele><time>2026-04-30T16:08:14.001Z</time></trkpt><trkpt lat="43.393323348561054" lon="-3.4650564052983457"><ele>0.0</ele><time>2026-04-30T16:08:15.001Z</time></trkpt><trkpt lat="43.39330743733773" lon="-3.465163883132495"><ele>0.0</ele><time>2026-04-30T16:08:16.001Z</time></trkpt><trkpt lat="43.39327996101321" lon="-3.4652722811450074"><ele>0.0</ele><time>2026-04-30T16:08:17.001Z</time></trkpt><trkpt lat="43.39325699473487" lon="-3.46538133389721"><ele>0.0</ele><time>2026-04-30T16:08:18.001Z</time></trkpt><trkpt lat="43.39323668594116" lon="-3.4654926354401416"><ele>0.0</ele><time>2026-04-30T16:08:19.001Z</time></trkpt><trkpt lat="43.39321513364292" lon="-3.4656011521846493"><ele>0.0</ele><time>2026-04-30T16:08:20.001Z</time></trkpt><trkpt lat="43.393191728768336" lon="-3.4657083461807"><ele>0.0</ele><time>2026-04-30T16:08:21.001Z</time></trkpt><trkpt lat="43.393173046768695" lon="-3.4658118480521205"><ele>0.0</ele><time>2026-04-30T16:08:22.001Z</time></trkpt><trkpt lat="43.393160236362384" lon="-3.4659014747751784"><ele>0.16666666666666666</ele><time>2026-04-30T16:08:23.001Z</time></trkpt><trkpt lat="43.39312645454951" lon="-3.466074412381984"><ele>0.3333333333333333</ele><time>2026-04-30T16:08:25.001Z</time></trkpt><trkpt lat="43.39310959970131" lon="-3.4661668612923027"><ele>0.5</ele><time>2026-04-30T16:08:26.001Z</time></trkpt><trkpt lat="43.3931065645546" lon="-3.466258681647161"><ele>0.6666666666666666</ele><time>2026-04-30T16:08:27.001Z</time></trkpt><trkpt lat="43.393123206726436" lon="-3.4663511087824754"><ele>0.8333333333333333</ele><time>2026-04-30T16:08:28.001Z</time></trkpt><trkpt lat="43.39315748604134" lon="-3.4664389251543932"><ele>1.0</ele><time>2026-04-30T16:08:29.001Z</time></trkpt><trkpt lat="43.39319388866035" lon="-3.4665337115084522"><ele>1.8333333333333333</ele><time>2026-04-30T16:08:30.001Z</time></trkpt><trkpt lat="43.3932108402563" lon="-3.4666236248778297"><ele>2.6666666666666665</ele><time>2026-04-30T16:08:31.001Z</time></trkpt><trkpt lat="43.39320603285814" lon="-3.4667345156588047"><ele>3.5</ele><time>2026-04-30T16:08:32.001Z</time></trkpt><trkpt lat="43.393228715871665" lon="-3.4668265327038257"><ele>4.333333333333333</ele><time>2026-04-30T16:08:33.001Z</time></trkpt><trkpt lat="43.39313843107431" lon="-3.4669481165345277"><ele>5.166666666666667</ele><time>2026-04-30T16:08:34.002Z</time></trkpt><trkpt lat="43.393104603000516" lon="-3.467054870251075"><ele>6.0</ele><time>2026-04-30T16:08:34.999Z</time></trkpt><trkpt lat="43.393081518940335" lon="-3.467164486680481"><ele>6.333333333333333</ele><time>2026-04-30T16:08:35.999Z</time></trkpt><trkpt lat="43.39307821114981" lon="-3.4672712145274938"><ele>6.666666666666666</ele><time>2026-04-30T16:08:36.999Z</time></trkpt><trkpt lat="43.39308952040834" lon="-3.4673796961282077"><ele>7.0</ele><time>2026-04-30T16:08:37.999Z</time></trkpt><trkpt lat="43.39311388583308" lon="-3.4674821708832804"><ele>7.333333333333333</ele><time>2026-04-30T16:08:38.999Z</time></trkpt><trkpt lat="43.39313528085599" lon="-3.467585129037882"><ele>7.666666666666666</ele><time>2026-04-30T16:08:39.999Z</time></trkpt><trkpt lat="43.39315789162572" lon="-3.4676828612096338"><ele>8.0</ele><time>2026-04-30T16:08:40.999Z</time></trkpt><trkpt lat="43.39317778340745" lon="-3.4677831291044057"><ele>7.999999999999999</ele><time>2026-04-30T16:08:41.999Z</time></trkpt><trkpt lat="43.39319794066471" lon="-3.467886760247808"><ele>8.0</ele><time>2026-04-30T16:08:42.999Z</time></trkpt><trkpt lat="43.393213792239955" lon="-3.4679954778766513"><ele>8.0</ele><time>2026-04-30T16:08:43.999Z</time></trkpt><trkpt lat="43.39323347313069" lon="-3.468098751370504"><ele>8.0</ele><time>2026-04-30T16:08:44.999Z</time></trkpt><trkpt lat="43.39325594553306" lon="-3.468203924977603"><ele>7.999999999999999</ele><time>2026-04-30T16:08:45.999Z</time></trkpt><trkpt lat="43.39327764058943" lon="-3.468310090234845"><ele>8.0</ele><time>2026-04-30T16:08:46.999Z</time></trkpt><trkpt lat="43.39329858945177" lon="-3.4684131274297774"><ele>7.999999999999999</ele><time>2026-04-30T16:08:47.999Z</time></trkpt><trkpt lat="43.39331770297338" lon="-3.468518895019865"><ele>8.0</ele><time>2026-04-30T16:08:48.999Z</time></trkpt><trkpt lat="43.39333725093854" lon="-3.4686209012581295"><ele>8.0</ele><time>2026-04-30T16:08:49.999Z</time></trkpt><trkpt lat="43.393356584618" lon="-3.4687247110661965"><ele>8.0</ele><time>2026-04-30T16:08:50.999Z</time></trkpt><trkpt lat="43.39337767659092" lon="-3.468826069384299"><ele>7.999999999999999</ele><time>2026-04-30T16:08:51.999Z</time></trkpt><trkpt lat="43.393399056220424" lon="-3.4689275653884755"><ele>8.0</ele><time>2026-04-30T16:08:52.999Z</time></trkpt><trkpt lat="43.39341857670597" lon="-3.469032085380125"><ele>8.833333333333332</ele><time>2026-04-30T16:08:53.999Z</time></trkpt><trkpt lat="43.39344250098571" lon="-3.4691373991591896"><ele>9.666666666666666</ele><time>2026-04-30T16:08:54.999Z</time></trkpt><trkpt lat="43.39346154301194" lon="-3.469243596644813"><ele>10.5</ele><time>2026-04-30T16:08:55.999Z</time></trkpt><trkpt lat="43.39347992244456" lon="-3.469348497103726"><ele>11.333333333333332</ele><time>2026-04-30T16:08:56.999Z</time></trkpt><trkpt lat="43.39350044242582" lon="-3.4694482086556104"><ele>12.166666666666666</ele><time>2026-04-30T16:08:58Z</time></trkpt><trkpt lat="43.39351774504057" lon="-3.4695532947865746"><ele>13.0</ele><time>2026-04-30T16:08:59Z</time></trkpt><trkpt lat="43.39354155790269" lon="-3.4696550818706413"><ele>14.166666666666666</ele><time>2026-04-30T16:09:00Z</time></trkpt><trkpt lat="43.39357076028541" lon="-3.4697529805595853"><ele>15.333333333333332</ele><time>2026-04-30T16:09:01Z</time></trkpt><trkpt lat="43.39359660453517" lon="-3.469850983131695"><ele>16.5</ele><time>2026-04-30T16:09:02Z</time></trkpt><trkpt lat="43.39362146172166" lon="-3.4699474666904084"><ele>17.666666666666668</ele><time>2026-04-30T16:09:03Z</time></trkpt><trkpt lat="43.393643391641554" lon="-3.4700449155412425"><ele>18.833333333333336</ele><time>2026-04-30T16:09:04Z</time></trkpt><trkpt lat="43.393664427907716" lon="-3.4701461579161497"><ele>20.0</ele><time>2026-04-30T16:09:05Z</time></trkpt><trkpt lat="43.393685569920244" lon="-3.4702426520133938"><ele>20.0</ele><time>2026-04-30T16:09:06Z</time></trkpt><trkpt lat="43.39370464419233" lon="-3.4703437436585483"><ele>20.0</ele><time>2026-04-30T16:09:07Z</time></trkpt><trkpt lat="43.39372535402969" lon="-3.4704397790219246"><ele>20.0</ele><time>2026-04-30T16:09:08Z</time></trkpt><trkpt lat="43.3937480613087" lon="-3.4705412995474365"><ele>20.0</ele><time>2026-04-30T16:09:09Z</time></trkpt><trkpt lat="43.39376809783689" lon="-3.470637867400895"><ele>20.0</ele><time>2026-04-30T16:09:10Z</time></trkpt><trkpt lat="43.3937895588935" lon="-3.47073801909912"><ele>20.0</ele><time>2026-04-30T16:09:11Z</time></trkpt><trkpt lat="43.39380827242242" lon="-3.4708407353371693"><ele>20.666666666666668</ele><time>2026-04-30T16:09:12Z</time></trkpt><trkpt lat="43.39382766905708" lon="-3.470940386211501"><ele>21.333333333333336</ele><time>2026-04-30T16:09:13Z</time></trkpt><trkpt lat="43.3938477967297" lon="-3.4710431546066145"><ele>22.0</ele><time>2026-04-30T16:09:14Z</time></trkpt><trkpt lat="43.393866716470725" lon="-3.4711514828408894"><ele>22.666666666666668</ele><time>2026-04-30T16:09:15Z</time></trkpt><trkpt lat="43.39388883933123" lon="-3.471258715601345"><ele>23.333333333333332</ele><time>2026-04-30T16:09:16Z</time></trkpt><trkpt lat="43.39390801682696" lon="-3.4713731937867593"><ele>24.0</ele><time>2026-04-30T16:09:17Z</time></trkpt><trkpt lat="43.39392850993635" lon="-3.4714859331967105"><ele>24.0</ele><time>2026-04-30T16:09:18Z</time></trkpt><trkpt lat="43.39395030315901" lon="-3.4715999349854982"><ele>24.0</ele><time>2026-04-30T16:09:19Z</time></trkpt><trkpt lat="43.39397213809088" lon="-3.471718504308093"><ele>24.0</ele><time>2026-04-30T16:09:20Z</time></trkpt><trkpt lat="43.393994084272094" lon="-3.4718381082599112"><ele>24.0</ele><time>2026-04-30T16:09:21Z</time></trkpt><trkpt lat="43.39401780092613" lon="-3.4719554462115725"><ele>24.0</ele><time>2026-04-30T16:09:22Z</time></trkpt><trkpt lat="43.39404070222703" lon="-3.4720728278362047"><ele>24.0</ele><time>2026-04-30T16:09:23Z</time></trkpt><trkpt lat="43.39406144732998" lon="-3.47218983103368"><ele>23.999999999999996</ele><time>2026-04-30T16:09:24Z</time></trkpt><trkpt lat="43.39408128451447" lon="-3.4722994994023435"><ele>24.0</ele><time>2026-04-30T16:09:25Z</time></trkpt><trkpt lat="43.394099224768134" lon="-3.4724074323771545"><ele>24.0</ele><time>2026-04-30T16:09:26Z</time></trkpt><trkpt lat="43.39411962089875" lon="-3.4725086684287545"><ele>24.0</ele><time>2026-04-30T16:09:27Z</time></trkpt><trkpt lat="43.39413992400278" lon="-3.472604847613163"><ele>24.0</ele><time>2026-04-30T16:09:28Z</time></trkpt><trkpt lat="43.394161737418884" lon="-3.4726961124788627"><ele>23.999999999999996</ele><time>2026-04-30T16:09:29Z</time></trkpt><trkpt lat="43.39417788022918" lon="-3.4727856071608914"><ele>24.0</ele><time>2026-04-30T16:09:30Z</time></trkpt><trkpt lat="43.394213262141186" lon="-3.4729405791932075"><ele>24.0</ele><time>2026-04-30T16:09:32.001Z</time></trkpt><trkpt lat="43.394245225437224" lon="-3.4730581265917784"><ele>24.0</ele><time>2026-04-30T16:09:34.001Z</time></trkpt><trkpt lat="43.394293819543456" lon="-3.473185771267802"><ele>24.0</ele><time>2026-04-30T16:09:36.001Z</time></trkpt><trkpt lat="43.394335245453476" lon="-3.473337932534348"><ele>24.0</ele><time>2026-04-30T16:09:38.001Z</time></trkpt><trkpt lat="43.39436864534525" lon="-3.4734753834677154"><ele>24.0</ele><time>2026-04-30T16:09:40.001Z</time></trkpt><trkpt lat="43.394409426002426" lon="-3.4736080391294735"><ele>24.0</ele><time>2026-04-30T16:09:42.001Z</time></trkpt><trkpt lat="43.39447022240425" lon="-3.473731334163915"><ele>24.0</ele><time>2026-04-30T16:09:44.001Z</time></trkpt><trkpt lat="43.39453742587095" lon="-3.4738731128262432"><ele>24.0</ele><time>2026-04-30T16:09:46.001Z</time></trkpt><trkpt lat="43.39457507934891" lon="-3.4739471140661697"><ele>24.0</ele><time>2026-04-30T16:09:47.001Z</time></trkpt><trkpt lat="43.39461905161467" lon="-3.47401576029171"><ele>24.0</ele><time>2026-04-30T16:09:48.001Z</time></trkpt><trkpt lat="43.3946676662913" lon="-3.4740842646463768"><ele>24.0</ele><time>2026-04-30T16:09:49.001Z</time></trkpt><trkpt lat="43.39471503112656" lon="-3.474149462717339"><ele>24.166666666666668</ele><time>2026-04-30T16:09:50.001Z</time></trkpt><trkpt lat="43.39476495241629" lon="-3.474208988459063"><ele>24.333333333333336</ele><time>2026-04-30T16:09:51.001Z</time></trkpt><trkpt lat="43.394815392855996" lon="-3.474266380628032"><ele>24.5</ele><time>2026-04-30T16:09:52.001Z</time></trkpt><trkpt lat="43.39486802504783" lon="-3.4743269744523277"><ele>24.666666666666668</ele><time>2026-04-30T16:09:53.001Z</time></trkpt><trkpt lat="43.394930774533755" lon="-3.4743696706480867"><ele>24.833333333333336</ele><time>2026-04-30T16:09:54.001Z</time></trkpt><trkpt lat="43.39504461660731" lon="-3.474438943946679"><ele>25.0</ele><time>2026-04-30T16:09:56.001Z</time></trkpt><trkpt lat="43.39510064977354" lon="-3.4745581354373263"><ele>26.8</ele><time>2026-04-30T16:09:57.001Z</time></trkpt><trkpt lat="43.395188829571744" lon="-3.474663081950793"><ele>28.6</ele><time>2026-04-30T16:09:58.001Z</time></trkpt><trkpt lat="43.39530703943853" lon="-3.4746755858353118"><ele>30.4</ele><time>2026-04-30T16:10:00.001Z</time></trkpt><trkpt lat="43.395380803838215" lon="-3.474703620009204"><ele>32.2</ele><time>2026-04-30T16:10:01.001Z</time></trkpt><trkpt lat="43.39545042926514" lon="-3.47473664762139"><ele>34.0</ele><time>2026-04-30T16:10:02.001Z</time></trkpt><trkpt lat="43.3955248810413" lon="-3.4747667831307156"><ele>34.0</ele><time>2026-04-30T16:10:03.001Z</time></trkpt><trkpt lat="43.39560540971228" lon="-3.474786536600068"><ele>34.0</ele><time>2026-04-30T16:10:04.001Z</time></trkpt><trkpt lat="43.39568836529142" lon="-3.4748070506999826"><ele>34.0</ele><time>2026-04-30T16:10:05.001Z</time></trkpt><trkpt lat="43.39576928858389" lon="-3.4748203624338494"><ele>34.0</ele><time>2026-04-30T16:10:06.001Z</time></trkpt><trkpt lat="43.39584855118599" lon="-3.4748339490231253"><ele>34.0</ele><time>2026-04-30T16:10:07.001Z</time></trkpt><trkpt lat="43.39592886435309" lon="-3.4748452443035114"><ele>34.0</ele><time>2026-04-30T16:10:08.001Z</time></trkpt><trkpt lat="43.39600914430475" lon="-3.474858301411633"><ele>34.0</ele><time>2026-04-30T16:10:09.001Z</time></trkpt><trkpt lat="43.39609063375748" lon="-3.47487153211002"><ele>34.0</ele><time>2026-04-30T16:10:10.001Z</time></trkpt><trkpt lat="43.39617213730272" lon="-3.4748858225102466"><ele>34.0</ele><time>2026-04-30T16:10:11.001Z</time></trkpt><trkpt lat="43.39625839130398" lon="-3.4748995953988584"><ele>34.0</ele><time>2026-04-30T16:10:12.001Z</time></trkpt><trkpt lat="43.396344673739605" lon="-3.4749105307683656"><ele>34.0</ele><time>2026-04-30T16:10:13.001Z</time></trkpt><trkpt lat="43.396426701909384" lon="-3.474934472358712"><ele>34.0</ele><time>2026-04-30T16:10:14.001Z</time></trkpt><trkpt lat="43.39651697571926" lon="-3.4749447195752263"><ele>33.8</ele><time>2026-04-30T16:10:15.001Z</time></trkpt><trkpt lat="43.39660769913113" lon="-3.474959903967467"><ele>33.599999999999994</ele><time>2026-04-30T16:10:16.001Z</time></trkpt><trkpt lat="43.396695876092544" lon="-3.4749821824894447"><ele>33.4</ele><time>2026-04-30T16:10:17.002Z</time></trkpt><trkpt lat="43.396784609412954" lon="-3.475003961067641"><ele>33.199999999999996</ele><time>2026-04-30T16:10:18.002Z</time></trkpt><trkpt lat="43.39687271969286" lon="-3.4750290764223117"><ele>33.0</ele><time>2026-04-30T16:10:19.002Z</time></trkpt><trkpt lat="43.39695866596768" lon="-3.4750624909714083"><ele>33.0</ele><time>2026-04-30T16:10:20.002Z</time></trkpt><trkpt lat="43.39704561154998" lon="-3.475104779116332"><ele>33.0</ele><time>2026-04-30T16:10:21.002Z</time></trkpt><trkpt lat="43.39713263000763" lon="-3.4751518074254206"><ele>33.0</ele><time>2026-04-30T16:10:22.002Z</time></trkpt><trkpt lat="43.39722250054378" lon="-3.4751959933914245"><ele>33.0</ele><time>2026-04-30T16:10:23.002Z</time></trkpt><trkpt lat="43.397311084700185" lon="-3.4752465500863603"><ele>33.0</ele><time>2026-04-30T16:10:24.002Z</time></trkpt><trkpt lat="43.39739924225612" lon="-3.4753082401237134"><ele>32.199999999999996</ele><time>2026-04-30T16:10:25.002Z</time></trkpt><trkpt lat="43.397484553393994" lon="-3.4753722737565136"><ele>31.4</ele><time>2026-04-30T16:10:26.002Z</time></trkpt><trkpt lat="43.397570111883525" lon="-3.4754424880237624"><ele>30.599999999999998</ele><time>2026-04-30T16:10:27.002Z</time></trkpt><trkpt lat="43.397653783537926" lon="-3.475510801749821"><ele>29.799999999999997</ele><time>2026-04-30T16:10:28.002Z</time></trkpt><trkpt lat="43.39773747076627" lon="-3.475591528554696"><ele>29.0</ele><time>2026-04-30T16:10:29.002Z</time></trkpt><trkpt lat="43.39782066465669" lon="-3.475674254765593"><ele>29.0</ele><time>2026-04-30T16:10:30.002Z</time></trkpt><trkpt lat="43.397901968330316" lon="-3.4757666312037943"><ele>29.0</ele><time>2026-04-30T16:10:31.002Z</time></trkpt><trkpt lat="43.39798328729109" lon="-3.4758675029473265"><ele>29.0</ele><time>2026-04-30T16:10:32.002Z</time></trkpt><trkpt lat="43.398065760811875" lon="-3.475964102774956"><ele>29.0</ele><time>2026-04-30T16:10:33.002Z</time></trkpt><trkpt lat="43.39814605237769" lon="-3.476066968106964"><ele>29.0</ele><time>2026-04-30T16:10:34.002Z</time></trkpt><trkpt lat="43.39822594711352" lon="-3.476176881943342"><ele>27.25</ele><time>2026-04-30T16:10:35.002Z</time></trkpt><trkpt lat="43.39830385111965" lon="-3.476290982558458"><ele>25.5</ele><time>2026-04-30T16:10:36.002Z</time></trkpt><trkpt lat="43.39838774361895" lon="-3.4764010803760255"><ele>23.75</ele><time>2026-04-30T16:10:37.002Z</time></trkpt><trkpt lat="43.39846763024212" lon="-3.4765147851412666"><ele>22.0</ele><time>2026-04-30T16:10:38.002Z</time></trkpt><trkpt lat="43.39855073067153" lon="-3.4766278185537822"><ele>22.0</ele><time>2026-04-30T16:10:39.002Z</time></trkpt><trkpt lat="43.39863221934791" lon="-3.4767416190097786"><ele>22.0</ele><time>2026-04-30T16:10:40.002Z</time></trkpt><trkpt lat="43.39871374642771" lon="-3.4768512047687183"><ele>22.0</ele><time>2026-04-30T16:10:40.999Z</time></trkpt><trkpt lat="43.39879742848357" lon="-3.476967341251694"><ele>22.0</ele><time>2026-04-30T16:10:41.999Z</time></trkpt><trkpt lat="43.39888039079159" lon="-3.4770798103252023"><ele>21.0</ele><time>2026-04-30T16:10:42.999Z</time></trkpt><trkpt lat="43.398961798137606" lon="-3.4771898632897704"><ele>20.0</ele><time>2026-04-30T16:10:43.999Z</time></trkpt><trkpt lat="43.399040025354296" lon="-3.4773071795711052"><ele>19.0</ele><time>2026-04-30T16:10:44.999Z</time></trkpt><trkpt lat="43.399120694155435" lon="-3.477420936239341"><ele>18.0</ele><time>2026-04-30T16:10:45.999Z</time></trkpt><trkpt lat="43.39920199508643" lon="-3.4775358355185686"><ele>18.0</ele><time>2026-04-30T16:10:46.999Z</time></trkpt><trkpt lat="43.39928591036837" lon="-3.477648212703511"><ele>18.0</ele><time>2026-04-30T16:10:47.999Z</time></trkpt><trkpt lat="43.399366146248326" lon="-3.4777590881366587"><ele>18.0</ele><time>2026-04-30T16:10:48.999Z</time></trkpt><trkpt lat="43.3994458522676" lon="-3.4778719203407045"><ele>18.0</ele><time>2026-04-30T16:10:49.999Z</time></trkpt><trkpt lat="43.3995240334807" lon="-3.4779879772128197"><ele>18.2</ele><time>2026-04-30T16:10:50.999Z</time></trkpt><trkpt lat="43.399599389085374" lon="-3.4781016706531447"><ele>18.4</ele><time>2026-04-30T16:10:51.999Z</time></trkpt><trkpt lat="43.399676336254075" lon="-3.4782166852296497"><ele>18.599999999999998</ele><time>2026-04-30T16:10:52.999Z</time></trkpt><trkpt lat="43.39975066544287" lon="-3.4783307257774116"><ele>18.8</ele><time>2026-04-30T16:10:53.999Z</time></trkpt><trkpt lat="43.39982443052002" lon="-3.4784411533165205"><ele>19.0</ele><time>2026-04-30T16:10:54.999Z</time></trkpt><trkpt lat="43.399904746038374" lon="-3.4785434589114526"><ele>17.4</ele><time>2026-04-30T16:10:56Z</time></trkpt><trkpt lat="43.3999836046603" lon="-3.4786494736260667"><ele>15.799999999999999</ele><time>2026-04-30T16:10:57Z</time></trkpt><trkpt lat="43.40006331435682" lon="-3.478754886951275"><ele>14.2</ele><time>2026-04-30T16:10:58Z</time></trkpt><trkpt lat="43.40013943845576" lon="-3.4788578125364196"><ele>12.600000000000001</ele><time>2026-04-30T16:10:59Z</time></trkpt><trkpt lat="43.40022084053473" lon="-3.478952742733184"><ele>11.0</ele><time>2026-04-30T16:11:00Z</time></trkpt><trkpt lat="43.40030333484313" lon="-3.479047599613755"><ele>11.0</ele><time>2026-04-30T16:11:01Z</time></trkpt><trkpt lat="43.4003846452929" lon="-3.4791436264102313"><ele>11.0</ele><time>2026-04-30T16:11:02Z</time></trkpt><trkpt lat="43.40046814002966" lon="-3.479234542240259"><ele>11.0</ele><time>2026-04-30T16:11:03Z</time></trkpt><trkpt lat="43.400548135341495" lon="-3.4793256659305487"><ele>11.0</ele><time>2026-04-30T16:11:04Z</time></trkpt><trkpt lat="43.400629956458154" lon="-3.479414298296479"><ele>11.0</ele><time>2026-04-30T16:11:05Z</time></trkpt><trkpt lat="43.400706783473375" lon="-3.479500105682947"><ele>10.166666666666666</ele><time>2026-04-30T16:11:06Z</time></trkpt><trkpt lat="43.40078696610057" lon="-3.479562915099698"><ele>9.333333333333332</ele><time>2026-04-30T16:11:07Z</time></trkpt><trkpt lat="43.40086612985019" lon="-3.4796150586177026"><ele>8.5</ele><time>2026-04-30T16:11:08Z</time></trkpt><trkpt lat="43.40094474363971" lon="-3.4796580456760426"><ele>7.666666666666666</ele><time>2026-04-30T16:11:09Z</time></trkpt><trkpt lat="43.40102187246568" lon="-3.4797001980785622"><ele>6.833333333333333</ele><time>2026-04-30T16:11:10Z</time></trkpt><trkpt lat="43.40109827665612" lon="-3.4797369556699924"><ele>6.0</ele><time>2026-04-30T16:11:11Z</time></trkpt><trkpt lat="43.40117932659188" lon="-3.4797594697344802"><ele>6.0</ele><time>2026-04-30T16:11:12Z</time></trkpt><trkpt lat="43.401262500351756" lon="-3.479756383358376"><ele>6.0</ele><time>2026-04-30T16:11:13Z</time></trkpt><trkpt lat="43.40135175290187" lon="-3.4797498231363324"><ele>6.0</ele><time>2026-04-30T16:11:14Z</time></trkpt><trkpt lat="43.401432045668656" lon="-3.479748065991062"><ele>6.0</ele><time>2026-04-30T16:11:15Z</time></trkpt><trkpt lat="43.40160381119372" lon="-3.479771864974992"><ele>6.0</ele><time>2026-04-30T16:11:17Z</time></trkpt><trkpt lat="43.40169414762167" lon="-3.479773419217459"><ele>6.0</ele><time>2026-04-30T16:11:18Z</time></trkpt><trkpt lat="43.40178552520662" lon="-3.479772806897869"><ele>6.0</ele><time>2026-04-30T16:11:19Z</time></trkpt><trkpt lat="43.401873406271754" lon="-3.479763768835562"><ele>6.0</ele><time>2026-04-30T16:11:20Z</time></trkpt><trkpt lat="43.401961804028716" lon="-3.479748640641543"><ele>6.0</ele><time>2026-04-30T16:11:21Z</time></trkpt><trkpt lat="43.40204789524393" lon="-3.4797269504298893"><ele>6.0</ele><time>2026-04-30T16:11:22Z</time></trkpt><trkpt lat="43.402136969333476" lon="-3.4797050100238516"><ele>6.0</ele><time>2026-04-30T16:11:23Z</time></trkpt><trkpt lat="43.40222821729917" lon="-3.4796742223867416"><ele>5.8</ele><time>2026-04-30T16:11:24Z</time></trkpt><trkpt lat="43.402318511627804" lon="-3.479644850459322"><ele>5.6</ele><time>2026-04-30T16:11:25Z</time></trkpt><trkpt lat="43.40240829775692" lon="-3.4796218775506484"><ele>5.4</ele><time>2026-04-30T16:11:26Z</time></trkpt><trkpt lat="43.40250285800359" lon="-3.4795976605091705"><ele>5.2</ele><time>2026-04-30T16:11:27.001Z</time></trkpt><trkpt lat="43.40259682879924" lon="-3.479581733144136"><ele>5.0</ele><time>2026-04-30T16:11:28.001Z</time></trkpt><trkpt lat="43.40269153638159" lon="-3.479567644930697"><ele>4.8</ele><time>2026-04-30T16:11:29.001Z</time></trkpt><trkpt lat="43.402784440846254" lon="-3.4795634148182093"><ele>4.6</ele><time>2026-04-30T16:11:30.001Z</time></trkpt><trkpt lat="43.40288093155491" lon="-3.4795517629455746"><ele>4.4</ele><time>2026-04-30T16:11:31.001Z</time></trkpt><trkpt lat="43.402980515153075" lon="-3.4795409596237272"><ele>4.2</ele><time>2026-04-30T16:11:32.001Z</time></trkpt><trkpt lat="43.40307556662431" lon="-3.4795403119028543"><ele>4.0</ele><time>2026-04-30T16:11:33.001Z</time></trkpt><trkpt lat="43.40317313312118" lon="-3.4795356188353184"><ele>4.0</ele><time>2026-04-30T16:11:34.001Z</time></trkpt><trkpt lat="43.4032702691318" lon="-3.4795364593458276"><ele>4.0</ele><time>2026-04-30T16:11:35.001Z</time></trkpt><trkpt lat="43.40336607906653" lon="-3.4795359194609894"><ele>4.0</ele><time>2026-04-30T16:11:36.001Z</time></trkpt><trkpt lat="43.40346299290622" lon="-3.479541216678659"><ele>4.0</ele><time>2026-04-30T16:11:37.001Z</time></trkpt><trkpt lat="43.40356082906729" lon="-3.479548755281994"><ele>4.0</ele><time>2026-04-30T16:11:38.001Z</time></trkpt><trkpt lat="43.40365909831293" lon="-3.4795635724968785"><ele>4.0</ele><time>2026-04-30T16:11:39.001Z</time></trkpt><trkpt lat="43.40375705619284" lon="-3.479587273340334"><ele>4.0</ele><time>2026-04-30T16:11:40.001Z</time></trkpt><trkpt lat="43.40385682992323" lon="-3.4796095673721754"><ele>4.0</ele><time>2026-04-30T16:11:41.001Z</time></trkpt><trkpt lat="43.40395550420878" lon="-3.479637870311759"><ele>4.0</ele><time>2026-04-30T16:11:42.001Z</time></trkpt><trkpt lat="43.404055194461414" lon="-3.4796654670041405"><ele>4.0</ele><time>2026-04-30T16:11:43.001Z</time></trkpt><trkpt lat="43.40415281534027" lon="-3.479703390076472"><ele>5.0</ele><time>2026-04-30T16:11:44.001Z</time></trkpt><trkpt lat="43.40424774894187" lon="-3.479754602850024"><ele>6.0</ele><time>2026-04-30T16:11:45.001Z</time></trkpt><trkpt lat="43.404342486278345" lon="-3.4798085910301118"><ele>7.0</ele><time>2026-04-30T16:11:46.001Z</time></trkpt><trkpt lat="43.40443676387137" lon="-3.479866520111964"><ele>8.0</ele><time>2026-04-30T16:11:47.001Z</time></trkpt><trkpt lat="43.40452960911104" lon="-3.4799269779615165"><ele>9.0</ele><time>2026-04-30T16:11:48.001Z</time></trkpt><trkpt lat="43.404620842159474" lon="-3.4799933050347565"><ele>8.0</ele><time>2026-04-30T16:11:49.001Z</time></trkpt><trkpt lat="43.404708589860654" lon="-3.4800663948908874"><ele>7.0</ele><time>2026-04-30T16:11:50.001Z</time></trkpt><trkpt lat="43.404793031445784" lon="-3.4801438730972882"><ele>6.0</ele><time>2026-04-30T16:11:51.001Z</time></trkpt><trkpt lat="43.404875550725286" lon="-3.4802310911836214"><ele>5.0</ele><time>2026-04-30T16:11:52.001Z</time></trkpt><trkpt lat="43.40496375337902" lon="-3.4803133157516695"><ele>4.0</ele><time>2026-04-30T16:11:53.001Z</time></trkpt><trkpt lat="43.40504968539244" lon="-3.4803972134130308"><ele>4.6</ele><time>2026-04-30T16:11:54.001Z</time></trkpt><trkpt lat="43.4051322136433" lon="-3.480489641656657"><ele>5.2</ele><time>2026-04-30T16:11:55.001Z</time></trkpt><trkpt lat="43.40521230979329" lon="-3.4805851878555463"><ele>5.799999999999999</ele><time>2026-04-30T16:11:56.001Z</time></trkpt><trkpt lat="43.405290136348604" lon="-3.480685216416265"><ele>6.3999999999999995</ele><time>2026-04-30T16:11:57.001Z</time></trkpt><trkpt lat="43.40536397098115" lon="-3.480790308669505"><ele>7.0</ele><time>2026-04-30T16:11:58.001Z</time></trkpt><trkpt lat="43.405437388604625" lon="-3.480893652821264"><ele>6.6</ele><time>2026-04-30T16:11:59.001Z</time></trkpt><trkpt lat="43.40551240976366" lon="-3.4810006936106244"><ele>6.199999999999999</ele><time>2026-04-30T16:12:00.001Z</time></trkpt><trkpt lat="43.40558461618904" lon="-3.4811108222177474"><ele>5.8</ele><time>2026-04-30T16:12:01.001Z</time></trkpt><trkpt lat="43.40565609766541" lon="-3.4812202636318594"><ele>5.4</ele><time>2026-04-30T16:12:02.001Z</time></trkpt><trkpt lat="43.405729290986386" lon="-3.481329459532209"><ele>5.0</ele><time>2026-04-30T16:12:03.001Z</time></trkpt><trkpt lat="43.40580065726244" lon="-3.4814357646203504"><ele>4.8</ele><time>2026-04-30T16:12:04.001Z</time></trkpt><trkpt lat="43.405873480710085" lon="-3.4815434421616143"><ele>4.6</ele><time>2026-04-30T16:12:05.001Z</time></trkpt><trkpt lat="43.40594089714499" lon="-3.4816554815759706"><ele>4.4</ele><time>2026-04-30T16:12:06.001Z</time></trkpt><trkpt lat="43.40601407163534" lon="-3.481764794810211"><ele>4.2</ele><time>2026-04-30T16:12:07.001Z</time></trkpt><trkpt lat="43.40608993172825" lon="-3.481870747040725"><ele>4.0</ele><time>2026-04-30T16:12:08.002Z</time></trkpt><trkpt lat="43.40616527141286" lon="-3.4819782243705575"><ele>4.0</ele><time>2026-04-30T16:12:09.002Z</time></trkpt><trkpt lat="43.406242932257804" lon="-3.482082024814869"><ele>4.0</ele><time>2026-04-30T16:12:10.002Z</time></trkpt><trkpt lat="43.406323412815446" lon="-3.482183551257235"><ele>4.0</ele><time>2026-04-30T16:12:11.002Z</time></trkpt><trkpt lat="43.406403678217785" lon="-3.482283852771173"><ele>4.0</ele><time>2026-04-30T16:12:12.002Z</time></trkpt><trkpt lat="43.406484342562294" lon="-3.4823823068547726"><ele>4.0</ele><time>2026-04-30T16:12:13.002Z</time></trkpt><trkpt lat="43.40657098008149" lon="-3.4824761753913664"><ele>3.8000000000000003</ele><time>2026-04-30T16:12:14.002Z</time></trkpt><trkpt lat="43.40665676369753" lon="-3.482561150312739"><ele>3.6000000000000005</ele><time>2026-04-30T16:12:15.002Z</time></trkpt><trkpt lat="43.40674268138221" lon="-3.4826495734156295"><ele>3.4</ele><time>2026-04-30T16:12:16.002Z</time></trkpt><trkpt lat="43.40683490005881" lon="-3.4827315678945094"><ele>3.2</ele><time>2026-04-30T16:12:17.002Z</time></trkpt><trkpt lat="43.40691973835092" lon="-3.4828192290443645"><ele>3.0</ele><time>2026-04-30T16:12:18.002Z</time></trkpt><trkpt lat="43.407009150494574" lon="-3.4829053855583774"><ele>3.4</ele><time>2026-04-30T16:12:19.002Z</time></trkpt><trkpt lat="43.40709744970799" lon="-3.4829931886678844"><ele>3.8</ele><time>2026-04-30T16:12:20.002Z</time></trkpt><trkpt lat="43.40719106095053" lon="-3.483075211584294"><ele>4.2</ele><time>2026-04-30T16:12:21.002Z</time></trkpt><trkpt lat="43.407283007565304" lon="-3.4831617685809424"><ele>4.6</ele><time>2026-04-30T16:12:22.002Z</time></trkpt><trkpt lat="43.407373448963426" lon="-3.4832469560560444"><ele>5.0</ele><time>2026-04-30T16:12:23.002Z</time></trkpt><trkpt lat="43.40746654904043" lon="-3.4833327371773923"><ele>5.0</ele><time>2026-04-30T16:12:24.002Z</time></trkpt><trkpt lat="43.40755955404695" lon="-3.4834180042068787"><ele>5.0</ele><time>2026-04-30T16:12:25.002Z</time></trkpt><trkpt lat="43.40765182589641" lon="-3.4835046640391183"><ele>5.0</ele><time>2026-04-30T16:12:26.002Z</time></trkpt><trkpt lat="43.40774570294545" lon="-3.483589602834046"><ele>5.0</ele><time>2026-04-30T16:12:27.002Z</time></trkpt><trkpt lat="43.407838133508115" lon="-3.4836726130330935"><ele>5.0</ele><time>2026-04-30T16:12:28.002Z</time></trkpt><trkpt lat="43.40792763325375" lon="-3.4837550418601095"><ele>5.0</ele><time>2026-04-30T16:12:29.002Z</time></trkpt><trkpt lat="43.408015480455575" lon="-3.483837451262226"><ele>5.0</ele><time>2026-04-30T16:12:30.002Z</time></trkpt><trkpt lat="43.408105362705534" lon="-3.4839266428558386"><ele>5.0</ele><time>2026-04-30T16:12:31.002Z</time></trkpt><trkpt lat="43.4081960668691" lon="-3.48400962704097"><ele>5.0</ele><time>2026-04-30T16:12:32.002Z</time></trkpt><trkpt lat="43.408284480189494" lon="-3.4840910306298114"><ele>5.0</ele><time>2026-04-30T16:12:33.002Z</time></trkpt><trkpt lat="43.408371653192" lon="-3.484173590573781"><ele>5.0</ele><time>2026-04-30T16:12:34.002Z</time></trkpt><trkpt lat="43.40846047726893" lon="-3.4842532068072507"><ele>5.0</ele><time>2026-04-30T16:12:35.002Z</time></trkpt><trkpt lat="43.408546532712585" lon="-3.4843354466387213"><ele>5.0</ele><time>2026-04-30T16:12:36.002Z</time></trkpt><trkpt lat="43.40863368244364" lon="-3.484415508691773"><ele>5.0</ele><time>2026-04-30T16:12:37.002Z</time></trkpt><trkpt lat="43.40871951865675" lon="-3.484491543836042"><ele>5.0</ele><time>2026-04-30T16:12:38.002Z</time></trkpt><trkpt lat="43.40879792881308" lon="-3.484566115121333"><ele>5.0</ele><time>2026-04-30T16:12:39.002Z</time></trkpt><trkpt lat="43.408881974350834" lon="-3.4846434863548033"><ele>5.0</ele><time>2026-04-30T16:12:40.002Z</time></trkpt><trkpt lat="43.4089685757112" lon="-3.484725238079297"><ele>5.0</ele><time>2026-04-30T16:12:41.002Z</time></trkpt><trkpt lat="43.40904608762913" lon="-3.4847875674885924"><ele>5.0</ele><time>2026-04-30T16:12:42.002Z</time></trkpt><trkpt lat="43.40911525387278" lon="-3.484860924103812"><ele>5.0</ele><time>2026-04-30T16:12:43.002Z</time></trkpt><trkpt lat="43.409184014327074" lon="-3.4849283654324834"><ele>5.0</ele><time>2026-04-30T16:12:44.002Z</time></trkpt><trkpt lat="43.409256290258256" lon="-3.484994991615347"><ele>5.0</ele><time>2026-04-30T16:12:45.002Z</time></trkpt><trkpt lat="43.40932613482217" lon="-3.485059411950235"><ele>5.0</ele><time>2026-04-30T16:12:46.002Z</time></trkpt><trkpt lat="43.40939589114082" lon="-3.4851218184473547"><ele>5.0</ele><time>2026-04-30T16:12:47Z</time></trkpt><trkpt lat="43.40946398665287" lon="-3.4851857743287042"><ele>5.0</ele><time>2026-04-30T16:12:48Z</time></trkpt><trkpt lat="43.4095242758972" lon="-3.4852482024827847"><ele>5.0</ele><time>2026-04-30T16:12:49Z</time></trkpt><trkpt lat="43.40958503030357" lon="-3.485303640513636"><ele>5.0</ele><time>2026-04-30T16:12:50Z</time></trkpt><trkpt lat="43.40964033498112" lon="-3.4853551152832796"><ele>5.0</ele><time>2026-04-30T16:12:51Z</time></trkpt><trkpt lat="43.40973636417272" lon="-3.4854453267908236"><ele>5.0</ele><time>2026-04-30T16:12:53Z</time></trkpt><trkpt lat="43.40985959127154" lon="-3.485498581489679"><ele>5.0</ele><time>2026-04-30T16:12:55Z</time></trkpt><trkpt lat="43.40992645751396" lon="-3.4855425346429847"><ele>5.0</ele><time>2026-04-30T16:12:56Z</time></trkpt><trkpt lat="43.4099843559335" lon="-3.4856244984747042"><ele>5.833333333333334</ele><time>2026-04-30T16:12:57Z</time></trkpt><trkpt lat="43.41003831106194" lon="-3.485720258736223"><ele>6.666666666666667</ele><time>2026-04-30T16:12:58Z</time></trkpt><trkpt lat="43.41010146407023" lon="-3.485803711969268"><ele>7.5</ele><time>2026-04-30T16:12:59Z</time></trkpt><trkpt lat="43.410171648246525" lon="-3.485868033467077"><ele>8.333333333333334</ele><time>2026-04-30T16:13:00Z</time></trkpt><trkpt lat="43.41024342627775" lon="-3.4859247700157834"><ele>9.166666666666668</ele><time>2026-04-30T16:13:01Z</time></trkpt><trkpt lat="43.41031694037053" lon="-3.4859918980422364"><ele>10.0</ele><time>2026-04-30T16:13:02Z</time></trkpt><trkpt lat="43.41039083124412" lon="-3.4860666848377835"><ele>10.0</ele><time>2026-04-30T16:13:03Z</time></trkpt><trkpt lat="43.410463768276784" lon="-3.4861363201261497"><ele>10.0</ele><time>2026-04-30T16:13:04Z</time></trkpt><trkpt lat="43.41053506006987" lon="-3.486201202372441"><ele>10.0</ele><time>2026-04-30T16:13:05Z</time></trkpt><trkpt lat="43.41061497368172" lon="-3.4862644930360918"><ele>10.0</ele><time>2026-04-30T16:13:06Z</time></trkpt><trkpt lat="43.41068298984124" lon="-3.4863342316898263"><ele>10.0</ele><time>2026-04-30T16:13:07Z</time></trkpt><trkpt lat="43.410751882499646" lon="-3.486406071993725"><ele>10.0</ele><time>2026-04-30T16:13:08Z</time></trkpt><trkpt lat="43.41081617432898" lon="-3.486474239828535"><ele>9.6</ele><time>2026-04-30T16:13:09Z</time></trkpt><trkpt lat="43.41087142432537" lon="-3.4865401777090996"><ele>9.2</ele><time>2026-04-30T16:13:10Z</time></trkpt><trkpt lat="43.410971221339125" lon="-3.4866153043634838"><ele>8.8</ele><time>2026-04-30T16:13:11Z</time></trkpt><trkpt lat="43.41105157455726" lon="-3.48667958081303"><ele>8.4</ele><time>2026-04-30T16:13:12Z</time></trkpt><trkpt lat="43.411126996151296" lon="-3.486750902023377"><ele>8.0</ele><time>2026-04-30T16:13:13Z</time></trkpt><trkpt lat="43.41120219330467" lon="-3.4868188546445795"><ele>8.0</ele><time>2026-04-30T16:13:14Z</time></trkpt><trkpt lat="43.411277750209756" lon="-3.486889042420298"><ele>8.0</ele><time>2026-04-30T16:13:15Z</time></trkpt><trkpt lat="43.411354161550186" lon="-3.4869613494662315"><ele>8.0</ele><time>2026-04-30T16:13:16Z</time></trkpt><trkpt lat="43.411433036452756" lon="-3.487033924265495"><ele>8.0</ele><time>2026-04-30T16:13:17Z</time></trkpt><trkpt lat="43.41151092831248" lon="-3.4871052325790126"><ele>8.0</ele><time>2026-04-30T16:13:18Z</time></trkpt><trkpt lat="43.411590781970375" lon="-3.4871794955404165"><ele>8.200000000000001</ele><time>2026-04-30T16:13:19Z</time></trkpt><trkpt lat="43.41167158260924" lon="-3.4872549748820605"><ele>8.4</ele><time>2026-04-30T16:13:20Z</time></trkpt><trkpt lat="43.4117519843552" lon="-3.4873314198950154"><ele>8.600000000000001</ele><time>2026-04-30T16:13:21Z</time></trkpt><trkpt lat="43.41183428042387" lon="-3.48740682733279"><ele>8.8</ele><time>2026-04-30T16:13:22.001Z</time></trkpt><trkpt lat="43.41191657968062" lon="-3.487481328782829"><ele>9.0</ele><time>2026-04-30T16:13:23.001Z</time></trkpt><trkpt lat="43.411998577431234" lon="-3.4875570442990513"><ele>9.0</ele><time>2026-04-30T16:13:24.001Z</time></trkpt><trkpt lat="43.412080324951376" lon="-3.4876314578210663"><ele>9.0</ele><time>2026-04-30T16:13:25.001Z</time></trkpt><trkpt lat="43.41216139226286" lon="-3.4877104517725153"><ele>9.0</ele><time>2026-04-30T16:13:26.001Z</time></trkpt><trkpt lat="43.41224403331209" lon="-3.4877822447324083"><ele>9.0</ele><time>2026-04-30T16:13:27.001Z</time></trkpt><trkpt lat="43.41232521881638" lon="-3.4878632238746206"><ele>9.0</ele><time>2026-04-30T16:13:28.001Z</time></trkpt><trkpt lat="43.41240764384847" lon="-3.487940159203925"><ele>9.2</ele><time>2026-04-30T16:13:29.001Z</time></trkpt><trkpt lat="43.41248914046556" lon="-3.488017610999297"><ele>9.4</ele><time>2026-04-30T16:13:30.001Z</time></trkpt><trkpt lat="43.41257236425519" lon="-3.488094897480478"><ele>9.6</ele><time>2026-04-30T16:13:31.001Z</time></trkpt><trkpt lat="43.41265499352823" lon="-3.488170410890709"><ele>9.8</ele><time>2026-04-30T16:13:32.001Z</time></trkpt><trkpt lat="43.412737666955" lon="-3.488246729504748"><ele>10.0</ele><time>2026-04-30T16:13:33.001Z</time></trkpt><trkpt lat="43.41282251329945" lon="-3.488325578772624"><ele>10.0</ele><time>2026-04-30T16:13:34.001Z</time></trkpt><trkpt lat="43.41290806706457" lon="-3.488403906189438"><ele>10.0</ele><time>2026-04-30T16:13:35.001Z</time></trkpt><trkpt lat="43.4129904633583" lon="-3.4884836324354294"><ele>10.0</ele><time>2026-04-30T16:13:36.001Z</time></trkpt><trkpt lat="43.41307175021477" lon="-3.488566718622174"><ele>10.0</ele><time>2026-04-30T16:13:37.001Z</time></trkpt><trkpt lat="43.41315877499839" lon="-3.488642622830475"><ele>10.0</ele><time>2026-04-30T16:13:38.001Z</time></trkpt><trkpt lat="43.413241441143846" lon="-3.488723567641177"><ele>10.8</ele><time>2026-04-30T16:13:39.001Z</time></trkpt><trkpt lat="43.413322421323386" lon="-3.4888053685078773"><ele>11.6</ele><time>2026-04-30T16:13:40.001Z</time></trkpt><trkpt lat="43.413412009198005" lon="-3.488884339514998"><ele>12.399999999999999</ele><time>2026-04-30T16:13:41.001Z</time></trkpt><trkpt lat="43.413498871697" lon="-3.488963340850052"><ele>13.2</ele><time>2026-04-30T16:13:42.001Z</time></trkpt><trkpt lat="43.41358163691578" lon="-3.489047311491577"><ele>14.0</ele><time>2026-04-30T16:13:43.001Z</time></trkpt><trkpt lat="43.41367174076482" lon="-3.4891223096309196"><ele>14.0</ele><time>2026-04-30T16:13:44.001Z</time></trkpt><trkpt lat="43.41375653839736" lon="-3.4892064486327174"><ele>13.999999999999998</ele><time>2026-04-30T16:13:45.001Z</time></trkpt><trkpt lat="43.41384119382375" lon="-3.489289990103607"><ele>13.999999999999998</ele><time>2026-04-30T16:13:46.001Z</time></trkpt><trkpt lat="43.413927320305255" lon="-3.4893692208226397"><ele>14.0</ele><time>2026-04-30T16:13:47.001Z</time></trkpt><trkpt lat="43.41401150859485" lon="-3.4894511223146094"><ele>14.0</ele><time>2026-04-30T16:13:48.001Z</time></trkpt><trkpt lat="43.414095603758994" lon="-3.4895275570894886"><ele>13.6</ele><time>2026-04-30T16:13:49.001Z</time></trkpt><trkpt lat="43.41418252305433" lon="-3.489605468891174"><ele>13.2</ele><time>2026-04-30T16:13:50.001Z</time></trkpt><trkpt lat="43.41427067706871" lon="-3.4896816824336"><ele>12.799999999999999</ele><time>2026-04-30T16:13:51.001Z</time></trkpt><trkpt lat="43.4143585629342" lon="-3.4897512821555923"><ele>12.399999999999999</ele><time>2026-04-30T16:13:52.001Z</time></trkpt><trkpt lat="43.41445066340161" lon="-3.4898166873081045"><ele>12.0</ele><time>2026-04-30T16:13:53.001Z</time></trkpt><trkpt lat="43.41454553556542" lon="-3.4898804653999336"><ele>12.0</ele><time>2026-04-30T16:13:54.001Z</time></trkpt><trkpt lat="43.41464497973838" lon="-3.4899310506544556"><ele>12.0</ele><time>2026-04-30T16:13:55.001Z</time></trkpt><trkpt lat="43.4147459703333" lon="-3.489969853974052"><ele>12.0</ele><time>2026-04-30T16:13:56.001Z</time></trkpt><trkpt lat="43.41484783299567" lon="-3.490008183164472"><ele>12.0</ele><time>2026-04-30T16:13:57.001Z</time></trkpt><trkpt lat="43.41494983714795" lon="-3.490045575084806"><ele>12.0</ele><time>2026-04-30T16:13:58.001Z</time></trkpt><trkpt lat="43.415050561187996" lon="-3.4900778949203293"><ele>11.2</ele><time>2026-04-30T16:13:59.001Z</time></trkpt><trkpt lat="43.41514808411236" lon="-3.4901092467691583"><ele>10.399999999999999</ele><time>2026-04-30T16:14:00.001Z</time></trkpt><trkpt lat="43.4152488347469" lon="-3.4901441977231435"><ele>9.600000000000001</ele><time>2026-04-30T16:14:01.001Z</time></trkpt><trkpt lat="43.41534750677563" lon="-3.4901806208791486"><ele>8.8</ele><time>2026-04-30T16:14:02.001Z</time></trkpt><trkpt lat="43.41544175200311" lon="-3.49022447115685"><ele>8.0</ele><time>2026-04-30T16:14:03.002Z</time></trkpt><trkpt lat="43.415541388582476" lon="-3.4902663031423593"><ele>8.0</ele><time>2026-04-30T16:14:04.002Z</time></trkpt><trkpt lat="43.41563779545309" lon="-3.4903099910294757"><ele>8.0</ele><time>2026-04-30T16:14:05.002Z</time></trkpt><trkpt lat="43.41573131258501" lon="-3.49036356120928"><ele>8.0</ele><time>2026-04-30T16:14:06.002Z</time></trkpt><trkpt lat="43.41582647338629" lon="-3.490420193241428"><ele>8.0</ele><time>2026-04-30T16:14:07.002Z</time></trkpt><trkpt lat="43.41591916178677" lon="-3.4904732524210957"><ele>8.0</ele><time>2026-04-30T16:14:08.002Z</time></trkpt><trkpt lat="43.41601484330932" lon="-3.4905276310237383"><ele>9.2</ele><time>2026-04-30T16:14:09.002Z</time></trkpt><trkpt lat="43.41610355673435" lon="-3.4905954539539996"><ele>10.4</ele><time>2026-04-30T16:14:10.002Z</time></trkpt><trkpt lat="43.41620268674395" lon="-3.4906457665577237"><ele>11.599999999999998</ele><time>2026-04-30T16:14:11.002Z</time></trkpt><trkpt lat="43.41629539430228" lon="-3.490703307958083"><ele>12.799999999999999</ele><time>2026-04-30T16:14:12.002Z</time></trkpt><trkpt lat="43.416390543570046" lon="-3.490759340743238"><ele>14.0</ele><time>2026-04-30T16:14:13.002Z</time></trkpt><trkpt lat="43.416481601652556" lon="-3.4908135901087345"><ele>14.0</ele><time>2026-04-30T16:14:14.002Z</time></trkpt><trkpt lat="43.4165743985433" lon="-3.4908746010978198"><ele>13.999999999999998</ele><time>2026-04-30T16:14:15.002Z</time></trkpt><trkpt lat="43.41666795284709" lon="-3.490937425779474"><ele>13.999999999999998</ele><time>2026-04-30T16:14:16.002Z</time></trkpt><trkpt lat="43.41675805482619" lon="-3.490991913218107"><ele>14.0</ele><time>2026-04-30T16:14:17.002Z</time></trkpt><trkpt lat="43.41684993032262" lon="-3.4910483438563413"><ele>14.0</ele><time>2026-04-30T16:14:18.002Z</time></trkpt><trkpt lat="43.416937765306834" lon="-3.491104851356936"><ele>14.0</ele><time>2026-04-30T16:14:19.002Z</time></trkpt><trkpt lat="43.41702374336805" lon="-3.49116847452131"><ele>13.999999999999998</ele><time>2026-04-30T16:14:20.002Z</time></trkpt><trkpt lat="43.41711317768425" lon="-3.4912279970113675"><ele>13.999999999999998</ele><time>2026-04-30T16:14:21.002Z</time></trkpt><trkpt lat="43.417199228873656" lon="-3.49128467857949"><ele>14.0</ele><time>2026-04-30T16:14:22.002Z</time></trkpt><trkpt lat="43.41728043915265" lon="-3.4913334610550546"><ele>14.0</ele><time>2026-04-30T16:14:23.002Z</time></trkpt><trkpt lat="43.417359181835856" lon="-3.491380372176091"><ele>13.833333333333334</ele><time>2026-04-30T16:14:24.002Z</time></trkpt><trkpt lat="43.41743708816075" lon="-3.4914085270557558"><ele>13.666666666666668</ele><time>2026-04-30T16:14:25.002Z</time></trkpt><trkpt lat="43.41751585397279" lon="-3.4914178604080437"><ele>13.5</ele><time>2026-04-30T16:14:26.002Z</time></trkpt><trkpt lat="43.41758519469375" lon="-3.4914403117673922"><ele>13.333333333333332</ele><time>2026-04-30T16:14:27.002Z</time></trkpt><trkpt lat="43.41764273427507" lon="-3.4915152768678674"><ele>13.166666666666666</ele><time>2026-04-30T16:14:28.002Z</time></trkpt><trkpt lat="43.41767354049307" lon="-3.491630676486764"><ele>13.0</ele><time>2026-04-30T16:14:29.002Z</time></trkpt><trkpt lat="43.41768366475628" lon="-3.491754592100082"><ele>13.0</ele><time>2026-04-30T16:14:30.002Z</time></trkpt><trkpt lat="43.41769105961255" lon="-3.4918666121811643"><ele>13.0</ele><time>2026-04-30T16:14:31.002Z</time></trkpt><trkpt lat="43.4177283275785" lon="-3.491986054020439"><ele>13.0</ele><time>2026-04-30T16:14:32.002Z</time></trkpt><trkpt lat="43.41777650557545" lon="-3.4920931287936567"><ele>13.0</ele><time>2026-04-30T16:14:33.002Z</time></trkpt><trkpt lat="43.41782740565252" lon="-3.492198077845629"><ele>13.0</ele><time>2026-04-30T16:14:34.002Z</time></trkpt><trkpt lat="43.41787014622423" lon="-3.4923119638683002"><ele>12.0</ele><time>2026-04-30T16:14:35.002Z</time></trkpt><trkpt lat="43.417907754133395" lon="-3.4924360015126488"><ele>11.0</ele><time>2026-04-30T16:14:36.002Z</time></trkpt><trkpt lat="43.417943566171346" lon="-3.4925616806402697"><ele>10.0</ele><time>2026-04-30T16:14:37.002Z</time></trkpt><trkpt lat="43.4179735167481" lon="-3.4926897310873795"><ele>9.0</ele><time>2026-04-30T16:14:38.002Z</time></trkpt><trkpt lat="43.417995800932886" lon="-3.492826838055206"><ele>8.0</ele><time>2026-04-30T16:14:39.002Z</time></trkpt><trkpt lat="43.418016352682734" lon="-3.4929633193585907"><ele>8.0</ele><time>2026-04-30T16:14:40.002Z</time></trkpt><trkpt lat="43.41802973621924" lon="-3.4931049512638768"><ele>8.0</ele><time>2026-04-30T16:14:41.002Z</time></trkpt><trkpt lat="43.41804087391068" lon="-3.4932471593876095"><ele>8.0</ele><time>2026-04-30T16:14:42.002Z</time></trkpt><trkpt lat="43.41804614885603" lon="-3.4933900332222327"><ele>8.0</ele><time>2026-04-30T16:14:43.002Z</time></trkpt><trkpt lat="43.418039845814604" lon="-3.493538706200116"><ele>8.0</ele><time>2026-04-30T16:14:44.002Z</time></trkpt><trkpt lat="43.41803789508696" lon="-3.493689045976248"><ele>7.800000000000001</ele><time>2026-04-30T16:14:45.003Z</time></trkpt><trkpt lat="43.418040280566096" lon="-3.493832478326252"><ele>7.6000000000000005</ele><time>2026-04-30T16:14:46.003Z</time></trkpt><trkpt lat="43.41804217403459" lon="-3.4939775207024204"><ele>7.3999999999999995</ele><time>2026-04-30T16:14:47.003Z</time></trkpt><trkpt lat="43.41803797763266" lon="-3.4941345418404595"><ele>7.199999999999999</ele><time>2026-04-30T16:14:48.003Z</time></trkpt><trkpt lat="43.41805143744569" lon="-3.4942768417887047"><ele>7.0</ele><time>2026-04-30T16:14:49.003Z</time></trkpt><trkpt lat="43.41806917322418" lon="-3.494424983447223"><ele>7.0</ele><time>2026-04-30T16:14:50.003Z</time></trkpt><trkpt lat="43.41809238068576" lon="-3.4945746845080485"><ele>6.999999999999999</ele><time>2026-04-30T16:14:51.003Z</time></trkpt><trkpt lat="43.418127554856206" lon="-3.4947207272568996"><ele>6.999999999999999</ele><time>2026-04-30T16:14:52.003Z</time></trkpt><trkpt lat="43.41817306605732" lon="-3.4948579121603376"><ele>7.0</ele><time>2026-04-30T16:14:53Z</time></trkpt><trkpt lat="43.41822267493032" lon="-3.494990457552506"><ele>7.0</ele><time>2026-04-30T16:14:54Z</time></trkpt><trkpt lat="43.418271391097996" lon="-3.4951220812515476"><ele>7.199999999999999</ele><time>2026-04-30T16:14:55Z</time></trkpt><trkpt lat="43.41832103761776" lon="-3.4952554899951704"><ele>7.3999999999999995</ele><time>2026-04-30T16:14:56Z</time></trkpt><trkpt lat="43.41837185254963" lon="-3.4953846194885982"><ele>7.6000000000000005</ele><time>2026-04-30T16:14:57Z</time></trkpt><trkpt lat="43.418423653468835" lon="-3.495509012128559"><ele>7.800000000000001</ele><time>2026-04-30T16:14:58Z</time></trkpt><trkpt lat="43.41847953488046" lon="-3.4956331808173418"><ele>8.0</ele><time>2026-04-30T16:14:59Z</time></trkpt><trkpt lat="43.41852954680362" lon="-3.4957582546098536"><ele>10.600000000000001</ele><time>2026-04-30T16:15:00Z</time></trkpt><trkpt lat="43.41857758233373" lon="-3.4958849817347555"><ele>13.200000000000001</ele><time>2026-04-30T16:15:01Z</time></trkpt><trkpt lat="43.418624748557924" lon="-3.4960146766939455"><ele>15.8</ele><time>2026-04-30T16:15:02Z</time></trkpt><trkpt lat="43.41868088204507" lon="-3.4961345319987007"><ele>18.400000000000002</ele><time>2026-04-30T16:15:03Z</time></trkpt><trkpt lat="43.41873282140148" lon="-3.4962605995649825"><ele>21.0</ele><time>2026-04-30T16:15:04Z</time></trkpt><trkpt lat="43.41878440835802" lon="-3.496381267918718"><ele>17.8</ele><time>2026-04-30T16:15:05Z</time></trkpt><trkpt lat="43.41883649900032" lon="-3.4965091878197807"><ele>14.600000000000001</ele><time>2026-04-30T16:15:06Z</time></trkpt><trkpt lat="43.418882087649415" lon="-3.4966392674041917"><ele>11.4</ele><time>2026-04-30T16:15:07Z</time></trkpt><trkpt lat="43.4189226976684" lon="-3.4967700167250584"><ele>8.2</ele><time>2026-04-30T16:15:08Z</time></trkpt><trkpt lat="43.418959873517984" lon="-3.496902213593333"><ele>5.0</ele><time>2026-04-30T16:15:09Z</time></trkpt><trkpt lat="43.418993022030456" lon="-3.497037162105299"><ele>5.4</ele><time>2026-04-30T16:15:10Z</time></trkpt><trkpt lat="43.419020203470005" lon="-3.4971746805567943"><ele>5.8</ele><time>2026-04-30T16:15:11Z</time></trkpt><trkpt lat="43.4190456089942" lon="-3.4973142493134057"><ele>6.199999999999999</ele><time>2026-04-30T16:15:12Z</time></trkpt><trkpt lat="43.41906813983793" lon="-3.4974554867837937"><ele>6.6</ele><time>2026-04-30T16:15:13Z</time></trkpt><trkpt lat="43.41908923623801" lon="-3.497594783451777"><ele>7.0</ele><time>2026-04-30T16:15:14Z</time></trkpt><trkpt lat="43.41910681632357" lon="-3.4977396207795883"><ele>7.0</ele><time>2026-04-30T16:15:15Z</time></trkpt><trkpt lat="43.41912795603055" lon="-3.4978825325235334"><ele>6.999999999999999</ele><time>2026-04-30T16:15:16Z</time></trkpt><trkpt lat="43.41914698030828" lon="-3.498025744805982"><ele>6.999999999999999</ele><time>2026-04-30T16:15:17Z</time></trkpt><trkpt lat="43.419167563085495" lon="-3.4981701335952318"><ele>7.0</ele><time>2026-04-30T16:15:18.001Z</time></trkpt><trkpt lat="43.41918526175306" lon="-3.4983142648854075"><ele>7.0</ele><time>2026-04-30T16:15:19.001Z</time></trkpt><trkpt lat="43.41920354636148" lon="-3.4984607300511312"><ele>7.0</ele><time>2026-04-30T16:15:20.001Z</time></trkpt><trkpt lat="43.41922338049734" lon="-3.4986083500549476"><ele>6.999999999999999</ele><time>2026-04-30T16:15:21.001Z</time></trkpt><trkpt lat="43.41924142097597" lon="-3.4987554277315738"><ele>6.999999999999999</ele><time>2026-04-30T16:15:22.001Z</time></trkpt><trkpt lat="43.41926001019876" lon="-3.498903320228692"><ele>7.0</ele><time>2026-04-30T16:15:23.001Z</time></trkpt><trkpt lat="43.419277964867476" lon="-3.4990490335217035"><ele>7.0</ele><time>2026-04-30T16:15:24.001Z</time></trkpt><trkpt lat="43.41929448395151" lon="-3.499193677576667"><ele>7.0</ele><time>2026-04-30T16:15:25.001Z</time></trkpt><trkpt lat="43.41931368945406" lon="-3.499339820702282"><ele>6.999999999999999</ele><time>2026-04-30T16:15:26.001Z</time></trkpt><trkpt lat="43.41933178744054" lon="-3.499485845753618"><ele>6.999999999999999</ele><time>2026-04-30T16:15:27.001Z</time></trkpt><trkpt lat="43.41935200255371" lon="-3.499633312659153"><ele>7.0</ele><time>2026-04-30T16:15:28.001Z</time></trkpt><trkpt lat="43.41937162776083" lon="-3.499779774840886"><ele>7.0</ele><time>2026-04-30T16:15:29.001Z</time></trkpt><trkpt lat="43.419390921150956" lon="-3.4999274588768605"><ele>7.199999999999999</ele><time>2026-04-30T16:15:30.001Z</time></trkpt><trkpt lat="43.419409692871014" lon="-3.5000738213588205"><ele>7.3999999999999995</ele><time>2026-04-30T16:15:31.001Z</time></trkpt><trkpt lat="43.419428843179496" lon="-3.5002251264466353"><ele>7.6000000000000005</ele><time>2026-04-30T16:15:32.001Z</time></trkpt><trkpt lat="43.41944776190263" lon="-3.50037283364079"><ele>7.800000000000001</ele><time>2026-04-30T16:15:33.001Z</time></trkpt><trkpt lat="43.41946833386758" lon="-3.500520710196256"><ele>8.0</ele><time>2026-04-30T16:15:34.001Z</time></trkpt><trkpt lat="43.41948992220358" lon="-3.50066796994159"><ele>8.4</ele><time>2026-04-30T16:15:35.001Z</time></trkpt><trkpt lat="43.41950957776864" lon="-3.5008166165772745"><ele>8.8</ele><time>2026-04-30T16:15:36.001Z</time></trkpt><trkpt lat="43.41952870801064" lon="-3.5009623605755276"><ele>9.2</ele><time>2026-04-30T16:15:37.001Z</time></trkpt><trkpt lat="43.41954807981775" lon="-3.5011082023068085"><ele>9.6</ele><time>2026-04-30T16:15:38.001Z</time></trkpt><trkpt lat="43.41956694160409" lon="-3.5012568200444547"><ele>10.0</ele><time>2026-04-30T16:15:39.001Z</time></trkpt><trkpt lat="43.41958662900276" lon="-3.501403667795484"><ele>10.2</ele><time>2026-04-30T16:15:40.001Z</time></trkpt><trkpt lat="43.41960556493651" lon="-3.501550815508122"><ele>10.4</ele><time>2026-04-30T16:15:41.001Z</time></trkpt><trkpt lat="43.41962455710868" lon="-3.501699188609133"><ele>10.600000000000001</ele><time>2026-04-30T16:15:42.001Z</time></trkpt><trkpt lat="43.41964254165986" lon="-3.5018462143624016"><ele>10.8</ele><time>2026-04-30T16:15:43.001Z</time></trkpt><trkpt lat="43.419661988289604" lon="-3.5019949906731376"><ele>11.0</ele><time>2026-04-30T16:15:44.001Z</time></trkpt><trkpt lat="43.41968022331884" lon="-3.5021409659284117"><ele>9.8</ele><time>2026-04-30T16:15:45.001Z</time></trkpt><trkpt lat="43.419698041751296" lon="-3.5022922546775024"><ele>8.600000000000001</ele><time>2026-04-30T16:15:46.001Z</time></trkpt><trkpt lat="43.419717197771824" lon="-3.5024435744361146"><ele>7.4</ele><time>2026-04-30T16:15:47.001Z</time></trkpt><trkpt lat="43.41973718722884" lon="-3.5025937104397"><ele>6.2</ele><time>2026-04-30T16:15:48.001Z</time></trkpt><trkpt lat="43.419756338273714" lon="-3.50274282189064"><ele>5.0</ele><time>2026-04-30T16:15:49.001Z</time></trkpt><trkpt lat="43.41977681297697" lon="-3.502895867839052"><ele>5.25</ele><time>2026-04-30T16:15:50.001Z</time></trkpt><trkpt lat="43.419794521061895" lon="-3.5030514401932566"><ele>5.5</ele><time>2026-04-30T16:15:51.001Z</time></trkpt><trkpt lat="43.419813375211625" lon="-3.503202628913988"><ele>5.75</ele><time>2026-04-30T16:15:52.001Z</time></trkpt><trkpt lat="43.41983431900773" lon="-3.5033572427580606"><ele>6.0</ele><time>2026-04-30T16:15:53.001Z</time></trkpt><trkpt lat="43.41985441815443" lon="-3.503512267185017"><ele>6.0</ele><time>2026-04-30T16:15:54.001Z</time></trkpt><trkpt lat="43.419874071011265" lon="-3.5036698274970157"><ele>6.0</ele><time>2026-04-30T16:15:55.001Z</time></trkpt><trkpt lat="43.419892567672576" lon="-3.50382375004002"><ele>6.0</ele><time>2026-04-30T16:15:56.001Z</time></trkpt><trkpt lat="43.41991388499692" lon="-3.503976140865567"><ele>6.0</ele><time>2026-04-30T16:15:57.001Z</time></trkpt><trkpt lat="43.41993279947881" lon="-3.5041315427060975"><ele>6.0</ele><time>2026-04-30T16:15:58.001Z</time></trkpt><trkpt lat="43.41995142149817" lon="-3.504283725922272"><ele>6.0</ele><time>2026-04-30T16:15:59.001Z</time></trkpt><trkpt lat="43.419970361957645" lon="-3.5044348482166208"><ele>6.0</ele><time>2026-04-30T16:16:00.001Z</time></trkpt><trkpt lat="43.41998909407502" lon="-3.5045847263496706"><ele>6.0</ele><time>2026-04-30T16:16:01.001Z</time></trkpt><trkpt lat="43.42000879504907" lon="-3.5047341441166955"><ele>6.0</ele><time>2026-04-30T16:16:02.001Z</time></trkpt><trkpt lat="43.420028476999335" lon="-3.504885306990386"><ele>5.8</ele><time>2026-04-30T16:16:03.002Z</time></trkpt><trkpt lat="43.420048426242666" lon="-3.5050336535199786"><ele>5.6</ele><time>2026-04-30T16:16:04.002Z</time></trkpt><trkpt lat="43.42006654737027" lon="-3.5051822480663546"><ele>5.4</ele><time>2026-04-30T16:16:05.002Z</time></trkpt><trkpt lat="43.420085156950414" lon="-3.505326218345223"><ele>5.2</ele><time>2026-04-30T16:16:06.002Z</time></trkpt><trkpt lat="43.42010244931143" lon="-3.50546626842365"><ele>5.0</ele><time>2026-04-30T16:16:07.002Z</time></trkpt><trkpt lat="43.420120780392814" lon="-3.505603714845466"><ele>5.6</ele><time>2026-04-30T16:16:08.002Z</time></trkpt><trkpt lat="43.420140158550794" lon="-3.505738425883328"><ele>6.2</ele><time>2026-04-30T16:16:09.002Z</time></trkpt><trkpt lat="43.42015919753488" lon="-3.5058733283659427"><ele>6.800000000000001</ele><time>2026-04-30T16:16:10.002Z</time></trkpt><trkpt lat="43.42017543648682" lon="-3.5060083997191436"><ele>7.4</ele><time>2026-04-30T16:16:11.002Z</time></trkpt><trkpt lat="43.42019071561184" lon="-3.5061432549456084"><ele>8.0</ele><time>2026-04-30T16:16:12.002Z</time></trkpt><trkpt lat="43.42020558666487" lon="-3.5062693350029734"><ele>9.0</ele><time>2026-04-30T16:16:13.002Z</time></trkpt><trkpt lat="43.4202246778874" lon="-3.5063969758440523"><ele>10.0</ele><time>2026-04-30T16:16:14.002Z</time></trkpt><trkpt lat="43.420245858051764" lon="-3.5065247872933196"><ele>11.0</ele><time>2026-04-30T16:16:15.002Z</time></trkpt><trkpt lat="43.420268691839915" lon="-3.5066518603077057"><ele>12.0</ele><time>2026-04-30T16:16:16.002Z</time></trkpt><trkpt lat="43.42029347351288" lon="-3.506778060094155"><ele>13.0</ele><time>2026-04-30T16:16:17.002Z</time></trkpt><trkpt lat="43.420320760669746" lon="-3.5069019916572817"><ele>13.0</ele><time>2026-04-30T16:16:18.002Z</time></trkpt><trkpt lat="43.42035090452803" lon="-3.50702490340775"><ele>13.0</ele><time>2026-04-30T16:16:19.002Z</time></trkpt><trkpt lat="43.420382747296145" lon="-3.507145361005842"><ele>13.0</ele><time>2026-04-30T16:16:20.002Z</time></trkpt><trkpt lat="43.420419300666325" lon="-3.507265350402545"><ele>13.0</ele><time>2026-04-30T16:16:21.002Z</time></trkpt><trkpt lat="43.42045607112197" lon="-3.5073848390903577"><ele>13.0</ele><time>2026-04-30T16:16:22.002Z</time></trkpt><trkpt lat="43.42049295394788" lon="-3.5075073340927188"><ele>13.0</ele><time>2026-04-30T16:16:23.002Z</time></trkpt><trkpt lat="43.42053081679653" lon="-3.5076319208147555"><ele>13.0</ele><time>2026-04-30T16:16:24.002Z</time></trkpt><trkpt lat="43.420569762406075" lon="-3.507758567384888"><ele>13.0</ele><time>2026-04-30T16:16:25.002Z</time></trkpt><trkpt lat="43.42060735936827" lon="-3.5078904888841955"><ele>13.0</ele><time>2026-04-30T16:16:26.002Z</time></trkpt><trkpt lat="43.42064530802109" lon="-3.5080270151800206"><ele>13.0</ele><time>2026-04-30T16:16:27.002Z</time></trkpt><trkpt lat="43.42068260602031" lon="-3.5081631652296834"><ele>13.0</ele><time>2026-04-30T16:16:28.002Z</time></trkpt><trkpt lat="43.42071981508171" lon="-3.5083030404603557"><ele>13.0</ele><time>2026-04-30T16:16:29.002Z</time></trkpt><trkpt lat="43.420758428006984" lon="-3.5084440147478784"><ele>13.0</ele><time>2026-04-30T16:16:30.002Z</time></trkpt><trkpt lat="43.4207967729743" lon="-3.5085847569834048"><ele>13.0</ele><time>2026-04-30T16:16:31.002Z</time></trkpt><trkpt lat="43.42083522035137" lon="-3.508724336343351"><ele>13.0</ele><time>2026-04-30T16:16:32.002Z</time></trkpt><trkpt lat="43.420874014762916" lon="-3.5088606964799363"><ele>12.600000000000001</ele><time>2026-04-30T16:16:33.002Z</time></trkpt><trkpt lat="43.42091553721753" lon="-3.5089997378876236"><ele>12.200000000000001</ele><time>2026-04-30T16:16:34.002Z</time></trkpt><trkpt lat="43.42095772231672" lon="-3.509136735585978"><ele>11.8</ele><time>2026-04-30T16:16:35.002Z</time></trkpt><trkpt lat="43.42099875108862" lon="-3.5092762110190616"><ele>11.4</ele><time>2026-04-30T16:16:36.002Z</time></trkpt><trkpt lat="43.421039620301215" lon="-3.5094180232596055"><ele>11.0</ele><time>2026-04-30T16:16:37.002Z</time></trkpt><trkpt lat="43.421079875281166" lon="-3.5095586741685696"><ele>10.8</ele><time>2026-04-30T16:16:38.002Z</time></trkpt><trkpt lat="43.42111841523998" lon="-3.509700766604501"><ele>10.600000000000001</ele><time>2026-04-30T16:16:39.002Z</time></trkpt><trkpt lat="43.42115730310992" lon="-3.5098440365498416"><ele>10.4</ele><time>2026-04-30T16:16:40.002Z</time></trkpt><trkpt lat="43.421194458884735" lon="-3.509986443933399"><ele>10.2</ele><time>2026-04-30T16:16:41.002Z</time></trkpt><trkpt lat="43.42123361514268" lon="-3.510125115611299"><ele>10.0</ele><time>2026-04-30T16:16:42.002Z</time></trkpt><trkpt lat="43.4212763213991" lon="-3.510267167980525"><ele>10.8</ele><time>2026-04-30T16:16:43.002Z</time></trkpt><trkpt lat="43.421318506208465" lon="-3.51041072364719"><ele>11.6</ele><time>2026-04-30T16:16:44.002Z</time></trkpt><trkpt lat="43.421357802132206" lon="-3.510553920067748"><ele>12.399999999999999</ele><time>2026-04-30T16:16:45.002Z</time></trkpt><trkpt lat="43.42139796015445" lon="-3.5106967777435627"><ele>13.2</ele><time>2026-04-30T16:16:46.003Z</time></trkpt><trkpt lat="43.421439613624884" lon="-3.5108411935849393"><ele>14.0</ele><time>2026-04-30T16:16:47.003Z</time></trkpt><trkpt lat="43.421478470606424" lon="-3.5109862887713463"><ele>14.0</ele><time>2026-04-30T16:16:48.003Z</time></trkpt><trkpt lat="43.42151550396327" lon="-3.511131404751345"><ele>13.999999999999998</ele><time>2026-04-30T16:16:49.003Z</time></trkpt><trkpt lat="43.42155346833293" lon="-3.5112746355793765"><ele>13.999999999999998</ele><time>2026-04-30T16:16:50.003Z</time></trkpt><trkpt lat="43.42159057644131" lon="-3.511419964054279"><ele>14.0</ele><time>2026-04-30T16:16:51.003Z</time></trkpt><trkpt lat="43.42162863457747" lon="-3.5115644141703775"><ele>14.0</ele><time>2026-04-30T16:16:52.003Z</time></trkpt><trkpt lat="43.4216658694334" lon="-3.5117069329744033"><ele>13.0</ele><time>2026-04-30T16:16:53.003Z</time></trkpt><trkpt lat="43.421703451896185" lon="-3.5118510363967643"><ele>11.999999999999998</ele><time>2026-04-30T16:16:54.003Z</time></trkpt><trkpt lat="43.42174076432731" lon="-3.511997417522436"><ele>11.0</ele><time>2026-04-30T16:16:55.003Z</time></trkpt><trkpt lat="43.42177661740356" lon="-3.5121445605835433"><ele>10.0</ele><time>2026-04-30T16:16:56.003Z</time></trkpt><trkpt lat="43.42181086961739" lon="-3.5122904974652265"><ele>9.0</ele><time>2026-04-30T16:16:57.003Z</time></trkpt><trkpt lat="43.42184312846285" lon="-3.512438185556124"><ele>8.0</ele><time>2026-04-30T16:16:58.003Z</time></trkpt><trkpt lat="43.42187622997398" lon="-3.5125844185284043"><ele>7.0</ele><time>2026-04-30T16:16:59.001Z</time></trkpt><trkpt lat="43.421908488144865" lon="-3.5127283800200555"><ele>6.0</ele><time>2026-04-30T16:17:00.001Z</time></trkpt><trkpt lat="43.421942035040686" lon="-3.5128761642497373"><ele>5.0</ele><time>2026-04-30T16:17:01.001Z</time></trkpt><trkpt lat="43.42197375173161" lon="-3.5130208992223007"><ele>4.0</ele><time>2026-04-30T16:17:02.001Z</time></trkpt><trkpt lat="43.422004473544206" lon="-3.513162294654601"><ele>4.0</ele><time>2026-04-30T16:17:03.001Z</time></trkpt><trkpt lat="43.422033919937455" lon="-3.5133028389808487"><ele>4.0</ele><time>2026-04-30T16:17:04.001Z</time></trkpt><trkpt lat="43.42206305312178" lon="-3.513443772943179"><ele>4.0</ele><time>2026-04-30T16:17:05.001Z</time></trkpt><trkpt lat="43.422092172844636" lon="-3.5135812458552347"><ele>4.0</ele><time>2026-04-30T16:17:06.001Z</time></trkpt><trkpt lat="43.42211881768262" lon="-3.5137190572844426"><ele>4.0</ele><time>2026-04-30T16:17:07.001Z</time></trkpt><trkpt lat="43.42214326575076" lon="-3.513856072544537"><ele>4.0</ele><time>2026-04-30T16:17:08.001Z</time></trkpt><trkpt lat="43.42216820621223" lon="-3.513991610744375"><ele>4.0</ele><time>2026-04-30T16:17:09.001Z</time></trkpt><trkpt lat="43.422193076851045" lon="-3.5141281327135823"><ele>4.0</ele><time>2026-04-30T16:17:10.001Z</time></trkpt><trkpt lat="43.42221735535252" lon="-3.5142643792733983"><ele>4.0</ele><time>2026-04-30T16:17:11.001Z</time></trkpt><trkpt lat="43.42224198904" lon="-3.5143987862475483"><ele>4.0</ele><time>2026-04-30T16:17:12.001Z</time></trkpt><trkpt lat="43.422267961485005" lon="-3.5145313098587367"><ele>4.4</ele><time>2026-04-30T16:17:13.001Z</time></trkpt><trkpt lat="43.42229234245894" lon="-3.5146639255199714"><ele>4.800000000000001</ele><time>2026-04-30T16:17:14.001Z</time></trkpt><trkpt lat="43.42231734987852" lon="-3.5147963494960743"><ele>5.199999999999999</ele><time>2026-04-30T16:17:15.001Z</time></trkpt><trkpt lat="43.42234454695662" lon="-3.514928540122823"><ele>5.6</ele><time>2026-04-30T16:17:16.001Z</time></trkpt><trkpt lat="43.42236989426351" lon="-3.5150608299847725"><ele>6.0</ele><time>2026-04-30T16:17:17.001Z</time></trkpt><trkpt lat="43.422397711992886" lon="-3.5151905207190866"><ele>6.0</ele><time>2026-04-30T16:17:18.001Z</time></trkpt><trkpt lat="43.422421985348585" lon="-3.5153227359409303"><ele>6.0</ele><time>2026-04-30T16:17:19.001Z</time></trkpt><trkpt lat="43.422445695886836" lon="-3.5154546987664044"><ele>6.0</ele><time>2026-04-30T16:17:20.001Z</time></trkpt><trkpt lat="43.42247211642756" lon="-3.515582982519804"><ele>6.0</ele><time>2026-04-30T16:17:21.001Z</time></trkpt><trkpt lat="43.42250048802237" lon="-3.5157093649682136"><ele>6.0</ele><time>2026-04-30T16:17:22.001Z</time></trkpt><trkpt lat="43.422528928712794" lon="-3.5158420862262854"><ele>6.199999999999999</ele><time>2026-04-30T16:17:23.001Z</time></trkpt><trkpt lat="43.422553881070165" lon="-3.515971037390103"><ele>6.3999999999999995</ele><time>2026-04-30T16:17:24.001Z</time></trkpt><trkpt lat="43.42258338414938" lon="-3.516102922542855"><ele>6.6</ele><time>2026-04-30T16:17:25.001Z</time></trkpt><trkpt lat="43.42261035716155" lon="-3.516230318607842"><ele>6.8</ele><time>2026-04-30T16:17:26.001Z</time></trkpt><trkpt lat="43.42263919287013" lon="-3.516360696620606"><ele>7.0</ele><time>2026-04-30T16:17:27.001Z</time></trkpt><trkpt lat="43.42266396032864" lon="-3.5164916851356884"><ele>7.199999999999999</ele><time>2026-04-30T16:17:28.001Z</time></trkpt><trkpt lat="43.42268761057778" lon="-3.516623971962833"><ele>7.3999999999999995</ele><time>2026-04-30T16:17:29.001Z</time></trkpt><trkpt lat="43.42271386259954" lon="-3.5167561015617634"><ele>7.6000000000000005</ele><time>2026-04-30T16:17:30.001Z</time></trkpt><trkpt lat="43.42274029581019" lon="-3.516885746199409"><ele>7.800000000000001</ele><time>2026-04-30T16:17:31.001Z</time></trkpt><trkpt lat="43.42276629559093" lon="-3.5170155117827084"><ele>8.0</ele><time>2026-04-30T16:17:32.001Z</time></trkpt><trkpt lat="43.42279439496956" lon="-3.517148296098353"><ele>8.200000000000001</ele><time>2026-04-30T16:17:33.001Z</time></trkpt><trkpt lat="43.422822704315166" lon="-3.5172803314227346"><ele>8.4</ele><time>2026-04-30T16:17:34.001Z</time></trkpt><trkpt lat="43.42285222047938" lon="-3.5174185215600837"><ele>8.600000000000001</ele><time>2026-04-30T16:17:35.001Z</time></trkpt><trkpt lat="43.422880022888016" lon="-3.51755190414955"><ele>8.8</ele><time>2026-04-30T16:17:36.001Z</time></trkpt><trkpt lat="43.42290829217902" lon="-3.517690363388199"><ele>9.0</ele><time>2026-04-30T16:17:37.001Z</time></trkpt><trkpt lat="43.42293904892023" lon="-3.517825833198568"><ele>9.2</ele><time>2026-04-30T16:17:38.001Z</time></trkpt><trkpt lat="43.42296793965574" lon="-3.517962888979718"><ele>9.4</ele><time>2026-04-30T16:17:39.001Z</time></trkpt><trkpt lat="43.422995342661174" lon="-3.5181020438764294"><ele>9.6</ele><time>2026-04-30T16:17:40.001Z</time></trkpt><trkpt lat="43.423024081095456" lon="-3.518243215122268"><ele>9.8</ele><time>2026-04-30T16:17:41.001Z</time></trkpt><trkpt lat="43.42305038676042" lon="-3.518382505626318"><ele>10.0</ele><time>2026-04-30T16:17:42.001Z</time></trkpt><trkpt lat="43.42307567734658" lon="-3.5185235938451513"><ele>10.0</ele><time>2026-04-30T16:17:43.001Z</time></trkpt><trkpt lat="43.42310135106559" lon="-3.5186639046112247"><ele>10.0</ele><time>2026-04-30T16:17:44.001Z</time></trkpt><trkpt lat="43.423129038099624" lon="-3.5188042722739645"><ele>10.0</ele><time>2026-04-30T16:17:45.001Z</time></trkpt><trkpt lat="43.423155566397625" lon="-3.5189468518450986"><ele>10.0</ele><time>2026-04-30T16:17:46.001Z</time></trkpt><trkpt lat="43.423181826369444" lon="-3.519089697955738"><ele>10.0</ele><time>2026-04-30T16:17:47.001Z</time></trkpt><trkpt lat="43.423208745865665" lon="-3.5192270628933002"><ele>10.0</ele><time>2026-04-30T16:17:48.001Z</time></trkpt><trkpt lat="43.42323579957367" lon="-3.5193704808385604"><ele>10.0</ele><time>2026-04-30T16:17:49.001Z</time></trkpt><trkpt lat="43.42326647660453" lon="-3.5195102731516594"><ele>10.0</ele><time>2026-04-30T16:17:50.001Z</time></trkpt><trkpt lat="43.42329439941868" lon="-3.5196512632077357"><ele>10.0</ele><time>2026-04-30T16:17:51.001Z</time></trkpt><trkpt lat="43.42332254369319" lon="-3.5197924223981376"><ele>10.0</ele><time>2026-04-30T16:17:52.001Z</time></trkpt><trkpt lat="43.42335047144025" lon="-3.5199321090728746"><ele>9.8</ele><time>2026-04-30T16:17:53.001Z</time></trkpt><trkpt lat="43.42337627232826" lon="-3.520072740113916"><ele>9.6</ele><time>2026-04-30T16:17:54.001Z</time></trkpt><trkpt lat="43.42340569608233" lon="-3.520213159267522"><ele>9.4</ele><time>2026-04-30T16:17:55.001Z</time></trkpt><trkpt lat="43.42343150388202" lon="-3.5203549745323306"><ele>9.2</ele><time>2026-04-30T16:17:56.001Z</time></trkpt><trkpt lat="43.4234585834064" lon="-3.5204967681266903"><ele>9.0</ele><time>2026-04-30T16:17:57.001Z</time></trkpt><trkpt lat="43.42348637950577" lon="-3.520638674062731"><ele>8.8</ele><time>2026-04-30T16:17:58.001Z</time></trkpt><trkpt lat="43.42351607392787" lon="-3.520776683474864"><ele>8.600000000000001</ele><time>2026-04-30T16:17:59.001Z</time></trkpt><trkpt lat="43.423549669301536" lon="-3.520920431058328"><ele>8.4</ele><time>2026-04-30T16:18:00.001Z</time></trkpt><trkpt lat="43.42358169379596" lon="-3.5210641017905138"><ele>8.200000000000001</ele><time>2026-04-30T16:18:01.001Z</time></trkpt><trkpt lat="43.42361383273367" lon="-3.5212072832961328"><ele>8.0</ele><time>2026-04-30T16:18:02.001Z</time></trkpt><trkpt lat="43.42364574172362" lon="-3.5213504915145784"><ele>7.2</ele><time>2026-04-30T16:18:03.001Z</time></trkpt><trkpt lat="43.423677706118355" lon="-3.521489376510109"><ele>6.4</ele><time>2026-04-30T16:18:04.001Z</time></trkpt><trkpt lat="43.423707826609345" lon="-3.521619246157695"><ele>5.6000000000000005</ele><time>2026-04-30T16:18:05.001Z</time></trkpt><trkpt lat="43.42373790781968" lon="-3.5217381667601777"><ele>4.800000000000001</ele><time>2026-04-30T16:18:06.001Z</time></trkpt><trkpt lat="43.423765423957434" lon="-3.521854031594906"><ele>4.0</ele><time>2026-04-30T16:18:07.001Z</time></trkpt><trkpt lat="43.42379298565829" lon="-3.5219655762910835"><ele>4.0</ele><time>2026-04-30T16:18:08.001Z</time></trkpt><trkpt lat="43.423824313033315" lon="-3.5220621465610233"><ele>3.9999999999999996</ele><time>2026-04-30T16:18:09.001Z</time></trkpt><trkpt lat="43.42385885685639" lon="-3.5221484968359964"><ele>4.0</ele><time>2026-04-30T16:18:10.002Z</time></trkpt><trkpt lat="43.42390111398072" lon="-3.5222254410390748"><ele>4.0</ele><time>2026-04-30T16:18:11.002Z</time></trkpt><trkpt lat="43.4239401833125" lon="-3.522302588542035"><ele>3.9999999999999996</ele><time>2026-04-30T16:18:12.002Z</time></trkpt><trkpt lat="43.423968705965905" lon="-3.5223846373477605"><ele>4.0</ele><time>2026-04-30T16:18:13.002Z</time></trkpt><trkpt lat="43.423991213660535" lon="-3.522473062491489"><ele>4.0</ele><time>2026-04-30T16:18:14.002Z</time></trkpt><trkpt lat="43.423971102159626" lon="-3.522584022143347"><ele>4.333333333333333</ele><time>2026-04-30T16:18:15.002Z</time></trkpt><trkpt lat="43.42395203601791" lon="-3.5226873416041484"><ele>4.666666666666666</ele><time>2026-04-30T16:18:16.002Z</time></trkpt><trkpt lat="43.423931043201556" lon="-3.522808559407087"><ele>5.0</ele><time>2026-04-30T16:18:17.002Z</time></trkpt><trkpt lat="43.42391742359691" lon="-3.5229248172659444"><ele>5.333333333333333</ele><time>2026-04-30T16:18:18.002Z</time></trkpt><trkpt lat="43.423907907162516" lon="-3.523041958701016"><ele>5.666666666666667</ele><time>2026-04-30T16:18:19.002Z</time></trkpt><trkpt lat="43.4239065803057" lon="-3.523156844302804"><ele>6.0</ele><time>2026-04-30T16:18:20.002Z</time></trkpt><trkpt lat="43.42391284650359" lon="-3.5232718979983098"><ele>7.0</ele><time>2026-04-30T16:18:21.002Z</time></trkpt><trkpt lat="43.423914842143994" lon="-3.5233914126167667"><ele>8.0</ele><time>2026-04-30T16:18:22.002Z</time></trkpt><trkpt lat="43.42391745893869" lon="-3.523513258693257"><ele>9.0</ele><time>2026-04-30T16:18:23.002Z</time></trkpt><trkpt lat="43.423918622285704" lon="-3.5236377235013077"><ele>10.0</ele><time>2026-04-30T16:18:24.002Z</time></trkpt><trkpt lat="43.42392155439674" lon="-3.523759769440797"><ele>11.0</ele><time>2026-04-30T16:18:25.002Z</time></trkpt><trkpt lat="43.423923387171456" lon="-3.523885202574491"><ele>12.0</ele><time>2026-04-30T16:18:26.002Z</time></trkpt><trkpt lat="43.42392806486537" lon="-3.524010387508481"><ele>12.8</ele><time>2026-04-30T16:18:27.002Z</time></trkpt><trkpt lat="43.42393548943727" lon="-3.5241341952813277"><ele>13.6</ele><time>2026-04-30T16:18:28.002Z</time></trkpt><trkpt lat="43.423940131684446" lon="-3.5242596123307437"><ele>14.400000000000002</ele><time>2026-04-30T16:18:29.002Z</time></trkpt><trkpt lat="43.42394505730776" lon="-3.52438379182688"><ele>15.200000000000001</ele><time>2026-04-30T16:18:30.002Z</time></trkpt><trkpt lat="43.42395425668957" lon="-3.524510902271641"><ele>16.0</ele><time>2026-04-30T16:18:31.002Z</time></trkpt><trkpt lat="43.42396751991477" lon="-3.524630062818739"><ele>16.833333333333332</ele><time>2026-04-30T16:18:32.002Z</time></trkpt><trkpt lat="43.42397760419291" lon="-3.524751873376684"><ele>17.666666666666664</ele><time>2026-04-30T16:18:33.002Z</time></trkpt><trkpt lat="43.42398833013027" lon="-3.5248750577678005"><ele>18.5</ele><time>2026-04-30T16:18:34.002Z</time></trkpt><trkpt lat="43.4240006099594" lon="-3.5249991681392894"><ele>19.333333333333332</ele><time>2026-04-30T16:18:35.002Z</time></trkpt><trkpt lat="43.424014811142115" lon="-3.525118925673766"><ele>20.166666666666668</ele><time>2026-04-30T16:18:36.002Z</time></trkpt><trkpt lat="43.42403143801793" lon="-3.5252399204579974"><ele>21.0</ele><time>2026-04-30T16:18:37.002Z</time></trkpt><trkpt lat="43.42404984789788" lon="-3.5253561416270998"><ele>21.333333333333332</ele><time>2026-04-30T16:18:38.002Z</time></trkpt><trkpt lat="43.42406729338165" lon="-3.5254750086781734"><ele>21.666666666666668</ele><time>2026-04-30T16:18:39.002Z</time></trkpt><trkpt lat="43.4240872901241" lon="-3.5255908206307645"><ele>22.0</ele><time>2026-04-30T16:18:40.002Z</time></trkpt><trkpt lat="43.4241092264532" lon="-3.52570770144387"><ele>22.333333333333336</ele><time>2026-04-30T16:18:41.002Z</time></trkpt><trkpt lat="43.424136499045204" lon="-3.5258234302170623"><ele>22.666666666666668</ele><time>2026-04-30T16:18:42.002Z</time></trkpt><trkpt lat="43.424163927511245" lon="-3.525936926984458"><ele>23.0</ele><time>2026-04-30T16:18:43.002Z</time></trkpt><trkpt lat="43.424192195319705" lon="-3.526053817571582"><ele>23.0</ele><time>2026-04-30T16:18:44.002Z</time></trkpt><trkpt lat="43.42422051550401" lon="-3.526170851577402"><ele>23.0</ele><time>2026-04-30T16:18:45.002Z</time></trkpt><trkpt lat="43.42424719319233" lon="-3.526287414182778"><ele>23.0</ele><time>2026-04-30T16:18:46.002Z</time></trkpt><trkpt lat="43.42427219919976" lon="-3.5264015227083356"><ele>23.0</ele><time>2026-04-30T16:18:47.002Z</time></trkpt><trkpt lat="43.42430001753676" lon="-3.5265138828106277"><ele>23.0</ele><time>2026-04-30T16:18:48.002Z</time></trkpt><trkpt lat="43.42432518663731" lon="-3.526629823621327"><ele>23.0</ele><time>2026-04-30T16:18:49.002Z</time></trkpt><trkpt lat="43.42434892399875" lon="-3.5267429579992062"><ele>22.333333333333336</ele><time>2026-04-30T16:18:50.002Z</time></trkpt><trkpt lat="43.42436806336012" lon="-3.5268592108249335"><ele>21.666666666666668</ele><time>2026-04-30T16:18:51.002Z</time></trkpt><trkpt lat="43.42438070673849" lon="-3.52697768676042"><ele>21.0</ele><time>2026-04-30T16:18:52.002Z</time></trkpt><trkpt lat="43.42438356382215" lon="-3.527097075186474"><ele>20.333333333333332</ele><time>2026-04-30T16:18:53.002Z</time></trkpt><trkpt lat="43.42437956037322" lon="-3.527218207873886"><ele>19.666666666666664</ele><time>2026-04-30T16:18:54.002Z</time></trkpt><trkpt lat="43.42436417278973" lon="-3.527339050260576"><ele>19.0</ele><time>2026-04-30T16:18:55.002Z</time></trkpt><trkpt lat="43.424348497533735" lon="-3.5274581993351175"><ele>19.0</ele><time>2026-04-30T16:18:56.002Z</time></trkpt><trkpt lat="43.424324747732015" lon="-3.527578699360433"><ele>19.0</ele><time>2026-04-30T16:18:57.003Z</time></trkpt><trkpt lat="43.424294257257856" lon="-3.5276947701588446"><ele>19.0</ele><time>2026-04-30T16:18:58.003Z</time></trkpt><trkpt lat="43.424253399406744" lon="-3.5278080324582572"><ele>19.0</ele><time>2026-04-30T16:18:59.003Z</time></trkpt><trkpt lat="43.4242056988197" lon="-3.5279182070995225"><ele>19.0</ele><time>2026-04-30T16:19:00.003Z</time></trkpt><trkpt lat="43.42415232916696" lon="-3.5280236711395094"><ele>19.6</ele><time>2026-04-30T16:19:01.003Z</time></trkpt><trkpt lat="43.42409592398345" lon="-3.5281277498433936"><ele>20.2</ele><time>2026-04-30T16:19:02.003Z</time></trkpt><trkpt lat="43.42403073436427" lon="-3.5282215834458106"><ele>20.8</ele><time>2026-04-30T16:19:03.003Z</time></trkpt><trkpt lat="43.4239606588858" lon="-3.5283138606305875"><ele>21.400000000000002</ele><time>2026-04-30T16:19:04.003Z</time></trkpt><trkpt lat="43.42388304461054" lon="-3.5283987817791393"><ele>22.0</ele><time>2026-04-30T16:19:05Z</time></trkpt><trkpt lat="43.42380440475494" lon="-3.528483313597352"><ele>20.400000000000002</ele><time>2026-04-30T16:19:06Z</time></trkpt><trkpt lat="43.42372554872888" lon="-3.5285694471885463"><ele>18.8</ele><time>2026-04-30T16:19:07Z</time></trkpt><trkpt lat="43.42364837037116" lon="-3.528656269029465"><ele>17.2</ele><time>2026-04-30T16:19:08Z</time></trkpt><trkpt lat="43.423572368805296" lon="-3.528745409820454"><ele>15.6</ele><time>2026-04-30T16:19:09Z</time></trkpt><trkpt lat="43.423497973246334" lon="-3.528835487847428"><ele>14.0</ele><time>2026-04-30T16:19:10Z</time></trkpt><trkpt lat="43.42342515417235" lon="-3.528931097478672"><ele>14.0</ele><time>2026-04-30T16:19:11Z</time></trkpt><trkpt lat="43.42335589986776" lon="-3.5290302417334556"><ele>13.999999999999998</ele><time>2026-04-30T16:19:12Z</time></trkpt><trkpt lat="43.423289634830006" lon="-3.529134366235097"><ele>13.999999999999998</ele><time>2026-04-30T16:19:13Z</time></trkpt><trkpt lat="43.4232284771244" lon="-3.5292439188358005"><ele>14.0</ele><time>2026-04-30T16:19:14Z</time></trkpt><trkpt lat="43.42317683707126" lon="-3.52936094996206"><ele>14.0</ele><time>2026-04-30T16:19:15Z</time></trkpt><trkpt lat="43.42313545339392" lon="-3.529486976978671"><ele>14.0</ele><time>2026-04-30T16:19:16Z</time></trkpt><trkpt lat="43.423107484651325" lon="-3.529629361168172"><ele>13.999999999999998</ele><time>2026-04-30T16:19:17Z</time></trkpt><trkpt lat="43.42307994399917" lon="-3.5297679394614074"><ele>13.999999999999998</ele><time>2026-04-30T16:19:18Z</time></trkpt><trkpt lat="43.42306115516156" lon="-3.5299140506460325"><ele>14.0</ele><time>2026-04-30T16:19:19Z</time></trkpt><trkpt lat="43.42304581109795" lon="-3.5300634975633147"><ele>14.0</ele><time>2026-04-30T16:19:20Z</time></trkpt><trkpt lat="43.42302770139107" lon="-3.5302144800196804"><ele>14.0</ele><time>2026-04-30T16:19:21Z</time></trkpt><trkpt lat="43.42301039737227" lon="-3.53036638928342"><ele>14.0</ele><time>2026-04-30T16:19:22Z</time></trkpt><trkpt lat="43.4229930050663" lon="-3.5305207424966607"><ele>14.0</ele><time>2026-04-30T16:19:23Z</time></trkpt><trkpt lat="43.422971767027434" lon="-3.5306751491773123"><ele>14.0</ele><time>2026-04-30T16:19:24Z</time></trkpt><trkpt lat="43.42295337107037" lon="-3.5308279847251103"><ele>13.75</ele><time>2026-04-30T16:19:25Z</time></trkpt><trkpt lat="43.42292901921256" lon="-3.530980887611906"><ele>13.5</ele><time>2026-04-30T16:19:26Z</time></trkpt><trkpt lat="43.42290878155778" lon="-3.531133017887111"><ele>13.25</ele><time>2026-04-30T16:19:27Z</time></trkpt><trkpt lat="43.422885210027935" lon="-3.5312869328951826"><ele>13.0</ele><time>2026-04-30T16:19:28Z</time></trkpt><trkpt lat="43.42285982205832" lon="-3.5314360138227006"><ele>13.8</ele><time>2026-04-30T16:19:29Z</time></trkpt><trkpt lat="43.42282877759086" lon="-3.5315771642589793"><ele>14.600000000000001</ele><time>2026-04-30T16:19:30Z</time></trkpt><trkpt lat="43.42280084874514" lon="-3.5317093368255654"><ele>15.399999999999999</ele><time>2026-04-30T16:19:31Z</time></trkpt><trkpt lat="43.42276995487679" lon="-3.5318279845143326"><ele>16.2</ele><time>2026-04-30T16:19:32Z</time></trkpt><trkpt lat="43.422743449671984" lon="-3.531937067551702"><ele>17.0</ele><time>2026-04-30T16:19:33.001Z</time></trkpt><trkpt lat="43.42271998306554" lon="-3.5320436486095383"><ele>16.666666666666668</ele><time>2026-04-30T16:19:34.001Z</time></trkpt><trkpt lat="43.422702221801195" lon="-3.5321591642695656"><ele>16.333333333333336</ele><time>2026-04-30T16:19:35.001Z</time></trkpt><trkpt lat="43.422708691014826" lon="-3.532280023758183"><ele>16.0</ele><time>2026-04-30T16:19:36.001Z</time></trkpt><trkpt lat="43.42272375660497" lon="-3.532392884225337"><ele>15.666666666666668</ele><time>2026-04-30T16:19:37.001Z</time></trkpt><trkpt lat="43.42273008807328" lon="-3.532518257808499"><ele>15.333333333333334</ele><time>2026-04-30T16:19:38.001Z</time></trkpt><trkpt lat="43.422728272464646" lon="-3.5326223826241328"><ele>15.0</ele><time>2026-04-30T16:19:39.001Z</time></trkpt><trkpt lat="43.42269610412089" lon="-3.532728712562309"><ele>15.0</ele><time>2026-04-30T16:19:40.001Z</time></trkpt><trkpt lat="43.42263466630296" lon="-3.532811277700587"><ele>15.0</ele><time>2026-04-30T16:19:41.001Z</time></trkpt><trkpt lat="43.42256219666289" lon="-3.532883529193314"><ele>15.0</ele><time>2026-04-30T16:19:42.001Z</time></trkpt><trkpt lat="43.42248432901335" lon="-3.5329575402695923"><ele>15.0</ele><time>2026-04-30T16:19:43.001Z</time></trkpt><trkpt lat="43.42242451097617" lon="-3.533057744289958"><ele>15.0</ele><time>2026-04-30T16:19:44.001Z</time></trkpt><trkpt lat="43.42238906718599" lon="-3.5331807746552473"><ele>14.8</ele><time>2026-04-30T16:19:45.001Z</time></trkpt><trkpt lat="43.422365045971915" lon="-3.533302577745374"><ele>14.6</ele><time>2026-04-30T16:19:46.001Z</time></trkpt><trkpt lat="43.42233463291069" lon="-3.5334251298467865"><ele>14.399999999999999</ele><time>2026-04-30T16:19:47.001Z</time></trkpt><trkpt lat="43.4222991625614" lon="-3.5335461793503042"><ele>14.2</ele><time>2026-04-30T16:19:48.001Z</time></trkpt><trkpt lat="43.422264940650884" lon="-3.5336669658565976"><ele>14.0</ele><time>2026-04-30T16:19:49.001Z</time></trkpt><trkpt lat="43.422228737630505" lon="-3.5337862734204815"><ele>13.799999999999999</ele><time>2026-04-30T16:19:50.001Z</time></trkpt><trkpt lat="43.422191781730604" lon="-3.5339053547915924"><ele>13.599999999999998</ele><time>2026-04-30T16:19:51.001Z</time></trkpt><trkpt lat="43.42215618578699" lon="-3.534028526762961"><ele>13.4</ele><time>2026-04-30T16:19:52.001Z</time></trkpt><trkpt lat="43.422123057605226" lon="-3.5341516719942785"><ele>13.2</ele><time>2026-04-30T16:19:53.001Z</time></trkpt><trkpt lat="43.4220897403991" lon="-3.5342717474283947"><ele>13.0</ele><time>2026-04-30T16:19:54.001Z</time></trkpt><trkpt lat="43.42205246153806" lon="-3.534397429671694"><ele>12.8</ele><time>2026-04-30T16:19:55.001Z</time></trkpt><trkpt lat="43.42201636697514" lon="-3.5345221442548422"><ele>12.600000000000001</ele><time>2026-04-30T16:19:56.001Z</time></trkpt><trkpt lat="43.421980618027426" lon="-3.5346462678634163"><ele>12.399999999999999</ele><time>2026-04-30T16:19:57.001Z</time></trkpt><trkpt lat="43.421944283609555" lon="-3.534771039641213"><ele>12.2</ele><time>2026-04-30T16:19:58.001Z</time></trkpt><trkpt lat="43.421909171827366" lon="-3.5348987167525254"><ele>12.0</ele><time>2026-04-30T16:19:59.001Z</time></trkpt><trkpt lat="43.4218736545439" lon="-3.5350266226670763"><ele>11.8</ele><time>2026-04-30T16:20:00.001Z</time></trkpt><trkpt lat="43.4218368994675" lon="-3.5351485315118394"><ele>11.6</ele><time>2026-04-30T16:20:01.001Z</time></trkpt><trkpt lat="43.42180215184384" lon="-3.535273785386718"><ele>11.4</ele><time>2026-04-30T16:20:02.001Z</time></trkpt><trkpt lat="43.421767693160795" lon="-3.5354021031277982"><ele>11.200000000000001</ele><time>2026-04-30T16:20:03.001Z</time></trkpt><trkpt lat="43.42173095720649" lon="-3.5355256643702626"><ele>11.0</ele><time>2026-04-30T16:20:04.001Z</time></trkpt><trkpt lat="43.421696421484775" lon="-3.5356445636340004"><ele>11.0</ele><time>2026-04-30T16:20:05.001Z</time></trkpt><trkpt lat="43.42165756347821" lon="-3.535769954679897"><ele>11.0</ele><time>2026-04-30T16:20:06.001Z</time></trkpt><trkpt lat="43.421621539985956" lon="-3.5358947890651184"><ele>11.0</ele><time>2026-04-30T16:20:07.001Z</time></trkpt><trkpt lat="43.42158573960254" lon="-3.5360211942595114"><ele>11.0</ele><time>2026-04-30T16:20:08.001Z</time></trkpt><trkpt lat="43.42154969888607" lon="-3.5361433884053612"><ele>11.0</ele><time>2026-04-30T16:20:09.001Z</time></trkpt><trkpt lat="43.42151407778095" lon="-3.5362708677811328"><ele>11.600000000000001</ele><time>2026-04-30T16:20:10.001Z</time></trkpt><trkpt lat="43.42147723582044" lon="-3.5363908345648096"><ele>12.2</ele><time>2026-04-30T16:20:11.001Z</time></trkpt><trkpt lat="43.42144133881764" lon="-3.53651584256117"><ele>12.799999999999999</ele><time>2026-04-30T16:20:12.001Z</time></trkpt><trkpt lat="43.4214068280786" lon="-3.536641938359449"><ele>13.399999999999999</ele><time>2026-04-30T16:20:13.001Z</time></trkpt><trkpt lat="43.421370313546475" lon="-3.5367610071532907"><ele>14.0</ele><time>2026-04-30T16:20:14.001Z</time></trkpt><trkpt lat="43.42133535984763" lon="-3.5368852730292524"><ele>14.2</ele><time>2026-04-30T16:20:15.001Z</time></trkpt><trkpt lat="43.42129941588502" lon="-3.53700343405918"><ele>14.399999999999999</ele><time>2026-04-30T16:20:16.001Z</time></trkpt><trkpt lat="43.42126319745603" lon="-3.537121061284054"><ele>14.6</ele><time>2026-04-30T16:20:17.001Z</time></trkpt><trkpt lat="43.4212305210787" lon="-3.5372434145548066"><ele>14.8</ele><time>2026-04-30T16:20:18.001Z</time></trkpt><trkpt lat="43.42119724076867" lon="-3.5373572474418196"><ele>15.0</ele><time>2026-04-30T16:20:19.001Z</time></trkpt><trkpt lat="43.421163602647376" lon="-3.5374752323830565"><ele>15.0</ele><time>2026-04-30T16:20:20.001Z</time></trkpt><trkpt lat="43.4211317685304" lon="-3.537593338381468"><ele>15.0</ele><time>2026-04-30T16:20:21.001Z</time></trkpt><trkpt lat="43.42109935367213" lon="-3.5377103797255254"><ele>15.0</ele><time>2026-04-30T16:20:22.001Z</time></trkpt><trkpt lat="43.42106578038747" lon="-3.537824524887336"><ele>15.0</ele><time>2026-04-30T16:20:23.001Z</time></trkpt><trkpt lat="43.421030852641515" lon="-3.537940827124536"><ele>15.0</ele><time>2026-04-30T16:20:24.001Z</time></trkpt><trkpt lat="43.420996843582266" lon="-3.538056064877351"><ele>15.166666666666666</ele><time>2026-04-30T16:20:25.001Z</time></trkpt><trkpt lat="43.42096247548931" lon="-3.5381718472292163"><ele>15.333333333333332</ele><time>2026-04-30T16:20:26.001Z</time></trkpt><trkpt lat="43.42092962649063" lon="-3.538286774411488"><ele>15.5</ele><time>2026-04-30T16:20:27.001Z</time></trkpt><trkpt lat="43.4208984500891" lon="-3.5384014685987397"><ele>15.666666666666666</ele><time>2026-04-30T16:20:28.001Z</time></trkpt><trkpt lat="43.42086457592374" lon="-3.5385150470712037"><ele>15.833333333333332</ele><time>2026-04-30T16:20:29.002Z</time></trkpt><trkpt lat="43.42083657093048" lon="-3.538632099289291"><ele>16.0</ele><time>2026-04-30T16:20:30.002Z</time></trkpt><trkpt lat="43.42080364387036" lon="-3.5387430226682106"><ele>16.5</ele><time>2026-04-30T16:20:31.002Z</time></trkpt><trkpt lat="43.42077076127214" lon="-3.53886132519874"><ele>17.0</ele><time>2026-04-30T16:20:32.002Z</time></trkpt><trkpt lat="43.420739848148195" lon="-3.538972463496953"><ele>17.5</ele><time>2026-04-30T16:20:33.002Z</time></trkpt><trkpt lat="43.42070525163009" lon="-3.539088024788665"><ele>18.0</ele><time>2026-04-30T16:20:34.002Z</time></trkpt><trkpt lat="43.42067090022937" lon="-3.539199445552019"><ele>18.5</ele><time>2026-04-30T16:20:35.002Z</time></trkpt><trkpt lat="43.420639253581804" lon="-3.5393120122552917"><ele>19.0</ele><time>2026-04-30T16:20:36.002Z</time></trkpt><trkpt lat="43.42060751858207" lon="-3.539425715798518"><ele>19.0</ele><time>2026-04-30T16:20:37.002Z</time></trkpt><trkpt lat="43.420576621683644" lon="-3.5395377035596423"><ele>19.0</ele><time>2026-04-30T16:20:38.002Z</time></trkpt><trkpt lat="43.42054813816994" lon="-3.539649807823067"><ele>19.0</ele><time>2026-04-30T16:20:39.002Z</time></trkpt><trkpt lat="43.420515709420535" lon="-3.539762245516354"><ele>19.0</ele><time>2026-04-30T16:20:40.002Z</time></trkpt><trkpt lat="43.4204844928398" lon="-3.539872028673867"><ele>19.0</ele><time>2026-04-30T16:20:41.002Z</time></trkpt><trkpt lat="43.420453150881876" lon="-3.5399795326298373"><ele>19.0</ele><time>2026-04-30T16:20:42.002Z</time></trkpt><trkpt lat="43.42042307378198" lon="-3.540083763558349"><ele>19.166666666666664</ele><time>2026-04-30T16:20:43.002Z</time></trkpt><trkpt lat="43.42039218700176" lon="-3.5401874660715476"><ele>19.333333333333332</ele><time>2026-04-30T16:20:44.002Z</time></trkpt><trkpt lat="43.42036150202537" lon="-3.5402911796663075"><ele>19.5</ele><time>2026-04-30T16:20:45.002Z</time></trkpt><trkpt lat="43.42033282106322" lon="-3.5403910134074503"><ele>19.666666666666668</ele><time>2026-04-30T16:20:46.002Z</time></trkpt><trkpt lat="43.42030537884074" lon="-3.54048855077893"><ele>19.833333333333336</ele><time>2026-04-30T16:20:47.002Z</time></trkpt><trkpt lat="43.42027776234279" lon="-3.540586984067003"><ele>20.0</ele><time>2026-04-30T16:20:48.002Z</time></trkpt><trkpt lat="43.42025112812226" lon="-3.5406818272719045"><ele>20.857142857142858</ele><time>2026-04-30T16:20:49.002Z</time></trkpt><trkpt lat="43.4202252099967" lon="-3.5407751188296346"><ele>21.714285714285715</ele><time>2026-04-30T16:20:50.002Z</time></trkpt><trkpt lat="43.42019854633746" lon="-3.5408700352685183"><ele>22.57142857142857</ele><time>2026-04-30T16:20:51.002Z</time></trkpt><trkpt lat="43.4201724904375" lon="-3.5409665973565567"><ele>23.42857142857143</ele><time>2026-04-30T16:20:52.002Z</time></trkpt><trkpt lat="43.4201448069226" lon="-3.5410514168661993"><ele>24.28571428571429</ele><time>2026-04-30T16:20:53.002Z</time></trkpt><trkpt lat="43.420120544821344" lon="-3.5411466409490284"><ele>25.142857142857142</ele><time>2026-04-30T16:20:54.002Z</time></trkpt><trkpt lat="43.420093083414606" lon="-3.5412358001701882"><ele>26.0</ele><time>2026-04-30T16:20:55.002Z</time></trkpt><trkpt lat="43.42006552623594" lon="-3.541326013155912"><ele>26.285714285714285</ele><time>2026-04-30T16:20:56.002Z</time></trkpt><trkpt lat="43.42003958103695" lon="-3.5414166498098747"><ele>26.571428571428573</ele><time>2026-04-30T16:20:57.002Z</time></trkpt><trkpt lat="43.42001180461374" lon="-3.541505519364129"><ele>26.857142857142858</ele><time>2026-04-30T16:20:58.002Z</time></trkpt><trkpt lat="43.41998310656442" lon="-3.54159200623222"><ele>27.142857142857142</ele><time>2026-04-30T16:20:59.002Z</time></trkpt><trkpt lat="43.41995571155813" lon="-3.541681188983013"><ele>27.42857142857143</ele><time>2026-04-30T16:21:00.002Z</time></trkpt><trkpt lat="43.41992782104795" lon="-3.541762904094064"><ele>27.714285714285715</ele><time>2026-04-30T16:21:01.002Z</time></trkpt><trkpt lat="43.419897412586856" lon="-3.5418530567894955"><ele>28.0</ele><time>2026-04-30T16:21:02.002Z</time></trkpt><trkpt lat="43.41986678574028" lon="-3.5419390736974177"><ele>28.0</ele><time>2026-04-30T16:21:03.002Z</time></trkpt><trkpt lat="43.41984043561894" lon="-3.54201862890369"><ele>28.0</ele><time>2026-04-30T16:21:04.002Z</time></trkpt><trkpt lat="43.419806881746446" lon="-3.542112247139763"><ele>28.0</ele><time>2026-04-30T16:21:05.002Z</time></trkpt><trkpt lat="43.41977395412432" lon="-3.5421984804175652"><ele>28.0</ele><time>2026-04-30T16:21:06.002Z</time></trkpt><trkpt lat="43.41974548845611" lon="-3.542285677058445"><ele>28.0</ele><time>2026-04-30T16:21:07.002Z</time></trkpt><trkpt lat="43.41971411616384" lon="-3.5423718010612646"><ele>28.0</ele><time>2026-04-30T16:21:08.002Z</time></trkpt><trkpt lat="43.419677692253764" lon="-3.5424596671745148"><ele>28.0</ele><time>2026-04-30T16:21:09.002Z</time></trkpt><trkpt lat="43.41964629654987" lon="-3.5425474481980745"><ele>28.833333333333336</ele><time>2026-04-30T16:21:10.002Z</time></trkpt><trkpt lat="43.419610531102954" lon="-3.5426353397424313"><ele>29.666666666666668</ele><time>2026-04-30T16:21:11Z</time></trkpt><trkpt lat="43.41957415784565" lon="-3.542723741104068"><ele>30.5</ele><time>2026-04-30T16:21:12Z</time></trkpt><trkpt lat="43.419535368721036" lon="-3.5428142006491847"><ele>31.333333333333336</ele><time>2026-04-30T16:21:13Z</time></trkpt><trkpt lat="43.419501331122206" lon="-3.542908290136014"><ele>32.166666666666664</ele><time>2026-04-30T16:21:14Z</time></trkpt><trkpt lat="43.41946576885417" lon="-3.543002463739312"><ele>33.0</ele><time>2026-04-30T16:21:15Z</time></trkpt><trkpt lat="43.41942450971802" lon="-3.543097225013146"><ele>33.333333333333336</ele><time>2026-04-30T16:21:16Z</time></trkpt><trkpt lat="43.41938515838061" lon="-3.5431951015716625"><ele>33.666666666666664</ele><time>2026-04-30T16:21:17Z</time></trkpt><trkpt lat="43.41934289312957" lon="-3.543291616545002"><ele>34.0</ele><time>2026-04-30T16:21:18Z</time></trkpt><trkpt lat="43.41929707907793" lon="-3.543391032642842"><ele>34.33333333333333</ele><time>2026-04-30T16:21:19Z</time></trkpt><trkpt lat="43.419252525711094" lon="-3.543491650316505"><ele>34.666666666666664</ele><time>2026-04-30T16:21:20Z</time></trkpt><trkpt lat="43.41920874748447" lon="-3.543592814937355"><ele>35.0</ele><time>2026-04-30T16:21:21Z</time></trkpt><trkpt lat="43.41916510738878" lon="-3.543690114481249"><ele>34.83333333333333</ele><time>2026-04-30T16:21:22Z</time></trkpt><trkpt lat="43.419118844441954" lon="-3.543786451939164"><ele>34.666666666666664</ele><time>2026-04-30T16:21:23Z</time></trkpt><trkpt lat="43.41907707618335" lon="-3.543888231610756"><ele>34.5</ele><time>2026-04-30T16:21:24Z</time></trkpt><trkpt lat="43.41903485251302" lon="-3.5439895279084768"><ele>34.333333333333336</ele><time>2026-04-30T16:21:25Z</time></trkpt><trkpt lat="43.41898784351157" lon="-3.5440941277079987"><ele>34.16666666666667</ele><time>2026-04-30T16:21:26Z</time></trkpt><trkpt lat="43.41894209649573" lon="-3.544199712360179"><ele>34.0</ele><time>2026-04-30T16:21:27Z</time></trkpt><trkpt lat="43.41889552092308" lon="-3.5443058518899435"><ele>34.0</ele><time>2026-04-30T16:21:28Z</time></trkpt><trkpt lat="43.4188510541552" lon="-3.5444163397137776"><ele>34.0</ele><time>2026-04-30T16:21:29Z</time></trkpt><trkpt lat="43.418809939388844" lon="-3.544525928975228"><ele>34.0</ele><time>2026-04-30T16:21:30Z</time></trkpt><trkpt lat="43.41877138540659" lon="-3.544646951735421"><ele>34.0</ele><time>2026-04-30T16:21:31Z</time></trkpt><trkpt lat="43.418732328749236" lon="-3.544764806105752"><ele>34.0</ele><time>2026-04-30T16:21:32Z</time></trkpt><trkpt lat="43.41869730785271" lon="-3.54488856601253"><ele>33.2</ele><time>2026-04-30T16:21:33Z</time></trkpt><trkpt lat="43.41866720038393" lon="-3.5450134621877525"><ele>32.4</ele><time>2026-04-30T16:21:34Z</time></trkpt><trkpt lat="43.41863700900581" lon="-3.5451367352379366"><ele>31.6</ele><time>2026-04-30T16:21:35Z</time></trkpt><trkpt lat="43.41860426227047" lon="-3.545260099308342"><ele>30.8</ele><time>2026-04-30T16:21:36Z</time></trkpt><trkpt lat="43.41857518283479" lon="-3.5453832801477883"><ele>30.0</ele><time>2026-04-30T16:21:37Z</time></trkpt><trkpt lat="43.41854345862974" lon="-3.545509473268075"><ele>29.8</ele><time>2026-04-30T16:21:38Z</time></trkpt><trkpt lat="43.41851221712676" lon="-3.5456346346868792"><ele>29.6</ele><time>2026-04-30T16:21:39Z</time></trkpt><trkpt lat="43.41848106815756" lon="-3.5457594616679273"><ele>29.4</ele><time>2026-04-30T16:21:40Z</time></trkpt><trkpt lat="43.41845351075395" lon="-3.5458853555966297"><ele>29.2</ele><time>2026-04-30T16:21:41Z</time></trkpt><trkpt lat="43.41842943310018" lon="-3.5460094973520535"><ele>29.0</ele><time>2026-04-30T16:21:42Z</time></trkpt><trkpt lat="43.41840334951406" lon="-3.5461346565929"><ele>29.0</ele><time>2026-04-30T16:21:43Z</time></trkpt><trkpt lat="43.41837761173514" lon="-3.546258734767459"><ele>29.0</ele><time>2026-04-30T16:21:44Z</time></trkpt><trkpt lat="43.41834771549638" lon="-3.5463791608716266"><ele>29.0</ele><time>2026-04-30T16:21:45Z</time></trkpt><trkpt lat="43.418317237991346" lon="-3.54649923238078"><ele>29.0</ele><time>2026-04-30T16:21:46Z</time></trkpt><trkpt lat="43.41828951227573" lon="-3.546617519807853"><ele>29.0</ele><time>2026-04-30T16:21:47Z</time></trkpt><trkpt lat="43.41826215139777" lon="-3.5467343084272804"><ele>28.999999999999996</ele><time>2026-04-30T16:21:48Z</time></trkpt><trkpt lat="43.41823440799972" lon="-3.546850577420072"><ele>29.0</ele><time>2026-04-30T16:21:49Z</time></trkpt><trkpt lat="43.41820313670917" lon="-3.546964660391809"><ele>29.0</ele><time>2026-04-30T16:21:50Z</time></trkpt><trkpt lat="43.418177547117644" lon="-3.5470759940885808"><ele>29.0</ele><time>2026-04-30T16:21:51Z</time></trkpt><trkpt lat="43.41814978513586" lon="-3.5471865875508657"><ele>28.999999999999996</ele><time>2026-04-30T16:21:52Z</time></trkpt><trkpt lat="43.41812290619582" lon="-3.5472977367908216"><ele>29.0</ele><time>2026-04-30T16:21:53.001Z</time></trkpt><trkpt lat="43.41809849326495" lon="-3.5474072562406858"><ele>29.499999999999996</ele><time>2026-04-30T16:21:54.001Z</time></trkpt><trkpt lat="43.41807116707385" lon="-3.5475140788039616"><ele>30.0</ele><time>2026-04-30T16:21:55.001Z</time></trkpt><trkpt lat="43.418044846012656" lon="-3.547619177674644"><ele>30.5</ele><time>2026-04-30T16:21:56.001Z</time></trkpt><trkpt lat="43.418015708952154" lon="-3.547722953801489"><ele>31.0</ele><time>2026-04-30T16:21:57.001Z</time></trkpt><trkpt lat="43.41798892980726" lon="-3.5478255228275573"><ele>31.499999999999996</ele><time>2026-04-30T16:21:58.001Z</time></trkpt><trkpt lat="43.417964464696325" lon="-3.5479311405842027"><ele>32.0</ele><time>2026-04-30T16:21:59.001Z</time></trkpt><trkpt lat="43.417937592923124" lon="-3.5480332562611974"><ele>32.33333333333333</ele><time>2026-04-30T16:22:00.001Z</time></trkpt><trkpt lat="43.41791269428301" lon="-3.5481378172224884"><ele>32.666666666666664</ele><time>2026-04-30T16:22:01.001Z</time></trkpt><trkpt lat="43.417885870270446" lon="-3.5482396279354096"><ele>33.0</ele><time>2026-04-30T16:22:02.001Z</time></trkpt><trkpt lat="43.4178586183894" lon="-3.548340506789145"><ele>33.333333333333336</ele><time>2026-04-30T16:22:03.001Z</time></trkpt><trkpt lat="43.41783249356381" lon="-3.5484433766087573"><ele>33.66666666666667</ele><time>2026-04-30T16:22:04.001Z</time></trkpt><trkpt lat="43.417806042414504" lon="-3.5485452771392154"><ele>34.0</ele><time>2026-04-30T16:22:05.001Z</time></trkpt><trkpt lat="43.41778160886232" lon="-3.548652195561303"><ele>35.0</ele><time>2026-04-30T16:22:06.001Z</time></trkpt><trkpt lat="43.4177554822203" lon="-3.548750261794792"><ele>36.0</ele><time>2026-04-30T16:22:07.001Z</time></trkpt><trkpt lat="43.41773157015345" lon="-3.5488543335597655"><ele>37.0</ele><time>2026-04-30T16:22:08.001Z</time></trkpt><trkpt lat="43.41771141324099" lon="-3.5489554158485137"><ele>38.0</ele><time>2026-04-30T16:22:09.001Z</time></trkpt><trkpt lat="43.41769959033147" lon="-3.549061881291272"><ele>39.0</ele><time>2026-04-30T16:22:10.001Z</time></trkpt><trkpt lat="43.417690092920296" lon="-3.549169283199872"><ele>40.0</ele><time>2026-04-30T16:22:11.001Z</time></trkpt><trkpt lat="43.41768288285699" lon="-3.5492759243815883"><ele>40.0</ele><time>2026-04-30T16:22:12.001Z</time></trkpt><trkpt lat="43.417680007023904" lon="-3.549384725313467"><ele>40.0</ele><time>2026-04-30T16:22:13.001Z</time></trkpt><trkpt lat="43.4176785441755" lon="-3.549490014166243"><ele>40.0</ele><time>2026-04-30T16:22:14.001Z</time></trkpt><trkpt lat="43.4176778659104" lon="-3.549597716218873"><ele>40.0</ele><time>2026-04-30T16:22:15.001Z</time></trkpt><trkpt lat="43.417679457627074" lon="-3.549705050824147"><ele>40.0</ele><time>2026-04-30T16:22:16.001Z</time></trkpt><trkpt lat="43.417683671831796" lon="-3.54980945572716"><ele>40.0</ele><time>2026-04-30T16:22:17.001Z</time></trkpt><trkpt lat="43.417687534984594" lon="-3.5499136177845205"><ele>41.0</ele><time>2026-04-30T16:22:18.001Z</time></trkpt><trkpt lat="43.41769259346844" lon="-3.5500203897981386"><ele>42.0</ele><time>2026-04-30T16:22:19.001Z</time></trkpt><trkpt lat="43.41769718702102" lon="-3.5501276315203154"><ele>43.0</ele><time>2026-04-30T16:22:20.001Z</time></trkpt><trkpt lat="43.417701742748854" lon="-3.550236242632181"><ele>44.0</ele><time>2026-04-30T16:22:21.001Z</time></trkpt><trkpt lat="43.41770782699355" lon="-3.550341517640444"><ele>45.0</ele><time>2026-04-30T16:22:22.001Z</time></trkpt><trkpt lat="43.41771660633366" lon="-3.550444964426266"><ele>46.0</ele><time>2026-04-30T16:22:23.001Z</time></trkpt><trkpt lat="43.41772730501307" lon="-3.550553790039094"><ele>47.0</ele><time>2026-04-30T16:22:24.001Z</time></trkpt><trkpt lat="43.417739044105396" lon="-3.5506593963208197"><ele>48.0</ele><time>2026-04-30T16:22:25.001Z</time></trkpt><trkpt lat="43.417751167140004" lon="-3.5507648257199755"><ele>49.0</ele><time>2026-04-30T16:22:26.001Z</time></trkpt><trkpt lat="43.41776522457537" lon="-3.5508692500662065"><ele>50.0</ele><time>2026-04-30T16:22:27.001Z</time></trkpt><trkpt lat="43.417780636864876" lon="-3.5509761901251755"><ele>50.99999999999999</ele><time>2026-04-30T16:22:28.001Z</time></trkpt><trkpt lat="43.41779746313275" lon="-3.55108023737984"><ele>52.0</ele><time>2026-04-30T16:22:29.001Z</time></trkpt><trkpt lat="43.41781311237262" lon="-3.551185752333526"><ele>54.49999999999999</ele><time>2026-04-30T16:22:30.001Z</time></trkpt><trkpt lat="43.41783067551467" lon="-3.551289907565947"><ele>57.0</ele><time>2026-04-30T16:22:31.001Z</time></trkpt><trkpt lat="43.41784861942114" lon="-3.5513950733650956"><ele>59.5</ele><time>2026-04-30T16:22:32.001Z</time></trkpt><trkpt lat="43.417864130739446" lon="-3.5515019866385176"><ele>62.0</ele><time>2026-04-30T16:22:33.001Z</time></trkpt><trkpt lat="43.41787881495964" lon="-3.551604911839651"><ele>64.5</ele><time>2026-04-30T16:22:34.001Z</time></trkpt><trkpt lat="43.41789569471635" lon="-3.5517101973566096"><ele>67.0</ele><time>2026-04-30T16:22:35.001Z</time></trkpt><trkpt lat="43.41791274138048" lon="-3.5518194763937556"><ele>67.0</ele><time>2026-04-30T16:22:36.001Z</time></trkpt><trkpt lat="43.41792871398797" lon="-3.551925899009817"><ele>67.0</ele><time>2026-04-30T16:22:37.001Z</time></trkpt><trkpt lat="43.41794536575552" lon="-3.552031046929867"><ele>67.0</ele><time>2026-04-30T16:22:38.001Z</time></trkpt><trkpt lat="43.41796166791951" lon="-3.552136152714604"><ele>67.0</ele><time>2026-04-30T16:22:39.001Z</time></trkpt><trkpt lat="43.41797808212748" lon="-3.5522412985183762"><ele>67.0</ele><time>2026-04-30T16:22:40.001Z</time></trkpt><trkpt lat="43.41799506699286" lon="-3.552349459836677"><ele>67.0</ele><time>2026-04-30T16:22:41.001Z</time></trkpt><trkpt lat="43.418010987481416" lon="-3.5524557054918144"><ele>66.83333333333333</ele><time>2026-04-30T16:22:42.001Z</time></trkpt><trkpt lat="43.41802733304659" lon="-3.552562668867732"><ele>66.66666666666666</ele><time>2026-04-30T16:22:43.002Z</time></trkpt><trkpt lat="43.41804490132167" lon="-3.5526682851499087"><ele>66.5</ele><time>2026-04-30T16:22:44.002Z</time></trkpt><trkpt lat="43.41805818405421" lon="-3.5527754508710454"><ele>66.33333333333333</ele><time>2026-04-30T16:22:45.002Z</time></trkpt><trkpt lat="43.41807029204754" lon="-3.55288032071892"><ele>66.16666666666667</ele><time>2026-04-30T16:22:46.002Z</time></trkpt><trkpt lat="43.41808193428163" lon="-3.5529863973136977"><ele>66.0</ele><time>2026-04-30T16:22:47.002Z</time></trkpt><trkpt lat="43.41809147935409" lon="-3.5530908715476603"><ele>67.83333333333333</ele><time>2026-04-30T16:22:48.002Z</time></trkpt><trkpt lat="43.41809792295027" lon="-3.5531970062180145"><ele>69.66666666666667</ele><time>2026-04-30T16:22:49.002Z</time></trkpt><trkpt lat="43.4181015930724" lon="-3.553303755833252"><ele>71.5</ele><time>2026-04-30T16:22:50.002Z</time></trkpt><trkpt lat="43.418104367581996" lon="-3.553410718434079"><ele>73.33333333333334</ele><time>2026-04-30T16:22:51.002Z</time></trkpt><trkpt lat="43.41810662286866" lon="-3.5535213866458624"><ele>75.16666666666667</ele><time>2026-04-30T16:22:52.002Z</time></trkpt><trkpt lat="43.41810897902945" lon="-3.55363487109198"><ele>77.0</ele><time>2026-04-30T16:22:53.002Z</time></trkpt><trkpt lat="43.41810589628426" lon="-3.553746117756583"><ele>77.5</ele><time>2026-04-30T16:22:54.002Z</time></trkpt><trkpt lat="43.41809968612274" lon="-3.5538543424492905"><ele>78.0</ele><time>2026-04-30T16:22:55.002Z</time></trkpt><trkpt lat="43.41809076925415" lon="-3.5539598339805645"><ele>78.5</ele><time>2026-04-30T16:22:56.002Z</time></trkpt><trkpt lat="43.41807711139306" lon="-3.554069519676741"><ele>79.0</ele><time>2026-04-30T16:22:57.002Z</time></trkpt><trkpt lat="43.41806359147444" lon="-3.554180499542653"><ele>79.5</ele><time>2026-04-30T16:22:58.002Z</time></trkpt><trkpt lat="43.41804660415002" lon="-3.554292254321328"><ele>80.0</ele><time>2026-04-30T16:22:59.002Z</time></trkpt><trkpt lat="43.418023401200315" lon="-3.5544054573314625"><ele>80.0</ele><time>2026-04-30T16:23:00.002Z</time></trkpt><trkpt lat="43.417999590229364" lon="-3.5545184537859016"><ele>80.0</ele><time>2026-04-30T16:23:01.002Z</time></trkpt><trkpt lat="43.417972406001724" lon="-3.5546331908772317"><ele>80.0</ele><time>2026-04-30T16:23:02.002Z</time></trkpt><trkpt lat="43.41793999996521" lon="-3.55474458649593"><ele>80.0</ele><time>2026-04-30T16:23:03.002Z</time></trkpt><trkpt lat="43.4179029117736" lon="-3.5548601049153015"><ele>80.0</ele><time>2026-04-30T16:23:04.002Z</time></trkpt><trkpt lat="43.417862294218466" lon="-3.5549727477253588"><ele>80.0</ele><time>2026-04-30T16:23:05.002Z</time></trkpt><trkpt lat="43.41782075188841" lon="-3.555090052589728"><ele>79.2</ele><time>2026-04-30T16:23:06.002Z</time></trkpt><trkpt lat="43.417775022728364" lon="-3.5552053968446913"><ele>78.4</ele><time>2026-04-30T16:23:07.002Z</time></trkpt><trkpt lat="43.41772324021585" lon="-3.5553151340755984"><ele>77.6</ele><time>2026-04-30T16:23:08.002Z</time></trkpt><trkpt lat="43.4176681897544" lon="-3.555422881164221"><ele>76.8</ele><time>2026-04-30T16:23:09.002Z</time></trkpt><trkpt lat="43.41761158398875" lon="-3.555531792223351"><ele>76.0</ele><time>2026-04-30T16:23:10.002Z</time></trkpt><trkpt lat="43.41754931631593" lon="-3.5556384032320025"><ele>74.39999999999999</ele><time>2026-04-30T16:23:11.002Z</time></trkpt><trkpt lat="43.417481349828975" lon="-3.5557394575310144"><ele>72.8</ele><time>2026-04-30T16:23:12.002Z</time></trkpt><trkpt lat="43.417410334139774" lon="-3.5558310814772742"><ele>71.19999999999999</ele><time>2026-04-30T16:23:13.002Z</time></trkpt><trkpt lat="43.41733638817675" lon="-3.5559184587809036"><ele>69.6</ele><time>2026-04-30T16:23:14.002Z</time></trkpt><trkpt lat="43.41726448483163" lon="-3.5560015640284"><ele>68.0</ele><time>2026-04-30T16:23:15.002Z</time></trkpt><trkpt lat="43.41719379891978" lon="-3.5560858479469792"><ele>68.0</ele><time>2026-04-30T16:23:16.002Z</time></trkpt><trkpt lat="43.41711875615375" lon="-3.556174725442399"><ele>68.0</ele><time>2026-04-30T16:23:17Z</time></trkpt><trkpt lat="43.417040090971135" lon="-3.5562671139389583"><ele>68.0</ele><time>2026-04-30T16:23:18Z</time></trkpt><trkpt lat="43.41695996132658" lon="-3.556361693860251"><ele>68.0</ele><time>2026-04-30T16:23:19Z</time></trkpt><trkpt lat="43.41687999993678" lon="-3.5564516793972905"><ele>68.0</ele><time>2026-04-30T16:23:20Z</time></trkpt><trkpt lat="43.41680028091785" lon="-3.5565445229178168"><ele>67.0</ele><time>2026-04-30T16:23:21Z</time></trkpt><trkpt lat="43.41671769042713" lon="-3.55663593816365"><ele>66.0</ele><time>2026-04-30T16:23:22Z</time></trkpt><trkpt lat="43.4166330148374" lon="-3.5567272943951505"><ele>65.0</ele><time>2026-04-30T16:23:23Z</time></trkpt><trkpt lat="43.41654914380169" lon="-3.556817451562764"><ele>64.0</ele><time>2026-04-30T16:23:24Z</time></trkpt><trkpt lat="43.416465020937025" lon="-3.556910398197402"><ele>63.0</ele><time>2026-04-30T16:23:25Z</time></trkpt><trkpt lat="43.416381062548986" lon="-3.5570079834541777"><ele>62.0</ele><time>2026-04-30T16:23:26Z</time></trkpt><trkpt lat="43.416295910147426" lon="-3.5571004437702647"><ele>61.0</ele><time>2026-04-30T16:23:27Z</time></trkpt><trkpt lat="43.416208189252316" lon="-3.5571948050299853"><ele>60.0</ele><time>2026-04-30T16:23:28Z</time></trkpt><trkpt lat="43.41612248717219" lon="-3.557290719774562"><ele>59.0</ele><time>2026-04-30T16:23:29Z</time></trkpt><trkpt lat="43.41603734038092" lon="-3.557387061286028"><ele>58.0</ele><time>2026-04-30T16:23:30Z</time></trkpt><trkpt lat="43.41595064118148" lon="-3.557489770312091"><ele>58.0</ele><time>2026-04-30T16:23:31Z</time></trkpt><trkpt lat="43.41586523095885" lon="-3.557589330858556"><ele>58.0</ele><time>2026-04-30T16:23:32Z</time></trkpt><trkpt lat="43.415776513714" lon="-3.5576855989750036"><ele>58.0</ele><time>2026-04-30T16:23:33Z</time></trkpt><trkpt lat="43.415688086284405" lon="-3.5577833509113055"><ele>58.0</ele><time>2026-04-30T16:23:34Z</time></trkpt><trkpt lat="43.415599211654346" lon="-3.5578824640917914"><ele>57.25</ele><time>2026-04-30T16:23:35Z</time></trkpt><trkpt lat="43.41550876786616" lon="-3.557985403904786"><ele>56.5</ele><time>2026-04-30T16:23:36Z</time></trkpt><trkpt lat="43.415419099385765" lon="-3.5580873188814737"><ele>55.75</ele><time>2026-04-30T16:23:37Z</time></trkpt><trkpt lat="43.415329744750906" lon="-3.558193696766351"><ele>55.0</ele><time>2026-04-30T16:23:38Z</time></trkpt><trkpt lat="43.41524245684785" lon="-3.5582986356972106"><ele>55.0</ele><time>2026-04-30T16:23:39Z</time></trkpt><trkpt lat="43.41515622342302" lon="-3.55840801919013"><ele>55.0</ele><time>2026-04-30T16:23:40Z</time></trkpt><trkpt lat="43.41507084868313" lon="-3.5585235891213824"><ele>55.0</ele><time>2026-04-30T16:23:41Z</time></trkpt><trkpt lat="43.41499193656974" lon="-3.5586414985566144"><ele>55.0</ele><time>2026-04-30T16:23:42Z</time></trkpt><trkpt lat="43.414909470424924" lon="-3.5587579744616176"><ele>53.5</ele><time>2026-04-30T16:23:43Z</time></trkpt><trkpt lat="43.41483025616451" lon="-3.5588761086771243"><ele>52.0</ele><time>2026-04-30T16:23:44Z</time></trkpt><trkpt lat="43.41475691173323" lon="-3.558998477232405"><ele>50.5</ele><time>2026-04-30T16:23:45Z</time></trkpt><trkpt lat="43.41468641462466" lon="-3.559124652709862"><ele>49.0</ele><time>2026-04-30T16:23:46Z</time></trkpt><trkpt lat="43.41462855309604" lon="-3.5592577204159714"><ele>49.0</ele><time>2026-04-30T16:23:47Z</time></trkpt><trkpt lat="43.414564007869224" lon="-3.5593904630864537"><ele>49.0</ele><time>2026-04-30T16:23:48Z</time></trkpt><trkpt lat="43.41450688546259" lon="-3.559526107502386"><ele>49.0</ele><time>2026-04-30T16:23:49Z</time></trkpt><trkpt lat="43.41445487185443" lon="-3.5596595520923664"><ele>49.0</ele><time>2026-04-30T16:23:50Z</time></trkpt><trkpt lat="43.41439950551854" lon="-3.5597869660568544"><ele>49.0</ele><time>2026-04-30T16:23:51.001Z</time></trkpt><trkpt lat="43.414350627492155" lon="-3.5599169468016125"><ele>49.0</ele><time>2026-04-30T16:23:52.001Z</time></trkpt><trkpt lat="43.41430364310924" lon="-3.5600477072815075"><ele>49.0</ele><time>2026-04-30T16:23:53.001Z</time></trkpt><trkpt lat="43.414258063623514" lon="-3.560177650653314"><ele>49.0</ele><time>2026-04-30T16:23:54.001Z</time></trkpt><trkpt lat="43.41421298649298" lon="-3.5603054650698027"><ele>49.0</ele><time>2026-04-30T16:23:55.001Z</time></trkpt><trkpt lat="43.414171342998934" lon="-3.5604305520459083"><ele>49.0</ele><time>2026-04-30T16:23:56.001Z</time></trkpt><trkpt lat="43.41413193858215" lon="-3.560556847319032"><ele>49.0</ele><time>2026-04-30T16:23:57.001Z</time></trkpt><trkpt lat="43.4140915548067" lon="-3.56067644926539"><ele>49.0</ele><time>2026-04-30T16:23:58.001Z</time></trkpt><trkpt lat="43.414050822903654" lon="-3.560793994296022"><ele>49.0</ele><time>2026-04-30T16:23:59.001Z</time></trkpt><trkpt lat="43.41401217018968" lon="-3.560912279420329"><ele>49.0</ele><time>2026-04-30T16:24:00.001Z</time></trkpt><trkpt lat="43.41397421596036" lon="-3.5610311006266695"><ele>49.0</ele><time>2026-04-30T16:24:01.001Z</time></trkpt><trkpt lat="43.413940007217455" lon="-3.5611505443506424"><ele>49.2</ele><time>2026-04-30T16:24:02.001Z</time></trkpt><trkpt lat="43.413907459712306" lon="-3.5612693415135825"><ele>49.400000000000006</ele><time>2026-04-30T16:24:03.001Z</time></trkpt><trkpt lat="43.413877668553134" lon="-3.5613879030259956"><ele>49.6</ele><time>2026-04-30T16:24:04.001Z</time></trkpt><trkpt lat="43.413848483869494" lon="-3.5615065109593913"><ele>49.8</ele><time>2026-04-30T16:24:05.001Z</time></trkpt><trkpt lat="43.41382371749925" lon="-3.5616219276329666"><ele>50.0</ele><time>2026-04-30T16:24:06.001Z</time></trkpt><trkpt lat="43.41380206432612" lon="-3.5617419123235066"><ele>51.50000000000001</ele><time>2026-04-30T16:24:07.001Z</time></trkpt><trkpt lat="43.413779631445266" lon="-3.5618609176930547"><ele>53.0</ele><time>2026-04-30T16:24:08.001Z</time></trkpt><trkpt lat="43.41376030610902" lon="-3.5619806577274393"><ele>54.5</ele><time>2026-04-30T16:24:09.001Z</time></trkpt><trkpt lat="43.41374306655459" lon="-3.562101404158596"><ele>56.0</ele><time>2026-04-30T16:24:10.001Z</time></trkpt><trkpt lat="43.41372933803991" lon="-3.5622220223947436"><ele>57.50000000000001</ele><time>2026-04-30T16:24:11.001Z</time></trkpt><trkpt lat="43.41371688728071" lon="-3.562342458990176"><ele>59.0</ele><time>2026-04-30T16:24:12.001Z</time></trkpt><trkpt lat="43.413708680222385" lon="-3.5624636625655772"><ele>59.2</ele><time>2026-04-30T16:24:13.001Z</time></trkpt><trkpt lat="43.41370460159471" lon="-3.562588145327264"><ele>59.400000000000006</ele><time>2026-04-30T16:24:14.001Z</time></trkpt><trkpt lat="43.41370148959657" lon="-3.5627112308530036"><ele>59.6</ele><time>2026-04-30T16:24:15.001Z</time></trkpt><trkpt lat="43.41370357790261" lon="-3.5628339663315"><ele>59.8</ele><time>2026-04-30T16:24:16.001Z</time></trkpt><trkpt lat="43.41370966065233" lon="-3.5629580504668694"><ele>60.0</ele><time>2026-04-30T16:24:17.001Z</time></trkpt><trkpt lat="43.413713687262245" lon="-3.56308358987133"><ele>60.0</ele><time>2026-04-30T16:24:18.001Z</time></trkpt><trkpt lat="43.41372025619409" lon="-3.5632069429699236"><ele>60.0</ele><time>2026-04-30T16:24:19.001Z</time></trkpt><trkpt lat="43.41372732277019" lon="-3.5633315180590106"><ele>60.0</ele><time>2026-04-30T16:24:20.001Z</time></trkpt><trkpt lat="43.41373647291141" lon="-3.563455491012375"><ele>60.0</ele><time>2026-04-30T16:24:21.001Z</time></trkpt><trkpt lat="43.413747889047244" lon="-3.563577794347408"><ele>60.0</ele><time>2026-04-30T16:24:22.001Z</time></trkpt><trkpt lat="43.41376112432253" lon="-3.5636991278206533"><ele>60.2</ele><time>2026-04-30T16:24:23.001Z</time></trkpt><trkpt lat="43.413776574515246" lon="-3.563820289779067"><ele>60.4</ele><time>2026-04-30T16:24:24.001Z</time></trkpt><trkpt lat="43.413790301531016" lon="-3.5639423715935727"><ele>60.599999999999994</ele><time>2026-04-30T16:24:25.001Z</time></trkpt><trkpt lat="43.41381116182169" lon="-3.5640694760909986"><ele>60.8</ele><time>2026-04-30T16:24:26.001Z</time></trkpt><trkpt lat="43.41382879867104" lon="-3.5641902778371235"><ele>61.0</ele><time>2026-04-30T16:24:27.001Z</time></trkpt><trkpt lat="43.413848026200334" lon="-3.56431507497763"><ele>61.0</ele><time>2026-04-30T16:24:28.001Z</time></trkpt><trkpt lat="43.41386775732649" lon="-3.5644382749223245"><ele>60.99999999999999</ele><time>2026-04-30T16:24:29.001Z</time></trkpt><trkpt lat="43.41388676821481" lon="-3.5645650704991234"><ele>60.99999999999999</ele><time>2026-04-30T16:24:30.001Z</time></trkpt><trkpt lat="43.41390560787636" lon="-3.5646904118510028"><ele>61.0</ele><time>2026-04-30T16:24:31.001Z</time></trkpt><trkpt lat="43.41392503458005" lon="-3.564816846676299"><ele>61.0</ele><time>2026-04-30T16:24:32.001Z</time></trkpt><trkpt lat="43.413945154389005" lon="-3.5649422704418563"><ele>61.599999999999994</ele><time>2026-04-30T16:24:33.001Z</time></trkpt><trkpt lat="43.41396489171396" lon="-3.565069428876748"><ele>62.199999999999996</ele><time>2026-04-30T16:24:34.001Z</time></trkpt><trkpt lat="43.41398484368247" lon="-3.5651989140626963"><ele>62.800000000000004</ele><time>2026-04-30T16:24:35.001Z</time></trkpt><trkpt lat="43.41400378591666" lon="-3.5653308264064103"><ele>63.400000000000006</ele><time>2026-04-30T16:24:36.001Z</time></trkpt><trkpt lat="43.41402256806998" lon="-3.5654618603840453"><ele>64.0</ele><time>2026-04-30T16:24:37.001Z</time></trkpt><trkpt lat="43.41404253263241" lon="-3.565592303058905"><ele>64.4</ele><time>2026-04-30T16:24:38.001Z</time></trkpt><trkpt lat="43.414062751937266" lon="-3.5657236734088515"><ele>64.80000000000001</ele><time>2026-04-30T16:24:39.001Z</time></trkpt><trkpt lat="43.41408214576292" lon="-3.56585801990826"><ele>65.19999999999999</ele><time>2026-04-30T16:24:40.002Z</time></trkpt><trkpt lat="43.41410222026669" lon="-3.565995984072006"><ele>65.6</ele><time>2026-04-30T16:24:41.002Z</time></trkpt><trkpt lat="43.414123926830904" lon="-3.56613684267168"><ele>66.0</ele><time>2026-04-30T16:24:42.002Z</time></trkpt><trkpt lat="43.41414232295805" lon="-3.566276135515113"><ele>65.2</ele><time>2026-04-30T16:24:43.002Z</time></trkpt><trkpt lat="43.414163385393366" lon="-3.5664166625666898"><ele>64.39999999999999</ele><time>2026-04-30T16:24:44.002Z</time></trkpt><trkpt lat="43.41418555939367" lon="-3.566556362645416"><ele>63.6</ele><time>2026-04-30T16:24:45.002Z</time></trkpt><trkpt lat="43.414205954443695" lon="-3.5666932977934995"><ele>62.8</ele><time>2026-04-30T16:24:46.002Z</time></trkpt><trkpt lat="43.414226691588716" lon="-3.566834022563918"><ele>62.0</ele><time>2026-04-30T16:24:47.002Z</time></trkpt><trkpt lat="43.414246876094595" lon="-3.5669735863874763"><ele>61.25</ele><time>2026-04-30T16:24:48.002Z</time></trkpt><trkpt lat="43.41426772206587" lon="-3.5671122941797684"><ele>60.5</ele><time>2026-04-30T16:24:49.002Z</time></trkpt><trkpt lat="43.414290679881105" lon="-3.5672410644628996"><ele>59.75</ele><time>2026-04-30T16:24:50.002Z</time></trkpt><trkpt lat="43.41432544990046" lon="-3.5673229471842256"><ele>59.0</ele><time>2026-04-30T16:24:51.002Z</time></trkpt><trkpt lat="43.41434339186199" lon="-3.5676572202782215"><ele>59.0</ele><time>2026-04-30T16:24:53.002Z</time></trkpt><trkpt lat="43.41435718302567" lon="-3.5677929708741534"><ele>59.00000000000001</ele><time>2026-04-30T16:24:54.002Z</time></trkpt><trkpt lat="43.414367069147836" lon="-3.567927356747577"><ele>59.00000000000001</ele><time>2026-04-30T16:24:55.002Z</time></trkpt><trkpt lat="43.41437098250646" lon="-3.5680579580261895"><ele>59.0</ele><time>2026-04-30T16:24:56.002Z</time></trkpt><trkpt lat="43.41437385564767" lon="-3.5681828551459636"><ele>59.0</ele><time>2026-04-30T16:24:57.002Z</time></trkpt><trkpt lat="43.41437844106327" lon="-3.5682979154592385"><ele>58.833333333333336</ele><time>2026-04-30T16:24:58.002Z</time></trkpt><trkpt lat="43.41438704798889" lon="-3.5684091134024607"><ele>58.66666666666667</ele><time>2026-04-30T16:24:59.002Z</time></trkpt><trkpt lat="43.41439712859439" lon="-3.5685062317958356"><ele>58.5</ele><time>2026-04-30T16:25:00.002Z</time></trkpt><trkpt lat="43.41442836808433" lon="-3.5686325483906214"><ele>58.33333333333333</ele><time>2026-04-30T16:25:02.002Z</time></trkpt><trkpt lat="43.4144794791825" lon="-3.5687876645793795"><ele>58.166666666666664</ele><time>2026-04-30T16:25:04.002Z</time></trkpt><trkpt lat="43.4145052804447" lon="-3.568885144298307"><ele>58.0</ele><time>2026-04-30T16:25:05.002Z</time></trkpt><trkpt lat="43.4145189567956" lon="-3.568994150708432"><ele>57.8</ele><time>2026-04-30T16:25:06.002Z</time></trkpt><trkpt lat="43.414526759025975" lon="-3.5691108383297045"><ele>57.599999999999994</ele><time>2026-04-30T16:25:07.002Z</time></trkpt><trkpt lat="43.41454438297347" lon="-3.5692308411373364"><ele>57.400000000000006</ele><time>2026-04-30T16:25:08.002Z</time></trkpt><trkpt lat="43.41456667238851" lon="-3.569360045269449"><ele>57.2</ele><time>2026-04-30T16:25:09.002Z</time></trkpt><trkpt lat="43.41459033610474" lon="-3.56949219543314"><ele>57.0</ele><time>2026-04-30T16:25:10.002Z</time></trkpt><trkpt lat="43.414616310948304" lon="-3.569624866196271"><ele>56.0</ele><time>2026-04-30T16:25:11.002Z</time></trkpt><trkpt lat="43.41463875778021" lon="-3.5697577033467214"><ele>55.0</ele><time>2026-04-30T16:25:12.002Z</time></trkpt><trkpt lat="43.41466262363088" lon="-3.5698924655158906"><ele>54.0</ele><time>2026-04-30T16:25:13.002Z</time></trkpt><trkpt lat="43.41468120595951" lon="-3.570029807444261"><ele>53.0</ele><time>2026-04-30T16:25:14.002Z</time></trkpt><trkpt lat="43.41470251620718" lon="-3.570171115873848"><ele>52.0</ele><time>2026-04-30T16:25:15.002Z</time></trkpt><trkpt lat="43.41472852311507" lon="-3.5703228070427957"><ele>51.6</ele><time>2026-04-30T16:25:16.002Z</time></trkpt><trkpt lat="43.414747499654744" lon="-3.570449610161686"><ele>51.2</ele><time>2026-04-30T16:25:17.002Z</time></trkpt><trkpt lat="43.41476090399966" lon="-3.5705988530205177"><ele>50.8</ele><time>2026-04-30T16:25:18.002Z</time></trkpt><trkpt lat="43.41478178248266" lon="-3.5707468942063603"><ele>50.4</ele><time>2026-04-30T16:25:19.002Z</time></trkpt><trkpt lat="43.41480675996631" lon="-3.5708988331131555"><ele>50.0</ele><time>2026-04-30T16:25:20.002Z</time></trkpt><trkpt lat="43.41482938106833" lon="-3.571050440409038"><ele>49.75</ele><time>2026-04-30T16:25:21.002Z</time></trkpt><trkpt lat="43.41485091144354" lon="-3.571201915485714"><ele>49.5</ele><time>2026-04-30T16:25:22.002Z</time></trkpt><trkpt lat="43.414873518855195" lon="-3.571351794046156"><ele>49.25</ele><time>2026-04-30T16:25:23.001Z</time></trkpt><trkpt lat="43.414894186205196" lon="-3.571506745601038"><ele>49.0</ele><time>2026-04-30T16:25:24.001Z</time></trkpt><trkpt lat="43.41491683173009" lon="-3.571661982124217"><ele>49.0</ele><time>2026-04-30T16:25:25.001Z</time></trkpt><trkpt lat="43.41493811204854" lon="-3.571813870170126"><ele>49.0</ele><time>2026-04-30T16:25:26Z</time></trkpt><trkpt lat="43.41496013821669" lon="-3.571971463144234"><ele>49.0</ele><time>2026-04-30T16:25:27Z</time></trkpt><trkpt lat="43.414983078102004" lon="-3.5721254169385133"><ele>49.0</ele><time>2026-04-30T16:25:28.001Z</time></trkpt><trkpt lat="43.41500697782442" lon="-3.572277096850838"><ele>48.5</ele><time>2026-04-30T16:25:29Z</time></trkpt><trkpt lat="43.41502777385272" lon="-3.5724325057812423"><ele>48.0</ele><time>2026-04-30T16:25:30Z</time></trkpt><trkpt lat="43.415052720058874" lon="-3.5725862173506022"><ele>47.5</ele><time>2026-04-30T16:25:31Z</time></trkpt><trkpt lat="43.41507522259585" lon="-3.572738847489807"><ele>47.0</ele><time>2026-04-30T16:25:32Z</time></trkpt><trkpt lat="43.415096986955085" lon="-3.5728895290766247"><ele>46.6</ele><time>2026-04-30T16:25:33Z</time></trkpt><trkpt lat="43.41511901276786" lon="-3.5730391794015612"><ele>46.2</ele><time>2026-04-30T16:25:34Z</time></trkpt><trkpt lat="43.41514198953577" lon="-3.573189872437097"><ele>45.8</ele><time>2026-04-30T16:25:35Z</time></trkpt><trkpt lat="43.41516417250722" lon="-3.573335482405974"><ele>45.4</ele><time>2026-04-30T16:25:36Z</time></trkpt><trkpt lat="43.41518545630618" lon="-3.5734793121510795"><ele>45.0</ele><time>2026-04-30T16:25:37Z</time></trkpt><trkpt lat="43.415205820914096" lon="-3.573623247419769"><ele>44.2</ele><time>2026-04-30T16:25:38Z</time></trkpt><trkpt lat="43.41522545973738" lon="-3.573762449100132"><ele>43.4</ele><time>2026-04-30T16:25:39Z</time></trkpt><trkpt lat="43.41524218077232" lon="-3.5739052677946685"><ele>42.599999999999994</ele><time>2026-04-30T16:25:40Z</time></trkpt><trkpt lat="43.41526350459153" lon="-3.5740465554712615"><ele>41.8</ele><time>2026-04-30T16:25:41Z</time></trkpt><trkpt lat="43.41528323095004" lon="-3.5741839859733124"><ele>41.0</ele><time>2026-04-30T16:25:42Z</time></trkpt><trkpt lat="43.415303655394034" lon="-3.574318077088995"><ele>41.0</ele><time>2026-04-30T16:25:43Z</time></trkpt><trkpt lat="43.4153221319766" lon="-3.5744475368337367"><ele>41.0</ele><time>2026-04-30T16:25:44Z</time></trkpt><trkpt lat="43.41534007945538" lon="-3.574581465208311"><ele>41.0</ele><time>2026-04-30T16:25:45Z</time></trkpt><trkpt lat="43.41535867122693" lon="-3.574701553285121"><ele>41.0</ele><time>2026-04-30T16:25:46Z</time></trkpt><trkpt lat="43.41537883633324" lon="-3.574818634666988"><ele>41.0</ele><time>2026-04-30T16:25:47.001Z</time></trkpt><trkpt lat="43.41539392864475" lon="-3.5749273364347216"><ele>41.33333333333333</ele><time>2026-04-30T16:25:48.001Z</time></trkpt><trkpt lat="43.415404022012986" lon="-3.5750249434374615"><ele>41.666666666666664</ele><time>2026-04-30T16:25:49.001Z</time></trkpt><trkpt lat="43.4154094759637" lon="-3.5751262114129028"><ele>42.0</ele><time>2026-04-30T16:25:50.001Z</time></trkpt><trkpt lat="43.41541547037205" lon="-3.5752193011233957"><ele>42.333333333333336</ele><time>2026-04-30T16:25:51.001Z</time></trkpt><trkpt lat="43.41542561051236" lon="-3.5753739504018958"><ele>42.66666666666667</ele><time>2026-04-30T16:25:53.001Z</time></trkpt><trkpt lat="43.415440750176266" lon="-3.5755023440702454"><ele>43.0</ele><time>2026-04-30T16:25:55.001Z</time></trkpt><trkpt lat="43.4154607994313" lon="-3.5755909571061144"><ele>42.4</ele><time>2026-04-30T16:25:57.001Z</time></trkpt><trkpt lat="43.41551338626516" lon="-3.575703767082219"><ele>41.8</ele><time>2026-04-30T16:26:00.001Z</time></trkpt><trkpt lat="43.415552509468775" lon="-3.575808995724707"><ele>41.2</ele><time>2026-04-30T16:26:02.001Z</time></trkpt><trkpt lat="43.415545673453764" lon="-3.575924786049895"><ele>40.6</ele><time>2026-04-30T16:26:04.001Z</time></trkpt><trkpt lat="43.41549162942863" lon="-3.5760385811868605"><ele>40.0</ele><time>2026-04-30T16:26:06.001Z</time></trkpt><trkpt lat="43.41542229808762" lon="-3.5761581979401655"><ele>41.5</ele><time>2026-04-30T16:26:08.001Z</time></trkpt><trkpt lat="43.41536250848747" lon="-3.576300019938759"><ele>43.0</ele><time>2026-04-30T16:26:10.001Z</time></trkpt><trkpt lat="43.41532427300495" lon="-3.576457104977331"><ele>44.5</ele><time>2026-04-30T16:26:12.001Z</time></trkpt><trkpt lat="43.4153035921882" lon="-3.5765434524900876"><ele>46.0</ele><time>2026-04-30T16:26:13.001Z</time></trkpt><trkpt lat="43.415283115174184" lon="-3.5766345948100033"><ele>47.49999999999999</ele><time>2026-04-30T16:26:14.001Z</time></trkpt><trkpt lat="43.415260198961874" lon="-3.576729896288815"><ele>49.0</ele><time>2026-04-30T16:26:15.001Z</time></trkpt><trkpt lat="43.41523373043376" lon="-3.576824848358891"><ele>48.99999999999999</ele><time>2026-04-30T16:26:16.001Z</time></trkpt><trkpt lat="43.41520887207297" lon="-3.576930087864747"><ele>49.0</ele><time>2026-04-30T16:26:17.001Z</time></trkpt><trkpt lat="43.41518358670045" lon="-3.577027796618274"><ele>49.0</ele><time>2026-04-30T16:26:18.001Z</time></trkpt><trkpt lat="43.41515759128842" lon="-3.577128258373501"><ele>49.0</ele><time>2026-04-30T16:26:19.001Z</time></trkpt><trkpt lat="43.415129285786094" lon="-3.5772273495074507"><ele>48.99999999999999</ele><time>2026-04-30T16:26:20.001Z</time></trkpt><trkpt lat="43.41510326429275" lon="-3.5773225561533395"><ele>49.0</ele><time>2026-04-30T16:26:21.001Z</time></trkpt><trkpt lat="43.41507765787334" lon="-3.577418470190093"><ele>48.666666666666664</ele><time>2026-04-30T16:26:22.001Z</time></trkpt><trkpt lat="43.415047301768084" lon="-3.5775134958510924"><ele>48.33333333333333</ele><time>2026-04-30T16:26:23.001Z</time></trkpt><trkpt lat="43.4150130216074" lon="-3.577618510180399"><ele>48.0</ele><time>2026-04-30T16:26:24.001Z</time></trkpt><trkpt lat="43.41497090188776" lon="-3.5777115718863937"><ele>47.666666666666664</ele><time>2026-04-30T16:26:25.001Z</time></trkpt><trkpt lat="43.41493556694024" lon="-3.57782859630273"><ele>47.33333333333333</ele><time>2026-04-30T16:26:26.001Z</time></trkpt><trkpt lat="43.414900207137805" lon="-3.5779212550757316"><ele>47.0</ele><time>2026-04-30T16:26:27.001Z</time></trkpt><trkpt lat="43.414865592313085" lon="-3.578016097392112"><ele>46.666666666666664</ele><time>2026-04-30T16:26:28.001Z</time></trkpt><trkpt lat="43.414831413009495" lon="-3.5781115305204825"><ele>46.33333333333333</ele><time>2026-04-30T16:26:29.001Z</time></trkpt><trkpt lat="43.41479184470437" lon="-3.5782064827191804"><ele>46.0</ele><time>2026-04-30T16:26:30.001Z</time></trkpt><trkpt lat="43.41474661274371" lon="-3.5782922310081453"><ele>45.666666666666664</ele><time>2026-04-30T16:26:31.001Z</time></trkpt><trkpt lat="43.41469896635524" lon="-3.578376014412721"><ele>45.333333333333336</ele><time>2026-04-30T16:26:32.001Z</time></trkpt><trkpt lat="43.41464480317967" lon="-3.5784618171147886"><ele>45.0</ele><time>2026-04-30T16:26:33.001Z</time></trkpt><trkpt lat="43.414590306724705" lon="-3.578550486742715"><ele>45.0</ele><time>2026-04-30T16:26:34.001Z</time></trkpt><trkpt lat="43.414532174522876" lon="-3.5786362861724625"><ele>45.0</ele><time>2026-04-30T16:26:35.001Z</time></trkpt><trkpt lat="43.41447319439572" lon="-3.5787122896273997"><ele>45.0</ele><time>2026-04-30T16:26:36.001Z</time></trkpt><trkpt lat="43.414411692893076" lon="-3.578781350837136"><ele>45.0</ele><time>2026-04-30T16:26:37.001Z</time></trkpt><trkpt lat="43.414350325608034" lon="-3.5788577432968216"><ele>45.0</ele><time>2026-04-30T16:26:38.001Z</time></trkpt><trkpt lat="43.41428325881118" lon="-3.578935438269356"><ele>45.0</ele><time>2026-04-30T16:26:39.001Z</time></trkpt><trkpt lat="43.41421598244326" lon="-3.5790167455092194"><ele>44.333333333333336</ele><time>2026-04-30T16:26:40.001Z</time></trkpt><trkpt lat="43.414147805350716" lon="-3.5790962959869472"><ele>43.666666666666664</ele><time>2026-04-30T16:26:41.001Z</time></trkpt><trkpt lat="43.41408151247294" lon="-3.5791790618655472"><ele>43.0</ele><time>2026-04-30T16:26:42.001Z</time></trkpt><trkpt lat="43.41401509711436" lon="-3.579250449118552"><ele>42.33333333333333</ele><time>2026-04-30T16:26:43.001Z</time></trkpt><trkpt lat="43.41394719898299" lon="-3.5793255176347993"><ele>41.666666666666664</ele><time>2026-04-30T16:26:44.001Z</time></trkpt><trkpt lat="43.4138789155707" lon="-3.5794045678919297"><ele>41.0</ele><time>2026-04-30T16:26:45.001Z</time></trkpt><trkpt lat="43.41381374099515" lon="-3.5794826092108014"><ele>40.666666666666664</ele><time>2026-04-30T16:26:46.002Z</time></trkpt><trkpt lat="43.41374893196967" lon="-3.579559230229367"><ele>40.33333333333333</ele><time>2026-04-30T16:26:47.002Z</time></trkpt><trkpt lat="43.41368405040204" lon="-3.5796406446900773"><ele>40.0</ele><time>2026-04-30T16:26:48.002Z</time></trkpt><trkpt lat="43.413625449844886" lon="-3.579724578956639"><ele>39.666666666666664</ele><time>2026-04-30T16:26:49.002Z</time></trkpt><trkpt lat="43.41356806639705" lon="-3.57981115325009"><ele>39.333333333333336</ele><time>2026-04-30T16:26:50.002Z</time></trkpt><trkpt lat="43.41351164449667" lon="-3.5798955296206003"><ele>39.0</ele><time>2026-04-30T16:26:51.002Z</time></trkpt><trkpt lat="43.413457262332976" lon="-3.579981655320916"><ele>39.0</ele><time>2026-04-30T16:26:52.002Z</time></trkpt><trkpt lat="43.41341010585976" lon="-3.5800744453453874"><ele>39.0</ele><time>2026-04-30T16:26:53.002Z</time></trkpt><trkpt lat="43.41336539992301" lon="-3.580172507699317"><ele>39.0</ele><time>2026-04-30T16:26:54.002Z</time></trkpt><trkpt lat="43.413324247566656" lon="-3.5802732733203384"><ele>39.0</ele><time>2026-04-30T16:26:55.002Z</time></trkpt><trkpt lat="43.41328607746064" lon="-3.5803762578967864"><ele>39.0</ele><time>2026-04-30T16:26:56.002Z</time></trkpt><trkpt lat="43.41325069067044" lon="-3.5804816747831665"><ele>39.0</ele><time>2026-04-30T16:26:57.002Z</time></trkpt><trkpt lat="43.413215401784534" lon="-3.58058593258533"><ele>38.833333333333336</ele><time>2026-04-30T16:26:58.002Z</time></trkpt><trkpt lat="43.41318246915696" lon="-3.5806918948121096"><ele>38.666666666666664</ele><time>2026-04-30T16:26:59.002Z</time></trkpt><trkpt lat="43.413148948794166" lon="-3.58079762822146"><ele>38.5</ele><time>2026-04-30T16:27:00.002Z</time></trkpt><trkpt lat="43.41311828426258" lon="-3.5809031384302257"><ele>38.33333333333333</ele><time>2026-04-30T16:27:01.002Z</time></trkpt><trkpt lat="43.41308631803092" lon="-3.5810086418488276"><ele>38.166666666666664</ele><time>2026-04-30T16:27:02.002Z</time></trkpt><trkpt lat="43.413056782385134" lon="-3.581116818803781"><ele>38.0</ele><time>2026-04-30T16:27:03.002Z</time></trkpt><trkpt lat="43.41302530672726" lon="-3.581223475413401"><ele>38.0</ele><time>2026-04-30T16:27:04.002Z</time></trkpt><trkpt lat="43.41299665510999" lon="-3.5813327676299105"><ele>38.0</ele><time>2026-04-30T16:27:05.002Z</time></trkpt><trkpt lat="43.41296909528973" lon="-3.5814386300262764"><ele>38.0</ele><time>2026-04-30T16:27:06.002Z</time></trkpt><trkpt lat="43.41294013141054" lon="-3.5815471030988424"><ele>38.0</ele><time>2026-04-30T16:27:07.002Z</time></trkpt><trkpt lat="43.412910841619436" lon="-3.581655704805371"><ele>38.0</ele><time>2026-04-30T16:27:08.002Z</time></trkpt><trkpt lat="43.41289029253595" lon="-3.581768914443427"><ele>38.0</ele><time>2026-04-30T16:27:09.002Z</time></trkpt><trkpt lat="43.41286761677823" lon="-3.581878157443498"><ele>39.83333333333333</ele><time>2026-04-30T16:27:10.002Z</time></trkpt><trkpt lat="43.41284229826599" lon="-3.5819853711672556"><ele>41.666666666666664</ele><time>2026-04-30T16:27:11.002Z</time></trkpt><trkpt lat="43.41281930138695" lon="-3.582098126127134"><ele>43.5</ele><time>2026-04-30T16:27:12.002Z</time></trkpt><trkpt lat="43.41279989795065" lon="-3.582208761716814"><ele>45.33333333333333</ele><time>2026-04-30T16:27:13.002Z</time></trkpt><trkpt lat="43.41278341631092" lon="-3.5823260493718876"><ele>47.166666666666664</ele><time>2026-04-30T16:27:14.002Z</time></trkpt><trkpt lat="43.412774446747264" lon="-3.5824419569896455"><ele>49.0</ele><time>2026-04-30T16:27:15.002Z</time></trkpt><trkpt lat="43.412766792433224" lon="-3.582561915398963"><ele>49.33333333333333</ele><time>2026-04-30T16:27:16.002Z</time></trkpt><trkpt lat="43.412758394737445" lon="-3.5826788270470056"><ele>49.666666666666664</ele><time>2026-04-30T16:27:17.002Z</time></trkpt><trkpt lat="43.41275147382317" lon="-3.5827931953564276"><ele>50.0</ele><time>2026-04-30T16:27:18.002Z</time></trkpt><trkpt lat="43.41275117604379" lon="-3.5829105389394833"><ele>50.33333333333333</ele><time>2026-04-30T16:27:19.002Z</time></trkpt><trkpt lat="43.41274778926381" lon="-3.5830113647011523"><ele>50.666666666666664</ele><time>2026-04-30T16:27:20.002Z</time></trkpt><trkpt lat="43.4127436500115" lon="-3.583106795045997"><ele>51.0</ele><time>2026-04-30T16:27:21.002Z</time></trkpt><trkpt lat="43.41275496468239" lon="-3.5832939766260927"><ele>51.333333333333336</ele><time>2026-04-30T16:27:23.002Z</time></trkpt><trkpt lat="43.41276240638072" lon="-3.58344527631671"><ele>51.66666666666667</ele><time>2026-04-30T16:27:25.002Z</time></trkpt><trkpt lat="43.41281165080104" lon="-3.5835406809337655"><ele>52.0</ele><time>2026-04-30T16:27:27.002Z</time></trkpt><trkpt lat="43.41287434381877" lon="-3.5835904824649694"><ele>52.333333333333336</ele><time>2026-04-30T16:27:30Z</time></trkpt><trkpt lat="43.412813317777555" lon="-3.583617858274078"><ele>52.66666666666667</ele><time>2026-04-30T16:27:37Z</time></trkpt><trkpt lat="43.41281943441312" lon="-3.5834965942678583"><ele>53.0</ele><time>2026-04-30T16:35:17.001Z</time></trkpt><trkpt lat="43.412817867964684" lon="-3.583593916158421"><ele>53.00000000000001</ele><time>2026-04-30T17:20:16Z</time></trkpt><trkpt lat="43.41287679854555" lon="-3.5836712265451935"><ele>53.0</ele><time>2026-04-30T17:20:18Z</time></trkpt><trkpt lat="43.41291590931123" lon="-3.5837623657376834"><ele>53.0</ele><time>2026-04-30T17:20:19Z</time></trkpt><trkpt lat="43.41293659516335" lon="-3.583869340267387"><ele>53.0</ele><time>2026-04-30T17:20:20Z</time></trkpt><trkpt lat="43.41296430739993" lon="-3.583968225626725"><ele>53.00000000000001</ele><time>2026-04-30T17:20:21Z</time></trkpt><trkpt lat="43.413037912652044" lon="-3.583978744905121"><ele>53.0</ele><time>2026-04-30T17:20:22Z</time></trkpt><trkpt lat="43.412981223736644" lon="-3.5840247147807656"><ele>53.0</ele><time>2026-04-30T17:20:26Z</time></trkpt><trkpt lat="43.41295227520166" lon="-3.5838996383598603"><ele>53.0</ele><time>2026-04-30T17:20:28Z</time></trkpt><trkpt lat="43.41292187207207" lon="-3.5837473890105094"><ele>53.0</ele><time>2026-04-30T17:20:30Z</time></trkpt><trkpt lat="43.41285876349601" lon="-3.5836190180122807"><ele>53.0</ele><time>2026-04-30T17:20:32Z</time></trkpt><trkpt lat="43.41279002836048" lon="-3.583618596992106"><ele>53.0</ele><time>2026-04-30T17:20:34Z</time></trkpt><trkpt lat="43.41276961561267" lon="-3.5837467110943844"><ele>53.833333333333336</ele><time>2026-04-30T17:20:36Z</time></trkpt><trkpt lat="43.41279270082341" lon="-3.583917596166409"><ele>54.66666666666667</ele><time>2026-04-30T17:20:38Z</time></trkpt><trkpt lat="43.41280298349724" lon="-3.5840148380790375"><ele>55.5</ele><time>2026-04-30T17:20:39Z</time></trkpt><trkpt lat="43.41281387092691" lon="-3.584115276283521"><ele>56.33333333333333</ele><time>2026-04-30T17:20:40Z</time></trkpt><trkpt lat="43.41282392631333" lon="-3.584220534371291"><ele>57.166666666666664</ele><time>2026-04-30T17:20:41Z</time></trkpt><trkpt lat="43.41282878826926" lon="-3.58433741294508"><ele>58.0</ele><time>2026-04-30T17:20:42Z</time></trkpt><trkpt lat="43.41283745850891" lon="-3.584453806218973"><ele>58.666666666666664</ele><time>2026-04-30T17:20:43Z</time></trkpt><trkpt lat="43.41284441769663" lon="-3.5845759973475806"><ele>59.33333333333333</ele><time>2026-04-30T17:20:44Z</time></trkpt><trkpt lat="43.412858596596784" lon="-3.5846960623818704"><ele>60.0</ele><time>2026-04-30T17:20:45Z</time></trkpt><trkpt lat="43.41287292043555" lon="-3.584821952076487"><ele>60.66666666666667</ele><time>2026-04-30T17:20:46Z</time></trkpt><trkpt lat="43.412878092128246" lon="-3.5849504601750266"><ele>61.333333333333336</ele><time>2026-04-30T17:20:47Z</time></trkpt><trkpt lat="43.41289355027417" lon="-3.585055322639837"><ele>62.0</ele><time>2026-04-30T17:20:48Z</time></trkpt><trkpt lat="43.41288893158499" lon="-3.585161088846871"><ele>62.00000000000001</ele><time>2026-04-30T17:20:50Z</time></trkpt><trkpt lat="43.41284281958672" lon="-3.585064537579948"><ele>62.0</ele><time>2026-04-30T17:20:53Z</time></trkpt><trkpt lat="43.412853986783084" lon="-3.5849655296257943"><ele>62.0</ele><time>2026-04-30T17:20:54Z</time></trkpt><trkpt lat="43.41284371332881" lon="-3.5848612810554803"><ele>62.0</ele><time>2026-04-30T17:20:55Z</time></trkpt><trkpt lat="43.41283893052135" lon="-3.5847542698130783"><ele>62.00000000000001</ele><time>2026-04-30T17:20:56Z</time></trkpt><trkpt lat="43.41282345271516" lon="-3.5846341283492524"><ele>62.0</ele><time>2026-04-30T17:20:57Z</time></trkpt><trkpt lat="43.412803938224634" lon="-3.5845107697993286"><ele>61.2</ele><time>2026-04-30T17:20:58Z</time></trkpt><trkpt lat="43.412795496717344" lon="-3.5843784377750922"><ele>60.400000000000006</ele><time>2026-04-30T17:20:59Z</time></trkpt><trkpt lat="43.412789848060235" lon="-3.5842427891400086"><ele>59.599999999999994</ele><time>2026-04-30T17:21:00Z</time></trkpt><trkpt lat="43.41278322758121" lon="-3.5841023273098536"><ele>58.8</ele><time>2026-04-30T17:21:01Z</time></trkpt><trkpt lat="43.41276659268582" lon="-3.583954150933348"><ele>58.0</ele><time>2026-04-30T17:21:02Z</time></trkpt><trkpt lat="43.41275257267016" lon="-3.58383259279059"><ele>57.99999999999999</ele><time>2026-04-30T17:21:03Z</time></trkpt><trkpt lat="43.412742059676745" lon="-3.5836840243294628"><ele>58.0</ele><time>2026-04-30T17:21:05Z</time></trkpt><trkpt lat="43.41274857795202" lon="-3.5835518820691252"><ele>58.0</ele><time>2026-04-30T17:21:07Z</time></trkpt><trkpt lat="43.412767531096335" lon="-3.5834671126724627"><ele>58.0</ele><time>2026-04-30T17:21:09Z</time></trkpt><trkpt lat="43.41282587378968" lon="-3.5835110421675047"><ele>57.99999999999999</ele><time>2026-04-30T17:34:09Z</time></trkpt><trkpt lat="43.412855038423714" lon="-3.58359317071476"><ele>58.0</ele><time>2026-04-30T17:35:01Z</time></trkpt><trkpt lat="43.41279190692142" lon="-3.5835863031260664"><ele>58.0</ele><time>2026-04-30T17:35:09Z</time></trkpt><trkpt lat="43.4127599376088" lon="-3.583683557938417"><ele>58.0</ele><time>2026-04-30T17:35:32Z</time></trkpt><trkpt lat="43.41277776041025" lon="-3.5838258976428006"><ele>58.0</ele><time>2026-04-30T17:35:34Z</time></trkpt><trkpt lat="43.41279506017363" lon="-3.5839963070366143"><ele>58.0</ele><time>2026-04-30T17:35:36Z</time></trkpt><trkpt lat="43.41280706992732" lon="-3.584092267575687"><ele>58.0</ele><time>2026-04-30T17:35:37Z</time></trkpt><trkpt lat="43.412814004570166" lon="-3.584198286568149"><ele>57.99999999999999</ele><time>2026-04-30T17:35:38Z</time></trkpt><trkpt lat="43.41282519009058" lon="-3.584304800059909"><ele>58.0</ele><time>2026-04-30T17:35:39Z</time></trkpt><trkpt lat="43.41283243016569" lon="-3.584417328734277"><ele>58.0</ele><time>2026-04-30T17:35:40Z</time></trkpt><trkpt lat="43.412840489301644" lon="-3.584532018388431"><ele>58.0</ele><time>2026-04-30T17:35:41Z</time></trkpt><trkpt lat="43.41285329984221" lon="-3.584646565962134"><ele>57.99999999999999</ele><time>2026-04-30T17:35:42Z</time></trkpt><trkpt lat="43.41286488193516" lon="-3.58475933532881"><ele>58.0</ele><time>2026-04-30T17:35:43Z</time></trkpt><trkpt lat="43.41287719387835" lon="-3.5848757997667255"><ele>58.666666666666664</ele><time>2026-04-30T17:35:44Z</time></trkpt><trkpt lat="43.41288712858741" lon="-3.5849950104262045"><ele>59.33333333333333</ele><time>2026-04-30T17:35:45Z</time></trkpt><trkpt lat="43.412902787133035" lon="-3.585117916088866"><ele>60.0</ele><time>2026-04-30T17:35:46Z</time></trkpt><trkpt lat="43.41291352495097" lon="-3.585245176930923"><ele>60.66666666666667</ele><time>2026-04-30T17:35:47Z</time></trkpt><trkpt lat="43.412925957524045" lon="-3.5853666725556708"><ele>61.333333333333336</ele><time>2026-04-30T17:35:48Z</time></trkpt><trkpt lat="43.412934209151146" lon="-3.585488872990938"><ele>62.0</ele><time>2026-04-30T17:35:49Z</time></trkpt><trkpt lat="43.41294720058528" lon="-3.5856209610623915"><ele>62.400000000000006</ele><time>2026-04-30T17:35:50Z</time></trkpt><trkpt lat="43.412960566398745" lon="-3.5857533784810567"><ele>62.800000000000004</ele><time>2026-04-30T17:35:51Z</time></trkpt><trkpt lat="43.41296906750191" lon="-3.585884849002271"><ele>63.2</ele><time>2026-04-30T17:35:52Z</time></trkpt><trkpt lat="43.412983640584585" lon="-3.5860168740142493"><ele>63.6</ele><time>2026-04-30T17:35:53Z</time></trkpt><trkpt lat="43.41299776425308" lon="-3.5861614616305864"><ele>64.0</ele><time>2026-04-30T17:35:54Z</time></trkpt><trkpt lat="43.413035112035686" lon="-3.586312881320373"><ele>61.2</ele><time>2026-04-30T17:35:55Z</time></trkpt><trkpt lat="43.41309468164969" lon="-3.5865195653826256"><ele>58.400000000000006</ele><time>2026-04-30T17:35:56Z</time></trkpt><trkpt lat="43.41312068416294" lon="-3.5866552666857294"><ele>55.6</ele><time>2026-04-30T17:35:57Z</time></trkpt><trkpt lat="43.41306003907554" lon="-3.5867250295096773"><ele>52.8</ele><time>2026-04-30T17:35:58Z</time></trkpt><trkpt lat="43.41306004031878" lon="-3.5868595537518204"><ele>50.0</ele><time>2026-04-30T17:35:59Z</time></trkpt><trkpt lat="43.41307326258502" lon="-3.5870025473199223"><ele>51.2</ele><time>2026-04-30T17:36:00Z</time></trkpt><trkpt lat="43.413087809290154" lon="-3.5871492552176205"><ele>52.4</ele><time>2026-04-30T17:36:01Z</time></trkpt><trkpt lat="43.413102049050615" lon="-3.587291169179269"><ele>53.599999999999994</ele><time>2026-04-30T17:36:02Z</time></trkpt><trkpt lat="43.41311575855438" lon="-3.5874358621142055"><ele>54.8</ele><time>2026-04-30T17:36:03Z</time></trkpt><trkpt lat="43.413130512042095" lon="-3.5875788199942393"><ele>56.0</ele><time>2026-04-30T17:36:04Z</time></trkpt><trkpt lat="43.413138265705804" lon="-3.587701633571289"><ele>56.00000000000001</ele><time>2026-04-30T17:36:05Z</time></trkpt><trkpt lat="43.413149868186224" lon="-3.5877905488774204"><ele>56.0</ele><time>2026-04-30T17:36:06Z</time></trkpt><trkpt lat="43.413150916984314" lon="-3.58791181144222"><ele>56.0</ele><time>2026-04-30T17:36:08Z</time></trkpt><trkpt lat="43.413165550877984" lon="-3.5880126382424455"><ele>56.0</ele><time>2026-04-30T17:36:24Z</time></trkpt><trkpt lat="43.413177084521465" lon="-3.588141602625319"><ele>56.00000000000001</ele><time>2026-04-30T17:36:26Z</time></trkpt><trkpt lat="43.41319347691622" lon="-3.588302221601653"><ele>56.0</ele><time>2026-04-30T17:36:28Z</time></trkpt><trkpt lat="43.413202113004495" lon="-3.5883967741875877"><ele>56.833333333333336</ele><time>2026-04-30T17:36:29Z</time></trkpt><trkpt lat="43.41320850633327" lon="-3.588499229780153"><ele>57.66666666666667</ele><time>2026-04-30T17:36:30Z</time></trkpt><trkpt lat="43.41322207736406" lon="-3.588604572329978"><ele>58.5</ele><time>2026-04-30T17:36:31Z</time></trkpt><trkpt lat="43.413234354790255" lon="-3.5887139659839633"><ele>59.33333333333333</ele><time>2026-04-30T17:36:32Z</time></trkpt><trkpt lat="43.41324154142154" lon="-3.5888346985473993"><ele>60.166666666666664</ele><time>2026-04-30T17:36:33Z</time></trkpt><trkpt lat="43.413248025825105" lon="-3.588955331151301"><ele>61.0</ele><time>2026-04-30T17:36:34Z</time></trkpt><trkpt lat="43.413254790524626" lon="-3.58907569549337"><ele>60.99999999999999</ele><time>2026-04-30T17:36:35Z</time></trkpt><trkpt lat="43.413257843455845" lon="-3.589190329625329"><ele>61.0</ele><time>2026-04-30T17:36:36Z</time></trkpt><trkpt lat="43.41325796038016" lon="-3.5893097523507476"><ele>61.0</ele><time>2026-04-30T17:36:37Z</time></trkpt><trkpt lat="43.41325854429335" lon="-3.589428163408246"><ele>61.0</ele><time>2026-04-30T17:36:38Z</time></trkpt><trkpt lat="43.41326414547501" lon="-3.5895484728695894"><ele>60.99999999999999</ele><time>2026-04-30T17:36:39Z</time></trkpt><trkpt lat="43.41326288274678" lon="-3.589675734095806"><ele>61.0</ele><time>2026-04-30T17:36:40Z</time></trkpt><trkpt lat="43.41325744594963" lon="-3.589808799599676"><ele>61.199999999999996</ele><time>2026-04-30T17:36:41Z</time></trkpt><trkpt lat="43.413246894130154" lon="-3.5899349188660814"><ele>61.39999999999999</ele><time>2026-04-30T17:36:42Z</time></trkpt><trkpt lat="43.41323643749372" lon="-3.590063047334402"><ele>61.6</ele><time>2026-04-30T17:36:43Z</time></trkpt><trkpt lat="43.41321870943888" lon="-3.5901968372460327"><ele>61.8</ele><time>2026-04-30T17:36:44Z</time></trkpt><trkpt lat="43.41319782208474" lon="-3.5903337668025777"><ele>62.0</ele><time>2026-04-30T17:36:45Z</time></trkpt><trkpt lat="43.41316857020951" lon="-3.590473006215606"><ele>61.5</ele><time>2026-04-30T17:36:46Z</time></trkpt><trkpt lat="43.413130177635125" lon="-3.5906557458337622"><ele>61.0</ele><time>2026-04-30T17:36:46.999Z</time></trkpt><trkpt lat="43.413071040313355" lon="-3.590870630970567"><ele>60.5</ele><time>2026-04-30T17:36:47.999Z</time></trkpt><trkpt lat="43.41302850914549" lon="-3.591015620844416"><ele>60.0</ele><time>2026-04-30T17:36:49.999Z</time></trkpt><trkpt lat="43.412977820731264" lon="-3.5911495726280775"><ele>62.6</ele><time>2026-04-30T17:36:50.999Z</time></trkpt><trkpt lat="43.41292623852991" lon="-3.5912802344318737"><ele>65.2</ele><time>2026-04-30T17:36:51.999Z</time></trkpt><trkpt lat="43.41287450805035" lon="-3.5914113686106406"><ele>67.8</ele><time>2026-04-30T17:36:52.999Z</time></trkpt><trkpt lat="43.41282636859909" lon="-3.5915395288425427"><ele>70.4</ele><time>2026-04-30T17:36:53.999Z</time></trkpt><trkpt lat="43.41278094373329" lon="-3.5916547131100374"><ele>73.0</ele><time>2026-04-30T17:36:54.999Z</time></trkpt><trkpt lat="43.41274453485354" lon="-3.591757567838139"><ele>73.0</ele><time>2026-04-30T17:36:55.999Z</time></trkpt><trkpt lat="43.412713917744576" lon="-3.5918446013120127"><ele>73.0</ele><time>2026-04-30T17:36:56.999Z</time></trkpt><trkpt lat="43.412662255315766" lon="-3.5919907652213605"><ele>73.0</ele><time>2026-04-30T17:36:58.999Z</time></trkpt><trkpt lat="43.41263190929733" lon="-3.5920689947827715"><ele>73.0</ele><time>2026-04-30T17:36:59.999Z</time></trkpt><trkpt lat="43.41260142906432" lon="-3.5921481122488608"><ele>73.0</ele><time>2026-04-30T17:37:00.999Z</time></trkpt><trkpt lat="43.4125658618691" lon="-3.5922349562941203"><ele>73.0</ele><time>2026-04-30T17:37:01.999Z</time></trkpt><trkpt lat="43.412535434702946" lon="-3.592323951067895"><ele>71.57142857142857</ele><time>2026-04-30T17:37:02.999Z</time></trkpt><trkpt lat="43.412498019419026" lon="-3.5924190426605884"><ele>70.14285714285714</ele><time>2026-04-30T17:37:03.999Z</time></trkpt><trkpt lat="43.41246309727839" lon="-3.5925170096888954"><ele>68.71428571428572</ele><time>2026-04-30T17:37:04.999Z</time></trkpt><trkpt lat="43.41242350741423" lon="-3.5926143349826742"><ele>67.28571428571428</ele><time>2026-04-30T17:37:05.999Z</time></trkpt><trkpt lat="43.41239487006498" lon="-3.5927062663959157"><ele>65.85714285714286</ele><time>2026-04-30T17:37:06.999Z</time></trkpt><trkpt lat="43.41236389297368" lon="-3.592789543300416"><ele>64.42857142857143</ele><time>2026-04-30T17:37:08Z</time></trkpt><trkpt lat="43.41233591630922" lon="-3.592868993052832"><ele>63.0</ele><time>2026-04-30T17:37:09Z</time></trkpt><trkpt lat="43.4123005188229" lon="-3.592971959047522"><ele>62.666666666666664</ele><time>2026-04-30T17:37:11Z</time></trkpt><trkpt lat="43.412269757280924" lon="-3.5930504236340046"><ele>62.33333333333333</ele><time>2026-04-30T17:37:23Z</time></trkpt><trkpt lat="43.412226961048596" lon="-3.593161265503862"><ele>62.0</ele><time>2026-04-30T17:37:25Z</time></trkpt><trkpt lat="43.41217424491253" lon="-3.5933181440038218"><ele>61.666666666666664</ele><time>2026-04-30T17:37:27Z</time></trkpt><trkpt lat="43.4121337032438" lon="-3.593410810645549"><ele>61.33333333333333</ele><time>2026-04-30T17:37:28Z</time></trkpt><trkpt lat="43.412097191641976" lon="-3.593508885175316"><ele>61.0</ele><time>2026-04-30T17:37:29Z</time></trkpt><trkpt lat="43.412058477341375" lon="-3.5936142991449724"><ele>62.8</ele><time>2026-04-30T17:37:30Z</time></trkpt><trkpt lat="43.41201616901855" lon="-3.5937225989364467"><ele>64.6</ele><time>2026-04-30T17:37:31Z</time></trkpt><trkpt lat="43.41197425207757" lon="-3.5938363477316373"><ele>66.4</ele><time>2026-04-30T17:37:32Z</time></trkpt><trkpt lat="43.411931189397606" lon="-3.5939548950193867"><ele>68.2</ele><time>2026-04-30T17:37:33Z</time></trkpt><trkpt lat="43.41188857813641" lon="-3.594073147482473"><ele>70.0</ele><time>2026-04-30T17:37:34Z</time></trkpt><trkpt lat="43.41184123148184" lon="-3.5941946356166463"><ele>70.0</ele><time>2026-04-30T17:37:35Z</time></trkpt><trkpt lat="43.41179204493772" lon="-3.5943190865095307"><ele>70.0</ele><time>2026-04-30T17:37:36Z</time></trkpt><trkpt lat="43.41174263235094" lon="-3.594442484788216"><ele>70.0</ele><time>2026-04-30T17:37:37Z</time></trkpt><trkpt lat="43.411694667699294" lon="-3.594573387450284"><ele>70.0</ele><time>2026-04-30T17:37:38Z</time></trkpt><trkpt lat="43.41164751786378" lon="-3.5946970127000366"><ele>70.0</ele><time>2026-04-30T17:37:39Z</time></trkpt><trkpt lat="43.41159551450428" lon="-3.594822774742972"><ele>69.6</ele><time>2026-04-30T17:37:40Z</time></trkpt><trkpt lat="43.41154800624399" lon="-3.5949488235597893"><ele>69.2</ele><time>2026-04-30T17:37:41Z</time></trkpt><trkpt lat="43.411498436061784" lon="-3.5950711107634796"><ele>68.8</ele><time>2026-04-30T17:37:42Z</time></trkpt><trkpt lat="43.411448624622295" lon="-3.595201850961734"><ele>68.4</ele><time>2026-04-30T17:37:43Z</time></trkpt><trkpt lat="43.41140049727383" lon="-3.5953286951142887"><ele>68.0</ele><time>2026-04-30T17:37:44Z</time></trkpt><trkpt lat="43.41135332665471" lon="-3.5954512087910446"><ele>69.8</ele><time>2026-04-30T17:37:45Z</time></trkpt><trkpt lat="43.41130340732155" lon="-3.5955786661527314"><ele>71.6</ele><time>2026-04-30T17:37:46Z</time></trkpt><trkpt lat="43.41125098685281" lon="-3.595701296240145"><ele>73.4</ele><time>2026-04-30T17:37:47Z</time></trkpt><trkpt lat="43.41120406122797" lon="-3.595829769238282"><ele>75.2</ele><time>2026-04-30T17:37:48Z</time></trkpt><trkpt lat="43.41115898667938" lon="-3.595961000617082"><ele>77.0</ele><time>2026-04-30T17:37:49Z</time></trkpt><trkpt lat="43.41111028180138" lon="-3.5960882587206573"><ele>75.6</ele><time>2026-04-30T17:37:50Z</time></trkpt><trkpt lat="43.41106282437995" lon="-3.596214587367991"><ele>74.2</ele><time>2026-04-30T17:37:51Z</time></trkpt><trkpt lat="43.4110176065118" lon="-3.596346305436527"><ele>72.8</ele><time>2026-04-30T17:37:52Z</time></trkpt><trkpt lat="43.41096983296636" lon="-3.5964720276766053"><ele>71.4</ele><time>2026-04-30T17:37:53Z</time></trkpt><trkpt lat="43.41092608966363" lon="-3.5966035367492273"><ele>70.0</ele><time>2026-04-30T17:37:54Z</time></trkpt><trkpt lat="43.41088467340054" lon="-3.5967354457187373"><ele>70.0</ele><time>2026-04-30T17:37:55Z</time></trkpt><trkpt lat="43.41084346939153" lon="-3.596857585107167"><ele>70.0</ele><time>2026-04-30T17:37:56Z</time></trkpt><trkpt lat="43.41079107408138" lon="-3.5969939416742656"><ele>70.0</ele><time>2026-04-30T17:37:57Z</time></trkpt><trkpt lat="43.41072185647797" lon="-3.5971254435405013"><ele>70.0</ele><time>2026-04-30T17:37:58Z</time></trkpt><trkpt lat="43.41070789150756" lon="-3.5972444976399354"><ele>70.0</ele><time>2026-04-30T17:37:59Z</time></trkpt><trkpt lat="43.41066559277838" lon="-3.59737259705262"><ele>69.6</ele><time>2026-04-30T17:38:00Z</time></trkpt><trkpt lat="43.41062425624413" lon="-3.5975026543388164"><ele>69.2</ele><time>2026-04-30T17:38:01Z</time></trkpt><trkpt lat="43.4105841802961" lon="-3.5976328956868624"><ele>68.8</ele><time>2026-04-30T17:38:02Z</time></trkpt><trkpt lat="43.410545414118126" lon="-3.5977628405228037"><ele>68.4</ele><time>2026-04-30T17:38:03Z</time></trkpt><trkpt lat="43.41050756586495" lon="-3.597891672043987"><ele>68.0</ele><time>2026-04-30T17:38:04Z</time></trkpt><trkpt lat="43.41046788891014" lon="-3.598022227257922"><ele>68.6</ele><time>2026-04-30T17:38:05Z</time></trkpt><trkpt lat="43.41042914497935" lon="-3.5981495573043607"><ele>69.19999999999999</ele><time>2026-04-30T17:38:06Z</time></trkpt><trkpt lat="43.41039462385819" lon="-3.598275177763341"><ele>69.8</ele><time>2026-04-30T17:38:07Z</time></trkpt><trkpt lat="43.41036390048684" lon="-3.5984064686127053"><ele>70.39999999999999</ele><time>2026-04-30T17:38:08Z</time></trkpt><trkpt lat="43.4103304967839" lon="-3.5985347397518046"><ele>71.0</ele><time>2026-04-30T17:38:09Z</time></trkpt><trkpt lat="43.410299199988785" lon="-3.5986685169131007"><ele>71.0</ele><time>2026-04-30T17:38:10Z</time></trkpt><trkpt lat="43.41026715078327" lon="-3.5988038558802207"><ele>71.0</ele><time>2026-04-30T17:38:11Z</time></trkpt><trkpt lat="43.41023829119915" lon="-3.5989315605683827"><ele>71.0</ele><time>2026-04-30T17:38:12Z</time></trkpt><trkpt lat="43.4102074853553" lon="-3.599062257816944"><ele>71.0</ele><time>2026-04-30T17:38:13Z</time></trkpt><trkpt lat="43.41017866479227" lon="-3.5991916494530622"><ele>71.0</ele><time>2026-04-30T17:38:14Z</time></trkpt><trkpt lat="43.41014760435467" lon="-3.5993213048171024"><ele>71.0</ele><time>2026-04-30T17:38:15Z</time></trkpt><trkpt lat="43.410119128824185" lon="-3.599447338268975"><ele>71.0</ele><time>2026-04-30T17:38:16Z</time></trkpt><trkpt lat="43.410087669357765" lon="-3.5995727008001075"><ele>71.0</ele><time>2026-04-30T17:38:17Z</time></trkpt><trkpt lat="43.41005724604608" lon="-3.5996953297135725"><ele>71.0</ele><time>2026-04-30T17:38:18Z</time></trkpt><trkpt lat="43.410029006793025" lon="-3.599817042412806"><ele>71.0</ele><time>2026-04-30T17:38:19Z</time></trkpt><trkpt lat="43.41000337005154" lon="-3.599937704496841"><ele>72.0</ele><time>2026-04-30T17:38:20Z</time></trkpt><trkpt lat="43.40997740700336" lon="-3.6000574678462782"><ele>73.0</ele><time>2026-04-30T17:38:21Z</time></trkpt><trkpt lat="43.409950693301106" lon="-3.6001650593525425"><ele>74.0</ele><time>2026-04-30T17:38:22Z</time></trkpt><trkpt lat="43.40992832906782" lon="-3.6002832566326943"><ele>75.0</ele><time>2026-04-30T17:38:23Z</time></trkpt><trkpt lat="43.40990449018775" lon="-3.6004059526237704"><ele>76.0</ele><time>2026-04-30T17:38:24Z</time></trkpt><trkpt lat="43.40988360594152" lon="-3.6005248551651023"><ele>77.0</ele><time>2026-04-30T17:38:25Z</time></trkpt><trkpt lat="43.40986355033954" lon="-3.6006466510269224"><ele>78.33333333333334</ele><time>2026-04-30T17:38:26Z</time></trkpt><trkpt lat="43.40984993442471" lon="-3.6007636812279293"><ele>79.66666666666667</ele><time>2026-04-30T17:38:27Z</time></trkpt><trkpt lat="43.409837952592056" lon="-3.6008775256411347"><ele>81.0</ele><time>2026-04-30T17:38:28Z</time></trkpt><trkpt lat="43.409829475409445" lon="-3.6009953842896687"><ele>82.33333333333333</ele><time>2026-04-30T17:38:29Z</time></trkpt><trkpt lat="43.40982105509013" lon="-3.601108234761202"><ele>83.66666666666666</ele><time>2026-04-30T17:38:30Z</time></trkpt><trkpt lat="43.40981456842766" lon="-3.6012238851876086"><ele>85.0</ele><time>2026-04-30T17:38:31Z</time></trkpt><trkpt lat="43.40980719843439" lon="-3.6013375453486733"><ele>86.0</ele><time>2026-04-30T17:38:32Z</time></trkpt><trkpt lat="43.4098029538358" lon="-3.601451589373225"><ele>87.0</ele><time>2026-04-30T17:38:33Z</time></trkpt><trkpt lat="43.409797957441135" lon="-3.601567757931437"><ele>88.0</ele><time>2026-04-30T17:38:34Z</time></trkpt><trkpt lat="43.40979634582331" lon="-3.601684785550186"><ele>89.0</ele><time>2026-04-30T17:38:35Z</time></trkpt><trkpt lat="43.40979752492346" lon="-3.6017994582122466"><ele>90.0</ele><time>2026-04-30T17:38:36Z</time></trkpt><trkpt lat="43.409798447315005" lon="-3.601916618634094"><ele>91.0</ele><time>2026-04-30T17:38:37Z</time></trkpt><trkpt lat="43.40980139734583" lon="-3.602032121864636"><ele>91.5</ele><time>2026-04-30T17:38:38Z</time></trkpt><trkpt lat="43.40980632505385" lon="-3.602147668764255"><ele>92.0</ele><time>2026-04-30T17:38:39Z</time></trkpt><trkpt lat="43.409815126559494" lon="-3.6022662888457577"><ele>92.5</ele><time>2026-04-30T17:38:40Z</time></trkpt><trkpt lat="43.40982227024897" lon="-3.602383210539984"><ele>93.0</ele><time>2026-04-30T17:38:41Z</time></trkpt><trkpt lat="43.409835246366136" lon="-3.6024996019055067"><ele>93.5</ele><time>2026-04-30T17:38:42Z</time></trkpt><trkpt lat="43.409848280928856" lon="-3.60261454666095"><ele>94.0</ele><time>2026-04-30T17:38:43Z</time></trkpt><trkpt lat="43.409861641503056" lon="-3.6027297477670825"><ele>94.5</ele><time>2026-04-30T17:38:44Z</time></trkpt><trkpt lat="43.40987553087942" lon="-3.6028451851495498"><ele>95.0</ele><time>2026-04-30T17:38:45Z</time></trkpt><trkpt lat="43.40989002233677" lon="-3.602960788653915"><ele>95.5</ele><time>2026-04-30T17:38:46Z</time></trkpt><trkpt lat="43.409905522574874" lon="-3.603072315307303"><ele>96.0</ele><time>2026-04-30T17:38:47Z</time></trkpt><trkpt lat="43.40992328111423" lon="-3.6031866827007257"><ele>96.50000000000001</ele><time>2026-04-30T17:38:48Z</time></trkpt><trkpt lat="43.40994294743703" lon="-3.6033018575631153"><ele>97.0</ele><time>2026-04-30T17:38:49Z</time></trkpt><trkpt lat="43.409964175308" lon="-3.6034145837097054"><ele>97.00000000000001</ele><time>2026-04-30T17:38:50Z</time></trkpt><trkpt lat="43.40998410627046" lon="-3.603530798722659"><ele>97.0</ele><time>2026-04-30T17:38:51Z</time></trkpt><trkpt lat="43.41000288958601" lon="-3.6036447577868396"><ele>97.0</ele><time>2026-04-30T17:38:52Z</time></trkpt><trkpt lat="43.4100215944499" lon="-3.603759687479113"><ele>97.0</ele><time>2026-04-30T17:38:52.999Z</time></trkpt><trkpt lat="43.41003907447737" lon="-3.603874857815169"><ele>97.00000000000001</ele><time>2026-04-30T17:38:53.999Z</time></trkpt><trkpt lat="43.4100565528041" lon="-3.603992824604779"><ele>97.0</ele><time>2026-04-30T17:38:54.999Z</time></trkpt><trkpt lat="43.410073923356244" lon="-3.604108850433129"><ele>97.00000000000001</ele><time>2026-04-30T17:38:55.999Z</time></trkpt><trkpt lat="43.41009174119037" lon="-3.6042256353660527"><ele>97.0</ele><time>2026-04-30T17:38:56.999Z</time></trkpt><trkpt lat="43.410109514763995" lon="-3.604340491761042"><ele>97.0</ele><time>2026-04-30T17:38:57.999Z</time></trkpt><trkpt lat="43.41012829790877" lon="-3.6044613580807225"><ele>97.0</ele><time>2026-04-30T17:38:58.999Z</time></trkpt><trkpt lat="43.41014206665678" lon="-3.604577448944169"><ele>97.00000000000001</ele><time>2026-04-30T17:38:59.999Z</time></trkpt><trkpt lat="43.41015664968526" lon="-3.604697595167675"><ele>97.0</ele><time>2026-04-30T17:39:00.999Z</time></trkpt><trkpt lat="43.410169279680865" lon="-3.6048199040129223"><ele>97.33333333333334</ele><time>2026-04-30T17:39:01.999Z</time></trkpt><trkpt lat="43.41018217049302" lon="-3.604937061670953"><ele>97.66666666666667</ele><time>2026-04-30T17:39:02.999Z</time></trkpt><trkpt lat="43.41019466246475" lon="-3.6050600484704107"><ele>98.0</ele><time>2026-04-30T17:39:03.999Z</time></trkpt><trkpt lat="43.41020936896162" lon="-3.6051815103623714"><ele>98.33333333333334</ele><time>2026-04-30T17:39:04.999Z</time></trkpt><trkpt lat="43.41022414838489" lon="-3.6052997060434078"><ele>98.66666666666667</ele><time>2026-04-30T17:39:05.999Z</time></trkpt><trkpt lat="43.410233043901734" lon="-3.6054192050426637"><ele>99.0</ele><time>2026-04-30T17:39:06.999Z</time></trkpt><trkpt lat="43.410243225970255" lon="-3.605545121315436"><ele>99.6</ele><time>2026-04-30T17:39:07.999Z</time></trkpt><trkpt lat="43.410252512530825" lon="-3.605669063760254"><ele>100.2</ele><time>2026-04-30T17:39:08.999Z</time></trkpt><trkpt lat="43.41026499924764" lon="-3.605793333155753"><ele>100.8</ele><time>2026-04-30T17:39:09.999Z</time></trkpt><trkpt lat="43.410272366515734" lon="-3.605919201690876"><ele>101.39999999999999</ele><time>2026-04-30T17:39:10.999Z</time></trkpt><trkpt lat="43.41028295878647" lon="-3.6060436121330306"><ele>102.0</ele><time>2026-04-30T17:39:11.999Z</time></trkpt><trkpt lat="43.410289106162544" lon="-3.6061741056359264"><ele>102.6</ele><time>2026-04-30T17:39:12.999Z</time></trkpt><trkpt lat="43.41029652794812" lon="-3.606297393712262"><ele>103.19999999999999</ele><time>2026-04-30T17:39:13.999Z</time></trkpt><trkpt lat="43.41030699705527" lon="-3.6064245786726086"><ele>103.8</ele><time>2026-04-30T17:39:14.999Z</time></trkpt><trkpt lat="43.41031523664233" lon="-3.606548235069828"><ele>104.4</ele><time>2026-04-30T17:39:15.999Z</time></trkpt><trkpt lat="43.41032200385088" lon="-3.6066760376082967"><ele>105.0</ele><time>2026-04-30T17:39:16.999Z</time></trkpt><trkpt lat="43.41033043491541" lon="-3.606801060952693"><ele>105.0</ele><time>2026-04-30T17:39:17.999Z</time></trkpt><trkpt lat="43.41033702700698" lon="-3.6069261500629084"><ele>105.0</ele><time>2026-04-30T17:39:18.999Z</time></trkpt><trkpt lat="43.41034532977275" lon="-3.6070513311692776"><ele>105.0</ele><time>2026-04-30T17:39:19.999Z</time></trkpt><trkpt lat="43.41035275424621" lon="-3.6071764231241503"><ele>105.0</ele><time>2026-04-30T17:39:20.999Z</time></trkpt><trkpt lat="43.41036260189901" lon="-3.6073020638782562"><ele>105.0</ele><time>2026-04-30T17:39:22Z</time></trkpt><trkpt lat="43.41037388605421" lon="-3.6074309322070413"><ele>105.6</ele><time>2026-04-30T17:39:23Z</time></trkpt><trkpt lat="43.41038129598182" lon="-3.607554128978893"><ele>106.2</ele><time>2026-04-30T17:39:24Z</time></trkpt><trkpt lat="43.410389225239356" lon="-3.6076808639198408"><ele>106.80000000000001</ele><time>2026-04-30T17:39:25Z</time></trkpt><trkpt lat="43.41039341558824" lon="-3.6078054623731903"><ele>107.4</ele><time>2026-04-30T17:39:26Z</time></trkpt><trkpt lat="43.41039766813467" lon="-3.607930792568333"><ele>108.0</ele><time>2026-04-30T17:39:27Z</time></trkpt><trkpt lat="43.41040478011029" lon="-3.6080596894889525"><ele>109.0</ele><time>2026-04-30T17:39:28Z</time></trkpt><trkpt lat="43.410405446625276" lon="-3.6081860008336624"><ele>110.00000000000001</ele><time>2026-04-30T17:39:29Z</time></trkpt><trkpt lat="43.410409781015666" lon="-3.6083143744998476"><ele>111.00000000000001</ele><time>2026-04-30T17:39:30Z</time></trkpt><trkpt lat="43.41041409875158" lon="-3.608441829200522"><ele>112.0</ele><time>2026-04-30T17:39:31Z</time></trkpt><trkpt lat="43.41041861804787" lon="-3.6085702854178443"><ele>113.0</ele><time>2026-04-30T17:39:32Z</time></trkpt><trkpt lat="43.410422430135974" lon="-3.6086973051586586"><ele>113.80000000000001</ele><time>2026-04-30T17:39:33Z</time></trkpt><trkpt lat="43.41042717064513" lon="-3.608827004194278"><ele>114.60000000000001</ele><time>2026-04-30T17:39:34Z</time></trkpt><trkpt lat="43.410429218198146" lon="-3.6089521583319932"><ele>115.39999999999999</ele><time>2026-04-30T17:39:35Z</time></trkpt><trkpt lat="43.41042998289002" lon="-3.6090886600535"><ele>116.19999999999999</ele><time>2026-04-30T17:39:36Z</time></trkpt><trkpt lat="43.41042997306022" lon="-3.609213035337521"><ele>117.0</ele><time>2026-04-30T17:39:37Z</time></trkpt><trkpt lat="43.410430917670126" lon="-3.609336980505573"><ele>117.0</ele><time>2026-04-30T17:39:38Z</time></trkpt><trkpt lat="43.410436214761845" lon="-3.609466424435808"><ele>116.99999999999999</ele><time>2026-04-30T17:39:39Z</time></trkpt><trkpt lat="43.410438401998604" lon="-3.6095926020077216"><ele>116.99999999999999</ele><time>2026-04-30T17:39:40Z</time></trkpt><trkpt lat="43.41044155312066" lon="-3.6097193473075544"><ele>117.0</ele><time>2026-04-30T17:39:41Z</time></trkpt><trkpt lat="43.41044558830579" lon="-3.609843275903328"><ele>117.0</ele><time>2026-04-30T17:39:42Z</time></trkpt><trkpt lat="43.41044683275935" lon="-3.609970235538945"><ele>117.6</ele><time>2026-04-30T17:39:43Z</time></trkpt><trkpt lat="43.41044706814202" lon="-3.610097811048786"><ele>118.19999999999999</ele><time>2026-04-30T17:39:44Z</time></trkpt><trkpt lat="43.410446684586134" lon="-3.6102238690322266"><ele>118.8</ele><time>2026-04-30T17:39:45Z</time></trkpt><trkpt lat="43.41044372294405" lon="-3.6103514395376743"><ele>119.4</ele><time>2026-04-30T17:39:46Z</time></trkpt><trkpt lat="43.41043914108758" lon="-3.610476438319816"><ele>120.0</ele><time>2026-04-30T17:39:47Z</time></trkpt><trkpt lat="43.410432498848174" lon="-3.6106033457125517"><ele>120.0</ele><time>2026-04-30T17:39:48Z</time></trkpt><trkpt lat="43.41042029549326" lon="-3.6107302565699033"><ele>120.0</ele><time>2026-04-30T17:39:49Z</time></trkpt><trkpt lat="43.41040932272992" lon="-3.6108541253653734"><ele>120.0</ele><time>2026-04-30T17:39:50Z</time></trkpt><trkpt lat="43.410398040148806" lon="-3.6109827672339625"><ele>120.0</ele><time>2026-04-30T17:39:51Z</time></trkpt><trkpt lat="43.410384601113236" lon="-3.6111075969045707"><ele>120.0</ele><time>2026-04-30T17:39:52Z</time></trkpt><trkpt lat="43.41036487199409" lon="-3.6112396359369137"><ele>122.4</ele><time>2026-04-30T17:39:53Z</time></trkpt><trkpt lat="43.41034673652096" lon="-3.6113632222563585"><ele>124.8</ele><time>2026-04-30T17:39:54Z</time></trkpt><trkpt lat="43.410329875862914" lon="-3.611493921628254"><ele>127.19999999999999</ele><time>2026-04-30T17:39:55Z</time></trkpt><trkpt lat="43.41031141151944" lon="-3.6116241549596166"><ele>129.6</ele><time>2026-04-30T17:39:56Z</time></trkpt><trkpt lat="43.41029488496726" lon="-3.6117486148758196"><ele>132.0</ele><time>2026-04-30T17:39:57Z</time></trkpt><trkpt lat="43.4102742397861" lon="-3.6118763310367417"><ele>134.4</ele><time>2026-04-30T17:39:58Z</time></trkpt><trkpt lat="43.410249797126866" lon="-3.6120039100191867"><ele>136.79999999999998</ele><time>2026-04-30T17:39:59Z</time></trkpt><trkpt lat="43.41022533709461" lon="-3.6121262117584862"><ele>139.2</ele><time>2026-04-30T17:40:00Z</time></trkpt><trkpt lat="43.410195779165626" lon="-3.612250665485925"><ele>141.6</ele><time>2026-04-30T17:40:01Z</time></trkpt><trkpt lat="43.410162503345276" lon="-3.612367205632653"><ele>144.0</ele><time>2026-04-30T17:40:02Z</time></trkpt><trkpt lat="43.41011826895171" lon="-3.6124827760128126"><ele>144.0</ele><time>2026-04-30T17:40:03Z</time></trkpt><trkpt lat="43.41006841832399" lon="-3.6125927677184864"><ele>144.0</ele><time>2026-04-30T17:40:04Z</time></trkpt><trkpt lat="43.410014340638384" lon="-3.612695551421763"><ele>144.0</ele><time>2026-04-30T17:40:05Z</time></trkpt><trkpt lat="43.40995041622265" lon="-3.6127854629610945"><ele>144.0</ele><time>2026-04-30T17:40:06Z</time></trkpt><trkpt lat="43.40988491516342" lon="-3.612877468288746"><ele>144.0</ele><time>2026-04-30T17:40:07Z</time></trkpt><trkpt lat="43.409814273318545" lon="-3.612961164161696"><ele>144.6</ele><time>2026-04-30T17:40:08Z</time></trkpt><trkpt lat="43.40973693893186" lon="-3.6130322223553732"><ele>145.2</ele><time>2026-04-30T17:40:09Z</time></trkpt><trkpt lat="43.40966089305725" lon="-3.6131075598053726"><ele>145.79999999999998</ele><time>2026-04-30T17:40:10Z</time></trkpt><trkpt lat="43.40958312892182" lon="-3.6131804355320836"><ele>146.4</ele><time>2026-04-30T17:40:11Z</time></trkpt><trkpt lat="43.40950277502934" lon="-3.6132525883297104"><ele>147.0</ele><time>2026-04-30T17:40:12Z</time></trkpt><trkpt lat="43.409424178964784" lon="-3.6133294096600124"><ele>147.0</ele><time>2026-04-30T17:40:13Z</time></trkpt><trkpt lat="43.40934527193681" lon="-3.6134033127554916"><ele>147.0</ele><time>2026-04-30T17:40:14Z</time></trkpt><trkpt lat="43.40926682896013" lon="-3.6134802391810625"><ele>147.0</ele><time>2026-04-30T17:40:15Z</time></trkpt><trkpt lat="43.40918919340781" lon="-3.6135572921876054"><ele>147.0</ele><time>2026-04-30T17:40:16Z</time></trkpt><trkpt lat="43.40911265466896" lon="-3.6136362544366962"><ele>147.0</ele><time>2026-04-30T17:40:17Z</time></trkpt><trkpt lat="43.409038317351886" lon="-3.6137240634498307"><ele>150.0</ele><time>2026-04-30T17:40:18Z</time></trkpt><trkpt lat="43.40896620785709" lon="-3.6138080317274217"><ele>153.0</ele><time>2026-04-30T17:40:19Z</time></trkpt><trkpt lat="43.408893524652775" lon="-3.613894375726412"><ele>156.0</ele><time>2026-04-30T17:40:20Z</time></trkpt><trkpt lat="43.408826881335415" lon="-3.6139850298682226"><ele>159.0</ele><time>2026-04-30T17:40:21Z</time></trkpt><trkpt lat="43.40875768815516" lon="-3.614077312841838"><ele>162.0</ele><time>2026-04-30T17:40:22Z</time></trkpt><trkpt lat="43.40868611784528" lon="-3.6141628829876127"><ele>162.0</ele><time>2026-04-30T17:40:23Z</time></trkpt><trkpt lat="43.408625771075435" lon="-3.6142650205539617"><ele>162.0</ele><time>2026-04-30T17:40:24Z</time></trkpt><trkpt lat="43.40857132301524" lon="-3.6143674300801893"><ele>162.0</ele><time>2026-04-30T17:40:25Z</time></trkpt><trkpt lat="43.40851210778216" lon="-3.614471896863482"><ele>162.0</ele><time>2026-04-30T17:40:26Z</time></trkpt><trkpt lat="43.408448155654476" lon="-3.614567535356856"><ele>162.0</ele><time>2026-04-30T17:40:27Z</time></trkpt><trkpt lat="43.40839115093391" lon="-3.6146809499802237"><ele>164.39999999999998</ele><time>2026-04-30T17:40:28Z</time></trkpt><trkpt lat="43.40833333912096" lon="-3.6147887438208475"><ele>166.79999999999998</ele><time>2026-04-30T17:40:29Z</time></trkpt><trkpt lat="43.40827172988536" lon="-3.6148994972782162"><ele>169.2</ele><time>2026-04-30T17:40:30Z</time></trkpt><trkpt lat="43.4082100964763" lon="-3.615006987609346"><ele>171.6</ele><time>2026-04-30T17:40:31Z</time></trkpt><trkpt lat="43.408149604111" lon="-3.6151166440865397"><ele>174.0</ele><time>2026-04-30T17:40:32Z</time></trkpt><trkpt lat="43.408079203781746" lon="-3.615240630246168"><ele>173.6</ele><time>2026-04-30T17:40:33Z</time></trkpt><trkpt lat="43.40800720493009" lon="-3.6153712941487575"><ele>173.2</ele><time>2026-04-30T17:40:34Z</time></trkpt><trkpt lat="43.40796691679234" lon="-3.615484844771552"><ele>172.79999999999998</ele><time>2026-04-30T17:40:35Z</time></trkpt><trkpt lat="43.407903751894786" lon="-3.6156124827129688"><ele>172.39999999999998</ele><time>2026-04-30T17:40:36Z</time></trkpt><trkpt lat="43.40782921390356" lon="-3.6157421508359864"><ele>172.0</ele><time>2026-04-30T17:40:37Z</time></trkpt><trkpt lat="43.40775945242909" lon="-3.61586587688447"><ele>169.4</ele><time>2026-04-30T17:40:38Z</time></trkpt><trkpt lat="43.40770194085039" lon="-3.6159877537857175"><ele>166.79999999999998</ele><time>2026-04-30T17:40:39Z</time></trkpt><trkpt lat="43.40765297038013" lon="-3.6161228874078613"><ele>164.2</ele><time>2026-04-30T17:40:40Z</time></trkpt><trkpt lat="43.40761866485067" lon="-3.6162722805181478"><ele>161.6</ele><time>2026-04-30T17:40:41Z</time></trkpt><trkpt lat="43.407586750852744" lon="-3.61642513846602"><ele>159.0</ele><time>2026-04-30T17:40:42Z</time></trkpt><trkpt lat="43.40756032096761" lon="-3.6165739988874797"><ele>158.33333333333334</ele><time>2026-04-30T17:40:43Z</time></trkpt><trkpt lat="43.407556695099565" lon="-3.616700667623037"><ele>157.66666666666666</ele><time>2026-04-30T17:40:44Z</time></trkpt><trkpt lat="43.407554207329106" lon="-3.6168175031773884"><ele>157.0</ele><time>2026-04-30T17:40:45Z</time></trkpt><trkpt lat="43.40754252825354" lon="-3.61691695607328"><ele>156.33333333333331</ele><time>2026-04-30T17:40:46Z</time></trkpt><trkpt lat="43.407528385369844" lon="-3.617004571865822"><ele>155.66666666666666</ele><time>2026-04-30T17:40:47Z</time></trkpt><trkpt lat="43.40749616123472" lon="-3.6171498195518073"><ele>155.0</ele><time>2026-04-30T17:40:49Z</time></trkpt><trkpt lat="43.407481275849264" lon="-3.6172872822160014"><ele>154.16666666666666</ele><time>2026-04-30T17:40:51Z</time></trkpt><trkpt lat="43.40748932274009" lon="-3.61742539648179"><ele>153.33333333333331</ele><time>2026-04-30T17:40:53Z</time></trkpt><trkpt lat="43.40746292846545" lon="-3.6175331464044147"><ele>152.5</ele><time>2026-04-30T17:40:55.001Z</time></trkpt><trkpt lat="43.407445074501936" lon="-3.61763841566141"><ele>151.66666666666666</ele><time>2026-04-30T17:40:57.001Z</time></trkpt><trkpt lat="43.407435383574075" lon="-3.617734888897915"><ele>150.83333333333334</ele><time>2026-04-30T17:40:58.999Z</time></trkpt><trkpt lat="43.40741968801747" lon="-3.617835781124602"><ele>150.0</ele><time>2026-04-30T17:41:00.999Z</time></trkpt><trkpt lat="43.407390752616" lon="-3.6179889286055396"><ele>149.0</ele><time>2026-04-30T17:41:02.999Z</time></trkpt><trkpt lat="43.40736761100203" lon="-3.618165764628286"><ele>148.0</ele><time>2026-04-30T17:41:04.999Z</time></trkpt><trkpt lat="43.40734841783988" lon="-3.618270966830928"><ele>147.0</ele><time>2026-04-30T17:41:05.999Z</time></trkpt><trkpt lat="43.407332617141826" lon="-3.6183795957230624"><ele>146.0</ele><time>2026-04-30T17:41:06.999Z</time></trkpt><trkpt lat="43.407314922867165" lon="-3.6184877259658457"><ele>145.0</ele><time>2026-04-30T17:41:07.999Z</time></trkpt><trkpt lat="43.407297359088325" lon="-3.61860617662711"><ele>142.8</ele><time>2026-04-30T17:41:08.999Z</time></trkpt><trkpt lat="43.40727653156716" lon="-3.618731867914224"><ele>140.6</ele><time>2026-04-30T17:41:09.999Z</time></trkpt><trkpt lat="43.40725394970322" lon="-3.6188676750338065"><ele>138.4</ele><time>2026-04-30T17:41:10.999Z</time></trkpt><trkpt lat="43.40722758687878" lon="-3.619004593123996"><ele>136.2</ele><time>2026-04-30T17:41:11.999Z</time></trkpt><trkpt lat="43.4071968100979" lon="-3.6191385293153426"><ele>134.0</ele><time>2026-04-30T17:41:12.999Z</time></trkpt><trkpt lat="43.40715610791882" lon="-3.619264874286663"><ele>135.8</ele><time>2026-04-30T17:41:13.999Z</time></trkpt><trkpt lat="43.407128062016156" lon="-3.6193938267785137"><ele>137.60000000000002</ele><time>2026-04-30T17:41:14.999Z</time></trkpt><trkpt lat="43.407069918428704" lon="-3.6195166135048793"><ele>139.4</ele><time>2026-04-30T17:41:15.999Z</time></trkpt><trkpt lat="43.40700585511381" lon="-3.6196341585540366"><ele>141.20000000000002</ele><time>2026-04-30T17:41:16.999Z</time></trkpt><trkpt lat="43.40694128776992" lon="-3.619741824138729"><ele>143.0</ele><time>2026-04-30T17:41:17.999Z</time></trkpt><trkpt lat="43.40687537801533" lon="-3.6198488382164027"><ele>143.0</ele><time>2026-04-30T17:41:18.999Z</time></trkpt><trkpt lat="43.406808584333724" lon="-3.619951924787784"><ele>143.0</ele><time>2026-04-30T17:41:19.999Z</time></trkpt><trkpt lat="43.406743125230754" lon="-3.620061393779081"><ele>143.0</ele><time>2026-04-30T17:41:20.999Z</time></trkpt><trkpt lat="43.40668123433636" lon="-3.620177528169238"><ele>143.0</ele><time>2026-04-30T17:41:22Z</time></trkpt><trkpt lat="43.40662902568912" lon="-3.620304096675005"><ele>143.0</ele><time>2026-04-30T17:41:23Z</time></trkpt><trkpt lat="43.406585969248056" lon="-3.6204364084826786"><ele>140.8</ele><time>2026-04-30T17:41:24Z</time></trkpt><trkpt lat="43.40655657770773" lon="-3.6205831630235705"><ele>138.60000000000002</ele><time>2026-04-30T17:41:25Z</time></trkpt><trkpt lat="43.40653655423822" lon="-3.6207314645873954"><ele>136.39999999999998</ele><time>2026-04-30T17:41:26Z</time></trkpt><trkpt lat="43.40653170288579" lon="-3.6208825837065333"><ele>134.2</ele><time>2026-04-30T17:41:27Z</time></trkpt><trkpt lat="43.40653917314328" lon="-3.6210341464742206"><ele>132.0</ele><time>2026-04-30T17:41:28Z</time></trkpt><trkpt lat="43.40654252447693" lon="-3.621187622405738"><ele>131.5</ele><time>2026-04-30T17:41:29Z</time></trkpt><trkpt lat="43.40654670034205" lon="-3.621344760157521"><ele>131.0</ele><time>2026-04-30T17:41:30Z</time></trkpt><trkpt lat="43.406550796067" lon="-3.621506357433827"><ele>130.5</ele><time>2026-04-30T17:41:31Z</time></trkpt><trkpt lat="43.40655198479099" lon="-3.6216631024532173"><ele>130.0</ele><time>2026-04-30T17:41:32Z</time></trkpt><trkpt lat="43.40655042429339" lon="-3.6218203090754395"><ele>130.0</ele><time>2026-04-30T17:41:33Z</time></trkpt><trkpt lat="43.40654609205646" lon="-3.6219757324853386"><ele>130.0</ele><time>2026-04-30T17:41:34Z</time></trkpt><trkpt lat="43.406541071099944" lon="-3.6221334005446764"><ele>130.0</ele><time>2026-04-30T17:41:35Z</time></trkpt><trkpt lat="43.40653805867146" lon="-3.6222925577537364"><ele>130.0</ele><time>2026-04-30T17:41:36Z</time></trkpt><trkpt lat="43.40653288738507" lon="-3.6224523420971626"><ele>129.25</ele><time>2026-04-30T17:41:37Z</time></trkpt><trkpt lat="43.40653248017124" lon="-3.6226110640976943"><ele>128.5</ele><time>2026-04-30T17:41:38Z</time></trkpt><trkpt lat="43.40653038992854" lon="-3.622767555786544"><ele>127.75</ele><time>2026-04-30T17:41:39Z</time></trkpt><trkpt lat="43.40652241625757" lon="-3.6229265685358"><ele>127.0</ele><time>2026-04-30T17:41:40Z</time></trkpt><trkpt lat="43.40651689183762" lon="-3.62308234175649"><ele>127.75</ele><time>2026-04-30T17:41:41Z</time></trkpt><trkpt lat="43.40651270170273" lon="-3.6232449218249982"><ele>128.5</ele><time>2026-04-30T17:41:42Z</time></trkpt><trkpt lat="43.40650445197014" lon="-3.623405253622891"><ele>129.25</ele><time>2026-04-30T17:41:43Z</time></trkpt><trkpt lat="43.40650022655102" lon="-3.623563019399406"><ele>130.0</ele><time>2026-04-30T17:41:44Z</time></trkpt><trkpt lat="43.40649432772169" lon="-3.623721221369211"><ele>130.0</ele><time>2026-04-30T17:41:45Z</time></trkpt><trkpt lat="43.40648634331936" lon="-3.6238796550329373"><ele>130.0</ele><time>2026-04-30T17:41:46Z</time></trkpt><trkpt lat="43.406477359736776" lon="-3.6240383913219087"><ele>130.0</ele><time>2026-04-30T17:41:47Z</time></trkpt><trkpt lat="43.406463719438854" lon="-3.6241967777130015"><ele>130.0</ele><time>2026-04-30T17:41:48Z</time></trkpt><trkpt lat="43.406443288019844" lon="-3.624353962279574"><ele>129.25</ele><time>2026-04-30T17:41:49Z</time></trkpt><trkpt lat="43.40641265095336" lon="-3.6245086288565975"><ele>128.5</ele><time>2026-04-30T17:41:50Z</time></trkpt><trkpt lat="43.40637384885469" lon="-3.6246580431854514"><ele>127.75</ele><time>2026-04-30T17:41:51Z</time></trkpt><trkpt lat="43.40633074809521" lon="-3.6248085973380495"><ele>127.0</ele><time>2026-04-30T17:41:52Z</time></trkpt><trkpt lat="43.40628141744381" lon="-3.6249496999604642"><ele>127.0</ele><time>2026-04-30T17:41:53Z</time></trkpt><trkpt lat="43.40622183818119" lon="-3.6250849135837298"><ele>127.0</ele><time>2026-04-30T17:41:54Z</time></trkpt><trkpt lat="43.406156428892494" lon="-3.625213245819433"><ele>127.0</ele><time>2026-04-30T17:41:55Z</time></trkpt><trkpt lat="43.40609129291025" lon="-3.6253386536094045"><ele>127.0</ele><time>2026-04-30T17:41:56Z</time></trkpt><trkpt lat="43.406024857738544" lon="-3.625468212148663"><ele>126.75</ele><time>2026-04-30T17:41:57Z</time></trkpt><trkpt lat="43.405958489174196" lon="-3.625598649306155"><ele>126.5</ele><time>2026-04-30T17:41:58Z</time></trkpt><trkpt lat="43.4058903446974" lon="-3.6257310084581236"><ele>126.25</ele><time>2026-04-30T17:41:59Z</time></trkpt><trkpt lat="43.40582086179377" lon="-3.6258611315068037"><ele>126.0</ele><time>2026-04-30T17:42:00Z</time></trkpt><trkpt lat="43.40575245687678" lon="-3.625994884303751"><ele>126.0</ele><time>2026-04-30T17:42:01Z</time></trkpt><trkpt lat="43.40568260610777" lon="-3.626125353433188"><ele>126.0</ele><time>2026-04-30T17:42:02Z</time></trkpt><trkpt lat="43.40561065969401" lon="-3.626255791156723"><ele>126.0</ele><time>2026-04-30T17:42:03Z</time></trkpt><trkpt lat="43.405544057796014" lon="-3.6263891674982425"><ele>126.0</ele><time>2026-04-30T17:42:04Z</time></trkpt><trkpt lat="43.40548001701783" lon="-3.6265245886584725"><ele>123.5</ele><time>2026-04-30T17:42:05Z</time></trkpt><trkpt lat="43.40541322895232" lon="-3.6266587826930845"><ele>121.0</ele><time>2026-04-30T17:42:06Z</time></trkpt><trkpt lat="43.40534314407309" lon="-3.6267909102780247"><ele>118.5</ele><time>2026-04-30T17:42:07Z</time></trkpt><trkpt lat="43.40527502732646" lon="-3.6269256556104366"><ele>116.0</ele><time>2026-04-30T17:42:08Z</time></trkpt><trkpt lat="43.40520620107192" lon="-3.6270602272296375"><ele>116.0</ele><time>2026-04-30T17:42:09Z</time></trkpt><trkpt lat="43.40513990615325" lon="-3.6271925395173716"><ele>116.0</ele><time>2026-04-30T17:42:10Z</time></trkpt><trkpt lat="43.40507216404029" lon="-3.627318888004922"><ele>116.0</ele><time>2026-04-30T17:42:11Z</time></trkpt><trkpt lat="43.405002575047" lon="-3.6274468583821036"><ele>116.0</ele><time>2026-04-30T17:42:12Z</time></trkpt><trkpt lat="43.404934084201436" lon="-3.6275769626246994"><ele>116.0</ele><time>2026-04-30T17:42:13Z</time></trkpt><trkpt lat="43.40486695509082" lon="-3.627703060632262"><ele>116.0</ele><time>2026-04-30T17:42:14Z</time></trkpt><trkpt lat="43.40479329503092" lon="-3.6278274056497852"><ele>116.0</ele><time>2026-04-30T17:42:15Z</time></trkpt><trkpt lat="43.40471816624947" lon="-3.627947188882898"><ele>116.0</ele><time>2026-04-30T17:42:16Z</time></trkpt><trkpt lat="43.4046419670063" lon="-3.6280677574766327"><ele>114.75</ele><time>2026-04-30T17:42:17Z</time></trkpt><trkpt lat="43.40456456878634" lon="-3.628185899026244"><ele>113.5</ele><time>2026-04-30T17:42:18Z</time></trkpt><trkpt lat="43.40448541239763" lon="-3.6283033485434806"><ele>112.25</ele><time>2026-04-30T17:42:19Z</time></trkpt><trkpt lat="43.40440305143346" lon="-3.628422288135127"><ele>111.0</ele><time>2026-04-30T17:42:20Z</time></trkpt><trkpt lat="43.40432143552434" lon="-3.6285364190822444"><ele>109.75</ele><time>2026-04-30T17:42:21Z</time></trkpt><trkpt lat="43.404237623851365" lon="-3.6286490229353063"><ele>108.5</ele><time>2026-04-30T17:42:22Z</time></trkpt><trkpt lat="43.404157318891734" lon="-3.6287651830319567"><ele>107.25</ele><time>2026-04-30T17:42:23Z</time></trkpt><trkpt lat="43.404076599409834" lon="-3.628879800717802"><ele>106.0</ele><time>2026-04-30T17:42:24Z</time></trkpt><trkpt lat="43.40399418395409" lon="-3.6289980507015778"><ele>106.0</ele><time>2026-04-30T17:42:25.001Z</time></trkpt><trkpt lat="43.40391399085033" lon="-3.6291158656183047"><ele>106.0</ele><time>2026-04-30T17:42:26.001Z</time></trkpt><trkpt lat="43.40383563249707" lon="-3.6292301530259214"><ele>106.0</ele><time>2026-04-30T17:42:27.001Z</time></trkpt><trkpt lat="43.40375404016016" lon="-3.6293442650492374"><ele>106.0</ele><time>2026-04-30T17:42:28.001Z</time></trkpt><trkpt lat="43.40367200290395" lon="-3.6294606621446515"><ele>104.75</ele><time>2026-04-30T17:42:29.001Z</time></trkpt><trkpt lat="43.403589663043576" lon="-3.6295778625644393"><ele>103.5</ele><time>2026-04-30T17:42:30.001Z</time></trkpt><trkpt lat="43.403505079470634" lon="-3.6296964806785565"><ele>102.25</ele><time>2026-04-30T17:42:31.001Z</time></trkpt><trkpt lat="43.40341940605343" lon="-3.6298167302654023"><ele>101.0</ele><time>2026-04-30T17:42:32.001Z</time></trkpt><trkpt lat="43.403337698726546" lon="-3.6299321975625887"><ele>101.0</ele><time>2026-04-30T17:42:33.001Z</time></trkpt><trkpt lat="43.403252876792365" lon="-3.6300539853080394"><ele>101.0</ele><time>2026-04-30T17:42:34.001Z</time></trkpt><trkpt lat="43.403172664671224" lon="-3.630169200271282"><ele>101.0</ele><time>2026-04-30T17:42:35.001Z</time></trkpt><trkpt lat="43.40309038273177" lon="-3.630287296543305"><ele>101.0</ele><time>2026-04-30T17:42:36.001Z</time></trkpt><trkpt lat="43.40300965594879" lon="-3.630404438994882"><ele>101.75</ele><time>2026-04-30T17:42:37.001Z</time></trkpt><trkpt lat="43.402927611605804" lon="-3.6305248602500173"><ele>102.5</ele><time>2026-04-30T17:42:38.001Z</time></trkpt><trkpt lat="43.40284812598355" lon="-3.6306471183693927"><ele>103.25</ele><time>2026-04-30T17:42:39.001Z</time></trkpt><trkpt lat="43.40277198834182" lon="-3.6307629805945965"><ele>104.0</ele><time>2026-04-30T17:42:40.001Z</time></trkpt><trkpt lat="43.40269883965218" lon="-3.630889039163724"><ele>104.0</ele><time>2026-04-30T17:42:41.001Z</time></trkpt><trkpt lat="43.40262814751194" lon="-3.6310133219571314"><ele>104.0</ele><time>2026-04-30T17:42:42.001Z</time></trkpt><trkpt lat="43.40256064428341" lon="-3.6311431412507726"><ele>104.0</ele><time>2026-04-30T17:42:43.001Z</time></trkpt><trkpt lat="43.40249727060303" lon="-3.6312733867514915"><ele>104.0</ele><time>2026-04-30T17:42:44.001Z</time></trkpt><trkpt lat="43.40243939200815" lon="-3.6314035404765526"><ele>104.0</ele><time>2026-04-30T17:42:45.001Z</time></trkpt><trkpt lat="43.40238643818279" lon="-3.6315353469125218"><ele>104.0</ele><time>2026-04-30T17:42:46.001Z</time></trkpt><trkpt lat="43.40233707933054" lon="-3.63166879860007"><ele>104.0</ele><time>2026-04-30T17:42:47.001Z</time></trkpt><trkpt lat="43.40229305620514" lon="-3.631804238427594"><ele>104.0</ele><time>2026-04-30T17:42:48.001Z</time></trkpt><trkpt lat="43.402255505280245" lon="-3.6319403324473374"><ele>104.0</ele><time>2026-04-30T17:42:49.001Z</time></trkpt><trkpt lat="43.40221359852669" lon="-3.6320680766864397"><ele>104.80000000000001</ele><time>2026-04-30T17:42:50.001Z</time></trkpt><trkpt lat="43.402175308876956" lon="-3.632203521251349"><ele>105.60000000000001</ele><time>2026-04-30T17:42:51.001Z</time></trkpt><trkpt lat="43.402153466480755" lon="-3.6323071310580164"><ele>106.4</ele><time>2026-04-30T17:42:52.001Z</time></trkpt><trkpt lat="43.40212729956287" lon="-3.6324706240723503"><ele>107.2</ele><time>2026-04-30T17:42:53.001Z</time></trkpt><trkpt lat="43.40211246126786" lon="-3.632608841952562"><ele>108.0</ele><time>2026-04-30T17:42:54.001Z</time></trkpt><trkpt lat="43.40209627828403" lon="-3.6327454714776164"><ele>108.4</ele><time>2026-04-30T17:42:55.001Z</time></trkpt><trkpt lat="43.40208261599496" lon="-3.632881445284428"><ele>108.80000000000001</ele><time>2026-04-30T17:42:56.001Z</time></trkpt><trkpt lat="43.40207261013375" lon="-3.633016884451163"><ele>109.2</ele><time>2026-04-30T17:42:57.001Z</time></trkpt><trkpt lat="43.40206894214167" lon="-3.6331540739850987"><ele>109.6</ele><time>2026-04-30T17:42:58.001Z</time></trkpt><trkpt lat="43.40206706704398" lon="-3.633297717133125"><ele>110.0</ele><time>2026-04-30T17:42:59.001Z</time></trkpt><trkpt lat="43.402065879120684" lon="-3.63343955368038"><ele>110.0</ele><time>2026-04-30T17:43:00.001Z</time></trkpt><trkpt lat="43.40207692482524" lon="-3.6336043006404464"><ele>110.0</ele><time>2026-04-30T17:43:01.001Z</time></trkpt><trkpt lat="43.40210249535059" lon="-3.6337977096356093"><ele>110.0</ele><time>2026-04-30T17:43:02.001Z</time></trkpt><trkpt lat="43.402082433426365" lon="-3.6338951998226263"><ele>110.0</ele><time>2026-04-30T17:43:03.001Z</time></trkpt><trkpt lat="43.40208414327095" lon="-3.634047525777396"><ele>110.0</ele><time>2026-04-30T17:43:04.001Z</time></trkpt><trkpt lat="43.402095062485245" lon="-3.6342069529219856"><ele>110.0</ele><time>2026-04-30T17:43:04.999Z</time></trkpt><trkpt lat="43.402106471594024" lon="-3.634374939679282"><ele>110.0</ele><time>2026-04-30T17:43:05.999Z</time></trkpt><trkpt lat="43.40211457010423" lon="-3.634540088404545"><ele>110.0</ele><time>2026-04-30T17:43:06.999Z</time></trkpt><trkpt lat="43.40212126438239" lon="-3.63470549621986"><ele>110.0</ele><time>2026-04-30T17:43:07.999Z</time></trkpt><trkpt lat="43.402127750164205" lon="-3.6348682921270665"><ele>110.0</ele><time>2026-04-30T17:43:08.999Z</time></trkpt><trkpt lat="43.402135302261506" lon="-3.6350341485909894"><ele>110.0</ele><time>2026-04-30T17:43:09.999Z</time></trkpt><trkpt lat="43.402143747378155" lon="-3.635198197325014"><ele>110.0</ele><time>2026-04-30T17:43:10.999Z</time></trkpt><trkpt lat="43.40215218202794" lon="-3.635364728968654"><ele>110.0</ele><time>2026-04-30T17:43:11.999Z</time></trkpt><trkpt lat="43.40215852412843" lon="-3.635524958186474"><ele>110.0</ele><time>2026-04-30T17:43:12.999Z</time></trkpt><trkpt lat="43.40215721587556" lon="-3.635684676345344"><ele>110.0</ele><time>2026-04-30T17:43:13.999Z</time></trkpt><trkpt lat="43.40215610743745" lon="-3.635843992226919"><ele>110.0</ele><time>2026-04-30T17:43:14.999Z</time></trkpt><trkpt lat="43.402145732161934" lon="-3.636005085530597"><ele>110.0</ele><time>2026-04-30T17:43:15.999Z</time></trkpt><trkpt lat="43.40213190533868" lon="-3.6361673019112826"><ele>110.0</ele><time>2026-04-30T17:43:16.999Z</time></trkpt><trkpt lat="43.40211430441349" lon="-3.6363204183090376"><ele>110.0</ele><time>2026-04-30T17:43:17.999Z</time></trkpt><trkpt lat="43.40208785520191" lon="-3.636477154942772"><ele>110.0</ele><time>2026-04-30T17:43:19Z</time></trkpt><trkpt lat="43.40206002617655" lon="-3.636630023998077"><ele>110.0</ele><time>2026-04-30T17:43:20Z</time></trkpt><trkpt lat="43.40202491172894" lon="-3.63678260622128"><ele>110.0</ele><time>2026-04-30T17:43:21Z</time></trkpt><trkpt lat="43.401979842702225" lon="-3.636935284787044"><ele>110.0</ele><time>2026-04-30T17:43:22Z</time></trkpt><trkpt lat="43.401937059361536" lon="-3.6370856395237987"><ele>110.0</ele><time>2026-04-30T17:43:23Z</time></trkpt><trkpt lat="43.401894170179915" lon="-3.6372324067093595"><ele>110.0</ele><time>2026-04-30T17:43:24Z</time></trkpt><trkpt lat="43.401847216540354" lon="-3.6373763140859503"><ele>109.25</ele><time>2026-04-30T17:43:25Z</time></trkpt><trkpt lat="43.40180314760287" lon="-3.6375258547652005"><ele>108.5</ele><time>2026-04-30T17:43:26Z</time></trkpt><trkpt lat="43.40175857820897" lon="-3.6376741463306566"><ele>107.75</ele><time>2026-04-30T17:43:27Z</time></trkpt><trkpt lat="43.40171137628637" lon="-3.6378209243798465"><ele>107.0</ele><time>2026-04-30T17:43:28Z</time></trkpt><trkpt lat="43.40166928416799" lon="-3.637971558207968"><ele>105.25</ele><time>2026-04-30T17:43:29Z</time></trkpt><trkpt lat="43.401635057686505" lon="-3.6381272650680168"><ele>103.5</ele><time>2026-04-30T17:43:30Z</time></trkpt><trkpt lat="43.401606446126735" lon="-3.6382875082364556"><ele>101.75</ele><time>2026-04-30T17:43:31Z</time></trkpt><trkpt lat="43.40158298820638" lon="-3.638447610047309"><ele>100.0</ele><time>2026-04-30T17:43:32Z</time></trkpt><trkpt lat="43.40156112787327" lon="-3.638609313534469"><ele>98.75</ele><time>2026-04-30T17:43:33Z</time></trkpt><trkpt lat="43.401542296729616" lon="-3.6387715484923575"><ele>97.5</ele><time>2026-04-30T17:43:34Z</time></trkpt><trkpt lat="43.40152523774586" lon="-3.638939485077812"><ele>96.25</ele><time>2026-04-30T17:43:35Z</time></trkpt><trkpt lat="43.40150645968981" lon="-3.6391077793817654"><ele>95.0</ele><time>2026-04-30T17:43:36Z</time></trkpt><trkpt lat="43.401477325231525" lon="-3.639271281627506"><ele>95.0</ele><time>2026-04-30T17:43:37Z</time></trkpt><trkpt lat="43.40144312972172" lon="-3.639431498113457"><ele>95.0</ele><time>2026-04-30T17:43:38Z</time></trkpt><trkpt lat="43.4014025913211" lon="-3.639591232629502"><ele>95.0</ele><time>2026-04-30T17:43:39Z</time></trkpt><trkpt lat="43.40135305519853" lon="-3.639748845054744"><ele>95.0</ele><time>2026-04-30T17:43:40Z</time></trkpt><trkpt lat="43.401301382201645" lon="-3.639899330754604"><ele>97.0</ele><time>2026-04-30T17:43:41Z</time></trkpt><trkpt lat="43.40124430818629" lon="-3.6400498273169344"><ele>99.0</ele><time>2026-04-30T17:43:42Z</time></trkpt><trkpt lat="43.40118577893009" lon="-3.6401979228865873"><ele>101.0</ele><time>2026-04-30T17:43:43Z</time></trkpt><trkpt lat="43.40112982162826" lon="-3.640342433071643"><ele>103.0</ele><time>2026-04-30T17:43:44Z</time></trkpt><trkpt lat="43.401074577697855" lon="-3.6404850901599892"><ele>103.0</ele><time>2026-04-30T17:43:45Z</time></trkpt><trkpt lat="43.40101983473311" lon="-3.640629140367001"><ele>103.0</ele><time>2026-04-30T17:43:46Z</time></trkpt><trkpt lat="43.40096750028379" lon="-3.6407740081009896"><ele>103.0</ele><time>2026-04-30T17:43:47Z</time></trkpt><trkpt lat="43.40091507382398" lon="-3.6409153348877106"><ele>103.0</ele><time>2026-04-30T17:43:48Z</time></trkpt><trkpt lat="43.40086036910296" lon="-3.641058316773476"><ele>101.5</ele><time>2026-04-30T17:43:49Z</time></trkpt><trkpt lat="43.40080689185187" lon="-3.641200034210705"><ele>100.0</ele><time>2026-04-30T17:43:50Z</time></trkpt><trkpt lat="43.40075223029518" lon="-3.641341477000528"><ele>98.5</ele><time>2026-04-30T17:43:51Z</time></trkpt><trkpt lat="43.4006955537407" lon="-3.641485483532858"><ele>97.0</ele><time>2026-04-30T17:43:52Z</time></trkpt><trkpt lat="43.40064386978861" lon="-3.641629076358643"><ele>97.0</ele><time>2026-04-30T17:43:53Z</time></trkpt><trkpt lat="43.40059398719146" lon="-3.6417724747910474"><ele>97.0</ele><time>2026-04-30T17:43:54Z</time></trkpt><trkpt lat="43.40054843550609" lon="-3.641919722898503"><ele>97.0</ele><time>2026-04-30T17:43:55Z</time></trkpt><trkpt lat="43.400505174403264" lon="-3.642069786063183"><ele>97.0</ele><time>2026-04-30T17:43:56Z</time></trkpt><trkpt lat="43.40046589803101" lon="-3.6422232011107596"><ele>97.75</ele><time>2026-04-30T17:43:57Z</time></trkpt><trkpt lat="43.40043027345941" lon="-3.642380658864988"><ele>98.5</ele><time>2026-04-30T17:43:58Z</time></trkpt><trkpt lat="43.4004022001925" lon="-3.64253258848517"><ele>99.25</ele><time>2026-04-30T17:43:59Z</time></trkpt><trkpt lat="43.40037710304218" lon="-3.6426904122667163"><ele>100.0</ele><time>2026-04-30T17:44:00Z</time></trkpt><trkpt lat="43.400357975389745" lon="-3.642845959181332"><ele>100.0</ele><time>2026-04-30T17:44:01Z</time></trkpt><trkpt lat="43.40033911638765" lon="-3.6430038872102175"><ele>100.0</ele><time>2026-04-30T17:44:02Z</time></trkpt><trkpt lat="43.400315951251336" lon="-3.6431573853373154"><ele>100.0</ele><time>2026-04-30T17:44:03Z</time></trkpt><trkpt lat="43.40028703081006" lon="-3.6433123056784296"><ele>100.0</ele><time>2026-04-30T17:44:04Z</time></trkpt><trkpt lat="43.40025616286483" lon="-3.6434660333878224"><ele>100.0</ele><time>2026-04-30T17:44:05Z</time></trkpt><trkpt lat="43.40022716141246" lon="-3.6436095168038367"><ele>100.0</ele><time>2026-04-30T17:44:06Z</time></trkpt><trkpt lat="43.40018505849619" lon="-3.643748074331438"><ele>100.0</ele><time>2026-04-30T17:44:07Z</time></trkpt><trkpt lat="43.40012909673123" lon="-3.6438668255306705"><ele>100.0</ele><time>2026-04-30T17:44:08Z</time></trkpt><trkpt lat="43.40008262989121" lon="-3.644001984846798"><ele>100.0</ele><time>2026-04-30T17:44:09Z</time></trkpt><trkpt lat="43.400044152120564" lon="-3.64415076246391"><ele>99.8</ele><time>2026-04-30T17:44:10Z</time></trkpt><trkpt lat="43.39999942000554" lon="-3.6442925200264935"><ele>99.6</ele><time>2026-04-30T17:44:11.001Z</time></trkpt><trkpt lat="43.3999476204948" lon="-3.644424342011665"><ele>99.4</ele><time>2026-04-30T17:44:12.001Z</time></trkpt><trkpt lat="43.399902975822435" lon="-3.6445603976185907"><ele>99.2</ele><time>2026-04-30T17:44:13.001Z</time></trkpt><trkpt lat="43.3998572151272" lon="-3.644694789216987"><ele>99.0</ele><time>2026-04-30T17:44:14.001Z</time></trkpt><trkpt lat="43.399808513379156" lon="-3.6448329060547495"><ele>99.0</ele><time>2026-04-30T17:44:15.001Z</time></trkpt><trkpt lat="43.39975982740829" lon="-3.6449719888555827"><ele>99.0</ele><time>2026-04-30T17:44:16.001Z</time></trkpt><trkpt lat="43.3997132433738" lon="-3.6451113759029568"><ele>99.0</ele><time>2026-04-30T17:44:17.001Z</time></trkpt><trkpt lat="43.39966847924076" lon="-3.645249770197759"><ele>99.0</ele><time>2026-04-30T17:44:18.001Z</time></trkpt><trkpt lat="43.39962819333604" lon="-3.645389526691019"><ele>99.0</ele><time>2026-04-30T17:44:19.001Z</time></trkpt><trkpt lat="43.39958779240332" lon="-3.6455302184131733"><ele>99.0</ele><time>2026-04-30T17:44:20.001Z</time></trkpt><trkpt lat="43.39954731693683" lon="-3.6456746178137216"><ele>99.0</ele><time>2026-04-30T17:44:21.001Z</time></trkpt><trkpt lat="43.39950624770161" lon="-3.645819129428302"><ele>99.0</ele><time>2026-04-30T17:44:22.001Z</time></trkpt><trkpt lat="43.39946685024967" lon="-3.645961183688284"><ele>99.0</ele><time>2026-04-30T17:44:23.001Z</time></trkpt><trkpt lat="43.39942608890118" lon="-3.646101283450133"><ele>99.0</ele><time>2026-04-30T17:44:24.001Z</time></trkpt><trkpt lat="43.39938764152531" lon="-3.64625055454035"><ele>100.5</ele><time>2026-04-30T17:44:25.001Z</time></trkpt><trkpt lat="43.39934757359424" lon="-3.646396114652226"><ele>102.0</ele><time>2026-04-30T17:44:26.001Z</time></trkpt><trkpt lat="43.39930676093847" lon="-3.646542468371678"><ele>103.5</ele><time>2026-04-30T17:44:27.001Z</time></trkpt><trkpt lat="43.39926469878271" lon="-3.646687571681179"><ele>105.0</ele><time>2026-04-30T17:44:28.001Z</time></trkpt><trkpt lat="43.39922455102436" lon="-3.6468328314563667"><ele>105.75</ele><time>2026-04-30T17:44:29.001Z</time></trkpt><trkpt lat="43.399178714164805" lon="-3.646982877978781"><ele>106.5</ele><time>2026-04-30T17:44:30.001Z</time></trkpt><trkpt lat="43.39913526381677" lon="-3.6471320249120467"><ele>107.25</ele><time>2026-04-30T17:44:31.001Z</time></trkpt><trkpt lat="43.39909488443543" lon="-3.6472757296379568"><ele>108.0</ele><time>2026-04-30T17:44:32.001Z</time></trkpt><trkpt lat="43.39905210074437" lon="-3.6474252332126817"><ele>108.0</ele><time>2026-04-30T17:44:33.001Z</time></trkpt><trkpt lat="43.399005804517465" lon="-3.6475678843151855"><ele>108.0</ele><time>2026-04-30T17:44:34.001Z</time></trkpt><trkpt lat="43.398955238206156" lon="-3.6477142164296352"><ele>108.0</ele><time>2026-04-30T17:44:35.001Z</time></trkpt><trkpt lat="43.39890485639295" lon="-3.6478510071472026"><ele>108.0</ele><time>2026-04-30T17:44:36.001Z</time></trkpt><trkpt lat="43.39885390548687" lon="-3.647992639460808"><ele>105.5</ele><time>2026-04-30T17:44:37.001Z</time></trkpt><trkpt lat="43.39880169131046" lon="-3.6481340303763243"><ele>103.0</ele><time>2026-04-30T17:44:38.001Z</time></trkpt><trkpt lat="43.398747509758614" lon="-3.6482738958313465"><ele>100.5</ele><time>2026-04-30T17:44:39.001Z</time></trkpt><trkpt lat="43.398690935594296" lon="-3.6484163658300175"><ele>98.0</ele><time>2026-04-30T17:44:40.001Z</time></trkpt><trkpt lat="43.39863560262024" lon="-3.6485536305052872"><ele>98.5</ele><time>2026-04-30T17:44:41.001Z</time></trkpt><trkpt lat="43.39857735601371" lon="-3.6486950227185417"><ele>99.0</ele><time>2026-04-30T17:44:42.001Z</time></trkpt><trkpt lat="43.39852173048388" lon="-3.648836567592375"><ele>99.5</ele><time>2026-04-30T17:44:43.001Z</time></trkpt><trkpt lat="43.3984641179765" lon="-3.6489751220910893"><ele>100.0</ele><time>2026-04-30T17:44:44.001Z</time></trkpt><trkpt lat="43.39840903382721" lon="-3.649117952361703"><ele>100.0</ele><time>2026-04-30T17:44:45.001Z</time></trkpt><trkpt lat="43.398349759345244" lon="-3.6492606461517076"><ele>100.0</ele><time>2026-04-30T17:44:46.001Z</time></trkpt><trkpt lat="43.39828864815427" lon="-3.6494018076573638"><ele>100.0</ele><time>2026-04-30T17:44:47.001Z</time></trkpt><trkpt lat="43.398224734767204" lon="-3.649535790180706"><ele>100.0</ele><time>2026-04-30T17:44:48.001Z</time></trkpt><trkpt lat="43.39815709178667" lon="-3.649665881397855"><ele>99.75</ele><time>2026-04-30T17:44:49.001Z</time></trkpt><trkpt lat="43.398083782338304" lon="-3.649792308778666"><ele>99.5</ele><time>2026-04-30T17:44:50.001Z</time></trkpt><trkpt lat="43.398011762914656" lon="-3.6499140782905677"><ele>99.25</ele><time>2026-04-30T17:44:51.001Z</time></trkpt><trkpt lat="43.397933467190114" lon="-3.650030665595085"><ele>99.0</ele><time>2026-04-30T17:44:52.001Z</time></trkpt><trkpt lat="43.3978445229688" lon="-3.6501389434251026"><ele>99.0</ele><time>2026-04-30T17:44:53.001Z</time></trkpt><trkpt lat="43.3977491928487" lon="-3.65023419457194"><ele>99.0</ele><time>2026-04-30T17:44:54.001Z</time></trkpt><trkpt lat="43.397653427531154" lon="-3.6503236137499333"><ele>99.0</ele><time>2026-04-30T17:44:55.001Z</time></trkpt><trkpt lat="43.397556774458465" lon="-3.6504143308534207"><ele>99.0</ele><time>2026-04-30T17:44:56.001Z</time></trkpt><trkpt lat="43.39746285180723" lon="-3.6505076878519236"><ele>99.0</ele><time>2026-04-30T17:44:57.001Z</time></trkpt><trkpt lat="43.39736776513665" lon="-3.6505968460487725"><ele>99.0</ele><time>2026-04-30T17:44:58.001Z</time></trkpt><trkpt lat="43.397271322647065" lon="-3.6506894121493434"><ele>99.0</ele><time>2026-04-30T17:44:59.001Z</time></trkpt><trkpt lat="43.39717383519808" lon="-3.650779058811112"><ele>99.0</ele><time>2026-04-30T17:45:00.001Z</time></trkpt><trkpt lat="43.397081538684205" lon="-3.650869962031864"><ele>99.0</ele><time>2026-04-30T17:45:01.001Z</time></trkpt><trkpt lat="43.39698530788035" lon="-3.6509607952949232"><ele>99.0</ele><time>2026-04-30T17:45:02.001Z</time></trkpt><trkpt lat="43.396897249016696" lon="-3.651057968763088"><ele>99.0</ele><time>2026-04-30T17:45:03.001Z</time></trkpt><trkpt lat="43.396814342546385" lon="-3.6511661125125525"><ele>99.0</ele><time>2026-04-30T17:45:04.001Z</time></trkpt><trkpt lat="43.39673551575689" lon="-3.6512837511791987"><ele>100.0</ele><time>2026-04-30T17:45:05.001Z</time></trkpt><trkpt lat="43.39666566740233" lon="-3.6514114041886363"><ele>101.0</ele><time>2026-04-30T17:45:06.001Z</time></trkpt><trkpt lat="43.396604769174296" lon="-3.651541919772811"><ele>102.0</ele><time>2026-04-30T17:45:07.001Z</time></trkpt><trkpt lat="43.39654480908446" lon="-3.6516760127879033"><ele>103.0</ele><time>2026-04-30T17:45:08.001Z</time></trkpt><trkpt lat="43.39648762841654" lon="-3.6518145154108184"><ele>103.0</ele><time>2026-04-30T17:45:09.001Z</time></trkpt><trkpt lat="43.39642806793327" lon="-3.6519536224114564"><ele>103.0</ele><time>2026-04-30T17:45:10.001Z</time></trkpt><trkpt lat="43.396369588783166" lon="-3.652091773324069"><ele>103.0</ele><time>2026-04-30T17:45:11Z</time></trkpt><trkpt lat="43.39630859156359" lon="-3.6522273416438704"><ele>103.0</ele><time>2026-04-30T17:45:12Z</time></trkpt><trkpt lat="43.396247355402714" lon="-3.652364758603804"><ele>102.25</ele><time>2026-04-30T17:45:13Z</time></trkpt><trkpt lat="43.39618860495707" lon="-3.6525001917542554"><ele>101.5</ele><time>2026-04-30T17:45:14Z</time></trkpt><trkpt lat="43.39613137643931" lon="-3.6526373676816584"><ele>100.75</ele><time>2026-04-30T17:45:15Z</time></trkpt><trkpt lat="43.39607218662584" lon="-3.652773899449137"><ele>100.0</ele><time>2026-04-30T17:45:16Z</time></trkpt><trkpt lat="43.39601221788197" lon="-3.6529143915169002"><ele>100.0</ele><time>2026-04-30T17:45:17Z</time></trkpt><trkpt lat="43.39595258456996" lon="-3.653052600149079"><ele>100.0</ele><time>2026-04-30T17:45:18Z</time></trkpt><trkpt lat="43.39589253773322" lon="-3.6531911191321265"><ele>100.0</ele><time>2026-04-30T17:45:19Z</time></trkpt><trkpt lat="43.39583083961943" lon="-3.653331662215586"><ele>100.0</ele><time>2026-04-30T17:45:20Z</time></trkpt><trkpt lat="43.39576994741581" lon="-3.653472166300461"><ele>100.0</ele><time>2026-04-30T17:45:21Z</time></trkpt><trkpt lat="43.395710693389695" lon="-3.6536163022960233"><ele>100.0</ele><time>2026-04-30T17:45:22Z</time></trkpt><trkpt lat="43.39564833819328" lon="-3.6537525568952884"><ele>100.0</ele><time>2026-04-30T17:45:23Z</time></trkpt><trkpt lat="43.39558464892748" lon="-3.65389261180155"><ele>100.0</ele><time>2026-04-30T17:45:24Z</time></trkpt><trkpt lat="43.39552272587134" lon="-3.6540341809683854"><ele>98.5</ele><time>2026-04-30T17:45:25Z</time></trkpt><trkpt lat="43.39546483110589" lon="-3.654178422699587"><ele>97.0</ele><time>2026-04-30T17:45:26Z</time></trkpt><trkpt lat="43.395405445182135" lon="-3.654313832336573"><ele>95.5</ele><time>2026-04-30T17:45:27Z</time></trkpt><trkpt lat="43.39534252287044" lon="-3.654452037876346"><ele>94.0</ele><time>2026-04-30T17:45:28Z</time></trkpt><trkpt lat="43.39527852396428" lon="-3.6545845852761922"><ele>94.0</ele><time>2026-04-30T17:45:29Z</time></trkpt><trkpt lat="43.39521148861495" lon="-3.6547214733356315"><ele>94.0</ele><time>2026-04-30T17:45:30Z</time></trkpt><trkpt lat="43.39513949978324" lon="-3.6548469303964026"><ele>94.0</ele><time>2026-04-30T17:45:31Z</time></trkpt><trkpt lat="43.39506360054344" lon="-3.6549708812979724"><ele>94.0</ele><time>2026-04-30T17:45:32Z</time></trkpt><trkpt lat="43.394988171533306" lon="-3.655094351108881"><ele>94.0</ele><time>2026-04-30T17:45:33Z</time></trkpt><trkpt lat="43.394909193975835" lon="-3.655214217783533"><ele>94.0</ele><time>2026-04-30T17:45:34Z</time></trkpt><trkpt lat="43.3948300676098" lon="-3.6553347146319566"><ele>94.0</ele><time>2026-04-30T17:45:35Z</time></trkpt><trkpt lat="43.39474804558446" lon="-3.6554543278331386"><ele>94.0</ele><time>2026-04-30T17:45:36Z</time></trkpt><trkpt lat="43.39466782561851" lon="-3.6555719236792266"><ele>94.25</ele><time>2026-04-30T17:45:37Z</time></trkpt><trkpt lat="43.39458442013319" lon="-3.655686768988939"><ele>94.5</ele><time>2026-04-30T17:45:38Z</time></trkpt><trkpt lat="43.39450340459413" lon="-3.6557996304503524"><ele>94.75</ele><time>2026-04-30T17:45:39Z</time></trkpt><trkpt lat="43.39442148522869" lon="-3.655913895927752"><ele>95.0</ele><time>2026-04-30T17:45:40Z</time></trkpt><trkpt lat="43.39434084091821" lon="-3.656030899835178"><ele>95.75</ele><time>2026-04-30T17:45:41Z</time></trkpt><trkpt lat="43.394261958006865" lon="-3.656150082510417"><ele>96.5</ele><time>2026-04-30T17:45:42Z</time></trkpt><trkpt lat="43.394182293206335" lon="-3.6562676080806877"><ele>97.25</ele><time>2026-04-30T17:45:43Z</time></trkpt><trkpt lat="43.39410066730045" lon="-3.656384014557424"><ele>98.0</ele><time>2026-04-30T17:45:44Z</time></trkpt><trkpt lat="43.394019169593825" lon="-3.6564995864718326"><ele>98.0</ele><time>2026-04-30T17:45:45Z</time></trkpt><trkpt lat="43.39394035863105" lon="-3.6566151079117213"><ele>98.0</ele><time>2026-04-30T17:45:46Z</time></trkpt><trkpt lat="43.3938608253932" lon="-3.6567332425583663"><ele>98.0</ele><time>2026-04-30T17:45:47Z</time></trkpt><trkpt lat="43.39378278878544" lon="-3.656846861349208"><ele>98.0</ele><time>2026-04-30T17:45:48Z</time></trkpt><trkpt lat="43.39370533272297" lon="-3.656963258738228"><ele>96.75</ele><time>2026-04-30T17:45:49Z</time></trkpt><trkpt lat="43.39363530513932" lon="-3.6570832588647613"><ele>95.5</ele><time>2026-04-30T17:45:50Z</time></trkpt><trkpt lat="43.39356454538204" lon="-3.6572095823674227"><ele>94.25</ele><time>2026-04-30T17:45:51Z</time></trkpt><trkpt lat="43.39349731562971" lon="-3.657339170357682"><ele>93.0</ele><time>2026-04-30T17:45:52Z</time></trkpt><trkpt lat="43.393430405496666" lon="-3.657470968948368"><ele>93.0</ele><time>2026-04-30T17:45:53Z</time></trkpt><trkpt lat="43.39336967488264" lon="-3.6576049426997264"><ele>93.0</ele><time>2026-04-30T17:45:54Z</time></trkpt><trkpt lat="43.393311466719844" lon="-3.657744018440049"><ele>93.0</ele><time>2026-04-30T17:45:55Z</time></trkpt><trkpt lat="43.393214189637234" lon="-3.658035156924396"><ele>92.5</ele><time>2026-04-30T17:45:57Z</time></trkpt><trkpt lat="43.39316952305284" lon="-3.658184461039726"><ele>92.0</ele><time>2026-04-30T17:45:58Z</time></trkpt><trkpt lat="43.39312334783656" lon="-3.658335979816336"><ele>91.5</ele><time>2026-04-30T17:45:59Z</time></trkpt><trkpt lat="43.393079918321426" lon="-3.6584844041374684"><ele>91.0</ele><time>2026-04-30T17:46:00Z</time></trkpt><trkpt lat="43.39303597517132" lon="-3.6586362402500567"><ele>89.75</ele><time>2026-04-30T17:46:01Z</time></trkpt><trkpt lat="43.3929917842176" lon="-3.6587892193933778"><ele>88.5</ele><time>2026-04-30T17:46:02Z</time></trkpt><trkpt lat="43.39294964345115" lon="-3.658940105332747"><ele>87.25</ele><time>2026-04-30T17:46:03Z</time></trkpt><trkpt lat="43.39290763571905" lon="-3.6590914749406624"><ele>86.0</ele><time>2026-04-30T17:46:04Z</time></trkpt><trkpt lat="43.39286775819156" lon="-3.659244584699396"><ele>86.0</ele><time>2026-04-30T17:46:05Z</time></trkpt><trkpt lat="43.392827709943326" lon="-3.6594022293065027"><ele>86.0</ele><time>2026-04-30T17:46:06Z</time></trkpt><trkpt lat="43.39279259311442" lon="-3.659557381576304"><ele>86.0</ele><time>2026-04-30T17:46:07.001Z</time></trkpt><trkpt lat="43.39276028696926" lon="-3.659707922666776"><ele>86.0</ele><time>2026-04-30T17:46:08.001Z</time></trkpt><trkpt lat="43.39272841760794" lon="-3.659856853678518"><ele>85.6</ele><time>2026-04-30T17:46:09.001Z</time></trkpt><trkpt lat="43.392694748471065" lon="-3.6600037475320697"><ele>85.19999999999999</ele><time>2026-04-30T17:46:10.001Z</time></trkpt><trkpt lat="43.392659771695655" lon="-3.660147322285511"><ele>84.80000000000001</ele><time>2026-04-30T17:46:11.001Z</time></trkpt><trkpt lat="43.39262856472208" lon="-3.6602868421416983"><ele>84.4</ele><time>2026-04-30T17:46:12.001Z</time></trkpt><trkpt lat="43.39260010298063" lon="-3.6604076829879935"><ele>84.0</ele><time>2026-04-30T17:46:13.001Z</time></trkpt><trkpt lat="43.392570441941785" lon="-3.6605707959081006"><ele>83.80000000000001</ele><time>2026-04-30T17:46:14.001Z</time></trkpt><trkpt lat="43.39254153373412" lon="-3.660701218946991"><ele>83.60000000000001</ele><time>2026-04-30T17:46:15.001Z</time></trkpt><trkpt lat="43.39251283719934" lon="-3.6608290643432175"><ele>83.4</ele><time>2026-04-30T17:46:16.001Z</time></trkpt><trkpt lat="43.392485666373645" lon="-3.660949384750648"><ele>83.2</ele><time>2026-04-30T17:46:17.001Z</time></trkpt><trkpt lat="43.39245973384586" lon="-3.6610674393481535"><ele>83.0</ele><time>2026-04-30T17:46:18.001Z</time></trkpt><trkpt lat="43.392439310992074" lon="-3.6611871379583065"><ele>82.2</ele><time>2026-04-30T17:46:19.001Z</time></trkpt><trkpt lat="43.392437263763476" lon="-3.6613186933315838"><ele>81.4</ele><time>2026-04-30T17:46:20.001Z</time></trkpt><trkpt lat="43.39245282800747" lon="-3.6614570525552055"><ele>80.60000000000001</ele><time>2026-04-30T17:46:21.001Z</time></trkpt><trkpt lat="43.39247829263741" lon="-3.6615832653286935"><ele>79.80000000000001</ele><time>2026-04-30T17:46:22.001Z</time></trkpt><trkpt lat="43.39249911121935" lon="-3.661706776736363"><ele>79.0</ele><time>2026-04-30T17:46:23.001Z</time></trkpt><trkpt lat="43.392496785629994" lon="-3.6618311601489997"><ele>78.8</ele><time>2026-04-30T17:46:24.001Z</time></trkpt><trkpt lat="43.39246596252529" lon="-3.661959134284921"><ele>78.60000000000001</ele><time>2026-04-30T17:46:25.001Z</time></trkpt><trkpt lat="43.392397439196124" lon="-3.6620728131950986"><ele>78.4</ele><time>2026-04-30T17:46:26.001Z</time></trkpt><trkpt lat="43.392291825982106" lon="-3.6621451877379445"><ele>78.2</ele><time>2026-04-30T17:46:27.001Z</time></trkpt><trkpt lat="43.39221803495987" lon="-3.6622513612387744"><ele>78.0</ele><time>2026-04-30T17:46:28.001Z</time></trkpt><trkpt lat="43.392150356435494" lon="-3.6623669420329175"><ele>77.5</ele><time>2026-04-30T17:46:29.001Z</time></trkpt><trkpt lat="43.39209427506572" lon="-3.6624988105234877"><ele>77.0</ele><time>2026-04-30T17:46:30.001Z</time></trkpt><trkpt lat="43.392037889976606" lon="-3.6626341927134187"><ele>76.5</ele><time>2026-04-30T17:46:31.001Z</time></trkpt><trkpt lat="43.39197705537852" lon="-3.662768291346498"><ele>76.0</ele><time>2026-04-30T17:46:32.001Z</time></trkpt><trkpt lat="43.391911137021566" lon="-3.66289718472798"><ele>75.25</ele><time>2026-04-30T17:46:33.001Z</time></trkpt><trkpt lat="43.39184120000537" lon="-3.6630264598601037"><ele>74.5</ele><time>2026-04-30T17:46:34.001Z</time></trkpt><trkpt lat="43.391764107228276" lon="-3.6631532409129406"><ele>73.75</ele><time>2026-04-30T17:46:35.001Z</time></trkpt><trkpt lat="43.391686869554924" lon="-3.663278191512953"><ele>73.0</ele><time>2026-04-30T17:46:36.001Z</time></trkpt><trkpt lat="43.39160820801036" lon="-3.6634039366772213"><ele>73.0</ele><time>2026-04-30T17:46:37.001Z</time></trkpt><trkpt lat="43.39153381717972" lon="-3.6635300493396725"><ele>73.0</ele><time>2026-04-30T17:46:38.001Z</time></trkpt><trkpt lat="43.391459337892094" lon="-3.6636567792010237"><ele>73.0</ele><time>2026-04-30T17:46:39.001Z</time></trkpt><trkpt lat="43.39137907209383" lon="-3.663785039648143"><ele>73.0</ele><time>2026-04-30T17:46:40.001Z</time></trkpt><trkpt lat="43.39130223109874" lon="-3.6639130014577437"><ele>72.25</ele><time>2026-04-30T17:46:41.001Z</time></trkpt><trkpt lat="43.39122618054237" lon="-3.6640408726735356"><ele>71.5</ele><time>2026-04-30T17:46:42.001Z</time></trkpt><trkpt lat="43.39114909847653" lon="-3.6641743355592498"><ele>70.75</ele><time>2026-04-30T17:46:43.001Z</time></trkpt><trkpt lat="43.391072502053426" lon="-3.6642990476622423"><ele>70.0</ele><time>2026-04-30T17:46:44.001Z</time></trkpt><trkpt lat="43.39099582076472" lon="-3.6644281015851323"><ele>69.25</ele><time>2026-04-30T17:46:45.001Z</time></trkpt><trkpt lat="43.390921225168356" lon="-3.6645575163553383"><ele>68.5</ele><time>2026-04-30T17:46:46.001Z</time></trkpt><trkpt lat="43.39084278997545" lon="-3.6646884267526345"><ele>67.75</ele><time>2026-04-30T17:46:47.001Z</time></trkpt><trkpt lat="43.39076509881227" lon="-3.664817660759725"><ele>67.0</ele><time>2026-04-30T17:46:48.001Z</time></trkpt><trkpt lat="43.390689831142566" lon="-3.6649437219810235"><ele>67.0</ele><time>2026-04-30T17:46:49.001Z</time></trkpt><trkpt lat="43.39061608894337" lon="-3.665062376086699"><ele>67.0</ele><time>2026-04-30T17:46:50.001Z</time></trkpt><trkpt lat="43.3905398410933" lon="-3.665183024968396"><ele>67.0</ele><time>2026-04-30T17:46:51.001Z</time></trkpt><trkpt lat="43.390463898509964" lon="-3.665297470909127"><ele>67.0</ele><time>2026-04-30T17:46:52.001Z</time></trkpt><trkpt lat="43.390385110115375" lon="-3.665413053291325"><ele>66.8</ele><time>2026-04-30T17:46:53.001Z</time></trkpt><trkpt lat="43.390304977266936" lon="-3.665527476304885"><ele>66.6</ele><time>2026-04-30T17:46:54.001Z</time></trkpt><trkpt lat="43.39022757358732" lon="-3.6656317451630502"><ele>66.39999999999999</ele><time>2026-04-30T17:46:55.001Z</time></trkpt><trkpt lat="43.39015157321655" lon="-3.665736748237984"><ele>66.2</ele><time>2026-04-30T17:46:56.001Z</time></trkpt><trkpt lat="43.39007896857903" lon="-3.665858689127431"><ele>66.0</ele><time>2026-04-30T17:46:57.001Z</time></trkpt><trkpt lat="43.390016993646036" lon="-3.6659914323191765"><ele>66.25</ele><time>2026-04-30T17:46:58.001Z</time></trkpt><trkpt lat="43.38994759228944" lon="-3.666115476013056"><ele>66.5</ele><time>2026-04-30T17:46:59.001Z</time></trkpt><trkpt lat="43.38985414679622" lon="-3.6662106580020803"><ele>66.75</ele><time>2026-04-30T17:47:00.001Z</time></trkpt><trkpt lat="43.389744396440655" lon="-3.6662652597532435"><ele>67.0</ele><time>2026-04-30T17:47:01.001Z</time></trkpt><trkpt lat="43.38963479355611" lon="-3.666318260210832"><ele>67.0</ele><time>2026-04-30T17:47:02.001Z</time></trkpt><trkpt lat="43.38953320158924" lon="-3.666390208994354"><ele>67.0</ele><time>2026-04-30T17:47:03.001Z</time></trkpt><trkpt lat="43.38943964428751" lon="-3.666477767313764"><ele>67.0</ele><time>2026-04-30T17:47:04.001Z</time></trkpt><trkpt lat="43.38934942673925" lon="-3.6665727369629413"><ele>67.0</ele><time>2026-04-30T17:47:05.001Z</time></trkpt><trkpt lat="43.389261165115194" lon="-3.6666661530459415"><ele>67.0</ele><time>2026-04-30T17:47:06.001Z</time></trkpt><trkpt lat="43.38917002686603" lon="-3.666762742208036"><ele>67.0</ele><time>2026-04-30T17:47:07.001Z</time></trkpt><trkpt lat="43.38908168229307" lon="-3.666859077945399"><ele>67.0</ele><time>2026-04-30T17:47:08.001Z</time></trkpt><trkpt lat="43.38899386993624" lon="-3.666955472735408"><ele>67.0</ele><time>2026-04-30T17:47:09.001Z</time></trkpt><trkpt lat="43.38890569772713" lon="-3.6670550386484915"><ele>67.25</ele><time>2026-04-30T17:47:10.001Z</time></trkpt><trkpt lat="43.388823258876684" lon="-3.6671587955689"><ele>67.5</ele><time>2026-04-30T17:47:11.001Z</time></trkpt><trkpt lat="43.38874204414988" lon="-3.667264776048638"><ele>67.75</ele><time>2026-04-30T17:47:12.001Z</time></trkpt><trkpt lat="43.388663516447195" lon="-3.667378035567028"><ele>68.0</ele><time>2026-04-30T17:47:13.001Z</time></trkpt><trkpt lat="43.388588354520515" lon="-3.6674936899140036"><ele>68.0</ele><time>2026-04-30T17:47:14.001Z</time></trkpt><trkpt lat="43.38851722068494" lon="-3.667616517457544"><ele>68.0</ele><time>2026-04-30T17:47:15.002Z</time></trkpt><trkpt lat="43.388452732160296" lon="-3.667742437243925"><ele>68.0</ele><time>2026-04-30T17:47:16.002Z</time></trkpt><trkpt lat="43.388389019440325" lon="-3.6678753816850103"><ele>68.0</ele><time>2026-04-30T17:47:17Z</time></trkpt><trkpt lat="43.388331206752284" lon="-3.6680030470691745"><ele>69.2</ele><time>2026-04-30T17:47:18Z</time></trkpt><trkpt lat="43.38827678707333" lon="-3.6681381448101797"><ele>70.4</ele><time>2026-04-30T17:47:19Z</time></trkpt><trkpt lat="43.388230843713686" lon="-3.6682779908039236"><ele>71.60000000000001</ele><time>2026-04-30T17:47:20Z</time></trkpt><trkpt lat="43.38818706492057" lon="-3.6684153834085724"><ele>72.8</ele><time>2026-04-30T17:47:21Z</time></trkpt><trkpt lat="43.3881484066903" lon="-3.6685555027679793"><ele>74.0</ele><time>2026-04-30T17:47:22Z</time></trkpt><trkpt lat="43.38811376385401" lon="-3.6686975516815328"><ele>74.0</ele><time>2026-04-30T17:47:23Z</time></trkpt><trkpt lat="43.3880830522935" lon="-3.668838738473807"><ele>74.0</ele><time>2026-04-30T17:47:24Z</time></trkpt><trkpt lat="43.38805793049381" lon="-3.6689849629659843"><ele>74.0</ele><time>2026-04-30T17:47:25Z</time></trkpt><trkpt lat="43.38803910183718" lon="-3.6691335835026857"><ele>74.0</ele><time>2026-04-30T17:47:26Z</time></trkpt><trkpt lat="43.38802775307051" lon="-3.669278243826508"><ele>74.0</ele><time>2026-04-30T17:47:27Z</time></trkpt><trkpt lat="43.38801565308949" lon="-3.669416851859531"><ele>73.4</ele><time>2026-04-30T17:47:28Z</time></trkpt><trkpt lat="43.38800698537958" lon="-3.6695674964284732"><ele>72.80000000000001</ele><time>2026-04-30T17:47:29Z</time></trkpt><trkpt lat="43.38800399824088" lon="-3.6697127618683183"><ele>72.19999999999999</ele><time>2026-04-30T17:47:30Z</time></trkpt><trkpt lat="43.38800001058747" lon="-3.6698515252266963"><ele>71.6</ele><time>2026-04-30T17:47:31Z</time></trkpt><trkpt lat="43.38800189815276" lon="-3.670002102800203"><ele>71.0</ele><time>2026-04-30T17:47:32Z</time></trkpt><trkpt lat="43.387997302879334" lon="-3.6701357630348617"><ele>71.39999999999999</ele><time>2026-04-30T17:47:33Z</time></trkpt><trkpt lat="43.38800222751683" lon="-3.6702817207698133"><ele>71.8</ele><time>2026-04-30T17:47:34Z</time></trkpt><trkpt lat="43.388010294603475" lon="-3.670425193697346"><ele>72.19999999999999</ele><time>2026-04-30T17:47:35Z</time></trkpt><trkpt lat="43.38801885225336" lon="-3.6705637657341486"><ele>72.6</ele><time>2026-04-30T17:47:36Z</time></trkpt><trkpt lat="43.38801378942615" lon="-3.6707258180434184"><ele>73.0</ele><time>2026-04-30T17:47:37Z</time></trkpt><trkpt lat="43.38802382755328" lon="-3.670867813574479"><ele>73.0</ele><time>2026-04-30T17:47:38Z</time></trkpt><trkpt lat="43.388021469397735" lon="-3.6710013825490906"><ele>73.0</ele><time>2026-04-30T17:47:39Z</time></trkpt><trkpt lat="43.38801786990225" lon="-3.6711428725208015"><ele>73.0</ele><time>2026-04-30T17:47:40Z</time></trkpt><trkpt lat="43.38800746118222" lon="-3.671286556652076"><ele>73.0</ele><time>2026-04-30T17:47:41Z</time></trkpt><trkpt lat="43.388002503717544" lon="-3.671422429059807"><ele>73.0</ele><time>2026-04-30T17:47:42Z</time></trkpt><trkpt lat="43.38797565010452" lon="-3.6715730719704216"><ele>74.25</ele><time>2026-04-30T17:47:43Z</time></trkpt><trkpt lat="43.38796507766735" lon="-3.671716747153592"><ele>75.5</ele><time>2026-04-30T17:47:44Z</time></trkpt><trkpt lat="43.3879458138906" lon="-3.6718624152106507"><ele>76.75</ele><time>2026-04-30T17:47:45Z</time></trkpt><trkpt lat="43.387917275391565" lon="-3.6720645759364747"><ele>78.0</ele><time>2026-04-30T17:47:46Z</time></trkpt><trkpt lat="43.38783976998043" lon="-3.672255291493218"><ele>78.6</ele><time>2026-04-30T17:47:48Z</time></trkpt><trkpt lat="43.38779718637542" lon="-3.6723820199596613"><ele>79.19999999999999</ele><time>2026-04-30T17:47:49Z</time></trkpt><trkpt lat="43.387745607670645" lon="-3.6725102409886516"><ele>79.8</ele><time>2026-04-30T17:47:50Z</time></trkpt><trkpt lat="43.38769410078566" lon="-3.67263336133055"><ele>80.39999999999999</ele><time>2026-04-30T17:47:51Z</time></trkpt><trkpt lat="43.3876349759899" lon="-3.6727574322892416"><ele>81.0</ele><time>2026-04-30T17:47:52Z</time></trkpt><trkpt lat="43.387567039988944" lon="-3.672870871533765"><ele>81.4</ele><time>2026-04-30T17:47:53Z</time></trkpt><trkpt lat="43.38750118469709" lon="-3.6729883278587536"><ele>81.8</ele><time>2026-04-30T17:47:54Z</time></trkpt><trkpt lat="43.38743606564146" lon="-3.6731063424267716"><ele>82.2</ele><time>2026-04-30T17:47:55Z</time></trkpt><trkpt lat="43.38737081513857" lon="-3.6732260850772263"><ele>82.60000000000001</ele><time>2026-04-30T17:47:56Z</time></trkpt><trkpt lat="43.387305071860204" lon="-3.6733447703444773"><ele>83.0</ele><time>2026-04-30T17:47:57Z</time></trkpt><trkpt lat="43.387240033104824" lon="-3.673464053565047"><ele>83.0</ele><time>2026-04-30T17:47:58Z</time></trkpt><trkpt lat="43.38717585605379" lon="-3.6735832971943685"><ele>83.0</ele><time>2026-04-30T17:47:59Z</time></trkpt><trkpt lat="43.387108985428796" lon="-3.6737057756624516"><ele>83.0</ele><time>2026-04-30T17:48:00Z</time></trkpt><trkpt lat="43.387042540484664" lon="-3.6738335916292852"><ele>83.0</ele><time>2026-04-30T17:48:01Z</time></trkpt><trkpt lat="43.38697683766073" lon="-3.673963673359304"><ele>83.0</ele><time>2026-04-30T17:48:02Z</time></trkpt><trkpt lat="43.38691073943522" lon="-3.674093562309495"><ele>82.75</ele><time>2026-04-30T17:48:03Z</time></trkpt><trkpt lat="43.38684470350398" lon="-3.6742305373517303"><ele>82.5</ele><time>2026-04-30T17:48:04Z</time></trkpt><trkpt lat="43.38679157301761" lon="-3.674368408630558"><ele>82.25</ele><time>2026-04-30T17:48:05Z</time></trkpt><trkpt lat="43.38674797131522" lon="-3.6745166882608244"><ele>82.0</ele><time>2026-04-30T17:48:06Z</time></trkpt><trkpt lat="43.38671320720985" lon="-3.674669576019702"><ele>81.75</ele><time>2026-04-30T17:48:07Z</time></trkpt><trkpt lat="43.38668165478242" lon="-3.674829192252193"><ele>81.5</ele><time>2026-04-30T17:48:08Z</time></trkpt><trkpt lat="43.3866583970244" lon="-3.6749871529473603"><ele>81.25</ele><time>2026-04-30T17:48:09Z</time></trkpt><trkpt lat="43.38663936017252" lon="-3.6751502381306222"><ele>81.0</ele><time>2026-04-30T17:48:10Z</time></trkpt><trkpt lat="43.386631840659774" lon="-3.6753170539280355"><ele>80.25</ele><time>2026-04-30T17:48:11Z</time></trkpt><trkpt lat="43.38663182777252" lon="-3.675483560881651"><ele>79.5</ele><time>2026-04-30T17:48:12.001Z</time></trkpt><trkpt lat="43.38664410437975" lon="-3.675650451525579"><ele>78.75</ele><time>2026-04-30T17:48:13.001Z</time></trkpt><trkpt lat="43.38666454208341" lon="-3.6758186317285424"><ele>78.0</ele><time>2026-04-30T17:48:14.001Z</time></trkpt><trkpt lat="43.386690163878306" lon="-3.675981770015983"><ele>76.75</ele><time>2026-04-30T17:48:15.001Z</time></trkpt><trkpt lat="43.386735014616434" lon="-3.6761404045534025"><ele>75.5</ele><time>2026-04-30T17:48:16.001Z</time></trkpt><trkpt lat="43.38676696641073" lon="-3.676296623359878"><ele>74.25</ele><time>2026-04-30T17:48:17.001Z</time></trkpt><trkpt lat="43.38679950728575" lon="-3.6764546618223646"><ele>73.0</ele><time>2026-04-30T17:48:18.001Z</time></trkpt><trkpt lat="43.38683362139109" lon="-3.6766129052767242"><ele>73.0</ele><time>2026-04-30T17:48:19.001Z</time></trkpt><trkpt lat="43.38686945835259" lon="-3.6767685751647843"><ele>73.0</ele><time>2026-04-30T17:48:20.001Z</time></trkpt><trkpt lat="43.386902840235244" lon="-3.6769251517554316"><ele>73.0</ele><time>2026-04-30T17:48:21.001Z</time></trkpt><trkpt lat="43.38693625473717" lon="-3.677085155684035"><ele>73.0</ele><time>2026-04-30T17:48:22.001Z</time></trkpt><trkpt lat="43.38697118045217" lon="-3.677241179786783"><ele>72.0</ele><time>2026-04-30T17:48:23.001Z</time></trkpt><trkpt lat="43.38700640726616" lon="-3.6773978009209585"><ele>71.0</ele><time>2026-04-30T17:48:24.001Z</time></trkpt><trkpt lat="43.38704351665747" lon="-3.677556360445671"><ele>70.0</ele><time>2026-04-30T17:48:25.001Z</time></trkpt><trkpt lat="43.38708113418648" lon="-3.677707209529775"><ele>69.0</ele><time>2026-04-30T17:48:26.001Z</time></trkpt><trkpt lat="43.38711817331931" lon="-3.677857614684867"><ele>69.25</ele><time>2026-04-30T17:48:27.001Z</time></trkpt><trkpt lat="43.387154037703525" lon="-3.67801077907679"><ele>69.5</ele><time>2026-04-30T17:48:28.001Z</time></trkpt><trkpt lat="43.3871867824923" lon="-3.6781648628370323"><ele>69.75</ele><time>2026-04-30T17:48:29.001Z</time></trkpt><trkpt lat="43.38722144341724" lon="-3.678318462095747"><ele>70.0</ele><time>2026-04-30T17:48:30.001Z</time></trkpt><trkpt lat="43.38725750090614" lon="-3.6784751517232426"><ele>68.75</ele><time>2026-04-30T17:48:31.001Z</time></trkpt><trkpt lat="43.38729295905064" lon="-3.6786249601845498"><ele>67.5</ele><time>2026-04-30T17:48:32.001Z</time></trkpt><trkpt lat="43.38733061373855" lon="-3.6787798968310645"><ele>66.25</ele><time>2026-04-30T17:48:33.001Z</time></trkpt><trkpt lat="43.38736601245752" lon="-3.6789349627897234"><ele>65.0</ele><time>2026-04-30T17:48:34.001Z</time></trkpt><trkpt lat="43.38740123805264" lon="-3.679090141849525"><ele>65.0</ele><time>2026-04-30T17:48:35.001Z</time></trkpt><trkpt lat="43.38743715952079" lon="-3.67924449136417"><ele>65.0</ele><time>2026-04-30T17:48:36.001Z</time></trkpt><trkpt lat="43.38747238508456" lon="-3.6794007020863777"><ele>65.0</ele><time>2026-04-30T17:48:37.001Z</time></trkpt><trkpt lat="43.3875084600436" lon="-3.679556829288866"><ele>65.0</ele><time>2026-04-30T17:48:38.001Z</time></trkpt><trkpt lat="43.38754183615199" lon="-3.6797119475466946"><ele>64.75</ele><time>2026-04-30T17:48:39.001Z</time></trkpt><trkpt lat="43.387577150883054" lon="-3.679867075712964"><ele>64.5</ele><time>2026-04-30T17:48:40.001Z</time></trkpt><trkpt lat="43.3876152164815" lon="-3.6800235066369096"><ele>64.25</ele><time>2026-04-30T17:48:41.001Z</time></trkpt><trkpt lat="43.38764961941456" lon="-3.680182229841143"><ele>64.0</ele><time>2026-04-30T17:48:42.001Z</time></trkpt><trkpt lat="43.387685000985684" lon="-3.6803385676071905"><ele>63.25</ele><time>2026-04-30T17:48:43.001Z</time></trkpt><trkpt lat="43.38771977334212" lon="-3.680496579372009"><ele>62.5</ele><time>2026-04-30T17:48:44.001Z</time></trkpt><trkpt lat="43.38775829475566" lon="-3.6806574990971015"><ele>61.75</ele><time>2026-04-30T17:48:45.001Z</time></trkpt><trkpt lat="43.387794446439294" lon="-3.680813008678699"><ele>61.0</ele><time>2026-04-30T17:48:46.001Z</time></trkpt><trkpt lat="43.38783337603411" lon="-3.68097186931268"><ele>60.25</ele><time>2026-04-30T17:48:47.001Z</time></trkpt><trkpt lat="43.387873301088185" lon="-3.6811252681266144"><ele>59.5</ele><time>2026-04-30T17:48:48.001Z</time></trkpt><trkpt lat="43.387915104048716" lon="-3.681281981843433"><ele>58.75</ele><time>2026-04-30T17:48:49.001Z</time></trkpt><trkpt lat="43.38795556232258" lon="-3.6814325352647734"><ele>58.0</ele><time>2026-04-30T17:48:50.001Z</time></trkpt><trkpt lat="43.38799485146051" lon="-3.681591906239934"><ele>58.0</ele><time>2026-04-30T17:48:51.001Z</time></trkpt><trkpt lat="43.38803302016258" lon="-3.68174275494015"><ele>58.0</ele><time>2026-04-30T17:48:52.001Z</time></trkpt><trkpt lat="43.388071221353925" lon="-3.681898979356987"><ele>58.0</ele><time>2026-04-30T17:48:53.001Z</time></trkpt><trkpt lat="43.38810705370199" lon="-3.682051402780279"><ele>58.0</ele><time>2026-04-30T17:48:54.001Z</time></trkpt><trkpt lat="43.3881367346193" lon="-3.682208538839937"><ele>57.25</ele><time>2026-04-30T17:48:55.001Z</time></trkpt><trkpt lat="43.38816388366375" lon="-3.6823681646675293"><ele>56.5</ele><time>2026-04-30T17:48:56.001Z</time></trkpt><trkpt lat="43.388188950424926" lon="-3.6825284697001774"><ele>55.75</ele><time>2026-04-30T17:48:57.001Z</time></trkpt><trkpt lat="43.38821382801182" lon="-3.6826866392960933"><ele>55.0</ele><time>2026-04-30T17:48:58.001Z</time></trkpt><trkpt lat="43.388235775465176" lon="-3.682847166898495"><ele>54.5</ele><time>2026-04-30T17:48:59.001Z</time></trkpt><trkpt lat="43.388254109985596" lon="-3.683006001878361"><ele>54.0</ele><time>2026-04-30T17:49:00.001Z</time></trkpt><trkpt lat="43.388271983915146" lon="-3.6831658200823023"><ele>53.5</ele><time>2026-04-30T17:49:01.001Z</time></trkpt><trkpt lat="43.3882856887924" lon="-3.6833274257897055"><ele>53.0</ele><time>2026-04-30T17:49:02.001Z</time></trkpt><trkpt lat="43.388302958602715" lon="-3.6834824726368702"><ele>53.0</ele><time>2026-04-30T17:49:03.001Z</time></trkpt><trkpt lat="43.388321006947365" lon="-3.683643459773902"><ele>53.0</ele><time>2026-04-30T17:49:04.001Z</time></trkpt><trkpt lat="43.388336674341616" lon="-3.683802668725841"><ele>53.0</ele><time>2026-04-30T17:49:05.001Z</time></trkpt><trkpt lat="43.38835209090405" lon="-3.6839663687734787"><ele>53.0</ele><time>2026-04-30T17:49:06.001Z</time></trkpt><trkpt lat="43.388365409298586" lon="-3.684121023403723"><ele>53.0</ele><time>2026-04-30T17:49:07.001Z</time></trkpt><trkpt lat="43.388381906203485" lon="-3.6842839956011844"><ele>53.0</ele><time>2026-04-30T17:49:08.001Z</time></trkpt><trkpt lat="43.388397635829335" lon="-3.68443997965121"><ele>53.0</ele><time>2026-04-30T17:49:09.001Z</time></trkpt><trkpt lat="43.38841155883319" lon="-3.6846018208945903"><ele>53.0</ele><time>2026-04-30T17:49:10.001Z</time></trkpt><trkpt lat="43.38842906801813" lon="-3.684762460971686"><ele>53.0</ele><time>2026-04-30T17:49:11.001Z</time></trkpt><trkpt lat="43.38844465079488" lon="-3.6849202297132266"><ele>53.0</ele><time>2026-04-30T17:49:12.001Z</time></trkpt><trkpt lat="43.38846042913936" lon="-3.685077166559394"><ele>53.0</ele><time>2026-04-30T17:49:13.001Z</time></trkpt><trkpt lat="43.38847606811951" lon="-3.6852381272466275"><ele>53.0</ele><time>2026-04-30T17:49:14.001Z</time></trkpt><trkpt lat="43.3884919884561" lon="-3.6853988714792365"><ele>53.0</ele><time>2026-04-30T17:49:15.001Z</time></trkpt><trkpt lat="43.38850464467806" lon="-3.685557937993953"><ele>53.0</ele><time>2026-04-30T17:49:16.002Z</time></trkpt><trkpt lat="43.38851622489052" lon="-3.685715906570987"><ele>53.0</ele><time>2026-04-30T17:49:17.002Z</time></trkpt><trkpt lat="43.38852871683435" lon="-3.6858749882300152"><ele>53.0</ele><time>2026-04-30T17:49:18.002Z</time></trkpt><trkpt lat="43.38854003617376" lon="-3.686034370882171"><ele>53.0</ele><time>2026-04-30T17:49:19.002Z</time></trkpt><trkpt lat="43.388546560245985" lon="-3.686190331967142"><ele>53.0</ele><time>2026-04-30T17:49:20.002Z</time></trkpt><trkpt lat="43.388555035613685" lon="-3.6863457895707747"><ele>53.0</ele><time>2026-04-30T17:49:21.002Z</time></trkpt><trkpt lat="43.38856759516934" lon="-3.6865030934345615"><ele>53.0</ele><time>2026-04-30T17:49:22.002Z</time></trkpt><trkpt lat="43.38857510652903" lon="-3.686658238135336"><ele>53.0</ele><time>2026-04-30T17:49:22.999Z</time></trkpt><trkpt lat="43.388586602958966" lon="-3.686808400815891"><ele>53.0</ele><time>2026-04-30T17:49:23.999Z</time></trkpt><trkpt lat="43.388598262210486" lon="-3.6869651153818617"><ele>53.0</ele><time>2026-04-30T17:49:24.999Z</time></trkpt><trkpt lat="43.38860962453411" lon="-3.6871185867686007"><ele>53.0</ele><time>2026-04-30T17:49:25.999Z</time></trkpt><trkpt lat="43.38861792482804" lon="-3.687273849154598"><ele>53.0</ele><time>2026-04-30T17:49:26.999Z</time></trkpt><trkpt lat="43.38862905100894" lon="-3.6874334375388327"><ele>52.599999999999994</ele><time>2026-04-30T17:49:27.999Z</time></trkpt><trkpt lat="43.38863886161354" lon="-3.687583744923875"><ele>52.199999999999996</ele><time>2026-04-30T17:49:28.999Z</time></trkpt><trkpt lat="43.38864522085819" lon="-3.6877397038087874"><ele>51.8</ele><time>2026-04-30T17:49:29.999Z</time></trkpt><trkpt lat="43.388656932228805" lon="-3.687887751437236"><ele>51.4</ele><time>2026-04-30T17:49:30.999Z</time></trkpt><trkpt lat="43.388670415183206" lon="-3.688045601910904"><ele>51.0</ele><time>2026-04-30T17:49:31.999Z</time></trkpt><trkpt lat="43.388685715641195" lon="-3.6882007227445723"><ele>50.599999999999994</ele><time>2026-04-30T17:49:32.999Z</time></trkpt><trkpt lat="43.38870052517343" lon="-3.68835358990522"><ele>50.2</ele><time>2026-04-30T17:49:33.999Z</time></trkpt><trkpt lat="43.38871078912736" lon="-3.6885084236363417"><ele>49.8</ele><time>2026-04-30T17:49:34.999Z</time></trkpt><trkpt lat="43.38872113015762" lon="-3.6886573937988336"><ele>49.400000000000006</ele><time>2026-04-30T17:49:35.999Z</time></trkpt><trkpt lat="43.38872794977709" lon="-3.6887938177920496"><ele>49.0</ele><time>2026-04-30T17:49:36.999Z</time></trkpt><trkpt lat="43.388736848889074" lon="-3.6889586761607567"><ele>48.75</ele><time>2026-04-30T17:49:37.999Z</time></trkpt><trkpt lat="43.38874917733898" lon="-3.689113682935578"><ele>48.5</ele><time>2026-04-30T17:49:38.999Z</time></trkpt><trkpt lat="43.388760095440894" lon="-3.6892682465525177"><ele>48.25</ele><time>2026-04-30T17:49:39.999Z</time></trkpt><trkpt lat="43.38877369644802" lon="-3.689425818476394"><ele>48.0</ele><time>2026-04-30T17:49:41Z</time></trkpt><trkpt lat="43.388783397466604" lon="-3.6895816094100833"><ele>47.5</ele><time>2026-04-30T17:49:42Z</time></trkpt><trkpt lat="43.388793486250236" lon="-3.6897386117380924"><ele>47.0</ele><time>2026-04-30T17:49:43Z</time></trkpt><trkpt lat="43.38880251276209" lon="-3.689892378556552"><ele>46.5</ele><time>2026-04-30T17:49:44Z</time></trkpt><trkpt lat="43.38881276516123" lon="-3.6900495814155625"><ele>46.0</ele><time>2026-04-30T17:49:45Z</time></trkpt><trkpt lat="43.38882643286501" lon="-3.6902061247797224"><ele>45.5</ele><time>2026-04-30T17:49:46Z</time></trkpt><trkpt lat="43.38883922958179" lon="-3.690361959297682"><ele>45.0</ele><time>2026-04-30T17:49:47Z</time></trkpt><trkpt lat="43.38885159100251" lon="-3.6905131109875335"><ele>44.5</ele><time>2026-04-30T17:49:48Z</time></trkpt><trkpt lat="43.38886362258278" lon="-3.690667105565828"><ele>44.0</ele><time>2026-04-30T17:49:49Z</time></trkpt><trkpt lat="43.38887720295491" lon="-3.690825523827543"><ele>44.0</ele><time>2026-04-30T17:49:50Z</time></trkpt><trkpt lat="43.38888790143356" lon="-3.6909775415837225"><ele>44.0</ele><time>2026-04-30T17:49:51Z</time></trkpt><trkpt lat="43.388899043511245" lon="-3.6911342747013522"><ele>44.0</ele><time>2026-04-30T17:49:52Z</time></trkpt><trkpt lat="43.388908183270296" lon="-3.69128918261326"><ele>44.0</ele><time>2026-04-30T17:49:53Z</time></trkpt><trkpt lat="43.38892222124276" lon="-3.6914413591996795"><ele>44.2</ele><time>2026-04-30T17:49:54Z</time></trkpt><trkpt lat="43.38893216264776" lon="-3.6915928655068617"><ele>44.400000000000006</ele><time>2026-04-30T17:49:55Z</time></trkpt><trkpt lat="43.38894026794747" lon="-3.691744835552792"><ele>44.6</ele><time>2026-04-30T17:49:56Z</time></trkpt><trkpt lat="43.38895311330909" lon="-3.691897279630758"><ele>44.8</ele><time>2026-04-30T17:49:57Z</time></trkpt><trkpt lat="43.38896436982469" lon="-3.6920467772532914"><ele>45.0</ele><time>2026-04-30T17:49:58Z</time></trkpt><trkpt lat="43.38897704879706" lon="-3.6921928142872242"><ele>44.8</ele><time>2026-04-30T17:49:59Z</time></trkpt><trkpt lat="43.38898619165436" lon="-3.6923430051345925"><ele>44.6</ele><time>2026-04-30T17:50:00Z</time></trkpt><trkpt lat="43.38899394217438" lon="-3.692493535905886"><ele>44.400000000000006</ele><time>2026-04-30T17:50:01Z</time></trkpt><trkpt lat="43.389004362829034" lon="-3.6926403168627133"><ele>44.2</ele><time>2026-04-30T17:50:02Z</time></trkpt><trkpt lat="43.3890179225408" lon="-3.692790630769431"><ele>44.0</ele><time>2026-04-30T17:50:03Z</time></trkpt><trkpt lat="43.389026624723584" lon="-3.6929406639170947"><ele>44.0</ele><time>2026-04-30T17:50:04Z</time></trkpt><trkpt lat="43.38903762779401" lon="-3.6930895629007274"><ele>44.0</ele><time>2026-04-30T17:50:05Z</time></trkpt><trkpt lat="43.38904581467348" lon="-3.693238468627977"><ele>44.0</ele><time>2026-04-30T17:50:06Z</time></trkpt><trkpt lat="43.389055302234596" lon="-3.6933893656832217"><ele>44.0</ele><time>2026-04-30T17:50:07Z</time></trkpt><trkpt lat="43.389066736499615" lon="-3.6935398725649833"><ele>44.0</ele><time>2026-04-30T17:50:08Z</time></trkpt><trkpt lat="43.389075922216136" lon="-3.693691553490764"><ele>43.25</ele><time>2026-04-30T17:50:09Z</time></trkpt><trkpt lat="43.38908554471561" lon="-3.693848962730941"><ele>42.5</ele><time>2026-04-30T17:50:10Z</time></trkpt><trkpt lat="43.3890973183973" lon="-3.694001210773807"><ele>41.75</ele><time>2026-04-30T17:50:11Z</time></trkpt><trkpt lat="43.389107376755724" lon="-3.6941551312980785"><ele>41.0</ele><time>2026-04-30T17:50:12Z</time></trkpt><trkpt lat="43.38911938695173" lon="-3.6943125022152516"><ele>41.0</ele><time>2026-04-30T17:50:13Z</time></trkpt><trkpt lat="43.38913269426816" lon="-3.694463268766371"><ele>41.0</ele><time>2026-04-30T17:50:14Z</time></trkpt><trkpt lat="43.3891491986461" lon="-3.69462547911222"><ele>41.0</ele><time>2026-04-30T17:50:15Z</time></trkpt><trkpt lat="43.389167392442" lon="-3.694772648760858"><ele>41.0</ele><time>2026-04-30T17:50:16Z</time></trkpt><trkpt lat="43.389187043013294" lon="-3.694922106713208"><ele>41.0</ele><time>2026-04-30T17:50:17Z</time></trkpt><trkpt lat="43.38920704025729" lon="-3.6950787020667586"><ele>41.0</ele><time>2026-04-30T17:50:18Z</time></trkpt><trkpt lat="43.38922857129105" lon="-3.6952286066459203"><ele>41.0</ele><time>2026-04-30T17:50:19Z</time></trkpt><trkpt lat="43.38925081740811" lon="-3.6953799910992524"><ele>41.0</ele><time>2026-04-30T17:50:20Z</time></trkpt><trkpt lat="43.38927568334129" lon="-3.695532878731091"><ele>41.0</ele><time>2026-04-30T17:50:21Z</time></trkpt><trkpt lat="43.389301261183434" lon="-3.69568643137027"><ele>41.0</ele><time>2026-04-30T17:50:22Z</time></trkpt><trkpt lat="43.38932715939973" lon="-3.6958395799980917"><ele>41.0</ele><time>2026-04-30T17:50:23.001Z</time></trkpt><trkpt lat="43.38935198084742" lon="-3.6959898753212355"><ele>41.0</ele><time>2026-04-30T17:50:24.001Z</time></trkpt><trkpt lat="43.3893763129827" lon="-3.6961440437458886"><ele>41.0</ele><time>2026-04-30T17:50:25.001Z</time></trkpt><trkpt lat="43.38940141698729" lon="-3.6962927006315294"><ele>40.8</ele><time>2026-04-30T17:50:26.001Z</time></trkpt><trkpt lat="43.38942749966063" lon="-3.696442850997879"><ele>40.599999999999994</ele><time>2026-04-30T17:50:27.001Z</time></trkpt><trkpt lat="43.389453732676536" lon="-3.6965863318534407"><ele>40.4</ele><time>2026-04-30T17:50:28.001Z</time></trkpt><trkpt lat="43.389479461274895" lon="-3.696736899666294"><ele>40.2</ele><time>2026-04-30T17:50:29.001Z</time></trkpt><trkpt lat="43.389504871467345" lon="-3.6968856456936767"><ele>40.0</ele><time>2026-04-30T17:50:30.001Z</time></trkpt><trkpt lat="43.38952857392351" lon="-3.6970311563249"><ele>40.2</ele><time>2026-04-30T17:50:31.001Z</time></trkpt><trkpt lat="43.38955600028613" lon="-3.697181170182867"><ele>40.4</ele><time>2026-04-30T17:50:32.001Z</time></trkpt><trkpt lat="43.38958140003781" lon="-3.6973250996886513"><ele>40.599999999999994</ele><time>2026-04-30T17:50:33.001Z</time></trkpt><trkpt lat="43.38960246075527" lon="-3.6974723474984144"><ele>40.8</ele><time>2026-04-30T17:50:34.001Z</time></trkpt><trkpt lat="43.38962691614478" lon="-3.697621615912783"><ele>41.0</ele><time>2026-04-30T17:50:35.001Z</time></trkpt><trkpt lat="43.38965570718208" lon="-3.6977686174382227"><ele>40.199999999999996</ele><time>2026-04-30T17:50:36.001Z</time></trkpt><trkpt lat="43.38967943350475" lon="-3.697917081738574"><ele>39.4</ele><time>2026-04-30T17:50:37.001Z</time></trkpt><trkpt lat="43.389700784961164" lon="-3.698062622363733"><ele>38.6</ele><time>2026-04-30T17:50:38.001Z</time></trkpt><trkpt lat="43.389723152991884" lon="-3.698202879463937"><ele>37.8</ele><time>2026-04-30T17:50:39.001Z</time></trkpt><trkpt lat="43.38974740182894" lon="-3.698348541439557"><ele>37.0</ele><time>2026-04-30T17:50:40.001Z</time></trkpt><trkpt lat="43.38977532610529" lon="-3.6984950364231515"><ele>37.6</ele><time>2026-04-30T17:50:41.001Z</time></trkpt><trkpt lat="43.38979460066218" lon="-3.6986432591687026"><ele>38.2</ele><time>2026-04-30T17:50:42.001Z</time></trkpt><trkpt lat="43.38980384895679" lon="-3.6987902548196723"><ele>38.8</ele><time>2026-04-30T17:50:43.001Z</time></trkpt><trkpt lat="43.38980563566898" lon="-3.698944233114803"><ele>39.4</ele><time>2026-04-30T17:50:44.001Z</time></trkpt><trkpt lat="43.389801160083636" lon="-3.6990956765987923"><ele>40.0</ele><time>2026-04-30T17:50:45.001Z</time></trkpt><trkpt lat="43.38979184036883" lon="-3.6992492783224518"><ele>40.0</ele><time>2026-04-30T17:50:46.001Z</time></trkpt><trkpt lat="43.38977782962434" lon="-3.699404450173888"><ele>40.0</ele><time>2026-04-30T17:50:47.001Z</time></trkpt><trkpt lat="43.389763102579884" lon="-3.699553090000405"><ele>40.0</ele><time>2026-04-30T17:50:48.001Z</time></trkpt><trkpt lat="43.38974996717063" lon="-3.699702537536411"><ele>40.0</ele><time>2026-04-30T17:50:49.001Z</time></trkpt><trkpt lat="43.389734155705014" lon="-3.6998523402693553"><ele>40.0</ele><time>2026-04-30T17:50:50.001Z</time></trkpt><trkpt lat="43.38972169585865" lon="-3.7000015361597525"><ele>40.2</ele><time>2026-04-30T17:50:51.001Z</time></trkpt><trkpt lat="43.38971113384397" lon="-3.700151317920465"><ele>40.4</ele><time>2026-04-30T17:50:52.001Z</time></trkpt><trkpt lat="43.389700546088555" lon="-3.700300245419079"><ele>40.599999999999994</ele><time>2026-04-30T17:50:53.001Z</time></trkpt><trkpt lat="43.38968766146493" lon="-3.7004509036066144"><ele>40.8</ele><time>2026-04-30T17:50:54.001Z</time></trkpt><trkpt lat="43.38968363049024" lon="-3.7006024432563884"><ele>41.0</ele><time>2026-04-30T17:50:55.001Z</time></trkpt><trkpt lat="43.38969203857798" lon="-3.700749981001533"><ele>41.0</ele><time>2026-04-30T17:50:56.001Z</time></trkpt><trkpt lat="43.3897101432427" lon="-3.7008965567574656"><ele>41.0</ele><time>2026-04-30T17:50:57.001Z</time></trkpt><trkpt lat="43.38974147943481" lon="-3.7010421827292577"><ele>41.0</ele><time>2026-04-30T17:50:58.001Z</time></trkpt><trkpt lat="43.38977255949193" lon="-3.7011701151388894"><ele>41.0</ele><time>2026-04-30T17:50:59.001Z</time></trkpt><trkpt lat="43.38980914661278" lon="-3.7013053899587542"><ele>41.0</ele><time>2026-04-30T17:51:00.001Z</time></trkpt><trkpt lat="43.38983885944048" lon="-3.7014589380059726"><ele>41.4</ele><time>2026-04-30T17:51:01.001Z</time></trkpt><trkpt lat="43.38987004768193" lon="-3.701601354244635"><ele>41.8</ele><time>2026-04-30T17:51:02.001Z</time></trkpt><trkpt lat="43.38990124779648" lon="-3.70173810025404"><ele>42.199999999999996</ele><time>2026-04-30T17:51:03.001Z</time></trkpt><trkpt lat="43.38993073543226" lon="-3.701877349471321"><ele>42.599999999999994</ele><time>2026-04-30T17:51:04.001Z</time></trkpt><trkpt lat="43.38996203903912" lon="-3.702021750051797"><ele>43.0</ele><time>2026-04-30T17:51:05.001Z</time></trkpt><trkpt lat="43.389993540277025" lon="-3.7021611024292644"><ele>43.0</ele><time>2026-04-30T17:51:06.001Z</time></trkpt><trkpt lat="43.3900230925083" lon="-3.7022998000267964"><ele>43.0</ele><time>2026-04-30T17:51:07.001Z</time></trkpt><trkpt lat="43.390053672103136" lon="-3.7024381473324324"><ele>43.0</ele><time>2026-04-30T17:51:08.001Z</time></trkpt><trkpt lat="43.39008162111268" lon="-3.7025820071950495"><ele>43.0</ele><time>2026-04-30T17:51:09.001Z</time></trkpt><trkpt lat="43.39011235966975" lon="-3.7027249003233496"><ele>43.0</ele><time>2026-04-30T17:51:10.001Z</time></trkpt><trkpt lat="43.39014207381918" lon="-3.702867553286703"><ele>43.599999999999994</ele><time>2026-04-30T17:51:11.001Z</time></trkpt><trkpt lat="43.390174834895525" lon="-3.7030087862219445"><ele>44.199999999999996</ele><time>2026-04-30T17:51:12.001Z</time></trkpt><trkpt lat="43.390204695877415" lon="-3.70315150836702"><ele>44.8</ele><time>2026-04-30T17:51:13.001Z</time></trkpt><trkpt lat="43.3902320246804" lon="-3.703293348614794"><ele>45.4</ele><time>2026-04-30T17:51:14.001Z</time></trkpt><trkpt lat="43.39025922607878" lon="-3.703437952218735"><ele>46.0</ele><time>2026-04-30T17:51:15.001Z</time></trkpt><trkpt lat="43.390280749348456" lon="-3.703585496917112"><ele>48.199999999999996</ele><time>2026-04-30T17:51:16.001Z</time></trkpt><trkpt lat="43.39030782876068" lon="-3.7037280385176143"><ele>50.4</ele><time>2026-04-30T17:51:17.001Z</time></trkpt><trkpt lat="43.39033867212827" lon="-3.7038705044270452"><ele>52.6</ele><time>2026-04-30T17:51:18.002Z</time></trkpt><trkpt lat="43.39036941217127" lon="-3.704013417105508"><ele>54.8</ele><time>2026-04-30T17:51:19.002Z</time></trkpt><trkpt lat="43.39040003298288" lon="-3.704156157834616"><ele>57.0</ele><time>2026-04-30T17:51:20.002Z</time></trkpt><trkpt lat="43.390430397641836" lon="-3.7042999220080883"><ele>59.0</ele><time>2026-04-30T17:51:21.002Z</time></trkpt><trkpt lat="43.390461305011506" lon="-3.7044452698777404"><ele>61.0</ele><time>2026-04-30T17:51:22.002Z</time></trkpt><trkpt lat="43.390492159633716" lon="-3.7045868442306333"><ele>63.0</ele><time>2026-04-30T17:51:23.002Z</time></trkpt><trkpt lat="43.390523157921095" lon="-3.704732187327737"><ele>65.0</ele><time>2026-04-30T17:51:24.002Z</time></trkpt><trkpt lat="43.39055346097313" lon="-3.70487701064758"><ele>67.0</ele><time>2026-04-30T17:51:25.002Z</time></trkpt><trkpt lat="43.39057839384853" lon="-3.7050216112851433"><ele>63.0</ele><time>2026-04-30T17:51:26.002Z</time></trkpt><trkpt lat="43.39060508588273" lon="-3.7051670918951785"><ele>59.0</ele><time>2026-04-30T17:51:27.002Z</time></trkpt><trkpt lat="43.3906311557072" lon="-3.705314013302338"><ele>55.0</ele><time>2026-04-30T17:51:28.002Z</time></trkpt><trkpt lat="43.39065126305257" lon="-3.705462915217037"><ele>51.0</ele><time>2026-04-30T17:51:29Z</time></trkpt><trkpt lat="43.39067090399059" lon="-3.7056103484042704"><ele>47.0</ele><time>2026-04-30T17:51:30Z</time></trkpt><trkpt lat="43.39068789316503" lon="-3.7057598494929858"><ele>47.0</ele><time>2026-04-30T17:51:31Z</time></trkpt><trkpt lat="43.390701489702316" lon="-3.7059072384500014"><ele>47.0</ele><time>2026-04-30T17:51:32Z</time></trkpt><trkpt lat="43.39071226795276" lon="-3.706026431130635"><ele>47.0</ele><time>2026-04-30T17:51:33Z</time></trkpt><trkpt lat="43.39073559962578" lon="-3.706152978412081"><ele>47.0</ele><time>2026-04-30T17:51:34Z</time></trkpt><trkpt lat="43.39076939144387" lon="-3.7062709116233514"><ele>47.0</ele><time>2026-04-30T17:51:35Z</time></trkpt><trkpt lat="43.3908025405534" lon="-3.7063758663868973"><ele>47.400000000000006</ele><time>2026-04-30T17:51:36Z</time></trkpt><trkpt lat="43.39082868564966" lon="-3.706480670734826"><ele>47.800000000000004</ele><time>2026-04-30T17:51:37Z</time></trkpt><trkpt lat="43.39083407080644" lon="-3.7066015148745755"><ele>48.2</ele><time>2026-04-30T17:51:38Z</time></trkpt><trkpt lat="43.39080971145348" lon="-3.7067212400214125"><ele>48.6</ele><time>2026-04-30T17:51:39Z</time></trkpt><trkpt lat="43.39076517205238" lon="-3.7068404322005066"><ele>49.0</ele><time>2026-04-30T17:51:40Z</time></trkpt><trkpt lat="43.39070499983822" lon="-3.706954239080815"><ele>48.0</ele><time>2026-04-30T17:51:41Z</time></trkpt><trkpt lat="43.3906333474363" lon="-3.707052713735174"><ele>47.0</ele><time>2026-04-30T17:51:42Z</time></trkpt><trkpt lat="43.39057053613187" lon="-3.7071492402118795"><ele>46.0</ele><time>2026-04-30T17:51:43Z</time></trkpt><trkpt lat="43.39052729538552" lon="-3.7072793535579964"><ele>45.0</ele><time>2026-04-30T17:51:44Z</time></trkpt><trkpt lat="43.39050696193172" lon="-3.707424962294014"><ele>44.0</ele><time>2026-04-30T17:51:45Z</time></trkpt><trkpt lat="43.390445819736556" lon="-3.7075266507622398"><ele>51.6</ele><time>2026-04-30T17:51:46Z</time></trkpt><trkpt lat="43.39041686472728" lon="-3.707664106994566"><ele>59.2</ele><time>2026-04-30T17:51:47Z</time></trkpt><trkpt lat="43.39038110023967" lon="-3.7077979723153036"><ele>66.8</ele><time>2026-04-30T17:51:48Z</time></trkpt><trkpt lat="43.390348359338766" lon="-3.707937509888147"><ele>74.39999999999999</ele><time>2026-04-30T17:51:49Z</time></trkpt><trkpt lat="43.390318626317935" lon="-3.7080751917397032"><ele>82.0</ele><time>2026-04-30T17:51:50Z</time></trkpt><trkpt lat="43.39028919431747" lon="-3.708219758548248"><ele>82.0</ele><time>2026-04-30T17:51:51Z</time></trkpt><trkpt lat="43.39026177618828" lon="-3.708356508749885"><ele>82.0</ele><time>2026-04-30T17:51:52Z</time></trkpt><trkpt lat="43.39024365489165" lon="-3.7084996502192764"><ele>82.0</ele><time>2026-04-30T17:51:53Z</time></trkpt><trkpt lat="43.39024022426761" lon="-3.7086487717514047"><ele>82.0</ele><time>2026-04-30T17:51:54Z</time></trkpt><trkpt lat="43.39023541385095" lon="-3.708793473260775"><ele>82.0</ele><time>2026-04-30T17:51:55Z</time></trkpt><trkpt lat="43.39023566523116" lon="-3.708940774319313"><ele>82.6</ele><time>2026-04-30T17:51:56Z</time></trkpt><trkpt lat="43.390242764027406" lon="-3.709082907456715"><ele>83.19999999999999</ele><time>2026-04-30T17:51:57Z</time></trkpt><trkpt lat="43.39025527223603" lon="-3.7092399974090755"><ele>83.8</ele><time>2026-04-30T17:51:58Z</time></trkpt><trkpt lat="43.39026977207324" lon="-3.7093878415942343"><ele>84.4</ele><time>2026-04-30T17:51:59Z</time></trkpt><trkpt lat="43.39027413745993" lon="-3.7095401260480507"><ele>85.0</ele><time>2026-04-30T17:52:00Z</time></trkpt><trkpt lat="43.390286540943954" lon="-3.7096858123563514"><ele>86.4</ele><time>2026-04-30T17:52:01Z</time></trkpt><trkpt lat="43.390300870303214" lon="-3.709832486128892"><ele>87.8</ele><time>2026-04-30T17:52:02Z</time></trkpt><trkpt lat="43.39031326733599" lon="-3.7099729338696905"><ele>89.19999999999999</ele><time>2026-04-30T17:52:03Z</time></trkpt><trkpt lat="43.390325047274004" lon="-3.710109809912326"><ele>90.6</ele><time>2026-04-30T17:52:04Z</time></trkpt><trkpt lat="43.39033738859753" lon="-3.710252640171047"><ele>92.0</ele><time>2026-04-30T17:52:05Z</time></trkpt><trkpt lat="43.390346457004895" lon="-3.710393475088359"><ele>92.39999999999999</ele><time>2026-04-30T17:52:06Z</time></trkpt><trkpt lat="43.390354190207326" lon="-3.71053582422017"><ele>92.8</ele><time>2026-04-30T17:52:07Z</time></trkpt><trkpt lat="43.39035942866479" lon="-3.7106782245162226"><ele>93.2</ele><time>2026-04-30T17:52:08Z</time></trkpt><trkpt lat="43.390365389444014" lon="-3.710814423855585"><ele>93.6</ele><time>2026-04-30T17:52:09Z</time></trkpt><trkpt lat="43.39036031944278" lon="-3.7109622052200395"><ele>94.0</ele><time>2026-04-30T17:52:10Z</time></trkpt><trkpt lat="43.390345307516846" lon="-3.711114059094848"><ele>92.80000000000001</ele><time>2026-04-30T17:52:11Z</time></trkpt><trkpt lat="43.39031880760644" lon="-3.7112471792526813"><ele>91.60000000000001</ele><time>2026-04-30T17:52:12Z</time></trkpt><trkpt lat="43.39029820114873" lon="-3.7113672010716634"><ele>90.4</ele><time>2026-04-30T17:52:13Z</time></trkpt><trkpt lat="43.39027347829237" lon="-3.7115073857752234"><ele>89.2</ele><time>2026-04-30T17:52:14Z</time></trkpt><trkpt lat="43.39023900878584" lon="-3.7116468215271987"><ele>88.0</ele><time>2026-04-30T17:52:15Z</time></trkpt><trkpt lat="43.39020031440677" lon="-3.711789216936206"><ele>86.2</ele><time>2026-04-30T17:52:16Z</time></trkpt><trkpt lat="43.39015812854739" lon="-3.7119220063424447"><ele>84.4</ele><time>2026-04-30T17:52:17.001Z</time></trkpt><trkpt lat="43.3901139661684" lon="-3.7120559731071743"><ele>82.60000000000001</ele><time>2026-04-30T17:52:18.001Z</time></trkpt><trkpt lat="43.390075267211756" lon="-3.7121922896405533"><ele>80.80000000000001</ele><time>2026-04-30T17:52:19.001Z</time></trkpt><trkpt lat="43.39003742064365" lon="-3.712328609189758"><ele>79.0</ele><time>2026-04-30T17:52:20.001Z</time></trkpt><trkpt lat="43.3900034967393" lon="-3.7124634351000414"><ele>79.0</ele><time>2026-04-30T17:52:21.001Z</time></trkpt><trkpt lat="43.389966089040364" lon="-3.712598406280736"><ele>79.0</ele><time>2026-04-30T17:52:22.001Z</time></trkpt><trkpt lat="43.38993074814149" lon="-3.7127286741358865"><ele>79.0</ele><time>2026-04-30T17:52:23.001Z</time></trkpt><trkpt lat="43.389895031838456" lon="-3.7128710891439485"><ele>79.0</ele><time>2026-04-30T17:52:24.001Z</time></trkpt><trkpt lat="43.389859463087994" lon="-3.713000290228303"><ele>79.0</ele><time>2026-04-30T17:52:25.001Z</time></trkpt><trkpt lat="43.38983881705355" lon="-3.7131342449615063"><ele>76.2</ele><time>2026-04-30T17:52:26.001Z</time></trkpt><trkpt lat="43.389806372837704" lon="-3.7132723299867254"><ele>73.4</ele><time>2026-04-30T17:52:27.001Z</time></trkpt><trkpt lat="43.389781772831384" lon="-3.7134078656962606"><ele>70.6</ele><time>2026-04-30T17:52:28.001Z</time></trkpt><trkpt lat="43.38974762181923" lon="-3.713545686721005"><ele>67.8</ele><time>2026-04-30T17:52:29.001Z</time></trkpt><trkpt lat="43.38972183946173" lon="-3.7136863917000684"><ele>65.0</ele><time>2026-04-30T17:52:30.001Z</time></trkpt><trkpt lat="43.38969316157787" lon="-3.7138246681851625"><ele>64.0</ele><time>2026-04-30T17:52:31.001Z</time></trkpt><trkpt lat="43.38968024620026" lon="-3.713963398355374"><ele>63.0</ele><time>2026-04-30T17:52:32.001Z</time></trkpt><trkpt lat="43.38968928891034" lon="-3.7141254803389097"><ele>62.0</ele><time>2026-04-30T17:52:33.001Z</time></trkpt><trkpt lat="43.38966454923844" lon="-3.714250277571639"><ele>61.0</ele><time>2026-04-30T17:52:34.001Z</time></trkpt><trkpt lat="43.3896364745197" lon="-3.71438549903814"><ele>60.0</ele><time>2026-04-30T17:52:35.001Z</time></trkpt><trkpt lat="43.38961673699675" lon="-3.7144904010432787"><ele>66.2</ele><time>2026-04-30T17:52:36.001Z</time></trkpt><trkpt lat="43.389575644823154" lon="-3.7146586405172513"><ele>72.4</ele><time>2026-04-30T17:52:37.001Z</time></trkpt><trkpt lat="43.38951151972108" lon="-3.714784071254252"><ele>78.6</ele><time>2026-04-30T17:52:38.001Z</time></trkpt><trkpt lat="43.38947995288561" lon="-3.7149200632102892"><ele>84.8</ele><time>2026-04-30T17:52:39.001Z</time></trkpt><trkpt lat="43.38950207525098" lon="-3.7150606551463308"><ele>91.0</ele><time>2026-04-30T17:52:40.001Z</time></trkpt><trkpt lat="43.38949540762584" lon="-3.7151944597681124"><ele>90.8</ele><time>2026-04-30T17:52:41.001Z</time></trkpt><trkpt lat="43.38949025766873" lon="-3.715336089966975"><ele>90.6</ele><time>2026-04-30T17:52:42.001Z</time></trkpt><trkpt lat="43.389490716978614" lon="-3.7154728819546383"><ele>90.4</ele><time>2026-04-30T17:52:43.001Z</time></trkpt><trkpt lat="43.38949446625653" lon="-3.7156113261832817"><ele>90.2</ele><time>2026-04-30T17:52:44.001Z</time></trkpt><trkpt lat="43.38949598559162" lon="-3.7157516633091823"><ele>90.0</ele><time>2026-04-30T17:52:45.001Z</time></trkpt><trkpt lat="43.389499183385595" lon="-3.7158877704095885"><ele>90.0</ele><time>2026-04-30T17:52:46.001Z</time></trkpt><trkpt lat="43.38949935875684" lon="-3.716026851903364"><ele>90.0</ele><time>2026-04-30T17:52:47.001Z</time></trkpt><trkpt lat="43.38950250538385" lon="-3.7161671227687543"><ele>90.0</ele><time>2026-04-30T17:52:48.001Z</time></trkpt><trkpt lat="43.38950489592366" lon="-3.716305468946726"><ele>90.0</ele><time>2026-04-30T17:52:49.001Z</time></trkpt><trkpt lat="43.389510387118094" lon="-3.716441631938066"><ele>90.0</ele><time>2026-04-30T17:52:50.001Z</time></trkpt><trkpt lat="43.389517349334" lon="-3.7165837224813534"><ele>90.0</ele><time>2026-04-30T17:52:51.001Z</time></trkpt><trkpt lat="43.389526862365386" lon="-3.716720660859488"><ele>90.0</ele><time>2026-04-30T17:52:52.001Z</time></trkpt><trkpt lat="43.389542685259244" lon="-3.7168592907573887"><ele>90.0</ele><time>2026-04-30T17:52:53.001Z</time></trkpt><trkpt lat="43.38956040504951" lon="-3.7169992377862946"><ele>90.0</ele><time>2026-04-30T17:52:54.001Z</time></trkpt><trkpt lat="43.3895805334583" lon="-3.717139069971004"><ele>90.0</ele><time>2026-04-30T17:52:55.001Z</time></trkpt><trkpt lat="43.38960791111031" lon="-3.717270251093422"><ele>91.4</ele><time>2026-04-30T17:52:56.001Z</time></trkpt><trkpt lat="43.38963514615006" lon="-3.7174061320332634"><ele>92.8</ele><time>2026-04-30T17:52:57.001Z</time></trkpt><trkpt lat="43.38966321881244" lon="-3.7175397432202555"><ele>94.19999999999999</ele><time>2026-04-30T17:52:58.001Z</time></trkpt><trkpt lat="43.389692418757456" lon="-3.7176740790074243"><ele>95.6</ele><time>2026-04-30T17:52:59.001Z</time></trkpt><trkpt lat="43.389721892516214" lon="-3.717810658786339"><ele>97.0</ele><time>2026-04-30T17:53:00.001Z</time></trkpt><trkpt lat="43.389745711214715" lon="-3.7179491710364596"><ele>94.0</ele><time>2026-04-30T17:53:01.001Z</time></trkpt><trkpt lat="43.38978527476748" lon="-3.7180907034370705"><ele>91.0</ele><time>2026-04-30T17:53:02.001Z</time></trkpt><trkpt lat="43.38982155639223" lon="-3.718234059980862"><ele>88.0</ele><time>2026-04-30T17:53:03.001Z</time></trkpt><trkpt lat="43.38984178069357" lon="-3.718382067573118"><ele>85.0</ele><time>2026-04-30T17:53:04.001Z</time></trkpt><trkpt lat="43.389851453610305" lon="-3.7185197696943844"><ele>82.0</ele><time>2026-04-30T17:53:05.001Z</time></trkpt><trkpt lat="43.38986797419333" lon="-3.7186680593363395"><ele>81.19999999999999</ele><time>2026-04-30T17:53:06.001Z</time></trkpt><trkpt lat="43.38985893716692" lon="-3.7188116878674333"><ele>80.39999999999999</ele><time>2026-04-30T17:53:07.001Z</time></trkpt><trkpt lat="43.38985225609737" lon="-3.7189626914259764"><ele>79.6</ele><time>2026-04-30T17:53:08.001Z</time></trkpt><trkpt lat="43.38983846128562" lon="-3.719112847807776"><ele>78.8</ele><time>2026-04-30T17:53:09.001Z</time></trkpt><trkpt lat="43.38981729948813" lon="-3.7192630725195346"><ele>78.0</ele><time>2026-04-30T17:53:10.002Z</time></trkpt><trkpt lat="43.389786140598765" lon="-3.719412946099081"><ele>76.25</ele><time>2026-04-30T17:53:11.002Z</time></trkpt><trkpt lat="43.38975227168855" lon="-3.719562501470928"><ele>74.5</ele><time>2026-04-30T17:53:12.002Z</time></trkpt><trkpt lat="43.38970571059879" lon="-3.7197071431798396"><ele>72.75</ele><time>2026-04-30T17:53:13.002Z</time></trkpt><trkpt lat="43.38964990521417" lon="-3.719841574185552"><ele>71.0</ele><time>2026-04-30T17:53:14.002Z</time></trkpt><trkpt lat="43.389584242499765" lon="-3.71997571049794"><ele>71.5</ele><time>2026-04-30T17:53:15.002Z</time></trkpt><trkpt lat="43.38951713673977" lon="-3.7201032956353854"><ele>72.0</ele><time>2026-04-30T17:53:16.002Z</time></trkpt><trkpt lat="43.38944442322891" lon="-3.7202245187843053"><ele>72.5</ele><time>2026-04-30T17:53:17.002Z</time></trkpt><trkpt lat="43.389368910719355" lon="-3.720343240225981"><ele>73.0</ele><time>2026-04-30T17:53:18.002Z</time></trkpt><trkpt lat="43.38929079632693" lon="-3.7204613469917502"><ele>73.0</ele><time>2026-04-30T17:53:19.002Z</time></trkpt><trkpt lat="43.38921445179422" lon="-3.720577104826207"><ele>73.0</ele><time>2026-04-30T17:53:20.002Z</time></trkpt><trkpt lat="43.38913330841837" lon="-3.720689359169992"><ele>73.0</ele><time>2026-04-30T17:53:21.002Z</time></trkpt><trkpt lat="43.38905580729237" lon="-3.7208010878742797"><ele>73.0</ele><time>2026-04-30T17:53:22.002Z</time></trkpt><trkpt lat="43.38898504437161" lon="-3.720922885529398"><ele>73.0</ele><time>2026-04-30T17:53:23.002Z</time></trkpt><trkpt lat="43.38892593604342" lon="-3.7210579617052297"><ele>73.0</ele><time>2026-04-30T17:53:24.002Z</time></trkpt><trkpt lat="43.3888715511386" lon="-3.721196602966366"><ele>73.0</ele><time>2026-04-30T17:53:25.002Z</time></trkpt><trkpt lat="43.388832014886994" lon="-3.7213396940790884"><ele>73.0</ele><time>2026-04-30T17:53:26.002Z</time></trkpt><trkpt lat="43.38880347357831" lon="-3.7214938177763153"><ele>76.0</ele><time>2026-04-30T17:53:27.002Z</time></trkpt><trkpt lat="43.388797793091996" lon="-3.721650359550537"><ele>79.0</ele><time>2026-04-30T17:53:28.002Z</time></trkpt><trkpt lat="43.388810244123995" lon="-3.721809194553173"><ele>82.0</ele><time>2026-04-30T17:53:29.002Z</time></trkpt><trkpt lat="43.38882563332573" lon="-3.7219668514087436"><ele>85.0</ele><time>2026-04-30T17:53:30.002Z</time></trkpt><trkpt lat="43.38884249758473" lon="-3.7221273127680394"><ele>78.5</ele><time>2026-04-30T17:53:31.002Z</time></trkpt><trkpt lat="43.38886376680445" lon="-3.7222811950160075"><ele>72.0</ele><time>2026-04-30T17:53:32.002Z</time></trkpt><trkpt lat="43.388883485062" lon="-3.7224371652169603"><ele>65.5</ele><time>2026-04-30T17:53:33.002Z</time></trkpt><trkpt lat="43.38890642757494" lon="-3.722593755019223"><ele>59.0</ele><time>2026-04-30T17:53:34.002Z</time></trkpt><trkpt lat="43.38892479986581" lon="-3.7227484657528636"><ele>57.25</ele><time>2026-04-30T17:53:35Z</time></trkpt><trkpt lat="43.388945409507755" lon="-3.722901693787913"><ele>55.5</ele><time>2026-04-30T17:53:36Z</time></trkpt><trkpt lat="43.38896024717568" lon="-3.723056854986125"><ele>53.75</ele><time>2026-04-30T17:53:37Z</time></trkpt><trkpt lat="43.38896172535049" lon="-3.723216220775481"><ele>52.0</ele><time>2026-04-30T17:53:38Z</time></trkpt><trkpt lat="43.38895891677804" lon="-3.7233768551768427"><ele>52.0</ele><time>2026-04-30T17:53:39Z</time></trkpt><trkpt lat="43.3889483616463" lon="-3.7235326289666566"><ele>52.0</ele><time>2026-04-30T17:53:40Z</time></trkpt><trkpt lat="43.388927587406094" lon="-3.7236850039847695"><ele>52.0</ele><time>2026-04-30T17:53:41Z</time></trkpt><trkpt lat="43.38889190860399" lon="-3.723839251441535"><ele>52.0</ele><time>2026-04-30T17:53:42Z</time></trkpt><trkpt lat="43.38884714644464" lon="-3.7239878144528205"><ele>51.75</ele><time>2026-04-30T17:53:43Z</time></trkpt><trkpt lat="43.38879542053201" lon="-3.7241366407936343"><ele>51.5</ele><time>2026-04-30T17:53:44Z</time></trkpt><trkpt lat="43.388729029133465" lon="-3.7242738531024724"><ele>51.25</ele><time>2026-04-30T17:53:45Z</time></trkpt><trkpt lat="43.38865665246205" lon="-3.724399838097113"><ele>51.0</ele><time>2026-04-30T17:53:46Z</time></trkpt><trkpt lat="43.38857647242097" lon="-3.724516806966847"><ele>51.0</ele><time>2026-04-30T17:53:47Z</time></trkpt><trkpt lat="43.3884878822496" lon="-3.7246163053388863"><ele>51.0</ele><time>2026-04-30T17:53:48Z</time></trkpt><trkpt lat="43.38839294290658" lon="-3.7247167854777516"><ele>51.0</ele><time>2026-04-30T17:53:49Z</time></trkpt><trkpt lat="43.388291697947544" lon="-3.72480692687241"><ele>51.0</ele><time>2026-04-30T17:53:50Z</time></trkpt><trkpt lat="43.38819364689602" lon="-3.7248884957741497"><ele>51.0</ele><time>2026-04-30T17:53:51Z</time></trkpt><trkpt lat="43.388091111085686" lon="-3.724972246853551"><ele>51.0</ele><time>2026-04-30T17:53:52Z</time></trkpt><trkpt lat="43.387993787981465" lon="-3.725056439852962"><ele>51.0</ele><time>2026-04-30T17:53:53Z</time></trkpt><trkpt lat="43.387894599144616" lon="-3.7251464757192236"><ele>51.0</ele><time>2026-04-30T17:53:54Z</time></trkpt><trkpt lat="43.387794769062864" lon="-3.725233530867869"><ele>49.5</ele><time>2026-04-30T17:53:55Z</time></trkpt><trkpt lat="43.38770035991522" lon="-3.7253309309245157"><ele>48.0</ele><time>2026-04-30T17:53:56Z</time></trkpt><trkpt lat="43.387614041888504" lon="-3.725434745998873"><ele>46.5</ele><time>2026-04-30T17:53:57Z</time></trkpt><trkpt lat="43.38752815956066" lon="-3.7255431026820163"><ele>45.0</ele><time>2026-04-30T17:53:58Z</time></trkpt><trkpt lat="43.387444233252666" lon="-3.7256505477864668"><ele>45.0</ele><time>2026-04-30T17:53:59Z</time></trkpt><trkpt lat="43.38735573428086" lon="-3.7257573058561477"><ele>45.0</ele><time>2026-04-30T17:54:00Z</time></trkpt><trkpt lat="43.38727088717707" lon="-3.72586254918612"><ele>45.0</ele><time>2026-04-30T17:54:01Z</time></trkpt><trkpt lat="43.38718614366838" lon="-3.7259662256176465"><ele>45.0</ele><time>2026-04-30T17:54:02Z</time></trkpt><trkpt lat="43.38710261815681" lon="-3.726077204313827"><ele>43.0</ele><time>2026-04-30T17:54:03Z</time></trkpt><trkpt lat="43.38701577575183" lon="-3.726182576676529"><ele>41.0</ele><time>2026-04-30T17:54:04Z</time></trkpt><trkpt lat="43.386931070614615" lon="-3.726287582225441"><ele>39.0</ele><time>2026-04-30T17:54:05Z</time></trkpt><trkpt lat="43.386844541233785" lon="-3.7263989110602034"><ele>37.0</ele><time>2026-04-30T17:54:06Z</time></trkpt><trkpt lat="43.38676042651539" lon="-3.7265058535311253"><ele>37.0</ele><time>2026-04-30T17:54:07Z</time></trkpt><trkpt lat="43.386672387709105" lon="-3.7266103770434653"><ele>37.0</ele><time>2026-04-30T17:54:08Z</time></trkpt><trkpt lat="43.38658553894156" lon="-3.726716280400754"><ele>37.0</ele><time>2026-04-30T17:54:09Z</time></trkpt><trkpt lat="43.386498097625484" lon="-3.7268220147687185"><ele>37.0</ele><time>2026-04-30T17:54:10Z</time></trkpt><trkpt lat="43.38641320366998" lon="-3.7269305525142657"><ele>36.0</ele><time>2026-04-30T17:54:11Z</time></trkpt><trkpt lat="43.38632719771979" lon="-3.7270311713395086"><ele>35.0</ele><time>2026-04-30T17:54:12.001Z</time></trkpt><trkpt lat="43.38624388136352" lon="-3.727138166034195"><ele>34.0</ele><time>2026-04-30T17:54:13.001Z</time></trkpt><trkpt lat="43.386160989274096" lon="-3.727243369124936"><ele>33.0</ele><time>2026-04-30T17:54:14.001Z</time></trkpt><trkpt lat="43.386078636496585" lon="-3.727346835425911"><ele>33.0</ele><time>2026-04-30T17:54:15.001Z</time></trkpt><trkpt lat="43.38599532629409" lon="-3.727456161466848"><ele>33.0</ele><time>2026-04-30T17:54:16.001Z</time></trkpt><trkpt lat="43.385917053833964" lon="-3.727553607798291"><ele>33.0</ele><time>2026-04-30T17:54:17.001Z</time></trkpt><trkpt lat="43.38585234470268" lon="-3.727641715920562"><ele>33.0</ele><time>2026-04-30T17:54:18.001Z</time></trkpt><trkpt lat="43.38577010488556" lon="-3.7277363359668407"><ele>33.0</ele><time>2026-04-30T17:54:19.001Z</time></trkpt><trkpt lat="43.38570982600549" lon="-3.727837108392945"><ele>32.199999999999996</ele><time>2026-04-30T17:54:20.001Z</time></trkpt><trkpt lat="43.3856545371979" lon="-3.7279440164351483"><ele>31.4</ele><time>2026-04-30T17:54:21.001Z</time></trkpt><trkpt lat="43.38560925421549" lon="-3.7280572242457053"><ele>30.599999999999998</ele><time>2026-04-30T17:54:22.001Z</time></trkpt><trkpt lat="43.385574469876794" lon="-3.7281736532183998"><ele>29.799999999999997</ele><time>2026-04-30T17:54:23.001Z</time></trkpt><trkpt lat="43.38555201520771" lon="-3.728295329051046"><ele>29.0</ele><time>2026-04-30T17:54:24.001Z</time></trkpt><trkpt lat="43.38553230132284" lon="-3.7284197123521743"><ele>28.6</ele><time>2026-04-30T17:54:25.001Z</time></trkpt><trkpt lat="43.38550888609732" lon="-3.7285402072304334"><ele>28.2</ele><time>2026-04-30T17:54:26.001Z</time></trkpt><trkpt lat="43.38549202056866" lon="-3.7286594676235003"><ele>27.800000000000004</ele><time>2026-04-30T17:54:27.001Z</time></trkpt><trkpt lat="43.38548777411072" lon="-3.7287889627992246"><ele>27.400000000000002</ele><time>2026-04-30T17:54:28.001Z</time></trkpt><trkpt lat="43.38549430798438" lon="-3.728914049801614"><ele>27.0</ele><time>2026-04-30T17:54:29.001Z</time></trkpt><trkpt lat="43.385506653290676" lon="-3.7290377457406936"><ele>27.200000000000003</ele><time>2026-04-30T17:54:30.001Z</time></trkpt><trkpt lat="43.38551990913441" lon="-3.7291677439986692"><ele>27.400000000000002</ele><time>2026-04-30T17:54:31.001Z</time></trkpt><trkpt lat="43.38553269816098" lon="-3.729299635306619"><ele>27.599999999999998</ele><time>2026-04-30T17:54:32.001Z</time></trkpt><trkpt lat="43.38554240398297" lon="-3.7294295877981636"><ele>27.799999999999997</ele><time>2026-04-30T17:54:33.001Z</time></trkpt><trkpt lat="43.385546175728" lon="-3.7295632791147897"><ele>28.0</ele><time>2026-04-30T17:54:34.001Z</time></trkpt><trkpt lat="43.38555389425065" lon="-3.729687851866468"><ele>27.666666666666668</ele><time>2026-04-30T17:54:35.001Z</time></trkpt><trkpt lat="43.38555779079993" lon="-3.729809128323228"><ele>27.333333333333336</ele><time>2026-04-30T17:54:36.001Z</time></trkpt><trkpt lat="43.385563281364455" lon="-3.729924352584969"><ele>27.0</ele><time>2026-04-30T17:54:37.001Z</time></trkpt><trkpt lat="43.38556689441114" lon="-3.730045179952642"><ele>26.666666666666664</ele><time>2026-04-30T17:54:38.001Z</time></trkpt><trkpt lat="43.38557451025664" lon="-3.7301528404621678"><ele>26.333333333333332</ele><time>2026-04-30T17:54:39.001Z</time></trkpt><trkpt lat="43.38558241161161" lon="-3.7302571431107747"><ele>26.0</ele><time>2026-04-30T17:54:40.001Z</time></trkpt><trkpt lat="43.38559336812218" lon="-3.7303619946573043"><ele>25.857142857142858</ele><time>2026-04-30T17:54:41.001Z</time></trkpt><trkpt lat="43.385604764882046" lon="-3.7304623907263563"><ele>25.714285714285715</ele><time>2026-04-30T17:54:42.001Z</time></trkpt><trkpt lat="43.385607402069766" lon="-3.730563758267526"><ele>25.571428571428573</ele><time>2026-04-30T17:54:43.001Z</time></trkpt><trkpt lat="43.38561185108356" lon="-3.7306711522119222"><ele>25.42857142857143</ele><time>2026-04-30T17:54:44.001Z</time></trkpt><trkpt lat="43.38561688345868" lon="-3.730779799471671"><ele>25.285714285714285</ele><time>2026-04-30T17:54:45.001Z</time></trkpt><trkpt lat="43.385620584953415" lon="-3.7308823359883547"><ele>25.142857142857146</ele><time>2026-04-30T17:54:46.001Z</time></trkpt><trkpt lat="43.385625792349636" lon="-3.730975210217097"><ele>25.0</ele><time>2026-04-30T17:54:47.001Z</time></trkpt><trkpt lat="43.38563141297785" lon="-3.731062141692528"><ele>25.833333333333336</ele><time>2026-04-30T17:54:48.001Z</time></trkpt><trkpt lat="43.385638700597674" lon="-3.7311822217305353"><ele>26.666666666666668</ele><time>2026-04-30T17:54:50.001Z</time></trkpt><trkpt lat="43.385660230111974" lon="-3.7312835421922634"><ele>27.5</ele><time>2026-04-30T17:54:52.001Z</time></trkpt><trkpt lat="43.385694995208524" lon="-3.73142040531359"><ele>28.333333333333336</ele><time>2026-04-30T17:54:54.001Z</time></trkpt><trkpt lat="43.38569992141152" lon="-3.731507807223242"><ele>29.166666666666668</ele><time>2026-04-30T17:54:55.001Z</time></trkpt><trkpt lat="43.385693097076555" lon="-3.7316015389092816"><ele>30.0</ele><time>2026-04-30T17:54:56.001Z</time></trkpt><trkpt lat="43.38568630755406" lon="-3.731708533948123"><ele>30.0</ele><time>2026-04-30T17:54:57.001Z</time></trkpt><trkpt lat="43.385684197379476" lon="-3.7318142067623996"><ele>30.0</ele><time>2026-04-30T17:54:58.001Z</time></trkpt><trkpt lat="43.38568664817695" lon="-3.7319255005943632"><ele>30.0</ele><time>2026-04-30T17:54:59.001Z</time></trkpt><trkpt lat="43.385689032900224" lon="-3.732036608967924"><ele>30.0</ele><time>2026-04-30T17:55:00.001Z</time></trkpt><trkpt lat="43.38569161247371" lon="-3.73214423626253"><ele>30.0</ele><time>2026-04-30T17:55:01.001Z</time></trkpt><trkpt lat="43.38569021367211" lon="-3.7322451712601503"><ele>30.0</ele><time>2026-04-30T17:55:02.001Z</time></trkpt><trkpt lat="43.38568256603142" lon="-3.7323428589326317"><ele>31.2</ele><time>2026-04-30T17:55:03.001Z</time></trkpt><trkpt lat="43.38565599747998" lon="-3.7325045836817194"><ele>32.4</ele><time>2026-04-30T17:55:05.001Z</time></trkpt><trkpt lat="43.38561425219284" lon="-3.7326687723091547"><ele>33.6</ele><time>2026-04-30T17:55:07.001Z</time></trkpt><trkpt lat="43.38558354888982" lon="-3.7327557870098453"><ele>34.8</ele><time>2026-04-30T17:55:08.002Z</time></trkpt><trkpt lat="43.38555342907095" lon="-3.732838160687279"><ele>36.0</ele><time>2026-04-30T17:55:09.002Z</time></trkpt><trkpt lat="43.385514383120814" lon="-3.73293176897715"><ele>38.0</ele><time>2026-04-30T17:55:10.002Z</time></trkpt><trkpt lat="43.38547694213851" lon="-3.733013409024165"><ele>40.0</ele><time>2026-04-30T17:55:11.002Z</time></trkpt><trkpt lat="43.385443286426536" lon="-3.7330968194954055"><ele>42.0</ele><time>2026-04-30T17:55:12.002Z</time></trkpt><trkpt lat="43.38538440293889" lon="-3.73324307777246"><ele>44.0</ele><time>2026-04-30T17:55:14.002Z</time></trkpt><trkpt lat="43.38532460790665" lon="-3.733388902065132"><ele>46.0</ele><time>2026-04-30T17:55:16.002Z</time></trkpt><trkpt lat="43.385264652755396" lon="-3.73353801585656"><ele>45.5</ele><time>2026-04-30T17:55:18.002Z</time></trkpt><trkpt lat="43.38520696604494" lon="-3.73369372113851"><ele>45.0</ele><time>2026-04-30T17:55:20.002Z</time></trkpt><trkpt lat="43.3851789218937" lon="-3.733772767138146"><ele>44.5</ele><time>2026-04-30T17:55:21.002Z</time></trkpt><trkpt lat="43.38515280056058" lon="-3.7338617444422555"><ele>44.0</ele><time>2026-04-30T17:55:22.002Z</time></trkpt><trkpt lat="43.385120952337154" lon="-3.73395257452968"><ele>43.5</ele><time>2026-04-30T17:55:23.002Z</time></trkpt><trkpt lat="43.38509269287621" lon="-3.734046871891862"><ele>43.0</ele><time>2026-04-30T17:55:24.002Z</time></trkpt><trkpt lat="43.38506015288775" lon="-3.7341430370283524"><ele>43.00000000000001</ele><time>2026-04-30T17:55:25.002Z</time></trkpt><trkpt lat="43.38502886243829" lon="-3.734240801552613"><ele>43.0</ele><time>2026-04-30T17:55:26.002Z</time></trkpt><trkpt lat="43.38500344142915" lon="-3.7343336088606938"><ele>43.0</ele><time>2026-04-30T17:55:27.002Z</time></trkpt><trkpt lat="43.38497728933787" lon="-3.7344206195666962"><ele>43.0</ele><time>2026-04-30T17:55:28.002Z</time></trkpt><trkpt lat="43.38494622357135" lon="-3.7345059429437306"><ele>43.0</ele><time>2026-04-30T17:55:29.002Z</time></trkpt><trkpt lat="43.38492875153863" lon="-3.7345895323826865"><ele>43.00000000000001</ele><time>2026-04-30T17:55:30.002Z</time></trkpt><trkpt lat="43.384897946835096" lon="-3.7346811368578474"><ele>43.0</ele><time>2026-04-30T17:55:31.002Z</time></trkpt><trkpt lat="43.3848732994119" lon="-3.7347724222422736"><ele>43.0</ele><time>2026-04-30T17:55:32.002Z</time></trkpt><trkpt lat="43.38484176988158" lon="-3.7348698035535017"><ele>43.0</ele><time>2026-04-30T17:55:33.002Z</time></trkpt><trkpt lat="43.38481282515983" lon="-3.7349653405115477"><ele>43.0</ele><time>2026-04-30T17:55:34.002Z</time></trkpt><trkpt lat="43.38477837893682" lon="-3.7350666958499996"><ele>43.0</ele><time>2026-04-30T17:55:35.002Z</time></trkpt><trkpt lat="43.38474766268037" lon="-3.735168341471938"><ele>43.0</ele><time>2026-04-30T17:55:36.002Z</time></trkpt><trkpt lat="43.384727249144895" lon="-3.7352665406898824"><ele>43.0</ele><time>2026-04-30T17:55:37.002Z</time></trkpt><trkpt lat="43.384699641603596" lon="-3.735351192958173"><ele>45.8</ele><time>2026-04-30T17:55:38.002Z</time></trkpt><trkpt lat="43.384653206893105" lon="-3.735501029012678"><ele>48.599999999999994</ele><time>2026-04-30T17:55:40.002Z</time></trkpt><trkpt lat="43.384614271802015" lon="-3.7356272365673693"><ele>51.400000000000006</ele><time>2026-04-30T17:55:42Z</time></trkpt><trkpt lat="43.38458229244974" lon="-3.7357392037165624"><ele>54.2</ele><time>2026-04-30T17:55:44Z</time></trkpt><trkpt lat="43.384544008105344" lon="-3.7358644094122413"><ele>57.0</ele><time>2026-04-30T17:55:46Z</time></trkpt><trkpt lat="43.38449536497812" lon="-3.736007507407515"><ele>55.6</ele><time>2026-04-30T17:55:48Z</time></trkpt><trkpt lat="43.384452762877345" lon="-3.736173525266105"><ele>54.2</ele><time>2026-04-30T17:55:50Z</time></trkpt><trkpt lat="43.38443083122908" lon="-3.7362634864518443"><ele>52.8</ele><time>2026-04-30T17:55:51Z</time></trkpt><trkpt lat="43.384407093677424" lon="-3.736349139859153"><ele>51.4</ele><time>2026-04-30T17:55:52Z</time></trkpt><trkpt lat="43.384363040981825" lon="-3.7364969252393787"><ele>50.0</ele><time>2026-04-30T17:55:54Z</time></trkpt><trkpt lat="43.38431575186279" lon="-3.7366279289220308"><ele>50.0</ele><time>2026-04-30T17:55:56Z</time></trkpt><trkpt lat="43.38426088403811" lon="-3.736738028599246"><ele>50.0</ele><time>2026-04-30T17:55:58Z</time></trkpt><trkpt lat="43.384205155552394" lon="-3.7368590699057527"><ele>50.0</ele><time>2026-04-30T17:56:00Z</time></trkpt><trkpt lat="43.384134535919635" lon="-3.73699353404084"><ele>50.0</ele><time>2026-04-30T17:56:02Z</time></trkpt><trkpt lat="43.384062393646424" lon="-3.737120590910353"><ele>50.0</ele><time>2026-04-30T17:56:04Z</time></trkpt><trkpt lat="43.383980270672104" lon="-3.7372451124091883"><ele>49.57142857142858</ele><time>2026-04-30T17:56:06Z</time></trkpt><trkpt lat="43.383936265370494" lon="-3.737311805201588"><ele>49.142857142857146</ele><time>2026-04-30T17:56:07Z</time></trkpt><trkpt lat="43.3838952618388" lon="-3.7373815658316762"><ele>48.714285714285715</ele><time>2026-04-30T17:56:08Z</time></trkpt><trkpt lat="43.38385292723187" lon="-3.7374651881556926"><ele>48.28571428571429</ele><time>2026-04-30T17:56:09.001Z</time></trkpt><trkpt lat="43.38380954786445" lon="-3.73755371414861"><ele>47.857142857142854</ele><time>2026-04-30T17:56:10.001Z</time></trkpt><trkpt lat="43.383776146411634" lon="-3.7376503074996257"><ele>47.42857142857143</ele><time>2026-04-30T17:56:11.001Z</time></trkpt><trkpt lat="43.383747013925294" lon="-3.7377499418693843"><ele>47.0</ele><time>2026-04-30T17:56:12.001Z</time></trkpt><trkpt lat="43.38373763778895" lon="-3.7378634943006377"><ele>47.0</ele><time>2026-04-30T17:56:13.001Z</time></trkpt><trkpt lat="43.383738643329096" lon="-3.7379646210640396"><ele>47.0</ele><time>2026-04-30T17:56:14.001Z</time></trkpt><trkpt lat="43.38375786042516" lon="-3.7380649034520395"><ele>47.0</ele><time>2026-04-30T17:56:15.001Z</time></trkpt><trkpt lat="43.383780940529235" lon="-3.738175876090044"><ele>47.0</ele><time>2026-04-30T17:56:16.001Z</time></trkpt><trkpt lat="43.383809287949695" lon="-3.7382862032493036"><ele>47.0</ele><time>2026-04-30T17:56:17.001Z</time></trkpt><trkpt lat="43.38385248474417" lon="-3.7383933343545435"><ele>47.0</ele><time>2026-04-30T17:56:18.001Z</time></trkpt><trkpt lat="43.38389776280204" lon="-3.7384984362414286"><ele>47.400000000000006</ele><time>2026-04-30T17:56:19.001Z</time></trkpt><trkpt lat="43.38393861667577" lon="-3.738609852033637"><ele>47.800000000000004</ele><time>2026-04-30T17:56:20.001Z</time></trkpt><trkpt lat="43.383996426000515" lon="-3.7387141883628883"><ele>48.2</ele><time>2026-04-30T17:56:21.001Z</time></trkpt><trkpt lat="43.38403145010203" lon="-3.7388294627307825"><ele>48.6</ele><time>2026-04-30T17:56:22.001Z</time></trkpt><trkpt lat="43.384087258856006" lon="-3.7389337574260977"><ele>49.0</ele><time>2026-04-30T17:56:23.001Z</time></trkpt><trkpt lat="43.38413200513582" lon="-3.739047477234305"><ele>49.0</ele><time>2026-04-30T17:56:24.001Z</time></trkpt><trkpt lat="43.38418261172473" lon="-3.73915757562726"><ele>49.0</ele><time>2026-04-30T17:56:25.001Z</time></trkpt><trkpt lat="43.38423681724577" lon="-3.7392620528680367"><ele>49.0</ele><time>2026-04-30T17:56:26.001Z</time></trkpt><trkpt lat="43.38428867748852" lon="-3.7393695860271614"><ele>49.0</ele><time>2026-04-30T17:56:27.001Z</time></trkpt><trkpt lat="43.38433474652791" lon="-3.73948225690394"><ele>49.0</ele><time>2026-04-30T17:56:28.001Z</time></trkpt><trkpt lat="43.38438061846831" lon="-3.739595345626596"><ele>49.400000000000006</ele><time>2026-04-30T17:56:29.001Z</time></trkpt><trkpt lat="43.384429595816606" lon="-3.7397077324661683"><ele>49.8</ele><time>2026-04-30T17:56:30.001Z</time></trkpt><trkpt lat="43.38448407963195" lon="-3.7398108276388777"><ele>50.2</ele><time>2026-04-30T17:56:31.001Z</time></trkpt><trkpt lat="43.38453387403731" lon="-3.7399285904824247"><ele>50.599999999999994</ele><time>2026-04-30T17:56:32.001Z</time></trkpt><trkpt lat="43.3845770515007" lon="-3.740049224876243"><ele>51.0</ele><time>2026-04-30T17:56:33.001Z</time></trkpt><trkpt lat="43.38463097108277" lon="-3.7401686624310297"><ele>51.0</ele><time>2026-04-30T17:56:34.001Z</time></trkpt><trkpt lat="43.3846916443771" lon="-3.7402819826836797"><ele>51.0</ele><time>2026-04-30T17:56:35.001Z</time></trkpt><trkpt lat="43.38474886887651" lon="-3.7403972908084797"><ele>51.0</ele><time>2026-04-30T17:56:36.001Z</time></trkpt><trkpt lat="43.384805902156245" lon="-3.7405191386714622"><ele>51.0</ele><time>2026-04-30T17:56:37.001Z</time></trkpt><trkpt lat="43.38486106699767" lon="-3.740648549544749"><ele>51.0</ele><time>2026-04-30T17:56:38.001Z</time></trkpt><trkpt lat="43.38491714910082" lon="-3.7407716298252676"><ele>51.0</ele><time>2026-04-30T17:56:39.001Z</time></trkpt><trkpt lat="43.38497320606118" lon="-3.7408963703757574"><ele>51.0</ele><time>2026-04-30T17:56:40.001Z</time></trkpt><trkpt lat="43.38502816106826" lon="-3.741022457419025"><ele>51.0</ele><time>2026-04-30T17:56:41.001Z</time></trkpt><trkpt lat="43.385087606332235" lon="-3.741148510325253"><ele>51.0</ele><time>2026-04-30T17:56:42.001Z</time></trkpt><trkpt lat="43.385143091771496" lon="-3.741273256714675"><ele>51.0</ele><time>2026-04-30T17:56:43.001Z</time></trkpt><trkpt lat="43.385203192326784" lon="-3.7413921086601984"><ele>50.599999999999994</ele><time>2026-04-30T17:56:44.001Z</time></trkpt><trkpt lat="43.38525283186126" lon="-3.7415135240172126"><ele>50.2</ele><time>2026-04-30T17:56:45.001Z</time></trkpt><trkpt lat="43.38528763123251" lon="-3.7416176191053565"><ele>49.8</ele><time>2026-04-30T17:56:46.001Z</time></trkpt><trkpt lat="43.38537113278349" lon="-3.7417449389032873"><ele>49.400000000000006</ele><time>2026-04-30T17:56:47.001Z</time></trkpt><trkpt lat="43.38542671117213" lon="-3.7418621086905515"><ele>49.0</ele><time>2026-04-30T17:56:48.001Z</time></trkpt><trkpt lat="43.385475656633474" lon="-3.7419816700187387"><ele>51.0</ele><time>2026-04-30T17:56:49.001Z</time></trkpt><trkpt lat="43.38552457902485" lon="-3.742100509864899"><ele>53.0</ele><time>2026-04-30T17:56:50.001Z</time></trkpt><trkpt lat="43.38557193034115" lon="-3.7422193494882405"><ele>55.00000000000001</ele><time>2026-04-30T17:56:51.001Z</time></trkpt><trkpt lat="43.38561827170518" lon="-3.742333742721716"><ele>57.0</ele><time>2026-04-30T17:56:52.001Z</time></trkpt><trkpt lat="43.38567156990338" lon="-3.7424385758013674"><ele>59.0</ele><time>2026-04-30T17:56:53.001Z</time></trkpt><trkpt lat="43.385724597597346" lon="-3.74252408539452"><ele>59.00000000000001</ele><time>2026-04-30T17:56:54.001Z</time></trkpt><trkpt lat="43.38577355993117" lon="-3.7425948086882324"><ele>59.0</ele><time>2026-04-30T17:56:55.001Z</time></trkpt><trkpt lat="43.385839727794774" lon="-3.742684492814034"><ele>59.0</ele><time>2026-04-30T17:56:57.001Z</time></trkpt><trkpt lat="43.38591625311958" lon="-3.742696103379702"><ele>59.0</ele><time>2026-04-30T17:56:58.001Z</time></trkpt><trkpt lat="43.38602029517685" lon="-3.7428038000311252"><ele>59.00000000000001</ele><time>2026-04-30T17:57:00.001Z</time></trkpt><trkpt lat="43.38605193802566" lon="-3.742886110722512"><ele>59.0</ele><time>2026-04-30T17:57:01.001Z</time></trkpt><trkpt lat="43.38610770082949" lon="-3.7429390983483253"><ele>60.0</ele><time>2026-04-30T17:57:02.001Z</time></trkpt><trkpt lat="43.386086964069555" lon="-3.7430920553184643"><ele>61.00000000000001</ele><time>2026-04-30T17:57:03.001Z</time></trkpt><trkpt lat="43.386041287249945" lon="-3.743181086240607"><ele>62.00000000000001</ele><time>2026-04-30T17:57:04.001Z</time></trkpt><trkpt lat="43.38610079397375" lon="-3.7433106537800827"><ele>63.0</ele><time>2026-04-30T17:57:05.001Z</time></trkpt><trkpt lat="43.38612915115565" lon="-3.7434152978843134"><ele>64.0</ele><time>2026-04-30T17:57:06.001Z</time></trkpt><trkpt lat="43.3861680713107" lon="-3.743516831341372"><ele>64.2</ele><time>2026-04-30T17:57:07.001Z</time></trkpt><trkpt lat="43.38620978451102" lon="-3.743612902236763"><ele>64.4</ele><time>2026-04-30T17:57:08.001Z</time></trkpt><trkpt lat="43.38625961042717" lon="-3.7437291676824977"><ele>64.6</ele><time>2026-04-30T17:57:09.001Z</time></trkpt><trkpt lat="43.386307066366285" lon="-3.743842912524875"><ele>64.8</ele><time>2026-04-30T17:57:10.002Z</time></trkpt><trkpt lat="43.386361897786344" lon="-3.7439525316587057"><ele>65.0</ele><time>2026-04-30T17:57:11.002Z</time></trkpt><trkpt lat="43.38641555843692" lon="-3.7440685292737816"><ele>66.2</ele><time>2026-04-30T17:57:12.002Z</time></trkpt><trkpt lat="43.38646767269883" lon="-3.744185426067145"><ele>67.4</ele><time>2026-04-30T17:57:13.002Z</time></trkpt><trkpt lat="43.38652158722721" lon="-3.7443021563318237"><ele>68.6</ele><time>2026-04-30T17:57:14.002Z</time></trkpt><trkpt lat="43.386580197757674" lon="-3.7444181843036977"><ele>69.8</ele><time>2026-04-30T17:57:15.002Z</time></trkpt><trkpt lat="43.38661683172983" lon="-3.7445238426843583"><ele>71.0</ele><time>2026-04-30T17:57:16.002Z</time></trkpt><trkpt lat="43.38650999268285" lon="-3.7447233454119186"><ele>71.5</ele><time>2026-04-30T17:57:18.002Z</time></trkpt><trkpt lat="43.38635153216026" lon="-3.7447854366991207"><ele>72.0</ele><time>2026-04-30T17:57:19.002Z</time></trkpt><trkpt lat="43.38683625884859" lon="-3.7450189734946835"><ele>72.0</ele><time>2026-04-30T17:57:20.002Z</time></trkpt><trkpt lat="43.38688785866525" lon="-3.745140071894486"><ele>72.0</ele><time>2026-04-30T17:57:21.002Z</time></trkpt><trkpt lat="43.3869464528613" lon="-3.7452567916374244"><ele>72.0</ele><time>2026-04-30T17:57:22.002Z</time></trkpt><trkpt lat="43.38700306921803" lon="-3.7453741195075394"><ele>72.0</ele><time>2026-04-30T17:57:23.002Z</time></trkpt><trkpt lat="43.38705816517494" lon="-3.7454931545819274"><ele>72.0</ele><time>2026-04-30T17:57:24.002Z</time></trkpt><trkpt lat="43.387110426840344" lon="-3.7456135080139727"><ele>72.4</ele><time>2026-04-30T17:57:25.002Z</time></trkpt><trkpt lat="43.38716171246277" lon="-3.7457356613392303"><ele>72.80000000000001</ele><time>2026-04-30T17:57:26.002Z</time></trkpt><trkpt lat="43.387213160953216" lon="-3.7458558343255066"><ele>73.2</ele><time>2026-04-30T17:57:27.002Z</time></trkpt><trkpt lat="43.38726623120171" lon="-3.745979348041288"><ele>73.60000000000001</ele><time>2026-04-30T17:57:28.002Z</time></trkpt><trkpt lat="43.387320611117026" lon="-3.746100068373975"><ele>74.0</ele><time>2026-04-30T17:57:29.002Z</time></trkpt><trkpt lat="43.38737454004448" lon="-3.746221615328752"><ele>74.60000000000001</ele><time>2026-04-30T17:57:30.002Z</time></trkpt><trkpt lat="43.387435059159756" lon="-3.7463437324121776"><ele>75.2</ele><time>2026-04-30T17:57:31.002Z</time></trkpt><trkpt lat="43.38748921717832" lon="-3.7464677127397716"><ele>75.80000000000001</ele><time>2026-04-30T17:57:32.002Z</time></trkpt><trkpt lat="43.387547643630356" lon="-3.7465883729021106"><ele>76.4</ele><time>2026-04-30T17:57:33.002Z</time></trkpt><trkpt lat="43.38760458101986" lon="-3.7467106268705903"><ele>77.0</ele><time>2026-04-30T17:57:34.002Z</time></trkpt><trkpt lat="43.387656832309666" lon="-3.746833040992804"><ele>78.2</ele><time>2026-04-30T17:57:35.002Z</time></trkpt><trkpt lat="43.38771108667849" lon="-3.7469544043932923"><ele>79.4</ele><time>2026-04-30T17:57:36.002Z</time></trkpt><trkpt lat="43.38777127710283" lon="-3.7470688932997867"><ele>80.60000000000001</ele><time>2026-04-30T17:57:37.002Z</time></trkpt><trkpt lat="43.3878283182391" lon="-3.747183284630267"><ele>81.80000000000001</ele><time>2026-04-30T17:57:38.002Z</time></trkpt><trkpt lat="43.38789123711097" lon="-3.747298123314089"><ele>83.0</ele><time>2026-04-30T17:57:39.002Z</time></trkpt><trkpt lat="43.387964134536475" lon="-3.7474036726835847"><ele>82.80000000000001</ele><time>2026-04-30T17:57:40.002Z</time></trkpt><trkpt lat="43.388041194314816" lon="-3.747496927726897"><ele>82.6</ele><time>2026-04-30T17:57:41.002Z</time></trkpt><trkpt lat="43.388126914443134" lon="-3.747579529320744"><ele>82.4</ele><time>2026-04-30T17:57:42.002Z</time></trkpt><trkpt lat="43.388208020898155" lon="-3.7476398799360893"><ele>82.19999999999999</ele><time>2026-04-30T17:57:43.002Z</time></trkpt><trkpt lat="43.388288449896926" lon="-3.747690816251236"><ele>82.0</ele><time>2026-04-30T17:57:44.002Z</time></trkpt><trkpt lat="43.38837032473942" lon="-3.7477292403212834"><ele>82.0</ele><time>2026-04-30T17:57:45.002Z</time></trkpt><trkpt lat="43.388454555854366" lon="-3.7477480639717853"><ele>82.0</ele><time>2026-04-30T17:57:46.002Z</time></trkpt><trkpt lat="43.388545998030295" lon="-3.747732584882423"><ele>82.0</ele><time>2026-04-30T17:57:46.999Z</time></trkpt><trkpt lat="43.388634051989605" lon="-3.747672593004271"><ele>82.0</ele><time>2026-04-30T17:57:47.999Z</time></trkpt><trkpt lat="43.38869441112808" lon="-3.747569370521752"><ele>82.0</ele><time>2026-04-30T17:57:48.999Z</time></trkpt><trkpt lat="43.388777328370956" lon="-3.7475206084560284"><ele>81.0</ele><time>2026-04-30T17:57:49.999Z</time></trkpt><trkpt lat="43.38885923046067" lon="-3.747513509559572"><ele>80.0</ele><time>2026-04-30T17:57:50.999Z</time></trkpt><trkpt lat="43.388935136986326" lon="-3.747579531256922"><ele>79.0</ele><time>2026-04-30T17:57:52Z</time></trkpt><trkpt lat="43.388995956148925" lon="-3.747653887928993"><ele>78.0</ele><time>2026-04-30T17:57:52.999Z</time></trkpt><trkpt lat="43.3890189293658" lon="-3.747754425642614"><ele>77.0</ele><time>2026-04-30T17:57:54Z</time></trkpt><trkpt lat="43.389018077475946" lon="-3.747871526757583"><ele>76.0</ele><time>2026-04-30T17:57:55Z</time></trkpt><trkpt lat="43.38899964270878" lon="-3.7479806329816947"><ele>76.0</ele><time>2026-04-30T17:57:56Z</time></trkpt><trkpt lat="43.38895775150454" lon="-3.7480561653162177"><ele>76.0</ele><time>2026-04-30T17:57:57Z</time></trkpt><trkpt lat="43.388960586055816" lon="-3.7481755850595753"><ele>76.0</ele><time>2026-04-30T17:57:59Z</time></trkpt><trkpt lat="43.38886728739709" lon="-3.7480930366150393"><ele>76.0</ele><time>2026-04-30T17:58:02Z</time></trkpt><trkpt lat="43.388757635301495" lon="-3.748106446350133"><ele>76.0</ele><time>2026-04-30T17:58:07Z</time></trkpt><trkpt lat="43.38863544451762" lon="-3.74810644634893"><ele>75.6</ele><time>2026-04-30T17:58:09Z</time></trkpt><trkpt lat="43.38859312239274" lon="-3.7483184050366933"><ele>75.19999999999999</ele><time>2026-04-30T17:58:10Z</time></trkpt><trkpt lat="43.3885567784002" lon="-3.7484245274565806"><ele>74.80000000000001</ele><time>2026-04-30T17:58:11Z</time></trkpt><trkpt lat="43.38851682484657" lon="-3.748531992823587"><ele>74.4</ele><time>2026-04-30T17:58:12Z</time></trkpt><trkpt lat="43.38848806386333" lon="-3.7486547461458133"><ele>74.0</ele><time>2026-04-30T17:58:13Z</time></trkpt><trkpt lat="43.38845554044778" lon="-3.7487921758528"><ele>73.0</ele><time>2026-04-30T17:58:14Z</time></trkpt><trkpt lat="43.38842753549428" lon="-3.748918804694261"><ele>72.0</ele><time>2026-04-30T17:58:15Z</time></trkpt><trkpt lat="43.38840248362306" lon="-3.749060032243505"><ele>71.0</ele><time>2026-04-30T17:58:16Z</time></trkpt><trkpt lat="43.38838072341127" lon="-3.749203917489119"><ele>70.0</ele><time>2026-04-30T17:58:17Z</time></trkpt><trkpt lat="43.38836301473116" lon="-3.749359547105958"><ele>69.0</ele><time>2026-04-30T17:58:18Z</time></trkpt><trkpt lat="43.38834122914059" lon="-3.74950722234088"><ele>67.8</ele><time>2026-04-30T17:58:19Z</time></trkpt><trkpt lat="43.388320369692515" lon="-3.7496536194277463"><ele>66.60000000000001</ele><time>2026-04-30T17:58:20Z</time></trkpt><trkpt lat="43.38830304214656" lon="-3.7498017778955477"><ele>65.4</ele><time>2026-04-30T17:58:21Z</time></trkpt><trkpt lat="43.38828796930905" lon="-3.749954075191437"><ele>64.2</ele><time>2026-04-30T17:58:22Z</time></trkpt><trkpt lat="43.38827234838646" lon="-3.7501041211339454"><ele>63.0</ele><time>2026-04-30T17:58:23Z</time></trkpt><trkpt lat="43.388255777698205" lon="-3.7502580091683555"><ele>61.8</ele><time>2026-04-30T17:58:24Z</time></trkpt><trkpt lat="43.3882418934063" lon="-3.750408711291609"><ele>60.599999999999994</ele><time>2026-04-30T17:58:25Z</time></trkpt><trkpt lat="43.388227380223825" lon="-3.7505588192557284"><ele>59.400000000000006</ele><time>2026-04-30T17:58:26Z</time></trkpt><trkpt lat="43.38821368497863" lon="-3.750713616356323"><ele>58.2</ele><time>2026-04-30T17:58:27Z</time></trkpt><trkpt lat="43.38820270022382" lon="-3.750870368745417"><ele>57.0</ele><time>2026-04-30T17:58:28Z</time></trkpt><trkpt lat="43.388190123287956" lon="-3.7510329821045763"><ele>57.0</ele><time>2026-04-30T17:58:29Z</time></trkpt><trkpt lat="43.38818016829476" lon="-3.7511948164119504"><ele>57.0</ele><time>2026-04-30T17:58:30Z</time></trkpt><trkpt lat="43.38817017672041" lon="-3.751357915996083"><ele>57.0</ele><time>2026-04-30T17:58:31Z</time></trkpt><trkpt lat="43.38816389293418" lon="-3.751517422505362"><ele>57.0</ele><time>2026-04-30T17:58:32Z</time></trkpt><trkpt lat="43.38815701765947" lon="-3.751678943157156"><ele>57.0</ele><time>2026-04-30T17:58:33Z</time></trkpt><trkpt lat="43.3881532059213" lon="-3.751840052548045"><ele>57.0</ele><time>2026-04-30T17:58:34Z</time></trkpt><trkpt lat="43.3881514312496" lon="-3.7519960989310026"><ele>57.0</ele><time>2026-04-30T17:58:35Z</time></trkpt><trkpt lat="43.38814539317604" lon="-3.752148595942933"><ele>57.0</ele><time>2026-04-30T17:58:36Z</time></trkpt><trkpt lat="43.38814076483217" lon="-3.7522959725790512"><ele>57.0</ele><time>2026-04-30T17:58:37Z</time></trkpt><trkpt lat="43.38813685775376" lon="-3.752438784295319"><ele>57.5</ele><time>2026-04-30T17:58:38Z</time></trkpt><trkpt lat="43.38813192623625" lon="-3.7525814806369735"><ele>58.0</ele><time>2026-04-30T17:58:39Z</time></trkpt><trkpt lat="43.388136489162626" lon="-3.7527077270620213"><ele>58.5</ele><time>2026-04-30T17:58:40Z</time></trkpt><trkpt lat="43.38819548867174" lon="-3.753007402248863"><ele>59.0</ele><time>2026-04-30T17:58:42Z</time></trkpt><trkpt lat="43.388247080150634" lon="-3.7531429363722077"><ele>60.0</ele><time>2026-04-30T17:58:43.001Z</time></trkpt><trkpt lat="43.38831266978238" lon="-3.7532654495464293"><ele>61.00000000000001</ele><time>2026-04-30T17:58:44.001Z</time></trkpt><trkpt lat="43.38838613863943" lon="-3.7533828148597643"><ele>62.00000000000001</ele><time>2026-04-30T17:58:45.001Z</time></trkpt><trkpt lat="43.38847515161169" lon="-3.753480580742331"><ele>63.0</ele><time>2026-04-30T17:58:46.001Z</time></trkpt><trkpt lat="43.38857129049251" lon="-3.7535606233086414"><ele>64.0</ele><time>2026-04-30T17:58:47.001Z</time></trkpt><trkpt lat="43.388675689652295" lon="-3.7536250735448102"><ele>64.25</ele><time>2026-04-30T17:58:48.001Z</time></trkpt><trkpt lat="43.388789811549856" lon="-3.7536437788123904"><ele>64.5</ele><time>2026-04-30T17:58:49.001Z</time></trkpt><trkpt lat="43.38889302812582" lon="-3.7536983709897553"><ele>64.75</ele><time>2026-04-30T17:58:50.001Z</time></trkpt><trkpt lat="43.38900056266787" lon="-3.7537487801952296"><ele>65.0</ele><time>2026-04-30T17:58:51.001Z</time></trkpt><trkpt lat="43.38909896944636" lon="-3.7538252113986563"><ele>65.0</ele><time>2026-04-30T17:58:52.001Z</time></trkpt><trkpt lat="43.38918723391301" lon="-3.7539215927862326"><ele>65.0</ele><time>2026-04-30T17:58:53.001Z</time></trkpt><trkpt lat="43.38926789544016" lon="-3.754037801091474"><ele>65.0</ele><time>2026-04-30T17:58:54.001Z</time></trkpt><trkpt lat="43.3893358507491" lon="-3.754164446039403"><ele>65.0</ele><time>2026-04-30T17:58:55.001Z</time></trkpt><trkpt lat="43.38939105111037" lon="-3.7543061720635738"><ele>64.75</ele><time>2026-04-30T17:58:56.001Z</time></trkpt><trkpt lat="43.38942978069595" lon="-3.754457726872112"><ele>64.5</ele><time>2026-04-30T17:58:57.001Z</time></trkpt><trkpt lat="43.389453783563354" lon="-3.7546165445132464"><ele>64.25</ele><time>2026-04-30T17:58:58.001Z</time></trkpt><trkpt lat="43.38946858727786" lon="-3.7547756653134"><ele>64.0</ele><time>2026-04-30T17:58:59.001Z</time></trkpt><trkpt lat="43.38947927625353" lon="-3.7549343858213313"><ele>64.0</ele><time>2026-04-30T17:59:00.001Z</time></trkpt><trkpt lat="43.38949355742321" lon="-3.7550938726760634"><ele>64.0</ele><time>2026-04-30T17:59:01.001Z</time></trkpt><trkpt lat="43.389502884860406" lon="-3.7552591753247158"><ele>64.0</ele><time>2026-04-30T17:59:02.001Z</time></trkpt><trkpt lat="43.389521455424024" lon="-3.755416905946679"><ele>64.0</ele><time>2026-04-30T17:59:03.001Z</time></trkpt><trkpt lat="43.3895409639351" lon="-3.7555758779759234"><ele>61.5</ele><time>2026-04-30T17:59:04.001Z</time></trkpt><trkpt lat="43.38954880677036" lon="-3.7557385164866584"><ele>59.0</ele><time>2026-04-30T17:59:05.001Z</time></trkpt><trkpt lat="43.38955968057058" lon="-3.7558942873693293"><ele>56.5</ele><time>2026-04-30T17:59:06.001Z</time></trkpt><trkpt lat="43.38957210263682" lon="-3.7560547906210657"><ele>54.0</ele><time>2026-04-30T17:59:07.001Z</time></trkpt><trkpt lat="43.38958674730739" lon="-3.7562158506146286"><ele>53.0</ele><time>2026-04-30T17:59:08.001Z</time></trkpt><trkpt lat="43.38959460462255" lon="-3.7563667828794416"><ele>52.0</ele><time>2026-04-30T17:59:09.001Z</time></trkpt><trkpt lat="43.389584049428585" lon="-3.756527681493482"><ele>51.0</ele><time>2026-04-30T17:59:10.001Z</time></trkpt><trkpt lat="43.389575792830136" lon="-3.7566866583459477"><ele>50.0</ele><time>2026-04-30T17:59:11.001Z</time></trkpt><trkpt lat="43.38955915813418" lon="-3.7568435237998057"><ele>49.25</ele><time>2026-04-30T17:59:12.001Z</time></trkpt><trkpt lat="43.389550180120295" lon="-3.757001957110456"><ele>48.5</ele><time>2026-04-30T17:59:13.001Z</time></trkpt><trkpt lat="43.38952561259969" lon="-3.7571601172316007"><ele>47.75</ele><time>2026-04-30T17:59:14.001Z</time></trkpt><trkpt lat="43.38950628924188" lon="-3.7573173332621836"><ele>47.0</ele><time>2026-04-30T17:59:15.001Z</time></trkpt><trkpt lat="43.389487471912176" lon="-3.7574743507151083"><ele>47.0</ele><time>2026-04-30T17:59:16.001Z</time></trkpt><trkpt lat="43.38946592416903" lon="-3.7576289683552133"><ele>47.0</ele><time>2026-04-30T17:59:17.001Z</time></trkpt><trkpt lat="43.389446833245735" lon="-3.7577890197025807"><ele>47.0</ele><time>2026-04-30T17:59:18.001Z</time></trkpt><trkpt lat="43.389423804935845" lon="-3.757943265430257"><ele>47.0</ele><time>2026-04-30T17:59:19.001Z</time></trkpt><trkpt lat="43.38940508631529" lon="-3.758103202972336"><ele>46.25</ele><time>2026-04-30T17:59:20.001Z</time></trkpt><trkpt lat="43.38938582513709" lon="-3.7582622349896444"><ele>45.5</ele><time>2026-04-30T17:59:21.001Z</time></trkpt><trkpt lat="43.389365035558455" lon="-3.7584213343913495"><ele>44.75</ele><time>2026-04-30T17:59:22.001Z</time></trkpt><trkpt lat="43.38934559984299" lon="-3.758580412804699"><ele>44.0</ele><time>2026-04-30T17:59:23.001Z</time></trkpt><trkpt lat="43.389321282138795" lon="-3.7587354817098153"><ele>43.0</ele><time>2026-04-30T17:59:24.001Z</time></trkpt><trkpt lat="43.389299417976" lon="-3.7588886851177326"><ele>42.0</ele><time>2026-04-30T17:59:25.001Z</time></trkpt><trkpt lat="43.38928064563635" lon="-3.759045498305532"><ele>41.0</ele><time>2026-04-30T17:59:26.001Z</time></trkpt><trkpt lat="43.38925963952091" lon="-3.7592008747300265"><ele>40.0</ele><time>2026-04-30T17:59:27.001Z</time></trkpt><trkpt lat="43.38926811630638" lon="-3.7593654281227415"><ele>39.25</ele><time>2026-04-30T17:59:28.001Z</time></trkpt><trkpt lat="43.389274821857775" lon="-3.7595259466819626"><ele>38.5</ele><time>2026-04-30T17:59:29.001Z</time></trkpt><trkpt lat="43.38929777816186" lon="-3.759684566274524"><ele>37.75</ele><time>2026-04-30T17:59:30.001Z</time></trkpt><trkpt lat="43.38933335877728" lon="-3.759841748554867"><ele>37.0</ele><time>2026-04-30T17:59:31.001Z</time></trkpt><trkpt lat="43.38938503328323" lon="-3.7599854529721983"><ele>37.0</ele><time>2026-04-30T17:59:32.001Z</time></trkpt><trkpt lat="43.38944465822106" lon="-3.760122230261371"><ele>37.0</ele><time>2026-04-30T17:59:33.001Z</time></trkpt><trkpt lat="43.389515847358396" lon="-3.760252219892383"><ele>37.0</ele><time>2026-04-30T17:59:34.001Z</time></trkpt><trkpt lat="43.389590420546284" lon="-3.760373243174206"><ele>37.0</ele><time>2026-04-30T17:59:35.001Z</time></trkpt><trkpt lat="43.38967558408687" lon="-3.760482920897938"><ele>37.5</ele><time>2026-04-30T17:59:36.001Z</time></trkpt><trkpt lat="43.38976348916222" lon="-3.76058938913816"><ele>38.0</ele><time>2026-04-30T17:59:37.002Z</time></trkpt><trkpt lat="43.38985720006364" lon="-3.760691916618464"><ele>38.5</ele><time>2026-04-30T17:59:38.002Z</time></trkpt><trkpt lat="43.3899498228433" lon="-3.760790815596775"><ele>39.0</ele><time>2026-04-30T17:59:39.002Z</time></trkpt><trkpt lat="43.39004157577157" lon="-3.760892430386391"><ele>39.0</ele><time>2026-04-30T17:59:40.002Z</time></trkpt><trkpt lat="43.390134483942106" lon="-3.7609999093406707"><ele>39.0</ele><time>2026-04-30T17:59:41.002Z</time></trkpt><trkpt lat="43.39022285315394" lon="-3.761097361542327"><ele>39.0</ele><time>2026-04-30T17:59:42.002Z</time></trkpt><trkpt lat="43.39031832976558" lon="-3.761195585351612"><ele>39.0</ele><time>2026-04-30T17:59:43.002Z</time></trkpt><trkpt lat="43.39040992786486" lon="-3.761294773052784"><ele>37.75</ele><time>2026-04-30T17:59:44.002Z</time></trkpt><trkpt lat="43.3905034836826" lon="-3.761392248961709"><ele>36.5</ele><time>2026-04-30T17:59:45.002Z</time></trkpt><trkpt lat="43.39059659129849" lon="-3.7614838718399835"><ele>35.25</ele><time>2026-04-30T17:59:46.002Z</time></trkpt><trkpt lat="43.39068673734266" lon="-3.761589594891321"><ele>34.0</ele><time>2026-04-30T17:59:47.002Z</time></trkpt><trkpt lat="43.39078020706113" lon="-3.761692028725522"><ele>34.0</ele><time>2026-04-30T17:59:48.002Z</time></trkpt><trkpt lat="43.390873921080384" lon="-3.761793565711103"><ele>34.0</ele><time>2026-04-30T17:59:49.002Z</time></trkpt><trkpt lat="43.390964695164286" lon="-3.7618928721271034"><ele>34.0</ele><time>2026-04-30T17:59:50.002Z</time></trkpt><trkpt lat="43.39105587272066" lon="-3.762001943340691"><ele>34.0</ele><time>2026-04-30T17:59:51.002Z</time></trkpt><trkpt lat="43.39115341068893" lon="-3.7621043516437203"><ele>32.5</ele><time>2026-04-30T17:59:52.002Z</time></trkpt><trkpt lat="43.39124421594474" lon="-3.7622093448764287"><ele>31.0</ele><time>2026-04-30T17:59:53Z</time></trkpt><trkpt lat="43.39133762632152" lon="-3.7623133398816524"><ele>29.5</ele><time>2026-04-30T17:59:54Z</time></trkpt><trkpt lat="43.39143288912258" lon="-3.7624149270959237"><ele>28.0</ele><time>2026-04-30T17:59:55Z</time></trkpt><trkpt lat="43.39152695705908" lon="-3.7625190075423784"><ele>27.5</ele><time>2026-04-30T17:59:56Z</time></trkpt><trkpt lat="43.39162089357846" lon="-3.76262028517507"><ele>27.0</ele><time>2026-04-30T17:59:57Z</time></trkpt><trkpt lat="43.39171762559914" lon="-3.762723621798543"><ele>26.5</ele><time>2026-04-30T17:59:58Z</time></trkpt><trkpt lat="43.391813622268266" lon="-3.762823824886139"><ele>26.0</ele><time>2026-04-30T17:59:59Z</time></trkpt><trkpt lat="43.39190675281073" lon="-3.7629164723871953"><ele>26.0</ele><time>2026-04-30T18:00:00Z</time></trkpt><trkpt lat="43.391996858170394" lon="-3.7630173764761863"><ele>26.0</ele><time>2026-04-30T18:00:01Z</time></trkpt><trkpt lat="43.39209058224578" lon="-3.763109539386129"><ele>26.0</ele><time>2026-04-30T18:00:02Z</time></trkpt><trkpt lat="43.39218269463518" lon="-3.7632063235742343"><ele>26.0</ele><time>2026-04-30T18:00:03Z</time></trkpt><trkpt lat="43.39227163811778" lon="-3.763298175803394"><ele>25.200000000000003</ele><time>2026-04-30T18:00:04Z</time></trkpt><trkpt lat="43.392358415177114" lon="-3.7633958532438"><ele>24.400000000000002</ele><time>2026-04-30T18:00:05Z</time></trkpt><trkpt lat="43.39244966041201" lon="-3.7634906602524576"><ele>23.6</ele><time>2026-04-30T18:00:06Z</time></trkpt><trkpt lat="43.3925373685238" lon="-3.7635805644508276"><ele>22.8</ele><time>2026-04-30T18:00:07Z</time></trkpt><trkpt lat="43.39262962412375" lon="-3.763669380295649"><ele>22.0</ele><time>2026-04-30T18:00:08Z</time></trkpt><trkpt lat="43.39272411308268" lon="-3.763748717894784"><ele>22.0</ele><time>2026-04-30T18:00:09Z</time></trkpt><trkpt lat="43.39282342519744" lon="-3.7638164759113146"><ele>22.0</ele><time>2026-04-30T18:00:10Z</time></trkpt><trkpt lat="43.39292522354864" lon="-3.7638727075348233"><ele>22.0</ele><time>2026-04-30T18:00:11Z</time></trkpt><trkpt lat="43.393024644162814" lon="-3.7639178537276927"><ele>22.0</ele><time>2026-04-30T18:00:12Z</time></trkpt><trkpt lat="43.39313036121553" lon="-3.7639599580415317"><ele>22.0</ele><time>2026-04-30T18:00:13Z</time></trkpt><trkpt lat="43.393238436208954" lon="-3.7639905057093266"><ele>23.0</ele><time>2026-04-30T18:00:14Z</time></trkpt><trkpt lat="43.393340963598426" lon="-3.7640160087257"><ele>24.0</ele><time>2026-04-30T18:00:15Z</time></trkpt><trkpt lat="43.39344681813446" lon="-3.764027685978326"><ele>25.000000000000004</ele><time>2026-04-30T18:00:16Z</time></trkpt><trkpt lat="43.39355376796785" lon="-3.7640332883722083"><ele>26.0</ele><time>2026-04-30T18:00:17Z</time></trkpt><trkpt lat="43.39365510433311" lon="-3.7640318480839605"><ele>27.0</ele><time>2026-04-30T18:00:18Z</time></trkpt><trkpt lat="43.39375138725386" lon="-3.7640221478762212"><ele>27.8</ele><time>2026-04-30T18:00:19Z</time></trkpt><trkpt lat="43.39384933537942" lon="-3.764023118528888"><ele>28.6</ele><time>2026-04-30T18:00:20Z</time></trkpt><trkpt lat="43.39395083834308" lon="-3.764033287912079"><ele>29.400000000000002</ele><time>2026-04-30T18:00:21Z</time></trkpt><trkpt lat="43.394054137085185" lon="-3.7640300641077626"><ele>30.200000000000003</ele><time>2026-04-30T18:00:22Z</time></trkpt><trkpt lat="43.39415150140526" lon="-3.7640127659830713"><ele>31.0</ele><time>2026-04-30T18:00:23Z</time></trkpt><trkpt lat="43.39424923470021" lon="-3.7640074490770252"><ele>31.0</ele><time>2026-04-30T18:00:24Z</time></trkpt><trkpt lat="43.39435308303986" lon="-3.76400396699189"><ele>31.0</ele><time>2026-04-30T18:00:25Z</time></trkpt><trkpt lat="43.39444907488571" lon="-3.7639518400719836"><ele>31.0</ele><time>2026-04-30T18:00:26Z</time></trkpt><trkpt lat="43.39454037233285" lon="-3.763892302844194"><ele>31.0</ele><time>2026-04-30T18:00:27Z</time></trkpt><trkpt lat="43.394633930079216" lon="-3.7638369576024644"><ele>31.0</ele><time>2026-04-30T18:00:28Z</time></trkpt><trkpt lat="43.39471924862133" lon="-3.763783570209099"><ele>32.8</ele><time>2026-04-30T18:00:29Z</time></trkpt><trkpt lat="43.3948097395742" lon="-3.7637265609480908"><ele>34.6</ele><time>2026-04-30T18:00:30Z</time></trkpt><trkpt lat="43.394901911448414" lon="-3.7636706254161916"><ele>36.4</ele><time>2026-04-30T18:00:31Z</time></trkpt><trkpt lat="43.39499659377551" lon="-3.7636421899828787"><ele>38.2</ele><time>2026-04-30T18:00:32Z</time></trkpt><trkpt lat="43.39508563125104" lon="-3.763593138593761"><ele>40.0</ele><time>2026-04-30T18:00:33Z</time></trkpt><trkpt lat="43.39517279448354" lon="-3.763547822690585"><ele>40.0</ele><time>2026-04-30T18:00:34Z</time></trkpt><trkpt lat="43.39527209239107" lon="-3.763538707057438"><ele>40.0</ele><time>2026-04-30T18:00:35Z</time></trkpt><trkpt lat="43.395370872138045" lon="-3.7635412996738533"><ele>40.0</ele><time>2026-04-30T18:00:36.001Z</time></trkpt><trkpt lat="43.39546798598157" lon="-3.763553164890851"><ele>40.0</ele><time>2026-04-30T18:00:37.001Z</time></trkpt><trkpt lat="43.395560108081334" lon="-3.763591031729533"><ele>40.0</ele><time>2026-04-30T18:00:38.001Z</time></trkpt><trkpt lat="43.39565180014953" lon="-3.7636369510631695"><ele>40.4</ele><time>2026-04-30T18:00:39.001Z</time></trkpt><trkpt lat="43.395744749757725" lon="-3.763703747574264"><ele>40.8</ele><time>2026-04-30T18:00:40.001Z</time></trkpt><trkpt lat="43.39582897890661" lon="-3.7637822826064946"><ele>41.2</ele><time>2026-04-30T18:00:41.001Z</time></trkpt><trkpt lat="43.39591184751493" lon="-3.7638707605813515"><ele>41.6</ele><time>2026-04-30T18:00:42.001Z</time></trkpt><trkpt lat="43.395987182729314" lon="-3.763970941892387"><ele>42.0</ele><time>2026-04-30T18:00:43.001Z</time></trkpt><trkpt lat="43.396058151703286" lon="-3.764068225425187"><ele>42.0</ele><time>2026-04-30T18:00:44.001Z</time></trkpt><trkpt lat="43.39612511053705" lon="-3.764165180262217"><ele>42.0</ele><time>2026-04-30T18:00:45.001Z</time></trkpt><trkpt lat="43.39618509105475" lon="-3.764274987586906"><ele>42.0</ele><time>2026-04-30T18:00:46.001Z</time></trkpt><trkpt lat="43.39623627656384" lon="-3.7643890380068643"><ele>42.0</ele><time>2026-04-30T18:00:47.001Z</time></trkpt><trkpt lat="43.396275071976326" lon="-3.7645111962755795"><ele>42.0</ele><time>2026-04-30T18:00:48.001Z</time></trkpt><trkpt lat="43.396292296798954" lon="-3.7646548441392467"><ele>42.333333333333336</ele><time>2026-04-30T18:00:49.001Z</time></trkpt><trkpt lat="43.396300976676066" lon="-3.7647778057790298"><ele>42.666666666666664</ele><time>2026-04-30T18:00:50.001Z</time></trkpt><trkpt lat="43.396311226387795" lon="-3.7648947160888735"><ele>43.0</ele><time>2026-04-30T18:00:51.001Z</time></trkpt><trkpt lat="43.39631580184513" lon="-3.7650017111022134"><ele>43.33333333333333</ele><time>2026-04-30T18:00:52.001Z</time></trkpt><trkpt lat="43.39631531664166" lon="-3.7651055405868705"><ele>43.666666666666664</ele><time>2026-04-30T18:00:53.001Z</time></trkpt><trkpt lat="43.3963313383747" lon="-3.765212937991719"><ele>44.0</ele><time>2026-04-30T18:00:54.001Z</time></trkpt><trkpt lat="43.39633667112844" lon="-3.7653203566188593"><ele>44.0</ele><time>2026-04-30T18:00:55.001Z</time></trkpt><trkpt lat="43.396346315871746" lon="-3.765439470218189"><ele>44.0</ele><time>2026-04-30T18:00:56.001Z</time></trkpt><trkpt lat="43.39635206330305" lon="-3.765556222269579"><ele>44.0</ele><time>2026-04-30T18:00:57.001Z</time></trkpt><trkpt lat="43.39636086093065" lon="-3.765677004207248"><ele>44.0</ele><time>2026-04-30T18:00:58.001Z</time></trkpt><trkpt lat="43.39636669309336" lon="-3.76580183647038"><ele>44.0</ele><time>2026-04-30T18:00:59.001Z</time></trkpt><trkpt lat="43.39637617614659" lon="-3.765938582158417"><ele>42.800000000000004</ele><time>2026-04-30T18:01:00.001Z</time></trkpt><trkpt lat="43.39638189061147" lon="-3.7660810621271272"><ele>41.6</ele><time>2026-04-30T18:01:01.001Z</time></trkpt><trkpt lat="43.39638964716389" lon="-3.7662219202945524"><ele>40.4</ele><time>2026-04-30T18:01:02.001Z</time></trkpt><trkpt lat="43.39640082363297" lon="-3.7663707259988155"><ele>39.2</ele><time>2026-04-30T18:01:03.001Z</time></trkpt><trkpt lat="43.39641154397083" lon="-3.766532636058157"><ele>38.0</ele><time>2026-04-30T18:01:04.001Z</time></trkpt><trkpt lat="43.396420348637456" lon="-3.76668765563488"><ele>38.0</ele><time>2026-04-30T18:01:05.001Z</time></trkpt><trkpt lat="43.39643016458637" lon="-3.766840359194507"><ele>38.0</ele><time>2026-04-30T18:01:06.001Z</time></trkpt><trkpt lat="43.39644169520725" lon="-3.766995816810432"><ele>38.0</ele><time>2026-04-30T18:01:07.001Z</time></trkpt><trkpt lat="43.396449831315415" lon="-3.7671492822051564"><ele>38.0</ele><time>2026-04-30T18:01:08.001Z</time></trkpt><trkpt lat="43.396462035623124" lon="-3.7673036938266855"><ele>36.75</ele><time>2026-04-30T18:01:09.001Z</time></trkpt><trkpt lat="43.39647199323255" lon="-3.767459378650178"><ele>35.5</ele><time>2026-04-30T18:01:10.001Z</time></trkpt><trkpt lat="43.396482274390685" lon="-3.7676132450454016"><ele>34.25</ele><time>2026-04-30T18:01:11.001Z</time></trkpt><trkpt lat="43.3964943518391" lon="-3.767772380838336"><ele>33.0</ele><time>2026-04-30T18:01:12.001Z</time></trkpt><trkpt lat="43.39650646018823" lon="-3.7679289154880387"><ele>33.0</ele><time>2026-04-30T18:01:13.001Z</time></trkpt><trkpt lat="43.3965154897137" lon="-3.7680828502362758"><ele>33.0</ele><time>2026-04-30T18:01:14.001Z</time></trkpt><trkpt lat="43.396523975151176" lon="-3.7682414981935883"><ele>33.0</ele><time>2026-04-30T18:01:15.001Z</time></trkpt><trkpt lat="43.396537151709616" lon="-3.768396185819522"><ele>33.0</ele><time>2026-04-30T18:01:16.001Z</time></trkpt><trkpt lat="43.396556074986435" lon="-3.768550011349486"><ele>33.0</ele><time>2026-04-30T18:01:17.001Z</time></trkpt><trkpt lat="43.39657972817178" lon="-3.76870001286098"><ele>33.0</ele><time>2026-04-30T18:01:18.001Z</time></trkpt><trkpt lat="43.39660517572823" lon="-3.768852209246275"><ele>33.0</ele><time>2026-04-30T18:01:19.001Z</time></trkpt><trkpt lat="43.39663283175651" lon="-3.7690051217986262"><ele>33.0</ele><time>2026-04-30T18:01:20.001Z</time></trkpt><trkpt lat="43.39666510403063" lon="-3.7691535752883176"><ele>33.0</ele><time>2026-04-30T18:01:21.001Z</time></trkpt><trkpt lat="43.39669635982101" lon="-3.769303135311374"><ele>33.0</ele><time>2026-04-30T18:01:22.001Z</time></trkpt><trkpt lat="43.396725451471426" lon="-3.7694531385732235"><ele>33.0</ele><time>2026-04-30T18:01:23.001Z</time></trkpt><trkpt lat="43.39676130918551" lon="-3.7695975222321945"><ele>33.0</ele><time>2026-04-30T18:01:24.001Z</time></trkpt><trkpt lat="43.396794327740665" lon="-3.7697529844763102"><ele>34.0</ele><time>2026-04-30T18:01:25.001Z</time></trkpt><trkpt lat="43.39683157550955" lon="-3.7699054201993025"><ele>35.0</ele><time>2026-04-30T18:01:26.001Z</time></trkpt><trkpt lat="43.396864921009595" lon="-3.7700541264266794"><ele>36.0</ele><time>2026-04-30T18:01:27.001Z</time></trkpt><trkpt lat="43.396903988208386" lon="-3.770203066367978"><ele>37.0</ele><time>2026-04-30T18:01:28.002Z</time></trkpt><trkpt lat="43.39694514994574" lon="-3.770349033455541"><ele>37.5</ele><time>2026-04-30T18:01:29.002Z</time></trkpt><trkpt lat="43.396990825393345" lon="-3.7704963124354243"><ele>38.0</ele><time>2026-04-30T18:01:30.002Z</time></trkpt><trkpt lat="43.39704640101504" lon="-3.770632314755641"><ele>38.5</ele><time>2026-04-30T18:01:31.002Z</time></trkpt><trkpt lat="43.397096180231756" lon="-3.770776152805746"><ele>39.0</ele><time>2026-04-30T18:01:32.002Z</time></trkpt><trkpt lat="43.39714868247331" lon="-3.7709215181913485"><ele>35.25</ele><time>2026-04-30T18:01:33.002Z</time></trkpt><trkpt lat="43.397199604233556" lon="-3.771061651876228"><ele>31.5</ele><time>2026-04-30T18:01:34.002Z</time></trkpt><trkpt lat="43.39724988538538" lon="-3.771208488061554"><ele>27.75</ele><time>2026-04-30T18:01:35.002Z</time></trkpt><trkpt lat="43.39730213063151" lon="-3.7713502763690117"><ele>24.0</ele><time>2026-04-30T18:01:36.002Z</time></trkpt><trkpt lat="43.397353456368684" lon="-3.7714857850835366"><ele>24.0</ele><time>2026-04-30T18:01:37.002Z</time></trkpt><trkpt lat="43.3974049647941" lon="-3.771640040963311"><ele>24.0</ele><time>2026-04-30T18:01:38.002Z</time></trkpt><trkpt lat="43.397457531526065" lon="-3.771780317947076"><ele>24.0</ele><time>2026-04-30T18:01:39.002Z</time></trkpt><trkpt lat="43.39750889626503" lon="-3.7719240439031956"><ele>24.0</ele><time>2026-04-30T18:01:40.002Z</time></trkpt><trkpt lat="43.397561029215346" lon="-3.772064740887412"><ele>24.75</ele><time>2026-04-30T18:01:41.002Z</time></trkpt><trkpt lat="43.39761161871459" lon="-3.772207317567324"><ele>25.5</ele><time>2026-04-30T18:01:42.002Z</time></trkpt><trkpt lat="43.397664412221296" lon="-3.7723484549121076"><ele>26.25</ele><time>2026-04-30T18:01:43.002Z</time></trkpt><trkpt lat="43.397716110361756" lon="-3.7724897701875086"><ele>27.0</ele><time>2026-04-30T18:01:44.002Z</time></trkpt><trkpt lat="43.39776698381735" lon="-3.772629106117012"><ele>27.5</ele><time>2026-04-30T18:01:45.002Z</time></trkpt><trkpt lat="43.397816402188" lon="-3.772772701286007"><ele>28.0</ele><time>2026-04-30T18:01:46.002Z</time></trkpt><trkpt lat="43.39786844013704" lon="-3.772911424597742"><ele>28.5</ele><time>2026-04-30T18:01:47.002Z</time></trkpt><trkpt lat="43.397919376090734" lon="-3.7730505677139523"><ele>29.0</ele><time>2026-04-30T18:01:48.002Z</time></trkpt><trkpt lat="43.397969291053656" lon="-3.77318948095817"><ele>28.0</ele><time>2026-04-30T18:01:49.002Z</time></trkpt><trkpt lat="43.39801889778852" lon="-3.7733278563910657"><ele>27.0</ele><time>2026-04-30T18:01:50.002Z</time></trkpt><trkpt lat="43.398069487612766" lon="-3.773469221513268"><ele>26.0</ele><time>2026-04-30T18:01:51.002Z</time></trkpt><trkpt lat="43.398119525093904" lon="-3.7736087382163324"><ele>25.0</ele><time>2026-04-30T18:01:52.002Z</time></trkpt><trkpt lat="43.3981680411098" lon="-3.773746462456044"><ele>25.0</ele><time>2026-04-30T18:01:53.002Z</time></trkpt><trkpt lat="43.39821481804249" lon="-3.7738918710937823"><ele>25.0</ele><time>2026-04-30T18:01:54.002Z</time></trkpt><trkpt lat="43.39825792829814" lon="-3.774034203433099"><ele>25.0</ele><time>2026-04-30T18:01:55.002Z</time></trkpt><trkpt lat="43.39830430671947" lon="-3.774181021690516"><ele>25.0</ele><time>2026-04-30T18:01:56.002Z</time></trkpt><trkpt lat="43.39834599387161" lon="-3.7743381472340145"><ele>24.5</ele><time>2026-04-30T18:01:57.002Z</time></trkpt><trkpt lat="43.3983890773023" lon="-3.77449084374335"><ele>24.0</ele><time>2026-04-30T18:01:58.002Z</time></trkpt><trkpt lat="43.39842753570049" lon="-3.774647507095167"><ele>23.5</ele><time>2026-04-30T18:01:59Z</time></trkpt><trkpt lat="43.39846053951912" lon="-3.77480597805158"><ele>23.0</ele><time>2026-04-30T18:02:00Z</time></trkpt><trkpt lat="43.39849592555684" lon="-3.7749626613608953"><ele>23.0</ele><time>2026-04-30T18:02:01Z</time></trkpt><trkpt lat="43.398525912632756" lon="-3.7751175557080785"><ele>23.0</ele><time>2026-04-30T18:02:02Z</time></trkpt><trkpt lat="43.39855304847474" lon="-3.775284900855891"><ele>23.0</ele><time>2026-04-30T18:02:03Z</time></trkpt><trkpt lat="43.39857687823463" lon="-3.7754426333889346"><ele>23.0</ele><time>2026-04-30T18:02:04Z</time></trkpt><trkpt lat="43.39860381561356" lon="-3.7756053637501763"><ele>21.5</ele><time>2026-04-30T18:02:05Z</time></trkpt><trkpt lat="43.39862460786959" lon="-3.775767758407861"><ele>20.0</ele><time>2026-04-30T18:02:06Z</time></trkpt><trkpt lat="43.398644147244376" lon="-3.7759326779877154"><ele>18.5</ele><time>2026-04-30T18:02:07Z</time></trkpt><trkpt lat="43.39865774490232" lon="-3.7760969164300366"><ele>17.0</ele><time>2026-04-30T18:02:08Z</time></trkpt><trkpt lat="43.39867217683527" lon="-3.77626380078769"><ele>15.25</ele><time>2026-04-30T18:02:09Z</time></trkpt><trkpt lat="43.39868425536562" lon="-3.77643495717012"><ele>13.5</ele><time>2026-04-30T18:02:10Z</time></trkpt><trkpt lat="43.39869404914985" lon="-3.7765967358848678"><ele>11.75</ele><time>2026-04-30T18:02:11Z</time></trkpt><trkpt lat="43.39869852786493" lon="-3.776765839120242"><ele>10.0</ele><time>2026-04-30T18:02:12Z</time></trkpt><trkpt lat="43.398699725872845" lon="-3.7769378457032103"><ele>9.0</ele><time>2026-04-30T18:02:13Z</time></trkpt><trkpt lat="43.39870189692909" lon="-3.7771023758011517"><ele>8.0</ele><time>2026-04-30T18:02:14Z</time></trkpt><trkpt lat="43.398700096188335" lon="-3.777272329712946"><ele>7.0</ele><time>2026-04-30T18:02:15Z</time></trkpt><trkpt lat="43.39869314193788" lon="-3.777442469324849"><ele>6.0</ele><time>2026-04-30T18:02:16Z</time></trkpt><trkpt lat="43.398682666491624" lon="-3.777613890500402"><ele>6.25</ele><time>2026-04-30T18:02:17Z</time></trkpt><trkpt lat="43.39866934992208" lon="-3.777783874399809"><ele>6.5</ele><time>2026-04-30T18:02:18Z</time></trkpt><trkpt lat="43.39865782891465" lon="-3.777953069420873"><ele>6.75</ele><time>2026-04-30T18:02:19Z</time></trkpt><trkpt lat="43.39864354996572" lon="-3.778118651499156"><ele>7.0</ele><time>2026-04-30T18:02:20Z</time></trkpt><trkpt lat="43.39862278370798" lon="-3.778287266933483"><ele>7.0</ele><time>2026-04-30T18:02:21Z</time></trkpt><trkpt lat="43.39859924899556" lon="-3.778455619217243"><ele>7.0</ele><time>2026-04-30T18:02:22Z</time></trkpt><trkpt lat="43.398576181138175" lon="-3.7786175307983045"><ele>7.0</ele><time>2026-04-30T18:02:23Z</time></trkpt><trkpt lat="43.39855361587875" lon="-3.778775218131111"><ele>7.0</ele><time>2026-04-30T18:02:24Z</time></trkpt><trkpt lat="43.3985251561068" lon="-3.778929824343746"><ele>7.25</ele><time>2026-04-30T18:02:25Z</time></trkpt><trkpt lat="43.398496460901924" lon="-3.779081488593536"><ele>7.5</ele><time>2026-04-30T18:02:26Z</time></trkpt><trkpt lat="43.398467389266074" lon="-3.7792336117643415"><ele>7.75</ele><time>2026-04-30T18:02:27Z</time></trkpt><trkpt lat="43.398436535342455" lon="-3.7793836684235655"><ele>8.0</ele><time>2026-04-30T18:02:28Z</time></trkpt><trkpt lat="43.39840944141518" lon="-3.7795294164009894"><ele>8.200000000000001</ele><time>2026-04-30T18:02:29Z</time></trkpt><trkpt lat="43.39837722174333" lon="-3.7796740097837547"><ele>8.4</ele><time>2026-04-30T18:02:30Z</time></trkpt><trkpt lat="43.39834548494767" lon="-3.779820533653153"><ele>8.600000000000001</ele><time>2026-04-30T18:02:31Z</time></trkpt><trkpt lat="43.398314294635156" lon="-3.77996503000276"><ele>8.8</ele><time>2026-04-30T18:02:32Z</time></trkpt><trkpt lat="43.39828237655715" lon="-3.780111558229157"><ele>9.0</ele><time>2026-04-30T18:02:33.001Z</time></trkpt><trkpt lat="43.39825651130803" lon="-3.780254728552335"><ele>9.0</ele><time>2026-04-30T18:02:34.001Z</time></trkpt><trkpt lat="43.39822556916887" lon="-3.78040226278603"><ele>9.0</ele><time>2026-04-30T18:02:35.001Z</time></trkpt><trkpt lat="43.39819083928681" lon="-3.7805505343818817"><ele>9.0</ele><time>2026-04-30T18:02:36.001Z</time></trkpt><trkpt lat="43.39815933480093" lon="-3.7806934369481806"><ele>9.0</ele><time>2026-04-30T18:02:37.001Z</time></trkpt><trkpt lat="43.39812774938629" lon="-3.7808451910495946"><ele>9.0</ele><time>2026-04-30T18:02:38.001Z</time></trkpt><trkpt lat="43.39809699004223" lon="-3.7809960948421337"><ele>8.25</ele><time>2026-04-30T18:02:39.001Z</time></trkpt><trkpt lat="43.39806280232825" lon="-3.781147242726811"><ele>7.5</ele><time>2026-04-30T18:02:40.001Z</time></trkpt><trkpt lat="43.398029499123865" lon="-3.781297358615672"><ele>6.75</ele><time>2026-04-30T18:02:41.001Z</time></trkpt><trkpt lat="43.39799950740001" lon="-3.781444671149587"><ele>6.0</ele><time>2026-04-30T18:02:42.001Z</time></trkpt><trkpt lat="43.397964510753816" lon="-3.78159430068383"><ele>7.5</ele><time>2026-04-30T18:02:43.001Z</time></trkpt><trkpt lat="43.3979308365278" lon="-3.781745918465711"><ele>9.0</ele><time>2026-04-30T18:02:44.001Z</time></trkpt><trkpt lat="43.39790095613519" lon="-3.781895245745837"><ele>10.5</ele><time>2026-04-30T18:02:45.001Z</time></trkpt><trkpt lat="43.39786631891127" lon="-3.7820468038609776"><ele>12.0</ele><time>2026-04-30T18:02:46.001Z</time></trkpt><trkpt lat="43.39783276551453" lon="-3.7821956077665306"><ele>12.0</ele><time>2026-04-30T18:02:47.001Z</time></trkpt><trkpt lat="43.39780102493273" lon="-3.7823445412057284"><ele>12.0</ele><time>2026-04-30T18:02:48.001Z</time></trkpt><trkpt lat="43.397767571695994" lon="-3.7824945183904384"><ele>12.0</ele><time>2026-04-30T18:02:49.001Z</time></trkpt><trkpt lat="43.39773676612946" lon="-3.7826396705997247"><ele>12.0</ele><time>2026-04-30T18:02:50.001Z</time></trkpt><trkpt lat="43.39770299165569" lon="-3.78277376504236"><ele>12.0</ele><time>2026-04-30T18:02:51.001Z</time></trkpt><trkpt lat="43.39767463916213" lon="-3.7829158283573174"><ele>11.8</ele><time>2026-04-30T18:02:52.001Z</time></trkpt><trkpt lat="43.3976486438676" lon="-3.783050500071341"><ele>11.6</ele><time>2026-04-30T18:02:53.001Z</time></trkpt><trkpt lat="43.39762789620402" lon="-3.7831805608922062"><ele>11.4</ele><time>2026-04-30T18:02:54.001Z</time></trkpt><trkpt lat="43.39762125448746" lon="-3.783315394092002"><ele>11.200000000000001</ele><time>2026-04-30T18:02:55.001Z</time></trkpt><trkpt lat="43.397621263775534" lon="-3.7834553214871445"><ele>11.0</ele><time>2026-04-30T18:02:56.001Z</time></trkpt><trkpt lat="43.39760101486917" lon="-3.783594762341089"><ele>10.5</ele><time>2026-04-30T18:02:57.001Z</time></trkpt><trkpt lat="43.3975510907303" lon="-3.783736481575965"><ele>10.0</ele><time>2026-04-30T18:02:58.001Z</time></trkpt><trkpt lat="43.39749167250756" lon="-3.7838599168835043"><ele>9.5</ele><time>2026-04-30T18:02:59.001Z</time></trkpt><trkpt lat="43.397447332696956" lon="-3.7840024794208116"><ele>9.0</ele><time>2026-04-30T18:03:00.001Z</time></trkpt><trkpt lat="43.39740893651747" lon="-3.784156431413616"><ele>9.0</ele><time>2026-04-30T18:03:01.001Z</time></trkpt><trkpt lat="43.39737856147509" lon="-3.784308116354917"><ele>9.0</ele><time>2026-04-30T18:03:02.001Z</time></trkpt><trkpt lat="43.397348175210595" lon="-3.784465276702047"><ele>9.0</ele><time>2026-04-30T18:03:03.001Z</time></trkpt><trkpt lat="43.39731708191931" lon="-3.7846174113316735"><ele>9.0</ele><time>2026-04-30T18:03:04.001Z</time></trkpt><trkpt lat="43.39728565438942" lon="-3.7847713674416448"><ele>8.5</ele><time>2026-04-30T18:03:05.001Z</time></trkpt><trkpt lat="43.39725257297985" lon="-3.7849270996150657"><ele>8.0</ele><time>2026-04-30T18:03:06.001Z</time></trkpt><trkpt lat="43.39721912014077" lon="-3.7850770030885204"><ele>7.5</ele><time>2026-04-30T18:03:07.001Z</time></trkpt><trkpt lat="43.397183974524516" lon="-3.7852324356189824"><ele>7.0</ele><time>2026-04-30T18:03:08.001Z</time></trkpt><trkpt lat="43.39714905243375" lon="-3.785386570668591"><ele>8.75</ele><time>2026-04-30T18:03:09.001Z</time></trkpt><trkpt lat="43.39711499364598" lon="-3.7855427343974095"><ele>10.5</ele><time>2026-04-30T18:03:10.001Z</time></trkpt><trkpt lat="43.39708449485385" lon="-3.7856935548219033"><ele>12.25</ele><time>2026-04-30T18:03:11.001Z</time></trkpt><trkpt lat="43.39705067382029" lon="-3.7858455486433735"><ele>14.0</ele><time>2026-04-30T18:03:12.001Z</time></trkpt><trkpt lat="43.39701676329143" lon="-3.7860017002634936"><ele>13.5</ele><time>2026-04-30T18:03:13.001Z</time></trkpt><trkpt lat="43.396984773811496" lon="-3.7861569063770024"><ele>13.0</ele><time>2026-04-30T18:03:14.001Z</time></trkpt><trkpt lat="43.3969527689433" lon="-3.786310508443546"><ele>12.5</ele><time>2026-04-30T18:03:15.001Z</time></trkpt><trkpt lat="43.39691947055679" lon="-3.7864668356839863"><ele>12.0</ele><time>2026-04-30T18:03:16.001Z</time></trkpt><trkpt lat="43.39688520285504" lon="-3.7866188205150526"><ele>12.0</ele><time>2026-04-30T18:03:17.001Z</time></trkpt><trkpt lat="43.396852577316814" lon="-3.7867726633955714"><ele>12.0</ele><time>2026-04-30T18:03:18.001Z</time></trkpt><trkpt lat="43.39681924704048" lon="-3.786928248166998"><ele>12.0</ele><time>2026-04-30T18:03:19.001Z</time></trkpt><trkpt lat="43.39678481674862" lon="-3.787085696122201"><ele>12.0</ele><time>2026-04-30T18:03:20.001Z</time></trkpt><trkpt lat="43.39675229810277" lon="-3.787239047168024"><ele>11.5</ele><time>2026-04-30T18:03:21.001Z</time></trkpt><trkpt lat="43.396719318560116" lon="-3.7873914770479096"><ele>11.0</ele><time>2026-04-30T18:03:22.001Z</time></trkpt><trkpt lat="43.39668449021431" lon="-3.7875456179437723"><ele>10.5</ele><time>2026-04-30T18:03:23.001Z</time></trkpt><trkpt lat="43.39664934131244" lon="-3.787703629798413"><ele>10.0</ele><time>2026-04-30T18:03:24.001Z</time></trkpt><trkpt lat="43.39661675156284" lon="-3.787857633563498"><ele>9.5</ele><time>2026-04-30T18:03:25.001Z</time></trkpt><trkpt lat="43.39658566327112" lon="-3.788016285505237"><ele>9.0</ele><time>2026-04-30T18:03:26.001Z</time></trkpt><trkpt lat="43.396553863144234" lon="-3.7881746409575348"><ele>8.5</ele><time>2026-04-30T18:03:27.001Z</time></trkpt><trkpt lat="43.39652163870562" lon="-3.7883293720667828"><ele>8.0</ele><time>2026-04-30T18:03:28.001Z</time></trkpt><trkpt lat="43.39648965121552" lon="-3.788482746899024"><ele>7.75</ele><time>2026-04-30T18:03:29.001Z</time></trkpt><trkpt lat="43.39645382116974" lon="-3.788638649129278"><ele>7.5</ele><time>2026-04-30T18:03:30.001Z</time></trkpt><trkpt lat="43.3964196219526" lon="-3.7887956787149095"><ele>7.25</ele><time>2026-04-30T18:03:31.002Z</time></trkpt><trkpt lat="43.396384915822594" lon="-3.788949509725772"><ele>7.0</ele><time>2026-04-30T18:03:32.002Z</time></trkpt><trkpt lat="43.39634946106811" lon="-3.789104026018321"><ele>7.75</ele><time>2026-04-30T18:03:33.002Z</time></trkpt><trkpt lat="43.39631466727066" lon="-3.789260006670795"><ele>8.5</ele><time>2026-04-30T18:03:34.002Z</time></trkpt><trkpt lat="43.39628427113989" lon="-3.7894147255182435"><ele>9.25</ele><time>2026-04-30T18:03:35.002Z</time></trkpt><trkpt lat="43.39625707407219" lon="-3.789569361421766"><ele>10.0</ele><time>2026-04-30T18:03:36.002Z</time></trkpt><trkpt lat="43.39622669638439" lon="-3.789726263484761"><ele>10.0</ele><time>2026-04-30T18:03:37.002Z</time></trkpt><trkpt lat="43.39619759614195" lon="-3.7898797061559333"><ele>10.0</ele><time>2026-04-30T18:03:38.002Z</time></trkpt><trkpt lat="43.39616181897301" lon="-3.7900389664131873"><ele>10.0</ele><time>2026-04-30T18:03:39.002Z</time></trkpt><trkpt lat="43.39612953783938" lon="-3.790194610296176"><ele>10.0</ele><time>2026-04-30T18:03:40.002Z</time></trkpt><trkpt lat="43.39609503326199" lon="-3.790351169437087"><ele>10.0</ele><time>2026-04-30T18:03:41.002Z</time></trkpt><trkpt lat="43.39606234856874" lon="-3.7905067408144957"><ele>10.0</ele><time>2026-04-30T18:03:42.002Z</time></trkpt><trkpt lat="43.39602881372462" lon="-3.790662479544444"><ele>10.0</ele><time>2026-04-30T18:03:43.002Z</time></trkpt><trkpt lat="43.395995034273426" lon="-3.790816856617936"><ele>10.0</ele><time>2026-04-30T18:03:44.002Z</time></trkpt><trkpt lat="43.39596156627976" lon="-3.79097012735056"><ele>10.0</ele><time>2026-04-30T18:03:45.002Z</time></trkpt><trkpt lat="43.39592912418795" lon="-3.7911259797104995"><ele>10.0</ele><time>2026-04-30T18:03:46.002Z</time></trkpt><trkpt lat="43.395897166251345" lon="-3.7912800548063226"><ele>10.0</ele><time>2026-04-30T18:03:47.002Z</time></trkpt><trkpt lat="43.39586669086024" lon="-3.7914318794172726"><ele>10.0</ele><time>2026-04-30T18:03:48.002Z</time></trkpt><trkpt lat="43.39583330307498" lon="-3.7915872081321083"><ele>10.0</ele><time>2026-04-30T18:03:49.002Z</time></trkpt><trkpt lat="43.395801372112246" lon="-3.7917423334902005"><ele>10.0</ele><time>2026-04-30T18:03:50.002Z</time></trkpt><trkpt lat="43.3957705380968" lon="-3.79189639174452"><ele>10.0</ele><time>2026-04-30T18:03:51.002Z</time></trkpt><trkpt lat="43.39573808911606" lon="-3.7920502952884556"><ele>10.0</ele><time>2026-04-30T18:03:52.002Z</time></trkpt><trkpt lat="43.395705224261896" lon="-3.7922058583121685"><ele>9.5</ele><time>2026-04-30T18:03:53.002Z</time></trkpt><trkpt lat="43.39567129423331" lon="-3.7923612972745606"><ele>9.0</ele><time>2026-04-30T18:03:54.002Z</time></trkpt><trkpt lat="43.39563941304427" lon="-3.7925139908807415"><ele>8.5</ele><time>2026-04-30T18:03:55.002Z</time></trkpt><trkpt lat="43.39560492785782" lon="-3.792667425945265"><ele>8.0</ele><time>2026-04-30T18:03:56.002Z</time></trkpt><trkpt lat="43.395573734757484" lon="-3.792823847001076"><ele>7.5</ele><time>2026-04-30T18:03:57.002Z</time></trkpt><trkpt lat="43.395541979788845" lon="-3.792975391437792"><ele>7.0</ele><time>2026-04-30T18:03:58.002Z</time></trkpt><trkpt lat="43.395509513490246" lon="-3.7931282106100297"><ele>6.5</ele><time>2026-04-30T18:03:59.002Z</time></trkpt><trkpt lat="43.39547721370865" lon="-3.793281565949561"><ele>6.0</ele><time>2026-04-30T18:04:00.002Z</time></trkpt><trkpt lat="43.39544289964415" lon="-3.793431275203013"><ele>6.75</ele><time>2026-04-30T18:04:01.002Z</time></trkpt><trkpt lat="43.39541020629952" lon="-3.793583545122352"><ele>7.5</ele><time>2026-04-30T18:04:02.002Z</time></trkpt><trkpt lat="43.395377716307685" lon="-3.7937383151186217"><ele>8.25</ele><time>2026-04-30T18:04:03.002Z</time></trkpt><trkpt lat="43.39534585389762" lon="-3.7938919785904366"><ele>9.0</ele><time>2026-04-30T18:04:04.002Z</time></trkpt><trkpt lat="43.395316214843604" lon="-3.7940431688203384"><ele>9.0</ele><time>2026-04-30T18:04:05Z</time></trkpt><trkpt lat="43.395284780634064" lon="-3.794192993336708"><ele>9.0</ele><time>2026-04-30T18:04:06Z</time></trkpt><trkpt lat="43.395251018147626" lon="-3.7943450486304195"><ele>9.0</ele><time>2026-04-30T18:04:07Z</time></trkpt><trkpt lat="43.39521459119826" lon="-3.794500824812428"><ele>9.0</ele><time>2026-04-30T18:04:08Z</time></trkpt><trkpt lat="43.39518570965103" lon="-3.7946519796101135"><ele>9.0</ele><time>2026-04-30T18:04:09Z</time></trkpt><trkpt lat="43.395154249117915" lon="-3.794803391859964"><ele>9.0</ele><time>2026-04-30T18:04:10Z</time></trkpt><trkpt lat="43.395123129859485" lon="-3.7949551330807965"><ele>9.0</ele><time>2026-04-30T18:04:11Z</time></trkpt><trkpt lat="43.39509100676606" lon="-3.7951075363668165"><ele>9.0</ele><time>2026-04-30T18:04:12Z</time></trkpt><trkpt lat="43.39505877897261" lon="-3.7952606551076573"><ele>8.75</ele><time>2026-04-30T18:04:13Z</time></trkpt><trkpt lat="43.395027721613666" lon="-3.795413521817457"><ele>8.5</ele><time>2026-04-30T18:04:14Z</time></trkpt><trkpt lat="43.39499544746372" lon="-3.7955655295749446"><ele>8.25</ele><time>2026-04-30T18:04:15Z</time></trkpt><trkpt lat="43.39496165938159" lon="-3.7957192722977275"><ele>8.0</ele><time>2026-04-30T18:04:16Z</time></trkpt><trkpt lat="43.39492942845753" lon="-3.7958713956773993"><ele>8.0</ele><time>2026-04-30T18:04:17Z</time></trkpt><trkpt lat="43.394896800317134" lon="-3.7960232991263987"><ele>8.0</ele><time>2026-04-30T18:04:18Z</time></trkpt><trkpt lat="43.3948639113548" lon="-3.796175720578836"><ele>8.0</ele><time>2026-04-30T18:04:19Z</time></trkpt><trkpt lat="43.394835917080734" lon="-3.79632772522092"><ele>8.0</ele><time>2026-04-30T18:04:20Z</time></trkpt><trkpt lat="43.39480331484389" lon="-3.7964788919322627"><ele>8.0</ele><time>2026-04-30T18:04:21Z</time></trkpt><trkpt lat="43.39477152110943" lon="-3.796631287658862"><ele>8.0</ele><time>2026-04-30T18:04:22Z</time></trkpt><trkpt lat="43.394739671917236" lon="-3.796783000642517"><ele>8.0</ele><time>2026-04-30T18:04:23Z</time></trkpt><trkpt lat="43.394707344052016" lon="-3.796934322117547"><ele>8.0</ele><time>2026-04-30T18:04:24Z</time></trkpt><trkpt lat="43.39467278419857" lon="-3.7970862289494525"><ele>9.0</ele><time>2026-04-30T18:04:25Z</time></trkpt><trkpt lat="43.3946385871121" lon="-3.7972381788382545"><ele>10.0</ele><time>2026-04-30T18:04:26Z</time></trkpt><trkpt lat="43.39460499335488" lon="-3.797389490284776"><ele>11.0</ele><time>2026-04-30T18:04:27Z</time></trkpt><trkpt lat="43.39457147665877" lon="-3.7975411017076643"><ele>12.0</ele><time>2026-04-30T18:04:28Z</time></trkpt><trkpt lat="43.39453910178364" lon="-3.7976933388124428"><ele>12.5</ele><time>2026-04-30T18:04:29Z</time></trkpt><trkpt lat="43.39450734450514" lon="-3.797845733777438"><ele>13.0</ele><time>2026-04-30T18:04:30.001Z</time></trkpt><trkpt lat="43.394476191472556" lon="-3.7980011461439083"><ele>13.5</ele><time>2026-04-30T18:04:31.001Z</time></trkpt><trkpt lat="43.394446648428854" lon="-3.798154523750045"><ele>14.0</ele><time>2026-04-30T18:04:32.001Z</time></trkpt><trkpt lat="43.39441558320435" lon="-3.798307824001506"><ele>14.0</ele><time>2026-04-30T18:04:33.001Z</time></trkpt><trkpt lat="43.394380213334756" lon="-3.7984586627481085"><ele>14.0</ele><time>2026-04-30T18:04:34.001Z</time></trkpt><trkpt lat="43.39434803222463" lon="-3.798612616477674"><ele>14.0</ele><time>2026-04-30T18:04:35.001Z</time></trkpt><trkpt lat="43.39431517315266" lon="-3.79876648618824"><ele>14.0</ele><time>2026-04-30T18:04:36.001Z</time></trkpt><trkpt lat="43.39428189508021" lon="-3.7989199216351617"><ele>13.0</ele><time>2026-04-30T18:04:37.001Z</time></trkpt><trkpt lat="43.39424831896472" lon="-3.7990689455547413"><ele>12.0</ele><time>2026-04-30T18:04:38.001Z</time></trkpt><trkpt lat="43.39421273460209" lon="-3.799221391487008"><ele>11.0</ele><time>2026-04-30T18:04:39.001Z</time></trkpt><trkpt lat="43.39417687562274" lon="-3.7993743425780377"><ele>10.0</ele><time>2026-04-30T18:04:40.001Z</time></trkpt><trkpt lat="43.3941418593023" lon="-3.7995255964479386"><ele>9.6</ele><time>2026-04-30T18:04:41.001Z</time></trkpt><trkpt lat="43.39410857845443" lon="-3.7996768745180156"><ele>9.2</ele><time>2026-04-30T18:04:42.001Z</time></trkpt><trkpt lat="43.39407777206744" lon="-3.7998294214513524"><ele>8.8</ele><time>2026-04-30T18:04:43.001Z</time></trkpt><trkpt lat="43.39405278640745" lon="-3.799985757543792"><ele>8.4</ele><time>2026-04-30T18:04:44.001Z</time></trkpt><trkpt lat="43.39404004904202" lon="-3.8001212941615785"><ele>8.0</ele><time>2026-04-30T18:04:45.001Z</time></trkpt><trkpt lat="43.3940492251464" lon="-3.800264178515706"><ele>8.0</ele><time>2026-04-30T18:04:46.001Z</time></trkpt><trkpt lat="43.394072688364176" lon="-3.800400677854472"><ele>8.0</ele><time>2026-04-30T18:04:47.001Z</time></trkpt><trkpt lat="43.393932957427594" lon="-3.8005245321861882"><ele>8.0</ele><time>2026-04-30T18:04:48.001Z</time></trkpt><trkpt lat="43.39390513189618" lon="-3.8006596446600676"><ele>8.0</ele><time>2026-04-30T18:04:49.001Z</time></trkpt><trkpt lat="43.393873870840366" lon="-3.8008035206844624"><ele>8.0</ele><time>2026-04-30T18:04:50.001Z</time></trkpt><trkpt lat="43.3938442350307" lon="-3.8009449901324697"><ele>8.0</ele><time>2026-04-30T18:04:51.001Z</time></trkpt><trkpt lat="43.393813027651916" lon="-3.8010900482639958"><ele>8.0</ele><time>2026-04-30T18:04:52.001Z</time></trkpt><trkpt lat="43.39377974417077" lon="-3.801238401922019"><ele>8.0</ele><time>2026-04-30T18:04:53.001Z</time></trkpt><trkpt lat="43.39374824297344" lon="-3.8013873663788114"><ele>8.0</ele><time>2026-04-30T18:04:54.001Z</time></trkpt><trkpt lat="43.39371756277118" lon="-3.801537143823031"><ele>9.2</ele><time>2026-04-30T18:04:55.001Z</time></trkpt><trkpt lat="43.39368683830484" lon="-3.801687848652066"><ele>10.4</ele><time>2026-04-30T18:04:56.001Z</time></trkpt><trkpt lat="43.39365272267455" lon="-3.801829634465834"><ele>11.599999999999998</ele><time>2026-04-30T18:04:57.001Z</time></trkpt><trkpt lat="43.393619181261926" lon="-3.8019756109969385"><ele>12.799999999999999</ele><time>2026-04-30T18:04:58.001Z</time></trkpt><trkpt lat="43.39358843949165" lon="-3.8021242377438957"><ele>14.0</ele><time>2026-04-30T18:04:59.001Z</time></trkpt><trkpt lat="43.3935582451905" lon="-3.802272870020829"><ele>14.0</ele><time>2026-04-30T18:05:00.001Z</time></trkpt><trkpt lat="43.393527741057554" lon="-3.8024219486711397"><ele>14.0</ele><time>2026-04-30T18:05:01.001Z</time></trkpt><trkpt lat="43.393494205894015" lon="-3.802576305297905"><ele>14.0</ele><time>2026-04-30T18:05:02.001Z</time></trkpt><trkpt lat="43.39346176918439" lon="-3.8027222385507518"><ele>14.0</ele><time>2026-04-30T18:05:03.001Z</time></trkpt><trkpt lat="43.39342949097781" lon="-3.8028707174086573"><ele>14.0</ele><time>2026-04-30T18:05:04.001Z</time></trkpt><trkpt lat="43.39339894778148" lon="-3.803022411121524"><ele>14.0</ele><time>2026-04-30T18:05:05.001Z</time></trkpt><trkpt lat="43.39336837780265" lon="-3.803166992044249"><ele>14.0</ele><time>2026-04-30T18:05:06.001Z</time></trkpt><trkpt lat="43.39333655783292" lon="-3.803316753523854"><ele>14.0</ele><time>2026-04-30T18:05:07.001Z</time></trkpt><trkpt lat="43.3933070463287" lon="-3.8034661113644437"><ele>13.75</ele><time>2026-04-30T18:05:08.001Z</time></trkpt><trkpt lat="43.393274542688225" lon="-3.8036165452693615"><ele>13.5</ele><time>2026-04-30T18:05:09.001Z</time></trkpt><trkpt lat="43.39324138213354" lon="-3.803769160142459"><ele>13.25</ele><time>2026-04-30T18:05:10.001Z</time></trkpt><trkpt lat="43.39320779541887" lon="-3.803921944647883"><ele>13.0</ele><time>2026-04-30T18:05:11.001Z</time></trkpt><trkpt lat="43.39317524251256" lon="-3.8040757005367722"><ele>13.0</ele><time>2026-04-30T18:05:12.001Z</time></trkpt><trkpt lat="43.3931440452874" lon="-3.804228274829276"><ele>13.0</ele><time>2026-04-30T18:05:13.001Z</time></trkpt><trkpt lat="43.39311282171306" lon="-3.8043822136078878"><ele>13.0</ele><time>2026-04-30T18:05:14.001Z</time></trkpt><trkpt lat="43.393083237280685" lon="-3.8045346982627954"><ele>13.0</ele><time>2026-04-30T18:05:15.001Z</time></trkpt><trkpt lat="43.393050715527465" lon="-3.804679876177309"><ele>12.75</ele><time>2026-04-30T18:05:16.001Z</time></trkpt><trkpt lat="43.39301621568083" lon="-3.8048326658813583"><ele>12.5</ele><time>2026-04-30T18:05:17.001Z</time></trkpt><trkpt lat="43.39298304656189" lon="-3.804982233585985"><ele>12.25</ele><time>2026-04-30T18:05:18.001Z</time></trkpt><trkpt lat="43.39295109720715" lon="-3.8051327192830366"><ele>12.0</ele><time>2026-04-30T18:05:19.001Z</time></trkpt><trkpt lat="43.39292308895923" lon="-3.8052811817374264"><ele>12.75</ele><time>2026-04-30T18:05:20.001Z</time></trkpt><trkpt lat="43.392892267843756" lon="-3.805434635342906"><ele>13.5</ele><time>2026-04-30T18:05:21.001Z</time></trkpt><trkpt lat="43.39286195285005" lon="-3.805589080294082"><ele>14.25</ele><time>2026-04-30T18:05:22.001Z</time></trkpt><trkpt lat="43.392826727906396" lon="-3.805736472198725"><ele>15.0</ele><time>2026-04-30T18:05:23.001Z</time></trkpt><trkpt lat="43.39279433329967" lon="-3.8058891481757517"><ele>14.75</ele><time>2026-04-30T18:05:24.001Z</time></trkpt><trkpt lat="43.3927660737396" lon="-3.806043929541381"><ele>14.5</ele><time>2026-04-30T18:05:25.001Z</time></trkpt><trkpt lat="43.39273630351127" lon="-3.8061986223894713"><ele>14.25</ele><time>2026-04-30T18:05:26.001Z</time></trkpt><trkpt lat="43.39270589496621" lon="-3.806352596474195"><ele>14.0</ele><time>2026-04-30T18:05:27.001Z</time></trkpt><trkpt lat="43.39267299182636" lon="-3.8065036539457595"><ele>14.0</ele><time>2026-04-30T18:05:28.001Z</time></trkpt><trkpt lat="43.392637694140106" lon="-3.806655741505598"><ele>14.0</ele><time>2026-04-30T18:05:29.001Z</time></trkpt><trkpt lat="43.39259995584636" lon="-3.8068054875472868"><ele>14.0</ele><time>2026-04-30T18:05:30.001Z</time></trkpt><trkpt lat="43.39256131851601" lon="-3.806954071133278"><ele>14.0</ele><time>2026-04-30T18:05:31.001Z</time></trkpt><trkpt lat="43.39251680178278" lon="-3.8070986731810024"><ele>13.5</ele><time>2026-04-30T18:05:32.001Z</time></trkpt><trkpt lat="43.39246861684276" lon="-3.807241760247981"><ele>13.0</ele><time>2026-04-30T18:05:33.001Z</time></trkpt><trkpt lat="43.39241862122557" lon="-3.8073776198628657"><ele>12.5</ele><time>2026-04-30T18:05:34.001Z</time></trkpt><trkpt lat="43.3923675184642" lon="-3.8075161823443713"><ele>12.0</ele><time>2026-04-30T18:05:35.002Z</time></trkpt><trkpt lat="43.39231468663229" lon="-3.8076562969562375"><ele>11.5</ele><time>2026-04-30T18:05:36.002Z</time></trkpt><trkpt lat="43.3922635211226" lon="-3.807794954405107"><ele>11.0</ele><time>2026-04-30T18:05:37.002Z</time></trkpt><trkpt lat="43.39221128544616" lon="-3.807942498096034"><ele>10.5</ele><time>2026-04-30T18:05:38.002Z</time></trkpt><trkpt lat="43.392163844391625" lon="-3.8080876936808234"><ele>10.0</ele><time>2026-04-30T18:05:39.002Z</time></trkpt><trkpt lat="43.392114780784354" lon="-3.808234814012627"><ele>11.5</ele><time>2026-04-30T18:05:40.002Z</time></trkpt><trkpt lat="43.39206605676462" lon="-3.8083805952377823"><ele>13.0</ele><time>2026-04-30T18:05:41.002Z</time></trkpt><trkpt lat="43.39201911913286" lon="-3.8085279948317172"><ele>14.5</ele><time>2026-04-30T18:05:42.002Z</time></trkpt><trkpt lat="43.39197178903964" lon="-3.808673819800135"><ele>16.0</ele><time>2026-04-30T18:05:43.002Z</time></trkpt><trkpt lat="43.391925706885694" lon="-3.8088196452968552"><ele>16.0</ele><time>2026-04-30T18:05:44.002Z</time></trkpt><trkpt lat="43.391877054072694" lon="-3.8089654913307753"><ele>16.0</ele><time>2026-04-30T18:05:45.002Z</time></trkpt><trkpt lat="43.391827751937534" lon="-3.809113421986477"><ele>16.0</ele><time>2026-04-30T18:05:46.002Z</time></trkpt><trkpt lat="43.391773922936906" lon="-3.809254516133078"><ele>16.0</ele><time>2026-04-30T18:05:47.002Z</time></trkpt><trkpt lat="43.39171494006129" lon="-3.809397168756846"><ele>13.75</ele><time>2026-04-30T18:05:48.002Z</time></trkpt><trkpt lat="43.39165574880042" lon="-3.809535141399337"><ele>11.5</ele><time>2026-04-30T18:05:49.002Z</time></trkpt><trkpt lat="43.39159470634693" lon="-3.8096755298477065"><ele>9.25</ele><time>2026-04-30T18:05:50.002Z</time></trkpt><trkpt lat="43.391533880459264" lon="-3.8098138510988306"><ele>7.0</ele><time>2026-04-30T18:05:51.002Z</time></trkpt><trkpt lat="43.39147279444531" lon="-3.8099486759421963"><ele>7.0</ele><time>2026-04-30T18:05:52.002Z</time></trkpt><trkpt lat="43.39141419917833" lon="-3.81008835942732"><ele>7.0</ele><time>2026-04-30T18:05:53.002Z</time></trkpt><trkpt lat="43.39135785005135" lon="-3.8102293065041155"><ele>7.0</ele><time>2026-04-30T18:05:54.002Z</time></trkpt><trkpt lat="43.391309142258876" lon="-3.810376218016512"><ele>7.0</ele><time>2026-04-30T18:05:55.002Z</time></trkpt><trkpt lat="43.39127055690283" lon="-3.8105207521262154"><ele>8.399999999999999</ele><time>2026-04-30T18:05:56.002Z</time></trkpt><trkpt lat="43.391239451265484" lon="-3.8106739113567305"><ele>9.799999999999999</ele><time>2026-04-30T18:05:57.002Z</time></trkpt><trkpt lat="43.39121854689189" lon="-3.8108223511213493"><ele>11.2</ele><time>2026-04-30T18:05:58.002Z</time></trkpt><trkpt lat="43.39120539105121" lon="-3.8109767324268042"><ele>12.6</ele><time>2026-04-30T18:05:59.002Z</time></trkpt><trkpt lat="43.391201037747535" lon="-3.8111281789753524"><ele>14.0</ele><time>2026-04-30T18:06:00.002Z</time></trkpt><trkpt lat="43.39120277092066" lon="-3.81128625025427"><ele>14.0</ele><time>2026-04-30T18:06:01.002Z</time></trkpt><trkpt lat="43.391211191162434" lon="-3.8114376202772635"><ele>13.999999999999998</ele><time>2026-04-30T18:06:02.002Z</time></trkpt><trkpt lat="43.39121851581607" lon="-3.8115837860595176"><ele>13.999999999999998</ele><time>2026-04-30T18:06:03.002Z</time></trkpt><trkpt lat="43.391233543512584" lon="-3.81173687969313"><ele>14.0</ele><time>2026-04-30T18:06:04.002Z</time></trkpt><trkpt lat="43.391244559313044" lon="-3.8118920996851906"><ele>14.0</ele><time>2026-04-30T18:06:05.002Z</time></trkpt><trkpt lat="43.391255383156796" lon="-3.8120439961370605"><ele>14.0</ele><time>2026-04-30T18:06:06.002Z</time></trkpt><trkpt lat="43.39126537565765" lon="-3.8121976558001824"><ele>13.999999999999998</ele><time>2026-04-30T18:06:07.002Z</time></trkpt><trkpt lat="43.391275000309676" lon="-3.8123521639850106"><ele>13.999999999999998</ele><time>2026-04-30T18:06:08.002Z</time></trkpt><trkpt lat="43.39128315503463" lon="-3.812506218986948"><ele>14.0</ele><time>2026-04-30T18:06:09.002Z</time></trkpt><trkpt lat="43.39129327861518" lon="-3.8126599681980533"><ele>14.0</ele><time>2026-04-30T18:06:10.002Z</time></trkpt><trkpt lat="43.39130329706414" lon="-3.812799760972401"><ele>14.2</ele><time>2026-04-30T18:06:11.001Z</time></trkpt><trkpt lat="43.39131340844283" lon="-3.8129389194196195"><ele>14.399999999999999</ele><time>2026-04-30T18:06:12.001Z</time></trkpt><trkpt lat="43.39132633899567" lon="-3.8130738405207527"><ele>14.6</ele><time>2026-04-30T18:06:13.001Z</time></trkpt><trkpt lat="43.39133257524503" lon="-3.8132169781249003"><ele>14.8</ele><time>2026-04-30T18:06:14.001Z</time></trkpt><trkpt lat="43.39133316991705" lon="-3.813375189234218"><ele>15.0</ele><time>2026-04-30T18:06:15.001Z</time></trkpt><trkpt lat="43.39131097110453" lon="-3.8135276151456963"><ele>13.8</ele><time>2026-04-30T18:06:16.001Z</time></trkpt><trkpt lat="43.39127935668479" lon="-3.8136489320170006"><ele>12.6</ele><time>2026-04-30T18:06:17.001Z</time></trkpt><trkpt lat="43.39123886310311" lon="-3.8137747491060328"><ele>11.4</ele><time>2026-04-30T18:06:18.001Z</time></trkpt><trkpt lat="43.39120644075359" lon="-3.813893795644557"><ele>10.2</ele><time>2026-04-30T18:06:19.001Z</time></trkpt><trkpt lat="43.39118028888654" lon="-3.8140092139081294"><ele>9.0</ele><time>2026-04-30T18:06:20.001Z</time></trkpt><trkpt lat="43.3911618607494" lon="-3.8141156241812837"><ele>9.0</ele><time>2026-04-30T18:06:21.001Z</time></trkpt><trkpt lat="43.391155983234114" lon="-3.8142109487898486"><ele>9.0</ele><time>2026-04-30T18:06:22.001Z</time></trkpt><trkpt lat="43.391165349758246" lon="-3.8143065669182667"><ele>9.0</ele><time>2026-04-30T18:06:23.001Z</time></trkpt><trkpt lat="43.391192950434416" lon="-3.8144077586192036"><ele>9.0</ele><time>2026-04-30T18:06:24.001Z</time></trkpt><trkpt lat="43.39119463114843" lon="-3.814512386121857"><ele>9.0</ele><time>2026-04-30T18:06:25.001Z</time></trkpt><trkpt lat="43.39131024164843" lon="-3.814576849448721"><ele>9.0</ele><time>2026-04-30T18:06:26.001Z</time></trkpt><trkpt lat="43.391396619245434" lon="-3.814623822040564"><ele>7.2</ele><time>2026-04-30T18:06:27.001Z</time></trkpt><trkpt lat="43.39149156212018" lon="-3.81464233557512"><ele>5.4</ele><time>2026-04-30T18:06:28.001Z</time></trkpt><trkpt lat="43.39157629637399" lon="-3.814673843091961"><ele>3.6</ele><time>2026-04-30T18:06:29.001Z</time></trkpt><trkpt lat="43.39167194787575" lon="-3.8147057264127953"><ele>1.8</ele><time>2026-04-30T18:06:30.001Z</time></trkpt><trkpt lat="43.39177094867343" lon="-3.814739558220614"><ele>0.0</ele><time>2026-04-30T18:06:31.001Z</time></trkpt><trkpt lat="43.391867193452704" lon="-3.814771100713678"><ele>0.0</ele><time>2026-04-30T18:06:32.001Z</time></trkpt><trkpt lat="43.39196539247372" lon="-3.8148051270557004"><ele>0.0</ele><time>2026-04-30T18:06:33.001Z</time></trkpt><trkpt lat="43.392065857630975" lon="-3.8148404878671967"><ele>0.0</ele><time>2026-04-30T18:06:34.001Z</time></trkpt><trkpt lat="43.392167106598805" lon="-3.8148757582648334"><ele>0.0</ele><time>2026-04-30T18:06:35.001Z</time></trkpt><trkpt lat="43.39228321118928" lon="-3.814913684668751"><ele>0.0</ele><time>2026-04-30T18:06:36.001Z</time></trkpt><trkpt lat="43.3924329521508" lon="-3.814944556128142"><ele>0.25</ele><time>2026-04-30T18:06:37.001Z</time></trkpt><trkpt lat="43.3925833419063" lon="-3.8150091114136386"><ele>0.5</ele><time>2026-04-30T18:06:39.001Z</time></trkpt><trkpt lat="43.39269438040241" lon="-3.8150406092826694"><ele>0.75</ele><time>2026-04-30T18:06:40.001Z</time></trkpt><trkpt lat="43.39279860100108" lon="-3.815072869443167"><ele>1.0</ele><time>2026-04-30T18:06:41.001Z</time></trkpt><trkpt lat="43.39290720872512" lon="-3.8151142387634316"><ele>1.4</ele><time>2026-04-30T18:06:42.001Z</time></trkpt><trkpt lat="43.39302035956467" lon="-3.8151369958924635"><ele>1.8</ele><time>2026-04-30T18:06:43.001Z</time></trkpt><trkpt lat="43.39312052417735" lon="-3.815160676095065"><ele>2.1999999999999997</ele><time>2026-04-30T18:06:44.001Z</time></trkpt><trkpt lat="43.3932290163726" lon="-3.815186582491221"><ele>2.6</ele><time>2026-04-30T18:06:45.001Z</time></trkpt><trkpt lat="43.393330511765846" lon="-3.815213040714678"><ele>3.0</ele><time>2026-04-30T18:06:46.001Z</time></trkpt><trkpt lat="43.39342981822691" lon="-3.8152385528471315"><ele>3.0</ele><time>2026-04-30T18:06:47.001Z</time></trkpt><trkpt lat="43.393527707934794" lon="-3.815260929583364"><ele>3.0</ele><time>2026-04-30T18:06:48.001Z</time></trkpt><trkpt lat="43.39361617266454" lon="-3.81528195707419"><ele>3.0</ele><time>2026-04-30T18:06:49.001Z</time></trkpt><trkpt lat="43.393698752616864" lon="-3.8153035970316838"><ele>3.0</ele><time>2026-04-30T18:06:50.001Z</time></trkpt><trkpt lat="43.39377768672855" lon="-3.815320102283922"><ele>3.0</ele><time>2026-04-30T18:06:51.001Z</time></trkpt><trkpt lat="43.39384801302573" lon="-3.8153288497406668"><ele>3.0</ele><time>2026-04-30T18:06:52.001Z</time></trkpt><trkpt lat="43.3939446564273" lon="-3.8153399505584598"><ele>3.3333333333333335</ele><time>2026-04-30T18:06:54.001Z</time></trkpt><trkpt lat="43.39401620861357" lon="-3.8153089141125074"><ele>3.666666666666667</ele><time>2026-04-30T18:06:57.001Z</time></trkpt><trkpt lat="43.39410627138899" lon="-3.815238707597852"><ele>4.0</ele><time>2026-04-30T18:06:59.001Z</time></trkpt><trkpt lat="43.39416991960264" lon="-3.8152013771734765"><ele>4.333333333333334</ele><time>2026-04-30T18:07:00.001Z</time></trkpt><trkpt lat="43.394242630453824" lon="-3.815174655991358"><ele>4.666666666666667</ele><time>2026-04-30T18:07:01.001Z</time></trkpt><trkpt lat="43.394320029716035" lon="-3.8151732929010986"><ele>5.0</ele><time>2026-04-30T18:07:02.001Z</time></trkpt><trkpt lat="43.394392884707095" lon="-3.815212029013384"><ele>5.0</ele><time>2026-04-30T18:07:03.001Z</time></trkpt><trkpt lat="43.3944579294701" lon="-3.815247478298228"><ele>5.0</ele><time>2026-04-30T18:07:04.001Z</time></trkpt><trkpt lat="43.394487215664675" lon="-3.815378554818879"><ele>5.0</ele><time>2026-04-30T18:07:05.001Z</time></trkpt><trkpt lat="43.394504958281445" lon="-3.81550192078861"><ele>5.0</ele><time>2026-04-30T18:07:06.001Z</time></trkpt><trkpt lat="43.39453752855971" lon="-3.8155882515417816"><ele>5.0</ele><time>2026-04-30T18:07:07.001Z</time></trkpt><trkpt lat="43.394587406268855" lon="-3.815662444810884"><ele>5.0</ele><time>2026-04-30T18:07:08.001Z</time></trkpt><trkpt lat="43.3946492116448" lon="-3.8157233849344925"><ele>5.285714285714286</ele><time>2026-04-30T18:07:09.001Z</time></trkpt><trkpt lat="43.394715846350664" lon="-3.815762048441293"><ele>5.571428571428571</ele><time>2026-04-30T18:07:10.001Z</time></trkpt><trkpt lat="43.39478307696677" lon="-3.815795016869941"><ele>5.857142857142858</ele><time>2026-04-30T18:07:11.001Z</time></trkpt><trkpt lat="43.39484565085778" lon="-3.8158405634961476"><ele>6.142857142857142</ele><time>2026-04-30T18:07:12.001Z</time></trkpt><trkpt lat="43.39490516898309" lon="-3.815898918385852"><ele>6.428571428571429</ele><time>2026-04-30T18:07:13.001Z</time></trkpt><trkpt lat="43.3949747694868" lon="-3.8159470875552435"><ele>6.714285714285714</ele><time>2026-04-30T18:07:14.001Z</time></trkpt><trkpt lat="43.3950346184291" lon="-3.816019357325297"><ele>7.0</ele><time>2026-04-30T18:07:15.001Z</time></trkpt><trkpt lat="43.395075486969645" lon="-3.816109754771543"><ele>6.428571428571429</ele><time>2026-04-30T18:07:16.001Z</time></trkpt><trkpt lat="43.3951384386145" lon="-3.816173793438632"><ele>5.857142857142857</ele><time>2026-04-30T18:07:17.001Z</time></trkpt><trkpt lat="43.395174278846916" lon="-3.816268380902369"><ele>5.285714285714286</ele><time>2026-04-30T18:07:18.001Z</time></trkpt><trkpt lat="43.39522547252281" lon="-3.8163386489155893"><ele>4.714285714285714</ele><time>2026-04-30T18:07:19.001Z</time></trkpt><trkpt lat="43.39527039558242" lon="-3.8164092863012025"><ele>4.142857142857142</ele><time>2026-04-30T18:07:20.001Z</time></trkpt><trkpt lat="43.39530834857977" lon="-3.8164850745036234"><ele>3.571428571428571</ele><time>2026-04-30T18:07:21.001Z</time></trkpt><trkpt lat="43.395351986184835" lon="-3.8165559783003977"><ele>3.0</ele><time>2026-04-30T18:07:22.001Z</time></trkpt><trkpt lat="43.39539971271791" lon="-3.8166267187562344"><ele>3.0</ele><time>2026-04-30T18:07:23.001Z</time></trkpt><trkpt lat="43.395448343736525" lon="-3.81670847626078"><ele>3.0</ele><time>2026-04-30T18:07:24.001Z</time></trkpt><trkpt lat="43.39549888043681" lon="-3.8167943792591963"><ele>3.0</ele><time>2026-04-30T18:07:25.001Z</time></trkpt><trkpt lat="43.395550033189316" lon="-3.8168784758173224"><ele>3.0</ele><time>2026-04-30T18:07:26.001Z</time></trkpt><trkpt lat="43.39560739629871" lon="-3.816966403526565"><ele>3.0</ele><time>2026-04-30T18:07:27.001Z</time></trkpt><trkpt lat="43.39566072111948" lon="-3.8170620031882008"><ele>3.0</ele><time>2026-04-30T18:07:28.001Z</time></trkpt><trkpt lat="43.395711486496985" lon="-3.8171616137401947"><ele>3.666666666666667</ele><time>2026-04-30T18:07:29.001Z</time></trkpt><trkpt lat="43.39576389598949" lon="-3.8172519522267456"><ele>4.333333333333334</ele><time>2026-04-30T18:07:30.001Z</time></trkpt><trkpt lat="43.395820393805785" lon="-3.8173368167997324"><ele>5.0</ele><time>2026-04-30T18:07:31.001Z</time></trkpt><trkpt lat="43.39587328252098" lon="-3.817421837323875"><ele>5.666666666666667</ele><time>2026-04-30T18:07:32.001Z</time></trkpt><trkpt lat="43.39592514998335" lon="-3.817508136651815"><ele>6.333333333333334</ele><time>2026-04-30T18:07:33.001Z</time></trkpt><trkpt lat="43.395970607624236" lon="-3.817598151030595"><ele>7.0</ele><time>2026-04-30T18:07:34.001Z</time></trkpt><trkpt lat="43.39601379268945" lon="-3.817670381363645"><ele>7.428571428571429</ele><time>2026-04-30T18:07:35.001Z</time></trkpt><trkpt lat="43.396056015070904" lon="-3.8177430995245087"><ele>7.857142857142858</ele><time>2026-04-30T18:07:36.001Z</time></trkpt><trkpt lat="43.39609950741134" lon="-3.817816727781884"><ele>8.285714285714285</ele><time>2026-04-30T18:07:37.001Z</time></trkpt><trkpt lat="43.39614427629422" lon="-3.8178889148482646"><ele>8.714285714285715</ele><time>2026-04-30T18:07:38.001Z</time></trkpt><trkpt lat="43.39618524155555" lon="-3.8179638561137343"><ele>9.142857142857142</ele><time>2026-04-30T18:07:39.001Z</time></trkpt><trkpt lat="43.39622679526343" lon="-3.8180413669197892"><ele>9.571428571428571</ele><time>2026-04-30T18:07:40.001Z</time></trkpt><trkpt lat="43.39626791996065" lon="-3.8181167405128913"><ele>10.0</ele><time>2026-04-30T18:07:41.001Z</time></trkpt><trkpt lat="43.39631393383856" lon="-3.818191210782375"><ele>10.0</ele><time>2026-04-30T18:07:42.001Z</time></trkpt><trkpt lat="43.396355826114075" lon="-3.818266077140446"><ele>10.0</ele><time>2026-04-30T18:07:43.001Z</time></trkpt><trkpt lat="43.396399204540025" lon="-3.8183365387529475"><ele>10.0</ele><time>2026-04-30T18:07:44.001Z</time></trkpt><trkpt lat="43.39644258514814" lon="-3.8184090899477128"><ele>10.0</ele><time>2026-04-30T18:07:45.001Z</time></trkpt><trkpt lat="43.39648644462108" lon="-3.8184832964723987"><ele>10.0</ele><time>2026-04-30T18:07:46.001Z</time></trkpt><trkpt lat="43.396528019541265" lon="-3.818552713073064"><ele>10.0</ele><time>2026-04-30T18:07:47.001Z</time></trkpt><trkpt lat="43.396571232265806" lon="-3.818625900775316"><ele>10.0</ele><time>2026-04-30T18:07:48.001Z</time></trkpt><trkpt lat="43.396611328982324" lon="-3.8186947780303235"><ele>9.857142857142858</ele><time>2026-04-30T18:07:49.002Z</time></trkpt><trkpt lat="43.396653177221985" lon="-3.8187649659323726"><ele>9.714285714285715</ele><time>2026-04-30T18:07:50.002Z</time></trkpt><trkpt lat="43.39669611089642" lon="-3.8188337662461667"><ele>9.571428571428573</ele><time>2026-04-30T18:07:51.002Z</time></trkpt><trkpt lat="43.39673307477904" lon="-3.818905971080424"><ele>9.428571428571429</ele><time>2026-04-30T18:07:52.002Z</time></trkpt><trkpt lat="43.39677127186534" lon="-3.8189768257873835"><ele>9.285714285714286</ele><time>2026-04-30T18:07:53.002Z</time></trkpt><trkpt lat="43.39681648208574" lon="-3.8190447522231574"><ele>9.142857142857144</ele><time>2026-04-30T18:07:54.002Z</time></trkpt><trkpt lat="43.39689599725789" lon="-3.819166530055184"><ele>9.0</ele><time>2026-04-30T18:07:56.002Z</time></trkpt><trkpt lat="43.39696934607707" lon="-3.8192908610799137"><ele>8.5</ele><time>2026-04-30T18:07:58.002Z</time></trkpt><trkpt lat="43.39704350408434" lon="-3.8194260421571524"><ele>8.0</ele><time>2026-04-30T18:08:00.002Z</time></trkpt><trkpt lat="43.39711750481251" lon="-3.819540085846045"><ele>7.5</ele><time>2026-04-30T18:08:02.002Z</time></trkpt><trkpt lat="43.39719570308995" lon="-3.819642623642164"><ele>7.0</ele><time>2026-04-30T18:08:04.002Z</time></trkpt><trkpt lat="43.3972999524498" lon="-3.819719512951867"><ele>7.500000000000001</ele><time>2026-04-30T18:08:06.002Z</time></trkpt><trkpt lat="43.397343422384175" lon="-3.8198008519223716"><ele>8.0</ele><time>2026-04-30T18:08:07.002Z</time></trkpt><trkpt lat="43.39737762071378" lon="-3.819880414823798"><ele>8.5</ele><time>2026-04-30T18:08:08.002Z</time></trkpt><trkpt lat="43.397383628246224" lon="-3.8199855937874028"><ele>9.0</ele><time>2026-04-30T18:08:09.002Z</time></trkpt><trkpt lat="43.397429163534184" lon="-3.8200792968930553"><ele>9.5</ele><time>2026-04-30T18:08:10.002Z</time></trkpt><trkpt lat="43.39747592790764" lon="-3.8201574707921844"><ele>10.0</ele><time>2026-04-30T18:08:11.002Z</time></trkpt><trkpt lat="43.39752547036884" lon="-3.820239472936079"><ele>10.0</ele><time>2026-04-30T18:08:12.002Z</time></trkpt><trkpt lat="43.39756848641024" lon="-3.820313777782064"><ele>10.0</ele><time>2026-04-30T18:08:13.002Z</time></trkpt><trkpt lat="43.397608575715" lon="-3.820390518576371"><ele>10.0</ele><time>2026-04-30T18:08:14.002Z</time></trkpt><trkpt lat="43.397684243221235" lon="-3.820520087115441"><ele>10.0</ele><time>2026-04-30T18:08:16.002Z</time></trkpt><trkpt lat="43.39776079224996" lon="-3.8206545929915507"><ele>10.0</ele><time>2026-04-30T18:08:18Z</time></trkpt><trkpt lat="43.397843417613764" lon="-3.8207920681974024"><ele>10.0</ele><time>2026-04-30T18:08:20Z</time></trkpt><trkpt lat="43.39788473733795" lon="-3.820864662131449"><ele>10.0</ele><time>2026-04-30T18:08:21Z</time></trkpt><trkpt lat="43.39793265960311" lon="-3.8209316893533476"><ele>10.0</ele><time>2026-04-30T18:08:22Z</time></trkpt><trkpt lat="43.39797946790782" lon="-3.820997159988196"><ele>10.0</ele><time>2026-04-30T18:08:23Z</time></trkpt><trkpt lat="43.398028299690836" lon="-3.821073827823925"><ele>10.0</ele><time>2026-04-30T18:08:24Z</time></trkpt><trkpt lat="43.39807577679168" lon="-3.821151890069401"><ele>10.0</ele><time>2026-04-30T18:08:25Z</time></trkpt><trkpt lat="43.39813788649879" lon="-3.821218360331161"><ele>10.0</ele><time>2026-04-30T18:08:26Z</time></trkpt><trkpt lat="43.398191214358384" lon="-3.8212793879933598"><ele>11.0</ele><time>2026-04-30T18:08:27Z</time></trkpt><trkpt lat="43.39825235759984" lon="-3.821337612365539"><ele>12.0</ele><time>2026-04-30T18:08:28Z</time></trkpt><trkpt lat="43.39831110518576" lon="-3.8213796453123856"><ele>13.0</ele><time>2026-04-30T18:08:29Z</time></trkpt><trkpt lat="43.39838387335835" lon="-3.821411271368069"><ele>14.0</ele><time>2026-04-30T18:08:30Z</time></trkpt><trkpt lat="43.398442472852594" lon="-3.8214920654816726"><ele>14.999999999999998</ele><time>2026-04-30T18:08:31Z</time></trkpt><trkpt lat="43.398458954645044" lon="-3.8216215678315564"><ele>16.0</ele><time>2026-04-30T18:08:32Z</time></trkpt><trkpt lat="43.39849976919493" lon="-3.821720531363264"><ele>15.999999999999998</ele><time>2026-04-30T18:08:33Z</time></trkpt><trkpt lat="43.39855317280502" lon="-3.821811060629538"><ele>16.0</ele><time>2026-04-30T18:08:34Z</time></trkpt><trkpt lat="43.398608648146364" lon="-3.821896595625629"><ele>16.0</ele><time>2026-04-30T18:08:35Z</time></trkpt><trkpt lat="43.398663187428184" lon="-3.821974239692376"><ele>16.0</ele><time>2026-04-30T18:08:36Z</time></trkpt><trkpt lat="43.398713863769466" lon="-3.822036523795513"><ele>15.999999999999998</ele><time>2026-04-30T18:08:37Z</time></trkpt><trkpt lat="43.39876123104831" lon="-3.822096365809042"><ele>16.0</ele><time>2026-04-30T18:08:38Z</time></trkpt><trkpt lat="43.39885305722001" lon="-3.822222525606691"><ele>17.0</ele><time>2026-04-30T18:08:40Z</time></trkpt><trkpt lat="43.39890947940356" lon="-3.822285183561583"><ele>18.0</ele><time>2026-04-30T18:08:41Z</time></trkpt><trkpt lat="43.398967084229454" lon="-3.822340559011369"><ele>19.0</ele><time>2026-04-30T18:08:42Z</time></trkpt><trkpt lat="43.399025334468305" lon="-3.8224097905713426"><ele>20.0</ele><time>2026-04-30T18:08:43Z</time></trkpt><trkpt lat="43.3990870313919" lon="-3.82246603234311"><ele>21.0</ele><time>2026-04-30T18:08:44Z</time></trkpt><trkpt lat="43.39915495204908" lon="-3.8225279411644917"><ele>22.0</ele><time>2026-04-30T18:08:45Z</time></trkpt><trkpt lat="43.399215182188605" lon="-3.8225904972823956"><ele>21.714285714285715</ele><time>2026-04-30T18:08:46Z</time></trkpt><trkpt lat="43.399279945550575" lon="-3.8226550016141343"><ele>21.428571428571427</ele><time>2026-04-30T18:08:47Z</time></trkpt><trkpt lat="43.39933803532061" lon="-3.8227122556209334"><ele>21.142857142857142</ele><time>2026-04-30T18:08:48Z</time></trkpt><trkpt lat="43.39940118045161" lon="-3.822776095478086"><ele>20.857142857142858</ele><time>2026-04-30T18:08:49Z</time></trkpt><trkpt lat="43.39945504543693" lon="-3.82283229694694"><ele>20.571428571428573</ele><time>2026-04-30T18:08:50Z</time></trkpt><trkpt lat="43.399514632374625" lon="-3.822876698012589"><ele>20.285714285714285</ele><time>2026-04-30T18:08:51Z</time></trkpt><trkpt lat="43.3995663554888" lon="-3.8229419753313807"><ele>20.0</ele><time>2026-04-30T18:08:52Z</time></trkpt><trkpt lat="43.399608872263" lon="-3.8230155169699263"><ele>20.0</ele><time>2026-04-30T18:08:53Z</time></trkpt><trkpt lat="43.39964890972629" lon="-3.8230850239356817"><ele>20.0</ele><time>2026-04-30T18:08:54Z</time></trkpt><trkpt lat="43.39972224907974" lon="-3.823206791069041"><ele>20.0</ele><time>2026-04-30T18:08:56Z</time></trkpt><trkpt lat="43.39976876673981" lon="-3.8232929169291876"><ele>20.0</ele><time>2026-04-30T18:08:58Z</time></trkpt><trkpt lat="43.39982425766034" lon="-3.8233536169776556"><ele>20.0</ele><time>2026-04-30T18:09:09.001Z</time></trkpt><trkpt lat="43.399884303378236" lon="-3.823463884410687"><ele>20.0</ele><time>2026-04-30T18:09:12.001Z</time></trkpt><trkpt lat="43.39992453223335" lon="-3.82354261145311"><ele>20.4</ele><time>2026-04-30T18:09:14.001Z</time></trkpt><trkpt lat="43.3999730826846" lon="-3.823633936418942"><ele>20.8</ele><time>2026-04-30T18:09:16.001Z</time></trkpt><trkpt lat="43.400027826357125" lon="-3.8237533486782156"><ele>21.200000000000003</ele><time>2026-04-30T18:09:18.001Z</time></trkpt><trkpt lat="43.40008822181083" lon="-3.8238676921301806"><ele>21.6</ele><time>2026-04-30T18:09:20.001Z</time></trkpt><trkpt lat="43.400145849453274" lon="-3.823997761573782"><ele>22.0</ele><time>2026-04-30T18:09:22.001Z</time></trkpt><trkpt lat="43.40021587562884" lon="-3.824125495288785"><ele>22.0</ele><time>2026-04-30T18:09:24.001Z</time></trkpt><trkpt lat="43.40028874695387" lon="-3.8242441248078127"><ele>22.0</ele><time>2026-04-30T18:09:26.001Z</time></trkpt><trkpt lat="43.400360245458394" lon="-3.824376891202671"><ele>22.0</ele><time>2026-04-30T18:09:28.001Z</time></trkpt><trkpt lat="43.40042210558511" lon="-3.8244918495351894"><ele>22.0</ele><time>2026-04-30T18:09:30.001Z</time></trkpt><trkpt lat="43.40047290406692" lon="-3.824584773904149"><ele>22.0</ele><time>2026-04-30T18:09:32.001Z</time></trkpt><trkpt lat="43.400508143703526" lon="-3.8246639590379217"><ele>21.400000000000002</ele><time>2026-04-30T18:09:34.001Z</time></trkpt><trkpt lat="43.40055046989861" lon="-3.8247509656105185"><ele>20.8</ele><time>2026-04-30T18:09:37.001Z</time></trkpt><trkpt lat="43.400598747041315" lon="-3.8248439251986923"><ele>20.2</ele><time>2026-04-30T18:09:39.001Z</time></trkpt><trkpt lat="43.40065747022726" lon="-3.8249678923498314"><ele>19.6</ele><time>2026-04-30T18:09:41.001Z</time></trkpt><trkpt lat="43.400709812243264" lon="-3.825075666420002"><ele>19.0</ele><time>2026-04-30T18:09:43.001Z</time></trkpt><trkpt lat="43.400799167064584" lon="-3.8251880897541657"><ele>19.0</ele><time>2026-04-30T18:09:45.001Z</time></trkpt><trkpt lat="43.400843951845694" lon="-3.8253522798655153"><ele>19.0</ele><time>2026-04-30T18:09:47.001Z</time></trkpt><trkpt lat="43.400851174862844" lon="-3.8255165734817504"><ele>19.0</ele><time>2026-04-30T18:09:49.001Z</time></trkpt><trkpt lat="43.40087809262046" lon="-3.825666717740698"><ele>19.0</ele><time>2026-04-30T18:09:51.001Z</time></trkpt><trkpt lat="43.40091591864817" lon="-3.8258266132487715"><ele>19.0</ele><time>2026-04-30T18:09:53.001Z</time></trkpt><trkpt lat="43.40093714698424" lon="-3.8259111411703715"><ele>19.0</ele><time>2026-04-30T18:09:54.001Z</time></trkpt><trkpt lat="43.400958650820655" lon="-3.825994882903296"><ele>19.0</ele><time>2026-04-30T18:09:55.001Z</time></trkpt><trkpt lat="43.40100508011972" lon="-3.8261236040172153"><ele>19.0</ele><time>2026-04-30T18:09:57.001Z</time></trkpt><trkpt lat="43.401042249656044" lon="-3.8262105397481165"><ele>19.0</ele><time>2026-04-30T18:09:59.001Z</time></trkpt><trkpt lat="43.40105619012259" lon="-3.826322927289389"><ele>19.0</ele><time>2026-04-30T18:10:46Z</time></trkpt><trkpt lat="43.40108850384522" lon="-3.8264088923664787"><ele>19.2</ele><time>2026-04-30T18:10:47Z</time></trkpt><trkpt lat="43.40115527030519" lon="-3.8265594699310954"><ele>19.4</ele><time>2026-04-30T18:10:49Z</time></trkpt><trkpt lat="43.40119977856199" lon="-3.8266449112779015"><ele>19.6</ele><time>2026-04-30T18:10:50Z</time></trkpt><trkpt lat="43.40124688239246" lon="-3.8267360540910045"><ele>19.8</ele><time>2026-04-30T18:10:51Z</time></trkpt><trkpt lat="43.40129978019074" lon="-3.826826612716709"><ele>20.0</ele><time>2026-04-30T18:10:52Z</time></trkpt><trkpt lat="43.40136018704742" lon="-3.826916849112512"><ele>20.0</ele><time>2026-04-30T18:10:53Z</time></trkpt><trkpt lat="43.4014331427638" lon="-3.8269907913636656"><ele>20.0</ele><time>2026-04-30T18:10:54Z</time></trkpt><trkpt lat="43.40148544097104" lon="-3.827096508857354"><ele>20.0</ele><time>2026-04-30T18:10:55Z</time></trkpt><trkpt lat="43.40155226143916" lon="-3.8271853595110485"><ele>20.0</ele><time>2026-04-30T18:10:56Z</time></trkpt><trkpt lat="43.40161969440845" lon="-3.8272755603876543"><ele>20.0</ele><time>2026-04-30T18:10:57Z</time></trkpt><trkpt lat="43.40168687208812" lon="-3.827365219876726"><ele>20.0</ele><time>2026-04-30T18:10:58Z</time></trkpt><trkpt lat="43.40175376681771" lon="-3.827462812401066"><ele>20.0</ele><time>2026-04-30T18:10:59Z</time></trkpt><trkpt lat="43.401822744247625" lon="-3.8275576620892036"><ele>20.0</ele><time>2026-04-30T18:11:00Z</time></trkpt><trkpt lat="43.40189288001327" lon="-3.8276519477300974"><ele>20.0</ele><time>2026-04-30T18:11:01Z</time></trkpt><trkpt lat="43.40196220682634" lon="-3.8277510115532305"><ele>20.0</ele><time>2026-04-30T18:11:02Z</time></trkpt><trkpt lat="43.40203429107612" lon="-3.8278486463652666"><ele>19.6</ele><time>2026-04-30T18:11:03Z</time></trkpt><trkpt lat="43.40210249453087" lon="-3.82794172546483"><ele>19.2</ele><time>2026-04-30T18:11:04Z</time></trkpt><trkpt lat="43.40216975905406" lon="-3.828034915820175"><ele>18.8</ele><time>2026-04-30T18:11:05Z</time></trkpt><trkpt lat="43.40223650576195" lon="-3.828132852307925"><ele>18.4</ele><time>2026-04-30T18:11:06Z</time></trkpt><trkpt lat="43.40229995474191" lon="-3.8282353309078148"><ele>18.0</ele><time>2026-04-30T18:11:07Z</time></trkpt><trkpt lat="43.402357994401434" lon="-3.8283482769989168"><ele>18.0</ele><time>2026-04-30T18:11:08Z</time></trkpt><trkpt lat="43.40241625415925" lon="-3.8284586132726903"><ele>18.0</ele><time>2026-04-30T18:11:09Z</time></trkpt><trkpt lat="43.402472519471615" lon="-3.8285700928573094"><ele>18.0</ele><time>2026-04-30T18:11:10Z</time></trkpt><trkpt lat="43.40253172096929" lon="-3.828684666939214"><ele>18.0</ele><time>2026-04-30T18:11:11.001Z</time></trkpt><trkpt lat="43.40258685454813" lon="-3.8287989644051326"><ele>18.0</ele><time>2026-04-30T18:11:12.001Z</time></trkpt><trkpt lat="43.40264547962513" lon="-3.8289069578076633"><ele>18.4</ele><time>2026-04-30T18:11:13.001Z</time></trkpt><trkpt lat="43.402703410937676" lon="-3.8290160299420153"><ele>18.8</ele><time>2026-04-30T18:11:14.001Z</time></trkpt><trkpt lat="43.402759761561015" lon="-3.8291267969076674"><ele>19.2</ele><time>2026-04-30T18:11:15.001Z</time></trkpt><trkpt lat="43.40281536777528" lon="-3.829231800496992"><ele>19.6</ele><time>2026-04-30T18:11:16.001Z</time></trkpt><trkpt lat="43.402867765667146" lon="-3.8293360480706844"><ele>20.0</ele><time>2026-04-30T18:11:17.001Z</time></trkpt><trkpt lat="43.402923127333615" lon="-3.82944383315416"><ele>20.2</ele><time>2026-04-30T18:11:18.001Z</time></trkpt><trkpt lat="43.4029893162505" lon="-3.8295455676505297"><ele>20.4</ele><time>2026-04-30T18:11:19.001Z</time></trkpt><trkpt lat="43.40304221759775" lon="-3.8296672930947104"><ele>20.6</ele><time>2026-04-30T18:11:20.001Z</time></trkpt><trkpt lat="43.40307038616793" lon="-3.829803582258411"><ele>20.8</ele><time>2026-04-30T18:11:21.001Z</time></trkpt><trkpt lat="43.40310479328521" lon="-3.829932556916441"><ele>21.0</ele><time>2026-04-30T18:11:22.001Z</time></trkpt><trkpt lat="43.40313648606273" lon="-3.830062821044423"><ele>19.400000000000002</ele><time>2026-04-30T18:11:23.001Z</time></trkpt><trkpt lat="43.40316397713658" lon="-3.8302055572689033"><ele>17.8</ele><time>2026-04-30T18:11:24.001Z</time></trkpt><trkpt lat="43.40319039778425" lon="-3.830342537541037"><ele>16.200000000000003</ele><time>2026-04-30T18:11:25.001Z</time></trkpt><trkpt lat="43.40321930504533" lon="-3.8304886817197485"><ele>14.600000000000001</ele><time>2026-04-30T18:11:26.001Z</time></trkpt><trkpt lat="43.40325389908044" lon="-3.8306351582668117"><ele>13.0</ele><time>2026-04-30T18:11:27.001Z</time></trkpt><trkpt lat="43.40329847327451" lon="-3.8307752605096836"><ele>13.0</ele><time>2026-04-30T18:11:28.001Z</time></trkpt><trkpt lat="43.403360554555306" lon="-3.8309014432471025"><ele>13.0</ele><time>2026-04-30T18:11:29.001Z</time></trkpt><trkpt lat="43.40343752776784" lon="-3.831011005708125"><ele>13.0</ele><time>2026-04-30T18:11:30.001Z</time></trkpt><trkpt lat="43.40352055923451" lon="-3.8311102563251107"><ele>13.0</ele><time>2026-04-30T18:11:31.001Z</time></trkpt><trkpt lat="43.40360403879192" lon="-3.831209486583121"><ele>13.0</ele><time>2026-04-30T18:11:32.001Z</time></trkpt><trkpt lat="43.40368691754132" lon="-3.8313046666110697"><ele>12.8</ele><time>2026-04-30T18:11:33.001Z</time></trkpt><trkpt lat="43.4037643521335" lon="-3.8314103798185957"><ele>12.600000000000001</ele><time>2026-04-30T18:11:34.001Z</time></trkpt><trkpt lat="43.403841340519" lon="-3.8315174493690676"><ele>12.399999999999999</ele><time>2026-04-30T18:11:35.001Z</time></trkpt><trkpt lat="43.40392195236291" lon="-3.831596865656438"><ele>12.2</ele><time>2026-04-30T18:11:36.001Z</time></trkpt><trkpt lat="43.40397830433504" lon="-3.831669165333634"><ele>12.0</ele><time>2026-04-30T18:11:37.001Z</time></trkpt><trkpt lat="43.404034174399264" lon="-3.831743622468783"><ele>13.0</ele><time>2026-04-30T18:11:38.001Z</time></trkpt><trkpt lat="43.40408839070451" lon="-3.831823879433293"><ele>14.0</ele><time>2026-04-30T18:11:39.001Z</time></trkpt><trkpt lat="43.404133191638465" lon="-3.8318995903613193"><ele>15.0</ele><time>2026-04-30T18:11:40.001Z</time></trkpt><trkpt lat="43.404266293428655" lon="-3.8321405485730864"><ele>16.0</ele><time>2026-04-30T18:11:41.001Z</time></trkpt><trkpt lat="43.40430533645307" lon="-3.8322748941890783"><ele>16.0</ele><time>2026-04-30T18:11:42.001Z</time></trkpt><trkpt lat="43.40433185772552" lon="-3.832417889973648"><ele>16.0</ele><time>2026-04-30T18:11:43.001Z</time></trkpt><trkpt lat="43.404348204972585" lon="-3.832566562675719"><ele>16.0</ele><time>2026-04-30T18:11:44.001Z</time></trkpt><trkpt lat="43.40436033244692" lon="-3.832718334281769"><ele>16.0</ele><time>2026-04-30T18:11:45.001Z</time></trkpt><trkpt lat="43.40438321835836" lon="-3.8328681826619375"><ele>16.0</ele><time>2026-04-30T18:11:46.001Z</time></trkpt><trkpt lat="43.40440933655102" lon="-3.833017438164994"><ele>16.0</ele><time>2026-04-30T18:11:47.001Z</time></trkpt><trkpt lat="43.40443054396834" lon="-3.8331653834574757"><ele>16.0</ele><time>2026-04-30T18:11:48.001Z</time></trkpt><trkpt lat="43.404456451576614" lon="-3.83331335139164"><ele>16.0</ele><time>2026-04-30T18:11:49.001Z</time></trkpt><trkpt lat="43.40447965069568" lon="-3.8334599774930926"><ele>16.0</ele><time>2026-04-30T18:11:50.001Z</time></trkpt><trkpt lat="43.40450119058472" lon="-3.8336066592229345"><ele>16.0</ele><time>2026-04-30T18:11:51.001Z</time></trkpt><trkpt lat="43.40452125934798" lon="-3.8337530187327897"><ele>15.25</ele><time>2026-04-30T18:11:52.001Z</time></trkpt><trkpt lat="43.40454999573187" lon="-3.8339035271238404"><ele>14.5</ele><time>2026-04-30T18:11:53.001Z</time></trkpt><trkpt lat="43.40457936484876" lon="-3.8340604425995535"><ele>13.75</ele><time>2026-04-30T18:11:54.001Z</time></trkpt><trkpt lat="43.40459779775921" lon="-3.834214479835525"><ele>13.0</ele><time>2026-04-30T18:11:55.001Z</time></trkpt><trkpt lat="43.404617394323616" lon="-3.8343634758760525"><ele>13.0</ele><time>2026-04-30T18:11:56.001Z</time></trkpt><trkpt lat="43.4046396438663" lon="-3.834521006334598"><ele>13.0</ele><time>2026-04-30T18:11:57.001Z</time></trkpt><trkpt lat="43.40466209753737" lon="-3.834668925804972"><ele>13.0</ele><time>2026-04-30T18:11:58.001Z</time></trkpt><trkpt lat="43.40468250159147" lon="-3.8348189850983236"><ele>13.0</ele><time>2026-04-30T18:11:59.001Z</time></trkpt><trkpt lat="43.40470786896575" lon="-3.8349710986092522"><ele>11.6</ele><time>2026-04-30T18:12:00.001Z</time></trkpt><trkpt lat="43.40472971041716" lon="-3.8351211185834857"><ele>10.200000000000001</ele><time>2026-04-30T18:12:01.001Z</time></trkpt><trkpt lat="43.404753369165306" lon="-3.8352711094977634"><ele>8.8</ele><time>2026-04-30T18:12:02.001Z</time></trkpt><trkpt lat="43.40477891734696" lon="-3.8354133748130055"><ele>7.4</ele><time>2026-04-30T18:12:03.001Z</time></trkpt><trkpt lat="43.404801180003574" lon="-3.8355650086326443"><ele>6.0</ele><time>2026-04-30T18:12:04.001Z</time></trkpt><trkpt lat="43.404825638051875" lon="-3.835713302365661"><ele>6.0</ele><time>2026-04-30T18:12:05.001Z</time></trkpt><trkpt lat="43.404844004668604" lon="-3.8358644591918867"><ele>6.0</ele><time>2026-04-30T18:12:06.001Z</time></trkpt><trkpt lat="43.4048635140473" lon="-3.835999154620689"><ele>6.0</ele><time>2026-04-30T18:12:07.001Z</time></trkpt><trkpt lat="43.40488742872908" lon="-3.836144620619739"><ele>6.0</ele><time>2026-04-30T18:12:08.001Z</time></trkpt><trkpt lat="43.40491837295549" lon="-3.836275788004771"><ele>6.0</ele><time>2026-04-30T18:12:09.001Z</time></trkpt><trkpt lat="43.404942607951405" lon="-3.8363958740917252"><ele>5.833333333333333</ele><time>2026-04-30T18:12:10.001Z</time></trkpt><trkpt lat="43.40496090913979" lon="-3.836516580842414"><ele>5.666666666666667</ele><time>2026-04-30T18:12:11.001Z</time></trkpt><trkpt lat="43.40498638540921" lon="-3.836636627590726"><ele>5.5</ele><time>2026-04-30T18:12:12.001Z</time></trkpt><trkpt lat="43.40501347621825" lon="-3.836748412929973"><ele>5.333333333333334</ele><time>2026-04-30T18:12:13.001Z</time></trkpt><trkpt lat="43.405051561149975" lon="-3.836842631729463"><ele>5.166666666666667</ele><time>2026-04-30T18:12:14.001Z</time></trkpt><trkpt lat="43.40510426532448" lon="-3.8369217262835478"><ele>5.0</ele><time>2026-04-30T18:12:15.001Z</time></trkpt><trkpt lat="43.405178024711844" lon="-3.8369832091623746"><ele>5.0</ele><time>2026-04-30T18:12:16.001Z</time></trkpt><trkpt lat="43.405251677764774" lon="-3.8370561755985615"><ele>5.0</ele><time>2026-04-30T18:12:17.002Z</time></trkpt><trkpt lat="43.405313695957354" lon="-3.8371508460609367"><ele>5.0</ele><time>2026-04-30T18:12:18.002Z</time></trkpt><trkpt lat="43.40534056846933" lon="-3.8372649193661523"><ele>5.0</ele><time>2026-04-30T18:12:19.002Z</time></trkpt><trkpt lat="43.405338873110686" lon="-3.837389388491398"><ele>5.0</ele><time>2026-04-30T18:12:20.002Z</time></trkpt><trkpt lat="43.405316212404244" lon="-3.837508081665194"><ele>4.8</ele><time>2026-04-30T18:12:21.002Z</time></trkpt><trkpt lat="43.405307342960654" lon="-3.837644537629391"><ele>4.6</ele><time>2026-04-30T18:12:22.002Z</time></trkpt><trkpt lat="43.40534555609768" lon="-3.837756884041841"><ele>4.4</ele><time>2026-04-30T18:12:23.002Z</time></trkpt><trkpt lat="43.405403671306686" lon="-3.8378696044315403"><ele>4.2</ele><time>2026-04-30T18:12:24.002Z</time></trkpt><trkpt lat="43.405456904980625" lon="-3.8379966586926324"><ele>4.0</ele><time>2026-04-30T18:12:25.002Z</time></trkpt><trkpt lat="43.40552244395314" lon="-3.8381079971733625"><ele>3.8000000000000003</ele><time>2026-04-30T18:12:26.002Z</time></trkpt><trkpt lat="43.40557629797088" lon="-3.838231097123376"><ele>3.6000000000000005</ele><time>2026-04-30T18:12:27.002Z</time></trkpt><trkpt lat="43.40562653765875" lon="-3.838359943476426"><ele>3.4</ele><time>2026-04-30T18:12:28.002Z</time></trkpt><trkpt lat="43.405666809409986" lon="-3.8384986572500925"><ele>3.2</ele><time>2026-04-30T18:12:29Z</time></trkpt><trkpt lat="43.405709695779215" lon="-3.8386324594147627"><ele>3.0</ele><time>2026-04-30T18:12:30Z</time></trkpt><trkpt lat="43.40574780671649" lon="-3.838775149738799"><ele>3.5999999999999996</ele><time>2026-04-30T18:12:31Z</time></trkpt><trkpt lat="43.405781008268924" lon="-3.838917328818703"><ele>4.199999999999999</ele><time>2026-04-30T18:12:32Z</time></trkpt><trkpt lat="43.405802423358054" lon="-3.839062195776728"><ele>4.8</ele><time>2026-04-30T18:12:33Z</time></trkpt><trkpt lat="43.40582816369656" lon="-3.8392108602929"><ele>5.3999999999999995</ele><time>2026-04-30T18:12:34Z</time></trkpt><trkpt lat="43.405855890653584" lon="-3.839351306430296"><ele>6.0</ele><time>2026-04-30T18:12:35Z</time></trkpt><trkpt lat="43.40587552677821" lon="-3.839492145001812"><ele>6.0</ele><time>2026-04-30T18:12:36Z</time></trkpt><trkpt lat="43.405925216148766" lon="-3.8396094874357383"><ele>6.0</ele><time>2026-04-30T18:12:37Z</time></trkpt><trkpt lat="43.40596857378755" lon="-3.8397324356641187"><ele>6.0</ele><time>2026-04-30T18:12:38Z</time></trkpt><trkpt lat="43.4060190089308" lon="-3.8398525249327653"><ele>6.0</ele><time>2026-04-30T18:12:39Z</time></trkpt><trkpt lat="43.40607507333622" lon="-3.839967475831519"><ele>6.0</ele><time>2026-04-30T18:12:40Z</time></trkpt><trkpt lat="43.40613430479592" lon="-3.8400773800001553"><ele>6.6</ele><time>2026-04-30T18:12:41Z</time></trkpt><trkpt lat="43.40618525701803" lon="-3.8401991243145743"><ele>7.199999999999999</ele><time>2026-04-30T18:12:42Z</time></trkpt><trkpt lat="43.406248918073054" lon="-3.840298651573751"><ele>7.800000000000001</ele><time>2026-04-30T18:12:43Z</time></trkpt><trkpt lat="43.4063125671365" lon="-3.840401853488836"><ele>8.4</ele><time>2026-04-30T18:12:44Z</time></trkpt><trkpt lat="43.406375281632435" lon="-3.8405043596559745"><ele>9.0</ele><time>2026-04-30T18:12:45Z</time></trkpt><trkpt lat="43.40644090547771" lon="-3.840609657748233"><ele>9.4</ele><time>2026-04-30T18:12:46Z</time></trkpt><trkpt lat="43.406502846388" lon="-3.8407130441679422"><ele>9.8</ele><time>2026-04-30T18:12:47Z</time></trkpt><trkpt lat="43.406565172948845" lon="-3.84081648352547"><ele>10.200000000000001</ele><time>2026-04-30T18:12:48Z</time></trkpt><trkpt lat="43.40662954778919" lon="-3.840921216134946"><ele>10.600000000000001</ele><time>2026-04-30T18:12:49Z</time></trkpt><trkpt lat="43.40669280336655" lon="-3.84102505575863"><ele>11.0</ele><time>2026-04-30T18:12:50Z</time></trkpt><trkpt lat="43.40675471570448" lon="-3.841129084449751"><ele>11.600000000000001</ele><time>2026-04-30T18:12:51Z</time></trkpt><trkpt lat="43.40681978197548" lon="-3.8412316281025953"><ele>12.2</ele><time>2026-04-30T18:12:52Z</time></trkpt><trkpt lat="43.406881913340165" lon="-3.841340707215819"><ele>12.799999999999999</ele><time>2026-04-30T18:12:53Z</time></trkpt><trkpt lat="43.40694421535143" lon="-3.8414466009292036"><ele>13.399999999999999</ele><time>2026-04-30T18:12:54Z</time></trkpt><trkpt lat="43.40700851108252" lon="-3.8415481982252553"><ele>14.0</ele><time>2026-04-30T18:12:55Z</time></trkpt><trkpt lat="43.40707001039268" lon="-3.841652361369054"><ele>14.0</ele><time>2026-04-30T18:12:56Z</time></trkpt><trkpt lat="43.40713521420077" lon="-3.841756220102649"><ele>13.999999999999998</ele><time>2026-04-30T18:12:57Z</time></trkpt><trkpt lat="43.40720258554556" lon="-3.8418611647540786"><ele>13.999999999999998</ele><time>2026-04-30T18:12:58Z</time></trkpt><trkpt lat="43.40727968055689" lon="-3.8419638823852793"><ele>14.0</ele><time>2026-04-30T18:12:59Z</time></trkpt><trkpt lat="43.40736987136479" lon="-3.8420537371261814"><ele>14.0</ele><time>2026-04-30T18:13:00Z</time></trkpt><trkpt lat="43.40744305387907" lon="-3.8421493173525527"><ele>15.0</ele><time>2026-04-30T18:13:01Z</time></trkpt><trkpt lat="43.40753185226455" lon="-3.8422250534901807"><ele>15.999999999999998</ele><time>2026-04-30T18:13:02Z</time></trkpt><trkpt lat="43.40761052909509" lon="-3.8422945615387003"><ele>17.0</ele><time>2026-04-30T18:13:03Z</time></trkpt><trkpt lat="43.40765330379028" lon="-3.8423711425417104"><ele>18.0</ele><time>2026-04-30T18:13:04Z</time></trkpt><trkpt lat="43.407737865064625" lon="-3.842409925187648"><ele>19.0</ele><time>2026-04-30T18:13:05Z</time></trkpt><trkpt lat="43.40791176446006" lon="-3.842435510174793"><ele>19.2</ele><time>2026-04-30T18:13:06Z</time></trkpt><trkpt lat="43.40802245709387" lon="-3.8424566932269775"><ele>19.4</ele><time>2026-04-30T18:13:07Z</time></trkpt><trkpt lat="43.40813319499325" lon="-3.8424578819180546"><ele>19.6</ele><time>2026-04-30T18:13:08Z</time></trkpt><trkpt lat="43.40824200149924" lon="-3.8424615493674437"><ele>19.8</ele><time>2026-04-30T18:13:09Z</time></trkpt><trkpt lat="43.40835590232671" lon="-3.8424439430771873"><ele>20.0</ele><time>2026-04-30T18:13:10Z</time></trkpt><trkpt lat="43.40847209394833" lon="-3.8424217838272394"><ele>20.0</ele><time>2026-04-30T18:13:11Z</time></trkpt><trkpt lat="43.40858403672" lon="-3.842393963083741"><ele>20.0</ele><time>2026-04-30T18:13:12Z</time></trkpt><trkpt lat="43.408694891806974" lon="-3.842369569475055"><ele>20.0</ele><time>2026-04-30T18:13:13Z</time></trkpt><trkpt lat="43.40880586374801" lon="-3.8423455335216676"><ele>20.0</ele><time>2026-04-30T18:13:14Z</time></trkpt><trkpt lat="43.40891952754389" lon="-3.8423211337471677"><ele>19.6</ele><time>2026-04-30T18:13:15Z</time></trkpt><trkpt lat="43.40903035911402" lon="-3.8422972231511245"><ele>19.2</ele><time>2026-04-30T18:13:16Z</time></trkpt><trkpt lat="43.409141119899" lon="-3.8422723689843754"><ele>18.8</ele><time>2026-04-30T18:13:17Z</time></trkpt><trkpt lat="43.409250316541026" lon="-3.842249807637384"><ele>18.4</ele><time>2026-04-30T18:13:18Z</time></trkpt><trkpt lat="43.40936278904526" lon="-3.8422243956070927"><ele>18.0</ele><time>2026-04-30T18:13:19Z</time></trkpt><trkpt lat="43.40947329116086" lon="-3.842206208198385"><ele>18.0</ele><time>2026-04-30T18:13:20Z</time></trkpt><trkpt lat="43.409582033237655" lon="-3.8421864470478893"><ele>18.0</ele><time>2026-04-30T18:13:21Z</time></trkpt><trkpt lat="43.409692898560785" lon="-3.842159333965073"><ele>18.0</ele><time>2026-04-30T18:13:22.001Z</time></trkpt><trkpt lat="43.4098012280994" lon="-3.8421370320776"><ele>18.0</ele><time>2026-04-30T18:13:23.001Z</time></trkpt><trkpt lat="43.40991076897313" lon="-3.842129922906232"><ele>18.0</ele><time>2026-04-30T18:13:24.001Z</time></trkpt><trkpt lat="43.410016295439775" lon="-3.842130303571344"><ele>17.2</ele><time>2026-04-30T18:13:25.001Z</time></trkpt><trkpt lat="43.410125935956756" lon="-3.842144182071026"><ele>16.4</ele><time>2026-04-30T18:13:26.001Z</time></trkpt><trkpt lat="43.410244719684705" lon="-3.842170837629461"><ele>15.599999999999998</ele><time>2026-04-30T18:13:27.001Z</time></trkpt><trkpt lat="43.41037476546145" lon="-3.842214494892608"><ele>14.799999999999999</ele><time>2026-04-30T18:13:28.001Z</time></trkpt><trkpt lat="43.41045147429727" lon="-3.842228219322286"><ele>14.0</ele><time>2026-04-30T18:13:29.001Z</time></trkpt><trkpt lat="43.410556917510654" lon="-3.8422711181251423"><ele>13.799999999999999</ele><time>2026-04-30T18:13:30.001Z</time></trkpt><trkpt lat="43.4106596551063" lon="-3.842321382447562"><ele>13.599999999999998</ele><time>2026-04-30T18:13:31.001Z</time></trkpt><trkpt lat="43.410758393310154" lon="-3.8423846487500715"><ele>13.4</ele><time>2026-04-30T18:13:32.001Z</time></trkpt><trkpt lat="43.41084528247721" lon="-3.8424370905746943"><ele>13.2</ele><time>2026-04-30T18:13:33.001Z</time></trkpt><trkpt lat="43.41091052414238" lon="-3.842457433691925"><ele>13.0</ele><time>2026-04-30T18:13:34.001Z</time></trkpt><trkpt lat="43.41098623889658" lon="-3.8425084210622362"><ele>12.25</ele><time>2026-04-30T18:13:35.001Z</time></trkpt><trkpt lat="43.41111672443214" lon="-3.842643710168967"><ele>11.5</ele><time>2026-04-30T18:13:36.001Z</time></trkpt><trkpt lat="43.41120992779022" lon="-3.8427162477203"><ele>10.75</ele><time>2026-04-30T18:13:37.001Z</time></trkpt><trkpt lat="43.41129591207499" lon="-3.8427907808905037"><ele>10.0</ele><time>2026-04-30T18:13:38.001Z</time></trkpt><trkpt lat="43.4113805881622" lon="-3.8428636221922012"><ele>10.0</ele><time>2026-04-30T18:13:39.001Z</time></trkpt><trkpt lat="43.41146061115061" lon="-3.8429265999732896"><ele>10.0</ele><time>2026-04-30T18:13:40.001Z</time></trkpt><trkpt lat="43.41154252151057" lon="-3.8429935275895812"><ele>10.0</ele><time>2026-04-30T18:13:41.001Z</time></trkpt><trkpt lat="43.411624087922" lon="-3.8430611236637375"><ele>10.0</ele><time>2026-04-30T18:13:42.001Z</time></trkpt><trkpt lat="43.41170503404706" lon="-3.8431211253349975"><ele>10.0</ele><time>2026-04-30T18:13:43.001Z</time></trkpt><trkpt lat="43.411780745956456" lon="-3.84318548347577"><ele>10.0</ele><time>2026-04-30T18:13:44.001Z</time></trkpt><trkpt lat="43.411857172690134" lon="-3.8432429863680473"><ele>10.0</ele><time>2026-04-30T18:13:45.001Z</time></trkpt><trkpt lat="43.411941187094385" lon="-3.8432570783010713"><ele>10.0</ele><time>2026-04-30T18:13:46.001Z</time></trkpt><trkpt lat="43.41202466574384" lon="-3.8432645054574412"><ele>10.0</ele><time>2026-04-30T18:13:47.001Z</time></trkpt><trkpt lat="43.41208537954431" lon="-3.843327114789937"><ele>10.0</ele><time>2026-04-30T18:13:48.001Z</time></trkpt><trkpt lat="43.41217735383478" lon="-3.8434067800911613"><ele>10.0</ele><time>2026-04-30T18:13:49.001Z</time></trkpt><trkpt lat="43.41224205219117" lon="-3.843490924817671"><ele>9.0</ele><time>2026-04-30T18:13:50.001Z</time></trkpt><trkpt lat="43.41232151105481" lon="-3.84355571158959"><ele>8.0</ele><time>2026-04-30T18:13:51.001Z</time></trkpt><trkpt lat="43.412416156062626" lon="-3.8435606312616692"><ele>7.0</ele><time>2026-04-30T18:13:52.001Z</time></trkpt><trkpt lat="43.412498187830415" lon="-3.8436122591634456"><ele>6.0</ele><time>2026-04-30T18:13:53.001Z</time></trkpt><trkpt lat="43.412586962240944" lon="-3.843644070668899"><ele>5.0</ele><time>2026-04-30T18:13:54.001Z</time></trkpt><trkpt lat="43.4126719440779" lon="-3.8436961780314154"><ele>5.0</ele><time>2026-04-30T18:13:55.001Z</time></trkpt><trkpt lat="43.412757259350236" lon="-3.843741779476167"><ele>5.0</ele><time>2026-04-30T18:13:56.001Z</time></trkpt><trkpt lat="43.412848828906505" lon="-3.8437822948958558"><ele>5.0</ele><time>2026-04-30T18:13:57.001Z</time></trkpt><trkpt lat="43.41294073613121" lon="-3.843816368922906"><ele>5.0</ele><time>2026-04-30T18:13:58.001Z</time></trkpt><trkpt lat="43.4130345065262" lon="-3.843849867176005"><ele>5.0</ele><time>2026-04-30T18:13:59.001Z</time></trkpt><trkpt lat="43.413123508166315" lon="-3.843884966647963"><ele>4.5</ele><time>2026-04-30T18:14:00.001Z</time></trkpt><trkpt lat="43.41321050086687" lon="-3.8439198125334983"><ele>4.0</ele><time>2026-04-30T18:14:01.001Z</time></trkpt><trkpt lat="43.413292139522234" lon="-3.843951236501953"><ele>3.5</ele><time>2026-04-30T18:14:02.001Z</time></trkpt><trkpt lat="43.41337251941997" lon="-3.8439773870776492"><ele>3.0</ele><time>2026-04-30T18:14:03.001Z</time></trkpt><trkpt lat="43.41344802995506" lon="-3.844002346123302"><ele>2.5</ele><time>2026-04-30T18:14:04.001Z</time></trkpt><trkpt lat="43.413522268750015" lon="-3.8440290591616524"><ele>2.0</ele><time>2026-04-30T18:14:05.001Z</time></trkpt><trkpt lat="43.413596408256964" lon="-3.8440575771054544"><ele>1.9999999999999998</ele><time>2026-04-30T18:14:06.001Z</time></trkpt><trkpt lat="43.41367215517711" lon="-3.8440831849623884"><ele>2.0</ele><time>2026-04-30T18:14:07.001Z</time></trkpt><trkpt lat="43.41375075070724" lon="-3.8441106785323043"><ele>2.0</ele><time>2026-04-30T18:14:08.001Z</time></trkpt><trkpt lat="43.41383164694709" lon="-3.844138646045858"><ele>2.0</ele><time>2026-04-30T18:14:09.001Z</time></trkpt><trkpt lat="43.4139188002797" lon="-3.844168102666852"><ele>1.9999999999999998</ele><time>2026-04-30T18:14:10.001Z</time></trkpt><trkpt lat="43.41400510741287" lon="-3.844199641680778"><ele>2.0</ele><time>2026-04-30T18:14:11.001Z</time></trkpt><trkpt lat="43.41409118565904" lon="-3.8442342032414416"><ele>2.5</ele><time>2026-04-30T18:14:12.001Z</time></trkpt><trkpt lat="43.414177031796406" lon="-3.8442707999577808"><ele>3.0</ele><time>2026-04-30T18:14:13.001Z</time></trkpt><trkpt lat="43.414257355997805" lon="-3.8442982966858525"><ele>3.5</ele><time>2026-04-30T18:14:14.001Z</time></trkpt><trkpt lat="43.41433416193918" lon="-3.8443235973904315"><ele>4.0</ele><time>2026-04-30T18:14:15.001Z</time></trkpt><trkpt lat="43.41440355017486" lon="-3.844348096151174"><ele>4.5</ele><time>2026-04-30T18:14:16.001Z</time></trkpt><trkpt lat="43.41447379008065" lon="-3.8443685918209485"><ele>5.0</ele><time>2026-04-30T18:14:17.001Z</time></trkpt><trkpt lat="43.414538925710744" lon="-3.844391448952154"><ele>5.333333333333334</ele><time>2026-04-30T18:14:18.001Z</time></trkpt><trkpt lat="43.414602900192705" lon="-3.84441354900391"><ele>5.666666666666667</ele><time>2026-04-30T18:14:19.001Z</time></trkpt><trkpt lat="43.41466747040407" lon="-3.844434889488028"><ele>6.0</ele><time>2026-04-30T18:14:20.001Z</time></trkpt><trkpt lat="43.414782149065225" lon="-3.844473334719305"><ele>6.333333333333334</ele><time>2026-04-30T18:14:22.001Z</time></trkpt><trkpt lat="43.41488625000666" lon="-3.844503069465983"><ele>6.666666666666667</ele><time>2026-04-30T18:14:24.001Z</time></trkpt><trkpt lat="43.41496805916948" lon="-3.8445131117102394"><ele>7.0</ele><time>2026-04-30T18:14:26.002Z</time></trkpt><trkpt lat="43.415032836957366" lon="-3.844514744270232"><ele>7.000000000000001</ele><time>2026-04-30T18:14:28.002Z</time></trkpt><trkpt lat="43.415139456944864" lon="-3.8445138096894054"><ele>7.0</ele><time>2026-04-30T18:14:31.002Z</time></trkpt><trkpt lat="43.415242966129554" lon="-3.844575423132016"><ele>7.0</ele><time>2026-04-30T18:14:33.002Z</time></trkpt><trkpt lat="43.41529909847977" lon="-3.844614849070503"><ele>7.0</ele><time>2026-04-30T18:14:34.002Z</time></trkpt><trkpt lat="43.415359751410726" lon="-3.8446541493772664"><ele>7.000000000000001</ele><time>2026-04-30T18:14:34.999Z</time></trkpt><trkpt lat="43.41542256882172" lon="-3.8446874051038757"><ele>7.0</ele><time>2026-04-30T18:14:35.999Z</time></trkpt><trkpt lat="43.41548577266169" lon="-3.844715116509818"><ele>7.25</ele><time>2026-04-30T18:14:36.999Z</time></trkpt><trkpt lat="43.4156049149514" lon="-3.844760779411818"><ele>7.5</ele><time>2026-04-30T18:14:38.999Z</time></trkpt><trkpt lat="43.415722522263636" lon="-3.8448055817283646"><ele>7.75</ele><time>2026-04-30T18:14:41Z</time></trkpt><trkpt lat="43.41582779350056" lon="-3.844845471194995"><ele>8.0</ele><time>2026-04-30T18:14:43Z</time></trkpt><trkpt lat="43.415925829831465" lon="-3.844875528528742"><ele>8.0</ele><time>2026-04-30T18:14:45Z</time></trkpt><trkpt lat="43.41602469768953" lon="-3.8449208900784444"><ele>8.0</ele><time>2026-04-30T18:14:47Z</time></trkpt><trkpt lat="43.41612175010756" lon="-3.844963898234038"><ele>8.0</ele><time>2026-04-30T18:14:49Z</time></trkpt><trkpt lat="43.416218186341396" lon="-3.8450026403104722"><ele>8.0</ele><time>2026-04-30T18:14:51Z</time></trkpt><trkpt lat="43.41630909656775" lon="-3.8450357153900243"><ele>8.0</ele><time>2026-04-30T18:14:53Z</time></trkpt><trkpt lat="43.41638465956977" lon="-3.845060549963354"><ele>8.5</ele><time>2026-04-30T18:14:55Z</time></trkpt><trkpt lat="43.41646110064767" lon="-3.8450799916314367"><ele>9.0</ele><time>2026-04-30T18:14:58Z</time></trkpt><trkpt lat="43.41654156776632" lon="-3.8451013098456293"><ele>9.5</ele><time>2026-04-30T18:15:04Z</time></trkpt><trkpt lat="43.416632260277076" lon="-3.8451334336192278"><ele>10.0</ele><time>2026-04-30T18:15:06Z</time></trkpt><trkpt lat="43.41672434523731" lon="-3.845170565806318"><ele>10.5</ele><time>2026-04-30T18:15:08Z</time></trkpt><trkpt lat="43.4167959345766" lon="-3.8451969015566014"><ele>11.0</ele><time>2026-04-30T18:15:10Z</time></trkpt><trkpt lat="43.41687748003476" lon="-3.8452216124733365"><ele>11.600000000000001</ele><time>2026-04-30T18:15:13Z</time></trkpt><trkpt lat="43.4169584218015" lon="-3.8452489674977457"><ele>12.2</ele><time>2026-04-30T18:15:15Z</time></trkpt><trkpt lat="43.417047486476605" lon="-3.845280801476835"><ele>12.799999999999999</ele><time>2026-04-30T18:15:17Z</time></trkpt><trkpt lat="43.41712434952908" lon="-3.8453261290924763"><ele>13.399999999999999</ele><time>2026-04-30T18:15:19Z</time></trkpt><trkpt lat="43.41722012483971" lon="-3.845350019728001"><ele>14.0</ele><time>2026-04-30T18:15:21Z</time></trkpt><trkpt lat="43.41731266824065" lon="-3.8453865090986716"><ele>14.500000000000002</ele><time>2026-04-30T18:15:23Z</time></trkpt><trkpt lat="43.417375118497006" lon="-3.8454198988158703"><ele>15.0</ele><time>2026-04-30T18:15:25Z</time></trkpt><trkpt lat="43.41744144352443" lon="-3.8454427020236337"><ele>15.5</ele><time>2026-04-30T18:15:32.001Z</time></trkpt><trkpt lat="43.41752438640861" lon="-3.8454370095478856"><ele>16.0</ele><time>2026-04-30T18:15:36.001Z</time></trkpt><trkpt lat="43.4176099249615" lon="-3.8454771031577777"><ele>16.5</ele><time>2026-04-30T18:15:39.001Z</time></trkpt><trkpt lat="43.41768637101481" lon="-3.845514325582786"><ele>17.0</ele><time>2026-04-30T18:16:00.001Z</time></trkpt><trkpt lat="43.417760439099325" lon="-3.845544120705258"><ele>17.0</ele><time>2026-04-30T18:16:02.001Z</time></trkpt><trkpt lat="43.41785277928513" lon="-3.8455892123503173"><ele>17.0</ele><time>2026-04-30T18:16:04.001Z</time></trkpt><trkpt lat="43.417914228061946" lon="-3.845613507221856"><ele>17.0</ele><time>2026-04-30T18:16:05.001Z</time></trkpt><trkpt lat="43.41798458154023" lon="-3.8456369692791066"><ele>17.0</ele><time>2026-04-30T18:16:06.001Z</time></trkpt><trkpt lat="43.41805922876124" lon="-3.845657804309331"><ele>17.0</ele><time>2026-04-30T18:16:07.001Z</time></trkpt><trkpt lat="43.41813446156172" lon="-3.8456822342775765"><ele>17.0</ele><time>2026-04-30T18:16:08.001Z</time></trkpt><trkpt lat="43.418212717002135" lon="-3.845707560430265"><ele>17.166666666666668</ele><time>2026-04-30T18:16:09.001Z</time></trkpt><trkpt lat="43.41829383096335" lon="-3.845740628160232"><ele>17.333333333333336</ele><time>2026-04-30T18:16:10.001Z</time></trkpt><trkpt lat="43.41837058286126" lon="-3.845774946024233"><ele>17.5</ele><time>2026-04-30T18:16:11.001Z</time></trkpt><trkpt lat="43.4184444027915" lon="-3.84580780060717"><ele>17.666666666666668</ele><time>2026-04-30T18:16:12.001Z</time></trkpt><trkpt lat="43.41851462762564" lon="-3.845833136840538"><ele>17.833333333333332</ele><time>2026-04-30T18:16:13.001Z</time></trkpt><trkpt lat="43.418584627628626" lon="-3.84586055378478"><ele>18.0</ele><time>2026-04-30T18:16:14.001Z</time></trkpt><trkpt lat="43.41865282729954" lon="-3.8458864820747443"><ele>18.0</ele><time>2026-04-30T18:16:15.001Z</time></trkpt><trkpt lat="43.418735700622356" lon="-3.8459133341668057"><ele>18.0</ele><time>2026-04-30T18:16:17.001Z</time></trkpt><trkpt lat="43.418835128059484" lon="-3.845960362502536"><ele>18.0</ele><time>2026-04-30T18:16:20.001Z</time></trkpt><trkpt lat="43.41894286928626" lon="-3.8460086490945153"><ele>18.0</ele><time>2026-04-30T18:16:22.001Z</time></trkpt><trkpt lat="43.41900661641743" lon="-3.8460310468945833"><ele>18.0</ele><time>2026-04-30T18:16:23.001Z</time></trkpt><trkpt lat="43.41907459750766" lon="-3.846054150110614"><ele>18.0</ele><time>2026-04-30T18:16:24.001Z</time></trkpt><trkpt lat="43.41914640300681" lon="-3.846078026993968"><ele>18.833333333333332</ele><time>2026-04-30T18:16:25.002Z</time></trkpt><trkpt lat="43.419220213858246" lon="-3.846103586906757"><ele>19.666666666666668</ele><time>2026-04-30T18:16:26.002Z</time></trkpt><trkpt lat="43.419298608758766" lon="-3.846127403239428"><ele>20.5</ele><time>2026-04-30T18:16:27.002Z</time></trkpt><trkpt lat="43.41937532316453" lon="-3.846154872633487"><ele>21.333333333333336</ele><time>2026-04-30T18:16:28.002Z</time></trkpt><trkpt lat="43.419454285501956" lon="-3.8461815507646118"><ele>22.166666666666668</ele><time>2026-04-30T18:16:29.002Z</time></trkpt><trkpt lat="43.419529702525175" lon="-3.8462037172559684"><ele>23.0</ele><time>2026-04-30T18:16:30.002Z</time></trkpt><trkpt lat="43.419596923324356" lon="-3.8462225389808675"><ele>22.833333333333336</ele><time>2026-04-30T18:16:31.002Z</time></trkpt><trkpt lat="43.419710280144294" lon="-3.846254355187904"><ele>22.666666666666668</ele><time>2026-04-30T18:16:33.002Z</time></trkpt><trkpt lat="43.41980103496064" lon="-3.8462775432405425"><ele>22.5</ele><time>2026-04-30T18:16:35.002Z</time></trkpt><trkpt lat="43.41986596321554" lon="-3.8463074634164918"><ele>22.333333333333332</ele><time>2026-04-30T18:16:37.002Z</time></trkpt><trkpt lat="43.41994937610112" lon="-3.846320831251526"><ele>22.166666666666664</ele><time>2026-04-30T18:16:49Z</time></trkpt><trkpt lat="43.420034508496755" lon="-3.8463163519389933"><ele>22.0</ele><time>2026-04-30T18:16:51Z</time></trkpt><trkpt lat="43.42014859759739" lon="-3.8463604324594485"><ele>22.0</ele><time>2026-04-30T18:16:53Z</time></trkpt><trkpt lat="43.42020136586906" lon="-3.846431206294949"><ele>22.0</ele><time>2026-04-30T18:16:54Z</time></trkpt><trkpt lat="43.42024261401985" lon="-3.8465251098029425"><ele>22.0</ele><time>2026-04-30T18:16:55Z</time></trkpt><trkpt lat="43.42029313718389" lon="-3.8466081787700728"><ele>22.0</ele><time>2026-04-30T18:16:56Z</time></trkpt><trkpt lat="43.420357735614715" lon="-3.8466880953056544"><ele>22.0</ele><time>2026-04-30T18:16:57Z</time></trkpt><trkpt lat="43.420420771122" lon="-3.8467759331678972"><ele>22.0</ele><time>2026-04-30T18:16:58Z</time></trkpt><trkpt lat="43.42048618506135" lon="-3.846871305008425"><ele>21.6</ele><time>2026-04-30T18:16:59Z</time></trkpt><trkpt lat="43.42054669534653" lon="-3.846973269420942"><ele>21.200000000000003</ele><time>2026-04-30T18:17:00Z</time></trkpt><trkpt lat="43.42060608147459" lon="-3.8470782422924352"><ele>20.8</ele><time>2026-04-30T18:17:01Z</time></trkpt><trkpt lat="43.42066011533921" lon="-3.847179277906396"><ele>20.4</ele><time>2026-04-30T18:17:02Z</time></trkpt><trkpt lat="43.42071520247461" lon="-3.8472765829253057"><ele>20.0</ele><time>2026-04-30T18:17:03Z</time></trkpt><trkpt lat="43.42077499860043" lon="-3.8473758281346275"><ele>20.0</ele><time>2026-04-30T18:17:04Z</time></trkpt><trkpt lat="43.42083528086667" lon="-3.8474789287003928"><ele>20.0</ele><time>2026-04-30T18:17:05Z</time></trkpt><trkpt lat="43.42089888099322" lon="-3.8475782179190197"><ele>20.0</ele><time>2026-04-30T18:17:06Z</time></trkpt><trkpt lat="43.420963405058174" lon="-3.847681356752252"><ele>20.0</ele><time>2026-04-30T18:17:07Z</time></trkpt><trkpt lat="43.42102295375526" lon="-3.847787556673879"><ele>20.0</ele><time>2026-04-30T18:17:08Z</time></trkpt><trkpt lat="43.421082426523505" lon="-3.847889295852716"><ele>20.4</ele><time>2026-04-30T18:17:09Z</time></trkpt><trkpt lat="43.42114624312535" lon="-3.8479910894826235"><ele>20.8</ele><time>2026-04-30T18:17:10Z</time></trkpt><trkpt lat="43.42120865331843" lon="-3.8480954372338463"><ele>21.200000000000003</ele><time>2026-04-30T18:17:11Z</time></trkpt><trkpt lat="43.42127170489711" lon="-3.848202159458172"><ele>21.6</ele><time>2026-04-30T18:17:12Z</time></trkpt><trkpt lat="43.42133237932739" lon="-3.848307659602444"><ele>22.0</ele><time>2026-04-30T18:17:13Z</time></trkpt><trkpt lat="43.42139547270815" lon="-3.8484077560551784"><ele>22.833333333333332</ele><time>2026-04-30T18:17:14Z</time></trkpt><trkpt lat="43.42145507342606" lon="-3.8484940418324634"><ele>23.666666666666664</ele><time>2026-04-30T18:17:15Z</time></trkpt><trkpt lat="43.42151170179022" lon="-3.8485811328697563"><ele>24.5</ele><time>2026-04-30T18:17:16Z</time></trkpt><trkpt lat="43.42156388156327" lon="-3.8486819291224026"><ele>25.333333333333332</ele><time>2026-04-30T18:17:17Z</time></trkpt><trkpt lat="43.42161691158122" lon="-3.8487827964095866"><ele>26.166666666666668</ele><time>2026-04-30T18:17:18Z</time></trkpt><trkpt lat="43.42167187709266" lon="-3.8488745306478327"><ele>27.0</ele><time>2026-04-30T18:17:19Z</time></trkpt><trkpt lat="43.421727137335985" lon="-3.8489639485251574"><ele>27.0</ele><time>2026-04-30T18:17:20Z</time></trkpt><trkpt lat="43.42178274447031" lon="-3.8490525465415044"><ele>27.0</ele><time>2026-04-30T18:17:21Z</time></trkpt><trkpt lat="43.42183729210908" lon="-3.849141687974403"><ele>27.0</ele><time>2026-04-30T18:17:22Z</time></trkpt><trkpt lat="43.42189239314539" lon="-3.849233556068073"><ele>27.0</ele><time>2026-04-30T18:17:23Z</time></trkpt><trkpt lat="43.421949690164226" lon="-3.8493264285038826"><ele>27.0</ele><time>2026-04-30T18:17:24Z</time></trkpt><trkpt lat="43.4220039755197" lon="-3.84942328559624"><ele>27.0</ele><time>2026-04-30T18:17:25Z</time></trkpt><trkpt lat="43.42205640369949" lon="-3.849517133573802"><ele>27.285714285714285</ele><time>2026-04-30T18:17:26Z</time></trkpt><trkpt lat="43.42209768906734" lon="-3.849612598037395"><ele>27.57142857142857</ele><time>2026-04-30T18:17:27Z</time></trkpt><trkpt lat="43.422126707127326" lon="-3.8497062931378583"><ele>27.85714285714286</ele><time>2026-04-30T18:17:28.001Z</time></trkpt><trkpt lat="43.42215082641592" lon="-3.849801176278064"><ele>28.142857142857146</ele><time>2026-04-30T18:17:29.001Z</time></trkpt><trkpt lat="43.42216729799317" lon="-3.8498929741948524"><ele>28.42857142857143</ele><time>2026-04-30T18:17:30.001Z</time></trkpt><trkpt lat="43.42217907654614" lon="-3.8499865212879976"><ele>28.71428571428572</ele><time>2026-04-30T18:17:31.001Z</time></trkpt><trkpt lat="43.42218879533909" lon="-3.8500783133439462"><ele>29.000000000000004</ele><time>2026-04-30T18:17:32.001Z</time></trkpt><trkpt lat="43.42219758719267" lon="-3.8501646681650517"><ele>27.999999999999996</ele><time>2026-04-30T18:17:33.001Z</time></trkpt><trkpt lat="43.42220476158129" lon="-3.8502525779470953"><ele>27.0</ele><time>2026-04-30T18:17:34.001Z</time></trkpt><trkpt lat="43.422217099996246" lon="-3.850408428939495"><ele>26.0</ele><time>2026-04-30T18:17:36.001Z</time></trkpt><trkpt lat="43.42222564067674" lon="-3.8505133190653966"><ele>25.0</ele><time>2026-04-30T18:17:38.001Z</time></trkpt><trkpt lat="43.42223851500455" lon="-3.8506081357893773"><ele>24.0</ele><time>2026-04-30T18:17:42.001Z</time></trkpt><trkpt lat="43.42225118617277" lon="-3.8507280442708667"><ele>23.0</ele><time>2026-04-30T18:17:45.001Z</time></trkpt><trkpt lat="43.42225693640603" lon="-3.8508497561836874"><ele>23.666666666666668</ele><time>2026-04-30T18:17:47.001Z</time></trkpt><trkpt lat="43.42226840365658" lon="-3.8510011341052"><ele>24.333333333333336</ele><time>2026-04-30T18:17:49.001Z</time></trkpt><trkpt lat="43.42227819053095" lon="-3.851087902331344"><ele>25.0</ele><time>2026-04-30T18:17:50.001Z</time></trkpt><trkpt lat="43.422286758226804" lon="-3.851180162825781"><ele>25.666666666666668</ele><time>2026-04-30T18:17:51.001Z</time></trkpt><trkpt lat="43.42229551842853" lon="-3.8512748706241644"><ele>26.333333333333332</ele><time>2026-04-30T18:17:52.001Z</time></trkpt><trkpt lat="43.42230537548728" lon="-3.8513750241032216"><ele>27.0</ele><time>2026-04-30T18:17:53.001Z</time></trkpt><trkpt lat="43.422317889064864" lon="-3.851472502647936"><ele>27.0</ele><time>2026-04-30T18:17:54.001Z</time></trkpt><trkpt lat="43.422333775109266" lon="-3.851561023015796"><ele>27.000000000000004</ele><time>2026-04-30T18:17:55.001Z</time></trkpt><trkpt lat="43.42237364843966" lon="-3.85171398210249"><ele>27.000000000000004</ele><time>2026-04-30T18:17:57.001Z</time></trkpt><trkpt lat="43.422420618759354" lon="-3.851840334406516"><ele>27.0</ele><time>2026-04-30T18:17:59.001Z</time></trkpt><trkpt lat="43.42247573973902" lon="-3.851955588247744"><ele>27.0</ele><time>2026-04-30T18:18:01.001Z</time></trkpt><trkpt lat="43.42255315975392" lon="-3.8520788181582626"><ele>27.857142857142858</ele><time>2026-04-30T18:18:03.001Z</time></trkpt><trkpt lat="43.42260354836489" lon="-3.852140711489936"><ele>28.714285714285715</ele><time>2026-04-30T18:18:04.001Z</time></trkpt><trkpt lat="43.42265771104712" lon="-3.852198453722901"><ele>29.57142857142857</ele><time>2026-04-30T18:18:05.001Z</time></trkpt><trkpt lat="43.42271586206085" lon="-3.8522534724577624"><ele>30.42857142857143</ele><time>2026-04-30T18:18:06.001Z</time></trkpt><trkpt lat="43.42277566483006" lon="-3.8523092918763604"><ele>31.28571428571429</ele><time>2026-04-30T18:18:07.001Z</time></trkpt><trkpt lat="43.42283852545581" lon="-3.852367186474898"><ele>32.14285714285714</ele><time>2026-04-30T18:18:08.001Z</time></trkpt><trkpt lat="43.42290621081453" lon="-3.852427111283318"><ele>33.0</ele><time>2026-04-30T18:18:09.001Z</time></trkpt><trkpt lat="43.42297364602349" lon="-3.8524831123255234"><ele>33.333333333333336</ele><time>2026-04-30T18:18:10.001Z</time></trkpt><trkpt lat="43.423040494251374" lon="-3.8525451308872656"><ele>33.666666666666664</ele><time>2026-04-30T18:18:11.001Z</time></trkpt><trkpt lat="43.42311147515089" lon="-3.8526115095807554"><ele>34.0</ele><time>2026-04-30T18:18:12.001Z</time></trkpt><trkpt lat="43.42318643224923" lon="-3.852679879913252"><ele>34.33333333333333</ele><time>2026-04-30T18:18:13.001Z</time></trkpt><trkpt lat="43.42326076403245" lon="-3.852746664653403"><ele>34.666666666666664</ele><time>2026-04-30T18:18:14.001Z</time></trkpt><trkpt lat="43.42333337632813" lon="-3.8528135662080225"><ele>35.0</ele><time>2026-04-30T18:18:15.001Z</time></trkpt><trkpt lat="43.423413613743605" lon="-3.852878872539929"><ele>35.0</ele><time>2026-04-30T18:18:16.001Z</time></trkpt><trkpt lat="43.42349356995369" lon="-3.8529482971043176"><ele>35.0</ele><time>2026-04-30T18:18:17.001Z</time></trkpt><trkpt lat="43.42357288604125" lon="-3.8530246953997613"><ele>35.0</ele><time>2026-04-30T18:18:18.001Z</time></trkpt><trkpt lat="43.42365551779774" lon="-3.8530998653362216"><ele>35.0</ele><time>2026-04-30T18:18:19.001Z</time></trkpt><trkpt lat="43.423738936928736" lon="-3.8531739949492625"><ele>35.0</ele><time>2026-04-30T18:18:20.001Z</time></trkpt><trkpt lat="43.4238213757475" lon="-3.8532483316096595"><ele>34.8</ele><time>2026-04-30T18:18:21.001Z</time></trkpt><trkpt lat="43.42390713200926" lon="-3.853323748505252"><ele>34.6</ele><time>2026-04-30T18:18:22.002Z</time></trkpt><trkpt lat="43.423989525535355" lon="-3.853400382155851"><ele>34.4</ele><time>2026-04-30T18:18:23.002Z</time></trkpt><trkpt lat="43.42406960832973" lon="-3.853478418673917"><ele>34.2</ele><time>2026-04-30T18:18:24.002Z</time></trkpt><trkpt lat="43.42414516233689" lon="-3.8535644590005114"><ele>34.0</ele><time>2026-04-30T18:18:25.002Z</time></trkpt><trkpt lat="43.4242169129905" lon="-3.853661359439324"><ele>34.0</ele><time>2026-04-30T18:18:26.002Z</time></trkpt><trkpt lat="43.42428738272364" lon="-3.8537624539896336"><ele>34.0</ele><time>2026-04-30T18:18:27.002Z</time></trkpt><trkpt lat="43.424349992267985" lon="-3.853871788179281"><ele>34.0</ele><time>2026-04-30T18:18:28.002Z</time></trkpt><trkpt lat="43.424407472991966" lon="-3.8539847532881963"><ele>34.0</ele><time>2026-04-30T18:18:29.002Z</time></trkpt><trkpt lat="43.42446863639382" lon="-3.854095412420381"><ele>34.0</ele><time>2026-04-30T18:18:30.002Z</time></trkpt><trkpt lat="43.424530368765225" lon="-3.854205306713665"><ele>33.6</ele><time>2026-04-30T18:18:31.002Z</time></trkpt><trkpt lat="43.424593606087704" lon="-3.8543146188943163"><ele>33.2</ele><time>2026-04-30T18:18:32.002Z</time></trkpt><trkpt lat="43.42465556254125" lon="-3.8544244966949948"><ele>32.800000000000004</ele><time>2026-04-30T18:18:33.002Z</time></trkpt><trkpt lat="43.42471561502702" lon="-3.8545322689457575"><ele>32.4</ele><time>2026-04-30T18:18:34.002Z</time></trkpt><trkpt lat="43.424779289104606" lon="-3.8546387766516728"><ele>32.0</ele><time>2026-04-30T18:18:35.002Z</time></trkpt><trkpt lat="43.42484156319673" lon="-3.854750059180769"><ele>32.0</ele><time>2026-04-30T18:18:36.002Z</time></trkpt><trkpt lat="43.424906424741465" lon="-3.854858131986205"><ele>32.0</ele><time>2026-04-30T18:18:37.002Z</time></trkpt><trkpt lat="43.42497185509408" lon="-3.8549685791443293"><ele>32.0</ele><time>2026-04-30T18:18:38.002Z</time></trkpt><trkpt lat="43.42503627195416" lon="-3.8550779911083524"><ele>32.0</ele><time>2026-04-30T18:18:39.002Z</time></trkpt><trkpt lat="43.42510014514265" lon="-3.855184869481405"><ele>32.0</ele><time>2026-04-30T18:18:40.002Z</time></trkpt><trkpt lat="43.4251620769472" lon="-3.8552904272396376"><ele>32.4</ele><time>2026-04-30T18:18:41.002Z</time></trkpt><trkpt lat="43.425217305532726" lon="-3.855392667651006"><ele>32.800000000000004</ele><time>2026-04-30T18:18:42.002Z</time></trkpt><trkpt lat="43.425272814482064" lon="-3.8554897152869967"><ele>33.2</ele><time>2026-04-30T18:18:43.002Z</time></trkpt><trkpt lat="43.4253319011911" lon="-3.8555893971384005"><ele>33.6</ele><time>2026-04-30T18:18:44.002Z</time></trkpt><trkpt lat="43.42538905647034" lon="-3.8556906429599027"><ele>34.0</ele><time>2026-04-30T18:18:45.002Z</time></trkpt><trkpt lat="43.42545992001972" lon="-3.855788357527648"><ele>33.833333333333336</ele><time>2026-04-30T18:18:46.002Z</time></trkpt><trkpt lat="43.42550655410517" lon="-3.855911031767273"><ele>33.66666666666667</ele><time>2026-04-30T18:18:47Z</time></trkpt><trkpt lat="43.42554125289755" lon="-3.8560274248180515"><ele>33.5</ele><time>2026-04-30T18:18:48Z</time></trkpt><trkpt lat="43.42555459590905" lon="-3.8561441576023108"><ele>33.333333333333336</ele><time>2026-04-30T18:18:49Z</time></trkpt><trkpt lat="43.425582870273374" lon="-3.8562479718241867"><ele>33.166666666666664</ele><time>2026-04-30T18:18:50Z</time></trkpt><trkpt lat="43.42561932293335" lon="-3.8563508976461423"><ele>33.0</ele><time>2026-04-30T18:18:51Z</time></trkpt><trkpt lat="43.42567858579761" lon="-3.8564390324666307"><ele>33.333333333333336</ele><time>2026-04-30T18:18:52Z</time></trkpt><trkpt lat="43.42575142283235" lon="-3.8565039161814965"><ele>33.666666666666664</ele><time>2026-04-30T18:18:53Z</time></trkpt><trkpt lat="43.4258369077308" lon="-3.856541768188208"><ele>34.0</ele><time>2026-04-30T18:18:54Z</time></trkpt><trkpt lat="43.4259221380415" lon="-3.8565491698055143"><ele>34.33333333333333</ele><time>2026-04-30T18:18:55Z</time></trkpt><trkpt lat="43.426004419517966" lon="-3.8565419464640778"><ele>34.666666666666664</ele><time>2026-04-30T18:18:56Z</time></trkpt><trkpt lat="43.426091061422774" lon="-3.8565364524317585"><ele>35.0</ele><time>2026-04-30T18:18:57Z</time></trkpt><trkpt lat="43.426179813993635" lon="-3.8565296500323982"><ele>35.0</ele><time>2026-04-30T18:18:58Z</time></trkpt><trkpt lat="43.426268829480776" lon="-3.8565298877723437"><ele>35.0</ele><time>2026-04-30T18:18:59Z</time></trkpt><trkpt lat="43.42635940818681" lon="-3.8565358907728804"><ele>35.0</ele><time>2026-04-30T18:19:00Z</time></trkpt><trkpt lat="43.42645354242662" lon="-3.85653434638819"><ele>35.0</ele><time>2026-04-30T18:19:01Z</time></trkpt><trkpt lat="43.42655213694941" lon="-3.8565390012497236"><ele>35.0</ele><time>2026-04-30T18:19:02Z</time></trkpt><trkpt lat="43.426649326271054" lon="-3.8565379795202808"><ele>34.8</ele><time>2026-04-30T18:19:03Z</time></trkpt><trkpt lat="43.42674489339679" lon="-3.856543890551073"><ele>34.6</ele><time>2026-04-30T18:19:04Z</time></trkpt><trkpt lat="43.426843544209575" lon="-3.8565465008249014"><ele>34.4</ele><time>2026-04-30T18:19:05Z</time></trkpt><trkpt lat="43.42693988301936" lon="-3.856554977210546"><ele>34.2</ele><time>2026-04-30T18:19:06Z</time></trkpt><trkpt lat="43.42703411973724" lon="-3.8565594423745475"><ele>34.0</ele><time>2026-04-30T18:19:07Z</time></trkpt><trkpt lat="43.42712698165698" lon="-3.8565622016067196"><ele>34.6</ele><time>2026-04-30T18:19:08Z</time></trkpt><trkpt lat="43.42722250608679" lon="-3.8565626620272924"><ele>35.2</ele><time>2026-04-30T18:19:09Z</time></trkpt><trkpt lat="43.42731742085364" lon="-3.8565630657858088"><ele>35.800000000000004</ele><time>2026-04-30T18:19:10Z</time></trkpt><trkpt lat="43.427412666578675" lon="-3.8565578110088565"><ele>36.4</ele><time>2026-04-30T18:19:11Z</time></trkpt><trkpt lat="43.427510021837755" lon="-3.8565553398575"><ele>37.0</ele><time>2026-04-30T18:19:12Z</time></trkpt><trkpt lat="43.42760943480931" lon="-3.8565524418544364"><ele>37.0</ele><time>2026-04-30T18:19:13Z</time></trkpt><trkpt lat="43.42771040828387" lon="-3.8565475746560782"><ele>37.0</ele><time>2026-04-30T18:19:14Z</time></trkpt><trkpt lat="43.42781244108189" lon="-3.8565423108736137"><ele>37.0</ele><time>2026-04-30T18:19:15Z</time></trkpt><trkpt lat="43.42791481546942" lon="-3.8565443991876167"><ele>37.0</ele><time>2026-04-30T18:19:16Z</time></trkpt><trkpt lat="43.42801271789871" lon="-3.856545896404471"><ele>37.0</ele><time>2026-04-30T18:19:17Z</time></trkpt><trkpt lat="43.42811023728445" lon="-3.8565532873101587"><ele>37.0</ele><time>2026-04-30T18:19:18Z</time></trkpt><trkpt lat="43.4282132124064" lon="-3.8565747327147566"><ele>37.0</ele><time>2026-04-30T18:19:19Z</time></trkpt><trkpt lat="43.42832202942771" lon="-3.8566069450156295"><ele>37.0</ele><time>2026-04-30T18:19:20Z</time></trkpt><trkpt lat="43.428397081201595" lon="-3.856659655752448"><ele>37.0</ele><time>2026-04-30T18:19:21Z</time></trkpt><trkpt lat="43.428437183232965" lon="-3.856880282894783"><ele>38.0</ele><time>2026-04-30T18:19:23Z</time></trkpt><trkpt lat="43.428733239515964" lon="-3.8567948551636047"><ele>39.0</ele><time>2026-04-30T18:19:24Z</time></trkpt><trkpt lat="43.42883212052124" lon="-3.856832904013302"><ele>40.0</ele><time>2026-04-30T18:19:25Z</time></trkpt><trkpt lat="43.42893419069585" lon="-3.8568717260489827"><ele>40.0</ele><time>2026-04-30T18:19:26Z</time></trkpt><trkpt lat="43.4290327087372" lon="-3.8569030306364667"><ele>40.0</ele><time>2026-04-30T18:19:27Z</time></trkpt><trkpt lat="43.42913340653331" lon="-3.856930986450266"><ele>40.0</ele><time>2026-04-30T18:19:28.001Z</time></trkpt><trkpt lat="43.42923527020265" lon="-3.8569364876262933"><ele>40.0</ele><time>2026-04-30T18:19:29.001Z</time></trkpt><trkpt lat="43.42933934321103" lon="-3.8569432626452533"><ele>40.0</ele><time>2026-04-30T18:19:30.001Z</time></trkpt><trkpt lat="43.42944597513225" lon="-3.8569428524926366"><ele>40.0</ele><time>2026-04-30T18:19:31.001Z</time></trkpt><trkpt lat="43.42955223141515" lon="-3.8569574805085436"><ele>40.0</ele><time>2026-04-30T18:19:32.001Z</time></trkpt><trkpt lat="43.42965683875955" lon="-3.856939426558064"><ele>40.0</ele><time>2026-04-30T18:19:33.001Z</time></trkpt><trkpt lat="43.42976255341371" lon="-3.856926923275472"><ele>40.0</ele><time>2026-04-30T18:19:34.001Z</time></trkpt><trkpt lat="43.42987161729994" lon="-3.8569125403869493"><ele>40.0</ele><time>2026-04-30T18:19:35.001Z</time></trkpt><trkpt lat="43.42998079161008" lon="-3.8569002426345436"><ele>39.2</ele><time>2026-04-30T18:19:36.001Z</time></trkpt><trkpt lat="43.43008536740162" lon="-3.8568861088844044"><ele>38.4</ele><time>2026-04-30T18:19:37.001Z</time></trkpt><trkpt lat="43.43019289220246" lon="-3.8568697363723397"><ele>37.6</ele><time>2026-04-30T18:19:38.001Z</time></trkpt><trkpt lat="43.43029977630308" lon="-3.8568568759082633"><ele>36.8</ele><time>2026-04-30T18:19:39.001Z</time></trkpt><trkpt lat="43.43040566379522" lon="-3.8568430411513037"><ele>36.0</ele><time>2026-04-30T18:19:40.001Z</time></trkpt><trkpt lat="43.4305131317332" lon="-3.856827827898156"><ele>35.8</ele><time>2026-04-30T18:19:41.001Z</time></trkpt><trkpt lat="43.43062101714363" lon="-3.8568114710661"><ele>35.6</ele><time>2026-04-30T18:19:42.001Z</time></trkpt><trkpt lat="43.43072958402397" lon="-3.85679414251101"><ele>35.4</ele><time>2026-04-30T18:19:43.001Z</time></trkpt><trkpt lat="43.430842149053255" lon="-3.8567773774657597"><ele>35.2</ele><time>2026-04-30T18:19:44.001Z</time></trkpt><trkpt lat="43.43094953071811" lon="-3.8567668782043465"><ele>35.0</ele><time>2026-04-30T18:19:45.001Z</time></trkpt><trkpt lat="43.43105696726413" lon="-3.856749134769202"><ele>34.4</ele><time>2026-04-30T18:19:46.001Z</time></trkpt><trkpt lat="43.431169167818446" lon="-3.8567380102812123"><ele>33.8</ele><time>2026-04-30T18:19:47.001Z</time></trkpt><trkpt lat="43.43127500008521" lon="-3.856720740981025"><ele>33.2</ele><time>2026-04-30T18:19:48.001Z</time></trkpt><trkpt lat="43.431384838084774" lon="-3.856700825748811"><ele>32.6</ele><time>2026-04-30T18:19:49.001Z</time></trkpt><trkpt lat="43.43149401732392" lon="-3.8566896730556914"><ele>32.0</ele><time>2026-04-30T18:19:50.001Z</time></trkpt><trkpt lat="43.43160435364711" lon="-3.8566721550496386"><ele>31.5</ele><time>2026-04-30T18:19:51.001Z</time></trkpt><trkpt lat="43.43171442998151" lon="-3.856646429142698"><ele>31.0</ele><time>2026-04-30T18:19:52.001Z</time></trkpt><trkpt lat="43.43182841377621" lon="-3.8566286247585513"><ele>30.5</ele><time>2026-04-30T18:19:53.001Z</time></trkpt><trkpt lat="43.431942753379516" lon="-3.8566108165104516"><ele>30.0</ele><time>2026-04-30T18:19:54.001Z</time></trkpt><trkpt lat="43.432056560914525" lon="-3.8565952840098485"><ele>27.0</ele><time>2026-04-30T18:19:55.001Z</time></trkpt><trkpt lat="43.432170073635056" lon="-3.8565772018260986"><ele>24.0</ele><time>2026-04-30T18:19:56.001Z</time></trkpt><trkpt lat="43.432283042074786" lon="-3.85656146514271"><ele>21.0</ele><time>2026-04-30T18:19:57.001Z</time></trkpt><trkpt lat="43.432395500567274" lon="-3.8565446482801473"><ele>18.0</ele><time>2026-04-30T18:19:58.001Z</time></trkpt><trkpt lat="43.43250893168769" lon="-3.8565300056378415"><ele>18.0</ele><time>2026-04-30T18:19:59.001Z</time></trkpt><trkpt lat="43.432624030363584" lon="-3.856519908949997"><ele>18.0</ele><time>2026-04-30T18:20:00.001Z</time></trkpt><trkpt lat="43.432737680825696" lon="-3.856517469960733"><ele>18.0</ele><time>2026-04-30T18:20:01.001Z</time></trkpt><trkpt lat="43.43285456270499" lon="-3.8565195224619107"><ele>18.0</ele><time>2026-04-30T18:20:02.001Z</time></trkpt><trkpt lat="43.43296787944083" lon="-3.8565271339418237"><ele>17.5</ele><time>2026-04-30T18:20:03.001Z</time></trkpt><trkpt lat="43.43308351257553" lon="-3.856540213653849"><ele>17.0</ele><time>2026-04-30T18:20:04.001Z</time></trkpt><trkpt lat="43.43319715041491" lon="-3.856564041070488"><ele>16.5</ele><time>2026-04-30T18:20:05.001Z</time></trkpt><trkpt lat="43.43331156420543" lon="-3.856593287384027"><ele>16.0</ele><time>2026-04-30T18:20:06.001Z</time></trkpt><trkpt lat="43.43342233123503" lon="-3.8566338531879305"><ele>16.0</ele><time>2026-04-30T18:20:07.001Z</time></trkpt><trkpt lat="43.43353317805979" lon="-3.856681751956851"><ele>16.0</ele><time>2026-04-30T18:20:08.001Z</time></trkpt><trkpt lat="43.4336403163241" lon="-3.8567362428734633"><ele>16.0</ele><time>2026-04-30T18:20:09.001Z</time></trkpt><trkpt lat="43.43374552112881" lon="-3.856796853325516"><ele>16.0</ele><time>2026-04-30T18:20:10.001Z</time></trkpt><trkpt lat="43.433848009184395" lon="-3.856861865981764"><ele>14.8</ele><time>2026-04-30T18:20:11.001Z</time></trkpt><trkpt lat="43.43394573556774" lon="-3.856938640120581"><ele>13.600000000000001</ele><time>2026-04-30T18:20:12.001Z</time></trkpt><trkpt lat="43.434039861960166" lon="-3.857017208297117"><ele>12.4</ele><time>2026-04-30T18:20:13.001Z</time></trkpt><trkpt lat="43.43413169061533" lon="-3.8570995932505916"><ele>11.2</ele><time>2026-04-30T18:20:14.001Z</time></trkpt><trkpt lat="43.4342250551648" lon="-3.857186707620517"><ele>10.0</ele><time>2026-04-30T18:20:15.001Z</time></trkpt><trkpt lat="43.43431230500564" lon="-3.8572790771626755"><ele>10.0</ele><time>2026-04-30T18:20:16.001Z</time></trkpt><trkpt lat="43.434387063099194" lon="-3.8573927719792533"><ele>10.0</ele><time>2026-04-30T18:20:17.001Z</time></trkpt><trkpt lat="43.43446983492063" lon="-3.8574796087941348"><ele>10.0</ele><time>2026-04-30T18:20:18.001Z</time></trkpt><trkpt lat="43.43454439688505" lon="-3.857595166772596"><ele>10.0</ele><time>2026-04-30T18:20:19.001Z</time></trkpt><trkpt lat="43.434615378886306" lon="-3.857714988359145"><ele>10.0</ele><time>2026-04-30T18:20:20.001Z</time></trkpt><trkpt lat="43.43468329621408" lon="-3.8578398817410253"><ele>9.0</ele><time>2026-04-30T18:20:21.001Z</time></trkpt><trkpt lat="43.43474542014446" lon="-3.857965378726264"><ele>8.0</ele><time>2026-04-30T18:20:22.001Z</time></trkpt><trkpt lat="43.434805826565" lon="-3.8580922430117255"><ele>7.0</ele><time>2026-04-30T18:20:23.002Z</time></trkpt><trkpt lat="43.43486192445198" lon="-3.8582262816547006"><ele>6.0</ele><time>2026-04-30T18:20:24.002Z</time></trkpt><trkpt lat="43.43491987419463" lon="-3.858356867440532"><ele>5.0</ele><time>2026-04-30T18:20:25.002Z</time></trkpt><trkpt lat="43.4349756873695" lon="-3.8584892153710935"><ele>5.0</ele><time>2026-04-30T18:20:26.002Z</time></trkpt><trkpt lat="43.43502734634375" lon="-3.858625829244607"><ele>5.0</ele><time>2026-04-30T18:20:27.002Z</time></trkpt><trkpt lat="43.435082095410465" lon="-3.8587578637201947"><ele>5.0</ele><time>2026-04-30T18:20:28.002Z</time></trkpt><trkpt lat="43.435137513268046" lon="-3.8588919413172604"><ele>5.0</ele><time>2026-04-30T18:20:29.002Z</time></trkpt><trkpt lat="43.435193043496234" lon="-3.8590244269497607"><ele>5.0</ele><time>2026-04-30T18:20:30.002Z</time></trkpt><trkpt lat="43.43524735026315" lon="-3.8591611143017723"><ele>4.8</ele><time>2026-04-30T18:20:31.002Z</time></trkpt><trkpt lat="43.435305828065594" lon="-3.8592929279426675"><ele>4.6</ele><time>2026-04-30T18:20:32.002Z</time></trkpt><trkpt lat="43.435361256291756" lon="-3.8594243814633202"><ele>4.4</ele><time>2026-04-30T18:20:33.002Z</time></trkpt><trkpt lat="43.43541887895665" lon="-3.8595544392670162"><ele>4.2</ele><time>2026-04-30T18:20:34.002Z</time></trkpt><trkpt lat="43.435477168784544" lon="-3.8596846450257583"><ele>4.0</ele><time>2026-04-30T18:20:35.002Z</time></trkpt><trkpt lat="43.435537244996496" lon="-3.859810247297708"><ele>4.0</ele><time>2026-04-30T18:20:36.002Z</time></trkpt><trkpt lat="43.4356011821379" lon="-3.8599386571472065"><ele>4.0</ele><time>2026-04-30T18:20:37.002Z</time></trkpt><trkpt lat="43.43566886411268" lon="-3.8600590724399275"><ele>4.0</ele><time>2026-04-30T18:20:38.002Z</time></trkpt><trkpt lat="43.43573574604108" lon="-3.860179356132272"><ele>4.0</ele><time>2026-04-30T18:20:39.002Z</time></trkpt><trkpt lat="43.43580593350775" lon="-3.860290714217754"><ele>4.0</ele><time>2026-04-30T18:20:40.002Z</time></trkpt><trkpt lat="43.43588332313789" lon="-3.8604001624531494"><ele>4.6</ele><time>2026-04-30T18:20:41.002Z</time></trkpt><trkpt lat="43.435949916939244" lon="-3.86050283958402"><ele>5.2</ele><time>2026-04-30T18:20:42.002Z</time></trkpt><trkpt lat="43.43601381874423" lon="-3.860598753506042"><ele>5.799999999999999</ele><time>2026-04-30T18:20:43.002Z</time></trkpt><trkpt lat="43.436115474252446" lon="-3.8607169338633236"><ele>6.3999999999999995</ele><time>2026-04-30T18:20:44.002Z</time></trkpt><trkpt lat="43.43620250287478" lon="-3.8608159628220062"><ele>7.0</ele><time>2026-04-30T18:20:45.002Z</time></trkpt><trkpt lat="43.43629094266038" lon="-3.8609059414734537"><ele>7.199999999999999</ele><time>2026-04-30T18:20:46.002Z</time></trkpt><trkpt lat="43.43638490493662" lon="-3.8609854524024074"><ele>7.3999999999999995</ele><time>2026-04-30T18:20:47.002Z</time></trkpt><trkpt lat="43.43648279092186" lon="-3.8610594971777887"><ele>7.6000000000000005</ele><time>2026-04-30T18:20:48.002Z</time></trkpt><trkpt lat="43.436584928396115" lon="-3.8611290768686746"><ele>7.800000000000001</ele><time>2026-04-30T18:20:49.002Z</time></trkpt><trkpt lat="43.43668629108962" lon="-3.861189394141492"><ele>8.0</ele><time>2026-04-30T18:20:50.002Z</time></trkpt><trkpt lat="43.43678999153744" lon="-3.861248802367436"><ele>8.0</ele><time>2026-04-30T18:20:51.002Z</time></trkpt><trkpt lat="43.436894525133866" lon="-3.8613042243677134"><ele>8.0</ele><time>2026-04-30T18:20:52.002Z</time></trkpt><trkpt lat="43.4369989526833" lon="-3.861344255796396"><ele>8.0</ele><time>2026-04-30T18:20:53Z</time></trkpt><trkpt lat="43.43710807363421" lon="-3.8613780363923627"><ele>8.0</ele><time>2026-04-30T18:20:54Z</time></trkpt><trkpt lat="43.43721985295191" lon="-3.8613972101452103"><ele>8.0</ele><time>2026-04-30T18:20:55Z</time></trkpt><trkpt lat="43.43732981403685" lon="-3.861409550841917"><ele>7.6000000000000005</ele><time>2026-04-30T18:20:56Z</time></trkpt><trkpt lat="43.43744166814052" lon="-3.861419874988611"><ele>7.200000000000001</ele><time>2026-04-30T18:20:57Z</time></trkpt><trkpt lat="43.43755525462218" lon="-3.8614325220804067"><ele>6.8</ele><time>2026-04-30T18:20:58Z</time></trkpt><trkpt lat="43.43767020069245" lon="-3.8614349753879957"><ele>6.4</ele><time>2026-04-30T18:20:59Z</time></trkpt><trkpt lat="43.43777849588292" lon="-3.8614340017426767"><ele>6.0</ele><time>2026-04-30T18:21:00Z</time></trkpt><trkpt lat="43.437886801361856" lon="-3.8614256219981007"><ele>5.8</ele><time>2026-04-30T18:21:01Z</time></trkpt><trkpt lat="43.43799769425392" lon="-3.86141590311204"><ele>5.6</ele><time>2026-04-30T18:21:02Z</time></trkpt><trkpt lat="43.438102452280084" lon="-3.861397534929807"><ele>5.4</ele><time>2026-04-30T18:21:03Z</time></trkpt><trkpt lat="43.438214946625855" lon="-3.8613703617918764"><ele>5.2</ele><time>2026-04-30T18:21:04Z</time></trkpt><trkpt lat="43.438307348224555" lon="-3.8613427197845254"><ele>5.0</ele><time>2026-04-30T18:21:05Z</time></trkpt><trkpt lat="43.43840579837856" lon="-3.861318338487374"><ele>5.0</ele><time>2026-04-30T18:21:06Z</time></trkpt><trkpt lat="43.43852088945334" lon="-3.8612966867413956"><ele>5.0</ele><time>2026-04-30T18:21:07Z</time></trkpt><trkpt lat="43.438614816277365" lon="-3.8612628892027017"><ele>5.0</ele><time>2026-04-30T18:21:08Z</time></trkpt><trkpt lat="43.43873143116721" lon="-3.8612073339758086"><ele>5.0</ele><time>2026-04-30T18:21:09Z</time></trkpt><trkpt lat="43.43889718958589" lon="-3.861117486516067"><ele>5.0</ele><time>2026-04-30T18:21:10Z</time></trkpt><trkpt lat="43.43902846158447" lon="-3.8610777327288965"><ele>5.0</ele><time>2026-04-30T18:21:12Z</time></trkpt><trkpt lat="43.43912615041763" lon="-3.861025916549497"><ele>5.0</ele><time>2026-04-30T18:21:13Z</time></trkpt><trkpt lat="43.439218299284" lon="-3.8609683725917225"><ele>5.0</ele><time>2026-04-30T18:21:14Z</time></trkpt><trkpt lat="43.43931164159745" lon="-3.8609066784109882"><ele>5.0</ele><time>2026-04-30T18:21:15Z</time></trkpt><trkpt lat="43.439402713582766" lon="-3.8608445645317304"><ele>4.8</ele><time>2026-04-30T18:21:16Z</time></trkpt><trkpt lat="43.4394950311414" lon="-3.8607840337650785"><ele>4.6</ele><time>2026-04-30T18:21:17Z</time></trkpt><trkpt lat="43.43958051162171" lon="-3.8607146084202286"><ele>4.4</ele><time>2026-04-30T18:21:18Z</time></trkpt><trkpt lat="43.43966229130374" lon="-3.8606526141616655"><ele>4.2</ele><time>2026-04-30T18:21:19Z</time></trkpt><trkpt lat="43.43974372068227" lon="-3.8605846832833084"><ele>4.0</ele><time>2026-04-30T18:21:20Z</time></trkpt><trkpt lat="43.43982618944015" lon="-3.8605134112300608"><ele>4.0</ele><time>2026-04-30T18:21:21Z</time></trkpt><trkpt lat="43.43990962560755" lon="-3.860435421096548"><ele>4.0</ele><time>2026-04-30T18:21:22Z</time></trkpt><trkpt lat="43.43999461825834" lon="-3.8603544623190373"><ele>4.0</ele><time>2026-04-30T18:21:23Z</time></trkpt><trkpt lat="43.440078066634726" lon="-3.8602734599743367"><ele>4.0</ele><time>2026-04-30T18:21:24Z</time></trkpt><trkpt lat="43.44015624015887" lon="-3.8601959543068416"><ele>4.0</ele><time>2026-04-30T18:21:25Z</time></trkpt><trkpt lat="43.44022866978393" lon="-3.8601238600499523"><ele>3.6</ele><time>2026-04-30T18:21:26Z</time></trkpt><trkpt lat="43.44030764292238" lon="-3.8600503804271207"><ele>3.2</ele><time>2026-04-30T18:21:27Z</time></trkpt><trkpt lat="43.44038478246159" lon="-3.859970676374839"><ele>2.8000000000000003</ele><time>2026-04-30T18:21:28Z</time></trkpt><trkpt lat="43.44045926184404" lon="-3.859894469689939"><ele>2.4000000000000004</ele><time>2026-04-30T18:21:29.001Z</time></trkpt><trkpt lat="43.44053480153533" lon="-3.8598174920300496"><ele>2.0</ele><time>2026-04-30T18:21:30.001Z</time></trkpt><trkpt lat="43.440611841677644" lon="-3.8597386063456938"><ele>2.8</ele><time>2026-04-30T18:21:31.001Z</time></trkpt><trkpt lat="43.440688753331585" lon="-3.85965869696003"><ele>3.6</ele><time>2026-04-30T18:21:32.001Z</time></trkpt><trkpt lat="43.44077100888554" lon="-3.8595774170713812"><ele>4.3999999999999995</ele><time>2026-04-30T18:21:33.001Z</time></trkpt><trkpt lat="43.44085155842081" lon="-3.859497282839933"><ele>5.2</ele><time>2026-04-30T18:21:34.001Z</time></trkpt><trkpt lat="43.44092922583362" lon="-3.8594161772972853"><ele>6.0</ele><time>2026-04-30T18:21:35.001Z</time></trkpt><trkpt lat="43.44100366702572" lon="-3.859345260584081"><ele>5.8</ele><time>2026-04-30T18:21:36.001Z</time></trkpt><trkpt lat="43.441084879350925" lon="-3.859263023933144"><ele>5.6</ele><time>2026-04-30T18:21:37.001Z</time></trkpt><trkpt lat="43.4411687695576" lon="-3.8591821557175363"><ele>5.4</ele><time>2026-04-30T18:21:38.001Z</time></trkpt><trkpt lat="43.441258199583515" lon="-3.8591063092049587"><ele>5.2</ele><time>2026-04-30T18:21:39.001Z</time></trkpt><trkpt lat="43.44134633666823" lon="-3.859021646519065"><ele>5.0</ele><time>2026-04-30T18:21:40.001Z</time></trkpt><trkpt lat="43.441428996324426" lon="-3.8589441763171193"><ele>5.0</ele><time>2026-04-30T18:21:41.001Z</time></trkpt><trkpt lat="43.441521855640595" lon="-3.8588606748321803"><ele>5.0</ele><time>2026-04-30T18:21:42.001Z</time></trkpt><trkpt lat="43.44161022938795" lon="-3.8587743070017053"><ele>5.0</ele><time>2026-04-30T18:21:43.001Z</time></trkpt><trkpt lat="43.441699991718544" lon="-3.858689422501384"><ele>5.0</ele><time>2026-04-30T18:21:44.001Z</time></trkpt><trkpt lat="43.441790121192376" lon="-3.8586084758879227"><ele>5.0</ele><time>2026-04-30T18:21:45.001Z</time></trkpt><trkpt lat="43.4418798556306" lon="-3.858526892450264"><ele>5.2</ele><time>2026-04-30T18:21:46.001Z</time></trkpt><trkpt lat="43.441968030429045" lon="-3.8584454157643715"><ele>5.4</ele><time>2026-04-30T18:21:47.001Z</time></trkpt><trkpt lat="43.44205491100052" lon="-3.8583664984642287"><ele>5.6</ele><time>2026-04-30T18:21:48.001Z</time></trkpt><trkpt lat="43.442150997363804" lon="-3.858284309435489"><ele>5.8</ele><time>2026-04-30T18:21:49.001Z</time></trkpt><trkpt lat="43.442238132136666" lon="-3.858204233732215"><ele>6.0</ele><time>2026-04-30T18:21:50.001Z</time></trkpt><trkpt lat="43.44237078322548" lon="-3.8581242240686398"><ele>6.4</ele><time>2026-04-30T18:21:51.001Z</time></trkpt><trkpt lat="43.4424025978581" lon="-3.8580462209028217"><ele>6.8</ele><time>2026-04-30T18:21:52.001Z</time></trkpt><trkpt lat="43.442486127291716" lon="-3.857973109620288"><ele>7.200000000000001</ele><time>2026-04-30T18:21:53.001Z</time></trkpt><trkpt lat="43.44257487026421" lon="-3.857894364552003"><ele>7.6000000000000005</ele><time>2026-04-30T18:21:54.001Z</time></trkpt><trkpt lat="43.44266130932832" lon="-3.857812976140959"><ele>8.0</ele><time>2026-04-30T18:21:55.001Z</time></trkpt><trkpt lat="43.44274510143969" lon="-3.8577299679634653"><ele>8.0</ele><time>2026-04-30T18:21:56.001Z</time></trkpt><trkpt lat="43.44283101554836" lon="-3.857646945174452"><ele>8.0</ele><time>2026-04-30T18:21:57.001Z</time></trkpt><trkpt lat="43.44292317753752" lon="-3.857562524117554"><ele>8.0</ele><time>2026-04-30T18:21:58.001Z</time></trkpt><trkpt lat="43.44301898766185" lon="-3.8574697775326814"><ele>8.0</ele><time>2026-04-30T18:21:59.001Z</time></trkpt><trkpt lat="43.4431044422002" lon="-3.8573963069295294"><ele>8.0</ele><time>2026-04-30T18:22:00.001Z</time></trkpt><trkpt lat="43.443199817099924" lon="-3.857314107131665"><ele>9.0</ele><time>2026-04-30T18:22:01.001Z</time></trkpt><trkpt lat="43.4432940748708" lon="-3.8572218701909"><ele>10.0</ele><time>2026-04-30T18:22:02.001Z</time></trkpt><trkpt lat="43.4433875967578" lon="-3.857132316648722"><ele>11.0</ele><time>2026-04-30T18:22:03.001Z</time></trkpt><trkpt lat="43.44348884783776" lon="-3.8570482625231914"><ele>12.0</ele><time>2026-04-30T18:22:04.001Z</time></trkpt><trkpt lat="43.44358981461496" lon="-3.856968602481546"><ele>12.0</ele><time>2026-04-30T18:22:05.001Z</time></trkpt><trkpt lat="43.44369009565896" lon="-3.856914840476508"><ele>12.0</ele><time>2026-04-30T18:22:06.001Z</time></trkpt><trkpt lat="43.44379789090788" lon="-3.856843748721785"><ele>12.0</ele><time>2026-04-30T18:22:07.001Z</time></trkpt><trkpt lat="43.4439061385966" lon="-3.8567845253019066"><ele>12.0</ele><time>2026-04-30T18:22:08.001Z</time></trkpt><trkpt lat="43.44401175509455" lon="-3.8567232319742155"><ele>12.399999999999999</ele><time>2026-04-30T18:22:09.001Z</time></trkpt><trkpt lat="43.44410371025629" lon="-3.8566179141185146"><ele>12.799999999999999</ele><time>2026-04-30T18:22:10.001Z</time></trkpt><trkpt lat="43.444195620040155" lon="-3.856574085485008"><ele>13.2</ele><time>2026-04-30T18:22:11.001Z</time></trkpt><trkpt lat="43.444288172706884" lon="-3.856505102397177"><ele>13.6</ele><time>2026-04-30T18:22:12.001Z</time></trkpt><trkpt lat="43.444386670149726" lon="-3.8564470321128574"><ele>14.0</ele><time>2026-04-30T18:22:13.001Z</time></trkpt><trkpt lat="43.44448527329775" lon="-3.856397405885227"><ele>14.0</ele><time>2026-04-30T18:22:14.001Z</time></trkpt><trkpt lat="43.444567746615874" lon="-3.856351172675834"><ele>13.999999999999998</ele><time>2026-04-30T18:22:15.001Z</time></trkpt><trkpt lat="43.44466588114997" lon="-3.856293357236085"><ele>13.999999999999998</ele><time>2026-04-30T18:22:16.001Z</time></trkpt><trkpt lat="43.44475780748085" lon="-3.8562385761397375"><ele>14.0</ele><time>2026-04-30T18:22:17.001Z</time></trkpt><trkpt lat="43.44484926042336" lon="-3.8561887860108044"><ele>14.0</ele><time>2026-04-30T18:22:18.001Z</time></trkpt><trkpt lat="43.44493969574231" lon="-3.85613408569301"><ele>13.799999999999999</ele><time>2026-04-30T18:22:19.001Z</time></trkpt><trkpt lat="43.44502873103339" lon="-3.856079778962058"><ele>13.599999999999998</ele><time>2026-04-30T18:22:20.001Z</time></trkpt><trkpt lat="43.44512121948037" lon="-3.8560225916588866"><ele>13.4</ele><time>2026-04-30T18:22:21.001Z</time></trkpt><trkpt lat="43.44521473755647" lon="-3.8559636289359913"><ele>13.2</ele><time>2026-04-30T18:22:22.001Z</time></trkpt><trkpt lat="43.445312836446654" lon="-3.8559037058467993"><ele>13.0</ele><time>2026-04-30T18:22:23.001Z</time></trkpt><trkpt lat="43.44541199701719" lon="-3.8558449376036226"><ele>12.200000000000001</ele><time>2026-04-30T18:22:24.001Z</time></trkpt><trkpt lat="43.445518909408676" lon="-3.855792355074036"><ele>11.4</ele><time>2026-04-30T18:22:25.001Z</time></trkpt><trkpt lat="43.44560913045214" lon="-3.855730409629578"><ele>10.600000000000001</ele><time>2026-04-30T18:22:26.001Z</time></trkpt><trkpt lat="43.44571224301483" lon="-3.8556767640123293"><ele>9.8</ele><time>2026-04-30T18:22:27.002Z</time></trkpt><trkpt lat="43.44579558239847" lon="-3.8556184612394024"><ele>9.0</ele><time>2026-04-30T18:22:28.002Z</time></trkpt><trkpt lat="43.445881702432125" lon="-3.8555635257274443"><ele>9.0</ele><time>2026-04-30T18:22:29.002Z</time></trkpt><trkpt lat="43.44597249846614" lon="-3.8555093253906794"><ele>9.0</ele><time>2026-04-30T18:22:30.002Z</time></trkpt><trkpt lat="43.44606211227496" lon="-3.8554596938110532"><ele>9.0</ele><time>2026-04-30T18:22:31.002Z</time></trkpt><trkpt lat="43.44614747009745" lon="-3.8554084320764113"><ele>9.0</ele><time>2026-04-30T18:22:32.002Z</time></trkpt><trkpt lat="43.44623972268311" lon="-3.8553524696387154"><ele>9.0</ele><time>2026-04-30T18:22:33.002Z</time></trkpt><trkpt lat="43.44633331802968" lon="-3.8552955495468755"><ele>9.0</ele><time>2026-04-30T18:22:34.002Z</time></trkpt><trkpt lat="43.44642799072801" lon="-3.855239086761688"><ele>9.0</ele><time>2026-04-30T18:22:35.002Z</time></trkpt><trkpt lat="43.446524349755215" lon="-3.8551784362533725"><ele>9.0</ele><time>2026-04-30T18:22:36.002Z</time></trkpt><trkpt lat="43.44661845260996" lon="-3.855112238124972"><ele>9.0</ele><time>2026-04-30T18:22:37.002Z</time></trkpt><trkpt lat="43.4467099550827" lon="-3.8550449598189793"><ele>9.0</ele><time>2026-04-30T18:22:38.002Z</time></trkpt><trkpt lat="43.446802662446586" lon="-3.8549734069976136"><ele>9.0</ele><time>2026-04-30T18:22:39.002Z</time></trkpt><trkpt lat="43.44689553888698" lon="-3.8549012799816813"><ele>9.0</ele><time>2026-04-30T18:22:40.002Z</time></trkpt><trkpt lat="43.44698145575516" lon="-3.8548105144467444"><ele>9.0</ele><time>2026-04-30T18:22:41.002Z</time></trkpt><trkpt lat="43.44707745326659" lon="-3.854730281641384"><ele>9.0</ele><time>2026-04-30T18:22:42.002Z</time></trkpt><trkpt lat="43.447156483152696" lon="-3.8546482990693356"><ele>9.0</ele><time>2026-04-30T18:22:43.002Z</time></trkpt><trkpt lat="43.44723684651606" lon="-3.8545566856496194"><ele>9.0</ele><time>2026-04-30T18:22:44.002Z</time></trkpt><trkpt lat="43.44731574546788" lon="-3.8544610298149378"><ele>9.0</ele><time>2026-04-30T18:22:45.002Z</time></trkpt><trkpt lat="43.44739219633894" lon="-3.8543569274295373"><ele>9.0</ele><time>2026-04-30T18:22:46.002Z</time></trkpt><trkpt lat="43.44747208333484" lon="-3.854258024452842"><ele>9.0</ele><time>2026-04-30T18:22:47.002Z</time></trkpt><trkpt lat="43.44754216186297" lon="-3.85414774179371"><ele>9.0</ele><time>2026-04-30T18:22:48.002Z</time></trkpt><trkpt lat="43.44760471778107" lon="-3.85402287530527"><ele>9.2</ele><time>2026-04-30T18:22:49.002Z</time></trkpt><trkpt lat="43.447665552322064" lon="-3.853899313410938"><ele>9.4</ele><time>2026-04-30T18:22:50.002Z</time></trkpt><trkpt lat="43.44772429497126" lon="-3.853774386393643"><ele>9.6</ele><time>2026-04-30T18:22:51.002Z</time></trkpt><trkpt lat="43.44778061724801" lon="-3.853658412623492"><ele>9.8</ele><time>2026-04-30T18:22:52.002Z</time></trkpt><trkpt lat="43.44782869197933" lon="-3.8535257228226616"><ele>10.0</ele><time>2026-04-30T18:22:53.002Z</time></trkpt><trkpt lat="43.44789356364029" lon="-3.8533992576860556"><ele>10.0</ele><time>2026-04-30T18:22:54.002Z</time></trkpt><trkpt lat="43.447951816304936" lon="-3.8532572359700223"><ele>10.0</ele><time>2026-04-30T18:22:55.002Z</time></trkpt><trkpt lat="43.447995813521636" lon="-3.8531614472814084"><ele>10.0</ele><time>2026-04-30T18:22:56.002Z</time></trkpt><trkpt lat="43.44804778044176" lon="-3.8530416668487764"><ele>10.0</ele><time>2026-04-30T18:22:57.002Z</time></trkpt><trkpt lat="43.448094522841664" lon="-3.852934223488145"><ele>10.0</ele><time>2026-04-30T18:22:58.002Z</time></trkpt><trkpt lat="43.448137033316165" lon="-3.852837627349997"><ele>10.166666666666668</ele><time>2026-04-30T18:22:59Z</time></trkpt><trkpt lat="43.448175996440256" lon="-3.8527450983294975"><ele>10.333333333333334</ele><time>2026-04-30T18:23:00Z</time></trkpt><trkpt lat="43.4482133923098" lon="-3.8526609566233487"><ele>10.5</ele><time>2026-04-30T18:23:01Z</time></trkpt><trkpt lat="43.44824731319561" lon="-3.852579168027258"><ele>10.666666666666666</ele><time>2026-04-30T18:23:02Z</time></trkpt><trkpt lat="43.44828500144828" lon="-3.852431080971694"><ele>10.833333333333332</ele><time>2026-04-30T18:23:04Z</time></trkpt><trkpt lat="43.44831064647299" lon="-3.8522980607683515"><ele>11.0</ele><time>2026-04-30T18:23:06Z</time></trkpt><trkpt lat="43.44835964859315" lon="-3.852164000710524"><ele>11.0</ele><time>2026-04-30T18:23:08Z</time></trkpt><trkpt lat="43.448453583513896" lon="-3.8520481535687088"><ele>11.0</ele><time>2026-04-30T18:23:10Z</time></trkpt><trkpt lat="43.448511167326885" lon="-3.851989411915032"><ele>11.0</ele><time>2026-04-30T18:23:11Z</time></trkpt><trkpt lat="43.448556922367295" lon="-3.8519141430145325"><ele>11.0</ele><time>2026-04-30T18:23:12Z</time></trkpt><trkpt lat="43.448601103872356" lon="-3.8518246307751207"><ele>11.0</ele><time>2026-04-30T18:23:13Z</time></trkpt><trkpt lat="43.44864944107654" lon="-3.8517165499617976"><ele>11.0</ele><time>2026-04-30T18:23:14Z</time></trkpt><trkpt lat="43.44869858814882" lon="-3.8516048772084406"><ele>10.4</ele><time>2026-04-30T18:23:15Z</time></trkpt><trkpt lat="43.448745697472695" lon="-3.851491344627181"><ele>9.8</ele><time>2026-04-30T18:23:16Z</time></trkpt><trkpt lat="43.448790142739874" lon="-3.8513895042287034"><ele>9.200000000000001</ele><time>2026-04-30T18:23:17Z</time></trkpt><trkpt lat="43.448829456930895" lon="-3.8512511363844935"><ele>8.600000000000001</ele><time>2026-04-30T18:23:18Z</time></trkpt><trkpt lat="43.448883874616456" lon="-3.8511206955682282"><ele>8.0</ele><time>2026-04-30T18:23:19Z</time></trkpt><trkpt lat="43.4489310732922" lon="-3.8509888666333936"><ele>8.4</ele><time>2026-04-30T18:23:20Z</time></trkpt><trkpt lat="43.448973015028784" lon="-3.8508656533856263"><ele>8.8</ele><time>2026-04-30T18:23:21Z</time></trkpt><trkpt lat="43.44901928677594" lon="-3.8507310830067185"><ele>9.2</ele><time>2026-04-30T18:23:22Z</time></trkpt><trkpt lat="43.44906534973866" lon="-3.850602054094851"><ele>9.6</ele><time>2026-04-30T18:23:23Z</time></trkpt><trkpt lat="43.4491268396901" lon="-3.850518633238566"><ele>10.0</ele><time>2026-04-30T18:23:24Z</time></trkpt><trkpt lat="43.44915678251418" lon="-3.850413995788949"><ele>10.0</ele><time>2026-04-30T18:23:25Z</time></trkpt><trkpt lat="43.449182031502815" lon="-3.8502083504872457"><ele>10.0</ele><time>2026-04-30T18:23:26Z</time></trkpt><trkpt lat="43.4492101619947" lon="-3.850062603677113"><ele>10.0</ele><time>2026-04-30T18:23:27Z</time></trkpt><trkpt lat="43.44924067733257" lon="-3.849925041339719"><ele>10.0</ele><time>2026-04-30T18:23:28Z</time></trkpt><trkpt lat="43.449264094632895" lon="-3.849787901026026"><ele>10.2</ele><time>2026-04-30T18:23:29Z</time></trkpt><trkpt lat="43.449282966527605" lon="-3.849642430906156"><ele>10.4</ele><time>2026-04-30T18:23:30Z</time></trkpt><trkpt lat="43.4492967778713" lon="-3.849501120200446"><ele>10.600000000000001</ele><time>2026-04-30T18:23:31Z</time></trkpt><trkpt lat="43.44930830353055" lon="-3.8493588117666313"><ele>10.8</ele><time>2026-04-30T18:23:32Z</time></trkpt><trkpt lat="43.44931374012345" lon="-3.8492173886512244"><ele>11.0</ele><time>2026-04-30T18:23:33Z</time></trkpt><trkpt lat="43.449315863574284" lon="-3.849072199685627"><ele>10.8</ele><time>2026-04-30T18:23:34Z</time></trkpt><trkpt lat="43.44931534550574" lon="-3.848930781790318"><ele>10.600000000000001</ele><time>2026-04-30T18:23:35Z</time></trkpt><trkpt lat="43.44931855046283" lon="-3.8487871321660494"><ele>10.4</ele><time>2026-04-30T18:23:36Z</time></trkpt><trkpt lat="43.44932152803632" lon="-3.848642667192003"><ele>10.2</ele><time>2026-04-30T18:23:37.001Z</time></trkpt><trkpt lat="43.4493234373952" lon="-3.848500440587131"><ele>10.0</ele><time>2026-04-30T18:23:38.001Z</time></trkpt><trkpt lat="43.44932562654524" lon="-3.848358746579925"><ele>10.0</ele><time>2026-04-30T18:23:39.001Z</time></trkpt><trkpt lat="43.44932719757412" lon="-3.8482144366936355"><ele>10.0</ele><time>2026-04-30T18:23:40.001Z</time></trkpt><trkpt lat="43.4493280023654" lon="-3.8480715879711194"><ele>10.0</ele><time>2026-04-30T18:23:41.001Z</time></trkpt><trkpt lat="43.44933338397579" lon="-3.8479279131554858"><ele>10.0</ele><time>2026-04-30T18:23:42.001Z</time></trkpt><trkpt lat="43.449341779289206" lon="-3.8477877877667086"><ele>10.0</ele><time>2026-04-30T18:23:43.001Z</time></trkpt><trkpt lat="43.449352087483454" lon="-3.847639137111438"><ele>9.4</ele><time>2026-04-30T18:23:44.001Z</time></trkpt><trkpt lat="43.44935430143068" lon="-3.847501820916992"><ele>8.8</ele><time>2026-04-30T18:23:45.001Z</time></trkpt><trkpt lat="43.449358759283896" lon="-3.847363208193451"><ele>8.2</ele><time>2026-04-30T18:23:46.001Z</time></trkpt><trkpt lat="43.449367974480374" lon="-3.8472165265998672"><ele>7.6</ele><time>2026-04-30T18:23:47.001Z</time></trkpt><trkpt lat="43.44937807001029" lon="-3.8470664452861754"><ele>7.0</ele><time>2026-04-30T18:23:48.001Z</time></trkpt><trkpt lat="43.449374245463005" lon="-3.8469334452283825"><ele>7.199999999999999</ele><time>2026-04-30T18:23:49.001Z</time></trkpt><trkpt lat="43.44939076141349" lon="-3.8467805210614263"><ele>7.3999999999999995</ele><time>2026-04-30T18:23:50.001Z</time></trkpt><trkpt lat="43.44940662113341" lon="-3.8466375962124997"><ele>7.6000000000000005</ele><time>2026-04-30T18:23:51.001Z</time></trkpt><trkpt lat="43.44942693510669" lon="-3.84649316170006"><ele>7.800000000000001</ele><time>2026-04-30T18:23:52.001Z</time></trkpt><trkpt lat="43.44944354294754" lon="-3.8463673677558834"><ele>8.0</ele><time>2026-04-30T18:23:53.001Z</time></trkpt><trkpt lat="43.44943510873342" lon="-3.846198735542433"><ele>8.0</ele><time>2026-04-30T18:23:54.001Z</time></trkpt><trkpt lat="43.449443582548916" lon="-3.845989499543899"><ele>8.0</ele><time>2026-04-30T18:23:55.001Z</time></trkpt><trkpt lat="43.44945179087998" lon="-3.8457868189241786"><ele>8.0</ele><time>2026-04-30T18:23:56.001Z</time></trkpt><trkpt lat="43.44945273796614" lon="-3.845599530859473"><ele>8.0</ele><time>2026-04-30T18:23:58.001Z</time></trkpt><trkpt lat="43.44946282016592" lon="-3.845455738445058"><ele>8.200000000000001</ele><time>2026-04-30T18:23:59.001Z</time></trkpt><trkpt lat="43.449477093100036" lon="-3.845306809207476"><ele>8.4</ele><time>2026-04-30T18:24:00.001Z</time></trkpt><trkpt lat="43.44948732409994" lon="-3.8451569725879122"><ele>8.600000000000001</ele><time>2026-04-30T18:24:01.001Z</time></trkpt><trkpt lat="43.449495402705786" lon="-3.8450081743624516"><ele>8.8</ele><time>2026-04-30T18:24:02.001Z</time></trkpt><trkpt lat="43.449502701773895" lon="-3.8448613609789914"><ele>9.0</ele><time>2026-04-30T18:24:03.001Z</time></trkpt><trkpt lat="43.44950960171386" lon="-3.8447088732585457"><ele>9.0</ele><time>2026-04-30T18:24:04.001Z</time></trkpt><trkpt lat="43.449515018210484" lon="-3.844559563689164"><ele>9.0</ele><time>2026-04-30T18:24:05.001Z</time></trkpt><trkpt lat="43.449528640388515" lon="-3.844412976828221"><ele>9.0</ele><time>2026-04-30T18:24:06.001Z</time></trkpt><trkpt lat="43.449540721194374" lon="-3.8442625199079616"><ele>9.0</ele><time>2026-04-30T18:24:07.001Z</time></trkpt><trkpt lat="43.44955495606017" lon="-3.844108116345956"><ele>9.0</ele><time>2026-04-30T18:24:08.001Z</time></trkpt><trkpt lat="43.44957082543433" lon="-3.843955461150327"><ele>8.8</ele><time>2026-04-30T18:24:09.001Z</time></trkpt><trkpt lat="43.4495880488912" lon="-3.8438013021910966"><ele>8.600000000000001</ele><time>2026-04-30T18:24:10.001Z</time></trkpt><trkpt lat="43.44960216373484" lon="-3.8436481135284755"><ele>8.4</ele><time>2026-04-30T18:24:11.001Z</time></trkpt><trkpt lat="43.4496226110966" lon="-3.8435065998121316"><ele>8.200000000000001</ele><time>2026-04-30T18:24:12.001Z</time></trkpt><trkpt lat="43.44963957831807" lon="-3.843359865268151"><ele>8.0</ele><time>2026-04-30T18:24:13.001Z</time></trkpt><trkpt lat="43.4496577593733" lon="-3.8432116815909927"><ele>8.8</ele><time>2026-04-30T18:24:14.001Z</time></trkpt><trkpt lat="43.449677732547634" lon="-3.8430655138203456"><ele>9.600000000000001</ele><time>2026-04-30T18:24:15.001Z</time></trkpt><trkpt lat="43.449699226985466" lon="-3.8429229957951514"><ele>10.399999999999999</ele><time>2026-04-30T18:24:16.001Z</time></trkpt><trkpt lat="43.449724850354954" lon="-3.842779690260732"><ele>11.2</ele><time>2026-04-30T18:24:17.001Z</time></trkpt><trkpt lat="43.449740559224004" lon="-3.8426289660183883"><ele>12.0</ele><time>2026-04-30T18:24:18.001Z</time></trkpt><trkpt lat="43.44976204954725" lon="-3.8424800362238707"><ele>12.0</ele><time>2026-04-30T18:24:19.001Z</time></trkpt><trkpt lat="43.44978290821794" lon="-3.842332048907217"><ele>12.0</ele><time>2026-04-30T18:24:20.001Z</time></trkpt><trkpt lat="43.449799952916294" lon="-3.8421819754681996"><ele>12.0</ele><time>2026-04-30T18:24:21.001Z</time></trkpt><trkpt lat="43.449821751919956" lon="-3.842032690221143"><ele>12.0</ele><time>2026-04-30T18:24:22.001Z</time></trkpt><trkpt lat="43.449842324" lon="-3.841884064333493"><ele>12.0</ele><time>2026-04-30T18:24:23.001Z</time></trkpt><trkpt lat="43.44986310195332" lon="-3.8417338170288136"><ele>11.4</ele><time>2026-04-30T18:24:24.001Z</time></trkpt><trkpt lat="43.449880983757076" lon="-3.841581322563532"><ele>10.799999999999999</ele><time>2026-04-30T18:24:25.001Z</time></trkpt><trkpt lat="43.44990044139629" lon="-3.8414310700917214"><ele>10.2</ele><time>2026-04-30T18:24:26.001Z</time></trkpt><trkpt lat="43.449921661360726" lon="-3.8412805741710465"><ele>9.6</ele><time>2026-04-30T18:24:27.001Z</time></trkpt><trkpt lat="43.449943206291344" lon="-3.841129485755355"><ele>9.0</ele><time>2026-04-30T18:24:28.001Z</time></trkpt><trkpt lat="43.449964777551" lon="-3.8409806683862446"><ele>8.8</ele><time>2026-04-30T18:24:29.001Z</time></trkpt><trkpt lat="43.44999422218513" lon="-3.840833267486879"><ele>8.600000000000001</ele><time>2026-04-30T18:24:30.001Z</time></trkpt><trkpt lat="43.450028952966335" lon="-3.8406888830247774"><ele>8.4</ele><time>2026-04-30T18:24:31.001Z</time></trkpt><trkpt lat="43.450070441545094" lon="-3.840551463423412"><ele>8.200000000000001</ele><time>2026-04-30T18:24:32.001Z</time></trkpt><trkpt lat="43.45011703317955" lon="-3.840410799034323"><ele>8.0</ele><time>2026-04-30T18:24:33.001Z</time></trkpt><trkpt lat="43.45016604343677" lon="-3.8402742372399765"><ele>8.0</ele><time>2026-04-30T18:24:34.001Z</time></trkpt><trkpt lat="43.45021591513899" lon="-3.8401355506760955"><ele>8.0</ele><time>2026-04-30T18:24:35.002Z</time></trkpt><trkpt lat="43.45026823917252" lon="-3.8399962599589696"><ele>8.0</ele><time>2026-04-30T18:24:36.002Z</time></trkpt><trkpt lat="43.45031878441244" lon="-3.8398641795543043"><ele>8.0</ele><time>2026-04-30T18:24:37.002Z</time></trkpt><trkpt lat="43.45036916852888" lon="-3.8397258861844907"><ele>8.0</ele><time>2026-04-30T18:24:38.002Z</time></trkpt><trkpt lat="43.45042027398846" lon="-3.839595938286208"><ele>8.200000000000001</ele><time>2026-04-30T18:24:39.002Z</time></trkpt><trkpt lat="43.45047452405527" lon="-3.8394610839551224"><ele>8.4</ele><time>2026-04-30T18:24:40.002Z</time></trkpt><trkpt lat="43.45052718062476" lon="-3.8393334398350647"><ele>8.600000000000001</ele><time>2026-04-30T18:24:41.002Z</time></trkpt><trkpt lat="43.45058260899065" lon="-3.8392010234894913"><ele>8.8</ele><time>2026-04-30T18:24:42.002Z</time></trkpt><trkpt lat="43.45063810173252" lon="-3.8390699070881578"><ele>9.0</ele><time>2026-04-30T18:24:43.002Z</time></trkpt><trkpt lat="43.45069170003584" lon="-3.8389391992603774"><ele>8.2</ele><time>2026-04-30T18:24:44.002Z</time></trkpt><trkpt lat="43.45074656225575" lon="-3.838811560611901"><ele>7.4</ele><time>2026-04-30T18:24:45.002Z</time></trkpt><trkpt lat="43.450799181737764" lon="-3.838679160053314"><ele>6.6</ele><time>2026-04-30T18:24:46.002Z</time></trkpt><trkpt lat="43.45085367711475" lon="-3.8385499862806456"><ele>5.8</ele><time>2026-04-30T18:24:47.002Z</time></trkpt><trkpt lat="43.45090790860583" lon="-3.838419190711979"><ele>5.0</ele><time>2026-04-30T18:24:48.002Z</time></trkpt><trkpt lat="43.450963014596745" lon="-3.838291167878837"><ele>4.8</ele><time>2026-04-30T18:24:49.002Z</time></trkpt><trkpt lat="43.451014888807435" lon="-3.8381544151248472"><ele>4.6</ele><time>2026-04-30T18:24:50.002Z</time></trkpt><trkpt lat="43.45106867423911" lon="-3.838026239623045"><ele>4.4</ele><time>2026-04-30T18:24:51.002Z</time></trkpt><trkpt lat="43.451123632503155" lon="-3.8378978167054876"><ele>4.2</ele><time>2026-04-30T18:24:52.002Z</time></trkpt><trkpt lat="43.451177198468706" lon="-3.8377672958387286"><ele>4.0</ele><time>2026-04-30T18:24:53.002Z</time></trkpt><trkpt lat="43.45122937322575" lon="-3.83763725025929"><ele>4.0</ele><time>2026-04-30T18:24:54.002Z</time></trkpt><trkpt lat="43.45128282556804" lon="-3.8375061481236656"><ele>4.0</ele><time>2026-04-30T18:24:55.002Z</time></trkpt><trkpt lat="43.4513352339145" lon="-3.8373786804940844"><ele>4.0</ele><time>2026-04-30T18:24:56.002Z</time></trkpt><trkpt lat="43.45138949860219" lon="-3.8372529071778927"><ele>4.0</ele><time>2026-04-30T18:24:57.002Z</time></trkpt><trkpt lat="43.45143934878542" lon="-3.8371222782930197"><ele>4.0</ele><time>2026-04-30T18:24:58.002Z</time></trkpt><trkpt lat="43.45149025548796" lon="-3.8369881797329715"><ele>4.0</ele><time>2026-04-30T18:24:59.002Z</time></trkpt><trkpt lat="43.4515426316217" lon="-3.836858917309939"><ele>4.0</ele><time>2026-04-30T18:25:00.002Z</time></trkpt><trkpt lat="43.4515921904781" lon="-3.8367247604776993"><ele>4.0</ele><time>2026-04-30T18:25:01.002Z</time></trkpt><trkpt lat="43.45164188942776" lon="-3.8365931968404197"><ele>4.0</ele><time>2026-04-30T18:25:02.002Z</time></trkpt><trkpt lat="43.45168746059583" lon="-3.836457699865393"><ele>4.0</ele><time>2026-04-30T18:25:03.002Z</time></trkpt><trkpt lat="43.451731530195104" lon="-3.836322857075621"><ele>4.0</ele><time>2026-04-30T18:25:04.002Z</time></trkpt><trkpt lat="43.45177604842823" lon="-3.8361843231428487"><ele>4.0</ele><time>2026-04-30T18:25:05Z</time></trkpt><trkpt lat="43.45181926259418" lon="-3.8360459588526776"><ele>4.0</ele><time>2026-04-30T18:25:06Z</time></trkpt><trkpt lat="43.45186004587506" lon="-3.8359068714871607"><ele>4.0</ele><time>2026-04-30T18:25:07Z</time></trkpt><trkpt lat="43.45190009020808" lon="-3.8357656287930384"><ele>4.0</ele><time>2026-04-30T18:25:08Z</time></trkpt><trkpt lat="43.451939661290034" lon="-3.8356268584858"><ele>3.6</ele><time>2026-04-30T18:25:09Z</time></trkpt><trkpt lat="43.45197890291754" lon="-3.8354862369554805"><ele>3.2</ele><time>2026-04-30T18:25:10Z</time></trkpt><trkpt lat="43.45201766056468" lon="-3.8353416656320376"><ele>2.8000000000000003</ele><time>2026-04-30T18:25:11Z</time></trkpt><trkpt lat="43.45205763188235" lon="-3.8352018021635668"><ele>2.4000000000000004</ele><time>2026-04-30T18:25:12Z</time></trkpt><trkpt lat="43.45209615559813" lon="-3.835055872041073"><ele>2.0</ele><time>2026-04-30T18:25:13Z</time></trkpt><trkpt lat="43.45213543340586" lon="-3.8349139045382343"><ele>2.0</ele><time>2026-04-30T18:25:14Z</time></trkpt><trkpt lat="43.45217534653708" lon="-3.834770063748539"><ele>2.0</ele><time>2026-04-30T18:25:15Z</time></trkpt><trkpt lat="43.452213349107225" lon="-3.834627176604872"><ele>2.0</ele><time>2026-04-30T18:25:16Z</time></trkpt><trkpt lat="43.45225117470952" lon="-3.8344820224800173"><ele>2.0</ele><time>2026-04-30T18:25:17Z</time></trkpt><trkpt lat="43.452290872995995" lon="-3.834340051142532"><ele>2.0</ele><time>2026-04-30T18:25:18Z</time></trkpt><trkpt lat="43.452329944142456" lon="-3.8341935793327755"><ele>2.2</ele><time>2026-04-30T18:25:19Z</time></trkpt><trkpt lat="43.4523697494003" lon="-3.8340483889649386"><ele>2.4000000000000004</ele><time>2026-04-30T18:25:20Z</time></trkpt><trkpt lat="43.452409994351726" lon="-3.833902150677455"><ele>2.5999999999999996</ele><time>2026-04-30T18:25:21Z</time></trkpt><trkpt lat="43.452449455385725" lon="-3.83375768027147"><ele>2.8</ele><time>2026-04-30T18:25:22Z</time></trkpt><trkpt lat="43.452489856284025" lon="-3.833614908547147"><ele>3.0</ele><time>2026-04-30T18:25:23Z</time></trkpt><trkpt lat="43.452530425848494" lon="-3.8334690179553648"><ele>3.2</ele><time>2026-04-30T18:25:24Z</time></trkpt><trkpt lat="43.452568147100465" lon="-3.8333271081955362"><ele>3.4</ele><time>2026-04-30T18:25:25Z</time></trkpt><trkpt lat="43.45260597897979" lon="-3.833184246043416"><ele>3.6000000000000005</ele><time>2026-04-30T18:25:26Z</time></trkpt><trkpt lat="43.45264649808474" lon="-3.8330433355239517"><ele>3.8000000000000003</ele><time>2026-04-30T18:25:27Z</time></trkpt><trkpt lat="43.4526845111506" lon="-3.832898521834702"><ele>4.0</ele><time>2026-04-30T18:25:28Z</time></trkpt><trkpt lat="43.45272292893104" lon="-3.8327528762771985"><ele>3.8000000000000003</ele><time>2026-04-30T18:25:29Z</time></trkpt><trkpt lat="43.45276393461379" lon="-3.832608770073751"><ele>3.6000000000000005</ele><time>2026-04-30T18:25:30Z</time></trkpt><trkpt lat="43.45280304999707" lon="-3.8324632680930586"><ele>3.4</ele><time>2026-04-30T18:25:31Z</time></trkpt><trkpt lat="43.45284275356589" lon="-3.832324105897151"><ele>3.2</ele><time>2026-04-30T18:25:32Z</time></trkpt><trkpt lat="43.45288428090835" lon="-3.8321801276052594"><ele>3.0</ele><time>2026-04-30T18:25:33Z</time></trkpt><trkpt lat="43.45292359248299" lon="-3.832038859770346"><ele>2.8</ele><time>2026-04-30T18:25:34Z</time></trkpt><trkpt lat="43.452963218991194" lon="-3.831896019039377"><ele>2.5999999999999996</ele><time>2026-04-30T18:25:35Z</time></trkpt><trkpt lat="43.45300335201294" lon="-3.8317519512961016"><ele>2.4000000000000004</ele><time>2026-04-30T18:25:36Z</time></trkpt><trkpt lat="43.45304287786454" lon="-3.8316112760216083"><ele>2.2</ele><time>2026-04-30T18:25:37Z</time></trkpt><trkpt lat="43.45308152735682" lon="-3.83146967850958"><ele>2.0</ele><time>2026-04-30T18:25:38Z</time></trkpt><trkpt lat="43.453121058833666" lon="-3.8313292682792333"><ele>2.0</ele><time>2026-04-30T18:25:39Z</time></trkpt><trkpt lat="43.4531594662166" lon="-3.8311937713700686"><ele>2.0</ele><time>2026-04-30T18:25:40Z</time></trkpt><trkpt lat="43.45319767719761" lon="-3.8310579015877284"><ele>2.0</ele><time>2026-04-30T18:25:41Z</time></trkpt><trkpt lat="43.45323566135975" lon="-3.8309207489708474"><ele>2.0</ele><time>2026-04-30T18:25:42Z</time></trkpt><trkpt lat="43.45327449578548" lon="-3.8307894593831806"><ele>2.0</ele><time>2026-04-30T18:25:43Z</time></trkpt><trkpt lat="43.453308782392334" lon="-3.830660762304449"><ele>2.2</ele><time>2026-04-30T18:25:44Z</time></trkpt><trkpt lat="43.45333423946713" lon="-3.830519821031059"><ele>2.4000000000000004</ele><time>2026-04-30T18:25:45Z</time></trkpt><trkpt lat="43.453371445293115" lon="-3.8303921788172612"><ele>2.5999999999999996</ele><time>2026-04-30T18:25:46Z</time></trkpt><trkpt lat="43.4534090937586" lon="-3.830272252109138"><ele>2.8</ele><time>2026-04-30T18:25:47Z</time></trkpt><trkpt lat="43.45344620633864" lon="-3.8301542132631283"><ele>3.0</ele><time>2026-04-30T18:25:48Z</time></trkpt><trkpt lat="43.453474178452865" lon="-3.830038483803608"><ele>3.3333333333333335</ele><time>2026-04-30T18:25:49Z</time></trkpt><trkpt lat="43.45350084163689" lon="-3.829938249731598"><ele>3.666666666666667</ele><time>2026-04-30T18:25:50.001Z</time></trkpt><trkpt lat="43.453527526916055" lon="-3.8298506928134146"><ele>4.0</ele><time>2026-04-30T18:25:51.001Z</time></trkpt><trkpt lat="43.453550061143076" lon="-3.8297680820122078"><ele>4.333333333333334</ele><time>2026-04-30T18:25:52.001Z</time></trkpt><trkpt lat="43.453587905766824" lon="-3.8296304758931576"><ele>4.666666666666667</ele><time>2026-04-30T18:25:54.001Z</time></trkpt><trkpt lat="43.45361628018003" lon="-3.8295270797375127"><ele>5.0</ele><time>2026-04-30T18:25:56.001Z</time></trkpt><trkpt lat="43.45363787229434" lon="-3.8294449307705665"><ele>5.0</ele><time>2026-04-30T18:25:59.001Z</time></trkpt><trkpt lat="43.45366268345845" lon="-3.829354972207681"><ele>5.0</ele><time>2026-04-30T18:26:03.001Z</time></trkpt><trkpt lat="43.4536819361938" lon="-3.8292169054029097"><ele>5.0</ele><time>2026-04-30T18:26:11.001Z</time></trkpt><trkpt lat="43.453674467125836" lon="-3.829096287720416"><ele>5.0</ele><time>2026-04-30T18:26:13.001Z</time></trkpt><trkpt lat="43.453628313626254" lon="-3.829036153024757"><ele>5.0</ele><time>2026-04-30T18:26:14.001Z</time></trkpt><trkpt lat="43.45360076557178" lon="-3.8288625665454297"><ele>5.0</ele><time>2026-04-30T18:26:16.001Z</time></trkpt><trkpt lat="43.45359730290392" lon="-3.828755404859818"><ele>5.0</ele><time>2026-04-30T18:26:17.001Z</time></trkpt><trkpt lat="43.453616380382925" lon="-3.8286490845243892"><ele>5.0</ele><time>2026-04-30T18:26:18.001Z</time></trkpt><trkpt lat="43.453565158945096" lon="-3.828535029307397"><ele>5.0</ele><time>2026-04-30T18:26:19.001Z</time></trkpt><trkpt lat="43.45351323734966" lon="-3.828437736662452"><ele>5.0</ele><time>2026-04-30T18:26:20.001Z</time></trkpt><trkpt lat="43.453442954914514" lon="-3.8283605674165404"><ele>5.0</ele><time>2026-04-30T18:26:21.001Z</time></trkpt><trkpt lat="43.45335444887737" lon="-3.8283153910250087"><ele>5.0</ele><time>2026-04-30T18:26:22.001Z</time></trkpt><trkpt lat="43.453263427968544" lon="-3.828279565373916"><ele>5.0</ele><time>2026-04-30T18:26:23.001Z</time></trkpt><trkpt lat="43.453175437140764" lon="-3.828239881245287"><ele>5.0</ele><time>2026-04-30T18:26:24.001Z</time></trkpt><trkpt lat="43.45308367320391" lon="-3.828193464569114"><ele>5.0</ele><time>2026-04-30T18:26:25.001Z</time></trkpt><trkpt lat="43.45299100696351" lon="-3.828140706663085"><ele>5.0</ele><time>2026-04-30T18:26:26.001Z</time></trkpt><trkpt lat="43.45289550931107" lon="-3.8280921762859226"><ele>4.6</ele><time>2026-04-30T18:26:27.001Z</time></trkpt><trkpt lat="43.45280183127289" lon="-3.8280440633356827"><ele>4.2</ele><time>2026-04-30T18:26:28.001Z</time></trkpt><trkpt lat="43.45270805956151" lon="-3.827997395167141"><ele>3.8</ele><time>2026-04-30T18:26:29.001Z</time></trkpt><trkpt lat="43.45261279915957" lon="-3.827949012148308"><ele>3.4</ele><time>2026-04-30T18:26:30.001Z</time></trkpt><trkpt lat="43.45251854470036" lon="-3.827895341966855"><ele>3.0</ele><time>2026-04-30T18:26:31.001Z</time></trkpt><trkpt lat="43.45242653302227" lon="-3.827848407185311"><ele>3.0</ele><time>2026-04-30T18:26:32.001Z</time></trkpt><trkpt lat="43.45233609949938" lon="-3.82780386092652"><ele>3.0</ele><time>2026-04-30T18:26:33.001Z</time></trkpt><trkpt lat="43.45224686654766" lon="-3.827758510584321"><ele>3.0</ele><time>2026-04-30T18:26:34.001Z</time></trkpt><trkpt lat="43.452162858999166" lon="-3.8277137399800574"><ele>3.0</ele><time>2026-04-30T18:26:35.001Z</time></trkpt><trkpt lat="43.45208092582364" lon="-3.8276837707508955"><ele>3.0</ele><time>2026-04-30T18:26:36.001Z</time></trkpt><trkpt lat="43.45200152780467" lon="-3.8276665183577987"><ele>3.0</ele><time>2026-04-30T18:26:37.001Z</time></trkpt><trkpt lat="43.45188559464834" lon="-3.8276806427574424"><ele>2.9999999999999996</ele><time>2026-04-30T18:26:39.001Z</time></trkpt><trkpt lat="43.45182358754839" lon="-3.8277093662556285"><ele>3.0</ele><time>2026-04-30T18:26:40.001Z</time></trkpt><trkpt lat="43.45175255936702" lon="-3.8277318098292876"><ele>3.0</ele><time>2026-04-30T18:26:41.001Z</time></trkpt><trkpt lat="43.451677645450204" lon="-3.827738699180382"><ele>3.0</ele><time>2026-04-30T18:26:42.001Z</time></trkpt><trkpt lat="43.451601933755136" lon="-3.8277254076882534"><ele>3.0</ele><time>2026-04-30T18:26:43.001Z</time></trkpt><trkpt lat="43.45153488348528" lon="-3.827692622507845"><ele>2.9999999999999996</ele><time>2026-04-30T18:26:44.001Z</time></trkpt><trkpt lat="43.45147212541117" lon="-3.8276427524869363"><ele>3.0</ele><time>2026-04-30T18:26:45.001Z</time></trkpt><trkpt lat="43.45141607184735" lon="-3.8275817216871286"><ele>3.0</ele><time>2026-04-30T18:26:46.001Z</time></trkpt><trkpt lat="43.45136653869894" lon="-3.8274985920078324"><ele>3.0</ele><time>2026-04-30T18:26:47.001Z</time></trkpt><trkpt lat="43.45132918703369" lon="-3.827415573755797"><ele>3.0</ele><time>2026-04-30T18:26:48.002Z</time></trkpt><trkpt lat="43.45133463965871" lon="-3.827327890867412"><ele>3.0</ele><time>2026-04-30T18:26:49.002Z</time></trkpt><trkpt lat="43.45136387618632" lon="-3.8271970224249197"><ele>3.0</ele><time>2026-04-30T18:26:51.002Z</time></trkpt><trkpt lat="43.45139733080699" lon="-3.8271133199427823"><ele>3.0</ele><time>2026-04-30T18:26:53.002Z</time></trkpt><trkpt lat="43.45144377672249" lon="-3.827044250679862"><ele>3.0</ele><time>2026-04-30T18:27:23.999Z</time></trkpt><trkpt lat="43.451522446937716" lon="-3.8269679681813757"><ele>3.0</ele><time>2026-04-30T18:27:25.999Z</time></trkpt><trkpt lat="43.45157749119569" lon="-3.8269167485108255"><ele>3.0</ele><time>2026-04-30T18:27:26.999Z</time></trkpt><trkpt lat="43.45162918974603" lon="-3.826817662596618"><ele>3.0</ele><time>2026-04-30T18:27:27.999Z</time></trkpt><trkpt lat="43.45167488448061" lon="-3.826719073059566"><ele>3.0</ele><time>2026-04-30T18:27:28.999Z</time></trkpt><trkpt lat="43.451715158858704" lon="-3.8266053375405655"><ele>3.0</ele><time>2026-04-30T18:27:29.999Z</time></trkpt><trkpt lat="43.45175280289322" lon="-3.8264937503468057"><ele>3.0</ele><time>2026-04-30T18:27:30.999Z</time></trkpt><trkpt lat="43.451788064981535" lon="-3.8263778674768645"><ele>3.0</ele><time>2026-04-30T18:27:31.999Z</time></trkpt><trkpt lat="43.45180985314114" lon="-3.8262494837946472"><ele>3.0</ele><time>2026-04-30T18:27:32.999Z</time></trkpt><trkpt lat="43.45184541604767" lon="-3.826125591200059"><ele>3.0</ele><time>2026-04-30T18:27:33.999Z</time></trkpt><trkpt lat="43.45188220594214" lon="-3.826000045621979"><ele>3.0</ele><time>2026-04-30T18:27:34.999Z</time></trkpt><trkpt lat="43.45192215076247" lon="-3.825872744058656"><ele>3.0</ele><time>2026-04-30T18:27:35.999Z</time></trkpt><trkpt lat="43.45195887872173" lon="-3.8257455594513528"><ele>3.0</ele><time>2026-04-30T18:27:37Z</time></trkpt><trkpt lat="43.452000054544264" lon="-3.8256193925868267"><ele>3.0</ele><time>2026-04-30T18:27:38Z</time></trkpt><trkpt lat="43.45204298485761" lon="-3.8254954163402335"><ele>3.0</ele><time>2026-04-30T18:27:39Z</time></trkpt><trkpt lat="43.45208687728592" lon="-3.825376679681259"><ele>3.0</ele><time>2026-04-30T18:27:40Z</time></trkpt><trkpt lat="43.45213052835535" lon="-3.8252589722166985"><ele>2.8</ele><time>2026-04-30T18:27:41Z</time></trkpt><trkpt lat="43.452171005880004" lon="-3.8251459191426807"><ele>2.5999999999999996</ele><time>2026-04-30T18:27:42Z</time></trkpt><trkpt lat="43.4522114129241" lon="-3.8250333718878022"><ele>2.4000000000000004</ele><time>2026-04-30T18:27:43Z</time></trkpt><trkpt lat="43.45224829079015" lon="-3.8249193172551252"><ele>2.2</ele><time>2026-04-30T18:27:44Z</time></trkpt><trkpt lat="43.45228476535616" lon="-3.824802565088318"><ele>2.0</ele><time>2026-04-30T18:27:45Z</time></trkpt><trkpt lat="43.452316951900166" lon="-3.824694701256048"><ele>2.333333333333333</ele><time>2026-04-30T18:27:46Z</time></trkpt><trkpt lat="43.4523475431893" lon="-3.8245932330494448"><ele>2.6666666666666665</ele><time>2026-04-30T18:27:47Z</time></trkpt><trkpt lat="43.452373653824466" lon="-3.824497196936714"><ele>3.0</ele><time>2026-04-30T18:27:48Z</time></trkpt><trkpt lat="43.452401761891004" lon="-3.824413352645513"><ele>3.333333333333333</ele><time>2026-04-30T18:27:49Z</time></trkpt><trkpt lat="43.45245517270388" lon="-3.8242673770793845"><ele>3.6666666666666665</ele><time>2026-04-30T18:27:51Z</time></trkpt><trkpt lat="43.452500136664376" lon="-3.824149135976746"><ele>4.0</ele><time>2026-04-30T18:27:53Z</time></trkpt><trkpt lat="43.4525425199202" lon="-3.8240578439091104"><ele>4.666666666666666</ele><time>2026-04-30T18:27:55Z</time></trkpt><trkpt lat="43.452575381191046" lon="-3.8239673140637302"><ele>5.333333333333333</ele><time>2026-04-30T18:27:58Z</time></trkpt><trkpt lat="43.452619670179594" lon="-3.8238733687454505"><ele>6.0</ele><time>2026-04-30T18:28:05Z</time></trkpt><trkpt lat="43.45266057924908" lon="-3.8237427208547214"><ele>6.666666666666666</ele><time>2026-04-30T18:28:07Z</time></trkpt><trkpt lat="43.452683872819" lon="-3.823658031687473"><ele>7.333333333333333</ele><time>2026-04-30T18:28:08Z</time></trkpt><trkpt lat="43.45271044404724" lon="-3.823562385254312"><ele>8.0</ele><time>2026-04-30T18:28:09Z</time></trkpt><trkpt lat="43.45273899649322" lon="-3.8234579750645077"><ele>8.4</ele><time>2026-04-30T18:28:10Z</time></trkpt><trkpt lat="43.45276957253416" lon="-3.823351347101319"><ele>8.8</ele><time>2026-04-30T18:28:11Z</time></trkpt><trkpt lat="43.45279825009285" lon="-3.8232346345104493"><ele>9.2</ele><time>2026-04-30T18:28:12Z</time></trkpt><trkpt lat="43.45283071957641" lon="-3.8231158424576708"><ele>9.6</ele><time>2026-04-30T18:28:13Z</time></trkpt><trkpt lat="43.45286168903361" lon="-3.822991078649699"><ele>10.0</ele><time>2026-04-30T18:28:14Z</time></trkpt><trkpt lat="43.45289453817674" lon="-3.8228643320152598"><ele>10.0</ele><time>2026-04-30T18:28:15.001Z</time></trkpt><trkpt lat="43.452931118309735" lon="-3.8227366293584697"><ele>10.0</ele><time>2026-04-30T18:28:16.001Z</time></trkpt><trkpt lat="43.45296613172113" lon="-3.8226097302687276"><ele>10.0</ele><time>2026-04-30T18:28:17.001Z</time></trkpt><trkpt lat="43.45300007820644" lon="-3.8224811358885487"><ele>10.0</ele><time>2026-04-30T18:28:18.001Z</time></trkpt><trkpt lat="43.45303541158604" lon="-3.8223468307576214"><ele>10.0</ele><time>2026-04-30T18:28:19.001Z</time></trkpt><trkpt lat="43.453069800702174" lon="-3.8222160973136003"><ele>9.6</ele><time>2026-04-30T18:28:20.001Z</time></trkpt><trkpt lat="43.45310580721609" lon="-3.8220844406243835"><ele>9.2</ele><time>2026-04-30T18:28:21.001Z</time></trkpt><trkpt lat="43.45314148314174" lon="-3.8219537585317016"><ele>8.8</ele><time>2026-04-30T18:28:22.001Z</time></trkpt><trkpt lat="43.45317825850287" lon="-3.8218234288472197"><ele>8.4</ele><time>2026-04-30T18:28:23.001Z</time></trkpt><trkpt lat="43.45321477445002" lon="-3.8216909280175537"><ele>8.0</ele><time>2026-04-30T18:28:24.001Z</time></trkpt><trkpt lat="43.45325679370804" lon="-3.821568604512348"><ele>8.0</ele><time>2026-04-30T18:28:25.001Z</time></trkpt><trkpt lat="43.453292654121164" lon="-3.8214369883918953"><ele>8.0</ele><time>2026-04-30T18:28:26.001Z</time></trkpt><trkpt lat="43.45333085710462" lon="-3.821304433225271"><ele>8.0</ele><time>2026-04-30T18:28:27.001Z</time></trkpt><trkpt lat="43.45336923479612" lon="-3.8211740753817907"><ele>8.0</ele><time>2026-04-30T18:28:28.001Z</time></trkpt><trkpt lat="43.45340394876677" lon="-3.8210396633286106"><ele>8.0</ele><time>2026-04-30T18:28:29.001Z</time></trkpt><trkpt lat="43.45343802588401" lon="-3.8209015598519493"><ele>7.800000000000001</ele><time>2026-04-30T18:28:30.001Z</time></trkpt><trkpt lat="43.45346953829825" lon="-3.8207699369148047"><ele>7.6000000000000005</ele><time>2026-04-30T18:28:31.001Z</time></trkpt><trkpt lat="43.45350490220915" lon="-3.820640518711661"><ele>7.3999999999999995</ele><time>2026-04-30T18:28:32.001Z</time></trkpt><trkpt lat="43.45354383635221" lon="-3.8205141369435305"><ele>7.199999999999999</ele><time>2026-04-30T18:28:33.001Z</time></trkpt><trkpt lat="43.453585953838534" lon="-3.820387046886513"><ele>7.0</ele><time>2026-04-30T18:28:34.001Z</time></trkpt><trkpt lat="43.45362384706329" lon="-3.820258302932536"><ele>6.6</ele><time>2026-04-30T18:28:35.001Z</time></trkpt><trkpt lat="43.45366204259749" lon="-3.8201319095756614"><ele>6.199999999999999</ele><time>2026-04-30T18:28:36.001Z</time></trkpt><trkpt lat="43.453701455513375" lon="-3.8200038241800662"><ele>5.8</ele><time>2026-04-30T18:28:37.001Z</time></trkpt><trkpt lat="43.45373617259868" lon="-3.819872089274392"><ele>5.4</ele><time>2026-04-30T18:28:38.001Z</time></trkpt><trkpt lat="43.45377114532933" lon="-3.819745861150872"><ele>5.0</ele><time>2026-04-30T18:28:39.001Z</time></trkpt><trkpt lat="43.45380332392427" lon="-3.819625158144775"><ele>5.0</ele><time>2026-04-30T18:28:40.001Z</time></trkpt><trkpt lat="43.45383213315595" lon="-3.819511343157362"><ele>5.0</ele><time>2026-04-30T18:28:41.001Z</time></trkpt><trkpt lat="43.45386096753263" lon="-3.819407527327348"><ele>5.0</ele><time>2026-04-30T18:28:42.001Z</time></trkpt><trkpt lat="43.453890684409465" lon="-3.8193103343177706"><ele>5.0</ele><time>2026-04-30T18:28:43.001Z</time></trkpt><trkpt lat="43.45392353179583" lon="-3.819221071296646"><ele>5.0</ele><time>2026-04-30T18:28:44.001Z</time></trkpt><trkpt lat="43.45395569971209" lon="-3.819132264295342"><ele>5.0</ele><time>2026-04-30T18:28:45.001Z</time></trkpt><trkpt lat="43.45399165155652" lon="-3.819043975854416"><ele>5.166666666666667</ele><time>2026-04-30T18:28:46.001Z</time></trkpt><trkpt lat="43.45402598151783" lon="-3.818950797852235"><ele>5.333333333333334</ele><time>2026-04-30T18:28:47.001Z</time></trkpt><trkpt lat="43.45404196480454" lon="-3.8188414259518924"><ele>5.5</ele><time>2026-04-30T18:28:48.001Z</time></trkpt><trkpt lat="43.45406823274313" lon="-3.8187337514122652"><ele>5.666666666666667</ele><time>2026-04-30T18:28:49.001Z</time></trkpt><trkpt lat="43.454096242723764" lon="-3.8186252397357814"><ele>5.833333333333333</ele><time>2026-04-30T18:28:50.001Z</time></trkpt><trkpt lat="43.454133685122535" lon="-3.818521465765101"><ele>6.0</ele><time>2026-04-30T18:28:51.001Z</time></trkpt><trkpt lat="43.45416480886122" lon="-3.8184097104469155"><ele>6.333333333333333</ele><time>2026-04-30T18:28:52.001Z</time></trkpt><trkpt lat="43.45419686706531" lon="-3.818300960304795"><ele>6.666666666666666</ele><time>2026-04-30T18:28:53.001Z</time></trkpt><trkpt lat="43.454227367927096" lon="-3.8181939098379343"><ele>7.0</ele><time>2026-04-30T18:28:54.001Z</time></trkpt><trkpt lat="43.45425649707625" lon="-3.8180810297367174"><ele>7.333333333333333</ele><time>2026-04-30T18:28:55.001Z</time></trkpt><trkpt lat="43.454278714443284" lon="-3.8179606987518637"><ele>7.666666666666666</ele><time>2026-04-30T18:28:56.001Z</time></trkpt><trkpt lat="43.45430954213686" lon="-3.8178532234229623"><ele>8.0</ele><time>2026-04-30T18:28:57.001Z</time></trkpt><trkpt lat="43.45433873395285" lon="-3.8177411480584245"><ele>7.800000000000001</ele><time>2026-04-30T18:28:58.001Z</time></trkpt><trkpt lat="43.45437248197796" lon="-3.817625142914091"><ele>7.6000000000000005</ele><time>2026-04-30T18:28:59.001Z</time></trkpt><trkpt lat="43.45440578314501" lon="-3.8175054798114663"><ele>7.3999999999999995</ele><time>2026-04-30T18:29:00.001Z</time></trkpt><trkpt lat="43.45443882569195" lon="-3.8173805691562714"><ele>7.199999999999999</ele><time>2026-04-30T18:29:01.001Z</time></trkpt><trkpt lat="43.45447373137738" lon="-3.8172561025326632"><ele>7.0</ele><time>2026-04-30T18:29:02.001Z</time></trkpt><trkpt lat="43.45449847634936" lon="-3.8171300604266176"><ele>7.0</ele><time>2026-04-30T18:29:03.002Z</time></trkpt><trkpt lat="43.45452779442286" lon="-3.817008255681051"><ele>6.999999999999999</ele><time>2026-04-30T18:29:04.002Z</time></trkpt><trkpt lat="43.45455895029829" lon="-3.816885452527866"><ele>6.999999999999999</ele><time>2026-04-30T18:29:05.002Z</time></trkpt><trkpt lat="43.45459315851444" lon="-3.816768523038381"><ele>7.0</ele><time>2026-04-30T18:29:06.002Z</time></trkpt><trkpt lat="43.45462343544741" lon="-3.816650319724325"><ele>7.0</ele><time>2026-04-30T18:29:07.002Z</time></trkpt><trkpt lat="43.454653068039825" lon="-3.8165346480557467"><ele>7.333333333333334</ele><time>2026-04-30T18:29:08.002Z</time></trkpt><trkpt lat="43.45468193723945" lon="-3.8164103378496663"><ele>7.666666666666667</ele><time>2026-04-30T18:29:09.002Z</time></trkpt><trkpt lat="43.45471248487691" lon="-3.8162940390380187"><ele>8.0</ele><time>2026-04-30T18:29:10.002Z</time></trkpt><trkpt lat="43.45474622884459" lon="-3.8161824528458794"><ele>8.333333333333334</ele><time>2026-04-30T18:29:11.002Z</time></trkpt><trkpt lat="43.45477835817345" lon="-3.8160762467278713"><ele>8.666666666666666</ele><time>2026-04-30T18:29:12.002Z</time></trkpt><trkpt lat="43.454803931356416" lon="-3.8159648984132675"><ele>9.0</ele><time>2026-04-30T18:29:13.002Z</time></trkpt><trkpt lat="43.4548333459882" lon="-3.815860116185809"><ele>9.0</ele><time>2026-04-30T18:29:14.002Z</time></trkpt><trkpt lat="43.4548616784542" lon="-3.8157534593140285"><ele>9.0</ele><time>2026-04-30T18:29:15.002Z</time></trkpt><trkpt lat="43.45489754720994" lon="-3.8156462873213246"><ele>9.0</ele><time>2026-04-30T18:29:16.002Z</time></trkpt><trkpt lat="43.454927980502276" lon="-3.8155393176606127"><ele>9.0</ele><time>2026-04-30T18:29:17Z</time></trkpt><trkpt lat="43.454952709076274" lon="-3.815431529235084"><ele>9.0</ele><time>2026-04-30T18:29:18Z</time></trkpt><trkpt lat="43.454987141047155" lon="-3.815327256990002"><ele>9.0</ele><time>2026-04-30T18:29:19Z</time></trkpt><trkpt lat="43.45502556308795" lon="-3.815223720126689"><ele>8.666666666666666</ele><time>2026-04-30T18:29:20Z</time></trkpt><trkpt lat="43.45505846589343" lon="-3.8151191237487"><ele>8.333333333333334</ele><time>2026-04-30T18:29:21Z</time></trkpt><trkpt lat="43.455090159045604" lon="-3.8150124628363784"><ele>8.0</ele><time>2026-04-30T18:29:22Z</time></trkpt><trkpt lat="43.45511555613432" lon="-3.814904767460105"><ele>7.666666666666667</ele><time>2026-04-30T18:29:23Z</time></trkpt><trkpt lat="43.455145790676674" lon="-3.8148044698058543"><ele>7.333333333333334</ele><time>2026-04-30T18:29:24Z</time></trkpt><trkpt lat="43.45517104281268" lon="-3.8147006614220724"><ele>7.0</ele><time>2026-04-30T18:29:25Z</time></trkpt><trkpt lat="43.455203574540235" lon="-3.8146068890544504"><ele>7.000000000000001</ele><time>2026-04-30T18:29:26Z</time></trkpt><trkpt lat="43.45523463445837" lon="-3.8145193043611076"><ele>7.0</ele><time>2026-04-30T18:29:27Z</time></trkpt><trkpt lat="43.45525638083525" lon="-3.81442844415814"><ele>7.0</ele><time>2026-04-30T18:29:28Z</time></trkpt><trkpt lat="43.455296549015834" lon="-3.814278375038081"><ele>7.0</ele><time>2026-04-30T18:29:30Z</time></trkpt><trkpt lat="43.45532554295484" lon="-3.814149799554117"><ele>7.000000000000001</ele><time>2026-04-30T18:29:32Z</time></trkpt><trkpt lat="43.45535211337903" lon="-3.8140369636535687"><ele>7.0</ele><time>2026-04-30T18:29:34Z</time></trkpt><trkpt lat="43.455370697817045" lon="-3.8139241724777384"><ele>7.3999999999999995</ele><time>2026-04-30T18:29:36Z</time></trkpt><trkpt lat="43.45539552289226" lon="-3.813799999078495"><ele>7.799999999999999</ele><time>2026-04-30T18:29:38Z</time></trkpt><trkpt lat="43.45543753800878" lon="-3.81367251581924"><ele>8.2</ele><time>2026-04-30T18:29:40Z</time></trkpt><trkpt lat="43.4554713925254" lon="-3.813530222825441"><ele>8.6</ele><time>2026-04-30T18:29:42Z</time></trkpt><trkpt lat="43.45551973080065" lon="-3.8133800472370947"><ele>9.0</ele><time>2026-04-30T18:29:44Z</time></trkpt><trkpt lat="43.45554265568805" lon="-3.813298417585645"><ele>10.2</ele><time>2026-04-30T18:29:45Z</time></trkpt><trkpt lat="43.455588441689144" lon="-3.813148064281776"><ele>11.4</ele><time>2026-04-30T18:29:47.001Z</time></trkpt><trkpt lat="43.45561943356711" lon="-3.8130266155559513"><ele>12.6</ele><time>2026-04-30T18:29:49.001Z</time></trkpt><trkpt lat="43.45565981023868" lon="-3.8129308531233232"><ele>13.8</ele><time>2026-04-30T18:29:51.001Z</time></trkpt><trkpt lat="43.455753855549496" lon="-3.8129166521332807"><ele>15.0</ele><time>2026-04-30T18:29:54.001Z</time></trkpt><trkpt lat="43.45581367165411" lon="-3.8129647701659626"><ele>15.0</ele><time>2026-04-30T18:29:56.001Z</time></trkpt><trkpt lat="43.455887344519354" lon="-3.813001252248053"><ele>15.0</ele><time>2026-04-30T18:29:58.001Z</time></trkpt><trkpt lat="43.455978765763874" lon="-3.8130421271809354"><ele>15.0</ele><time>2026-04-30T18:30:00.001Z</time></trkpt><trkpt lat="43.456071284548266" lon="-3.8130975365256186"><ele>15.0</ele><time>2026-04-30T18:30:02.001Z</time></trkpt><trkpt lat="43.45615096620086" lon="-3.8131465509077107"><ele>15.0</ele><time>2026-04-30T18:30:04.001Z</time></trkpt><trkpt lat="43.4562210094677" lon="-3.8131626998437724"><ele>15.0</ele><time>2026-04-30T18:30:06.001Z</time></trkpt><trkpt lat="43.45630015865262" lon="-3.8132040341314877"><ele>13.0</ele><time>2026-04-30T18:30:09.001Z</time></trkpt></trkseg></trk></gpx>